<?xml version="1.0" encoding="UTF-8" standalone="no" ?>
<gpx xmlns="http://www.topografix.com/GPX/1/1" xmlns:xsi="http://www.w3.org/2001/XMLSchema-instance" xsi:schemaLocation="http://www.topografix.com/GPX/1/1 http://www.topografix.com/GPX/1/1/gpx.xsd" version="1.1" creator="VisuGPX - https://www.visugpx.com">
  <metadata>
    <name>St léger les domart</name>
  </metadata>
  <trk>
    <name><![CDATA[St léger les domart_1]]></name>
    <trkseg>
      <trkpt lat="50.04981" lon="2.14126">
        <ele>29.3</ele>
        <time>2024-03-27T13:06:17Z</time>
      </trkpt>
      <trkpt lat="50.04988" lon="2.14115">
        <ele>29.2</ele>
        <time>2024-03-27T13:06:18Z</time>
      </trkpt>
      <trkpt lat="50.0499" lon="2.14113">
        <ele>29.2</ele>
        <time>2024-03-27T13:06:19Z</time>
      </trkpt>
      <trkpt lat="50.0499" lon="2.14112">
        <ele>29.2</ele>
        <time>2024-03-27T13:06:20Z</time>
      </trkpt>
      <trkpt lat="50.04991" lon="2.14111">
        <ele>29.2</ele>
        <time>2024-03-27T13:06:21Z</time>
      </trkpt>
      <trkpt lat="50.04988" lon="2.14108">
        <ele>29.2</ele>
        <time>2024-03-27T13:06:22Z</time>
      </trkpt>
      <trkpt lat="50.04985" lon="2.14104">
        <ele>29.2</ele>
        <time>2024-03-27T13:06:23Z</time>
      </trkpt>
      <trkpt lat="50.04984" lon="2.14102">
        <ele>29.2</ele>
        <time>2024-03-27T13:06:25Z</time>
      </trkpt>
      <trkpt lat="50.04984" lon="2.141">
        <ele>29.2</ele>
        <time>2024-03-27T13:06:26Z</time>
      </trkpt>
      <trkpt lat="50.04984" lon="2.14098">
        <ele>29.2</ele>
        <time>2024-03-27T13:06:27Z</time>
      </trkpt>
      <trkpt lat="50.04984" lon="2.14097">
        <ele>29.2</ele>
        <time>2024-03-27T13:06:28Z</time>
      </trkpt>
      <trkpt lat="50.04984" lon="2.14095">
        <ele>29.2</ele>
        <time>2024-03-27T13:06:29Z</time>
      </trkpt>
      <trkpt lat="50.04984" lon="2.14094">
        <ele>29.2</ele>
        <time>2024-03-27T13:06:30Z</time>
      </trkpt>
      <trkpt lat="50.04984" lon="2.14092">
        <ele>29.2</ele>
        <time>2024-03-27T13:06:31Z</time>
      </trkpt>
      <trkpt lat="50.04984" lon="2.1409">
        <ele>29.2</ele>
        <time>2024-03-27T13:06:32Z</time>
      </trkpt>
      <trkpt lat="50.04985" lon="2.14089">
        <ele>29.2</ele>
        <time>2024-03-27T13:06:33Z</time>
      </trkpt>
      <trkpt lat="50.04984" lon="2.14088">
        <ele>29.2</ele>
        <time>2024-03-27T13:06:34Z</time>
      </trkpt>
      <trkpt lat="50.04984" lon="2.14087">
        <ele>29.2</ele>
        <time>2024-03-27T13:06:35Z</time>
      </trkpt>
      <trkpt lat="50.04984" lon="2.14086">
        <ele>29.2</ele>
        <time>2024-03-27T13:06:36Z</time>
      </trkpt>
      <trkpt lat="50.04985" lon="2.14086">
        <ele>29.2</ele>
        <time>2024-03-27T13:06:37Z</time>
      </trkpt>
      <trkpt lat="50.04985" lon="2.14085">
        <ele>29.2</ele>
        <time>2024-03-27T13:06:38Z</time>
      </trkpt>
      <trkpt lat="50.04985" lon="2.14083">
        <ele>29.2</ele>
        <time>2024-03-27T13:06:39Z</time>
      </trkpt>
      <trkpt lat="50.04985" lon="2.14083">
        <ele>29.2</ele>
        <time>2024-03-27T13:06:40Z</time>
      </trkpt>
      <trkpt lat="50.04985" lon="2.14081">
        <ele>29.2</ele>
        <time>2024-03-27T13:06:41Z</time>
      </trkpt>
      <trkpt lat="50.04985" lon="2.1408">
        <ele>29.2</ele>
        <time>2024-03-27T13:06:42Z</time>
      </trkpt>
      <trkpt lat="50.04986" lon="2.14079">
        <ele>29.2</ele>
        <time>2024-03-27T13:06:43Z</time>
      </trkpt>
      <trkpt lat="50.04986" lon="2.14078">
        <ele>29.2</ele>
        <time>2024-03-27T13:06:44Z</time>
      </trkpt>
      <trkpt lat="50.04986" lon="2.14077">
        <ele>29.2</ele>
        <time>2024-03-27T13:06:45Z</time>
      </trkpt>
      <trkpt lat="50.04986" lon="2.14076">
        <ele>29.2</ele>
        <time>2024-03-27T13:06:46Z</time>
      </trkpt>
      <trkpt lat="50.04986" lon="2.14075">
        <ele>29.2</ele>
        <time>2024-03-27T13:06:47Z</time>
      </trkpt>
      <trkpt lat="50.04986" lon="2.14073">
        <ele>29.2</ele>
        <time>2024-03-27T13:06:48Z</time>
      </trkpt>
      <trkpt lat="50.04986" lon="2.14073">
        <ele>29.2</ele>
        <time>2024-03-27T13:06:49Z</time>
      </trkpt>
      <trkpt lat="50.04986" lon="2.14072">
        <ele>29.2</ele>
        <time>2024-03-27T13:06:50Z</time>
      </trkpt>
      <trkpt lat="50.04985" lon="2.14071">
        <ele>29.2</ele>
        <time>2024-03-27T13:06:51Z</time>
      </trkpt>
      <trkpt lat="50.04986" lon="2.1407">
        <ele>29.1</ele>
        <time>2024-03-27T13:06:52Z</time>
      </trkpt>
      <trkpt lat="50.04986" lon="2.14069">
        <ele>29.1</ele>
        <time>2024-03-27T13:06:53Z</time>
      </trkpt>
      <trkpt lat="50.04986" lon="2.14068">
        <ele>29.1</ele>
        <time>2024-03-27T13:06:54Z</time>
      </trkpt>
      <trkpt lat="50.04986" lon="2.14067">
        <ele>29.1</ele>
        <time>2024-03-27T13:06:55Z</time>
      </trkpt>
      <trkpt lat="50.04987" lon="2.14067">
        <ele>29.1</ele>
        <time>2024-03-27T13:06:56Z</time>
      </trkpt>
      <trkpt lat="50.04987" lon="2.14066">
        <ele>29.1</ele>
        <time>2024-03-27T13:06:57Z</time>
      </trkpt>
      <trkpt lat="50.04988" lon="2.14066">
        <ele>29.1</ele>
        <time>2024-03-27T13:06:58Z</time>
      </trkpt>
      <trkpt lat="50.04988" lon="2.14065">
        <ele>29</ele>
        <time>2024-03-27T13:06:59Z</time>
      </trkpt>
      <trkpt lat="50.04989" lon="2.14065">
        <ele>29</ele>
        <time>2024-03-27T13:07:00Z</time>
      </trkpt>
      <trkpt lat="50.04989" lon="2.14065">
        <ele>29</ele>
        <time>2024-03-27T13:07:01Z</time>
      </trkpt>
      <trkpt lat="50.04989" lon="2.14064">
        <ele>29</ele>
        <time>2024-03-27T13:07:02Z</time>
      </trkpt>
      <trkpt lat="50.04989" lon="2.14064">
        <ele>29</ele>
        <time>2024-03-27T13:07:03Z</time>
      </trkpt>
      <trkpt lat="50.04989" lon="2.14064">
        <ele>29</ele>
        <time>2024-03-27T13:07:04Z</time>
      </trkpt>
      <trkpt lat="50.04989" lon="2.14064">
        <ele>29</ele>
        <time>2024-03-27T13:07:05Z</time>
      </trkpt>
      <trkpt lat="50.04988" lon="2.14064">
        <ele>29</ele>
        <time>2024-03-27T13:07:06Z</time>
      </trkpt>
      <trkpt lat="50.04988" lon="2.14065">
        <ele>29</ele>
        <time>2024-03-27T13:07:07Z</time>
      </trkpt>
      <trkpt lat="50.04988" lon="2.14065">
        <ele>29</ele>
        <time>2024-03-27T13:07:08Z</time>
      </trkpt>
      <trkpt lat="50.04988" lon="2.14065">
        <ele>29</ele>
        <time>2024-03-27T13:07:09Z</time>
      </trkpt>
      <trkpt lat="50.04988" lon="2.14066">
        <ele>29</ele>
        <time>2024-03-27T13:07:10Z</time>
      </trkpt>
      <trkpt lat="50.04988" lon="2.14065">
        <ele>29</ele>
        <time>2024-03-27T13:07:11Z</time>
      </trkpt>
      <trkpt lat="50.04988" lon="2.14065">
        <ele>29</ele>
        <time>2024-03-27T13:07:12Z</time>
      </trkpt>
      <trkpt lat="50.04988" lon="2.14065">
        <ele>29</ele>
        <time>2024-03-27T13:07:13Z</time>
      </trkpt>
      <trkpt lat="50.04989" lon="2.14063">
        <ele>29</ele>
        <time>2024-03-27T13:07:14Z</time>
      </trkpt>
      <trkpt lat="50.04989" lon="2.14062">
        <ele>28.9</ele>
        <time>2024-03-27T13:07:15Z</time>
      </trkpt>
      <trkpt lat="50.04989" lon="2.1406">
        <ele>28.9</ele>
        <time>2024-03-27T13:07:16Z</time>
      </trkpt>
      <trkpt lat="50.04989" lon="2.14059">
        <ele>28.9</ele>
        <time>2024-03-27T13:07:17Z</time>
      </trkpt>
      <trkpt lat="50.04989" lon="2.14057">
        <ele>28.9</ele>
        <time>2024-03-27T13:07:18Z</time>
      </trkpt>
      <trkpt lat="50.04989" lon="2.14057">
        <ele>28.9</ele>
        <time>2024-03-27T13:07:19Z</time>
      </trkpt>
      <trkpt lat="50.04989" lon="2.14056">
        <ele>28.9</ele>
        <time>2024-03-27T13:07:20Z</time>
      </trkpt>
      <trkpt lat="50.04989" lon="2.14055">
        <ele>28.9</ele>
        <time>2024-03-27T13:07:21Z</time>
      </trkpt>
      <trkpt lat="50.0499" lon="2.14054">
        <ele>28.9</ele>
        <time>2024-03-27T13:07:22Z</time>
      </trkpt>
      <trkpt lat="50.0499" lon="2.14054">
        <ele>28.9</ele>
        <time>2024-03-27T13:07:23Z</time>
      </trkpt>
      <trkpt lat="50.0499" lon="2.14053">
        <ele>28.9</ele>
        <time>2024-03-27T13:07:24Z</time>
      </trkpt>
      <trkpt lat="50.0499" lon="2.14052">
        <ele>28.9</ele>
        <time>2024-03-27T13:07:25Z</time>
      </trkpt>
      <trkpt lat="50.0499" lon="2.14051">
        <ele>28.9</ele>
        <time>2024-03-27T13:07:26Z</time>
      </trkpt>
      <trkpt lat="50.0499" lon="2.1405">
        <ele>28.9</ele>
        <time>2024-03-27T13:07:27Z</time>
      </trkpt>
      <trkpt lat="50.0499" lon="2.1405">
        <ele>28.9</ele>
        <time>2024-03-27T13:07:28Z</time>
      </trkpt>
      <trkpt lat="50.04989" lon="2.14049">
        <ele>28.9</ele>
        <time>2024-03-27T13:07:29Z</time>
      </trkpt>
      <trkpt lat="50.04989" lon="2.14048">
        <ele>28.9</ele>
        <time>2024-03-27T13:07:30Z</time>
      </trkpt>
      <trkpt lat="50.04989" lon="2.14047">
        <ele>28.9</ele>
        <time>2024-03-27T13:07:31Z</time>
      </trkpt>
      <trkpt lat="50.04989" lon="2.14046">
        <ele>28.8</ele>
        <time>2024-03-27T13:07:32Z</time>
      </trkpt>
      <trkpt lat="50.04989" lon="2.14045">
        <ele>28.8</ele>
        <time>2024-03-27T13:07:33Z</time>
      </trkpt>
      <trkpt lat="50.04989" lon="2.14044">
        <ele>28.8</ele>
        <time>2024-03-27T13:07:34Z</time>
      </trkpt>
      <trkpt lat="50.04989" lon="2.14043">
        <ele>28.8</ele>
        <time>2024-03-27T13:07:35Z</time>
      </trkpt>
      <trkpt lat="50.04989" lon="2.14042">
        <ele>28.8</ele>
        <time>2024-03-27T13:07:36Z</time>
      </trkpt>
      <trkpt lat="50.04989" lon="2.14041">
        <ele>28.8</ele>
        <time>2024-03-27T13:07:37Z</time>
      </trkpt>
      <trkpt lat="50.04989" lon="2.1404">
        <ele>28.8</ele>
        <time>2024-03-27T13:07:38Z</time>
      </trkpt>
      <trkpt lat="50.04989" lon="2.14038">
        <ele>28.8</ele>
        <time>2024-03-27T13:07:39Z</time>
      </trkpt>
      <trkpt lat="50.04989" lon="2.14037">
        <ele>28.8</ele>
        <time>2024-03-27T13:07:40Z</time>
      </trkpt>
      <trkpt lat="50.04989" lon="2.14035">
        <ele>28.8</ele>
        <time>2024-03-27T13:07:41Z</time>
      </trkpt>
      <trkpt lat="50.04989" lon="2.14034">
        <ele>28.8</ele>
        <time>2024-03-27T13:07:42Z</time>
      </trkpt>
      <trkpt lat="50.04988" lon="2.14033">
        <ele>28.8</ele>
        <time>2024-03-27T13:07:43Z</time>
      </trkpt>
      <trkpt lat="50.04988" lon="2.14032">
        <ele>28.8</ele>
        <time>2024-03-27T13:07:44Z</time>
      </trkpt>
      <trkpt lat="50.04988" lon="2.14032">
        <ele>28.8</ele>
        <time>2024-03-27T13:07:45Z</time>
      </trkpt>
      <trkpt lat="50.04988" lon="2.1403">
        <ele>28.7</ele>
        <time>2024-03-27T13:07:46Z</time>
      </trkpt>
      <trkpt lat="50.04988" lon="2.14028">
        <ele>28.7</ele>
        <time>2024-03-27T13:07:47Z</time>
      </trkpt>
      <trkpt lat="50.04988" lon="2.14025">
        <ele>28.7</ele>
        <time>2024-03-27T13:07:48Z</time>
      </trkpt>
      <trkpt lat="50.04988" lon="2.14024">
        <ele>28.7</ele>
        <time>2024-03-27T13:07:50Z</time>
      </trkpt>
      <trkpt lat="50.04988" lon="2.14022">
        <ele>28.7</ele>
        <time>2024-03-27T13:07:51Z</time>
      </trkpt>
      <trkpt lat="50.04988" lon="2.14021">
        <ele>28.7</ele>
        <time>2024-03-27T13:07:52Z</time>
      </trkpt>
      <trkpt lat="50.04988" lon="2.1402">
        <ele>28.7</ele>
        <time>2024-03-27T13:07:53Z</time>
      </trkpt>
      <trkpt lat="50.04988" lon="2.14018">
        <ele>28.7</ele>
        <time>2024-03-27T13:07:54Z</time>
      </trkpt>
      <trkpt lat="50.04988" lon="2.14017">
        <ele>28.6</ele>
        <time>2024-03-27T13:07:55Z</time>
      </trkpt>
      <trkpt lat="50.04988" lon="2.14015">
        <ele>28.6</ele>
        <time>2024-03-27T13:07:56Z</time>
      </trkpt>
      <trkpt lat="50.04988" lon="2.14014">
        <ele>28.6</ele>
        <time>2024-03-27T13:07:57Z</time>
      </trkpt>
      <trkpt lat="50.04987" lon="2.14013">
        <ele>28.6</ele>
        <time>2024-03-27T13:07:58Z</time>
      </trkpt>
      <trkpt lat="50.04987" lon="2.14011">
        <ele>28.6</ele>
        <time>2024-03-27T13:07:59Z</time>
      </trkpt>
      <trkpt lat="50.04986" lon="2.14009">
        <ele>28.6</ele>
        <time>2024-03-27T13:08:00Z</time>
      </trkpt>
      <trkpt lat="50.04986" lon="2.14007">
        <ele>28.6</ele>
        <time>2024-03-27T13:08:01Z</time>
      </trkpt>
      <trkpt lat="50.04986" lon="2.14006">
        <ele>28.6</ele>
        <time>2024-03-27T13:08:02Z</time>
      </trkpt>
      <trkpt lat="50.04985" lon="2.14003">
        <ele>28.6</ele>
        <time>2024-03-27T13:08:03Z</time>
      </trkpt>
      <trkpt lat="50.04985" lon="2.14001">
        <ele>28.6</ele>
        <time>2024-03-27T13:08:04Z</time>
      </trkpt>
      <trkpt lat="50.04984" lon="2.13999">
        <ele>28.6</ele>
        <time>2024-03-27T13:08:05Z</time>
      </trkpt>
      <trkpt lat="50.04984" lon="2.13998">
        <ele>28.5</ele>
        <time>2024-03-27T13:08:06Z</time>
      </trkpt>
      <trkpt lat="50.04984" lon="2.13996">
        <ele>28.5</ele>
        <time>2024-03-27T13:08:07Z</time>
      </trkpt>
      <trkpt lat="50.04983" lon="2.13995">
        <ele>28.5</ele>
        <time>2024-03-27T13:08:08Z</time>
      </trkpt>
      <trkpt lat="50.04983" lon="2.13994">
        <ele>28.5</ele>
        <time>2024-03-27T13:08:09Z</time>
      </trkpt>
      <trkpt lat="50.04982" lon="2.13992">
        <ele>28.5</ele>
        <time>2024-03-27T13:08:10Z</time>
      </trkpt>
      <trkpt lat="50.04982" lon="2.13991">
        <ele>28.6</ele>
        <time>2024-03-27T13:08:11Z</time>
      </trkpt>
      <trkpt lat="50.04982" lon="2.1399">
        <ele>28.6</ele>
        <time>2024-03-27T13:08:12Z</time>
      </trkpt>
      <trkpt lat="50.04982" lon="2.13989">
        <ele>28.6</ele>
        <time>2024-03-27T13:08:13Z</time>
      </trkpt>
      <trkpt lat="50.04981" lon="2.13987">
        <ele>28.6</ele>
        <time>2024-03-27T13:08:14Z</time>
      </trkpt>
      <trkpt lat="50.04981" lon="2.13986">
        <ele>28.6</ele>
        <time>2024-03-27T13:08:15Z</time>
      </trkpt>
      <trkpt lat="50.04981" lon="2.13985">
        <ele>28.6</ele>
        <time>2024-03-27T13:08:16Z</time>
      </trkpt>
      <trkpt lat="50.04981" lon="2.13984">
        <ele>28.6</ele>
        <time>2024-03-27T13:08:17Z</time>
      </trkpt>
      <trkpt lat="50.04981" lon="2.13982">
        <ele>28.6</ele>
        <time>2024-03-27T13:08:18Z</time>
      </trkpt>
      <trkpt lat="50.0498" lon="2.1398">
        <ele>28.6</ele>
        <time>2024-03-27T13:08:19Z</time>
      </trkpt>
      <trkpt lat="50.0498" lon="2.13979">
        <ele>28.6</ele>
        <time>2024-03-27T13:08:20Z</time>
      </trkpt>
      <trkpt lat="50.0498" lon="2.13978">
        <ele>28.6</ele>
        <time>2024-03-27T13:08:21Z</time>
      </trkpt>
      <trkpt lat="50.0498" lon="2.13976">
        <ele>28.6</ele>
        <time>2024-03-27T13:08:22Z</time>
      </trkpt>
      <trkpt lat="50.04979" lon="2.13974">
        <ele>28.7</ele>
        <time>2024-03-27T13:08:23Z</time>
      </trkpt>
      <trkpt lat="50.04979" lon="2.13972">
        <ele>28.7</ele>
        <time>2024-03-27T13:08:24Z</time>
      </trkpt>
      <trkpt lat="50.04978" lon="2.13971">
        <ele>28.7</ele>
        <time>2024-03-27T13:08:25Z</time>
      </trkpt>
      <trkpt lat="50.04977" lon="2.13969">
        <ele>28.7</ele>
        <time>2024-03-27T13:08:26Z</time>
      </trkpt>
      <trkpt lat="50.04977" lon="2.13967">
        <ele>28.7</ele>
        <time>2024-03-27T13:08:27Z</time>
      </trkpt>
      <trkpt lat="50.04977" lon="2.13966">
        <ele>28.8</ele>
        <time>2024-03-27T13:08:28Z</time>
      </trkpt>
      <trkpt lat="50.04977" lon="2.13964">
        <ele>28.8</ele>
        <time>2024-03-27T13:08:29Z</time>
      </trkpt>
      <trkpt lat="50.04976" lon="2.13962">
        <ele>28.8</ele>
        <time>2024-03-27T13:08:30Z</time>
      </trkpt>
      <trkpt lat="50.04976" lon="2.13961">
        <ele>28.8</ele>
        <time>2024-03-27T13:08:31Z</time>
      </trkpt>
      <trkpt lat="50.04976" lon="2.13959">
        <ele>28.8</ele>
        <time>2024-03-27T13:08:32Z</time>
      </trkpt>
      <trkpt lat="50.04976" lon="2.13958">
        <ele>28.8</ele>
        <time>2024-03-27T13:08:33Z</time>
      </trkpt>
      <trkpt lat="50.04975" lon="2.13957">
        <ele>28.9</ele>
        <time>2024-03-27T13:08:34Z</time>
      </trkpt>
      <trkpt lat="50.04975" lon="2.13955">
        <ele>28.9</ele>
        <time>2024-03-27T13:08:35Z</time>
      </trkpt>
      <trkpt lat="50.04975" lon="2.13954">
        <ele>28.9</ele>
        <time>2024-03-27T13:08:36Z</time>
      </trkpt>
      <trkpt lat="50.04975" lon="2.13953">
        <ele>28.9</ele>
        <time>2024-03-27T13:08:37Z</time>
      </trkpt>
      <trkpt lat="50.04975" lon="2.13952">
        <ele>28.9</ele>
        <time>2024-03-27T13:08:38Z</time>
      </trkpt>
      <trkpt lat="50.04975" lon="2.13948">
        <ele>29</ele>
        <time>2024-03-27T13:08:39Z</time>
      </trkpt>
      <trkpt lat="50.04974" lon="2.13947">
        <ele>29</ele>
        <time>2024-03-27T13:08:40Z</time>
      </trkpt>
      <trkpt lat="50.04974" lon="2.13945">
        <ele>29</ele>
        <time>2024-03-27T13:08:41Z</time>
      </trkpt>
      <trkpt lat="50.04974" lon="2.13942">
        <ele>29.1</ele>
        <time>2024-03-27T13:08:42Z</time>
      </trkpt>
      <trkpt lat="50.04974" lon="2.13941">
        <ele>29.1</ele>
        <time>2024-03-27T13:08:43Z</time>
      </trkpt>
      <trkpt lat="50.04974" lon="2.1394">
        <ele>29.1</ele>
        <time>2024-03-27T13:08:44Z</time>
      </trkpt>
      <trkpt lat="50.04974" lon="2.13938">
        <ele>29.2</ele>
        <time>2024-03-27T13:08:45Z</time>
      </trkpt>
      <trkpt lat="50.04974" lon="2.13936">
        <ele>29.2</ele>
        <time>2024-03-27T13:08:46Z</time>
      </trkpt>
      <trkpt lat="50.04973" lon="2.13935">
        <ele>29.2</ele>
        <time>2024-03-27T13:08:47Z</time>
      </trkpt>
      <trkpt lat="50.04973" lon="2.13931">
        <ele>29.3</ele>
        <time>2024-03-27T13:08:48Z</time>
      </trkpt>
      <trkpt lat="50.04973" lon="2.1393">
        <ele>29.3</ele>
        <time>2024-03-27T13:08:49Z</time>
      </trkpt>
      <trkpt lat="50.04973" lon="2.13928">
        <ele>29.4</ele>
        <time>2024-03-27T13:08:50Z</time>
      </trkpt>
      <trkpt lat="50.04973" lon="2.13925">
        <ele>29.4</ele>
        <time>2024-03-27T13:08:51Z</time>
      </trkpt>
      <trkpt lat="50.04972" lon="2.13923">
        <ele>29.5</ele>
        <time>2024-03-27T13:08:52Z</time>
      </trkpt>
      <trkpt lat="50.04972" lon="2.1392">
        <ele>29.5</ele>
        <time>2024-03-27T13:08:53Z</time>
      </trkpt>
      <trkpt lat="50.04972" lon="2.13918">
        <ele>29.6</ele>
        <time>2024-03-27T13:08:54Z</time>
      </trkpt>
      <trkpt lat="50.04971" lon="2.13915">
        <ele>29.6</ele>
        <time>2024-03-27T13:08:55Z</time>
      </trkpt>
      <trkpt lat="50.04971" lon="2.13914">
        <ele>29.7</ele>
        <time>2024-03-27T13:08:56Z</time>
      </trkpt>
      <trkpt lat="50.04971" lon="2.13912">
        <ele>29.7</ele>
        <time>2024-03-27T13:08:57Z</time>
      </trkpt>
      <trkpt lat="50.04971" lon="2.13909">
        <ele>29.8</ele>
        <time>2024-03-27T13:08:58Z</time>
      </trkpt>
      <trkpt lat="50.0497" lon="2.13908">
        <ele>29.8</ele>
        <time>2024-03-27T13:08:59Z</time>
      </trkpt>
      <trkpt lat="50.0497" lon="2.13907">
        <ele>29.8</ele>
        <time>2024-03-27T13:09:00Z</time>
      </trkpt>
      <trkpt lat="50.0497" lon="2.13904">
        <ele>29.9</ele>
        <time>2024-03-27T13:09:01Z</time>
      </trkpt>
      <trkpt lat="50.0497" lon="2.13902">
        <ele>30</ele>
        <time>2024-03-27T13:09:02Z</time>
      </trkpt>
      <trkpt lat="50.04969" lon="2.13901">
        <ele>30</ele>
        <time>2024-03-27T13:09:03Z</time>
      </trkpt>
      <trkpt lat="50.04969" lon="2.13898">
        <ele>30.1</ele>
        <time>2024-03-27T13:09:04Z</time>
      </trkpt>
      <trkpt lat="50.04969" lon="2.13897">
        <ele>30.1</ele>
        <time>2024-03-27T13:09:05Z</time>
      </trkpt>
      <trkpt lat="50.04969" lon="2.13895">
        <ele>30.1</ele>
        <time>2024-03-27T13:09:06Z</time>
      </trkpt>
      <trkpt lat="50.04969" lon="2.13892">
        <ele>30.2</ele>
        <time>2024-03-27T13:09:07Z</time>
      </trkpt>
      <trkpt lat="50.04969" lon="2.13891">
        <ele>30.3</ele>
        <time>2024-03-27T13:09:08Z</time>
      </trkpt>
      <trkpt lat="50.04969" lon="2.1389">
        <ele>30.3</ele>
        <time>2024-03-27T13:09:09Z</time>
      </trkpt>
      <trkpt lat="50.04969" lon="2.13888">
        <ele>30.3</ele>
        <time>2024-03-27T13:09:10Z</time>
      </trkpt>
      <trkpt lat="50.04969" lon="2.13886">
        <ele>30.4</ele>
        <time>2024-03-27T13:09:11Z</time>
      </trkpt>
      <trkpt lat="50.04968" lon="2.13885">
        <ele>30.4</ele>
        <time>2024-03-27T13:09:12Z</time>
      </trkpt>
      <trkpt lat="50.04968" lon="2.13883">
        <ele>30.5</ele>
        <time>2024-03-27T13:09:13Z</time>
      </trkpt>
      <trkpt lat="50.04968" lon="2.13882">
        <ele>30.5</ele>
        <time>2024-03-27T13:09:14Z</time>
      </trkpt>
      <trkpt lat="50.04968" lon="2.1388">
        <ele>30.6</ele>
        <time>2024-03-27T13:09:15Z</time>
      </trkpt>
      <trkpt lat="50.04968" lon="2.1388">
        <ele>30.6</ele>
        <time>2024-03-27T13:09:16Z</time>
      </trkpt>
      <trkpt lat="50.04967" lon="2.13879">
        <ele>30.6</ele>
        <time>2024-03-27T13:09:17Z</time>
      </trkpt>
      <trkpt lat="50.04967" lon="2.13878">
        <ele>30.6</ele>
        <time>2024-03-27T13:09:18Z</time>
      </trkpt>
      <trkpt lat="50.04966" lon="2.13877">
        <ele>30.7</ele>
        <time>2024-03-27T13:09:19Z</time>
      </trkpt>
      <trkpt lat="50.04966" lon="2.13876">
        <ele>30.7</ele>
        <time>2024-03-27T13:09:20Z</time>
      </trkpt>
      <trkpt lat="50.04966" lon="2.13874">
        <ele>30.7</ele>
        <time>2024-03-27T13:09:21Z</time>
      </trkpt>
      <trkpt lat="50.04965" lon="2.13873">
        <ele>30.8</ele>
        <time>2024-03-27T13:09:22Z</time>
      </trkpt>
      <trkpt lat="50.04965" lon="2.13872">
        <ele>30.8</ele>
        <time>2024-03-27T13:09:23Z</time>
      </trkpt>
      <trkpt lat="50.04965" lon="2.13871">
        <ele>30.8</ele>
        <time>2024-03-27T13:09:24Z</time>
      </trkpt>
      <trkpt lat="50.04964" lon="2.1387">
        <ele>30.9</ele>
        <time>2024-03-27T13:09:25Z</time>
      </trkpt>
      <trkpt lat="50.04964" lon="2.1387">
        <ele>30.9</ele>
        <time>2024-03-27T13:09:26Z</time>
      </trkpt>
      <trkpt lat="50.04963" lon="2.13871">
        <ele>30.9</ele>
        <time>2024-03-27T13:09:27Z</time>
      </trkpt>
      <trkpt lat="50.04963" lon="2.13871">
        <ele>31</ele>
        <time>2024-03-27T13:09:28Z</time>
      </trkpt>
      <trkpt lat="50.04962" lon="2.1387">
        <ele>31</ele>
        <time>2024-03-27T13:09:29Z</time>
      </trkpt>
      <trkpt lat="50.04962" lon="2.13869">
        <ele>31</ele>
        <time>2024-03-27T13:09:30Z</time>
      </trkpt>
      <trkpt lat="50.04962" lon="2.13868">
        <ele>31.1</ele>
        <time>2024-03-27T13:09:31Z</time>
      </trkpt>
      <trkpt lat="50.04961" lon="2.13867">
        <ele>31.1</ele>
        <time>2024-03-27T13:09:32Z</time>
      </trkpt>
      <trkpt lat="50.04961" lon="2.13865">
        <ele>31.1</ele>
        <time>2024-03-27T13:09:33Z</time>
      </trkpt>
      <trkpt lat="50.04961" lon="2.13864">
        <ele>31.2</ele>
        <time>2024-03-27T13:09:34Z</time>
      </trkpt>
      <trkpt lat="50.04961" lon="2.13862">
        <ele>31.2</ele>
        <time>2024-03-27T13:09:35Z</time>
      </trkpt>
      <trkpt lat="50.0496" lon="2.13861">
        <ele>31.3</ele>
        <time>2024-03-27T13:09:36Z</time>
      </trkpt>
      <trkpt lat="50.0496" lon="2.1386">
        <ele>31.3</ele>
        <time>2024-03-27T13:09:37Z</time>
      </trkpt>
      <trkpt lat="50.04959" lon="2.13859">
        <ele>31.3</ele>
        <time>2024-03-27T13:09:38Z</time>
      </trkpt>
      <trkpt lat="50.04959" lon="2.13858">
        <ele>31.4</ele>
        <time>2024-03-27T13:09:39Z</time>
      </trkpt>
      <trkpt lat="50.04958" lon="2.13857">
        <ele>31.4</ele>
        <time>2024-03-27T13:09:40Z</time>
      </trkpt>
      <trkpt lat="50.04958" lon="2.13856">
        <ele>31.5</ele>
        <time>2024-03-27T13:09:41Z</time>
      </trkpt>
      <trkpt lat="50.04957" lon="2.13855">
        <ele>31.5</ele>
        <time>2024-03-27T13:09:42Z</time>
      </trkpt>
      <trkpt lat="50.04957" lon="2.13853">
        <ele>31.5</ele>
        <time>2024-03-27T13:09:43Z</time>
      </trkpt>
      <trkpt lat="50.04958" lon="2.13853">
        <ele>31.5</ele>
        <time>2024-03-27T13:09:44Z</time>
      </trkpt>
      <trkpt lat="50.04957" lon="2.13852">
        <ele>31.6</ele>
        <time>2024-03-27T13:09:45Z</time>
      </trkpt>
      <trkpt lat="50.04957" lon="2.13851">
        <ele>31.6</ele>
        <time>2024-03-27T13:09:46Z</time>
      </trkpt>
      <trkpt lat="50.04957" lon="2.13852">
        <ele>31.6</ele>
        <time>2024-03-27T13:09:47Z</time>
      </trkpt>
      <trkpt lat="50.04957" lon="2.13852">
        <ele>31.6</ele>
        <time>2024-03-27T13:09:48Z</time>
      </trkpt>
      <trkpt lat="50.04957" lon="2.13853">
        <ele>31.6</ele>
        <time>2024-03-27T13:09:49Z</time>
      </trkpt>
      <trkpt lat="50.04957" lon="2.13853">
        <ele>31.6</ele>
        <time>2024-03-27T13:09:50Z</time>
      </trkpt>
      <trkpt lat="50.04957" lon="2.13853">
        <ele>31.6</ele>
        <time>2024-03-27T13:09:51Z</time>
      </trkpt>
      <trkpt lat="50.04957" lon="2.13853">
        <ele>31.6</ele>
        <time>2024-03-27T13:09:52Z</time>
      </trkpt>
      <trkpt lat="50.04957" lon="2.13852">
        <ele>31.6</ele>
        <time>2024-03-27T13:09:53Z</time>
      </trkpt>
      <trkpt lat="50.04957" lon="2.13852">
        <ele>31.6</ele>
        <time>2024-03-27T13:09:54Z</time>
      </trkpt>
      <trkpt lat="50.04957" lon="2.13852">
        <ele>31.6</ele>
        <time>2024-03-27T13:09:55Z</time>
      </trkpt>
      <trkpt lat="50.04957" lon="2.13852">
        <ele>31.6</ele>
        <time>2024-03-27T13:09:56Z</time>
      </trkpt>
      <trkpt lat="50.04957" lon="2.13852">
        <ele>31.6</ele>
        <time>2024-03-27T13:09:57Z</time>
      </trkpt>
      <trkpt lat="50.04957" lon="2.13852">
        <ele>31.7</ele>
        <time>2024-03-27T13:09:58Z</time>
      </trkpt>
      <trkpt lat="50.04957" lon="2.13852">
        <ele>31.7</ele>
        <time>2024-03-27T13:09:59Z</time>
      </trkpt>
      <trkpt lat="50.04957" lon="2.13852">
        <ele>31.7</ele>
        <time>2024-03-27T13:10:00Z</time>
      </trkpt>
      <trkpt lat="50.04956" lon="2.13852">
        <ele>31.7</ele>
        <time>2024-03-27T13:10:01Z</time>
      </trkpt>
      <trkpt lat="50.04956" lon="2.13852">
        <ele>31.7</ele>
        <time>2024-03-27T13:10:02Z</time>
      </trkpt>
      <trkpt lat="50.04956" lon="2.13852">
        <ele>31.7</ele>
        <time>2024-03-27T13:10:03Z</time>
      </trkpt>
      <trkpt lat="50.04957" lon="2.13852">
        <ele>31.7</ele>
        <time>2024-03-27T13:10:04Z</time>
      </trkpt>
      <trkpt lat="50.04956" lon="2.13852">
        <ele>31.7</ele>
        <time>2024-03-27T13:10:05Z</time>
      </trkpt>
      <trkpt lat="50.04956" lon="2.13852">
        <ele>31.7</ele>
        <time>2024-03-27T13:10:06Z</time>
      </trkpt>
      <trkpt lat="50.04956" lon="2.13852">
        <ele>31.7</ele>
        <time>2024-03-27T13:10:07Z</time>
      </trkpt>
      <trkpt lat="50.04956" lon="2.13852">
        <ele>31.7</ele>
        <time>2024-03-27T13:10:08Z</time>
      </trkpt>
      <trkpt lat="50.04956" lon="2.13852">
        <ele>31.7</ele>
        <time>2024-03-27T13:10:09Z</time>
      </trkpt>
      <trkpt lat="50.04956" lon="2.13852">
        <ele>31.7</ele>
        <time>2024-03-27T13:10:10Z</time>
      </trkpt>
      <trkpt lat="50.04956" lon="2.13852">
        <ele>31.7</ele>
        <time>2024-03-27T13:10:11Z</time>
      </trkpt>
      <trkpt lat="50.04956" lon="2.13852">
        <ele>31.7</ele>
        <time>2024-03-27T13:10:12Z</time>
      </trkpt>
      <trkpt lat="50.04956" lon="2.13852">
        <ele>31.7</ele>
        <time>2024-03-27T13:10:13Z</time>
      </trkpt>
      <trkpt lat="50.04956" lon="2.13852">
        <ele>31.7</ele>
        <time>2024-03-27T13:10:14Z</time>
      </trkpt>
      <trkpt lat="50.04956" lon="2.13852">
        <ele>31.7</ele>
        <time>2024-03-27T13:10:15Z</time>
      </trkpt>
      <trkpt lat="50.04956" lon="2.13852">
        <ele>31.7</ele>
        <time>2024-03-27T13:10:16Z</time>
      </trkpt>
      <trkpt lat="50.04956" lon="2.13852">
        <ele>31.7</ele>
        <time>2024-03-27T13:10:17Z</time>
      </trkpt>
      <trkpt lat="50.04956" lon="2.13852">
        <ele>31.7</ele>
        <time>2024-03-27T13:10:18Z</time>
      </trkpt>
      <trkpt lat="50.04956" lon="2.13852">
        <ele>31.7</ele>
        <time>2024-03-27T13:10:19Z</time>
      </trkpt>
      <trkpt lat="50.04956" lon="2.13852">
        <ele>31.7</ele>
        <time>2024-03-27T13:10:20Z</time>
      </trkpt>
      <trkpt lat="50.04956" lon="2.13852">
        <ele>31.7</ele>
        <time>2024-03-27T13:10:21Z</time>
      </trkpt>
      <trkpt lat="50.04956" lon="2.13852">
        <ele>31.7</ele>
        <time>2024-03-27T13:10:22Z</time>
      </trkpt>
      <trkpt lat="50.04956" lon="2.13852">
        <ele>31.7</ele>
        <time>2024-03-27T13:10:23Z</time>
      </trkpt>
      <trkpt lat="50.04956" lon="2.13852">
        <ele>31.7</ele>
        <time>2024-03-27T13:10:24Z</time>
      </trkpt>
      <trkpt lat="50.04956" lon="2.13852">
        <ele>31.7</ele>
        <time>2024-03-27T13:10:25Z</time>
      </trkpt>
      <trkpt lat="50.04956" lon="2.13852">
        <ele>31.7</ele>
        <time>2024-03-27T13:10:26Z</time>
      </trkpt>
      <trkpt lat="50.04956" lon="2.13852">
        <ele>31.7</ele>
        <time>2024-03-27T13:10:27Z</time>
      </trkpt>
      <trkpt lat="50.04956" lon="2.13852">
        <ele>31.7</ele>
        <time>2024-03-27T13:10:28Z</time>
      </trkpt>
      <trkpt lat="50.04956" lon="2.13852">
        <ele>31.7</ele>
        <time>2024-03-27T13:10:29Z</time>
      </trkpt>
      <trkpt lat="50.04956" lon="2.13852">
        <ele>31.7</ele>
        <time>2024-03-27T13:10:30Z</time>
      </trkpt>
      <trkpt lat="50.04956" lon="2.13852">
        <ele>31.7</ele>
        <time>2024-03-27T13:10:31Z</time>
      </trkpt>
      <trkpt lat="50.04956" lon="2.13852">
        <ele>31.7</ele>
        <time>2024-03-27T13:10:32Z</time>
      </trkpt>
      <trkpt lat="50.04956" lon="2.13852">
        <ele>31.7</ele>
        <time>2024-03-27T13:10:33Z</time>
      </trkpt>
      <trkpt lat="50.04956" lon="2.13852">
        <ele>31.7</ele>
        <time>2024-03-27T13:10:34Z</time>
      </trkpt>
      <trkpt lat="50.04956" lon="2.13852">
        <ele>31.7</ele>
        <time>2024-03-27T13:10:35Z</time>
      </trkpt>
      <trkpt lat="50.04956" lon="2.13852">
        <ele>31.7</ele>
        <time>2024-03-27T13:10:36Z</time>
      </trkpt>
      <trkpt lat="50.04956" lon="2.13852">
        <ele>31.7</ele>
        <time>2024-03-27T13:10:37Z</time>
      </trkpt>
      <trkpt lat="50.04956" lon="2.13852">
        <ele>31.7</ele>
        <time>2024-03-27T13:10:38Z</time>
      </trkpt>
      <trkpt lat="50.04956" lon="2.13852">
        <ele>31.7</ele>
        <time>2024-03-27T13:10:39Z</time>
      </trkpt>
      <trkpt lat="50.04956" lon="2.13852">
        <ele>31.7</ele>
        <time>2024-03-27T13:10:40Z</time>
      </trkpt>
      <trkpt lat="50.04956" lon="2.13852">
        <ele>31.7</ele>
        <time>2024-03-27T13:10:41Z</time>
      </trkpt>
      <trkpt lat="50.04956" lon="2.13852">
        <ele>31.7</ele>
        <time>2024-03-27T13:10:42Z</time>
      </trkpt>
      <trkpt lat="50.04956" lon="2.13852">
        <ele>31.7</ele>
        <time>2024-03-27T13:10:43Z</time>
      </trkpt>
      <trkpt lat="50.04956" lon="2.13852">
        <ele>31.7</ele>
        <time>2024-03-27T13:10:44Z</time>
      </trkpt>
      <trkpt lat="50.04956" lon="2.13852">
        <ele>31.7</ele>
        <time>2024-03-27T13:10:45Z</time>
      </trkpt>
      <trkpt lat="50.04956" lon="2.13852">
        <ele>31.7</ele>
        <time>2024-03-27T13:10:46Z</time>
      </trkpt>
      <trkpt lat="50.04956" lon="2.13852">
        <ele>31.7</ele>
        <time>2024-03-27T13:10:47Z</time>
      </trkpt>
      <trkpt lat="50.04956" lon="2.13852">
        <ele>31.7</ele>
        <time>2024-03-27T13:10:48Z</time>
      </trkpt>
      <trkpt lat="50.04956" lon="2.13852">
        <ele>31.7</ele>
        <time>2024-03-27T13:10:49Z</time>
      </trkpt>
      <trkpt lat="50.04956" lon="2.13852">
        <ele>31.7</ele>
        <time>2024-03-27T13:10:50Z</time>
      </trkpt>
      <trkpt lat="50.04956" lon="2.13852">
        <ele>31.7</ele>
        <time>2024-03-27T13:10:51Z</time>
      </trkpt>
      <trkpt lat="50.04956" lon="2.13852">
        <ele>31.7</ele>
        <time>2024-03-27T13:10:52Z</time>
      </trkpt>
      <trkpt lat="50.04956" lon="2.13852">
        <ele>31.7</ele>
        <time>2024-03-27T13:10:53Z</time>
      </trkpt>
      <trkpt lat="50.04956" lon="2.13852">
        <ele>31.7</ele>
        <time>2024-03-27T13:10:54Z</time>
      </trkpt>
      <trkpt lat="50.04956" lon="2.13852">
        <ele>31.7</ele>
        <time>2024-03-27T13:10:55Z</time>
      </trkpt>
      <trkpt lat="50.04956" lon="2.13852">
        <ele>31.7</ele>
        <time>2024-03-27T13:10:56Z</time>
      </trkpt>
      <trkpt lat="50.04956" lon="2.13852">
        <ele>31.7</ele>
        <time>2024-03-27T13:10:57Z</time>
      </trkpt>
      <trkpt lat="50.04956" lon="2.13852">
        <ele>31.7</ele>
        <time>2024-03-27T13:10:58Z</time>
      </trkpt>
      <trkpt lat="50.04956" lon="2.13852">
        <ele>31.7</ele>
        <time>2024-03-27T13:10:59Z</time>
      </trkpt>
      <trkpt lat="50.04956" lon="2.13852">
        <ele>31.7</ele>
        <time>2024-03-27T13:11:00Z</time>
      </trkpt>
      <trkpt lat="50.04955" lon="2.13849">
        <ele>31.8</ele>
        <time>2024-03-27T13:11:01Z</time>
      </trkpt>
      <trkpt lat="50.04954" lon="2.13848">
        <ele>31.8</ele>
        <time>2024-03-27T13:11:02Z</time>
      </trkpt>
      <trkpt lat="50.04953" lon="2.13848">
        <ele>31.9</ele>
        <time>2024-03-27T13:11:03Z</time>
      </trkpt>
      <trkpt lat="50.04953" lon="2.13847">
        <ele>31.9</ele>
        <time>2024-03-27T13:11:04Z</time>
      </trkpt>
      <trkpt lat="50.04953" lon="2.13847">
        <ele>31.9</ele>
        <time>2024-03-27T13:11:05Z</time>
      </trkpt>
      <trkpt lat="50.04952" lon="2.13846">
        <ele>31.9</ele>
        <time>2024-03-27T13:11:06Z</time>
      </trkpt>
      <trkpt lat="50.04952" lon="2.13846">
        <ele>32</ele>
        <time>2024-03-27T13:11:07Z</time>
      </trkpt>
      <trkpt lat="50.0495" lon="2.13845">
        <ele>32</ele>
        <time>2024-03-27T13:11:08Z</time>
      </trkpt>
      <trkpt lat="50.04949" lon="2.13843">
        <ele>32.1</ele>
        <time>2024-03-27T13:11:09Z</time>
      </trkpt>
      <trkpt lat="50.04948" lon="2.13842">
        <ele>32.1</ele>
        <time>2024-03-27T13:11:10Z</time>
      </trkpt>
      <trkpt lat="50.04948" lon="2.13841">
        <ele>32.2</ele>
        <time>2024-03-27T13:11:11Z</time>
      </trkpt>
      <trkpt lat="50.04947" lon="2.1384">
        <ele>32.2</ele>
        <time>2024-03-27T13:11:12Z</time>
      </trkpt>
      <trkpt lat="50.04947" lon="2.13839">
        <ele>32.2</ele>
        <time>2024-03-27T13:11:13Z</time>
      </trkpt>
      <trkpt lat="50.04945" lon="2.13837">
        <ele>32.3</ele>
        <time>2024-03-27T13:11:14Z</time>
      </trkpt>
      <trkpt lat="50.04944" lon="2.13836">
        <ele>32.4</ele>
        <time>2024-03-27T13:11:15Z</time>
      </trkpt>
      <trkpt lat="50.04943" lon="2.13834">
        <ele>32.5</ele>
        <time>2024-03-27T13:11:16Z</time>
      </trkpt>
      <trkpt lat="50.04943" lon="2.13834">
        <ele>32.5</ele>
        <time>2024-03-27T13:11:17Z</time>
      </trkpt>
      <trkpt lat="50.04942" lon="2.13833">
        <ele>32.5</ele>
        <time>2024-03-27T13:11:18Z</time>
      </trkpt>
      <trkpt lat="50.04942" lon="2.13832">
        <ele>32.6</ele>
        <time>2024-03-27T13:11:19Z</time>
      </trkpt>
      <trkpt lat="50.04941" lon="2.13831">
        <ele>32.6</ele>
        <time>2024-03-27T13:11:20Z</time>
      </trkpt>
      <trkpt lat="50.04941" lon="2.1383">
        <ele>32.6</ele>
        <time>2024-03-27T13:11:21Z</time>
      </trkpt>
      <trkpt lat="50.04941" lon="2.13828">
        <ele>32.7</ele>
        <time>2024-03-27T13:11:22Z</time>
      </trkpt>
      <trkpt lat="50.0494" lon="2.13827">
        <ele>32.7</ele>
        <time>2024-03-27T13:11:23Z</time>
      </trkpt>
      <trkpt lat="50.04939" lon="2.13825">
        <ele>32.8</ele>
        <time>2024-03-27T13:11:24Z</time>
      </trkpt>
      <trkpt lat="50.04939" lon="2.13824">
        <ele>32.8</ele>
        <time>2024-03-27T13:11:25Z</time>
      </trkpt>
      <trkpt lat="50.04938" lon="2.13822">
        <ele>32.9</ele>
        <time>2024-03-27T13:11:26Z</time>
      </trkpt>
      <trkpt lat="50.04937" lon="2.1382">
        <ele>33</ele>
        <time>2024-03-27T13:11:27Z</time>
      </trkpt>
      <trkpt lat="50.04936" lon="2.13817">
        <ele>33.1</ele>
        <time>2024-03-27T13:11:28Z</time>
      </trkpt>
      <trkpt lat="50.04935" lon="2.13816">
        <ele>33.1</ele>
        <time>2024-03-27T13:11:29Z</time>
      </trkpt>
      <trkpt lat="50.04935" lon="2.13815">
        <ele>33.2</ele>
        <time>2024-03-27T13:11:30Z</time>
      </trkpt>
      <trkpt lat="50.04934" lon="2.13813">
        <ele>33.2</ele>
        <time>2024-03-27T13:11:31Z</time>
      </trkpt>
      <trkpt lat="50.04934" lon="2.13812">
        <ele>33.3</ele>
        <time>2024-03-27T13:11:32Z</time>
      </trkpt>
      <trkpt lat="50.04933" lon="2.13811">
        <ele>33.3</ele>
        <time>2024-03-27T13:11:33Z</time>
      </trkpt>
      <trkpt lat="50.04932" lon="2.13808">
        <ele>33.4</ele>
        <time>2024-03-27T13:11:34Z</time>
      </trkpt>
      <trkpt lat="50.04932" lon="2.13807">
        <ele>33.4</ele>
        <time>2024-03-27T13:11:35Z</time>
      </trkpt>
      <trkpt lat="50.04932" lon="2.13806">
        <ele>33.5</ele>
        <time>2024-03-27T13:11:36Z</time>
      </trkpt>
      <trkpt lat="50.04931" lon="2.13804">
        <ele>33.6</ele>
        <time>2024-03-27T13:11:37Z</time>
      </trkpt>
      <trkpt lat="50.0493" lon="2.13802">
        <ele>33.7</ele>
        <time>2024-03-27T13:11:38Z</time>
      </trkpt>
      <trkpt lat="50.04928" lon="2.13799">
        <ele>33.8</ele>
        <time>2024-03-27T13:11:39Z</time>
      </trkpt>
      <trkpt lat="50.04928" lon="2.13798">
        <ele>33.8</ele>
        <time>2024-03-27T13:11:40Z</time>
      </trkpt>
      <trkpt lat="50.04927" lon="2.13795">
        <ele>33.9</ele>
        <time>2024-03-27T13:11:41Z</time>
      </trkpt>
      <trkpt lat="50.04926" lon="2.13793">
        <ele>34</ele>
        <time>2024-03-27T13:11:42Z</time>
      </trkpt>
      <trkpt lat="50.04924" lon="2.13791">
        <ele>34.1</ele>
        <time>2024-03-27T13:11:43Z</time>
      </trkpt>
      <trkpt lat="50.04923" lon="2.1379">
        <ele>34.2</ele>
        <time>2024-03-27T13:11:44Z</time>
      </trkpt>
      <trkpt lat="50.04922" lon="2.13788">
        <ele>34.3</ele>
        <time>2024-03-27T13:11:45Z</time>
      </trkpt>
      <trkpt lat="50.04921" lon="2.13786">
        <ele>34.4</ele>
        <time>2024-03-27T13:11:46Z</time>
      </trkpt>
      <trkpt lat="50.0492" lon="2.13785">
        <ele>34.4</ele>
        <time>2024-03-27T13:11:47Z</time>
      </trkpt>
      <trkpt lat="50.04919" lon="2.13783">
        <ele>34.5</ele>
        <time>2024-03-27T13:11:48Z</time>
      </trkpt>
      <trkpt lat="50.04919" lon="2.13781">
        <ele>34.6</ele>
        <time>2024-03-27T13:11:49Z</time>
      </trkpt>
      <trkpt lat="50.04918" lon="2.1378">
        <ele>34.6</ele>
        <time>2024-03-27T13:11:50Z</time>
      </trkpt>
      <trkpt lat="50.04918" lon="2.13779">
        <ele>34.7</ele>
        <time>2024-03-27T13:11:51Z</time>
      </trkpt>
      <trkpt lat="50.04916" lon="2.13776">
        <ele>34.8</ele>
        <time>2024-03-27T13:11:52Z</time>
      </trkpt>
      <trkpt lat="50.04916" lon="2.13775">
        <ele>34.9</ele>
        <time>2024-03-27T13:11:53Z</time>
      </trkpt>
      <trkpt lat="50.04915" lon="2.13774">
        <ele>34.9</ele>
        <time>2024-03-27T13:11:54Z</time>
      </trkpt>
      <trkpt lat="50.04914" lon="2.13771">
        <ele>35</ele>
        <time>2024-03-27T13:11:55Z</time>
      </trkpt>
      <trkpt lat="50.04914" lon="2.1377">
        <ele>35.1</ele>
        <time>2024-03-27T13:11:56Z</time>
      </trkpt>
      <trkpt lat="50.04913" lon="2.13769">
        <ele>35.1</ele>
        <time>2024-03-27T13:11:57Z</time>
      </trkpt>
      <trkpt lat="50.04912" lon="2.13767">
        <ele>35.2</ele>
        <time>2024-03-27T13:11:58Z</time>
      </trkpt>
      <trkpt lat="50.04912" lon="2.13766">
        <ele>35.3</ele>
        <time>2024-03-27T13:11:59Z</time>
      </trkpt>
      <trkpt lat="50.04911" lon="2.13765">
        <ele>35.4</ele>
        <time>2024-03-27T13:12:00Z</time>
      </trkpt>
      <trkpt lat="50.04911" lon="2.13764">
        <ele>35.4</ele>
        <time>2024-03-27T13:12:01Z</time>
      </trkpt>
      <trkpt lat="50.0491" lon="2.13762">
        <ele>35.5</ele>
        <time>2024-03-27T13:12:02Z</time>
      </trkpt>
      <trkpt lat="50.04909" lon="2.13761">
        <ele>35.6</ele>
        <time>2024-03-27T13:12:03Z</time>
      </trkpt>
      <trkpt lat="50.04909" lon="2.13759">
        <ele>35.7</ele>
        <time>2024-03-27T13:12:04Z</time>
      </trkpt>
      <trkpt lat="50.04908" lon="2.13758">
        <ele>35.8</ele>
        <time>2024-03-27T13:12:05Z</time>
      </trkpt>
      <trkpt lat="50.04908" lon="2.13756">
        <ele>35.8</ele>
        <time>2024-03-27T13:12:06Z</time>
      </trkpt>
      <trkpt lat="50.04907" lon="2.13755">
        <ele>35.9</ele>
        <time>2024-03-27T13:12:07Z</time>
      </trkpt>
      <trkpt lat="50.04907" lon="2.13753">
        <ele>36</ele>
        <time>2024-03-27T13:12:08Z</time>
      </trkpt>
      <trkpt lat="50.04906" lon="2.13751">
        <ele>36.1</ele>
        <time>2024-03-27T13:12:09Z</time>
      </trkpt>
      <trkpt lat="50.04906" lon="2.1375">
        <ele>36.2</ele>
        <time>2024-03-27T13:12:10Z</time>
      </trkpt>
      <trkpt lat="50.04906" lon="2.13748">
        <ele>36.3</ele>
        <time>2024-03-27T13:12:11Z</time>
      </trkpt>
      <trkpt lat="50.04906" lon="2.13746">
        <ele>36.4</ele>
        <time>2024-03-27T13:12:12Z</time>
      </trkpt>
      <trkpt lat="50.04905" lon="2.13744">
        <ele>36.5</ele>
        <time>2024-03-27T13:12:13Z</time>
      </trkpt>
      <trkpt lat="50.04905" lon="2.13743">
        <ele>36.6</ele>
        <time>2024-03-27T13:12:14Z</time>
      </trkpt>
      <trkpt lat="50.04905" lon="2.13741">
        <ele>36.7</ele>
        <time>2024-03-27T13:12:15Z</time>
      </trkpt>
      <trkpt lat="50.04904" lon="2.1374">
        <ele>36.8</ele>
        <time>2024-03-27T13:12:16Z</time>
      </trkpt>
      <trkpt lat="50.04904" lon="2.13738">
        <ele>36.9</ele>
        <time>2024-03-27T13:12:17Z</time>
      </trkpt>
      <trkpt lat="50.04904" lon="2.13736">
        <ele>37</ele>
        <time>2024-03-27T13:12:18Z</time>
      </trkpt>
      <trkpt lat="50.04903" lon="2.13735">
        <ele>37.1</ele>
        <time>2024-03-27T13:12:19Z</time>
      </trkpt>
      <trkpt lat="50.04903" lon="2.13733">
        <ele>37.2</ele>
        <time>2024-03-27T13:12:20Z</time>
      </trkpt>
      <trkpt lat="50.04903" lon="2.13732">
        <ele>37.3</ele>
        <time>2024-03-27T13:12:21Z</time>
      </trkpt>
      <trkpt lat="50.04902" lon="2.1373">
        <ele>37.4</ele>
        <time>2024-03-27T13:12:22Z</time>
      </trkpt>
      <trkpt lat="50.04902" lon="2.13729">
        <ele>37.5</ele>
        <time>2024-03-27T13:12:23Z</time>
      </trkpt>
      <trkpt lat="50.04902" lon="2.13727">
        <ele>37.6</ele>
        <time>2024-03-27T13:12:24Z</time>
      </trkpt>
      <trkpt lat="50.04902" lon="2.13725">
        <ele>37.7</ele>
        <time>2024-03-27T13:12:25Z</time>
      </trkpt>
      <trkpt lat="50.04901" lon="2.13724">
        <ele>37.8</ele>
        <time>2024-03-27T13:12:26Z</time>
      </trkpt>
      <trkpt lat="50.04901" lon="2.13722">
        <ele>37.9</ele>
        <time>2024-03-27T13:12:27Z</time>
      </trkpt>
      <trkpt lat="50.04901" lon="2.13721">
        <ele>38</ele>
        <time>2024-03-27T13:12:28Z</time>
      </trkpt>
      <trkpt lat="50.04901" lon="2.13719">
        <ele>38.1</ele>
        <time>2024-03-27T13:12:29Z</time>
      </trkpt>
      <trkpt lat="50.04901" lon="2.13717">
        <ele>38.2</ele>
        <time>2024-03-27T13:12:30Z</time>
      </trkpt>
      <trkpt lat="50.04901" lon="2.13716">
        <ele>38.3</ele>
        <time>2024-03-27T13:12:31Z</time>
      </trkpt>
      <trkpt lat="50.049" lon="2.13715">
        <ele>38.4</ele>
        <time>2024-03-27T13:12:32Z</time>
      </trkpt>
      <trkpt lat="50.049" lon="2.13713">
        <ele>38.5</ele>
        <time>2024-03-27T13:12:33Z</time>
      </trkpt>
      <trkpt lat="50.049" lon="2.13712">
        <ele>38.6</ele>
        <time>2024-03-27T13:12:34Z</time>
      </trkpt>
      <trkpt lat="50.049" lon="2.1371">
        <ele>38.7</ele>
        <time>2024-03-27T13:12:35Z</time>
      </trkpt>
      <trkpt lat="50.049" lon="2.13709">
        <ele>38.8</ele>
        <time>2024-03-27T13:12:36Z</time>
      </trkpt>
      <trkpt lat="50.04899" lon="2.13708">
        <ele>38.9</ele>
        <time>2024-03-27T13:12:37Z</time>
      </trkpt>
      <trkpt lat="50.04899" lon="2.13706">
        <ele>39</ele>
        <time>2024-03-27T13:12:38Z</time>
      </trkpt>
      <trkpt lat="50.04899" lon="2.13705">
        <ele>39.1</ele>
        <time>2024-03-27T13:12:39Z</time>
      </trkpt>
      <trkpt lat="50.04898" lon="2.13703">
        <ele>39.1</ele>
        <time>2024-03-27T13:12:40Z</time>
      </trkpt>
      <trkpt lat="50.04898" lon="2.13702">
        <ele>39.2</ele>
        <time>2024-03-27T13:12:41Z</time>
      </trkpt>
      <trkpt lat="50.04898" lon="2.13701">
        <ele>39.3</ele>
        <time>2024-03-27T13:12:42Z</time>
      </trkpt>
      <trkpt lat="50.04897" lon="2.13699">
        <ele>39.4</ele>
        <time>2024-03-27T13:12:43Z</time>
      </trkpt>
      <trkpt lat="50.04897" lon="2.13698">
        <ele>39.5</ele>
        <time>2024-03-27T13:12:44Z</time>
      </trkpt>
      <trkpt lat="50.04897" lon="2.13697">
        <ele>39.6</ele>
        <time>2024-03-27T13:12:45Z</time>
      </trkpt>
      <trkpt lat="50.04896" lon="2.13695">
        <ele>39.7</ele>
        <time>2024-03-27T13:12:46Z</time>
      </trkpt>
      <trkpt lat="50.04896" lon="2.13694">
        <ele>39.8</ele>
        <time>2024-03-27T13:12:47Z</time>
      </trkpt>
      <trkpt lat="50.04896" lon="2.13692">
        <ele>39.9</ele>
        <time>2024-03-27T13:12:48Z</time>
      </trkpt>
      <trkpt lat="50.04896" lon="2.13691">
        <ele>39.9</ele>
        <time>2024-03-27T13:12:49Z</time>
      </trkpt>
      <trkpt lat="50.04896" lon="2.13689">
        <ele>40</ele>
        <time>2024-03-27T13:12:50Z</time>
      </trkpt>
      <trkpt lat="50.04895" lon="2.13688">
        <ele>40.1</ele>
        <time>2024-03-27T13:12:51Z</time>
      </trkpt>
      <trkpt lat="50.04895" lon="2.13686">
        <ele>40.2</ele>
        <time>2024-03-27T13:12:52Z</time>
      </trkpt>
      <trkpt lat="50.04895" lon="2.13685">
        <ele>40.3</ele>
        <time>2024-03-27T13:12:53Z</time>
      </trkpt>
      <trkpt lat="50.04895" lon="2.13683">
        <ele>40.4</ele>
        <time>2024-03-27T13:12:54Z</time>
      </trkpt>
      <trkpt lat="50.04894" lon="2.13682">
        <ele>40.5</ele>
        <time>2024-03-27T13:12:55Z</time>
      </trkpt>
      <trkpt lat="50.04894" lon="2.13681">
        <ele>40.6</ele>
        <time>2024-03-27T13:12:56Z</time>
      </trkpt>
      <trkpt lat="50.04893" lon="2.1368">
        <ele>40.7</ele>
        <time>2024-03-27T13:12:57Z</time>
      </trkpt>
      <trkpt lat="50.04893" lon="2.13678">
        <ele>40.8</ele>
        <time>2024-03-27T13:12:58Z</time>
      </trkpt>
      <trkpt lat="50.04892" lon="2.13677">
        <ele>40.8</ele>
        <time>2024-03-27T13:12:59Z</time>
      </trkpt>
      <trkpt lat="50.04892" lon="2.13675">
        <ele>40.9</ele>
        <time>2024-03-27T13:13:00Z</time>
      </trkpt>
      <trkpt lat="50.04892" lon="2.13674">
        <ele>41</ele>
        <time>2024-03-27T13:13:01Z</time>
      </trkpt>
      <trkpt lat="50.04892" lon="2.13673">
        <ele>41</ele>
        <time>2024-03-27T13:13:02Z</time>
      </trkpt>
      <trkpt lat="50.04891" lon="2.13672">
        <ele>41.1</ele>
        <time>2024-03-27T13:13:03Z</time>
      </trkpt>
      <trkpt lat="50.04891" lon="2.1367">
        <ele>41.2</ele>
        <time>2024-03-27T13:13:04Z</time>
      </trkpt>
      <trkpt lat="50.04891" lon="2.13669">
        <ele>41.3</ele>
        <time>2024-03-27T13:13:05Z</time>
      </trkpt>
      <trkpt lat="50.04891" lon="2.13668">
        <ele>41.3</ele>
        <time>2024-03-27T13:13:06Z</time>
      </trkpt>
      <trkpt lat="50.04891" lon="2.13667">
        <ele>41.4</ele>
        <time>2024-03-27T13:13:07Z</time>
      </trkpt>
      <trkpt lat="50.04891" lon="2.13665">
        <ele>41.5</ele>
        <time>2024-03-27T13:13:08Z</time>
      </trkpt>
      <trkpt lat="50.0489" lon="2.13664">
        <ele>41.6</ele>
        <time>2024-03-27T13:13:09Z</time>
      </trkpt>
      <trkpt lat="50.0489" lon="2.13663">
        <ele>41.6</ele>
        <time>2024-03-27T13:13:10Z</time>
      </trkpt>
      <trkpt lat="50.0489" lon="2.13661">
        <ele>41.7</ele>
        <time>2024-03-27T13:13:11Z</time>
      </trkpt>
      <trkpt lat="50.0489" lon="2.1366">
        <ele>41.8</ele>
        <time>2024-03-27T13:13:12Z</time>
      </trkpt>
      <trkpt lat="50.0489" lon="2.13658">
        <ele>41.8</ele>
        <time>2024-03-27T13:13:13Z</time>
      </trkpt>
      <trkpt lat="50.0489" lon="2.13657">
        <ele>41.9</ele>
        <time>2024-03-27T13:13:14Z</time>
      </trkpt>
      <trkpt lat="50.0489" lon="2.13656">
        <ele>42</ele>
        <time>2024-03-27T13:13:15Z</time>
      </trkpt>
      <trkpt lat="50.0489" lon="2.13655">
        <ele>42</ele>
        <time>2024-03-27T13:13:16Z</time>
      </trkpt>
      <trkpt lat="50.04889" lon="2.13653">
        <ele>42.1</ele>
        <time>2024-03-27T13:13:17Z</time>
      </trkpt>
      <trkpt lat="50.04889" lon="2.13652">
        <ele>42.2</ele>
        <time>2024-03-27T13:13:18Z</time>
      </trkpt>
      <trkpt lat="50.04889" lon="2.1365">
        <ele>42.3</ele>
        <time>2024-03-27T13:13:19Z</time>
      </trkpt>
      <trkpt lat="50.04888" lon="2.13649">
        <ele>42.3</ele>
        <time>2024-03-27T13:13:20Z</time>
      </trkpt>
      <trkpt lat="50.04888" lon="2.13648">
        <ele>42.4</ele>
        <time>2024-03-27T13:13:21Z</time>
      </trkpt>
      <trkpt lat="50.04888" lon="2.13646">
        <ele>42.5</ele>
        <time>2024-03-27T13:13:22Z</time>
      </trkpt>
      <trkpt lat="50.04887" lon="2.13645">
        <ele>42.6</ele>
        <time>2024-03-27T13:13:23Z</time>
      </trkpt>
      <trkpt lat="50.04887" lon="2.13643">
        <ele>42.6</ele>
        <time>2024-03-27T13:13:24Z</time>
      </trkpt>
      <trkpt lat="50.04887" lon="2.13641">
        <ele>42.7</ele>
        <time>2024-03-27T13:13:25Z</time>
      </trkpt>
      <trkpt lat="50.04887" lon="2.1364">
        <ele>42.8</ele>
        <time>2024-03-27T13:13:26Z</time>
      </trkpt>
      <trkpt lat="50.04886" lon="2.13638">
        <ele>42.9</ele>
        <time>2024-03-27T13:13:27Z</time>
      </trkpt>
      <trkpt lat="50.04886" lon="2.13637">
        <ele>42.9</ele>
        <time>2024-03-27T13:13:28Z</time>
      </trkpt>
      <trkpt lat="50.04886" lon="2.13636">
        <ele>43</ele>
        <time>2024-03-27T13:13:29Z</time>
      </trkpt>
      <trkpt lat="50.04885" lon="2.13634">
        <ele>43</ele>
        <time>2024-03-27T13:13:30Z</time>
      </trkpt>
      <trkpt lat="50.04885" lon="2.13633">
        <ele>43.1</ele>
        <time>2024-03-27T13:13:31Z</time>
      </trkpt>
      <trkpt lat="50.04884" lon="2.13631">
        <ele>43.2</ele>
        <time>2024-03-27T13:13:32Z</time>
      </trkpt>
      <trkpt lat="50.04884" lon="2.1363">
        <ele>43.3</ele>
        <time>2024-03-27T13:13:33Z</time>
      </trkpt>
      <trkpt lat="50.04883" lon="2.13629">
        <ele>43.3</ele>
        <time>2024-03-27T13:13:34Z</time>
      </trkpt>
      <trkpt lat="50.04883" lon="2.13628">
        <ele>43.3</ele>
        <time>2024-03-27T13:13:35Z</time>
      </trkpt>
      <trkpt lat="50.04883" lon="2.13626">
        <ele>43.4</ele>
        <time>2024-03-27T13:13:36Z</time>
      </trkpt>
      <trkpt lat="50.04882" lon="2.13625">
        <ele>43.5</ele>
        <time>2024-03-27T13:13:37Z</time>
      </trkpt>
      <trkpt lat="50.04882" lon="2.13623">
        <ele>43.5</ele>
        <time>2024-03-27T13:13:38Z</time>
      </trkpt>
      <trkpt lat="50.04882" lon="2.13622">
        <ele>43.6</ele>
        <time>2024-03-27T13:13:39Z</time>
      </trkpt>
      <trkpt lat="50.04882" lon="2.1362">
        <ele>43.7</ele>
        <time>2024-03-27T13:13:40Z</time>
      </trkpt>
      <trkpt lat="50.04881" lon="2.13619">
        <ele>43.7</ele>
        <time>2024-03-27T13:13:41Z</time>
      </trkpt>
      <trkpt lat="50.04881" lon="2.13617">
        <ele>43.8</ele>
        <time>2024-03-27T13:13:42Z</time>
      </trkpt>
      <trkpt lat="50.04881" lon="2.13616">
        <ele>43.8</ele>
        <time>2024-03-27T13:13:43Z</time>
      </trkpt>
      <trkpt lat="50.04881" lon="2.13614">
        <ele>43.9</ele>
        <time>2024-03-27T13:13:44Z</time>
      </trkpt>
      <trkpt lat="50.04881" lon="2.13613">
        <ele>44</ele>
        <time>2024-03-27T13:13:45Z</time>
      </trkpt>
      <trkpt lat="50.0488" lon="2.13611">
        <ele>44</ele>
        <time>2024-03-27T13:13:46Z</time>
      </trkpt>
      <trkpt lat="50.0488" lon="2.1361">
        <ele>44</ele>
        <time>2024-03-27T13:13:47Z</time>
      </trkpt>
      <trkpt lat="50.04879" lon="2.13608">
        <ele>44</ele>
        <time>2024-03-27T13:13:48Z</time>
      </trkpt>
      <trkpt lat="50.04879" lon="2.13607">
        <ele>44.1</ele>
        <time>2024-03-27T13:13:49Z</time>
      </trkpt>
      <trkpt lat="50.04879" lon="2.13605">
        <ele>44.1</ele>
        <time>2024-03-27T13:13:50Z</time>
      </trkpt>
      <trkpt lat="50.04878" lon="2.13604">
        <ele>44.1</ele>
        <time>2024-03-27T13:13:51Z</time>
      </trkpt>
      <trkpt lat="50.04878" lon="2.13603">
        <ele>44.1</ele>
        <time>2024-03-27T13:13:52Z</time>
      </trkpt>
      <trkpt lat="50.04878" lon="2.13601">
        <ele>44.1</ele>
        <time>2024-03-27T13:13:53Z</time>
      </trkpt>
      <trkpt lat="50.04877" lon="2.136">
        <ele>44.1</ele>
        <time>2024-03-27T13:13:54Z</time>
      </trkpt>
      <trkpt lat="50.04877" lon="2.13598">
        <ele>44.2</ele>
        <time>2024-03-27T13:13:55Z</time>
      </trkpt>
      <trkpt lat="50.04877" lon="2.13597">
        <ele>44.2</ele>
        <time>2024-03-27T13:13:56Z</time>
      </trkpt>
      <trkpt lat="50.04877" lon="2.13596">
        <ele>44.2</ele>
        <time>2024-03-27T13:13:57Z</time>
      </trkpt>
      <trkpt lat="50.04876" lon="2.13595">
        <ele>44.2</ele>
        <time>2024-03-27T13:13:58Z</time>
      </trkpt>
      <trkpt lat="50.04876" lon="2.13593">
        <ele>44.2</ele>
        <time>2024-03-27T13:13:59Z</time>
      </trkpt>
      <trkpt lat="50.04875" lon="2.13592">
        <ele>44.2</ele>
        <time>2024-03-27T13:14:00Z</time>
      </trkpt>
      <trkpt lat="50.04875" lon="2.13591">
        <ele>44.2</ele>
        <time>2024-03-27T13:14:01Z</time>
      </trkpt>
      <trkpt lat="50.04874" lon="2.13589">
        <ele>44.3</ele>
        <time>2024-03-27T13:14:02Z</time>
      </trkpt>
      <trkpt lat="50.04874" lon="2.13588">
        <ele>44.3</ele>
        <time>2024-03-27T13:14:03Z</time>
      </trkpt>
      <trkpt lat="50.04874" lon="2.13586">
        <ele>44.3</ele>
        <time>2024-03-27T13:14:04Z</time>
      </trkpt>
      <trkpt lat="50.04873" lon="2.13585">
        <ele>44.3</ele>
        <time>2024-03-27T13:14:05Z</time>
      </trkpt>
      <trkpt lat="50.04873" lon="2.13583">
        <ele>44.4</ele>
        <time>2024-03-27T13:14:06Z</time>
      </trkpt>
      <trkpt lat="50.04872" lon="2.13582">
        <ele>44.4</ele>
        <time>2024-03-27T13:14:07Z</time>
      </trkpt>
      <trkpt lat="50.04872" lon="2.1358">
        <ele>44.4</ele>
        <time>2024-03-27T13:14:08Z</time>
      </trkpt>
      <trkpt lat="50.04872" lon="2.13578">
        <ele>44.5</ele>
        <time>2024-03-27T13:14:09Z</time>
      </trkpt>
      <trkpt lat="50.04871" lon="2.13576">
        <ele>44.5</ele>
        <time>2024-03-27T13:14:10Z</time>
      </trkpt>
      <trkpt lat="50.04871" lon="2.13575">
        <ele>44.6</ele>
        <time>2024-03-27T13:14:11Z</time>
      </trkpt>
      <trkpt lat="50.0487" lon="2.13573">
        <ele>44.6</ele>
        <time>2024-03-27T13:14:12Z</time>
      </trkpt>
      <trkpt lat="50.0487" lon="2.13572">
        <ele>44.6</ele>
        <time>2024-03-27T13:14:13Z</time>
      </trkpt>
      <trkpt lat="50.0487" lon="2.1357">
        <ele>44.7</ele>
        <time>2024-03-27T13:14:14Z</time>
      </trkpt>
      <trkpt lat="50.04869" lon="2.13569">
        <ele>44.7</ele>
        <time>2024-03-27T13:14:15Z</time>
      </trkpt>
      <trkpt lat="50.04868" lon="2.13567">
        <ele>44.7</ele>
        <time>2024-03-27T13:14:16Z</time>
      </trkpt>
      <trkpt lat="50.04868" lon="2.13566">
        <ele>44.8</ele>
        <time>2024-03-27T13:14:17Z</time>
      </trkpt>
      <trkpt lat="50.04867" lon="2.13564">
        <ele>44.8</ele>
        <time>2024-03-27T13:14:18Z</time>
      </trkpt>
      <trkpt lat="50.04867" lon="2.13563">
        <ele>44.8</ele>
        <time>2024-03-27T13:14:19Z</time>
      </trkpt>
      <trkpt lat="50.04866" lon="2.13562">
        <ele>44.9</ele>
        <time>2024-03-27T13:14:20Z</time>
      </trkpt>
      <trkpt lat="50.04866" lon="2.1356">
        <ele>44.9</ele>
        <time>2024-03-27T13:14:21Z</time>
      </trkpt>
      <trkpt lat="50.04865" lon="2.13559">
        <ele>44.9</ele>
        <time>2024-03-27T13:14:22Z</time>
      </trkpt>
      <trkpt lat="50.04865" lon="2.13557">
        <ele>45</ele>
        <time>2024-03-27T13:14:23Z</time>
      </trkpt>
      <trkpt lat="50.04864" lon="2.13556">
        <ele>45</ele>
        <time>2024-03-27T13:14:24Z</time>
      </trkpt>
      <trkpt lat="50.04864" lon="2.13555">
        <ele>45</ele>
        <time>2024-03-27T13:14:25Z</time>
      </trkpt>
      <trkpt lat="50.04863" lon="2.13554">
        <ele>45</ele>
        <time>2024-03-27T13:14:26Z</time>
      </trkpt>
      <trkpt lat="50.04863" lon="2.13551">
        <ele>45.1</ele>
        <time>2024-03-27T13:14:27Z</time>
      </trkpt>
      <trkpt lat="50.04862" lon="2.1355">
        <ele>45.1</ele>
        <time>2024-03-27T13:14:28Z</time>
      </trkpt>
      <trkpt lat="50.04862" lon="2.13549">
        <ele>45.1</ele>
        <time>2024-03-27T13:14:29Z</time>
      </trkpt>
      <trkpt lat="50.04862" lon="2.13548">
        <ele>45.2</ele>
        <time>2024-03-27T13:14:30Z</time>
      </trkpt>
      <trkpt lat="50.04861" lon="2.13547">
        <ele>45.2</ele>
        <time>2024-03-27T13:14:31Z</time>
      </trkpt>
      <trkpt lat="50.04861" lon="2.13545">
        <ele>45.2</ele>
        <time>2024-03-27T13:14:32Z</time>
      </trkpt>
      <trkpt lat="50.04861" lon="2.13544">
        <ele>45.3</ele>
        <time>2024-03-27T13:14:33Z</time>
      </trkpt>
      <trkpt lat="50.0486" lon="2.13542">
        <ele>45.3</ele>
        <time>2024-03-27T13:14:34Z</time>
      </trkpt>
      <trkpt lat="50.0486" lon="2.13541">
        <ele>45.3</ele>
        <time>2024-03-27T13:14:35Z</time>
      </trkpt>
      <trkpt lat="50.0486" lon="2.1354">
        <ele>45.3</ele>
        <time>2024-03-27T13:14:36Z</time>
      </trkpt>
      <trkpt lat="50.04859" lon="2.13539">
        <ele>45.4</ele>
        <time>2024-03-27T13:14:37Z</time>
      </trkpt>
      <trkpt lat="50.04859" lon="2.13537">
        <ele>45.4</ele>
        <time>2024-03-27T13:14:38Z</time>
      </trkpt>
      <trkpt lat="50.04859" lon="2.13536">
        <ele>45.4</ele>
        <time>2024-03-27T13:14:39Z</time>
      </trkpt>
      <trkpt lat="50.04859" lon="2.13534">
        <ele>45.4</ele>
        <time>2024-03-27T13:14:40Z</time>
      </trkpt>
      <trkpt lat="50.04859" lon="2.13533">
        <ele>45.5</ele>
        <time>2024-03-27T13:14:41Z</time>
      </trkpt>
      <trkpt lat="50.04859" lon="2.13531">
        <ele>45.5</ele>
        <time>2024-03-27T13:14:42Z</time>
      </trkpt>
      <trkpt lat="50.04858" lon="2.1353">
        <ele>45.5</ele>
        <time>2024-03-27T13:14:43Z</time>
      </trkpt>
      <trkpt lat="50.04858" lon="2.13528">
        <ele>45.6</ele>
        <time>2024-03-27T13:14:44Z</time>
      </trkpt>
      <trkpt lat="50.04858" lon="2.13527">
        <ele>45.6</ele>
        <time>2024-03-27T13:14:45Z</time>
      </trkpt>
      <trkpt lat="50.04858" lon="2.13525">
        <ele>45.6</ele>
        <time>2024-03-27T13:14:46Z</time>
      </trkpt>
      <trkpt lat="50.04858" lon="2.13524">
        <ele>45.6</ele>
        <time>2024-03-27T13:14:47Z</time>
      </trkpt>
      <trkpt lat="50.04858" lon="2.13523">
        <ele>45.7</ele>
        <time>2024-03-27T13:14:48Z</time>
      </trkpt>
      <trkpt lat="50.04858" lon="2.13521">
        <ele>45.7</ele>
        <time>2024-03-27T13:14:49Z</time>
      </trkpt>
      <trkpt lat="50.04858" lon="2.1352">
        <ele>45.7</ele>
        <time>2024-03-27T13:14:50Z</time>
      </trkpt>
      <trkpt lat="50.04857" lon="2.13518">
        <ele>45.7</ele>
        <time>2024-03-27T13:14:51Z</time>
      </trkpt>
      <trkpt lat="50.04857" lon="2.13516">
        <ele>45.8</ele>
        <time>2024-03-27T13:14:52Z</time>
      </trkpt>
      <trkpt lat="50.04857" lon="2.13515">
        <ele>45.8</ele>
        <time>2024-03-27T13:14:53Z</time>
      </trkpt>
      <trkpt lat="50.04856" lon="2.13513">
        <ele>45.8</ele>
        <time>2024-03-27T13:14:54Z</time>
      </trkpt>
      <trkpt lat="50.04856" lon="2.13511">
        <ele>45.9</ele>
        <time>2024-03-27T13:14:55Z</time>
      </trkpt>
      <trkpt lat="50.04855" lon="2.13509">
        <ele>45.9</ele>
        <time>2024-03-27T13:14:56Z</time>
      </trkpt>
      <trkpt lat="50.04855" lon="2.13508">
        <ele>45.9</ele>
        <time>2024-03-27T13:14:57Z</time>
      </trkpt>
      <trkpt lat="50.04855" lon="2.13506">
        <ele>46</ele>
        <time>2024-03-27T13:14:58Z</time>
      </trkpt>
      <trkpt lat="50.04855" lon="2.13505">
        <ele>46</ele>
        <time>2024-03-27T13:14:59Z</time>
      </trkpt>
      <trkpt lat="50.04855" lon="2.13503">
        <ele>46</ele>
        <time>2024-03-27T13:15:00Z</time>
      </trkpt>
      <trkpt lat="50.04855" lon="2.13501">
        <ele>46</ele>
        <time>2024-03-27T13:15:01Z</time>
      </trkpt>
      <trkpt lat="50.04854" lon="2.13499">
        <ele>46.1</ele>
        <time>2024-03-27T13:15:02Z</time>
      </trkpt>
      <trkpt lat="50.04854" lon="2.13498">
        <ele>46.1</ele>
        <time>2024-03-27T13:15:03Z</time>
      </trkpt>
      <trkpt lat="50.04854" lon="2.13496">
        <ele>46.1</ele>
        <time>2024-03-27T13:15:04Z</time>
      </trkpt>
      <trkpt lat="50.04854" lon="2.13495">
        <ele>46.2</ele>
        <time>2024-03-27T13:15:05Z</time>
      </trkpt>
      <trkpt lat="50.04854" lon="2.13493">
        <ele>46.2</ele>
        <time>2024-03-27T13:15:06Z</time>
      </trkpt>
      <trkpt lat="50.04853" lon="2.13491">
        <ele>46.2</ele>
        <time>2024-03-27T13:15:07Z</time>
      </trkpt>
      <trkpt lat="50.04853" lon="2.1349">
        <ele>46.3</ele>
        <time>2024-03-27T13:15:08Z</time>
      </trkpt>
      <trkpt lat="50.04853" lon="2.13488">
        <ele>46.3</ele>
        <time>2024-03-27T13:15:09Z</time>
      </trkpt>
      <trkpt lat="50.04853" lon="2.13487">
        <ele>46.3</ele>
        <time>2024-03-27T13:15:10Z</time>
      </trkpt>
      <trkpt lat="50.04853" lon="2.13485">
        <ele>46.4</ele>
        <time>2024-03-27T13:15:11Z</time>
      </trkpt>
      <trkpt lat="50.04852" lon="2.13483">
        <ele>46.4</ele>
        <time>2024-03-27T13:15:12Z</time>
      </trkpt>
      <trkpt lat="50.04852" lon="2.13482">
        <ele>46.4</ele>
        <time>2024-03-27T13:15:13Z</time>
      </trkpt>
      <trkpt lat="50.04852" lon="2.1348">
        <ele>46.5</ele>
        <time>2024-03-27T13:15:14Z</time>
      </trkpt>
      <trkpt lat="50.04852" lon="2.13478">
        <ele>46.5</ele>
        <time>2024-03-27T13:15:15Z</time>
      </trkpt>
      <trkpt lat="50.04852" lon="2.13477">
        <ele>46.6</ele>
        <time>2024-03-27T13:15:16Z</time>
      </trkpt>
      <trkpt lat="50.04852" lon="2.13475">
        <ele>46.6</ele>
        <time>2024-03-27T13:15:17Z</time>
      </trkpt>
      <trkpt lat="50.04851" lon="2.13473">
        <ele>46.6</ele>
        <time>2024-03-27T13:15:18Z</time>
      </trkpt>
      <trkpt lat="50.04851" lon="2.13472">
        <ele>46.7</ele>
        <time>2024-03-27T13:15:19Z</time>
      </trkpt>
      <trkpt lat="50.04851" lon="2.1347">
        <ele>46.7</ele>
        <time>2024-03-27T13:15:20Z</time>
      </trkpt>
      <trkpt lat="50.04851" lon="2.13468">
        <ele>46.7</ele>
        <time>2024-03-27T13:15:21Z</time>
      </trkpt>
      <trkpt lat="50.04851" lon="2.13467">
        <ele>46.8</ele>
        <time>2024-03-27T13:15:22Z</time>
      </trkpt>
      <trkpt lat="50.0485" lon="2.13465">
        <ele>46.8</ele>
        <time>2024-03-27T13:15:23Z</time>
      </trkpt>
      <trkpt lat="50.0485" lon="2.13464">
        <ele>46.9</ele>
        <time>2024-03-27T13:15:24Z</time>
      </trkpt>
      <trkpt lat="50.0485" lon="2.13462">
        <ele>46.9</ele>
        <time>2024-03-27T13:15:25Z</time>
      </trkpt>
      <trkpt lat="50.0485" lon="2.1346">
        <ele>46.9</ele>
        <time>2024-03-27T13:15:26Z</time>
      </trkpt>
      <trkpt lat="50.0485" lon="2.13459">
        <ele>47</ele>
        <time>2024-03-27T13:15:27Z</time>
      </trkpt>
      <trkpt lat="50.04849" lon="2.13457">
        <ele>47</ele>
        <time>2024-03-27T13:15:28Z</time>
      </trkpt>
      <trkpt lat="50.04849" lon="2.13455">
        <ele>47.1</ele>
        <time>2024-03-27T13:15:29Z</time>
      </trkpt>
      <trkpt lat="50.04849" lon="2.13454">
        <ele>47.1</ele>
        <time>2024-03-27T13:15:30Z</time>
      </trkpt>
      <trkpt lat="50.04849" lon="2.13452">
        <ele>47.2</ele>
        <time>2024-03-27T13:15:31Z</time>
      </trkpt>
      <trkpt lat="50.04849" lon="2.1345">
        <ele>47.2</ele>
        <time>2024-03-27T13:15:32Z</time>
      </trkpt>
      <trkpt lat="50.04848" lon="2.13449">
        <ele>47.2</ele>
        <time>2024-03-27T13:15:33Z</time>
      </trkpt>
      <trkpt lat="50.04848" lon="2.13447">
        <ele>47.3</ele>
        <time>2024-03-27T13:15:34Z</time>
      </trkpt>
      <trkpt lat="50.04848" lon="2.13446">
        <ele>47.3</ele>
        <time>2024-03-27T13:15:35Z</time>
      </trkpt>
      <trkpt lat="50.04847" lon="2.13444">
        <ele>47.4</ele>
        <time>2024-03-27T13:15:36Z</time>
      </trkpt>
      <trkpt lat="50.04847" lon="2.13442">
        <ele>47.4</ele>
        <time>2024-03-27T13:15:37Z</time>
      </trkpt>
      <trkpt lat="50.04847" lon="2.13441">
        <ele>47.4</ele>
        <time>2024-03-27T13:15:38Z</time>
      </trkpt>
      <trkpt lat="50.04846" lon="2.1344">
        <ele>47.5</ele>
        <time>2024-03-27T13:15:39Z</time>
      </trkpt>
      <trkpt lat="50.04846" lon="2.13439">
        <ele>47.5</ele>
        <time>2024-03-27T13:15:40Z</time>
      </trkpt>
      <trkpt lat="50.04846" lon="2.13437">
        <ele>47.6</ele>
        <time>2024-03-27T13:15:41Z</time>
      </trkpt>
      <trkpt lat="50.04845" lon="2.13435">
        <ele>47.6</ele>
        <time>2024-03-27T13:15:42Z</time>
      </trkpt>
      <trkpt lat="50.04845" lon="2.13434">
        <ele>47.6</ele>
        <time>2024-03-27T13:15:43Z</time>
      </trkpt>
      <trkpt lat="50.04844" lon="2.13432">
        <ele>47.7</ele>
        <time>2024-03-27T13:15:44Z</time>
      </trkpt>
      <trkpt lat="50.04844" lon="2.13431">
        <ele>47.7</ele>
        <time>2024-03-27T13:15:45Z</time>
      </trkpt>
      <trkpt lat="50.04844" lon="2.13429">
        <ele>47.8</ele>
        <time>2024-03-27T13:15:46Z</time>
      </trkpt>
      <trkpt lat="50.04843" lon="2.13428">
        <ele>47.8</ele>
        <time>2024-03-27T13:15:47Z</time>
      </trkpt>
      <trkpt lat="50.04843" lon="2.13426">
        <ele>47.9</ele>
        <time>2024-03-27T13:15:48Z</time>
      </trkpt>
      <trkpt lat="50.04843" lon="2.13424">
        <ele>47.9</ele>
        <time>2024-03-27T13:15:49Z</time>
      </trkpt>
      <trkpt lat="50.04842" lon="2.13423">
        <ele>48</ele>
        <time>2024-03-27T13:15:50Z</time>
      </trkpt>
      <trkpt lat="50.04842" lon="2.13421">
        <ele>48</ele>
        <time>2024-03-27T13:15:51Z</time>
      </trkpt>
      <trkpt lat="50.04841" lon="2.1342">
        <ele>48</ele>
        <time>2024-03-27T13:15:52Z</time>
      </trkpt>
      <trkpt lat="50.04841" lon="2.13418">
        <ele>48.1</ele>
        <time>2024-03-27T13:15:53Z</time>
      </trkpt>
      <trkpt lat="50.04841" lon="2.13417">
        <ele>48.1</ele>
        <time>2024-03-27T13:15:54Z</time>
      </trkpt>
      <trkpt lat="50.0484" lon="2.13415">
        <ele>48.2</ele>
        <time>2024-03-27T13:15:55Z</time>
      </trkpt>
      <trkpt lat="50.0484" lon="2.13414">
        <ele>48.2</ele>
        <time>2024-03-27T13:15:56Z</time>
      </trkpt>
      <trkpt lat="50.0484" lon="2.13412">
        <ele>48.3</ele>
        <time>2024-03-27T13:15:57Z</time>
      </trkpt>
      <trkpt lat="50.0484" lon="2.1341">
        <ele>48.3</ele>
        <time>2024-03-27T13:15:58Z</time>
      </trkpt>
      <trkpt lat="50.0484" lon="2.13409">
        <ele>48.4</ele>
        <time>2024-03-27T13:15:59Z</time>
      </trkpt>
      <trkpt lat="50.04839" lon="2.13407">
        <ele>48.4</ele>
        <time>2024-03-27T13:16:00Z</time>
      </trkpt>
      <trkpt lat="50.04839" lon="2.13406">
        <ele>48.5</ele>
        <time>2024-03-27T13:16:01Z</time>
      </trkpt>
      <trkpt lat="50.04838" lon="2.13404">
        <ele>48.5</ele>
        <time>2024-03-27T13:16:02Z</time>
      </trkpt>
      <trkpt lat="50.04838" lon="2.13403">
        <ele>48.6</ele>
        <time>2024-03-27T13:16:03Z</time>
      </trkpt>
      <trkpt lat="50.04838" lon="2.13401">
        <ele>48.6</ele>
        <time>2024-03-27T13:16:04Z</time>
      </trkpt>
      <trkpt lat="50.04838" lon="2.13399">
        <ele>48.6</ele>
        <time>2024-03-27T13:16:05Z</time>
      </trkpt>
      <trkpt lat="50.04837" lon="2.13398">
        <ele>48.7</ele>
        <time>2024-03-27T13:16:06Z</time>
      </trkpt>
      <trkpt lat="50.04837" lon="2.13396">
        <ele>48.7</ele>
        <time>2024-03-27T13:16:07Z</time>
      </trkpt>
      <trkpt lat="50.04837" lon="2.13394">
        <ele>48.8</ele>
        <time>2024-03-27T13:16:08Z</time>
      </trkpt>
      <trkpt lat="50.04837" lon="2.13393">
        <ele>48.8</ele>
        <time>2024-03-27T13:16:09Z</time>
      </trkpt>
      <trkpt lat="50.04836" lon="2.13391">
        <ele>48.9</ele>
        <time>2024-03-27T13:16:10Z</time>
      </trkpt>
      <trkpt lat="50.04836" lon="2.1339">
        <ele>48.9</ele>
        <time>2024-03-27T13:16:11Z</time>
      </trkpt>
      <trkpt lat="50.04835" lon="2.13388">
        <ele>49</ele>
        <time>2024-03-27T13:16:12Z</time>
      </trkpt>
      <trkpt lat="50.04835" lon="2.13387">
        <ele>49</ele>
        <time>2024-03-27T13:16:13Z</time>
      </trkpt>
      <trkpt lat="50.04835" lon="2.13385">
        <ele>49.1</ele>
        <time>2024-03-27T13:16:14Z</time>
      </trkpt>
      <trkpt lat="50.04834" lon="2.13384">
        <ele>49.1</ele>
        <time>2024-03-27T13:16:15Z</time>
      </trkpt>
      <trkpt lat="50.04834" lon="2.13382">
        <ele>49.2</ele>
        <time>2024-03-27T13:16:16Z</time>
      </trkpt>
      <trkpt lat="50.04834" lon="2.1338">
        <ele>49.2</ele>
        <time>2024-03-27T13:16:17Z</time>
      </trkpt>
      <trkpt lat="50.04833" lon="2.13379">
        <ele>49.2</ele>
        <time>2024-03-27T13:16:18Z</time>
      </trkpt>
      <trkpt lat="50.04833" lon="2.13378">
        <ele>49.3</ele>
        <time>2024-03-27T13:16:19Z</time>
      </trkpt>
      <trkpt lat="50.04833" lon="2.13377">
        <ele>49.3</ele>
        <time>2024-03-27T13:16:20Z</time>
      </trkpt>
      <trkpt lat="50.04832" lon="2.13376">
        <ele>49.4</ele>
        <time>2024-03-27T13:16:21Z</time>
      </trkpt>
      <trkpt lat="50.04832" lon="2.13374">
        <ele>49.4</ele>
        <time>2024-03-27T13:16:22Z</time>
      </trkpt>
      <trkpt lat="50.04832" lon="2.13373">
        <ele>49.5</ele>
        <time>2024-03-27T13:16:23Z</time>
      </trkpt>
      <trkpt lat="50.04831" lon="2.13371">
        <ele>49.5</ele>
        <time>2024-03-27T13:16:24Z</time>
      </trkpt>
      <trkpt lat="50.04831" lon="2.1337">
        <ele>49.6</ele>
        <time>2024-03-27T13:16:25Z</time>
      </trkpt>
      <trkpt lat="50.0483" lon="2.13368">
        <ele>49.6</ele>
        <time>2024-03-27T13:16:26Z</time>
      </trkpt>
      <trkpt lat="50.0483" lon="2.13367">
        <ele>49.7</ele>
        <time>2024-03-27T13:16:27Z</time>
      </trkpt>
      <trkpt lat="50.0483" lon="2.13366">
        <ele>49.7</ele>
        <time>2024-03-27T13:16:28Z</time>
      </trkpt>
      <trkpt lat="50.0483" lon="2.13365">
        <ele>49.7</ele>
        <time>2024-03-27T13:16:29Z</time>
      </trkpt>
      <trkpt lat="50.0483" lon="2.13364">
        <ele>49.7</ele>
        <time>2024-03-27T13:16:30Z</time>
      </trkpt>
      <trkpt lat="50.04829" lon="2.13363">
        <ele>49.8</ele>
        <time>2024-03-27T13:16:31Z</time>
      </trkpt>
      <trkpt lat="50.04829" lon="2.13361">
        <ele>49.8</ele>
        <time>2024-03-27T13:16:32Z</time>
      </trkpt>
      <trkpt lat="50.04829" lon="2.1336">
        <ele>49.9</ele>
        <time>2024-03-27T13:16:33Z</time>
      </trkpt>
      <trkpt lat="50.04829" lon="2.13359">
        <ele>49.9</ele>
        <time>2024-03-27T13:16:34Z</time>
      </trkpt>
      <trkpt lat="50.04829" lon="2.13357">
        <ele>50</ele>
        <time>2024-03-27T13:16:35Z</time>
      </trkpt>
      <trkpt lat="50.04828" lon="2.13356">
        <ele>50</ele>
        <time>2024-03-27T13:16:36Z</time>
      </trkpt>
      <trkpt lat="50.04828" lon="2.13355">
        <ele>50</ele>
        <time>2024-03-27T13:16:37Z</time>
      </trkpt>
      <trkpt lat="50.04828" lon="2.13353">
        <ele>50.1</ele>
        <time>2024-03-27T13:16:38Z</time>
      </trkpt>
      <trkpt lat="50.04828" lon="2.13352">
        <ele>50.1</ele>
        <time>2024-03-27T13:16:39Z</time>
      </trkpt>
      <trkpt lat="50.04828" lon="2.13351">
        <ele>50.2</ele>
        <time>2024-03-27T13:16:40Z</time>
      </trkpt>
      <trkpt lat="50.04827" lon="2.1335">
        <ele>50.2</ele>
        <time>2024-03-27T13:16:41Z</time>
      </trkpt>
      <trkpt lat="50.04827" lon="2.13348">
        <ele>50.2</ele>
        <time>2024-03-27T13:16:42Z</time>
      </trkpt>
      <trkpt lat="50.04827" lon="2.13347">
        <ele>50.3</ele>
        <time>2024-03-27T13:16:43Z</time>
      </trkpt>
      <trkpt lat="50.04827" lon="2.13345">
        <ele>50.3</ele>
        <time>2024-03-27T13:16:44Z</time>
      </trkpt>
      <trkpt lat="50.04827" lon="2.13344">
        <ele>50.4</ele>
        <time>2024-03-27T13:16:45Z</time>
      </trkpt>
      <trkpt lat="50.04827" lon="2.13342">
        <ele>50.4</ele>
        <time>2024-03-27T13:16:46Z</time>
      </trkpt>
      <trkpt lat="50.04827" lon="2.1334">
        <ele>50.5</ele>
        <time>2024-03-27T13:16:47Z</time>
      </trkpt>
      <trkpt lat="50.04827" lon="2.13339">
        <ele>50.5</ele>
        <time>2024-03-27T13:16:48Z</time>
      </trkpt>
      <trkpt lat="50.04827" lon="2.13337">
        <ele>50.5</ele>
        <time>2024-03-27T13:16:49Z</time>
      </trkpt>
      <trkpt lat="50.04827" lon="2.13336">
        <ele>50.6</ele>
        <time>2024-03-27T13:16:50Z</time>
      </trkpt>
      <trkpt lat="50.04827" lon="2.13334">
        <ele>50.6</ele>
        <time>2024-03-27T13:16:51Z</time>
      </trkpt>
      <trkpt lat="50.04827" lon="2.13332">
        <ele>50.6</ele>
        <time>2024-03-27T13:16:52Z</time>
      </trkpt>
      <trkpt lat="50.04827" lon="2.13331">
        <ele>50.7</ele>
        <time>2024-03-27T13:16:53Z</time>
      </trkpt>
      <trkpt lat="50.04827" lon="2.13329">
        <ele>50.7</ele>
        <time>2024-03-27T13:16:54Z</time>
      </trkpt>
      <trkpt lat="50.04827" lon="2.13327">
        <ele>50.8</ele>
        <time>2024-03-27T13:16:55Z</time>
      </trkpt>
      <trkpt lat="50.04826" lon="2.13326">
        <ele>50.8</ele>
        <time>2024-03-27T13:16:56Z</time>
      </trkpt>
      <trkpt lat="50.04826" lon="2.13324">
        <ele>50.9</ele>
        <time>2024-03-27T13:16:57Z</time>
      </trkpt>
      <trkpt lat="50.04826" lon="2.13322">
        <ele>50.9</ele>
        <time>2024-03-27T13:16:58Z</time>
      </trkpt>
      <trkpt lat="50.04826" lon="2.1332">
        <ele>51</ele>
        <time>2024-03-27T13:16:59Z</time>
      </trkpt>
      <trkpt lat="50.04825" lon="2.13319">
        <ele>51</ele>
        <time>2024-03-27T13:17:00Z</time>
      </trkpt>
      <trkpt lat="50.04825" lon="2.13317">
        <ele>51.1</ele>
        <time>2024-03-27T13:17:01Z</time>
      </trkpt>
      <trkpt lat="50.04825" lon="2.13315">
        <ele>51.1</ele>
        <time>2024-03-27T13:17:02Z</time>
      </trkpt>
      <trkpt lat="50.04824" lon="2.13311">
        <ele>51.2</ele>
        <time>2024-03-27T13:17:03Z</time>
      </trkpt>
      <trkpt lat="50.04824" lon="2.1331">
        <ele>51.2</ele>
        <time>2024-03-27T13:17:04Z</time>
      </trkpt>
      <trkpt lat="50.04824" lon="2.13308">
        <ele>51.3</ele>
        <time>2024-03-27T13:17:05Z</time>
      </trkpt>
      <trkpt lat="50.04824" lon="2.13305">
        <ele>51.4</ele>
        <time>2024-03-27T13:17:06Z</time>
      </trkpt>
      <trkpt lat="50.04823" lon="2.13304">
        <ele>51.4</ele>
        <time>2024-03-27T13:17:07Z</time>
      </trkpt>
      <trkpt lat="50.04823" lon="2.13302">
        <ele>51.5</ele>
        <time>2024-03-27T13:17:08Z</time>
      </trkpt>
      <trkpt lat="50.04822" lon="2.133">
        <ele>51.6</ele>
        <time>2024-03-27T13:17:09Z</time>
      </trkpt>
      <trkpt lat="50.04822" lon="2.13298">
        <ele>51.7</ele>
        <time>2024-03-27T13:17:10Z</time>
      </trkpt>
      <trkpt lat="50.04822" lon="2.13297">
        <ele>51.7</ele>
        <time>2024-03-27T13:17:11Z</time>
      </trkpt>
      <trkpt lat="50.04822" lon="2.13295">
        <ele>51.8</ele>
        <time>2024-03-27T13:17:12Z</time>
      </trkpt>
      <trkpt lat="50.04821" lon="2.13294">
        <ele>51.8</ele>
        <time>2024-03-27T13:17:13Z</time>
      </trkpt>
      <trkpt lat="50.04821" lon="2.13292">
        <ele>51.9</ele>
        <time>2024-03-27T13:17:14Z</time>
      </trkpt>
      <trkpt lat="50.04821" lon="2.13291">
        <ele>51.9</ele>
        <time>2024-03-27T13:17:15Z</time>
      </trkpt>
      <trkpt lat="50.0482" lon="2.13289">
        <ele>52</ele>
        <time>2024-03-27T13:17:16Z</time>
      </trkpt>
      <trkpt lat="50.0482" lon="2.13288">
        <ele>52.1</ele>
        <time>2024-03-27T13:17:17Z</time>
      </trkpt>
      <trkpt lat="50.0482" lon="2.13287">
        <ele>52.1</ele>
        <time>2024-03-27T13:17:18Z</time>
      </trkpt>
      <trkpt lat="50.0482" lon="2.13286">
        <ele>52.2</ele>
        <time>2024-03-27T13:17:19Z</time>
      </trkpt>
      <trkpt lat="50.04819" lon="2.13284">
        <ele>52.2</ele>
        <time>2024-03-27T13:17:20Z</time>
      </trkpt>
      <trkpt lat="50.04819" lon="2.13283">
        <ele>52.3</ele>
        <time>2024-03-27T13:17:21Z</time>
      </trkpt>
      <trkpt lat="50.04819" lon="2.13281">
        <ele>52.4</ele>
        <time>2024-03-27T13:17:22Z</time>
      </trkpt>
      <trkpt lat="50.04819" lon="2.13279">
        <ele>52.4</ele>
        <time>2024-03-27T13:17:23Z</time>
      </trkpt>
      <trkpt lat="50.04819" lon="2.13278">
        <ele>52.5</ele>
        <time>2024-03-27T13:17:24Z</time>
      </trkpt>
      <trkpt lat="50.04818" lon="2.13276">
        <ele>52.6</ele>
        <time>2024-03-27T13:17:25Z</time>
      </trkpt>
      <trkpt lat="50.04818" lon="2.13275">
        <ele>52.6</ele>
        <time>2024-03-27T13:17:26Z</time>
      </trkpt>
      <trkpt lat="50.04818" lon="2.13273">
        <ele>52.7</ele>
        <time>2024-03-27T13:17:27Z</time>
      </trkpt>
      <trkpt lat="50.04818" lon="2.13272">
        <ele>52.8</ele>
        <time>2024-03-27T13:17:28Z</time>
      </trkpt>
      <trkpt lat="50.04817" lon="2.1327">
        <ele>52.8</ele>
        <time>2024-03-27T13:17:29Z</time>
      </trkpt>
      <trkpt lat="50.04817" lon="2.13269">
        <ele>52.9</ele>
        <time>2024-03-27T13:17:30Z</time>
      </trkpt>
      <trkpt lat="50.04817" lon="2.13267">
        <ele>53</ele>
        <time>2024-03-27T13:17:31Z</time>
      </trkpt>
      <trkpt lat="50.04817" lon="2.13265">
        <ele>53</ele>
        <time>2024-03-27T13:17:32Z</time>
      </trkpt>
      <trkpt lat="50.04817" lon="2.13264">
        <ele>53.1</ele>
        <time>2024-03-27T13:17:33Z</time>
      </trkpt>
      <trkpt lat="50.04816" lon="2.13263">
        <ele>53.2</ele>
        <time>2024-03-27T13:17:34Z</time>
      </trkpt>
      <trkpt lat="50.04816" lon="2.13261">
        <ele>53.2</ele>
        <time>2024-03-27T13:17:35Z</time>
      </trkpt>
      <trkpt lat="50.04816" lon="2.1326">
        <ele>53.3</ele>
        <time>2024-03-27T13:17:36Z</time>
      </trkpt>
      <trkpt lat="50.04816" lon="2.13259">
        <ele>53.3</ele>
        <time>2024-03-27T13:17:37Z</time>
      </trkpt>
      <trkpt lat="50.04816" lon="2.13257">
        <ele>53.4</ele>
        <time>2024-03-27T13:17:38Z</time>
      </trkpt>
      <trkpt lat="50.04816" lon="2.13256">
        <ele>53.4</ele>
        <time>2024-03-27T13:17:39Z</time>
      </trkpt>
      <trkpt lat="50.04816" lon="2.13255">
        <ele>53.5</ele>
        <time>2024-03-27T13:17:40Z</time>
      </trkpt>
      <trkpt lat="50.04816" lon="2.13254">
        <ele>53.5</ele>
        <time>2024-03-27T13:17:41Z</time>
      </trkpt>
      <trkpt lat="50.04816" lon="2.13252">
        <ele>53.6</ele>
        <time>2024-03-27T13:17:42Z</time>
      </trkpt>
      <trkpt lat="50.04815" lon="2.13251">
        <ele>53.6</ele>
        <time>2024-03-27T13:17:43Z</time>
      </trkpt>
      <trkpt lat="50.04815" lon="2.13249">
        <ele>53.7</ele>
        <time>2024-03-27T13:17:44Z</time>
      </trkpt>
      <trkpt lat="50.04815" lon="2.13248">
        <ele>53.7</ele>
        <time>2024-03-27T13:17:45Z</time>
      </trkpt>
      <trkpt lat="50.04815" lon="2.13246">
        <ele>53.8</ele>
        <time>2024-03-27T13:17:46Z</time>
      </trkpt>
      <trkpt lat="50.04815" lon="2.13245">
        <ele>53.8</ele>
        <time>2024-03-27T13:17:47Z</time>
      </trkpt>
      <trkpt lat="50.04815" lon="2.13243">
        <ele>53.9</ele>
        <time>2024-03-27T13:17:48Z</time>
      </trkpt>
      <trkpt lat="50.04815" lon="2.13242">
        <ele>54</ele>
        <time>2024-03-27T13:17:49Z</time>
      </trkpt>
      <trkpt lat="50.04815" lon="2.1324">
        <ele>54</ele>
        <time>2024-03-27T13:17:50Z</time>
      </trkpt>
      <trkpt lat="50.04815" lon="2.13239">
        <ele>54.1</ele>
        <time>2024-03-27T13:17:51Z</time>
      </trkpt>
      <trkpt lat="50.04815" lon="2.13237">
        <ele>54.1</ele>
        <time>2024-03-27T13:17:52Z</time>
      </trkpt>
      <trkpt lat="50.04815" lon="2.13236">
        <ele>54.2</ele>
        <time>2024-03-27T13:17:53Z</time>
      </trkpt>
      <trkpt lat="50.04814" lon="2.13234">
        <ele>54.2</ele>
        <time>2024-03-27T13:17:54Z</time>
      </trkpt>
      <trkpt lat="50.04814" lon="2.13232">
        <ele>54.3</ele>
        <time>2024-03-27T13:17:55Z</time>
      </trkpt>
      <trkpt lat="50.04814" lon="2.13231">
        <ele>54.4</ele>
        <time>2024-03-27T13:17:56Z</time>
      </trkpt>
      <trkpt lat="50.04813" lon="2.13229">
        <ele>54.4</ele>
        <time>2024-03-27T13:17:57Z</time>
      </trkpt>
      <trkpt lat="50.04812" lon="2.13228">
        <ele>54.5</ele>
        <time>2024-03-27T13:17:58Z</time>
      </trkpt>
      <trkpt lat="50.04812" lon="2.13227">
        <ele>54.5</ele>
        <time>2024-03-27T13:17:59Z</time>
      </trkpt>
      <trkpt lat="50.04812" lon="2.13225">
        <ele>54.6</ele>
        <time>2024-03-27T13:18:00Z</time>
      </trkpt>
      <trkpt lat="50.04812" lon="2.13223">
        <ele>54.7</ele>
        <time>2024-03-27T13:18:01Z</time>
      </trkpt>
      <trkpt lat="50.04811" lon="2.13222">
        <ele>54.7</ele>
        <time>2024-03-27T13:18:02Z</time>
      </trkpt>
      <trkpt lat="50.04811" lon="2.1322">
        <ele>54.8</ele>
        <time>2024-03-27T13:18:03Z</time>
      </trkpt>
      <trkpt lat="50.0481" lon="2.13219">
        <ele>54.8</ele>
        <time>2024-03-27T13:18:04Z</time>
      </trkpt>
      <trkpt lat="50.0481" lon="2.13217">
        <ele>54.8</ele>
        <time>2024-03-27T13:18:05Z</time>
      </trkpt>
      <trkpt lat="50.0481" lon="2.13215">
        <ele>54.9</ele>
        <time>2024-03-27T13:18:06Z</time>
      </trkpt>
      <trkpt lat="50.04809" lon="2.13214">
        <ele>54.9</ele>
        <time>2024-03-27T13:18:07Z</time>
      </trkpt>
      <trkpt lat="50.04809" lon="2.13212">
        <ele>55</ele>
        <time>2024-03-27T13:18:08Z</time>
      </trkpt>
      <trkpt lat="50.04809" lon="2.13211">
        <ele>55</ele>
        <time>2024-03-27T13:18:09Z</time>
      </trkpt>
      <trkpt lat="50.04808" lon="2.13209">
        <ele>55.1</ele>
        <time>2024-03-27T13:18:10Z</time>
      </trkpt>
      <trkpt lat="50.04808" lon="2.13207">
        <ele>55.1</ele>
        <time>2024-03-27T13:18:11Z</time>
      </trkpt>
      <trkpt lat="50.04808" lon="2.13206">
        <ele>55.2</ele>
        <time>2024-03-27T13:18:12Z</time>
      </trkpt>
      <trkpt lat="50.04807" lon="2.13204">
        <ele>55.2</ele>
        <time>2024-03-27T13:18:13Z</time>
      </trkpt>
      <trkpt lat="50.04807" lon="2.13203">
        <ele>55.3</ele>
        <time>2024-03-27T13:18:14Z</time>
      </trkpt>
      <trkpt lat="50.04807" lon="2.13201">
        <ele>55.3</ele>
        <time>2024-03-27T13:18:15Z</time>
      </trkpt>
      <trkpt lat="50.04807" lon="2.132">
        <ele>55.3</ele>
        <time>2024-03-27T13:18:16Z</time>
      </trkpt>
      <trkpt lat="50.04807" lon="2.13198">
        <ele>55.4</ele>
        <time>2024-03-27T13:18:17Z</time>
      </trkpt>
      <trkpt lat="50.04807" lon="2.13197">
        <ele>55.4</ele>
        <time>2024-03-27T13:18:18Z</time>
      </trkpt>
      <trkpt lat="50.04807" lon="2.13195">
        <ele>55.5</ele>
        <time>2024-03-27T13:18:19Z</time>
      </trkpt>
      <trkpt lat="50.04806" lon="2.13194">
        <ele>55.5</ele>
        <time>2024-03-27T13:18:20Z</time>
      </trkpt>
      <trkpt lat="50.04806" lon="2.13193">
        <ele>55.5</ele>
        <time>2024-03-27T13:18:21Z</time>
      </trkpt>
      <trkpt lat="50.04806" lon="2.13191">
        <ele>55.6</ele>
        <time>2024-03-27T13:18:22Z</time>
      </trkpt>
      <trkpt lat="50.04806" lon="2.1319">
        <ele>55.6</ele>
        <time>2024-03-27T13:18:23Z</time>
      </trkpt>
      <trkpt lat="50.04806" lon="2.13188">
        <ele>55.7</ele>
        <time>2024-03-27T13:18:24Z</time>
      </trkpt>
      <trkpt lat="50.04806" lon="2.13187">
        <ele>55.7</ele>
        <time>2024-03-27T13:18:25Z</time>
      </trkpt>
      <trkpt lat="50.04806" lon="2.13185">
        <ele>55.8</ele>
        <time>2024-03-27T13:18:26Z</time>
      </trkpt>
      <trkpt lat="50.04806" lon="2.13183">
        <ele>55.8</ele>
        <time>2024-03-27T13:18:27Z</time>
      </trkpt>
      <trkpt lat="50.04806" lon="2.13182">
        <ele>55.9</ele>
        <time>2024-03-27T13:18:28Z</time>
      </trkpt>
      <trkpt lat="50.04805" lon="2.1318">
        <ele>55.9</ele>
        <time>2024-03-27T13:18:29Z</time>
      </trkpt>
      <trkpt lat="50.04805" lon="2.13179">
        <ele>55.9</ele>
        <time>2024-03-27T13:18:30Z</time>
      </trkpt>
      <trkpt lat="50.04805" lon="2.13178">
        <ele>56</ele>
        <time>2024-03-27T13:18:31Z</time>
      </trkpt>
      <trkpt lat="50.04805" lon="2.13176">
        <ele>56</ele>
        <time>2024-03-27T13:18:32Z</time>
      </trkpt>
      <trkpt lat="50.04805" lon="2.13175">
        <ele>56.1</ele>
        <time>2024-03-27T13:18:33Z</time>
      </trkpt>
      <trkpt lat="50.04805" lon="2.13173">
        <ele>56.1</ele>
        <time>2024-03-27T13:18:34Z</time>
      </trkpt>
      <trkpt lat="50.04805" lon="2.13171">
        <ele>56.2</ele>
        <time>2024-03-27T13:18:35Z</time>
      </trkpt>
      <trkpt lat="50.04805" lon="2.1317">
        <ele>56.2</ele>
        <time>2024-03-27T13:18:36Z</time>
      </trkpt>
      <trkpt lat="50.04805" lon="2.13168">
        <ele>56.2</ele>
        <time>2024-03-27T13:18:37Z</time>
      </trkpt>
      <trkpt lat="50.04804" lon="2.13166">
        <ele>56.3</ele>
        <time>2024-03-27T13:18:38Z</time>
      </trkpt>
      <trkpt lat="50.04804" lon="2.13165">
        <ele>56.3</ele>
        <time>2024-03-27T13:18:39Z</time>
      </trkpt>
      <trkpt lat="50.04804" lon="2.13163">
        <ele>56.4</ele>
        <time>2024-03-27T13:18:40Z</time>
      </trkpt>
      <trkpt lat="50.04804" lon="2.13161">
        <ele>56.4</ele>
        <time>2024-03-27T13:18:41Z</time>
      </trkpt>
      <trkpt lat="50.04804" lon="2.1316">
        <ele>56.5</ele>
        <time>2024-03-27T13:18:42Z</time>
      </trkpt>
      <trkpt lat="50.04804" lon="2.13158">
        <ele>56.5</ele>
        <time>2024-03-27T13:18:43Z</time>
      </trkpt>
      <trkpt lat="50.04804" lon="2.13157">
        <ele>56.6</ele>
        <time>2024-03-27T13:18:44Z</time>
      </trkpt>
      <trkpt lat="50.04804" lon="2.13154">
        <ele>56.6</ele>
        <time>2024-03-27T13:18:45Z</time>
      </trkpt>
      <trkpt lat="50.04804" lon="2.13153">
        <ele>56.6</ele>
        <time>2024-03-27T13:18:46Z</time>
      </trkpt>
      <trkpt lat="50.04804" lon="2.13152">
        <ele>56.7</ele>
        <time>2024-03-27T13:18:47Z</time>
      </trkpt>
      <trkpt lat="50.04804" lon="2.13151">
        <ele>56.7</ele>
        <time>2024-03-27T13:18:48Z</time>
      </trkpt>
      <trkpt lat="50.04803" lon="2.1315">
        <ele>56.7</ele>
        <time>2024-03-27T13:18:49Z</time>
      </trkpt>
      <trkpt lat="50.04803" lon="2.13148">
        <ele>56.8</ele>
        <time>2024-03-27T13:18:50Z</time>
      </trkpt>
      <trkpt lat="50.04803" lon="2.13147">
        <ele>56.8</ele>
        <time>2024-03-27T13:18:51Z</time>
      </trkpt>
      <trkpt lat="50.04803" lon="2.13146">
        <ele>56.8</ele>
        <time>2024-03-27T13:18:52Z</time>
      </trkpt>
      <trkpt lat="50.04803" lon="2.13145">
        <ele>56.9</ele>
        <time>2024-03-27T13:18:53Z</time>
      </trkpt>
      <trkpt lat="50.04803" lon="2.13143">
        <ele>56.9</ele>
        <time>2024-03-27T13:18:54Z</time>
      </trkpt>
      <trkpt lat="50.04803" lon="2.13142">
        <ele>57</ele>
        <time>2024-03-27T13:18:55Z</time>
      </trkpt>
      <trkpt lat="50.04803" lon="2.13141">
        <ele>57</ele>
        <time>2024-03-27T13:18:56Z</time>
      </trkpt>
      <trkpt lat="50.04803" lon="2.13139">
        <ele>57</ele>
        <time>2024-03-27T13:18:57Z</time>
      </trkpt>
      <trkpt lat="50.04802" lon="2.13138">
        <ele>57.1</ele>
        <time>2024-03-27T13:18:58Z</time>
      </trkpt>
      <trkpt lat="50.04802" lon="2.13136">
        <ele>57.1</ele>
        <time>2024-03-27T13:18:59Z</time>
      </trkpt>
      <trkpt lat="50.04803" lon="2.13135">
        <ele>57.2</ele>
        <time>2024-03-27T13:19:00Z</time>
      </trkpt>
      <trkpt lat="50.04803" lon="2.13134">
        <ele>57.2</ele>
        <time>2024-03-27T13:19:01Z</time>
      </trkpt>
      <trkpt lat="50.04803" lon="2.13134">
        <ele>57.2</ele>
        <time>2024-03-27T13:19:02Z</time>
      </trkpt>
      <trkpt lat="50.04803" lon="2.13133">
        <ele>57.2</ele>
        <time>2024-03-27T13:19:03Z</time>
      </trkpt>
      <trkpt lat="50.04803" lon="2.13132">
        <ele>57.3</ele>
        <time>2024-03-27T13:19:04Z</time>
      </trkpt>
      <trkpt lat="50.04803" lon="2.13131">
        <ele>57.3</ele>
        <time>2024-03-27T13:19:05Z</time>
      </trkpt>
      <trkpt lat="50.04803" lon="2.13129">
        <ele>57.3</ele>
        <time>2024-03-27T13:19:06Z</time>
      </trkpt>
      <trkpt lat="50.04803" lon="2.13128">
        <ele>57.4</ele>
        <time>2024-03-27T13:19:07Z</time>
      </trkpt>
      <trkpt lat="50.04804" lon="2.13127">
        <ele>57.4</ele>
        <time>2024-03-27T13:19:08Z</time>
      </trkpt>
      <trkpt lat="50.04804" lon="2.13126">
        <ele>57.4</ele>
        <time>2024-03-27T13:19:09Z</time>
      </trkpt>
      <trkpt lat="50.04805" lon="2.13125">
        <ele>57.5</ele>
        <time>2024-03-27T13:19:10Z</time>
      </trkpt>
      <trkpt lat="50.04805" lon="2.13123">
        <ele>57.5</ele>
        <time>2024-03-27T13:19:11Z</time>
      </trkpt>
      <trkpt lat="50.04806" lon="2.13123">
        <ele>57.5</ele>
        <time>2024-03-27T13:19:12Z</time>
      </trkpt>
      <trkpt lat="50.04806" lon="2.13122">
        <ele>57.6</ele>
        <time>2024-03-27T13:19:13Z</time>
      </trkpt>
      <trkpt lat="50.04807" lon="2.13121">
        <ele>57.6</ele>
        <time>2024-03-27T13:19:14Z</time>
      </trkpt>
      <trkpt lat="50.04807" lon="2.13119">
        <ele>57.7</ele>
        <time>2024-03-27T13:19:15Z</time>
      </trkpt>
      <trkpt lat="50.04808" lon="2.13118">
        <ele>57.7</ele>
        <time>2024-03-27T13:19:16Z</time>
      </trkpt>
      <trkpt lat="50.04808" lon="2.13117">
        <ele>57.7</ele>
        <time>2024-03-27T13:19:17Z</time>
      </trkpt>
      <trkpt lat="50.04809" lon="2.13116">
        <ele>57.8</ele>
        <time>2024-03-27T13:19:18Z</time>
      </trkpt>
      <trkpt lat="50.04809" lon="2.13115">
        <ele>57.8</ele>
        <time>2024-03-27T13:19:19Z</time>
      </trkpt>
      <trkpt lat="50.0481" lon="2.13114">
        <ele>57.8</ele>
        <time>2024-03-27T13:19:20Z</time>
      </trkpt>
      <trkpt lat="50.0481" lon="2.13112">
        <ele>57.9</ele>
        <time>2024-03-27T13:19:21Z</time>
      </trkpt>
      <trkpt lat="50.04811" lon="2.13111">
        <ele>57.9</ele>
        <time>2024-03-27T13:19:22Z</time>
      </trkpt>
      <trkpt lat="50.04811" lon="2.1311">
        <ele>58</ele>
        <time>2024-03-27T13:19:23Z</time>
      </trkpt>
      <trkpt lat="50.04811" lon="2.13108">
        <ele>58</ele>
        <time>2024-03-27T13:19:24Z</time>
      </trkpt>
      <trkpt lat="50.04812" lon="2.13107">
        <ele>58</ele>
        <time>2024-03-27T13:19:25Z</time>
      </trkpt>
      <trkpt lat="50.04812" lon="2.13106">
        <ele>58.1</ele>
        <time>2024-03-27T13:19:26Z</time>
      </trkpt>
      <trkpt lat="50.04812" lon="2.13104">
        <ele>58.1</ele>
        <time>2024-03-27T13:19:27Z</time>
      </trkpt>
      <trkpt lat="50.04813" lon="2.13102">
        <ele>58.2</ele>
        <time>2024-03-27T13:19:28Z</time>
      </trkpt>
      <trkpt lat="50.04813" lon="2.13101">
        <ele>58.2</ele>
        <time>2024-03-27T13:19:29Z</time>
      </trkpt>
      <trkpt lat="50.04813" lon="2.13098">
        <ele>58.3</ele>
        <time>2024-03-27T13:19:30Z</time>
      </trkpt>
      <trkpt lat="50.04813" lon="2.13095">
        <ele>58.4</ele>
        <time>2024-03-27T13:19:31Z</time>
      </trkpt>
      <trkpt lat="50.04813" lon="2.13094">
        <ele>58.4</ele>
        <time>2024-03-27T13:19:32Z</time>
      </trkpt>
      <trkpt lat="50.04813" lon="2.13093">
        <ele>58.4</ele>
        <time>2024-03-27T13:19:33Z</time>
      </trkpt>
      <trkpt lat="50.04813" lon="2.1309">
        <ele>58.5</ele>
        <time>2024-03-27T13:19:34Z</time>
      </trkpt>
      <trkpt lat="50.04813" lon="2.13088">
        <ele>58.6</ele>
        <time>2024-03-27T13:19:35Z</time>
      </trkpt>
      <trkpt lat="50.04812" lon="2.13086">
        <ele>58.6</ele>
        <time>2024-03-27T13:19:36Z</time>
      </trkpt>
      <trkpt lat="50.04813" lon="2.13084">
        <ele>58.7</ele>
        <time>2024-03-27T13:19:37Z</time>
      </trkpt>
      <trkpt lat="50.04812" lon="2.13081">
        <ele>58.8</ele>
        <time>2024-03-27T13:19:38Z</time>
      </trkpt>
      <trkpt lat="50.04812" lon="2.13079">
        <ele>58.8</ele>
        <time>2024-03-27T13:19:39Z</time>
      </trkpt>
      <trkpt lat="50.04812" lon="2.13077">
        <ele>58.9</ele>
        <time>2024-03-27T13:19:40Z</time>
      </trkpt>
      <trkpt lat="50.04812" lon="2.13074">
        <ele>58.9</ele>
        <time>2024-03-27T13:19:41Z</time>
      </trkpt>
      <trkpt lat="50.04812" lon="2.13071">
        <ele>59</ele>
        <time>2024-03-27T13:19:42Z</time>
      </trkpt>
      <trkpt lat="50.04812" lon="2.1307">
        <ele>59.1</ele>
        <time>2024-03-27T13:19:43Z</time>
      </trkpt>
      <trkpt lat="50.04812" lon="2.13069">
        <ele>59.1</ele>
        <time>2024-03-27T13:19:44Z</time>
      </trkpt>
      <trkpt lat="50.04811" lon="2.13066">
        <ele>59.2</ele>
        <time>2024-03-27T13:19:45Z</time>
      </trkpt>
      <trkpt lat="50.04811" lon="2.13064">
        <ele>59.2</ele>
        <time>2024-03-27T13:19:46Z</time>
      </trkpt>
      <trkpt lat="50.04811" lon="2.13061">
        <ele>59.3</ele>
        <time>2024-03-27T13:19:47Z</time>
      </trkpt>
      <trkpt lat="50.0481" lon="2.1306">
        <ele>59.3</ele>
        <time>2024-03-27T13:19:48Z</time>
      </trkpt>
      <trkpt lat="50.0481" lon="2.13058">
        <ele>59.4</ele>
        <time>2024-03-27T13:19:49Z</time>
      </trkpt>
      <trkpt lat="50.0481" lon="2.13056">
        <ele>59.4</ele>
        <time>2024-03-27T13:19:50Z</time>
      </trkpt>
      <trkpt lat="50.0481" lon="2.13055">
        <ele>59.5</ele>
        <time>2024-03-27T13:19:51Z</time>
      </trkpt>
      <trkpt lat="50.0481" lon="2.13053">
        <ele>59.5</ele>
        <time>2024-03-27T13:19:52Z</time>
      </trkpt>
      <trkpt lat="50.0481" lon="2.13051">
        <ele>59.6</ele>
        <time>2024-03-27T13:19:53Z</time>
      </trkpt>
      <trkpt lat="50.0481" lon="2.1305">
        <ele>59.6</ele>
        <time>2024-03-27T13:19:54Z</time>
      </trkpt>
      <trkpt lat="50.0481" lon="2.13048">
        <ele>59.7</ele>
        <time>2024-03-27T13:19:55Z</time>
      </trkpt>
      <trkpt lat="50.0481" lon="2.13046">
        <ele>59.7</ele>
        <time>2024-03-27T13:19:56Z</time>
      </trkpt>
      <trkpt lat="50.0481" lon="2.13044">
        <ele>59.8</ele>
        <time>2024-03-27T13:19:57Z</time>
      </trkpt>
      <trkpt lat="50.0481" lon="2.13042">
        <ele>59.8</ele>
        <time>2024-03-27T13:19:58Z</time>
      </trkpt>
      <trkpt lat="50.0481" lon="2.13041">
        <ele>59.8</ele>
        <time>2024-03-27T13:19:59Z</time>
      </trkpt>
      <trkpt lat="50.04809" lon="2.13039">
        <ele>59.9</ele>
        <time>2024-03-27T13:20:01Z</time>
      </trkpt>
      <trkpt lat="50.04809" lon="2.13037">
        <ele>59.9</ele>
        <time>2024-03-27T13:20:02Z</time>
      </trkpt>
      <trkpt lat="50.04809" lon="2.13035">
        <ele>60</ele>
        <time>2024-03-27T13:20:03Z</time>
      </trkpt>
      <trkpt lat="50.04809" lon="2.13034">
        <ele>60</ele>
        <time>2024-03-27T13:20:04Z</time>
      </trkpt>
      <trkpt lat="50.04809" lon="2.13033">
        <ele>60.1</ele>
        <time>2024-03-27T13:20:05Z</time>
      </trkpt>
      <trkpt lat="50.04809" lon="2.13031">
        <ele>60.1</ele>
        <time>2024-03-27T13:20:06Z</time>
      </trkpt>
      <trkpt lat="50.04809" lon="2.1303">
        <ele>60.1</ele>
        <time>2024-03-27T13:20:07Z</time>
      </trkpt>
      <trkpt lat="50.0481" lon="2.13028">
        <ele>60.2</ele>
        <time>2024-03-27T13:20:08Z</time>
      </trkpt>
      <trkpt lat="50.0481" lon="2.13027">
        <ele>60.2</ele>
        <time>2024-03-27T13:20:09Z</time>
      </trkpt>
      <trkpt lat="50.0481" lon="2.13025">
        <ele>60.2</ele>
        <time>2024-03-27T13:20:10Z</time>
      </trkpt>
      <trkpt lat="50.0481" lon="2.13023">
        <ele>60.3</ele>
        <time>2024-03-27T13:20:11Z</time>
      </trkpt>
      <trkpt lat="50.0481" lon="2.13022">
        <ele>60.3</ele>
        <time>2024-03-27T13:20:12Z</time>
      </trkpt>
      <trkpt lat="50.0481" lon="2.1302">
        <ele>60.4</ele>
        <time>2024-03-27T13:20:13Z</time>
      </trkpt>
      <trkpt lat="50.0481" lon="2.13019">
        <ele>60.4</ele>
        <time>2024-03-27T13:20:14Z</time>
      </trkpt>
      <trkpt lat="50.0481" lon="2.13017">
        <ele>60.4</ele>
        <time>2024-03-27T13:20:15Z</time>
      </trkpt>
      <trkpt lat="50.0481" lon="2.13016">
        <ele>60.5</ele>
        <time>2024-03-27T13:20:16Z</time>
      </trkpt>
      <trkpt lat="50.0481" lon="2.13014">
        <ele>60.5</ele>
        <time>2024-03-27T13:20:17Z</time>
      </trkpt>
      <trkpt lat="50.0481" lon="2.13012">
        <ele>60.5</ele>
        <time>2024-03-27T13:20:18Z</time>
      </trkpt>
      <trkpt lat="50.0481" lon="2.13011">
        <ele>60.6</ele>
        <time>2024-03-27T13:20:19Z</time>
      </trkpt>
      <trkpt lat="50.0481" lon="2.13009">
        <ele>60.6</ele>
        <time>2024-03-27T13:20:20Z</time>
      </trkpt>
      <trkpt lat="50.0481" lon="2.13007">
        <ele>60.7</ele>
        <time>2024-03-27T13:20:21Z</time>
      </trkpt>
      <trkpt lat="50.0481" lon="2.13005">
        <ele>60.7</ele>
        <time>2024-03-27T13:20:22Z</time>
      </trkpt>
      <trkpt lat="50.04809" lon="2.13003">
        <ele>60.7</ele>
        <time>2024-03-27T13:20:23Z</time>
      </trkpt>
      <trkpt lat="50.04809" lon="2.13002">
        <ele>60.8</ele>
        <time>2024-03-27T13:20:24Z</time>
      </trkpt>
      <trkpt lat="50.04809" lon="2.13">
        <ele>60.8</ele>
        <time>2024-03-27T13:20:25Z</time>
      </trkpt>
      <trkpt lat="50.04809" lon="2.12998">
        <ele>60.9</ele>
        <time>2024-03-27T13:20:26Z</time>
      </trkpt>
      <trkpt lat="50.04809" lon="2.12996">
        <ele>60.9</ele>
        <time>2024-03-27T13:20:27Z</time>
      </trkpt>
      <trkpt lat="50.04809" lon="2.12994">
        <ele>60.9</ele>
        <time>2024-03-27T13:20:28Z</time>
      </trkpt>
      <trkpt lat="50.04809" lon="2.12993">
        <ele>61</ele>
        <time>2024-03-27T13:20:29Z</time>
      </trkpt>
      <trkpt lat="50.04809" lon="2.12991">
        <ele>61</ele>
        <time>2024-03-27T13:20:30Z</time>
      </trkpt>
      <trkpt lat="50.04809" lon="2.1299">
        <ele>61</ele>
        <time>2024-03-27T13:20:31Z</time>
      </trkpt>
      <trkpt lat="50.04809" lon="2.12988">
        <ele>61.1</ele>
        <time>2024-03-27T13:20:32Z</time>
      </trkpt>
      <trkpt lat="50.04809" lon="2.12986">
        <ele>61.1</ele>
        <time>2024-03-27T13:20:33Z</time>
      </trkpt>
      <trkpt lat="50.04809" lon="2.12985">
        <ele>61.1</ele>
        <time>2024-03-27T13:20:34Z</time>
      </trkpt>
      <trkpt lat="50.04809" lon="2.12983">
        <ele>61.2</ele>
        <time>2024-03-27T13:20:35Z</time>
      </trkpt>
      <trkpt lat="50.04809" lon="2.12982">
        <ele>61.2</ele>
        <time>2024-03-27T13:20:36Z</time>
      </trkpt>
      <trkpt lat="50.04808" lon="2.12981">
        <ele>61.2</ele>
        <time>2024-03-27T13:20:37Z</time>
      </trkpt>
      <trkpt lat="50.04808" lon="2.1298">
        <ele>61.2</ele>
        <time>2024-03-27T13:20:38Z</time>
      </trkpt>
      <trkpt lat="50.04808" lon="2.12978">
        <ele>61.3</ele>
        <time>2024-03-27T13:20:39Z</time>
      </trkpt>
      <trkpt lat="50.04809" lon="2.12977">
        <ele>61.3</ele>
        <time>2024-03-27T13:20:40Z</time>
      </trkpt>
      <trkpt lat="50.04809" lon="2.12975">
        <ele>61.3</ele>
        <time>2024-03-27T13:20:41Z</time>
      </trkpt>
      <trkpt lat="50.04809" lon="2.12974">
        <ele>61.4</ele>
        <time>2024-03-27T13:20:42Z</time>
      </trkpt>
      <trkpt lat="50.04809" lon="2.12972">
        <ele>61.4</ele>
        <time>2024-03-27T13:20:43Z</time>
      </trkpt>
      <trkpt lat="50.04809" lon="2.12971">
        <ele>61.4</ele>
        <time>2024-03-27T13:20:44Z</time>
      </trkpt>
      <trkpt lat="50.0481" lon="2.1297">
        <ele>61.4</ele>
        <time>2024-03-27T13:20:45Z</time>
      </trkpt>
      <trkpt lat="50.0481" lon="2.12968">
        <ele>61.5</ele>
        <time>2024-03-27T13:20:46Z</time>
      </trkpt>
      <trkpt lat="50.0481" lon="2.12967">
        <ele>61.5</ele>
        <time>2024-03-27T13:20:47Z</time>
      </trkpt>
      <trkpt lat="50.0481" lon="2.12965">
        <ele>61.5</ele>
        <time>2024-03-27T13:20:48Z</time>
      </trkpt>
      <trkpt lat="50.0481" lon="2.12964">
        <ele>61.6</ele>
        <time>2024-03-27T13:20:49Z</time>
      </trkpt>
      <trkpt lat="50.04811" lon="2.12962">
        <ele>61.6</ele>
        <time>2024-03-27T13:20:50Z</time>
      </trkpt>
      <trkpt lat="50.04811" lon="2.12961">
        <ele>61.6</ele>
        <time>2024-03-27T13:20:51Z</time>
      </trkpt>
      <trkpt lat="50.04812" lon="2.12959">
        <ele>61.7</ele>
        <time>2024-03-27T13:20:52Z</time>
      </trkpt>
      <trkpt lat="50.04812" lon="2.12958">
        <ele>61.7</ele>
        <time>2024-03-27T13:20:53Z</time>
      </trkpt>
      <trkpt lat="50.04812" lon="2.12956">
        <ele>61.7</ele>
        <time>2024-03-27T13:20:54Z</time>
      </trkpt>
      <trkpt lat="50.04812" lon="2.12954">
        <ele>61.7</ele>
        <time>2024-03-27T13:20:55Z</time>
      </trkpt>
      <trkpt lat="50.04812" lon="2.12952">
        <ele>61.8</ele>
        <time>2024-03-27T13:20:56Z</time>
      </trkpt>
      <trkpt lat="50.04812" lon="2.12951">
        <ele>61.8</ele>
        <time>2024-03-27T13:20:57Z</time>
      </trkpt>
      <trkpt lat="50.04813" lon="2.12949">
        <ele>61.8</ele>
        <time>2024-03-27T13:20:58Z</time>
      </trkpt>
      <trkpt lat="50.04813" lon="2.12947">
        <ele>61.9</ele>
        <time>2024-03-27T13:20:59Z</time>
      </trkpt>
      <trkpt lat="50.04813" lon="2.12946">
        <ele>61.9</ele>
        <time>2024-03-27T13:21:00Z</time>
      </trkpt>
      <trkpt lat="50.04813" lon="2.12944">
        <ele>61.9</ele>
        <time>2024-03-27T13:21:01Z</time>
      </trkpt>
      <trkpt lat="50.04813" lon="2.12942">
        <ele>62</ele>
        <time>2024-03-27T13:21:02Z</time>
      </trkpt>
      <trkpt lat="50.04813" lon="2.12941">
        <ele>62</ele>
        <time>2024-03-27T13:21:03Z</time>
      </trkpt>
      <trkpt lat="50.04814" lon="2.12939">
        <ele>62</ele>
        <time>2024-03-27T13:21:04Z</time>
      </trkpt>
      <trkpt lat="50.04814" lon="2.12937">
        <ele>62.1</ele>
        <time>2024-03-27T13:21:05Z</time>
      </trkpt>
      <trkpt lat="50.04814" lon="2.12936">
        <ele>62.1</ele>
        <time>2024-03-27T13:21:06Z</time>
      </trkpt>
      <trkpt lat="50.04814" lon="2.12934">
        <ele>62.1</ele>
        <time>2024-03-27T13:21:07Z</time>
      </trkpt>
      <trkpt lat="50.04814" lon="2.12932">
        <ele>62.1</ele>
        <time>2024-03-27T13:21:08Z</time>
      </trkpt>
      <trkpt lat="50.04814" lon="2.12931">
        <ele>62.2</ele>
        <time>2024-03-27T13:21:09Z</time>
      </trkpt>
      <trkpt lat="50.04814" lon="2.12929">
        <ele>62.2</ele>
        <time>2024-03-27T13:21:10Z</time>
      </trkpt>
      <trkpt lat="50.04814" lon="2.12927">
        <ele>62.2</ele>
        <time>2024-03-27T13:21:11Z</time>
      </trkpt>
      <trkpt lat="50.04814" lon="2.12926">
        <ele>62.2</ele>
        <time>2024-03-27T13:21:12Z</time>
      </trkpt>
      <trkpt lat="50.04814" lon="2.12924">
        <ele>62.3</ele>
        <time>2024-03-27T13:21:13Z</time>
      </trkpt>
      <trkpt lat="50.04814" lon="2.12923">
        <ele>62.3</ele>
        <time>2024-03-27T13:21:14Z</time>
      </trkpt>
      <trkpt lat="50.04814" lon="2.12921">
        <ele>62.3</ele>
        <time>2024-03-27T13:21:15Z</time>
      </trkpt>
      <trkpt lat="50.04814" lon="2.1292">
        <ele>62.3</ele>
        <time>2024-03-27T13:21:16Z</time>
      </trkpt>
      <trkpt lat="50.04815" lon="2.12918">
        <ele>62.4</ele>
        <time>2024-03-27T13:21:17Z</time>
      </trkpt>
      <trkpt lat="50.04815" lon="2.12917">
        <ele>62.4</ele>
        <time>2024-03-27T13:21:18Z</time>
      </trkpt>
      <trkpt lat="50.04815" lon="2.12915">
        <ele>62.4</ele>
        <time>2024-03-27T13:21:19Z</time>
      </trkpt>
      <trkpt lat="50.04815" lon="2.12913">
        <ele>62.4</ele>
        <time>2024-03-27T13:21:20Z</time>
      </trkpt>
      <trkpt lat="50.04814" lon="2.12912">
        <ele>62.4</ele>
        <time>2024-03-27T13:21:21Z</time>
      </trkpt>
      <trkpt lat="50.04814" lon="2.12911">
        <ele>62.4</ele>
        <time>2024-03-27T13:21:22Z</time>
      </trkpt>
      <trkpt lat="50.04814" lon="2.1291">
        <ele>62.4</ele>
        <time>2024-03-27T13:21:23Z</time>
      </trkpt>
      <trkpt lat="50.04814" lon="2.12908">
        <ele>62.4</ele>
        <time>2024-03-27T13:21:24Z</time>
      </trkpt>
      <trkpt lat="50.04814" lon="2.12907">
        <ele>62.4</ele>
        <time>2024-03-27T13:21:25Z</time>
      </trkpt>
      <trkpt lat="50.04814" lon="2.12905">
        <ele>62.4</ele>
        <time>2024-03-27T13:21:26Z</time>
      </trkpt>
      <trkpt lat="50.04814" lon="2.12904">
        <ele>62.3</ele>
        <time>2024-03-27T13:21:27Z</time>
      </trkpt>
      <trkpt lat="50.04813" lon="2.12903">
        <ele>62.3</ele>
        <time>2024-03-27T13:21:28Z</time>
      </trkpt>
      <trkpt lat="50.04813" lon="2.12902">
        <ele>62.3</ele>
        <time>2024-03-27T13:21:29Z</time>
      </trkpt>
      <trkpt lat="50.04813" lon="2.129">
        <ele>62.3</ele>
        <time>2024-03-27T13:21:30Z</time>
      </trkpt>
      <trkpt lat="50.04813" lon="2.12899">
        <ele>62.3</ele>
        <time>2024-03-27T13:21:31Z</time>
      </trkpt>
      <trkpt lat="50.04813" lon="2.12897">
        <ele>62.3</ele>
        <time>2024-03-27T13:21:32Z</time>
      </trkpt>
      <trkpt lat="50.04813" lon="2.12896">
        <ele>62.3</ele>
        <time>2024-03-27T13:21:33Z</time>
      </trkpt>
      <trkpt lat="50.04813" lon="2.12895">
        <ele>62.3</ele>
        <time>2024-03-27T13:21:34Z</time>
      </trkpt>
      <trkpt lat="50.04812" lon="2.12893">
        <ele>62.3</ele>
        <time>2024-03-27T13:21:35Z</time>
      </trkpt>
      <trkpt lat="50.04812" lon="2.12892">
        <ele>62.3</ele>
        <time>2024-03-27T13:21:36Z</time>
      </trkpt>
      <trkpt lat="50.04812" lon="2.12891">
        <ele>62.3</ele>
        <time>2024-03-27T13:21:37Z</time>
      </trkpt>
      <trkpt lat="50.04812" lon="2.1289">
        <ele>62.3</ele>
        <time>2024-03-27T13:21:38Z</time>
      </trkpt>
      <trkpt lat="50.04812" lon="2.12889">
        <ele>62.3</ele>
        <time>2024-03-27T13:21:39Z</time>
      </trkpt>
      <trkpt lat="50.04812" lon="2.12888">
        <ele>62.3</ele>
        <time>2024-03-27T13:21:40Z</time>
      </trkpt>
      <trkpt lat="50.04813" lon="2.12886">
        <ele>62.3</ele>
        <time>2024-03-27T13:21:41Z</time>
      </trkpt>
      <trkpt lat="50.04813" lon="2.12886">
        <ele>62.3</ele>
        <time>2024-03-27T13:21:42Z</time>
      </trkpt>
      <trkpt lat="50.04814" lon="2.12886">
        <ele>62.3</ele>
        <time>2024-03-27T13:21:43Z</time>
      </trkpt>
      <trkpt lat="50.04815" lon="2.12886">
        <ele>62.3</ele>
        <time>2024-03-27T13:21:44Z</time>
      </trkpt>
      <trkpt lat="50.04816" lon="2.12887">
        <ele>62.3</ele>
        <time>2024-03-27T13:21:45Z</time>
      </trkpt>
      <trkpt lat="50.04816" lon="2.12888">
        <ele>62.3</ele>
        <time>2024-03-27T13:21:46Z</time>
      </trkpt>
      <trkpt lat="50.04816" lon="2.12889">
        <ele>62.3</ele>
        <time>2024-03-27T13:21:47Z</time>
      </trkpt>
      <trkpt lat="50.04816" lon="2.12889">
        <ele>62.3</ele>
        <time>2024-03-27T13:21:48Z</time>
      </trkpt>
      <trkpt lat="50.04816" lon="2.12889">
        <ele>62.3</ele>
        <time>2024-03-27T13:21:49Z</time>
      </trkpt>
      <trkpt lat="50.04816" lon="2.12889">
        <ele>62.3</ele>
        <time>2024-03-27T13:21:50Z</time>
      </trkpt>
      <trkpt lat="50.04816" lon="2.12889">
        <ele>62.3</ele>
        <time>2024-03-27T13:21:51Z</time>
      </trkpt>
      <trkpt lat="50.04816" lon="2.1289">
        <ele>62.3</ele>
        <time>2024-03-27T13:21:52Z</time>
      </trkpt>
      <trkpt lat="50.04816" lon="2.1289">
        <ele>62.3</ele>
        <time>2024-03-27T13:21:53Z</time>
      </trkpt>
      <trkpt lat="50.04816" lon="2.1289">
        <ele>62.3</ele>
        <time>2024-03-27T13:21:54Z</time>
      </trkpt>
      <trkpt lat="50.04816" lon="2.1289">
        <ele>62.3</ele>
        <time>2024-03-27T13:21:55Z</time>
      </trkpt>
      <trkpt lat="50.04816" lon="2.1289">
        <ele>62.3</ele>
        <time>2024-03-27T13:21:56Z</time>
      </trkpt>
      <trkpt lat="50.04816" lon="2.1289">
        <ele>62.3</ele>
        <time>2024-03-27T13:21:57Z</time>
      </trkpt>
      <trkpt lat="50.04816" lon="2.12891">
        <ele>62.3</ele>
        <time>2024-03-27T13:21:58Z</time>
      </trkpt>
      <trkpt lat="50.04816" lon="2.12891">
        <ele>62.3</ele>
        <time>2024-03-27T13:21:59Z</time>
      </trkpt>
      <trkpt lat="50.04816" lon="2.12891">
        <ele>62.3</ele>
        <time>2024-03-27T13:22:00Z</time>
      </trkpt>
      <trkpt lat="50.04816" lon="2.12891">
        <ele>62.3</ele>
        <time>2024-03-27T13:22:01Z</time>
      </trkpt>
      <trkpt lat="50.04816" lon="2.12891">
        <ele>62.3</ele>
        <time>2024-03-27T13:22:02Z</time>
      </trkpt>
      <trkpt lat="50.04816" lon="2.12892">
        <ele>62.3</ele>
        <time>2024-03-27T13:22:03Z</time>
      </trkpt>
      <trkpt lat="50.04816" lon="2.12892">
        <ele>62.3</ele>
        <time>2024-03-27T13:22:04Z</time>
      </trkpt>
      <trkpt lat="50.04816" lon="2.12892">
        <ele>62.3</ele>
        <time>2024-03-27T13:22:05Z</time>
      </trkpt>
      <trkpt lat="50.04816" lon="2.12892">
        <ele>62.3</ele>
        <time>2024-03-27T13:22:06Z</time>
      </trkpt>
      <trkpt lat="50.04816" lon="2.12892">
        <ele>62.3</ele>
        <time>2024-03-27T13:22:07Z</time>
      </trkpt>
      <trkpt lat="50.04816" lon="2.12892">
        <ele>62.3</ele>
        <time>2024-03-27T13:22:08Z</time>
      </trkpt>
      <trkpt lat="50.04816" lon="2.12892">
        <ele>62.3</ele>
        <time>2024-03-27T13:22:09Z</time>
      </trkpt>
      <trkpt lat="50.04816" lon="2.12892">
        <ele>62.3</ele>
        <time>2024-03-27T13:22:10Z</time>
      </trkpt>
      <trkpt lat="50.04816" lon="2.12892">
        <ele>62.3</ele>
        <time>2024-03-27T13:22:11Z</time>
      </trkpt>
      <trkpt lat="50.04816" lon="2.12892">
        <ele>62.3</ele>
        <time>2024-03-27T13:22:12Z</time>
      </trkpt>
      <trkpt lat="50.04816" lon="2.12892">
        <ele>62.3</ele>
        <time>2024-03-27T13:22:13Z</time>
      </trkpt>
      <trkpt lat="50.04816" lon="2.12892">
        <ele>62.3</ele>
        <time>2024-03-27T13:22:14Z</time>
      </trkpt>
      <trkpt lat="50.04816" lon="2.12892">
        <ele>62.3</ele>
        <time>2024-03-27T13:22:15Z</time>
      </trkpt>
      <trkpt lat="50.04816" lon="2.12892">
        <ele>62.3</ele>
        <time>2024-03-27T13:22:16Z</time>
      </trkpt>
      <trkpt lat="50.04816" lon="2.12892">
        <ele>62.3</ele>
        <time>2024-03-27T13:22:17Z</time>
      </trkpt>
      <trkpt lat="50.04816" lon="2.12892">
        <ele>62.3</ele>
        <time>2024-03-27T13:22:18Z</time>
      </trkpt>
      <trkpt lat="50.04816" lon="2.12892">
        <ele>62.3</ele>
        <time>2024-03-27T13:22:19Z</time>
      </trkpt>
      <trkpt lat="50.04816" lon="2.12892">
        <ele>62.3</ele>
        <time>2024-03-27T13:22:20Z</time>
      </trkpt>
      <trkpt lat="50.04816" lon="2.12892">
        <ele>62.3</ele>
        <time>2024-03-27T13:22:21Z</time>
      </trkpt>
      <trkpt lat="50.04816" lon="2.12892">
        <ele>62.3</ele>
        <time>2024-03-27T13:22:22Z</time>
      </trkpt>
      <trkpt lat="50.04816" lon="2.12892">
        <ele>62.3</ele>
        <time>2024-03-27T13:22:23Z</time>
      </trkpt>
      <trkpt lat="50.04816" lon="2.12892">
        <ele>62.3</ele>
        <time>2024-03-27T13:22:24Z</time>
      </trkpt>
      <trkpt lat="50.04814" lon="2.12893">
        <ele>62.3</ele>
        <time>2024-03-27T13:22:25Z</time>
      </trkpt>
      <trkpt lat="50.04814" lon="2.12894">
        <ele>62.3</ele>
        <time>2024-03-27T13:22:26Z</time>
      </trkpt>
      <trkpt lat="50.04814" lon="2.12895">
        <ele>62.3</ele>
        <time>2024-03-27T13:22:27Z</time>
      </trkpt>
      <trkpt lat="50.04814" lon="2.12896">
        <ele>62.3</ele>
        <time>2024-03-27T13:22:28Z</time>
      </trkpt>
      <trkpt lat="50.04814" lon="2.12897">
        <ele>62.3</ele>
        <time>2024-03-27T13:22:29Z</time>
      </trkpt>
      <trkpt lat="50.04814" lon="2.12898">
        <ele>62.2</ele>
        <time>2024-03-27T13:22:30Z</time>
      </trkpt>
      <trkpt lat="50.04813" lon="2.12899">
        <ele>62.2</ele>
        <time>2024-03-27T13:22:31Z</time>
      </trkpt>
      <trkpt lat="50.04813" lon="2.12899">
        <ele>62.2</ele>
        <time>2024-03-27T13:22:32Z</time>
      </trkpt>
      <trkpt lat="50.04812" lon="2.129">
        <ele>62.2</ele>
        <time>2024-03-27T13:22:33Z</time>
      </trkpt>
      <trkpt lat="50.04812" lon="2.129">
        <ele>62.2</ele>
        <time>2024-03-27T13:22:34Z</time>
      </trkpt>
      <trkpt lat="50.04811" lon="2.12901">
        <ele>62.2</ele>
        <time>2024-03-27T13:22:35Z</time>
      </trkpt>
      <trkpt lat="50.0481" lon="2.12901">
        <ele>62.2</ele>
        <time>2024-03-27T13:22:36Z</time>
      </trkpt>
      <trkpt lat="50.0481" lon="2.12902">
        <ele>62.2</ele>
        <time>2024-03-27T13:22:37Z</time>
      </trkpt>
      <trkpt lat="50.04809" lon="2.12903">
        <ele>62.2</ele>
        <time>2024-03-27T13:22:38Z</time>
      </trkpt>
      <trkpt lat="50.04808" lon="2.12903">
        <ele>62.2</ele>
        <time>2024-03-27T13:22:39Z</time>
      </trkpt>
      <trkpt lat="50.04807" lon="2.12904">
        <ele>62.2</ele>
        <time>2024-03-27T13:22:40Z</time>
      </trkpt>
      <trkpt lat="50.04807" lon="2.12904">
        <ele>62.2</ele>
        <time>2024-03-27T13:22:41Z</time>
      </trkpt>
      <trkpt lat="50.04806" lon="2.12904">
        <ele>62.2</ele>
        <time>2024-03-27T13:22:42Z</time>
      </trkpt>
      <trkpt lat="50.04806" lon="2.12904">
        <ele>62.2</ele>
        <time>2024-03-27T13:22:43Z</time>
      </trkpt>
      <trkpt lat="50.04805" lon="2.12903">
        <ele>62.2</ele>
        <time>2024-03-27T13:22:44Z</time>
      </trkpt>
      <trkpt lat="50.04805" lon="2.12902">
        <ele>62.2</ele>
        <time>2024-03-27T13:22:45Z</time>
      </trkpt>
      <trkpt lat="50.04804" lon="2.12901">
        <ele>62.2</ele>
        <time>2024-03-27T13:22:46Z</time>
      </trkpt>
      <trkpt lat="50.04804" lon="2.129">
        <ele>62.2</ele>
        <time>2024-03-27T13:22:47Z</time>
      </trkpt>
      <trkpt lat="50.04804" lon="2.12898">
        <ele>62.2</ele>
        <time>2024-03-27T13:22:48Z</time>
      </trkpt>
      <trkpt lat="50.04803" lon="2.12896">
        <ele>62.2</ele>
        <time>2024-03-27T13:22:49Z</time>
      </trkpt>
      <trkpt lat="50.04803" lon="2.12894">
        <ele>62.2</ele>
        <time>2024-03-27T13:22:50Z</time>
      </trkpt>
      <trkpt lat="50.04802" lon="2.12891">
        <ele>62.2</ele>
        <time>2024-03-27T13:22:51Z</time>
      </trkpt>
      <trkpt lat="50.04802" lon="2.1289">
        <ele>62.2</ele>
        <time>2024-03-27T13:22:52Z</time>
      </trkpt>
      <trkpt lat="50.04802" lon="2.12888">
        <ele>62.3</ele>
        <time>2024-03-27T13:22:53Z</time>
      </trkpt>
      <trkpt lat="50.04801" lon="2.12887">
        <ele>62.3</ele>
        <time>2024-03-27T13:22:54Z</time>
      </trkpt>
      <trkpt lat="50.04801" lon="2.12885">
        <ele>62.3</ele>
        <time>2024-03-27T13:22:55Z</time>
      </trkpt>
      <trkpt lat="50.04801" lon="2.12884">
        <ele>62.3</ele>
        <time>2024-03-27T13:22:56Z</time>
      </trkpt>
      <trkpt lat="50.04801" lon="2.12882">
        <ele>62.3</ele>
        <time>2024-03-27T13:22:57Z</time>
      </trkpt>
      <trkpt lat="50.04801" lon="2.12881">
        <ele>62.3</ele>
        <time>2024-03-27T13:22:58Z</time>
      </trkpt>
      <trkpt lat="50.048" lon="2.12879">
        <ele>62.3</ele>
        <time>2024-03-27T13:22:59Z</time>
      </trkpt>
      <trkpt lat="50.048" lon="2.12878">
        <ele>62.4</ele>
        <time>2024-03-27T13:23:00Z</time>
      </trkpt>
      <trkpt lat="50.048" lon="2.12876">
        <ele>62.4</ele>
        <time>2024-03-27T13:23:01Z</time>
      </trkpt>
      <trkpt lat="50.048" lon="2.12874">
        <ele>62.4</ele>
        <time>2024-03-27T13:23:02Z</time>
      </trkpt>
      <trkpt lat="50.04799" lon="2.12873">
        <ele>62.4</ele>
        <time>2024-03-27T13:23:03Z</time>
      </trkpt>
      <trkpt lat="50.04799" lon="2.12871">
        <ele>62.4</ele>
        <time>2024-03-27T13:23:04Z</time>
      </trkpt>
      <trkpt lat="50.04799" lon="2.12869">
        <ele>62.5</ele>
        <time>2024-03-27T13:23:05Z</time>
      </trkpt>
      <trkpt lat="50.04799" lon="2.12868">
        <ele>62.5</ele>
        <time>2024-03-27T13:23:06Z</time>
      </trkpt>
      <trkpt lat="50.04799" lon="2.12866">
        <ele>62.5</ele>
        <time>2024-03-27T13:23:07Z</time>
      </trkpt>
      <trkpt lat="50.04798" lon="2.12864">
        <ele>62.5</ele>
        <time>2024-03-27T13:23:08Z</time>
      </trkpt>
      <trkpt lat="50.04798" lon="2.12863">
        <ele>62.5</ele>
        <time>2024-03-27T13:23:09Z</time>
      </trkpt>
      <trkpt lat="50.04798" lon="2.12861">
        <ele>62.6</ele>
        <time>2024-03-27T13:23:10Z</time>
      </trkpt>
      <trkpt lat="50.04797" lon="2.1286">
        <ele>62.6</ele>
        <time>2024-03-27T13:23:11Z</time>
      </trkpt>
      <trkpt lat="50.04797" lon="2.12858">
        <ele>62.6</ele>
        <time>2024-03-27T13:23:12Z</time>
      </trkpt>
      <trkpt lat="50.04797" lon="2.12856">
        <ele>62.6</ele>
        <time>2024-03-27T13:23:13Z</time>
      </trkpt>
      <trkpt lat="50.04796" lon="2.12854">
        <ele>62.6</ele>
        <time>2024-03-27T13:23:14Z</time>
      </trkpt>
      <trkpt lat="50.04796" lon="2.12853">
        <ele>62.7</ele>
        <time>2024-03-27T13:23:15Z</time>
      </trkpt>
      <trkpt lat="50.04795" lon="2.12851">
        <ele>62.7</ele>
        <time>2024-03-27T13:23:16Z</time>
      </trkpt>
      <trkpt lat="50.04795" lon="2.12849">
        <ele>62.7</ele>
        <time>2024-03-27T13:23:17Z</time>
      </trkpt>
      <trkpt lat="50.04794" lon="2.12848">
        <ele>62.7</ele>
        <time>2024-03-27T13:23:18Z</time>
      </trkpt>
      <trkpt lat="50.04794" lon="2.12847">
        <ele>62.7</ele>
        <time>2024-03-27T13:23:19Z</time>
      </trkpt>
      <trkpt lat="50.04793" lon="2.12845">
        <ele>62.8</ele>
        <time>2024-03-27T13:23:20Z</time>
      </trkpt>
      <trkpt lat="50.04793" lon="2.12844">
        <ele>62.8</ele>
        <time>2024-03-27T13:23:21Z</time>
      </trkpt>
      <trkpt lat="50.04793" lon="2.12842">
        <ele>62.8</ele>
        <time>2024-03-27T13:23:22Z</time>
      </trkpt>
      <trkpt lat="50.04793" lon="2.12841">
        <ele>62.8</ele>
        <time>2024-03-27T13:23:23Z</time>
      </trkpt>
      <trkpt lat="50.04793" lon="2.1284">
        <ele>62.8</ele>
        <time>2024-03-27T13:23:24Z</time>
      </trkpt>
      <trkpt lat="50.04793" lon="2.12838">
        <ele>62.8</ele>
        <time>2024-03-27T13:23:25Z</time>
      </trkpt>
      <trkpt lat="50.04792" lon="2.12837">
        <ele>62.9</ele>
        <time>2024-03-27T13:23:26Z</time>
      </trkpt>
      <trkpt lat="50.04792" lon="2.12836">
        <ele>62.9</ele>
        <time>2024-03-27T13:23:27Z</time>
      </trkpt>
      <trkpt lat="50.04792" lon="2.12834">
        <ele>62.9</ele>
        <time>2024-03-27T13:23:28Z</time>
      </trkpt>
      <trkpt lat="50.04792" lon="2.12833">
        <ele>62.9</ele>
        <time>2024-03-27T13:23:29Z</time>
      </trkpt>
      <trkpt lat="50.04792" lon="2.12832">
        <ele>62.9</ele>
        <time>2024-03-27T13:23:30Z</time>
      </trkpt>
      <trkpt lat="50.04791" lon="2.1283">
        <ele>62.9</ele>
        <time>2024-03-27T13:23:31Z</time>
      </trkpt>
      <trkpt lat="50.04791" lon="2.12829">
        <ele>63</ele>
        <time>2024-03-27T13:23:32Z</time>
      </trkpt>
      <trkpt lat="50.04791" lon="2.12827">
        <ele>63</ele>
        <time>2024-03-27T13:23:33Z</time>
      </trkpt>
      <trkpt lat="50.04791" lon="2.12826">
        <ele>63</ele>
        <time>2024-03-27T13:23:34Z</time>
      </trkpt>
      <trkpt lat="50.04791" lon="2.12824">
        <ele>63</ele>
        <time>2024-03-27T13:23:35Z</time>
      </trkpt>
      <trkpt lat="50.0479" lon="2.12823">
        <ele>63</ele>
        <time>2024-03-27T13:23:36Z</time>
      </trkpt>
      <trkpt lat="50.0479" lon="2.12822">
        <ele>63.1</ele>
        <time>2024-03-27T13:23:37Z</time>
      </trkpt>
      <trkpt lat="50.0479" lon="2.12821">
        <ele>63.1</ele>
        <time>2024-03-27T13:23:38Z</time>
      </trkpt>
      <trkpt lat="50.0479" lon="2.12819">
        <ele>63.1</ele>
        <time>2024-03-27T13:23:39Z</time>
      </trkpt>
      <trkpt lat="50.04789" lon="2.12818">
        <ele>63.1</ele>
        <time>2024-03-27T13:23:40Z</time>
      </trkpt>
      <trkpt lat="50.04789" lon="2.12816">
        <ele>63.1</ele>
        <time>2024-03-27T13:23:41Z</time>
      </trkpt>
      <trkpt lat="50.04789" lon="2.12815">
        <ele>63.1</ele>
        <time>2024-03-27T13:23:42Z</time>
      </trkpt>
      <trkpt lat="50.04789" lon="2.12813">
        <ele>63.1</ele>
        <time>2024-03-27T13:23:43Z</time>
      </trkpt>
      <trkpt lat="50.04788" lon="2.12812">
        <ele>63.1</ele>
        <time>2024-03-27T13:23:44Z</time>
      </trkpt>
      <trkpt lat="50.04788" lon="2.12811">
        <ele>63.2</ele>
        <time>2024-03-27T13:23:45Z</time>
      </trkpt>
      <trkpt lat="50.04789" lon="2.12809">
        <ele>63.2</ele>
        <time>2024-03-27T13:23:46Z</time>
      </trkpt>
      <trkpt lat="50.04789" lon="2.12808">
        <ele>63.2</ele>
        <time>2024-03-27T13:23:47Z</time>
      </trkpt>
      <trkpt lat="50.04789" lon="2.12807">
        <ele>63.2</ele>
        <time>2024-03-27T13:23:48Z</time>
      </trkpt>
      <trkpt lat="50.04788" lon="2.12805">
        <ele>63.2</ele>
        <time>2024-03-27T13:23:49Z</time>
      </trkpt>
      <trkpt lat="50.04788" lon="2.12804">
        <ele>63.2</ele>
        <time>2024-03-27T13:23:50Z</time>
      </trkpt>
      <trkpt lat="50.04788" lon="2.12802">
        <ele>63.2</ele>
        <time>2024-03-27T13:23:51Z</time>
      </trkpt>
      <trkpt lat="50.04788" lon="2.12801">
        <ele>63.2</ele>
        <time>2024-03-27T13:23:52Z</time>
      </trkpt>
      <trkpt lat="50.04788" lon="2.12799">
        <ele>63.3</ele>
        <time>2024-03-27T13:23:53Z</time>
      </trkpt>
      <trkpt lat="50.04788" lon="2.12798">
        <ele>63.3</ele>
        <time>2024-03-27T13:23:54Z</time>
      </trkpt>
      <trkpt lat="50.04787" lon="2.12796">
        <ele>63.3</ele>
        <time>2024-03-27T13:23:55Z</time>
      </trkpt>
      <trkpt lat="50.04787" lon="2.12794">
        <ele>63.3</ele>
        <time>2024-03-27T13:23:56Z</time>
      </trkpt>
      <trkpt lat="50.04787" lon="2.12793">
        <ele>63.3</ele>
        <time>2024-03-27T13:23:57Z</time>
      </trkpt>
      <trkpt lat="50.04786" lon="2.12791">
        <ele>63.3</ele>
        <time>2024-03-27T13:23:58Z</time>
      </trkpt>
      <trkpt lat="50.04786" lon="2.1279">
        <ele>63.3</ele>
        <time>2024-03-27T13:23:59Z</time>
      </trkpt>
      <trkpt lat="50.04785" lon="2.12788">
        <ele>63.4</ele>
        <time>2024-03-27T13:24:00Z</time>
      </trkpt>
      <trkpt lat="50.04785" lon="2.12787">
        <ele>63.4</ele>
        <time>2024-03-27T13:24:01Z</time>
      </trkpt>
      <trkpt lat="50.04784" lon="2.12785">
        <ele>63.4</ele>
        <time>2024-03-27T13:24:02Z</time>
      </trkpt>
      <trkpt lat="50.04784" lon="2.12783">
        <ele>63.4</ele>
        <time>2024-03-27T13:24:03Z</time>
      </trkpt>
      <trkpt lat="50.04783" lon="2.12782">
        <ele>63.4</ele>
        <time>2024-03-27T13:24:04Z</time>
      </trkpt>
      <trkpt lat="50.04783" lon="2.12781">
        <ele>63.4</ele>
        <time>2024-03-27T13:24:05Z</time>
      </trkpt>
      <trkpt lat="50.04783" lon="2.12779">
        <ele>63.5</ele>
        <time>2024-03-27T13:24:06Z</time>
      </trkpt>
      <trkpt lat="50.04782" lon="2.12777">
        <ele>63.5</ele>
        <time>2024-03-27T13:24:07Z</time>
      </trkpt>
      <trkpt lat="50.04782" lon="2.12776">
        <ele>63.5</ele>
        <time>2024-03-27T13:24:08Z</time>
      </trkpt>
      <trkpt lat="50.04782" lon="2.12774">
        <ele>63.5</ele>
        <time>2024-03-27T13:24:09Z</time>
      </trkpt>
      <trkpt lat="50.04781" lon="2.12773">
        <ele>63.6</ele>
        <time>2024-03-27T13:24:10Z</time>
      </trkpt>
      <trkpt lat="50.04781" lon="2.12771">
        <ele>63.6</ele>
        <time>2024-03-27T13:24:11Z</time>
      </trkpt>
      <trkpt lat="50.04781" lon="2.1277">
        <ele>63.6</ele>
        <time>2024-03-27T13:24:12Z</time>
      </trkpt>
      <trkpt lat="50.0478" lon="2.12768">
        <ele>63.6</ele>
        <time>2024-03-27T13:24:13Z</time>
      </trkpt>
      <trkpt lat="50.0478" lon="2.12767">
        <ele>63.6</ele>
        <time>2024-03-27T13:24:14Z</time>
      </trkpt>
      <trkpt lat="50.0478" lon="2.12765">
        <ele>63.7</ele>
        <time>2024-03-27T13:24:15Z</time>
      </trkpt>
      <trkpt lat="50.04779" lon="2.12764">
        <ele>63.7</ele>
        <time>2024-03-27T13:24:16Z</time>
      </trkpt>
      <trkpt lat="50.04779" lon="2.12762">
        <ele>63.7</ele>
        <time>2024-03-27T13:24:17Z</time>
      </trkpt>
      <trkpt lat="50.04779" lon="2.1276">
        <ele>63.8</ele>
        <time>2024-03-27T13:24:18Z</time>
      </trkpt>
      <trkpt lat="50.04778" lon="2.12759">
        <ele>63.8</ele>
        <time>2024-03-27T13:24:19Z</time>
      </trkpt>
      <trkpt lat="50.04778" lon="2.12758">
        <ele>63.8</ele>
        <time>2024-03-27T13:24:20Z</time>
      </trkpt>
      <trkpt lat="50.04778" lon="2.12756">
        <ele>63.8</ele>
        <time>2024-03-27T13:24:21Z</time>
      </trkpt>
      <trkpt lat="50.04777" lon="2.12755">
        <ele>63.9</ele>
        <time>2024-03-27T13:24:22Z</time>
      </trkpt>
      <trkpt lat="50.04777" lon="2.12753">
        <ele>63.9</ele>
        <time>2024-03-27T13:24:23Z</time>
      </trkpt>
      <trkpt lat="50.04777" lon="2.12751">
        <ele>63.9</ele>
        <time>2024-03-27T13:24:24Z</time>
      </trkpt>
      <trkpt lat="50.04777" lon="2.1275">
        <ele>63.9</ele>
        <time>2024-03-27T13:24:25Z</time>
      </trkpt>
      <trkpt lat="50.04776" lon="2.12748">
        <ele>64</ele>
        <time>2024-03-27T13:24:26Z</time>
      </trkpt>
      <trkpt lat="50.04776" lon="2.12747">
        <ele>64</ele>
        <time>2024-03-27T13:24:27Z</time>
      </trkpt>
      <trkpt lat="50.04776" lon="2.12745">
        <ele>64</ele>
        <time>2024-03-27T13:24:28Z</time>
      </trkpt>
      <trkpt lat="50.04775" lon="2.12744">
        <ele>64.1</ele>
        <time>2024-03-27T13:24:29Z</time>
      </trkpt>
      <trkpt lat="50.04775" lon="2.12742">
        <ele>64.1</ele>
        <time>2024-03-27T13:24:30Z</time>
      </trkpt>
      <trkpt lat="50.04775" lon="2.1274">
        <ele>64.1</ele>
        <time>2024-03-27T13:24:31Z</time>
      </trkpt>
      <trkpt lat="50.04774" lon="2.12738">
        <ele>64.2</ele>
        <time>2024-03-27T13:24:32Z</time>
      </trkpt>
      <trkpt lat="50.04774" lon="2.12737">
        <ele>64.2</ele>
        <time>2024-03-27T13:24:33Z</time>
      </trkpt>
      <trkpt lat="50.04774" lon="2.12735">
        <ele>64.2</ele>
        <time>2024-03-27T13:24:34Z</time>
      </trkpt>
      <trkpt lat="50.04773" lon="2.12733">
        <ele>64.2</ele>
        <time>2024-03-27T13:24:35Z</time>
      </trkpt>
      <trkpt lat="50.04773" lon="2.12732">
        <ele>64.3</ele>
        <time>2024-03-27T13:24:36Z</time>
      </trkpt>
      <trkpt lat="50.04773" lon="2.1273">
        <ele>64.3</ele>
        <time>2024-03-27T13:24:37Z</time>
      </trkpt>
      <trkpt lat="50.04772" lon="2.12728">
        <ele>64.3</ele>
        <time>2024-03-27T13:24:38Z</time>
      </trkpt>
      <trkpt lat="50.04772" lon="2.12727">
        <ele>64.3</ele>
        <time>2024-03-27T13:24:39Z</time>
      </trkpt>
      <trkpt lat="50.04771" lon="2.12725">
        <ele>64.4</ele>
        <time>2024-03-27T13:24:40Z</time>
      </trkpt>
      <trkpt lat="50.04771" lon="2.12723">
        <ele>64.4</ele>
        <time>2024-03-27T13:24:41Z</time>
      </trkpt>
      <trkpt lat="50.04771" lon="2.12722">
        <ele>64.4</ele>
        <time>2024-03-27T13:24:42Z</time>
      </trkpt>
      <trkpt lat="50.04771" lon="2.1272">
        <ele>64.4</ele>
        <time>2024-03-27T13:24:43Z</time>
      </trkpt>
      <trkpt lat="50.04771" lon="2.12719">
        <ele>64.5</ele>
        <time>2024-03-27T13:24:44Z</time>
      </trkpt>
      <trkpt lat="50.0477" lon="2.12717">
        <ele>64.5</ele>
        <time>2024-03-27T13:24:45Z</time>
      </trkpt>
      <trkpt lat="50.0477" lon="2.12716">
        <ele>64.5</ele>
        <time>2024-03-27T13:24:46Z</time>
      </trkpt>
      <trkpt lat="50.04769" lon="2.12714">
        <ele>64.5</ele>
        <time>2024-03-27T13:24:47Z</time>
      </trkpt>
      <trkpt lat="50.04769" lon="2.12713">
        <ele>64.6</ele>
        <time>2024-03-27T13:24:48Z</time>
      </trkpt>
      <trkpt lat="50.04769" lon="2.12711">
        <ele>64.6</ele>
        <time>2024-03-27T13:24:49Z</time>
      </trkpt>
      <trkpt lat="50.04768" lon="2.12709">
        <ele>64.6</ele>
        <time>2024-03-27T13:24:50Z</time>
      </trkpt>
      <trkpt lat="50.04768" lon="2.12708">
        <ele>64.6</ele>
        <time>2024-03-27T13:24:51Z</time>
      </trkpt>
      <trkpt lat="50.04768" lon="2.12706">
        <ele>64.7</ele>
        <time>2024-03-27T13:24:52Z</time>
      </trkpt>
      <trkpt lat="50.04768" lon="2.12704">
        <ele>64.7</ele>
        <time>2024-03-27T13:24:53Z</time>
      </trkpt>
      <trkpt lat="50.04767" lon="2.12702">
        <ele>64.7</ele>
        <time>2024-03-27T13:24:54Z</time>
      </trkpt>
      <trkpt lat="50.04767" lon="2.12701">
        <ele>64.7</ele>
        <time>2024-03-27T13:24:55Z</time>
      </trkpt>
      <trkpt lat="50.04767" lon="2.12699">
        <ele>64.8</ele>
        <time>2024-03-27T13:24:56Z</time>
      </trkpt>
      <trkpt lat="50.04767" lon="2.12698">
        <ele>64.8</ele>
        <time>2024-03-27T13:24:57Z</time>
      </trkpt>
      <trkpt lat="50.04767" lon="2.12696">
        <ele>64.8</ele>
        <time>2024-03-27T13:24:58Z</time>
      </trkpt>
      <trkpt lat="50.04766" lon="2.12695">
        <ele>64.8</ele>
        <time>2024-03-27T13:24:59Z</time>
      </trkpt>
      <trkpt lat="50.04766" lon="2.12693">
        <ele>64.8</ele>
        <time>2024-03-27T13:25:00Z</time>
      </trkpt>
      <trkpt lat="50.04766" lon="2.12691">
        <ele>64.8</ele>
        <time>2024-03-27T13:25:01Z</time>
      </trkpt>
      <trkpt lat="50.04766" lon="2.1269">
        <ele>64.9</ele>
        <time>2024-03-27T13:25:02Z</time>
      </trkpt>
      <trkpt lat="50.04765" lon="2.12688">
        <ele>64.9</ele>
        <time>2024-03-27T13:25:03Z</time>
      </trkpt>
      <trkpt lat="50.04765" lon="2.12686">
        <ele>64.9</ele>
        <time>2024-03-27T13:25:04Z</time>
      </trkpt>
      <trkpt lat="50.04765" lon="2.12685">
        <ele>64.9</ele>
        <time>2024-03-27T13:25:05Z</time>
      </trkpt>
      <trkpt lat="50.04765" lon="2.12684">
        <ele>64.9</ele>
        <time>2024-03-27T13:25:06Z</time>
      </trkpt>
      <trkpt lat="50.04764" lon="2.12682">
        <ele>65</ele>
        <time>2024-03-27T13:25:07Z</time>
      </trkpt>
      <trkpt lat="50.04764" lon="2.1268">
        <ele>65</ele>
        <time>2024-03-27T13:25:08Z</time>
      </trkpt>
      <trkpt lat="50.04764" lon="2.12679">
        <ele>65</ele>
        <time>2024-03-27T13:25:09Z</time>
      </trkpt>
      <trkpt lat="50.04763" lon="2.12677">
        <ele>65</ele>
        <time>2024-03-27T13:25:10Z</time>
      </trkpt>
      <trkpt lat="50.04763" lon="2.12676">
        <ele>65</ele>
        <time>2024-03-27T13:25:11Z</time>
      </trkpt>
      <trkpt lat="50.04762" lon="2.12674">
        <ele>65</ele>
        <time>2024-03-27T13:25:12Z</time>
      </trkpt>
      <trkpt lat="50.04762" lon="2.12673">
        <ele>65.1</ele>
        <time>2024-03-27T13:25:13Z</time>
      </trkpt>
      <trkpt lat="50.04762" lon="2.12671">
        <ele>65.1</ele>
        <time>2024-03-27T13:25:14Z</time>
      </trkpt>
      <trkpt lat="50.04761" lon="2.1267">
        <ele>65.1</ele>
        <time>2024-03-27T13:25:15Z</time>
      </trkpt>
      <trkpt lat="50.04761" lon="2.12669">
        <ele>65.1</ele>
        <time>2024-03-27T13:25:16Z</time>
      </trkpt>
      <trkpt lat="50.04761" lon="2.12667">
        <ele>65.1</ele>
        <time>2024-03-27T13:25:17Z</time>
      </trkpt>
      <trkpt lat="50.04761" lon="2.12666">
        <ele>65.1</ele>
        <time>2024-03-27T13:25:18Z</time>
      </trkpt>
      <trkpt lat="50.0476" lon="2.12664">
        <ele>65.1</ele>
        <time>2024-03-27T13:25:19Z</time>
      </trkpt>
      <trkpt lat="50.0476" lon="2.12663">
        <ele>65.2</ele>
        <time>2024-03-27T13:25:20Z</time>
      </trkpt>
      <trkpt lat="50.0476" lon="2.12661">
        <ele>65.2</ele>
        <time>2024-03-27T13:25:21Z</time>
      </trkpt>
      <trkpt lat="50.0476" lon="2.1266">
        <ele>65.2</ele>
        <time>2024-03-27T13:25:22Z</time>
      </trkpt>
      <trkpt lat="50.0476" lon="2.12658">
        <ele>65.2</ele>
        <time>2024-03-27T13:25:23Z</time>
      </trkpt>
      <trkpt lat="50.04759" lon="2.12657">
        <ele>65.2</ele>
        <time>2024-03-27T13:25:24Z</time>
      </trkpt>
      <trkpt lat="50.04759" lon="2.12656">
        <ele>65.2</ele>
        <time>2024-03-27T13:25:25Z</time>
      </trkpt>
      <trkpt lat="50.04759" lon="2.12654">
        <ele>65.2</ele>
        <time>2024-03-27T13:25:26Z</time>
      </trkpt>
      <trkpt lat="50.04759" lon="2.12653">
        <ele>65.3</ele>
        <time>2024-03-27T13:25:27Z</time>
      </trkpt>
      <trkpt lat="50.04759" lon="2.12651">
        <ele>65.3</ele>
        <time>2024-03-27T13:25:28Z</time>
      </trkpt>
      <trkpt lat="50.0476" lon="2.12649">
        <ele>65.3</ele>
        <time>2024-03-27T13:25:29Z</time>
      </trkpt>
      <trkpt lat="50.0476" lon="2.12648">
        <ele>65.3</ele>
        <time>2024-03-27T13:25:30Z</time>
      </trkpt>
      <trkpt lat="50.0476" lon="2.12646">
        <ele>65.3</ele>
        <time>2024-03-27T13:25:31Z</time>
      </trkpt>
      <trkpt lat="50.0476" lon="2.12644">
        <ele>65.4</ele>
        <time>2024-03-27T13:25:32Z</time>
      </trkpt>
      <trkpt lat="50.0476" lon="2.12643">
        <ele>65.4</ele>
        <time>2024-03-27T13:25:33Z</time>
      </trkpt>
      <trkpt lat="50.0476" lon="2.12641">
        <ele>65.4</ele>
        <time>2024-03-27T13:25:34Z</time>
      </trkpt>
      <trkpt lat="50.0476" lon="2.1264">
        <ele>65.4</ele>
        <time>2024-03-27T13:25:35Z</time>
      </trkpt>
      <trkpt lat="50.0476" lon="2.12638">
        <ele>65.4</ele>
        <time>2024-03-27T13:25:36Z</time>
      </trkpt>
      <trkpt lat="50.04759" lon="2.12636">
        <ele>65.4</ele>
        <time>2024-03-27T13:25:37Z</time>
      </trkpt>
      <trkpt lat="50.04759" lon="2.12635">
        <ele>65.5</ele>
        <time>2024-03-27T13:25:38Z</time>
      </trkpt>
      <trkpt lat="50.04759" lon="2.12633">
        <ele>65.5</ele>
        <time>2024-03-27T13:25:39Z</time>
      </trkpt>
      <trkpt lat="50.04759" lon="2.12631">
        <ele>65.5</ele>
        <time>2024-03-27T13:25:40Z</time>
      </trkpt>
      <trkpt lat="50.04759" lon="2.1263">
        <ele>65.5</ele>
        <time>2024-03-27T13:25:41Z</time>
      </trkpt>
      <trkpt lat="50.04759" lon="2.12628">
        <ele>65.5</ele>
        <time>2024-03-27T13:25:42Z</time>
      </trkpt>
      <trkpt lat="50.04758" lon="2.12626">
        <ele>65.6</ele>
        <time>2024-03-27T13:25:43Z</time>
      </trkpt>
      <trkpt lat="50.04758" lon="2.12625">
        <ele>65.6</ele>
        <time>2024-03-27T13:25:44Z</time>
      </trkpt>
      <trkpt lat="50.04758" lon="2.12623">
        <ele>65.6</ele>
        <time>2024-03-27T13:25:45Z</time>
      </trkpt>
      <trkpt lat="50.04758" lon="2.12621">
        <ele>65.6</ele>
        <time>2024-03-27T13:25:46Z</time>
      </trkpt>
      <trkpt lat="50.04757" lon="2.12619">
        <ele>65.6</ele>
        <time>2024-03-27T13:25:47Z</time>
      </trkpt>
      <trkpt lat="50.04757" lon="2.12618">
        <ele>65.7</ele>
        <time>2024-03-27T13:25:48Z</time>
      </trkpt>
      <trkpt lat="50.04757" lon="2.12616">
        <ele>65.7</ele>
        <time>2024-03-27T13:25:49Z</time>
      </trkpt>
      <trkpt lat="50.04756" lon="2.12614">
        <ele>65.7</ele>
        <time>2024-03-27T13:25:50Z</time>
      </trkpt>
      <trkpt lat="50.04756" lon="2.12613">
        <ele>65.7</ele>
        <time>2024-03-27T13:25:51Z</time>
      </trkpt>
      <trkpt lat="50.04756" lon="2.12611">
        <ele>65.8</ele>
        <time>2024-03-27T13:25:52Z</time>
      </trkpt>
      <trkpt lat="50.04756" lon="2.12609">
        <ele>65.8</ele>
        <time>2024-03-27T13:25:53Z</time>
      </trkpt>
      <trkpt lat="50.04755" lon="2.12608">
        <ele>65.8</ele>
        <time>2024-03-27T13:25:54Z</time>
      </trkpt>
      <trkpt lat="50.04755" lon="2.12606">
        <ele>65.8</ele>
        <time>2024-03-27T13:25:55Z</time>
      </trkpt>
      <trkpt lat="50.04755" lon="2.12605">
        <ele>65.9</ele>
        <time>2024-03-27T13:25:56Z</time>
      </trkpt>
      <trkpt lat="50.04754" lon="2.12604">
        <ele>65.9</ele>
        <time>2024-03-27T13:25:57Z</time>
      </trkpt>
      <trkpt lat="50.04754" lon="2.12602">
        <ele>65.9</ele>
        <time>2024-03-27T13:25:58Z</time>
      </trkpt>
      <trkpt lat="50.04753" lon="2.12601">
        <ele>66</ele>
        <time>2024-03-27T13:25:59Z</time>
      </trkpt>
      <trkpt lat="50.04753" lon="2.12599">
        <ele>66</ele>
        <time>2024-03-27T13:26:00Z</time>
      </trkpt>
      <trkpt lat="50.04753" lon="2.12598">
        <ele>66</ele>
        <time>2024-03-27T13:26:01Z</time>
      </trkpt>
      <trkpt lat="50.04752" lon="2.12597">
        <ele>66</ele>
        <time>2024-03-27T13:26:02Z</time>
      </trkpt>
      <trkpt lat="50.04752" lon="2.12596">
        <ele>66.1</ele>
        <time>2024-03-27T13:26:03Z</time>
      </trkpt>
      <trkpt lat="50.04751" lon="2.12594">
        <ele>66.1</ele>
        <time>2024-03-27T13:26:04Z</time>
      </trkpt>
      <trkpt lat="50.04751" lon="2.12593">
        <ele>66.1</ele>
        <time>2024-03-27T13:26:05Z</time>
      </trkpt>
      <trkpt lat="50.04751" lon="2.12592">
        <ele>66.2</ele>
        <time>2024-03-27T13:26:06Z</time>
      </trkpt>
      <trkpt lat="50.0475" lon="2.1259">
        <ele>66.2</ele>
        <time>2024-03-27T13:26:07Z</time>
      </trkpt>
      <trkpt lat="50.0475" lon="2.12589">
        <ele>66.2</ele>
        <time>2024-03-27T13:26:08Z</time>
      </trkpt>
      <trkpt lat="50.0475" lon="2.12587">
        <ele>66.3</ele>
        <time>2024-03-27T13:26:09Z</time>
      </trkpt>
      <trkpt lat="50.04749" lon="2.12586">
        <ele>66.3</ele>
        <time>2024-03-27T13:26:10Z</time>
      </trkpt>
      <trkpt lat="50.04749" lon="2.12584">
        <ele>66.4</ele>
        <time>2024-03-27T13:26:11Z</time>
      </trkpt>
      <trkpt lat="50.04749" lon="2.12583">
        <ele>66.4</ele>
        <time>2024-03-27T13:26:12Z</time>
      </trkpt>
      <trkpt lat="50.04749" lon="2.12581">
        <ele>66.4</ele>
        <time>2024-03-27T13:26:13Z</time>
      </trkpt>
      <trkpt lat="50.04749" lon="2.12579">
        <ele>66.5</ele>
        <time>2024-03-27T13:26:14Z</time>
      </trkpt>
      <trkpt lat="50.04748" lon="2.12577">
        <ele>66.5</ele>
        <time>2024-03-27T13:26:15Z</time>
      </trkpt>
      <trkpt lat="50.04748" lon="2.12576">
        <ele>66.6</ele>
        <time>2024-03-27T13:26:16Z</time>
      </trkpt>
      <trkpt lat="50.04748" lon="2.12574">
        <ele>66.6</ele>
        <time>2024-03-27T13:26:17Z</time>
      </trkpt>
      <trkpt lat="50.04748" lon="2.12572">
        <ele>66.6</ele>
        <time>2024-03-27T13:26:18Z</time>
      </trkpt>
      <trkpt lat="50.04747" lon="2.12571">
        <ele>66.7</ele>
        <time>2024-03-27T13:26:19Z</time>
      </trkpt>
      <trkpt lat="50.04747" lon="2.12569">
        <ele>66.7</ele>
        <time>2024-03-27T13:26:20Z</time>
      </trkpt>
      <trkpt lat="50.04747" lon="2.12567">
        <ele>66.8</ele>
        <time>2024-03-27T13:26:21Z</time>
      </trkpt>
      <trkpt lat="50.04747" lon="2.12565">
        <ele>66.8</ele>
        <time>2024-03-27T13:26:22Z</time>
      </trkpt>
      <trkpt lat="50.04746" lon="2.12563">
        <ele>66.8</ele>
        <time>2024-03-27T13:26:23Z</time>
      </trkpt>
      <trkpt lat="50.04746" lon="2.12562">
        <ele>66.9</ele>
        <time>2024-03-27T13:26:24Z</time>
      </trkpt>
      <trkpt lat="50.04746" lon="2.1256">
        <ele>66.9</ele>
        <time>2024-03-27T13:26:25Z</time>
      </trkpt>
      <trkpt lat="50.04746" lon="2.12558">
        <ele>66.9</ele>
        <time>2024-03-27T13:26:26Z</time>
      </trkpt>
      <trkpt lat="50.04746" lon="2.12556">
        <ele>67</ele>
        <time>2024-03-27T13:26:27Z</time>
      </trkpt>
      <trkpt lat="50.04746" lon="2.12555">
        <ele>67</ele>
        <time>2024-03-27T13:26:28Z</time>
      </trkpt>
      <trkpt lat="50.04746" lon="2.12553">
        <ele>67</ele>
        <time>2024-03-27T13:26:29Z</time>
      </trkpt>
      <trkpt lat="50.04746" lon="2.12551">
        <ele>67</ele>
        <time>2024-03-27T13:26:30Z</time>
      </trkpt>
      <trkpt lat="50.04746" lon="2.1255">
        <ele>67</ele>
        <time>2024-03-27T13:26:31Z</time>
      </trkpt>
      <trkpt lat="50.04746" lon="2.12548">
        <ele>67.1</ele>
        <time>2024-03-27T13:26:32Z</time>
      </trkpt>
      <trkpt lat="50.04746" lon="2.12547">
        <ele>67.1</ele>
        <time>2024-03-27T13:26:33Z</time>
      </trkpt>
      <trkpt lat="50.04746" lon="2.12545">
        <ele>67.1</ele>
        <time>2024-03-27T13:26:34Z</time>
      </trkpt>
      <trkpt lat="50.04746" lon="2.12543">
        <ele>67.1</ele>
        <time>2024-03-27T13:26:35Z</time>
      </trkpt>
      <trkpt lat="50.04746" lon="2.12542">
        <ele>67.1</ele>
        <time>2024-03-27T13:26:36Z</time>
      </trkpt>
      <trkpt lat="50.04746" lon="2.1254">
        <ele>67.2</ele>
        <time>2024-03-27T13:26:37Z</time>
      </trkpt>
      <trkpt lat="50.04746" lon="2.12539">
        <ele>67.2</ele>
        <time>2024-03-27T13:26:38Z</time>
      </trkpt>
      <trkpt lat="50.04746" lon="2.12537">
        <ele>67.2</ele>
        <time>2024-03-27T13:26:39Z</time>
      </trkpt>
      <trkpt lat="50.04746" lon="2.12536">
        <ele>67.2</ele>
        <time>2024-03-27T13:26:40Z</time>
      </trkpt>
      <trkpt lat="50.04747" lon="2.12534">
        <ele>67.2</ele>
        <time>2024-03-27T13:26:41Z</time>
      </trkpt>
      <trkpt lat="50.04747" lon="2.12533">
        <ele>67.3</ele>
        <time>2024-03-27T13:26:42Z</time>
      </trkpt>
      <trkpt lat="50.04747" lon="2.12531">
        <ele>67.3</ele>
        <time>2024-03-27T13:26:43Z</time>
      </trkpt>
      <trkpt lat="50.04747" lon="2.1253">
        <ele>67.3</ele>
        <time>2024-03-27T13:26:44Z</time>
      </trkpt>
      <trkpt lat="50.04747" lon="2.12529">
        <ele>67.3</ele>
        <time>2024-03-27T13:26:45Z</time>
      </trkpt>
      <trkpt lat="50.04747" lon="2.12528">
        <ele>67.3</ele>
        <time>2024-03-27T13:26:46Z</time>
      </trkpt>
      <trkpt lat="50.04748" lon="2.12526">
        <ele>67.4</ele>
        <time>2024-03-27T13:26:47Z</time>
      </trkpt>
      <trkpt lat="50.04748" lon="2.12525">
        <ele>67.4</ele>
        <time>2024-03-27T13:26:48Z</time>
      </trkpt>
      <trkpt lat="50.04748" lon="2.12523">
        <ele>67.4</ele>
        <time>2024-03-27T13:26:49Z</time>
      </trkpt>
      <trkpt lat="50.04748" lon="2.12522">
        <ele>67.4</ele>
        <time>2024-03-27T13:26:50Z</time>
      </trkpt>
      <trkpt lat="50.04748" lon="2.12521">
        <ele>67.4</ele>
        <time>2024-03-27T13:26:51Z</time>
      </trkpt>
      <trkpt lat="50.04748" lon="2.12519">
        <ele>67.4</ele>
        <time>2024-03-27T13:26:52Z</time>
      </trkpt>
      <trkpt lat="50.04748" lon="2.12518">
        <ele>67.4</ele>
        <time>2024-03-27T13:26:53Z</time>
      </trkpt>
      <trkpt lat="50.04749" lon="2.12516">
        <ele>67.5</ele>
        <time>2024-03-27T13:26:54Z</time>
      </trkpt>
      <trkpt lat="50.04749" lon="2.12515">
        <ele>67.5</ele>
        <time>2024-03-27T13:26:55Z</time>
      </trkpt>
      <trkpt lat="50.04749" lon="2.12513">
        <ele>67.5</ele>
        <time>2024-03-27T13:26:56Z</time>
      </trkpt>
      <trkpt lat="50.04748" lon="2.12512">
        <ele>67.5</ele>
        <time>2024-03-27T13:26:57Z</time>
      </trkpt>
      <trkpt lat="50.04748" lon="2.1251">
        <ele>67.5</ele>
        <time>2024-03-27T13:26:58Z</time>
      </trkpt>
      <trkpt lat="50.04748" lon="2.12509">
        <ele>67.6</ele>
        <time>2024-03-27T13:26:59Z</time>
      </trkpt>
      <trkpt lat="50.04748" lon="2.12507">
        <ele>67.6</ele>
        <time>2024-03-27T13:27:00Z</time>
      </trkpt>
      <trkpt lat="50.04747" lon="2.12506">
        <ele>67.6</ele>
        <time>2024-03-27T13:27:01Z</time>
      </trkpt>
      <trkpt lat="50.04747" lon="2.12504">
        <ele>67.6</ele>
        <time>2024-03-27T13:27:02Z</time>
      </trkpt>
      <trkpt lat="50.04747" lon="2.12503">
        <ele>67.6</ele>
        <time>2024-03-27T13:27:03Z</time>
      </trkpt>
      <trkpt lat="50.04747" lon="2.12501">
        <ele>67.6</ele>
        <time>2024-03-27T13:27:04Z</time>
      </trkpt>
      <trkpt lat="50.04746" lon="2.12499">
        <ele>67.6</ele>
        <time>2024-03-27T13:27:05Z</time>
      </trkpt>
      <trkpt lat="50.04746" lon="2.12498">
        <ele>67.6</ele>
        <time>2024-03-27T13:27:06Z</time>
      </trkpt>
      <trkpt lat="50.04746" lon="2.12496">
        <ele>67.6</ele>
        <time>2024-03-27T13:27:07Z</time>
      </trkpt>
      <trkpt lat="50.04746" lon="2.12495">
        <ele>67.7</ele>
        <time>2024-03-27T13:27:08Z</time>
      </trkpt>
      <trkpt lat="50.04746" lon="2.12493">
        <ele>67.7</ele>
        <time>2024-03-27T13:27:09Z</time>
      </trkpt>
      <trkpt lat="50.04746" lon="2.12491">
        <ele>67.7</ele>
        <time>2024-03-27T13:27:10Z</time>
      </trkpt>
      <trkpt lat="50.04747" lon="2.1249">
        <ele>67.7</ele>
        <time>2024-03-27T13:27:11Z</time>
      </trkpt>
      <trkpt lat="50.04747" lon="2.12488">
        <ele>67.7</ele>
        <time>2024-03-27T13:27:12Z</time>
      </trkpt>
      <trkpt lat="50.04747" lon="2.12487">
        <ele>67.7</ele>
        <time>2024-03-27T13:27:13Z</time>
      </trkpt>
      <trkpt lat="50.04748" lon="2.12485">
        <ele>67.7</ele>
        <time>2024-03-27T13:27:14Z</time>
      </trkpt>
      <trkpt lat="50.04748" lon="2.12484">
        <ele>67.7</ele>
        <time>2024-03-27T13:27:15Z</time>
      </trkpt>
      <trkpt lat="50.04748" lon="2.12482">
        <ele>67.7</ele>
        <time>2024-03-27T13:27:16Z</time>
      </trkpt>
      <trkpt lat="50.04747" lon="2.12481">
        <ele>67.7</ele>
        <time>2024-03-27T13:27:17Z</time>
      </trkpt>
      <trkpt lat="50.04747" lon="2.1248">
        <ele>67.7</ele>
        <time>2024-03-27T13:27:18Z</time>
      </trkpt>
      <trkpt lat="50.04747" lon="2.12478">
        <ele>67.7</ele>
        <time>2024-03-27T13:27:19Z</time>
      </trkpt>
      <trkpt lat="50.04747" lon="2.12477">
        <ele>67.7</ele>
        <time>2024-03-27T13:27:20Z</time>
      </trkpt>
      <trkpt lat="50.04746" lon="2.12475">
        <ele>67.7</ele>
        <time>2024-03-27T13:27:21Z</time>
      </trkpt>
      <trkpt lat="50.04746" lon="2.12474">
        <ele>67.7</ele>
        <time>2024-03-27T13:27:22Z</time>
      </trkpt>
      <trkpt lat="50.04746" lon="2.12472">
        <ele>67.7</ele>
        <time>2024-03-27T13:27:23Z</time>
      </trkpt>
      <trkpt lat="50.04746" lon="2.12472">
        <ele>67.7</ele>
        <time>2024-03-27T13:27:24Z</time>
      </trkpt>
      <trkpt lat="50.04746" lon="2.1247">
        <ele>67.7</ele>
        <time>2024-03-27T13:27:25Z</time>
      </trkpt>
      <trkpt lat="50.04746" lon="2.12469">
        <ele>67.7</ele>
        <time>2024-03-27T13:27:26Z</time>
      </trkpt>
      <trkpt lat="50.04746" lon="2.12468">
        <ele>67.7</ele>
        <time>2024-03-27T13:27:27Z</time>
      </trkpt>
      <trkpt lat="50.04745" lon="2.12467">
        <ele>67.7</ele>
        <time>2024-03-27T13:27:28Z</time>
      </trkpt>
      <trkpt lat="50.04745" lon="2.12465">
        <ele>67.7</ele>
        <time>2024-03-27T13:27:29Z</time>
      </trkpt>
      <trkpt lat="50.04745" lon="2.12464">
        <ele>67.7</ele>
        <time>2024-03-27T13:27:30Z</time>
      </trkpt>
      <trkpt lat="50.04744" lon="2.12463">
        <ele>67.7</ele>
        <time>2024-03-27T13:27:31Z</time>
      </trkpt>
      <trkpt lat="50.04743" lon="2.12463">
        <ele>67.7</ele>
        <time>2024-03-27T13:27:32Z</time>
      </trkpt>
      <trkpt lat="50.04743" lon="2.12461">
        <ele>67.7</ele>
        <time>2024-03-27T13:27:33Z</time>
      </trkpt>
      <trkpt lat="50.04743" lon="2.1246">
        <ele>67.7</ele>
        <time>2024-03-27T13:27:34Z</time>
      </trkpt>
      <trkpt lat="50.04743" lon="2.12456">
        <ele>67.7</ele>
        <time>2024-03-27T13:27:35Z</time>
      </trkpt>
      <trkpt lat="50.04743" lon="2.12455">
        <ele>67.7</ele>
        <time>2024-03-27T13:27:36Z</time>
      </trkpt>
      <trkpt lat="50.04742" lon="2.12454">
        <ele>67.7</ele>
        <time>2024-03-27T13:27:37Z</time>
      </trkpt>
      <trkpt lat="50.04742" lon="2.12449">
        <ele>67.7</ele>
        <time>2024-03-27T13:27:38Z</time>
      </trkpt>
      <trkpt lat="50.04741" lon="2.12447">
        <ele>67.7</ele>
        <time>2024-03-27T13:27:39Z</time>
      </trkpt>
      <trkpt lat="50.04741" lon="2.12444">
        <ele>67.7</ele>
        <time>2024-03-27T13:27:40Z</time>
      </trkpt>
      <trkpt lat="50.04741" lon="2.12442">
        <ele>67.7</ele>
        <time>2024-03-27T13:27:41Z</time>
      </trkpt>
      <trkpt lat="50.04741" lon="2.1244">
        <ele>67.7</ele>
        <time>2024-03-27T13:27:42Z</time>
      </trkpt>
      <trkpt lat="50.04741" lon="2.12438">
        <ele>67.7</ele>
        <time>2024-03-27T13:27:43Z</time>
      </trkpt>
      <trkpt lat="50.04741" lon="2.12437">
        <ele>67.7</ele>
        <time>2024-03-27T13:27:44Z</time>
      </trkpt>
      <trkpt lat="50.0474" lon="2.12437">
        <ele>67.7</ele>
        <time>2024-03-27T13:27:45Z</time>
      </trkpt>
      <trkpt lat="50.0474" lon="2.12436">
        <ele>67.7</ele>
        <time>2024-03-27T13:27:46Z</time>
      </trkpt>
      <trkpt lat="50.04739" lon="2.12436">
        <ele>67.7</ele>
        <time>2024-03-27T13:27:47Z</time>
      </trkpt>
      <trkpt lat="50.04739" lon="2.12436">
        <ele>67.7</ele>
        <time>2024-03-27T13:27:48Z</time>
      </trkpt>
      <trkpt lat="50.04739" lon="2.12435">
        <ele>67.7</ele>
        <time>2024-03-27T13:27:49Z</time>
      </trkpt>
      <trkpt lat="50.04738" lon="2.12434">
        <ele>67.7</ele>
        <time>2024-03-27T13:27:50Z</time>
      </trkpt>
      <trkpt lat="50.04738" lon="2.12433">
        <ele>67.7</ele>
        <time>2024-03-27T13:27:51Z</time>
      </trkpt>
      <trkpt lat="50.04738" lon="2.12433">
        <ele>67.7</ele>
        <time>2024-03-27T13:27:52Z</time>
      </trkpt>
      <trkpt lat="50.04738" lon="2.12432">
        <ele>67.7</ele>
        <time>2024-03-27T13:27:53Z</time>
      </trkpt>
      <trkpt lat="50.04738" lon="2.12431">
        <ele>67.7</ele>
        <time>2024-03-27T13:27:54Z</time>
      </trkpt>
      <trkpt lat="50.04737" lon="2.12431">
        <ele>67.7</ele>
        <time>2024-03-27T13:27:55Z</time>
      </trkpt>
      <trkpt lat="50.04737" lon="2.12429">
        <ele>67.7</ele>
        <time>2024-03-27T13:27:56Z</time>
      </trkpt>
      <trkpt lat="50.04737" lon="2.12428">
        <ele>67.6</ele>
        <time>2024-03-27T13:27:57Z</time>
      </trkpt>
      <trkpt lat="50.04737" lon="2.12426">
        <ele>67.6</ele>
        <time>2024-03-27T13:27:58Z</time>
      </trkpt>
      <trkpt lat="50.04737" lon="2.12424">
        <ele>67.6</ele>
        <time>2024-03-27T13:27:59Z</time>
      </trkpt>
      <trkpt lat="50.04737" lon="2.12423">
        <ele>67.6</ele>
        <time>2024-03-27T13:28:00Z</time>
      </trkpt>
      <trkpt lat="50.04737" lon="2.12421">
        <ele>67.6</ele>
        <time>2024-03-27T13:28:01Z</time>
      </trkpt>
      <trkpt lat="50.04738" lon="2.1242">
        <ele>67.6</ele>
        <time>2024-03-27T13:28:02Z</time>
      </trkpt>
      <trkpt lat="50.04738" lon="2.12418">
        <ele>67.6</ele>
        <time>2024-03-27T13:28:03Z</time>
      </trkpt>
      <trkpt lat="50.04738" lon="2.12417">
        <ele>67.6</ele>
        <time>2024-03-27T13:28:04Z</time>
      </trkpt>
      <trkpt lat="50.04738" lon="2.12415">
        <ele>67.6</ele>
        <time>2024-03-27T13:28:05Z</time>
      </trkpt>
      <trkpt lat="50.04738" lon="2.12413">
        <ele>67.6</ele>
        <time>2024-03-27T13:28:06Z</time>
      </trkpt>
      <trkpt lat="50.04737" lon="2.12412">
        <ele>67.6</ele>
        <time>2024-03-27T13:28:07Z</time>
      </trkpt>
      <trkpt lat="50.04737" lon="2.1241">
        <ele>67.6</ele>
        <time>2024-03-27T13:28:08Z</time>
      </trkpt>
      <trkpt lat="50.04737" lon="2.12408">
        <ele>67.5</ele>
        <time>2024-03-27T13:28:09Z</time>
      </trkpt>
      <trkpt lat="50.04737" lon="2.12407">
        <ele>67.5</ele>
        <time>2024-03-27T13:28:10Z</time>
      </trkpt>
      <trkpt lat="50.04737" lon="2.12405">
        <ele>67.5</ele>
        <time>2024-03-27T13:28:11Z</time>
      </trkpt>
      <trkpt lat="50.04736" lon="2.12403">
        <ele>67.5</ele>
        <time>2024-03-27T13:28:12Z</time>
      </trkpt>
      <trkpt lat="50.04735" lon="2.12397">
        <ele>67.4</ele>
        <time>2024-03-27T13:28:13Z</time>
      </trkpt>
      <trkpt lat="50.04735" lon="2.12396">
        <ele>67.4</ele>
        <time>2024-03-27T13:28:14Z</time>
      </trkpt>
      <trkpt lat="50.04735" lon="2.12393">
        <ele>67.4</ele>
        <time>2024-03-27T13:28:15Z</time>
      </trkpt>
      <trkpt lat="50.04735" lon="2.12391">
        <ele>67.4</ele>
        <time>2024-03-27T13:28:16Z</time>
      </trkpt>
      <trkpt lat="50.04734" lon="2.12388">
        <ele>67.3</ele>
        <time>2024-03-27T13:28:17Z</time>
      </trkpt>
      <trkpt lat="50.04734" lon="2.12386">
        <ele>67.3</ele>
        <time>2024-03-27T13:28:18Z</time>
      </trkpt>
      <trkpt lat="50.04733" lon="2.12384">
        <ele>67.3</ele>
        <time>2024-03-27T13:28:19Z</time>
      </trkpt>
      <trkpt lat="50.04733" lon="2.12382">
        <ele>67.3</ele>
        <time>2024-03-27T13:28:20Z</time>
      </trkpt>
      <trkpt lat="50.04732" lon="2.1238">
        <ele>67.2</ele>
        <time>2024-03-27T13:28:21Z</time>
      </trkpt>
      <trkpt lat="50.04732" lon="2.12378">
        <ele>67.2</ele>
        <time>2024-03-27T13:28:22Z</time>
      </trkpt>
      <trkpt lat="50.04732" lon="2.12375">
        <ele>67.2</ele>
        <time>2024-03-27T13:28:23Z</time>
      </trkpt>
      <trkpt lat="50.04732" lon="2.12373">
        <ele>67.2</ele>
        <time>2024-03-27T13:28:24Z</time>
      </trkpt>
      <trkpt lat="50.04731" lon="2.1237">
        <ele>67.2</ele>
        <time>2024-03-27T13:28:25Z</time>
      </trkpt>
      <trkpt lat="50.04731" lon="2.12369">
        <ele>67.1</ele>
        <time>2024-03-27T13:28:26Z</time>
      </trkpt>
      <trkpt lat="50.04731" lon="2.12367">
        <ele>67.1</ele>
        <time>2024-03-27T13:28:27Z</time>
      </trkpt>
      <trkpt lat="50.0473" lon="2.12364">
        <ele>67.1</ele>
        <time>2024-03-27T13:28:28Z</time>
      </trkpt>
      <trkpt lat="50.0473" lon="2.12363">
        <ele>67.1</ele>
        <time>2024-03-27T13:28:29Z</time>
      </trkpt>
      <trkpt lat="50.0473" lon="2.12362">
        <ele>67.1</ele>
        <time>2024-03-27T13:28:30Z</time>
      </trkpt>
      <trkpt lat="50.04729" lon="2.1236">
        <ele>67.1</ele>
        <time>2024-03-27T13:28:31Z</time>
      </trkpt>
      <trkpt lat="50.04729" lon="2.12358">
        <ele>67</ele>
        <time>2024-03-27T13:28:32Z</time>
      </trkpt>
      <trkpt lat="50.04729" lon="2.12356">
        <ele>67</ele>
        <time>2024-03-27T13:28:33Z</time>
      </trkpt>
      <trkpt lat="50.04728" lon="2.12353">
        <ele>67</ele>
        <time>2024-03-27T13:28:34Z</time>
      </trkpt>
      <trkpt lat="50.04728" lon="2.12352">
        <ele>67</ele>
        <time>2024-03-27T13:28:35Z</time>
      </trkpt>
      <trkpt lat="50.04728" lon="2.12351">
        <ele>67</ele>
        <time>2024-03-27T13:28:36Z</time>
      </trkpt>
      <trkpt lat="50.04728" lon="2.12349">
        <ele>66.9</ele>
        <time>2024-03-27T13:28:37Z</time>
      </trkpt>
      <trkpt lat="50.04728" lon="2.12347">
        <ele>66.9</ele>
        <time>2024-03-27T13:28:38Z</time>
      </trkpt>
      <trkpt lat="50.04728" lon="2.12345">
        <ele>66.9</ele>
        <time>2024-03-27T13:28:39Z</time>
      </trkpt>
      <trkpt lat="50.04727" lon="2.12344">
        <ele>66.9</ele>
        <time>2024-03-27T13:28:40Z</time>
      </trkpt>
      <trkpt lat="50.04727" lon="2.12342">
        <ele>66.8</ele>
        <time>2024-03-27T13:28:41Z</time>
      </trkpt>
      <trkpt lat="50.04727" lon="2.1234">
        <ele>66.8</ele>
        <time>2024-03-27T13:28:42Z</time>
      </trkpt>
      <trkpt lat="50.04727" lon="2.12338">
        <ele>66.8</ele>
        <time>2024-03-27T13:28:43Z</time>
      </trkpt>
      <trkpt lat="50.04727" lon="2.12337">
        <ele>66.8</ele>
        <time>2024-03-27T13:28:44Z</time>
      </trkpt>
      <trkpt lat="50.04727" lon="2.12335">
        <ele>66.7</ele>
        <time>2024-03-27T13:28:45Z</time>
      </trkpt>
      <trkpt lat="50.04727" lon="2.12332">
        <ele>66.7</ele>
        <time>2024-03-27T13:28:46Z</time>
      </trkpt>
      <trkpt lat="50.04727" lon="2.1233">
        <ele>66.7</ele>
        <time>2024-03-27T13:28:47Z</time>
      </trkpt>
      <trkpt lat="50.04727" lon="2.12329">
        <ele>66.7</ele>
        <time>2024-03-27T13:28:48Z</time>
      </trkpt>
      <trkpt lat="50.04727" lon="2.12327">
        <ele>66.7</ele>
        <time>2024-03-27T13:28:49Z</time>
      </trkpt>
      <trkpt lat="50.04727" lon="2.12325">
        <ele>66.7</ele>
        <time>2024-03-27T13:28:50Z</time>
      </trkpt>
      <trkpt lat="50.04727" lon="2.12324">
        <ele>66.6</ele>
        <time>2024-03-27T13:28:51Z</time>
      </trkpt>
      <trkpt lat="50.04726" lon="2.12322">
        <ele>66.6</ele>
        <time>2024-03-27T13:28:52Z</time>
      </trkpt>
      <trkpt lat="50.04726" lon="2.1232">
        <ele>66.6</ele>
        <time>2024-03-27T13:28:53Z</time>
      </trkpt>
      <trkpt lat="50.04726" lon="2.12319">
        <ele>66.6</ele>
        <time>2024-03-27T13:28:54Z</time>
      </trkpt>
      <trkpt lat="50.04726" lon="2.12317">
        <ele>66.6</ele>
        <time>2024-03-27T13:28:55Z</time>
      </trkpt>
      <trkpt lat="50.04726" lon="2.12316">
        <ele>66.6</ele>
        <time>2024-03-27T13:28:56Z</time>
      </trkpt>
      <trkpt lat="50.04726" lon="2.12314">
        <ele>66.6</ele>
        <time>2024-03-27T13:28:57Z</time>
      </trkpt>
      <trkpt lat="50.04726" lon="2.12312">
        <ele>66.6</ele>
        <time>2024-03-27T13:28:58Z</time>
      </trkpt>
      <trkpt lat="50.04725" lon="2.1231">
        <ele>66.6</ele>
        <time>2024-03-27T13:28:59Z</time>
      </trkpt>
      <trkpt lat="50.04725" lon="2.12308">
        <ele>66.6</ele>
        <time>2024-03-27T13:29:00Z</time>
      </trkpt>
      <trkpt lat="50.04725" lon="2.12307">
        <ele>66.5</ele>
        <time>2024-03-27T13:29:01Z</time>
      </trkpt>
      <trkpt lat="50.04724" lon="2.12305">
        <ele>66.5</ele>
        <time>2024-03-27T13:29:02Z</time>
      </trkpt>
      <trkpt lat="50.04724" lon="2.12303">
        <ele>66.5</ele>
        <time>2024-03-27T13:29:03Z</time>
      </trkpt>
      <trkpt lat="50.04724" lon="2.12302">
        <ele>66.5</ele>
        <time>2024-03-27T13:29:04Z</time>
      </trkpt>
      <trkpt lat="50.04724" lon="2.123">
        <ele>66.5</ele>
        <time>2024-03-27T13:29:05Z</time>
      </trkpt>
      <trkpt lat="50.04724" lon="2.12299">
        <ele>66.5</ele>
        <time>2024-03-27T13:29:06Z</time>
      </trkpt>
      <trkpt lat="50.04724" lon="2.12297">
        <ele>66.5</ele>
        <time>2024-03-27T13:29:07Z</time>
      </trkpt>
      <trkpt lat="50.04724" lon="2.12296">
        <ele>66.5</ele>
        <time>2024-03-27T13:29:08Z</time>
      </trkpt>
      <trkpt lat="50.04724" lon="2.12294">
        <ele>66.5</ele>
        <time>2024-03-27T13:29:09Z</time>
      </trkpt>
      <trkpt lat="50.04724" lon="2.12293">
        <ele>66.4</ele>
        <time>2024-03-27T13:29:10Z</time>
      </trkpt>
      <trkpt lat="50.04723" lon="2.12291">
        <ele>66.4</ele>
        <time>2024-03-27T13:29:11Z</time>
      </trkpt>
      <trkpt lat="50.04723" lon="2.12289">
        <ele>66.4</ele>
        <time>2024-03-27T13:29:12Z</time>
      </trkpt>
      <trkpt lat="50.04723" lon="2.12288">
        <ele>66.4</ele>
        <time>2024-03-27T13:29:13Z</time>
      </trkpt>
      <trkpt lat="50.04723" lon="2.12287">
        <ele>66.4</ele>
        <time>2024-03-27T13:29:14Z</time>
      </trkpt>
      <trkpt lat="50.04723" lon="2.12285">
        <ele>66.4</ele>
        <time>2024-03-27T13:29:15Z</time>
      </trkpt>
      <trkpt lat="50.04722" lon="2.12283">
        <ele>66.4</ele>
        <time>2024-03-27T13:29:16Z</time>
      </trkpt>
      <trkpt lat="50.04722" lon="2.12282">
        <ele>66.3</ele>
        <time>2024-03-27T13:29:17Z</time>
      </trkpt>
      <trkpt lat="50.04722" lon="2.1228">
        <ele>66.3</ele>
        <time>2024-03-27T13:29:18Z</time>
      </trkpt>
      <trkpt lat="50.04722" lon="2.12278">
        <ele>66.3</ele>
        <time>2024-03-27T13:29:19Z</time>
      </trkpt>
      <trkpt lat="50.04721" lon="2.12277">
        <ele>66.3</ele>
        <time>2024-03-27T13:29:20Z</time>
      </trkpt>
      <trkpt lat="50.04721" lon="2.12275">
        <ele>66.3</ele>
        <time>2024-03-27T13:29:21Z</time>
      </trkpt>
      <trkpt lat="50.04721" lon="2.12273">
        <ele>66.3</ele>
        <time>2024-03-27T13:29:22Z</time>
      </trkpt>
      <trkpt lat="50.04721" lon="2.12272">
        <ele>66.2</ele>
        <time>2024-03-27T13:29:23Z</time>
      </trkpt>
      <trkpt lat="50.04721" lon="2.1227">
        <ele>66.2</ele>
        <time>2024-03-27T13:29:24Z</time>
      </trkpt>
      <trkpt lat="50.04721" lon="2.12268">
        <ele>66.2</ele>
        <time>2024-03-27T13:29:25Z</time>
      </trkpt>
      <trkpt lat="50.0472" lon="2.12266">
        <ele>66.2</ele>
        <time>2024-03-27T13:29:26Z</time>
      </trkpt>
      <trkpt lat="50.0472" lon="2.12265">
        <ele>66.1</ele>
        <time>2024-03-27T13:29:27Z</time>
      </trkpt>
      <trkpt lat="50.0472" lon="2.12263">
        <ele>66.1</ele>
        <time>2024-03-27T13:29:28Z</time>
      </trkpt>
      <trkpt lat="50.0472" lon="2.12262">
        <ele>66.1</ele>
        <time>2024-03-27T13:29:29Z</time>
      </trkpt>
      <trkpt lat="50.0472" lon="2.1226">
        <ele>66.1</ele>
        <time>2024-03-27T13:29:30Z</time>
      </trkpt>
      <trkpt lat="50.0472" lon="2.12258">
        <ele>66</ele>
        <time>2024-03-27T13:29:31Z</time>
      </trkpt>
      <trkpt lat="50.04719" lon="2.12257">
        <ele>66</ele>
        <time>2024-03-27T13:29:32Z</time>
      </trkpt>
      <trkpt lat="50.04719" lon="2.12255">
        <ele>66</ele>
        <time>2024-03-27T13:29:33Z</time>
      </trkpt>
      <trkpt lat="50.04719" lon="2.12253">
        <ele>66</ele>
        <time>2024-03-27T13:29:34Z</time>
      </trkpt>
      <trkpt lat="50.04719" lon="2.12252">
        <ele>65.9</ele>
        <time>2024-03-27T13:29:35Z</time>
      </trkpt>
      <trkpt lat="50.04718" lon="2.1225">
        <ele>65.9</ele>
        <time>2024-03-27T13:29:36Z</time>
      </trkpt>
      <trkpt lat="50.04718" lon="2.12249">
        <ele>65.9</ele>
        <time>2024-03-27T13:29:37Z</time>
      </trkpt>
      <trkpt lat="50.04717" lon="2.12247">
        <ele>65.8</ele>
        <time>2024-03-27T13:29:38Z</time>
      </trkpt>
      <trkpt lat="50.04717" lon="2.12246">
        <ele>65.8</ele>
        <time>2024-03-27T13:29:39Z</time>
      </trkpt>
      <trkpt lat="50.04716" lon="2.12243">
        <ele>65.7</ele>
        <time>2024-03-27T13:29:40Z</time>
      </trkpt>
      <trkpt lat="50.04716" lon="2.12242">
        <ele>65.7</ele>
        <time>2024-03-27T13:29:41Z</time>
      </trkpt>
      <trkpt lat="50.04715" lon="2.1224">
        <ele>65.7</ele>
        <time>2024-03-27T13:29:42Z</time>
      </trkpt>
      <trkpt lat="50.04714" lon="2.12237">
        <ele>65.6</ele>
        <time>2024-03-27T13:29:43Z</time>
      </trkpt>
      <trkpt lat="50.04714" lon="2.12236">
        <ele>65.6</ele>
        <time>2024-03-27T13:29:44Z</time>
      </trkpt>
      <trkpt lat="50.04714" lon="2.12235">
        <ele>65.6</ele>
        <time>2024-03-27T13:29:45Z</time>
      </trkpt>
      <trkpt lat="50.04713" lon="2.12232">
        <ele>65.5</ele>
        <time>2024-03-27T13:29:46Z</time>
      </trkpt>
      <trkpt lat="50.04713" lon="2.12231">
        <ele>65.5</ele>
        <time>2024-03-27T13:29:47Z</time>
      </trkpt>
      <trkpt lat="50.04712" lon="2.1223">
        <ele>65.5</ele>
        <time>2024-03-27T13:29:48Z</time>
      </trkpt>
      <trkpt lat="50.04712" lon="2.12227">
        <ele>65.4</ele>
        <time>2024-03-27T13:29:49Z</time>
      </trkpt>
      <trkpt lat="50.04711" lon="2.12226">
        <ele>65.4</ele>
        <time>2024-03-27T13:29:50Z</time>
      </trkpt>
      <trkpt lat="50.04711" lon="2.12224">
        <ele>65.4</ele>
        <time>2024-03-27T13:29:51Z</time>
      </trkpt>
      <trkpt lat="50.04711" lon="2.12223">
        <ele>65.3</ele>
        <time>2024-03-27T13:29:52Z</time>
      </trkpt>
      <trkpt lat="50.04711" lon="2.12221">
        <ele>65.3</ele>
        <time>2024-03-27T13:29:53Z</time>
      </trkpt>
      <trkpt lat="50.04711" lon="2.12219">
        <ele>65.3</ele>
        <time>2024-03-27T13:29:54Z</time>
      </trkpt>
      <trkpt lat="50.04711" lon="2.12217">
        <ele>65.2</ele>
        <time>2024-03-27T13:29:55Z</time>
      </trkpt>
      <trkpt lat="50.04711" lon="2.12216">
        <ele>65.2</ele>
        <time>2024-03-27T13:29:56Z</time>
      </trkpt>
      <trkpt lat="50.0471" lon="2.12214">
        <ele>65.2</ele>
        <time>2024-03-27T13:29:57Z</time>
      </trkpt>
      <trkpt lat="50.0471" lon="2.12213">
        <ele>65.2</ele>
        <time>2024-03-27T13:29:58Z</time>
      </trkpt>
      <trkpt lat="50.0471" lon="2.12211">
        <ele>65.1</ele>
        <time>2024-03-27T13:29:59Z</time>
      </trkpt>
      <trkpt lat="50.0471" lon="2.12209">
        <ele>65.1</ele>
        <time>2024-03-27T13:30:00Z</time>
      </trkpt>
      <trkpt lat="50.0471" lon="2.12207">
        <ele>65.1</ele>
        <time>2024-03-27T13:30:01Z</time>
      </trkpt>
      <trkpt lat="50.0471" lon="2.12205">
        <ele>65</ele>
        <time>2024-03-27T13:30:02Z</time>
      </trkpt>
      <trkpt lat="50.0471" lon="2.12204">
        <ele>65</ele>
        <time>2024-03-27T13:30:03Z</time>
      </trkpt>
      <trkpt lat="50.0471" lon="2.12202">
        <ele>65</ele>
        <time>2024-03-27T13:30:04Z</time>
      </trkpt>
      <trkpt lat="50.04709" lon="2.122">
        <ele>65</ele>
        <time>2024-03-27T13:30:05Z</time>
      </trkpt>
      <trkpt lat="50.04709" lon="2.12198">
        <ele>65</ele>
        <time>2024-03-27T13:30:06Z</time>
      </trkpt>
      <trkpt lat="50.04709" lon="2.12197">
        <ele>64.9</ele>
        <time>2024-03-27T13:30:07Z</time>
      </trkpt>
      <trkpt lat="50.04709" lon="2.12195">
        <ele>64.9</ele>
        <time>2024-03-27T13:30:08Z</time>
      </trkpt>
      <trkpt lat="50.04708" lon="2.12194">
        <ele>64.9</ele>
        <time>2024-03-27T13:30:09Z</time>
      </trkpt>
      <trkpt lat="50.04708" lon="2.12192">
        <ele>64.9</ele>
        <time>2024-03-27T13:30:10Z</time>
      </trkpt>
      <trkpt lat="50.04707" lon="2.12191">
        <ele>64.9</ele>
        <time>2024-03-27T13:30:11Z</time>
      </trkpt>
      <trkpt lat="50.04707" lon="2.12189">
        <ele>64.8</ele>
        <time>2024-03-27T13:30:12Z</time>
      </trkpt>
      <trkpt lat="50.04706" lon="2.12187">
        <ele>64.8</ele>
        <time>2024-03-27T13:30:13Z</time>
      </trkpt>
      <trkpt lat="50.04706" lon="2.12186">
        <ele>64.8</ele>
        <time>2024-03-27T13:30:14Z</time>
      </trkpt>
      <trkpt lat="50.04705" lon="2.12184">
        <ele>64.8</ele>
        <time>2024-03-27T13:30:15Z</time>
      </trkpt>
      <trkpt lat="50.04705" lon="2.12183">
        <ele>64.8</ele>
        <time>2024-03-27T13:30:16Z</time>
      </trkpt>
      <trkpt lat="50.04705" lon="2.12181">
        <ele>64.8</ele>
        <time>2024-03-27T13:30:17Z</time>
      </trkpt>
      <trkpt lat="50.04705" lon="2.12179">
        <ele>64.7</ele>
        <time>2024-03-27T13:30:18Z</time>
      </trkpt>
      <trkpt lat="50.04704" lon="2.12176">
        <ele>64.7</ele>
        <time>2024-03-27T13:30:19Z</time>
      </trkpt>
      <trkpt lat="50.04704" lon="2.12175">
        <ele>64.7</ele>
        <time>2024-03-27T13:30:20Z</time>
      </trkpt>
      <trkpt lat="50.04703" lon="2.12174">
        <ele>64.7</ele>
        <time>2024-03-27T13:30:21Z</time>
      </trkpt>
      <trkpt lat="50.04703" lon="2.12172">
        <ele>64.7</ele>
        <time>2024-03-27T13:30:22Z</time>
      </trkpt>
      <trkpt lat="50.04703" lon="2.1217">
        <ele>64.6</ele>
        <time>2024-03-27T13:30:23Z</time>
      </trkpt>
      <trkpt lat="50.04703" lon="2.12169">
        <ele>64.6</ele>
        <time>2024-03-27T13:30:24Z</time>
      </trkpt>
      <trkpt lat="50.04702" lon="2.12167">
        <ele>64.6</ele>
        <time>2024-03-27T13:30:25Z</time>
      </trkpt>
      <trkpt lat="50.04702" lon="2.12166">
        <ele>64.6</ele>
        <time>2024-03-27T13:30:26Z</time>
      </trkpt>
      <trkpt lat="50.04702" lon="2.12164">
        <ele>64.6</ele>
        <time>2024-03-27T13:30:27Z</time>
      </trkpt>
      <trkpt lat="50.04702" lon="2.12162">
        <ele>64.6</ele>
        <time>2024-03-27T13:30:28Z</time>
      </trkpt>
      <trkpt lat="50.04702" lon="2.12161">
        <ele>64.6</ele>
        <time>2024-03-27T13:30:29Z</time>
      </trkpt>
      <trkpt lat="50.04702" lon="2.12159">
        <ele>64.5</ele>
        <time>2024-03-27T13:30:30Z</time>
      </trkpt>
      <trkpt lat="50.04701" lon="2.12157">
        <ele>64.5</ele>
        <time>2024-03-27T13:30:31Z</time>
      </trkpt>
      <trkpt lat="50.04701" lon="2.12155">
        <ele>64.5</ele>
        <time>2024-03-27T13:30:32Z</time>
      </trkpt>
      <trkpt lat="50.04701" lon="2.12154">
        <ele>64.5</ele>
        <time>2024-03-27T13:30:33Z</time>
      </trkpt>
      <trkpt lat="50.04701" lon="2.12152">
        <ele>64.5</ele>
        <time>2024-03-27T13:30:34Z</time>
      </trkpt>
      <trkpt lat="50.04701" lon="2.12151">
        <ele>64.5</ele>
        <time>2024-03-27T13:30:35Z</time>
      </trkpt>
      <trkpt lat="50.047" lon="2.12149">
        <ele>64.4</ele>
        <time>2024-03-27T13:30:36Z</time>
      </trkpt>
      <trkpt lat="50.047" lon="2.12147">
        <ele>64.4</ele>
        <time>2024-03-27T13:30:37Z</time>
      </trkpt>
      <trkpt lat="50.047" lon="2.12146">
        <ele>64.4</ele>
        <time>2024-03-27T13:30:38Z</time>
      </trkpt>
      <trkpt lat="50.04699" lon="2.12144">
        <ele>64.4</ele>
        <time>2024-03-27T13:30:39Z</time>
      </trkpt>
      <trkpt lat="50.04699" lon="2.12142">
        <ele>64.3</ele>
        <time>2024-03-27T13:30:40Z</time>
      </trkpt>
      <trkpt lat="50.04699" lon="2.1214">
        <ele>64.3</ele>
        <time>2024-03-27T13:30:41Z</time>
      </trkpt>
      <trkpt lat="50.04698" lon="2.12139">
        <ele>64.3</ele>
        <time>2024-03-27T13:30:42Z</time>
      </trkpt>
      <trkpt lat="50.04698" lon="2.12137">
        <ele>64.2</ele>
        <time>2024-03-27T13:30:43Z</time>
      </trkpt>
      <trkpt lat="50.04698" lon="2.12135">
        <ele>64.2</ele>
        <time>2024-03-27T13:30:44Z</time>
      </trkpt>
      <trkpt lat="50.04697" lon="2.12134">
        <ele>64.2</ele>
        <time>2024-03-27T13:30:45Z</time>
      </trkpt>
      <trkpt lat="50.04697" lon="2.12132">
        <ele>64.2</ele>
        <time>2024-03-27T13:30:46Z</time>
      </trkpt>
      <trkpt lat="50.04697" lon="2.1213">
        <ele>64.1</ele>
        <time>2024-03-27T13:30:47Z</time>
      </trkpt>
      <trkpt lat="50.04697" lon="2.12128">
        <ele>64.1</ele>
        <time>2024-03-27T13:30:48Z</time>
      </trkpt>
      <trkpt lat="50.04696" lon="2.12125">
        <ele>64.1</ele>
        <time>2024-03-27T13:30:49Z</time>
      </trkpt>
      <trkpt lat="50.04696" lon="2.12124">
        <ele>64</ele>
        <time>2024-03-27T13:30:50Z</time>
      </trkpt>
      <trkpt lat="50.04696" lon="2.12123">
        <ele>64</ele>
        <time>2024-03-27T13:30:51Z</time>
      </trkpt>
      <trkpt lat="50.04696" lon="2.12121">
        <ele>64</ele>
        <time>2024-03-27T13:30:52Z</time>
      </trkpt>
      <trkpt lat="50.04695" lon="2.12119">
        <ele>64</ele>
        <time>2024-03-27T13:30:53Z</time>
      </trkpt>
      <trkpt lat="50.04695" lon="2.12118">
        <ele>63.9</ele>
        <time>2024-03-27T13:30:54Z</time>
      </trkpt>
      <trkpt lat="50.04695" lon="2.12116">
        <ele>63.9</ele>
        <time>2024-03-27T13:30:55Z</time>
      </trkpt>
      <trkpt lat="50.04694" lon="2.12114">
        <ele>63.9</ele>
        <time>2024-03-27T13:30:56Z</time>
      </trkpt>
      <trkpt lat="50.04694" lon="2.12112">
        <ele>63.8</ele>
        <time>2024-03-27T13:30:57Z</time>
      </trkpt>
      <trkpt lat="50.04694" lon="2.12109">
        <ele>63.8</ele>
        <time>2024-03-27T13:30:58Z</time>
      </trkpt>
      <trkpt lat="50.04693" lon="2.12108">
        <ele>63.8</ele>
        <time>2024-03-27T13:30:59Z</time>
      </trkpt>
      <trkpt lat="50.04693" lon="2.12107">
        <ele>63.7</ele>
        <time>2024-03-27T13:31:00Z</time>
      </trkpt>
      <trkpt lat="50.04693" lon="2.12105">
        <ele>63.7</ele>
        <time>2024-03-27T13:31:01Z</time>
      </trkpt>
      <trkpt lat="50.04692" lon="2.12103">
        <ele>63.7</ele>
        <time>2024-03-27T13:31:02Z</time>
      </trkpt>
      <trkpt lat="50.04692" lon="2.12102">
        <ele>63.7</ele>
        <time>2024-03-27T13:31:03Z</time>
      </trkpt>
      <trkpt lat="50.04691" lon="2.121">
        <ele>63.6</ele>
        <time>2024-03-27T13:31:04Z</time>
      </trkpt>
      <trkpt lat="50.04691" lon="2.12099">
        <ele>63.6</ele>
        <time>2024-03-27T13:31:05Z</time>
      </trkpt>
      <trkpt lat="50.0469" lon="2.12097">
        <ele>63.6</ele>
        <time>2024-03-27T13:31:06Z</time>
      </trkpt>
      <trkpt lat="50.0469" lon="2.12095">
        <ele>63.5</ele>
        <time>2024-03-27T13:31:07Z</time>
      </trkpt>
      <trkpt lat="50.0469" lon="2.12094">
        <ele>63.5</ele>
        <time>2024-03-27T13:31:08Z</time>
      </trkpt>
      <trkpt lat="50.04689" lon="2.12092">
        <ele>63.5</ele>
        <time>2024-03-27T13:31:09Z</time>
      </trkpt>
      <trkpt lat="50.04689" lon="2.1209">
        <ele>63.5</ele>
        <time>2024-03-27T13:31:10Z</time>
      </trkpt>
      <trkpt lat="50.04689" lon="2.12089">
        <ele>63.5</ele>
        <time>2024-03-27T13:31:11Z</time>
      </trkpt>
      <trkpt lat="50.04688" lon="2.12087">
        <ele>63.4</ele>
        <time>2024-03-27T13:31:12Z</time>
      </trkpt>
      <trkpt lat="50.04687" lon="2.12086">
        <ele>63.4</ele>
        <time>2024-03-27T13:31:13Z</time>
      </trkpt>
      <trkpt lat="50.04687" lon="2.12084">
        <ele>63.4</ele>
        <time>2024-03-27T13:31:14Z</time>
      </trkpt>
      <trkpt lat="50.04687" lon="2.12083">
        <ele>63.4</ele>
        <time>2024-03-27T13:31:15Z</time>
      </trkpt>
      <trkpt lat="50.04686" lon="2.12081">
        <ele>63.4</ele>
        <time>2024-03-27T13:31:16Z</time>
      </trkpt>
      <trkpt lat="50.04686" lon="2.1208">
        <ele>63.3</ele>
        <time>2024-03-27T13:31:17Z</time>
      </trkpt>
      <trkpt lat="50.04685" lon="2.12078">
        <ele>63.3</ele>
        <time>2024-03-27T13:31:18Z</time>
      </trkpt>
      <trkpt lat="50.04685" lon="2.12076">
        <ele>63.3</ele>
        <time>2024-03-27T13:31:19Z</time>
      </trkpt>
      <trkpt lat="50.04684" lon="2.12075">
        <ele>63.3</ele>
        <time>2024-03-27T13:31:20Z</time>
      </trkpt>
      <trkpt lat="50.04684" lon="2.12073">
        <ele>63.2</ele>
        <time>2024-03-27T13:31:21Z</time>
      </trkpt>
      <trkpt lat="50.04684" lon="2.12071">
        <ele>63.2</ele>
        <time>2024-03-27T13:31:22Z</time>
      </trkpt>
      <trkpt lat="50.04684" lon="2.1207">
        <ele>63.2</ele>
        <time>2024-03-27T13:31:23Z</time>
      </trkpt>
      <trkpt lat="50.04683" lon="2.12068">
        <ele>63.2</ele>
        <time>2024-03-27T13:31:24Z</time>
      </trkpt>
      <trkpt lat="50.04683" lon="2.12067">
        <ele>63.2</ele>
        <time>2024-03-27T13:31:25Z</time>
      </trkpt>
      <trkpt lat="50.04683" lon="2.12065">
        <ele>63.1</ele>
        <time>2024-03-27T13:31:26Z</time>
      </trkpt>
      <trkpt lat="50.04683" lon="2.12063">
        <ele>63.1</ele>
        <time>2024-03-27T13:31:27Z</time>
      </trkpt>
      <trkpt lat="50.04683" lon="2.12061">
        <ele>63.1</ele>
        <time>2024-03-27T13:31:28Z</time>
      </trkpt>
      <trkpt lat="50.04682" lon="2.1206">
        <ele>63.1</ele>
        <time>2024-03-27T13:31:29Z</time>
      </trkpt>
      <trkpt lat="50.04682" lon="2.12058">
        <ele>63</ele>
        <time>2024-03-27T13:31:30Z</time>
      </trkpt>
      <trkpt lat="50.04682" lon="2.12056">
        <ele>63</ele>
        <time>2024-03-27T13:31:31Z</time>
      </trkpt>
      <trkpt lat="50.04681" lon="2.12055">
        <ele>63</ele>
        <time>2024-03-27T13:31:32Z</time>
      </trkpt>
      <trkpt lat="50.04681" lon="2.12053">
        <ele>63</ele>
        <time>2024-03-27T13:31:33Z</time>
      </trkpt>
      <trkpt lat="50.04681" lon="2.12052">
        <ele>63</ele>
        <time>2024-03-27T13:31:34Z</time>
      </trkpt>
      <trkpt lat="50.0468" lon="2.1205">
        <ele>62.9</ele>
        <time>2024-03-27T13:31:35Z</time>
      </trkpt>
      <trkpt lat="50.0468" lon="2.12048">
        <ele>62.9</ele>
        <time>2024-03-27T13:31:36Z</time>
      </trkpt>
      <trkpt lat="50.0468" lon="2.12045">
        <ele>62.9</ele>
        <time>2024-03-27T13:31:37Z</time>
      </trkpt>
      <trkpt lat="50.0468" lon="2.12044">
        <ele>62.9</ele>
        <time>2024-03-27T13:31:38Z</time>
      </trkpt>
      <trkpt lat="50.0468" lon="2.12043">
        <ele>62.9</ele>
        <time>2024-03-27T13:31:39Z</time>
      </trkpt>
      <trkpt lat="50.0468" lon="2.12041">
        <ele>62.8</ele>
        <time>2024-03-27T13:31:40Z</time>
      </trkpt>
      <trkpt lat="50.0468" lon="2.12039">
        <ele>62.8</ele>
        <time>2024-03-27T13:31:41Z</time>
      </trkpt>
      <trkpt lat="50.0468" lon="2.12037">
        <ele>62.8</ele>
        <time>2024-03-27T13:31:42Z</time>
      </trkpt>
      <trkpt lat="50.04679" lon="2.12036">
        <ele>62.8</ele>
        <time>2024-03-27T13:31:43Z</time>
      </trkpt>
      <trkpt lat="50.04679" lon="2.12034">
        <ele>62.8</ele>
        <time>2024-03-27T13:31:44Z</time>
      </trkpt>
      <trkpt lat="50.04678" lon="2.12032">
        <ele>62.7</ele>
        <time>2024-03-27T13:31:45Z</time>
      </trkpt>
      <trkpt lat="50.04678" lon="2.12031">
        <ele>62.7</ele>
        <time>2024-03-27T13:31:46Z</time>
      </trkpt>
      <trkpt lat="50.04678" lon="2.1203">
        <ele>62.7</ele>
        <time>2024-03-27T13:31:47Z</time>
      </trkpt>
      <trkpt lat="50.04677" lon="2.12028">
        <ele>62.7</ele>
        <time>2024-03-27T13:31:48Z</time>
      </trkpt>
      <trkpt lat="50.04677" lon="2.12026">
        <ele>62.7</ele>
        <time>2024-03-27T13:31:49Z</time>
      </trkpt>
      <trkpt lat="50.04676" lon="2.12025">
        <ele>62.6</ele>
        <time>2024-03-27T13:31:50Z</time>
      </trkpt>
      <trkpt lat="50.04676" lon="2.12023">
        <ele>62.6</ele>
        <time>2024-03-27T13:31:51Z</time>
      </trkpt>
      <trkpt lat="50.04676" lon="2.12021">
        <ele>62.6</ele>
        <time>2024-03-27T13:31:52Z</time>
      </trkpt>
      <trkpt lat="50.04675" lon="2.12019">
        <ele>62.6</ele>
        <time>2024-03-27T13:31:53Z</time>
      </trkpt>
      <trkpt lat="50.04675" lon="2.12017">
        <ele>62.6</ele>
        <time>2024-03-27T13:31:54Z</time>
      </trkpt>
      <trkpt lat="50.04675" lon="2.12016">
        <ele>62.6</ele>
        <time>2024-03-27T13:31:55Z</time>
      </trkpt>
      <trkpt lat="50.04674" lon="2.12014">
        <ele>62.5</ele>
        <time>2024-03-27T13:31:56Z</time>
      </trkpt>
      <trkpt lat="50.04674" lon="2.12013">
        <ele>62.5</ele>
        <time>2024-03-27T13:31:57Z</time>
      </trkpt>
      <trkpt lat="50.04674" lon="2.12011">
        <ele>62.5</ele>
        <time>2024-03-27T13:31:58Z</time>
      </trkpt>
      <trkpt lat="50.04673" lon="2.1201">
        <ele>62.5</ele>
        <time>2024-03-27T13:31:59Z</time>
      </trkpt>
      <trkpt lat="50.04673" lon="2.12008">
        <ele>62.5</ele>
        <time>2024-03-27T13:32:00Z</time>
      </trkpt>
      <trkpt lat="50.04672" lon="2.12005">
        <ele>62.5</ele>
        <time>2024-03-27T13:32:01Z</time>
      </trkpt>
      <trkpt lat="50.04672" lon="2.12004">
        <ele>62.4</ele>
        <time>2024-03-27T13:32:02Z</time>
      </trkpt>
      <trkpt lat="50.04672" lon="2.12003">
        <ele>62.4</ele>
        <time>2024-03-27T13:32:03Z</time>
      </trkpt>
      <trkpt lat="50.04671" lon="2.12">
        <ele>62.4</ele>
        <time>2024-03-27T13:32:04Z</time>
      </trkpt>
      <trkpt lat="50.04671" lon="2.11998">
        <ele>62.4</ele>
        <time>2024-03-27T13:32:05Z</time>
      </trkpt>
      <trkpt lat="50.0467" lon="2.11997">
        <ele>62.4</ele>
        <time>2024-03-27T13:32:06Z</time>
      </trkpt>
      <trkpt lat="50.0467" lon="2.11994">
        <ele>62.3</ele>
        <time>2024-03-27T13:32:07Z</time>
      </trkpt>
      <trkpt lat="50.04669" lon="2.11993">
        <ele>62.3</ele>
        <time>2024-03-27T13:32:08Z</time>
      </trkpt>
      <trkpt lat="50.04669" lon="2.11992">
        <ele>62.3</ele>
        <time>2024-03-27T13:32:09Z</time>
      </trkpt>
      <trkpt lat="50.04669" lon="2.11991">
        <ele>62.3</ele>
        <time>2024-03-27T13:32:10Z</time>
      </trkpt>
      <trkpt lat="50.04668" lon="2.11989">
        <ele>62.3</ele>
        <time>2024-03-27T13:32:11Z</time>
      </trkpt>
      <trkpt lat="50.04668" lon="2.11988">
        <ele>62.2</ele>
        <time>2024-03-27T13:32:12Z</time>
      </trkpt>
      <trkpt lat="50.04668" lon="2.11986">
        <ele>62.2</ele>
        <time>2024-03-27T13:32:13Z</time>
      </trkpt>
      <trkpt lat="50.04668" lon="2.11984">
        <ele>62.2</ele>
        <time>2024-03-27T13:32:14Z</time>
      </trkpt>
      <trkpt lat="50.04668" lon="2.11983">
        <ele>62.2</ele>
        <time>2024-03-27T13:32:15Z</time>
      </trkpt>
      <trkpt lat="50.04667" lon="2.11981">
        <ele>62.2</ele>
        <time>2024-03-27T13:32:16Z</time>
      </trkpt>
      <trkpt lat="50.04667" lon="2.1198">
        <ele>62.1</ele>
        <time>2024-03-27T13:32:17Z</time>
      </trkpt>
      <trkpt lat="50.04667" lon="2.11978">
        <ele>62.1</ele>
        <time>2024-03-27T13:32:18Z</time>
      </trkpt>
      <trkpt lat="50.04667" lon="2.11977">
        <ele>62.1</ele>
        <time>2024-03-27T13:32:19Z</time>
      </trkpt>
      <trkpt lat="50.04666" lon="2.11975">
        <ele>62.1</ele>
        <time>2024-03-27T13:32:20Z</time>
      </trkpt>
      <trkpt lat="50.04666" lon="2.11974">
        <ele>62.1</ele>
        <time>2024-03-27T13:32:21Z</time>
      </trkpt>
      <trkpt lat="50.04666" lon="2.11972">
        <ele>62.1</ele>
        <time>2024-03-27T13:32:22Z</time>
      </trkpt>
      <trkpt lat="50.04666" lon="2.11971">
        <ele>62</ele>
        <time>2024-03-27T13:32:23Z</time>
      </trkpt>
      <trkpt lat="50.04666" lon="2.11969">
        <ele>62</ele>
        <time>2024-03-27T13:32:24Z</time>
      </trkpt>
      <trkpt lat="50.04666" lon="2.11968">
        <ele>62</ele>
        <time>2024-03-27T13:32:25Z</time>
      </trkpt>
      <trkpt lat="50.04666" lon="2.11966">
        <ele>62</ele>
        <time>2024-03-27T13:32:26Z</time>
      </trkpt>
      <trkpt lat="50.04666" lon="2.11964">
        <ele>62</ele>
        <time>2024-03-27T13:32:27Z</time>
      </trkpt>
      <trkpt lat="50.04665" lon="2.11963">
        <ele>62</ele>
        <time>2024-03-27T13:32:28Z</time>
      </trkpt>
      <trkpt lat="50.04665" lon="2.11961">
        <ele>62</ele>
        <time>2024-03-27T13:32:29Z</time>
      </trkpt>
      <trkpt lat="50.04665" lon="2.1196">
        <ele>61.9</ele>
        <time>2024-03-27T13:32:30Z</time>
      </trkpt>
      <trkpt lat="50.04664" lon="2.11959">
        <ele>61.9</ele>
        <time>2024-03-27T13:32:31Z</time>
      </trkpt>
      <trkpt lat="50.04664" lon="2.11957">
        <ele>61.9</ele>
        <time>2024-03-27T13:32:32Z</time>
      </trkpt>
      <trkpt lat="50.04664" lon="2.11955">
        <ele>61.9</ele>
        <time>2024-03-27T13:32:33Z</time>
      </trkpt>
      <trkpt lat="50.04663" lon="2.11954">
        <ele>61.9</ele>
        <time>2024-03-27T13:32:34Z</time>
      </trkpt>
      <trkpt lat="50.04663" lon="2.11952">
        <ele>61.9</ele>
        <time>2024-03-27T13:32:35Z</time>
      </trkpt>
      <trkpt lat="50.04663" lon="2.1195">
        <ele>61.8</ele>
        <time>2024-03-27T13:32:36Z</time>
      </trkpt>
      <trkpt lat="50.04662" lon="2.11949">
        <ele>61.8</ele>
        <time>2024-03-27T13:32:37Z</time>
      </trkpt>
      <trkpt lat="50.04662" lon="2.11947">
        <ele>61.8</ele>
        <time>2024-03-27T13:32:38Z</time>
      </trkpt>
      <trkpt lat="50.04662" lon="2.11945">
        <ele>61.8</ele>
        <time>2024-03-27T13:32:39Z</time>
      </trkpt>
      <trkpt lat="50.04662" lon="2.11944">
        <ele>61.8</ele>
        <time>2024-03-27T13:32:40Z</time>
      </trkpt>
      <trkpt lat="50.04661" lon="2.11942">
        <ele>61.7</ele>
        <time>2024-03-27T13:32:41Z</time>
      </trkpt>
      <trkpt lat="50.04661" lon="2.11941">
        <ele>61.7</ele>
        <time>2024-03-27T13:32:42Z</time>
      </trkpt>
      <trkpt lat="50.04661" lon="2.11939">
        <ele>61.7</ele>
        <time>2024-03-27T13:32:43Z</time>
      </trkpt>
      <trkpt lat="50.0466" lon="2.11937">
        <ele>61.7</ele>
        <time>2024-03-27T13:32:44Z</time>
      </trkpt>
      <trkpt lat="50.0466" lon="2.11936">
        <ele>61.6</ele>
        <time>2024-03-27T13:32:45Z</time>
      </trkpt>
      <trkpt lat="50.0466" lon="2.11934">
        <ele>61.6</ele>
        <time>2024-03-27T13:32:46Z</time>
      </trkpt>
      <trkpt lat="50.0466" lon="2.11933">
        <ele>61.6</ele>
        <time>2024-03-27T13:32:47Z</time>
      </trkpt>
      <trkpt lat="50.04659" lon="2.11931">
        <ele>61.5</ele>
        <time>2024-03-27T13:32:48Z</time>
      </trkpt>
      <trkpt lat="50.04659" lon="2.1193">
        <ele>61.5</ele>
        <time>2024-03-27T13:32:49Z</time>
      </trkpt>
      <trkpt lat="50.04659" lon="2.11929">
        <ele>61.5</ele>
        <time>2024-03-27T13:32:50Z</time>
      </trkpt>
      <trkpt lat="50.04658" lon="2.11927">
        <ele>61.5</ele>
        <time>2024-03-27T13:32:51Z</time>
      </trkpt>
      <trkpt lat="50.04658" lon="2.11925">
        <ele>61.4</ele>
        <time>2024-03-27T13:32:52Z</time>
      </trkpt>
      <trkpt lat="50.04657" lon="2.11924">
        <ele>61.4</ele>
        <time>2024-03-27T13:32:53Z</time>
      </trkpt>
      <trkpt lat="50.04657" lon="2.11922">
        <ele>61.4</ele>
        <time>2024-03-27T13:32:54Z</time>
      </trkpt>
      <trkpt lat="50.04657" lon="2.1192">
        <ele>61.3</ele>
        <time>2024-03-27T13:32:55Z</time>
      </trkpt>
      <trkpt lat="50.04656" lon="2.11919">
        <ele>61.3</ele>
        <time>2024-03-27T13:32:56Z</time>
      </trkpt>
      <trkpt lat="50.04656" lon="2.11917">
        <ele>61.3</ele>
        <time>2024-03-27T13:32:57Z</time>
      </trkpt>
      <trkpt lat="50.04655" lon="2.11916">
        <ele>61.3</ele>
        <time>2024-03-27T13:32:58Z</time>
      </trkpt>
      <trkpt lat="50.04654" lon="2.11913">
        <ele>61.2</ele>
        <time>2024-03-27T13:32:59Z</time>
      </trkpt>
      <trkpt lat="50.04654" lon="2.11912">
        <ele>61.2</ele>
        <time>2024-03-27T13:33:00Z</time>
      </trkpt>
      <trkpt lat="50.04653" lon="2.11911">
        <ele>61.2</ele>
        <time>2024-03-27T13:33:01Z</time>
      </trkpt>
      <trkpt lat="50.04652" lon="2.11908">
        <ele>61.1</ele>
        <time>2024-03-27T13:33:02Z</time>
      </trkpt>
      <trkpt lat="50.04652" lon="2.11907">
        <ele>61.1</ele>
        <time>2024-03-27T13:33:03Z</time>
      </trkpt>
      <trkpt lat="50.04652" lon="2.11906">
        <ele>61.1</ele>
        <time>2024-03-27T13:33:04Z</time>
      </trkpt>
      <trkpt lat="50.04651" lon="2.11904">
        <ele>61</ele>
        <time>2024-03-27T13:33:05Z</time>
      </trkpt>
      <trkpt lat="50.04651" lon="2.11902">
        <ele>61</ele>
        <time>2024-03-27T13:33:06Z</time>
      </trkpt>
      <trkpt lat="50.0465" lon="2.11901">
        <ele>61</ele>
        <time>2024-03-27T13:33:07Z</time>
      </trkpt>
      <trkpt lat="50.0465" lon="2.11899">
        <ele>61</ele>
        <time>2024-03-27T13:33:08Z</time>
      </trkpt>
      <trkpt lat="50.04649" lon="2.11898">
        <ele>60.9</ele>
        <time>2024-03-27T13:33:09Z</time>
      </trkpt>
      <trkpt lat="50.04649" lon="2.11896">
        <ele>60.9</ele>
        <time>2024-03-27T13:33:10Z</time>
      </trkpt>
      <trkpt lat="50.04648" lon="2.11894">
        <ele>60.9</ele>
        <time>2024-03-27T13:33:11Z</time>
      </trkpt>
      <trkpt lat="50.04648" lon="2.11893">
        <ele>60.9</ele>
        <time>2024-03-27T13:33:12Z</time>
      </trkpt>
      <trkpt lat="50.04648" lon="2.11891">
        <ele>60.8</ele>
        <time>2024-03-27T13:33:13Z</time>
      </trkpt>
      <trkpt lat="50.04647" lon="2.11889">
        <ele>60.8</ele>
        <time>2024-03-27T13:33:14Z</time>
      </trkpt>
      <trkpt lat="50.04647" lon="2.11888">
        <ele>60.8</ele>
        <time>2024-03-27T13:33:15Z</time>
      </trkpt>
      <trkpt lat="50.04646" lon="2.11886">
        <ele>60.8</ele>
        <time>2024-03-27T13:33:16Z</time>
      </trkpt>
      <trkpt lat="50.04646" lon="2.11885">
        <ele>60.8</ele>
        <time>2024-03-27T13:33:17Z</time>
      </trkpt>
      <trkpt lat="50.04646" lon="2.11883">
        <ele>60.7</ele>
        <time>2024-03-27T13:33:18Z</time>
      </trkpt>
      <trkpt lat="50.04645" lon="2.11881">
        <ele>60.7</ele>
        <time>2024-03-27T13:33:19Z</time>
      </trkpt>
      <trkpt lat="50.04645" lon="2.1188">
        <ele>60.7</ele>
        <time>2024-03-27T13:33:20Z</time>
      </trkpt>
      <trkpt lat="50.04645" lon="2.11878">
        <ele>60.7</ele>
        <time>2024-03-27T13:33:21Z</time>
      </trkpt>
      <trkpt lat="50.04644" lon="2.11876">
        <ele>60.7</ele>
        <time>2024-03-27T13:33:22Z</time>
      </trkpt>
      <trkpt lat="50.04644" lon="2.11875">
        <ele>60.7</ele>
        <time>2024-03-27T13:33:23Z</time>
      </trkpt>
      <trkpt lat="50.04644" lon="2.11873">
        <ele>60.6</ele>
        <time>2024-03-27T13:33:24Z</time>
      </trkpt>
      <trkpt lat="50.04643" lon="2.11872">
        <ele>60.6</ele>
        <time>2024-03-27T13:33:25Z</time>
      </trkpt>
      <trkpt lat="50.04643" lon="2.1187">
        <ele>60.6</ele>
        <time>2024-03-27T13:33:26Z</time>
      </trkpt>
      <trkpt lat="50.04643" lon="2.11869">
        <ele>60.6</ele>
        <time>2024-03-27T13:33:27Z</time>
      </trkpt>
      <trkpt lat="50.04642" lon="2.11867">
        <ele>60.6</ele>
        <time>2024-03-27T13:33:28Z</time>
      </trkpt>
      <trkpt lat="50.04642" lon="2.11865">
        <ele>60.6</ele>
        <time>2024-03-27T13:33:29Z</time>
      </trkpt>
      <trkpt lat="50.04641" lon="2.11864">
        <ele>60.5</ele>
        <time>2024-03-27T13:33:30Z</time>
      </trkpt>
      <trkpt lat="50.04641" lon="2.11862">
        <ele>60.5</ele>
        <time>2024-03-27T13:33:31Z</time>
      </trkpt>
      <trkpt lat="50.04641" lon="2.11861">
        <ele>60.5</ele>
        <time>2024-03-27T13:33:32Z</time>
      </trkpt>
      <trkpt lat="50.0464" lon="2.11859">
        <ele>60.5</ele>
        <time>2024-03-27T13:33:33Z</time>
      </trkpt>
      <trkpt lat="50.0464" lon="2.11858">
        <ele>60.5</ele>
        <time>2024-03-27T13:33:34Z</time>
      </trkpt>
      <trkpt lat="50.04639" lon="2.11857">
        <ele>60.5</ele>
        <time>2024-03-27T13:33:35Z</time>
      </trkpt>
      <trkpt lat="50.04638" lon="2.11855">
        <ele>60.4</ele>
        <time>2024-03-27T13:33:36Z</time>
      </trkpt>
      <trkpt lat="50.04638" lon="2.11853">
        <ele>60.4</ele>
        <time>2024-03-27T13:33:37Z</time>
      </trkpt>
      <trkpt lat="50.04637" lon="2.11852">
        <ele>60.4</ele>
        <time>2024-03-27T13:33:38Z</time>
      </trkpt>
      <trkpt lat="50.04637" lon="2.1185">
        <ele>60.4</ele>
        <time>2024-03-27T13:33:39Z</time>
      </trkpt>
      <trkpt lat="50.04636" lon="2.11849">
        <ele>60.3</ele>
        <time>2024-03-27T13:33:40Z</time>
      </trkpt>
      <trkpt lat="50.04636" lon="2.11848">
        <ele>60.3</ele>
        <time>2024-03-27T13:33:41Z</time>
      </trkpt>
      <trkpt lat="50.04635" lon="2.11846">
        <ele>60.3</ele>
        <time>2024-03-27T13:33:42Z</time>
      </trkpt>
      <trkpt lat="50.04634" lon="2.11845">
        <ele>60.3</ele>
        <time>2024-03-27T13:33:43Z</time>
      </trkpt>
      <trkpt lat="50.04634" lon="2.11843">
        <ele>60.3</ele>
        <time>2024-03-27T13:33:44Z</time>
      </trkpt>
      <trkpt lat="50.04633" lon="2.11842">
        <ele>60.2</ele>
        <time>2024-03-27T13:33:45Z</time>
      </trkpt>
      <trkpt lat="50.04632" lon="2.1184">
        <ele>60.2</ele>
        <time>2024-03-27T13:33:46Z</time>
      </trkpt>
      <trkpt lat="50.04632" lon="2.11839">
        <ele>60.2</ele>
        <time>2024-03-27T13:33:47Z</time>
      </trkpt>
      <trkpt lat="50.04631" lon="2.11837">
        <ele>60.2</ele>
        <time>2024-03-27T13:33:48Z</time>
      </trkpt>
      <trkpt lat="50.04631" lon="2.11836">
        <ele>60.1</ele>
        <time>2024-03-27T13:33:49Z</time>
      </trkpt>
      <trkpt lat="50.0463" lon="2.11834">
        <ele>60.1</ele>
        <time>2024-03-27T13:33:50Z</time>
      </trkpt>
      <trkpt lat="50.04629" lon="2.11833">
        <ele>60.1</ele>
        <time>2024-03-27T13:33:51Z</time>
      </trkpt>
      <trkpt lat="50.04629" lon="2.11832">
        <ele>60.1</ele>
        <time>2024-03-27T13:33:52Z</time>
      </trkpt>
      <trkpt lat="50.04628" lon="2.1183">
        <ele>60.1</ele>
        <time>2024-03-27T13:33:53Z</time>
      </trkpt>
      <trkpt lat="50.04628" lon="2.11829">
        <ele>60</ele>
        <time>2024-03-27T13:33:54Z</time>
      </trkpt>
      <trkpt lat="50.04627" lon="2.11827">
        <ele>60</ele>
        <time>2024-03-27T13:33:55Z</time>
      </trkpt>
      <trkpt lat="50.04627" lon="2.11825">
        <ele>60</ele>
        <time>2024-03-27T13:33:56Z</time>
      </trkpt>
      <trkpt lat="50.04626" lon="2.11824">
        <ele>60</ele>
        <time>2024-03-27T13:33:57Z</time>
      </trkpt>
      <trkpt lat="50.04626" lon="2.11822">
        <ele>60</ele>
        <time>2024-03-27T13:33:58Z</time>
      </trkpt>
      <trkpt lat="50.04625" lon="2.11821">
        <ele>59.9</ele>
        <time>2024-03-27T13:33:59Z</time>
      </trkpt>
      <trkpt lat="50.04625" lon="2.11819">
        <ele>59.9</ele>
        <time>2024-03-27T13:34:00Z</time>
      </trkpt>
      <trkpt lat="50.04624" lon="2.11817">
        <ele>59.9</ele>
        <time>2024-03-27T13:34:01Z</time>
      </trkpt>
      <trkpt lat="50.04624" lon="2.11816">
        <ele>59.9</ele>
        <time>2024-03-27T13:34:02Z</time>
      </trkpt>
      <trkpt lat="50.04624" lon="2.11814">
        <ele>59.9</ele>
        <time>2024-03-27T13:34:03Z</time>
      </trkpt>
      <trkpt lat="50.04623" lon="2.11812">
        <ele>59.8</ele>
        <time>2024-03-27T13:34:04Z</time>
      </trkpt>
      <trkpt lat="50.04623" lon="2.11811">
        <ele>59.8</ele>
        <time>2024-03-27T13:34:05Z</time>
      </trkpt>
      <trkpt lat="50.04623" lon="2.11809">
        <ele>59.8</ele>
        <time>2024-03-27T13:34:06Z</time>
      </trkpt>
      <trkpt lat="50.04622" lon="2.11808">
        <ele>59.8</ele>
        <time>2024-03-27T13:34:07Z</time>
      </trkpt>
      <trkpt lat="50.04622" lon="2.11806">
        <ele>59.8</ele>
        <time>2024-03-27T13:34:08Z</time>
      </trkpt>
      <trkpt lat="50.04622" lon="2.11805">
        <ele>59.8</ele>
        <time>2024-03-27T13:34:09Z</time>
      </trkpt>
      <trkpt lat="50.04621" lon="2.11803">
        <ele>59.8</ele>
        <time>2024-03-27T13:34:10Z</time>
      </trkpt>
      <trkpt lat="50.04621" lon="2.11802">
        <ele>59.7</ele>
        <time>2024-03-27T13:34:11Z</time>
      </trkpt>
      <trkpt lat="50.0462" lon="2.118">
        <ele>59.7</ele>
        <time>2024-03-27T13:34:12Z</time>
      </trkpt>
      <trkpt lat="50.0462" lon="2.11799">
        <ele>59.7</ele>
        <time>2024-03-27T13:34:13Z</time>
      </trkpt>
      <trkpt lat="50.04619" lon="2.11797">
        <ele>59.7</ele>
        <time>2024-03-27T13:34:14Z</time>
      </trkpt>
      <trkpt lat="50.04619" lon="2.11796">
        <ele>59.7</ele>
        <time>2024-03-27T13:34:15Z</time>
      </trkpt>
      <trkpt lat="50.04618" lon="2.11794">
        <ele>59.7</ele>
        <time>2024-03-27T13:34:16Z</time>
      </trkpt>
      <trkpt lat="50.04618" lon="2.11793">
        <ele>59.7</ele>
        <time>2024-03-27T13:34:17Z</time>
      </trkpt>
      <trkpt lat="50.04618" lon="2.11791">
        <ele>59.7</ele>
        <time>2024-03-27T13:34:18Z</time>
      </trkpt>
      <trkpt lat="50.04617" lon="2.11789">
        <ele>59.6</ele>
        <time>2024-03-27T13:34:19Z</time>
      </trkpt>
      <trkpt lat="50.04617" lon="2.11788">
        <ele>59.6</ele>
        <time>2024-03-27T13:34:20Z</time>
      </trkpt>
      <trkpt lat="50.04617" lon="2.11786">
        <ele>59.6</ele>
        <time>2024-03-27T13:34:21Z</time>
      </trkpt>
      <trkpt lat="50.04616" lon="2.11785">
        <ele>59.6</ele>
        <time>2024-03-27T13:34:22Z</time>
      </trkpt>
      <trkpt lat="50.04616" lon="2.11783">
        <ele>59.6</ele>
        <time>2024-03-27T13:34:23Z</time>
      </trkpt>
      <trkpt lat="50.04615" lon="2.11782">
        <ele>59.6</ele>
        <time>2024-03-27T13:34:24Z</time>
      </trkpt>
      <trkpt lat="50.04615" lon="2.1178">
        <ele>59.6</ele>
        <time>2024-03-27T13:34:25Z</time>
      </trkpt>
      <trkpt lat="50.04614" lon="2.11779">
        <ele>59.6</ele>
        <time>2024-03-27T13:34:26Z</time>
      </trkpt>
      <trkpt lat="50.04613" lon="2.11777">
        <ele>59.5</ele>
        <time>2024-03-27T13:34:27Z</time>
      </trkpt>
      <trkpt lat="50.04613" lon="2.11776">
        <ele>59.5</ele>
        <time>2024-03-27T13:34:28Z</time>
      </trkpt>
      <trkpt lat="50.04612" lon="2.11774">
        <ele>59.5</ele>
        <time>2024-03-27T13:34:29Z</time>
      </trkpt>
      <trkpt lat="50.04612" lon="2.11773">
        <ele>59.5</ele>
        <time>2024-03-27T13:34:30Z</time>
      </trkpt>
      <trkpt lat="50.04611" lon="2.11771">
        <ele>59.5</ele>
        <time>2024-03-27T13:34:31Z</time>
      </trkpt>
      <trkpt lat="50.04611" lon="2.1177">
        <ele>59.5</ele>
        <time>2024-03-27T13:34:32Z</time>
      </trkpt>
      <trkpt lat="50.04611" lon="2.11768">
        <ele>59.4</ele>
        <time>2024-03-27T13:34:33Z</time>
      </trkpt>
      <trkpt lat="50.0461" lon="2.11767">
        <ele>59.4</ele>
        <time>2024-03-27T13:34:34Z</time>
      </trkpt>
      <trkpt lat="50.0461" lon="2.11765">
        <ele>59.4</ele>
        <time>2024-03-27T13:34:35Z</time>
      </trkpt>
      <trkpt lat="50.04609" lon="2.11764">
        <ele>59.4</ele>
        <time>2024-03-27T13:34:36Z</time>
      </trkpt>
      <trkpt lat="50.04609" lon="2.11762">
        <ele>59.4</ele>
        <time>2024-03-27T13:34:37Z</time>
      </trkpt>
      <trkpt lat="50.04608" lon="2.11761">
        <ele>59.3</ele>
        <time>2024-03-27T13:34:38Z</time>
      </trkpt>
      <trkpt lat="50.04608" lon="2.11759">
        <ele>59.3</ele>
        <time>2024-03-27T13:34:39Z</time>
      </trkpt>
      <trkpt lat="50.04607" lon="2.11758">
        <ele>59.3</ele>
        <time>2024-03-27T13:34:40Z</time>
      </trkpt>
      <trkpt lat="50.04607" lon="2.11756">
        <ele>59.3</ele>
        <time>2024-03-27T13:34:41Z</time>
      </trkpt>
      <trkpt lat="50.04606" lon="2.11755">
        <ele>59.3</ele>
        <time>2024-03-27T13:34:42Z</time>
      </trkpt>
      <trkpt lat="50.04606" lon="2.11753">
        <ele>59.2</ele>
        <time>2024-03-27T13:34:43Z</time>
      </trkpt>
      <trkpt lat="50.04606" lon="2.11751">
        <ele>59.2</ele>
        <time>2024-03-27T13:34:44Z</time>
      </trkpt>
      <trkpt lat="50.04605" lon="2.1175">
        <ele>59.2</ele>
        <time>2024-03-27T13:34:45Z</time>
      </trkpt>
      <trkpt lat="50.04605" lon="2.11748">
        <ele>59.2</ele>
        <time>2024-03-27T13:34:46Z</time>
      </trkpt>
      <trkpt lat="50.04604" lon="2.11747">
        <ele>59.1</ele>
        <time>2024-03-27T13:34:47Z</time>
      </trkpt>
      <trkpt lat="50.04604" lon="2.11745">
        <ele>59.1</ele>
        <time>2024-03-27T13:34:48Z</time>
      </trkpt>
      <trkpt lat="50.04603" lon="2.11744">
        <ele>59.1</ele>
        <time>2024-03-27T13:34:49Z</time>
      </trkpt>
      <trkpt lat="50.04603" lon="2.11742">
        <ele>59.1</ele>
        <time>2024-03-27T13:34:50Z</time>
      </trkpt>
      <trkpt lat="50.04603" lon="2.11741">
        <ele>59.1</ele>
        <time>2024-03-27T13:34:51Z</time>
      </trkpt>
      <trkpt lat="50.04602" lon="2.11739">
        <ele>59</ele>
        <time>2024-03-27T13:34:52Z</time>
      </trkpt>
      <trkpt lat="50.04602" lon="2.11738">
        <ele>59</ele>
        <time>2024-03-27T13:34:53Z</time>
      </trkpt>
      <trkpt lat="50.04602" lon="2.11736">
        <ele>59</ele>
        <time>2024-03-27T13:34:54Z</time>
      </trkpt>
      <trkpt lat="50.04601" lon="2.11734">
        <ele>59</ele>
        <time>2024-03-27T13:34:55Z</time>
      </trkpt>
      <trkpt lat="50.04601" lon="2.11732">
        <ele>58.9</ele>
        <time>2024-03-27T13:34:56Z</time>
      </trkpt>
      <trkpt lat="50.04601" lon="2.11731">
        <ele>58.9</ele>
        <time>2024-03-27T13:34:57Z</time>
      </trkpt>
      <trkpt lat="50.046" lon="2.11729">
        <ele>58.9</ele>
        <time>2024-03-27T13:34:58Z</time>
      </trkpt>
      <trkpt lat="50.046" lon="2.11727">
        <ele>58.9</ele>
        <time>2024-03-27T13:34:59Z</time>
      </trkpt>
      <trkpt lat="50.04599" lon="2.11726">
        <ele>58.8</ele>
        <time>2024-03-27T13:35:00Z</time>
      </trkpt>
      <trkpt lat="50.04599" lon="2.11724">
        <ele>58.8</ele>
        <time>2024-03-27T13:35:01Z</time>
      </trkpt>
      <trkpt lat="50.04598" lon="2.11723">
        <ele>58.8</ele>
        <time>2024-03-27T13:35:02Z</time>
      </trkpt>
      <trkpt lat="50.04598" lon="2.11721">
        <ele>58.8</ele>
        <time>2024-03-27T13:35:03Z</time>
      </trkpt>
      <trkpt lat="50.04597" lon="2.11719">
        <ele>58.8</ele>
        <time>2024-03-27T13:35:04Z</time>
      </trkpt>
      <trkpt lat="50.04597" lon="2.11718">
        <ele>58.7</ele>
        <time>2024-03-27T13:35:05Z</time>
      </trkpt>
      <trkpt lat="50.04597" lon="2.11717">
        <ele>58.7</ele>
        <time>2024-03-27T13:35:06Z</time>
      </trkpt>
      <trkpt lat="50.04596" lon="2.11715">
        <ele>58.7</ele>
        <time>2024-03-27T13:35:07Z</time>
      </trkpt>
      <trkpt lat="50.04596" lon="2.11714">
        <ele>58.7</ele>
        <time>2024-03-27T13:35:08Z</time>
      </trkpt>
      <trkpt lat="50.04595" lon="2.11712">
        <ele>58.7</ele>
        <time>2024-03-27T13:35:09Z</time>
      </trkpt>
      <trkpt lat="50.04595" lon="2.11711">
        <ele>58.6</ele>
        <time>2024-03-27T13:35:10Z</time>
      </trkpt>
      <trkpt lat="50.04595" lon="2.11709">
        <ele>58.6</ele>
        <time>2024-03-27T13:35:11Z</time>
      </trkpt>
      <trkpt lat="50.04594" lon="2.11708">
        <ele>58.6</ele>
        <time>2024-03-27T13:35:12Z</time>
      </trkpt>
      <trkpt lat="50.04594" lon="2.11706">
        <ele>58.6</ele>
        <time>2024-03-27T13:35:13Z</time>
      </trkpt>
      <trkpt lat="50.04593" lon="2.11705">
        <ele>58.6</ele>
        <time>2024-03-27T13:35:14Z</time>
      </trkpt>
      <trkpt lat="50.04593" lon="2.11703">
        <ele>58.5</ele>
        <time>2024-03-27T13:35:15Z</time>
      </trkpt>
      <trkpt lat="50.04593" lon="2.11702">
        <ele>58.5</ele>
        <time>2024-03-27T13:35:16Z</time>
      </trkpt>
      <trkpt lat="50.04592" lon="2.117">
        <ele>58.5</ele>
        <time>2024-03-27T13:35:17Z</time>
      </trkpt>
      <trkpt lat="50.04592" lon="2.11699">
        <ele>58.5</ele>
        <time>2024-03-27T13:35:18Z</time>
      </trkpt>
      <trkpt lat="50.04591" lon="2.11697">
        <ele>58.5</ele>
        <time>2024-03-27T13:35:19Z</time>
      </trkpt>
      <trkpt lat="50.04591" lon="2.11696">
        <ele>58.4</ele>
        <time>2024-03-27T13:35:20Z</time>
      </trkpt>
      <trkpt lat="50.04591" lon="2.11694">
        <ele>58.4</ele>
        <time>2024-03-27T13:35:21Z</time>
      </trkpt>
      <trkpt lat="50.0459" lon="2.11693">
        <ele>58.4</ele>
        <time>2024-03-27T13:35:22Z</time>
      </trkpt>
      <trkpt lat="50.0459" lon="2.11691">
        <ele>58.4</ele>
        <time>2024-03-27T13:35:23Z</time>
      </trkpt>
      <trkpt lat="50.0459" lon="2.1169">
        <ele>58.4</ele>
        <time>2024-03-27T13:35:24Z</time>
      </trkpt>
      <trkpt lat="50.0459" lon="2.11688">
        <ele>58.4</ele>
        <time>2024-03-27T13:35:25Z</time>
      </trkpt>
      <trkpt lat="50.04589" lon="2.11686">
        <ele>58.4</ele>
        <time>2024-03-27T13:35:26Z</time>
      </trkpt>
      <trkpt lat="50.04589" lon="2.11685">
        <ele>58.4</ele>
        <time>2024-03-27T13:35:27Z</time>
      </trkpt>
      <trkpt lat="50.04589" lon="2.11683">
        <ele>58.3</ele>
        <time>2024-03-27T13:35:28Z</time>
      </trkpt>
      <trkpt lat="50.04588" lon="2.11682">
        <ele>58.3</ele>
        <time>2024-03-27T13:35:29Z</time>
      </trkpt>
      <trkpt lat="50.04588" lon="2.1168">
        <ele>58.3</ele>
        <time>2024-03-27T13:35:30Z</time>
      </trkpt>
      <trkpt lat="50.04588" lon="2.11679">
        <ele>58.3</ele>
        <time>2024-03-27T13:35:31Z</time>
      </trkpt>
      <trkpt lat="50.04588" lon="2.11677">
        <ele>58.3</ele>
        <time>2024-03-27T13:35:32Z</time>
      </trkpt>
      <trkpt lat="50.04587" lon="2.11676">
        <ele>58.3</ele>
        <time>2024-03-27T13:35:33Z</time>
      </trkpt>
      <trkpt lat="50.04587" lon="2.11674">
        <ele>58.3</ele>
        <time>2024-03-27T13:35:34Z</time>
      </trkpt>
      <trkpt lat="50.04587" lon="2.11673">
        <ele>58.3</ele>
        <time>2024-03-27T13:35:35Z</time>
      </trkpt>
      <trkpt lat="50.04586" lon="2.11672">
        <ele>58.3</ele>
        <time>2024-03-27T13:35:36Z</time>
      </trkpt>
      <trkpt lat="50.04586" lon="2.11671">
        <ele>58.3</ele>
        <time>2024-03-27T13:35:37Z</time>
      </trkpt>
      <trkpt lat="50.04585" lon="2.11669">
        <ele>58.2</ele>
        <time>2024-03-27T13:35:38Z</time>
      </trkpt>
      <trkpt lat="50.04585" lon="2.11668">
        <ele>58.2</ele>
        <time>2024-03-27T13:35:39Z</time>
      </trkpt>
      <trkpt lat="50.04584" lon="2.11667">
        <ele>58.2</ele>
        <time>2024-03-27T13:35:40Z</time>
      </trkpt>
      <trkpt lat="50.04584" lon="2.11665">
        <ele>58.2</ele>
        <time>2024-03-27T13:35:41Z</time>
      </trkpt>
      <trkpt lat="50.04583" lon="2.11664">
        <ele>58.2</ele>
        <time>2024-03-27T13:35:42Z</time>
      </trkpt>
      <trkpt lat="50.04583" lon="2.11662">
        <ele>58.2</ele>
        <time>2024-03-27T13:35:43Z</time>
      </trkpt>
      <trkpt lat="50.04582" lon="2.11661">
        <ele>58.2</ele>
        <time>2024-03-27T13:35:44Z</time>
      </trkpt>
      <trkpt lat="50.04582" lon="2.1166">
        <ele>58.2</ele>
        <time>2024-03-27T13:35:45Z</time>
      </trkpt>
      <trkpt lat="50.04581" lon="2.11658">
        <ele>58.1</ele>
        <time>2024-03-27T13:35:46Z</time>
      </trkpt>
      <trkpt lat="50.04581" lon="2.11657">
        <ele>58.1</ele>
        <time>2024-03-27T13:35:47Z</time>
      </trkpt>
      <trkpt lat="50.0458" lon="2.11655">
        <ele>58.1</ele>
        <time>2024-03-27T13:35:48Z</time>
      </trkpt>
      <trkpt lat="50.0458" lon="2.11653">
        <ele>58.1</ele>
        <time>2024-03-27T13:35:49Z</time>
      </trkpt>
      <trkpt lat="50.0458" lon="2.11652">
        <ele>58.1</ele>
        <time>2024-03-27T13:35:50Z</time>
      </trkpt>
      <trkpt lat="50.04579" lon="2.11651">
        <ele>58.1</ele>
        <time>2024-03-27T13:35:51Z</time>
      </trkpt>
      <trkpt lat="50.04579" lon="2.11649">
        <ele>58.1</ele>
        <time>2024-03-27T13:35:52Z</time>
      </trkpt>
      <trkpt lat="50.04579" lon="2.11647">
        <ele>58.1</ele>
        <time>2024-03-27T13:35:53Z</time>
      </trkpt>
      <trkpt lat="50.04578" lon="2.11646">
        <ele>58</ele>
        <time>2024-03-27T13:35:54Z</time>
      </trkpt>
      <trkpt lat="50.04578" lon="2.11644">
        <ele>58</ele>
        <time>2024-03-27T13:35:55Z</time>
      </trkpt>
      <trkpt lat="50.04578" lon="2.11643">
        <ele>58</ele>
        <time>2024-03-27T13:35:56Z</time>
      </trkpt>
      <trkpt lat="50.04577" lon="2.11641">
        <ele>58</ele>
        <time>2024-03-27T13:35:57Z</time>
      </trkpt>
      <trkpt lat="50.04577" lon="2.1164">
        <ele>58</ele>
        <time>2024-03-27T13:35:58Z</time>
      </trkpt>
      <trkpt lat="50.04576" lon="2.11638">
        <ele>58</ele>
        <time>2024-03-27T13:35:59Z</time>
      </trkpt>
      <trkpt lat="50.04576" lon="2.11637">
        <ele>58</ele>
        <time>2024-03-27T13:36:00Z</time>
      </trkpt>
      <trkpt lat="50.04576" lon="2.11635">
        <ele>58</ele>
        <time>2024-03-27T13:36:01Z</time>
      </trkpt>
      <trkpt lat="50.04575" lon="2.11632">
        <ele>57.9</ele>
        <time>2024-03-27T13:36:02Z</time>
      </trkpt>
      <trkpt lat="50.04574" lon="2.11631">
        <ele>57.9</ele>
        <time>2024-03-27T13:36:03Z</time>
      </trkpt>
      <trkpt lat="50.04574" lon="2.1163">
        <ele>57.9</ele>
        <time>2024-03-27T13:36:04Z</time>
      </trkpt>
      <trkpt lat="50.04574" lon="2.11628">
        <ele>57.9</ele>
        <time>2024-03-27T13:36:05Z</time>
      </trkpt>
      <trkpt lat="50.04573" lon="2.11627">
        <ele>57.9</ele>
        <time>2024-03-27T13:36:06Z</time>
      </trkpt>
      <trkpt lat="50.04573" lon="2.11626">
        <ele>57.9</ele>
        <time>2024-03-27T13:36:07Z</time>
      </trkpt>
      <trkpt lat="50.04572" lon="2.11624">
        <ele>57.8</ele>
        <time>2024-03-27T13:36:08Z</time>
      </trkpt>
      <trkpt lat="50.04572" lon="2.11623">
        <ele>57.8</ele>
        <time>2024-03-27T13:36:09Z</time>
      </trkpt>
      <trkpt lat="50.04571" lon="2.11621">
        <ele>57.8</ele>
        <time>2024-03-27T13:36:10Z</time>
      </trkpt>
      <trkpt lat="50.04571" lon="2.1162">
        <ele>57.8</ele>
        <time>2024-03-27T13:36:11Z</time>
      </trkpt>
      <trkpt lat="50.0457" lon="2.11618">
        <ele>57.8</ele>
        <time>2024-03-27T13:36:12Z</time>
      </trkpt>
      <trkpt lat="50.0457" lon="2.11617">
        <ele>57.8</ele>
        <time>2024-03-27T13:36:13Z</time>
      </trkpt>
      <trkpt lat="50.0457" lon="2.11615">
        <ele>57.7</ele>
        <time>2024-03-27T13:36:14Z</time>
      </trkpt>
      <trkpt lat="50.0457" lon="2.11614">
        <ele>57.7</ele>
        <time>2024-03-27T13:36:15Z</time>
      </trkpt>
      <trkpt lat="50.0457" lon="2.11612">
        <ele>57.7</ele>
        <time>2024-03-27T13:36:16Z</time>
      </trkpt>
      <trkpt lat="50.04569" lon="2.11611">
        <ele>57.7</ele>
        <time>2024-03-27T13:36:17Z</time>
      </trkpt>
      <trkpt lat="50.04569" lon="2.11609">
        <ele>57.7</ele>
        <time>2024-03-27T13:36:18Z</time>
      </trkpt>
      <trkpt lat="50.04569" lon="2.11608">
        <ele>57.6</ele>
        <time>2024-03-27T13:36:19Z</time>
      </trkpt>
      <trkpt lat="50.04568" lon="2.11606">
        <ele>57.6</ele>
        <time>2024-03-27T13:36:20Z</time>
      </trkpt>
      <trkpt lat="50.04568" lon="2.11605">
        <ele>57.6</ele>
        <time>2024-03-27T13:36:21Z</time>
      </trkpt>
      <trkpt lat="50.04568" lon="2.11604">
        <ele>57.6</ele>
        <time>2024-03-27T13:36:22Z</time>
      </trkpt>
      <trkpt lat="50.04568" lon="2.11602">
        <ele>57.6</ele>
        <time>2024-03-27T13:36:23Z</time>
      </trkpt>
      <trkpt lat="50.04567" lon="2.11601">
        <ele>57.6</ele>
        <time>2024-03-27T13:36:24Z</time>
      </trkpt>
      <trkpt lat="50.04566" lon="2.116">
        <ele>57.6</ele>
        <time>2024-03-27T13:36:25Z</time>
      </trkpt>
      <trkpt lat="50.04566" lon="2.11598">
        <ele>57.5</ele>
        <time>2024-03-27T13:36:26Z</time>
      </trkpt>
      <trkpt lat="50.04565" lon="2.11597">
        <ele>57.5</ele>
        <time>2024-03-27T13:36:27Z</time>
      </trkpt>
      <trkpt lat="50.04565" lon="2.11595">
        <ele>57.5</ele>
        <time>2024-03-27T13:36:28Z</time>
      </trkpt>
      <trkpt lat="50.04565" lon="2.11593">
        <ele>57.5</ele>
        <time>2024-03-27T13:36:29Z</time>
      </trkpt>
      <trkpt lat="50.04564" lon="2.11592">
        <ele>57.5</ele>
        <time>2024-03-27T13:36:30Z</time>
      </trkpt>
      <trkpt lat="50.04564" lon="2.11591">
        <ele>57.5</ele>
        <time>2024-03-27T13:36:31Z</time>
      </trkpt>
      <trkpt lat="50.04563" lon="2.11589">
        <ele>57.4</ele>
        <time>2024-03-27T13:36:32Z</time>
      </trkpt>
      <trkpt lat="50.04563" lon="2.11588">
        <ele>57.4</ele>
        <time>2024-03-27T13:36:33Z</time>
      </trkpt>
      <trkpt lat="50.04562" lon="2.11586">
        <ele>57.4</ele>
        <time>2024-03-27T13:36:34Z</time>
      </trkpt>
      <trkpt lat="50.04562" lon="2.11585">
        <ele>57.4</ele>
        <time>2024-03-27T13:36:35Z</time>
      </trkpt>
      <trkpt lat="50.04562" lon="2.11584">
        <ele>57.4</ele>
        <time>2024-03-27T13:36:36Z</time>
      </trkpt>
      <trkpt lat="50.04561" lon="2.11582">
        <ele>57.4</ele>
        <time>2024-03-27T13:36:37Z</time>
      </trkpt>
      <trkpt lat="50.04561" lon="2.11581">
        <ele>57.3</ele>
        <time>2024-03-27T13:36:38Z</time>
      </trkpt>
      <trkpt lat="50.04561" lon="2.11579">
        <ele>57.3</ele>
        <time>2024-03-27T13:36:39Z</time>
      </trkpt>
      <trkpt lat="50.0456" lon="2.11578">
        <ele>57.3</ele>
        <time>2024-03-27T13:36:40Z</time>
      </trkpt>
      <trkpt lat="50.04559" lon="2.11577">
        <ele>57.3</ele>
        <time>2024-03-27T13:36:41Z</time>
      </trkpt>
      <trkpt lat="50.04559" lon="2.11575">
        <ele>57.3</ele>
        <time>2024-03-27T13:36:42Z</time>
      </trkpt>
      <trkpt lat="50.04558" lon="2.11574">
        <ele>57.3</ele>
        <time>2024-03-27T13:36:43Z</time>
      </trkpt>
      <trkpt lat="50.04558" lon="2.11572">
        <ele>57.3</ele>
        <time>2024-03-27T13:36:44Z</time>
      </trkpt>
      <trkpt lat="50.04557" lon="2.11571">
        <ele>57.2</ele>
        <time>2024-03-27T13:36:45Z</time>
      </trkpt>
      <trkpt lat="50.04557" lon="2.11569">
        <ele>57.2</ele>
        <time>2024-03-27T13:36:46Z</time>
      </trkpt>
      <trkpt lat="50.04556" lon="2.11567">
        <ele>57.2</ele>
        <time>2024-03-27T13:36:47Z</time>
      </trkpt>
      <trkpt lat="50.04556" lon="2.11566">
        <ele>57.2</ele>
        <time>2024-03-27T13:36:48Z</time>
      </trkpt>
      <trkpt lat="50.04555" lon="2.11565">
        <ele>57.2</ele>
        <time>2024-03-27T13:36:49Z</time>
      </trkpt>
      <trkpt lat="50.04555" lon="2.11564">
        <ele>57.2</ele>
        <time>2024-03-27T13:36:50Z</time>
      </trkpt>
      <trkpt lat="50.04555" lon="2.11562">
        <ele>57.2</ele>
        <time>2024-03-27T13:36:51Z</time>
      </trkpt>
      <trkpt lat="50.04554" lon="2.11561">
        <ele>57.2</ele>
        <time>2024-03-27T13:36:52Z</time>
      </trkpt>
      <trkpt lat="50.04554" lon="2.11559">
        <ele>57.2</ele>
        <time>2024-03-27T13:36:53Z</time>
      </trkpt>
      <trkpt lat="50.04553" lon="2.11557">
        <ele>57.2</ele>
        <time>2024-03-27T13:36:54Z</time>
      </trkpt>
      <trkpt lat="50.04553" lon="2.11556">
        <ele>57.1</ele>
        <time>2024-03-27T13:36:55Z</time>
      </trkpt>
      <trkpt lat="50.04552" lon="2.11554">
        <ele>57.1</ele>
        <time>2024-03-27T13:36:56Z</time>
      </trkpt>
      <trkpt lat="50.04552" lon="2.11553">
        <ele>57.1</ele>
        <time>2024-03-27T13:36:57Z</time>
      </trkpt>
      <trkpt lat="50.04552" lon="2.11551">
        <ele>57.1</ele>
        <time>2024-03-27T13:36:58Z</time>
      </trkpt>
      <trkpt lat="50.04551" lon="2.11549">
        <ele>57.1</ele>
        <time>2024-03-27T13:36:59Z</time>
      </trkpt>
      <trkpt lat="50.04551" lon="2.11548">
        <ele>57.1</ele>
        <time>2024-03-27T13:37:00Z</time>
      </trkpt>
      <trkpt lat="50.0455" lon="2.11546">
        <ele>57.1</ele>
        <time>2024-03-27T13:37:01Z</time>
      </trkpt>
      <trkpt lat="50.0455" lon="2.11544">
        <ele>57.1</ele>
        <time>2024-03-27T13:37:02Z</time>
      </trkpt>
      <trkpt lat="50.04549" lon="2.11543">
        <ele>57.1</ele>
        <time>2024-03-27T13:37:03Z</time>
      </trkpt>
      <trkpt lat="50.04549" lon="2.11541">
        <ele>57</ele>
        <time>2024-03-27T13:37:04Z</time>
      </trkpt>
      <trkpt lat="50.04548" lon="2.1154">
        <ele>57</ele>
        <time>2024-03-27T13:37:05Z</time>
      </trkpt>
      <trkpt lat="50.04548" lon="2.11538">
        <ele>57</ele>
        <time>2024-03-27T13:37:06Z</time>
      </trkpt>
      <trkpt lat="50.04548" lon="2.11537">
        <ele>57</ele>
        <time>2024-03-27T13:37:07Z</time>
      </trkpt>
      <trkpt lat="50.04547" lon="2.11535">
        <ele>57</ele>
        <time>2024-03-27T13:37:08Z</time>
      </trkpt>
      <trkpt lat="50.04547" lon="2.11534">
        <ele>57</ele>
        <time>2024-03-27T13:37:09Z</time>
      </trkpt>
      <trkpt lat="50.04546" lon="2.11532">
        <ele>57</ele>
        <time>2024-03-27T13:37:10Z</time>
      </trkpt>
      <trkpt lat="50.04546" lon="2.11531">
        <ele>56.9</ele>
        <time>2024-03-27T13:37:11Z</time>
      </trkpt>
      <trkpt lat="50.04546" lon="2.11529">
        <ele>56.9</ele>
        <time>2024-03-27T13:37:12Z</time>
      </trkpt>
      <trkpt lat="50.04545" lon="2.11528">
        <ele>56.9</ele>
        <time>2024-03-27T13:37:13Z</time>
      </trkpt>
      <trkpt lat="50.04545" lon="2.11527">
        <ele>56.9</ele>
        <time>2024-03-27T13:37:14Z</time>
      </trkpt>
      <trkpt lat="50.04545" lon="2.11526">
        <ele>56.9</ele>
        <time>2024-03-27T13:37:15Z</time>
      </trkpt>
      <trkpt lat="50.04544" lon="2.11524">
        <ele>56.9</ele>
        <time>2024-03-27T13:37:16Z</time>
      </trkpt>
      <trkpt lat="50.04544" lon="2.11523">
        <ele>56.9</ele>
        <time>2024-03-27T13:37:17Z</time>
      </trkpt>
      <trkpt lat="50.04544" lon="2.11521">
        <ele>56.9</ele>
        <time>2024-03-27T13:37:18Z</time>
      </trkpt>
      <trkpt lat="50.04543" lon="2.1152">
        <ele>56.8</ele>
        <time>2024-03-27T13:37:19Z</time>
      </trkpt>
      <trkpt lat="50.04543" lon="2.11518">
        <ele>56.8</ele>
        <time>2024-03-27T13:37:20Z</time>
      </trkpt>
      <trkpt lat="50.04542" lon="2.11517">
        <ele>56.8</ele>
        <time>2024-03-27T13:37:21Z</time>
      </trkpt>
      <trkpt lat="50.04542" lon="2.11516">
        <ele>56.8</ele>
        <time>2024-03-27T13:37:22Z</time>
      </trkpt>
      <trkpt lat="50.04542" lon="2.11515">
        <ele>56.8</ele>
        <time>2024-03-27T13:37:23Z</time>
      </trkpt>
      <trkpt lat="50.04542" lon="2.11513">
        <ele>56.8</ele>
        <time>2024-03-27T13:37:24Z</time>
      </trkpt>
      <trkpt lat="50.04541" lon="2.11512">
        <ele>56.8</ele>
        <time>2024-03-27T13:37:25Z</time>
      </trkpt>
      <trkpt lat="50.04541" lon="2.1151">
        <ele>56.8</ele>
        <time>2024-03-27T13:37:26Z</time>
      </trkpt>
      <trkpt lat="50.04541" lon="2.11509">
        <ele>56.8</ele>
        <time>2024-03-27T13:37:27Z</time>
      </trkpt>
      <trkpt lat="50.0454" lon="2.11508">
        <ele>56.8</ele>
        <time>2024-03-27T13:37:28Z</time>
      </trkpt>
      <trkpt lat="50.0454" lon="2.11506">
        <ele>56.8</ele>
        <time>2024-03-27T13:37:29Z</time>
      </trkpt>
      <trkpt lat="50.04539" lon="2.11505">
        <ele>56.7</ele>
        <time>2024-03-27T13:37:30Z</time>
      </trkpt>
      <trkpt lat="50.04539" lon="2.11503">
        <ele>56.7</ele>
        <time>2024-03-27T13:37:31Z</time>
      </trkpt>
      <trkpt lat="50.04538" lon="2.11502">
        <ele>56.7</ele>
        <time>2024-03-27T13:37:32Z</time>
      </trkpt>
      <trkpt lat="50.04538" lon="2.11501">
        <ele>56.7</ele>
        <time>2024-03-27T13:37:33Z</time>
      </trkpt>
      <trkpt lat="50.04538" lon="2.115">
        <ele>56.7</ele>
        <time>2024-03-27T13:37:34Z</time>
      </trkpt>
      <trkpt lat="50.04537" lon="2.11498">
        <ele>56.7</ele>
        <time>2024-03-27T13:37:35Z</time>
      </trkpt>
      <trkpt lat="50.04537" lon="2.11497">
        <ele>56.7</ele>
        <time>2024-03-27T13:37:36Z</time>
      </trkpt>
      <trkpt lat="50.04536" lon="2.11495">
        <ele>56.7</ele>
        <time>2024-03-27T13:37:37Z</time>
      </trkpt>
      <trkpt lat="50.04536" lon="2.11494">
        <ele>56.7</ele>
        <time>2024-03-27T13:37:38Z</time>
      </trkpt>
      <trkpt lat="50.04535" lon="2.11492">
        <ele>56.7</ele>
        <time>2024-03-27T13:37:39Z</time>
      </trkpt>
      <trkpt lat="50.04535" lon="2.11491">
        <ele>56.7</ele>
        <time>2024-03-27T13:37:40Z</time>
      </trkpt>
      <trkpt lat="50.04534" lon="2.1149">
        <ele>56.6</ele>
        <time>2024-03-27T13:37:41Z</time>
      </trkpt>
      <trkpt lat="50.04534" lon="2.11488">
        <ele>56.6</ele>
        <time>2024-03-27T13:37:42Z</time>
      </trkpt>
      <trkpt lat="50.04533" lon="2.11487">
        <ele>56.6</ele>
        <time>2024-03-27T13:37:43Z</time>
      </trkpt>
      <trkpt lat="50.04532" lon="2.11485">
        <ele>56.6</ele>
        <time>2024-03-27T13:37:44Z</time>
      </trkpt>
      <trkpt lat="50.04532" lon="2.11484">
        <ele>56.6</ele>
        <time>2024-03-27T13:37:45Z</time>
      </trkpt>
      <trkpt lat="50.04531" lon="2.11482">
        <ele>56.6</ele>
        <time>2024-03-27T13:37:46Z</time>
      </trkpt>
      <trkpt lat="50.04531" lon="2.11481">
        <ele>56.6</ele>
        <time>2024-03-27T13:37:47Z</time>
      </trkpt>
      <trkpt lat="50.0453" lon="2.1148">
        <ele>56.6</ele>
        <time>2024-03-27T13:37:48Z</time>
      </trkpt>
      <trkpt lat="50.0453" lon="2.11479">
        <ele>56.5</ele>
        <time>2024-03-27T13:37:49Z</time>
      </trkpt>
      <trkpt lat="50.04529" lon="2.11477">
        <ele>56.5</ele>
        <time>2024-03-27T13:37:50Z</time>
      </trkpt>
      <trkpt lat="50.04529" lon="2.11476">
        <ele>56.5</ele>
        <time>2024-03-27T13:37:51Z</time>
      </trkpt>
      <trkpt lat="50.04528" lon="2.11474">
        <ele>56.5</ele>
        <time>2024-03-27T13:37:52Z</time>
      </trkpt>
      <trkpt lat="50.04528" lon="2.11473">
        <ele>56.5</ele>
        <time>2024-03-27T13:37:53Z</time>
      </trkpt>
      <trkpt lat="50.04527" lon="2.11472">
        <ele>56.5</ele>
        <time>2024-03-27T13:37:54Z</time>
      </trkpt>
      <trkpt lat="50.04527" lon="2.1147">
        <ele>56.4</ele>
        <time>2024-03-27T13:37:55Z</time>
      </trkpt>
      <trkpt lat="50.04526" lon="2.11469">
        <ele>56.4</ele>
        <time>2024-03-27T13:37:56Z</time>
      </trkpt>
      <trkpt lat="50.04526" lon="2.11467">
        <ele>56.4</ele>
        <time>2024-03-27T13:37:57Z</time>
      </trkpt>
      <trkpt lat="50.04526" lon="2.11466">
        <ele>56.4</ele>
        <time>2024-03-27T13:37:58Z</time>
      </trkpt>
      <trkpt lat="50.04525" lon="2.11465">
        <ele>56.4</ele>
        <time>2024-03-27T13:37:59Z</time>
      </trkpt>
      <trkpt lat="50.04525" lon="2.11463">
        <ele>56.3</ele>
        <time>2024-03-27T13:38:00Z</time>
      </trkpt>
      <trkpt lat="50.04525" lon="2.11462">
        <ele>56.3</ele>
        <time>2024-03-27T13:38:01Z</time>
      </trkpt>
      <trkpt lat="50.04524" lon="2.11461">
        <ele>56.3</ele>
        <time>2024-03-27T13:38:02Z</time>
      </trkpt>
      <trkpt lat="50.04524" lon="2.1146">
        <ele>56.3</ele>
        <time>2024-03-27T13:38:03Z</time>
      </trkpt>
      <trkpt lat="50.04524" lon="2.11459">
        <ele>56.3</ele>
        <time>2024-03-27T13:38:04Z</time>
      </trkpt>
      <trkpt lat="50.04524" lon="2.11458">
        <ele>56.3</ele>
        <time>2024-03-27T13:38:05Z</time>
      </trkpt>
      <trkpt lat="50.04523" lon="2.11457">
        <ele>56.3</ele>
        <time>2024-03-27T13:38:06Z</time>
      </trkpt>
      <trkpt lat="50.04523" lon="2.11455">
        <ele>56.2</ele>
        <time>2024-03-27T13:38:07Z</time>
      </trkpt>
      <trkpt lat="50.04523" lon="2.11455">
        <ele>56.2</ele>
        <time>2024-03-27T13:38:08Z</time>
      </trkpt>
      <trkpt lat="50.04522" lon="2.11453">
        <ele>56.2</ele>
        <time>2024-03-27T13:38:09Z</time>
      </trkpt>
      <trkpt lat="50.04522" lon="2.11452">
        <ele>56.2</ele>
        <time>2024-03-27T13:38:10Z</time>
      </trkpt>
      <trkpt lat="50.04521" lon="2.11451">
        <ele>56.2</ele>
        <time>2024-03-27T13:38:11Z</time>
      </trkpt>
      <trkpt lat="50.04521" lon="2.1145">
        <ele>56.2</ele>
        <time>2024-03-27T13:38:12Z</time>
      </trkpt>
      <trkpt lat="50.0452" lon="2.11449">
        <ele>56.1</ele>
        <time>2024-03-27T13:38:13Z</time>
      </trkpt>
      <trkpt lat="50.04519" lon="2.11448">
        <ele>56.1</ele>
        <time>2024-03-27T13:38:14Z</time>
      </trkpt>
      <trkpt lat="50.04519" lon="2.11447">
        <ele>56.1</ele>
        <time>2024-03-27T13:38:15Z</time>
      </trkpt>
      <trkpt lat="50.04518" lon="2.11446">
        <ele>56.1</ele>
        <time>2024-03-27T13:38:16Z</time>
      </trkpt>
      <trkpt lat="50.04518" lon="2.11445">
        <ele>56.1</ele>
        <time>2024-03-27T13:38:17Z</time>
      </trkpt>
      <trkpt lat="50.04517" lon="2.11444">
        <ele>56.1</ele>
        <time>2024-03-27T13:38:18Z</time>
      </trkpt>
      <trkpt lat="50.04517" lon="2.11442">
        <ele>56.1</ele>
        <time>2024-03-27T13:38:19Z</time>
      </trkpt>
      <trkpt lat="50.04516" lon="2.11441">
        <ele>56.1</ele>
        <time>2024-03-27T13:38:20Z</time>
      </trkpt>
      <trkpt lat="50.04516" lon="2.1144">
        <ele>56.1</ele>
        <time>2024-03-27T13:38:21Z</time>
      </trkpt>
      <trkpt lat="50.04515" lon="2.11439">
        <ele>56</ele>
        <time>2024-03-27T13:38:22Z</time>
      </trkpt>
      <trkpt lat="50.04514" lon="2.11438">
        <ele>56</ele>
        <time>2024-03-27T13:38:23Z</time>
      </trkpt>
      <trkpt lat="50.04513" lon="2.11436">
        <ele>56</ele>
        <time>2024-03-27T13:38:24Z</time>
      </trkpt>
      <trkpt lat="50.04513" lon="2.11435">
        <ele>56</ele>
        <time>2024-03-27T13:38:25Z</time>
      </trkpt>
      <trkpt lat="50.04512" lon="2.11434">
        <ele>56</ele>
        <time>2024-03-27T13:38:26Z</time>
      </trkpt>
      <trkpt lat="50.04512" lon="2.11434">
        <ele>56</ele>
        <time>2024-03-27T13:38:27Z</time>
      </trkpt>
      <trkpt lat="50.04511" lon="2.11432">
        <ele>56</ele>
        <time>2024-03-27T13:38:28Z</time>
      </trkpt>
      <trkpt lat="50.04511" lon="2.11431">
        <ele>56</ele>
        <time>2024-03-27T13:38:29Z</time>
      </trkpt>
      <trkpt lat="50.04511" lon="2.1143">
        <ele>56</ele>
        <time>2024-03-27T13:38:30Z</time>
      </trkpt>
      <trkpt lat="50.04512" lon="2.11429">
        <ele>56</ele>
        <time>2024-03-27T13:38:31Z</time>
      </trkpt>
      <trkpt lat="50.04512" lon="2.11429">
        <ele>56</ele>
        <time>2024-03-27T13:38:32Z</time>
      </trkpt>
      <trkpt lat="50.04512" lon="2.11429">
        <ele>56</ele>
        <time>2024-03-27T13:38:33Z</time>
      </trkpt>
      <trkpt lat="50.04512" lon="2.11429">
        <ele>56</ele>
        <time>2024-03-27T13:38:34Z</time>
      </trkpt>
      <trkpt lat="50.04512" lon="2.11429">
        <ele>56</ele>
        <time>2024-03-27T13:38:35Z</time>
      </trkpt>
      <trkpt lat="50.04512" lon="2.11429">
        <ele>56</ele>
        <time>2024-03-27T13:38:36Z</time>
      </trkpt>
      <trkpt lat="50.04512" lon="2.11429">
        <ele>56</ele>
        <time>2024-03-27T13:38:37Z</time>
      </trkpt>
      <trkpt lat="50.04512" lon="2.11429">
        <ele>56</ele>
        <time>2024-03-27T13:38:38Z</time>
      </trkpt>
      <trkpt lat="50.04512" lon="2.11429">
        <ele>56</ele>
        <time>2024-03-27T13:38:39Z</time>
      </trkpt>
      <trkpt lat="50.04512" lon="2.11429">
        <ele>56</ele>
        <time>2024-03-27T13:38:40Z</time>
      </trkpt>
      <trkpt lat="50.04512" lon="2.11429">
        <ele>56</ele>
        <time>2024-03-27T13:38:41Z</time>
      </trkpt>
      <trkpt lat="50.04512" lon="2.11429">
        <ele>56</ele>
        <time>2024-03-27T13:38:42Z</time>
      </trkpt>
      <trkpt lat="50.04512" lon="2.11429">
        <ele>56</ele>
        <time>2024-03-27T13:38:43Z</time>
      </trkpt>
      <trkpt lat="50.04512" lon="2.11429">
        <ele>56</ele>
        <time>2024-03-27T13:38:44Z</time>
      </trkpt>
      <trkpt lat="50.04512" lon="2.11429">
        <ele>56</ele>
        <time>2024-03-27T13:38:45Z</time>
      </trkpt>
      <trkpt lat="50.04513" lon="2.11429">
        <ele>56</ele>
        <time>2024-03-27T13:38:46Z</time>
      </trkpt>
      <trkpt lat="50.04513" lon="2.1143">
        <ele>56</ele>
        <time>2024-03-27T13:38:47Z</time>
      </trkpt>
      <trkpt lat="50.04513" lon="2.1143">
        <ele>56</ele>
        <time>2024-03-27T13:38:48Z</time>
      </trkpt>
      <trkpt lat="50.04513" lon="2.1143">
        <ele>56</ele>
        <time>2024-03-27T13:38:49Z</time>
      </trkpt>
      <trkpt lat="50.04513" lon="2.1143">
        <ele>56</ele>
        <time>2024-03-27T13:38:50Z</time>
      </trkpt>
      <trkpt lat="50.04513" lon="2.1143">
        <ele>56</ele>
        <time>2024-03-27T13:38:51Z</time>
      </trkpt>
      <trkpt lat="50.04513" lon="2.1143">
        <ele>56</ele>
        <time>2024-03-27T13:38:52Z</time>
      </trkpt>
      <trkpt lat="50.04513" lon="2.1143">
        <ele>56</ele>
        <time>2024-03-27T13:38:53Z</time>
      </trkpt>
      <trkpt lat="50.04513" lon="2.1143">
        <ele>56</ele>
        <time>2024-03-27T13:38:54Z</time>
      </trkpt>
      <trkpt lat="50.04513" lon="2.1143">
        <ele>56</ele>
        <time>2024-03-27T13:38:55Z</time>
      </trkpt>
      <trkpt lat="50.04513" lon="2.1143">
        <ele>56</ele>
        <time>2024-03-27T13:38:56Z</time>
      </trkpt>
      <trkpt lat="50.04513" lon="2.1143">
        <ele>56</ele>
        <time>2024-03-27T13:38:57Z</time>
      </trkpt>
      <trkpt lat="50.04513" lon="2.1143">
        <ele>56</ele>
        <time>2024-03-27T13:38:58Z</time>
      </trkpt>
      <trkpt lat="50.04513" lon="2.1143">
        <ele>56</ele>
        <time>2024-03-27T13:38:59Z</time>
      </trkpt>
      <trkpt lat="50.04513" lon="2.1143">
        <ele>56</ele>
        <time>2024-03-27T13:39:00Z</time>
      </trkpt>
      <trkpt lat="50.04513" lon="2.11431">
        <ele>56</ele>
        <time>2024-03-27T13:39:01Z</time>
      </trkpt>
      <trkpt lat="50.04513" lon="2.11431">
        <ele>56</ele>
        <time>2024-03-27T13:39:02Z</time>
      </trkpt>
      <trkpt lat="50.04513" lon="2.11431">
        <ele>56</ele>
        <time>2024-03-27T13:39:03Z</time>
      </trkpt>
      <trkpt lat="50.04513" lon="2.11431">
        <ele>56</ele>
        <time>2024-03-27T13:39:04Z</time>
      </trkpt>
      <trkpt lat="50.04513" lon="2.11431">
        <ele>56</ele>
        <time>2024-03-27T13:39:05Z</time>
      </trkpt>
      <trkpt lat="50.04513" lon="2.11431">
        <ele>56</ele>
        <time>2024-03-27T13:39:06Z</time>
      </trkpt>
      <trkpt lat="50.04513" lon="2.11431">
        <ele>56</ele>
        <time>2024-03-27T13:39:07Z</time>
      </trkpt>
      <trkpt lat="50.04513" lon="2.11431">
        <ele>56</ele>
        <time>2024-03-27T13:39:08Z</time>
      </trkpt>
      <trkpt lat="50.04513" lon="2.11431">
        <ele>56</ele>
        <time>2024-03-27T13:39:09Z</time>
      </trkpt>
      <trkpt lat="50.04513" lon="2.11431">
        <ele>56</ele>
        <time>2024-03-27T13:39:10Z</time>
      </trkpt>
      <trkpt lat="50.04513" lon="2.11431">
        <ele>56</ele>
        <time>2024-03-27T13:39:11Z</time>
      </trkpt>
      <trkpt lat="50.04513" lon="2.11431">
        <ele>55.9</ele>
        <time>2024-03-27T13:39:12Z</time>
      </trkpt>
      <trkpt lat="50.04513" lon="2.11431">
        <ele>55.9</ele>
        <time>2024-03-27T13:39:13Z</time>
      </trkpt>
      <trkpt lat="50.04513" lon="2.11431">
        <ele>55.9</ele>
        <time>2024-03-27T13:39:14Z</time>
      </trkpt>
      <trkpt lat="50.04513" lon="2.11431">
        <ele>55.9</ele>
        <time>2024-03-27T13:39:15Z</time>
      </trkpt>
      <trkpt lat="50.04513" lon="2.11432">
        <ele>55.9</ele>
        <time>2024-03-27T13:39:16Z</time>
      </trkpt>
      <trkpt lat="50.04513" lon="2.11432">
        <ele>55.9</ele>
        <time>2024-03-27T13:39:17Z</time>
      </trkpt>
      <trkpt lat="50.04513" lon="2.11432">
        <ele>55.9</ele>
        <time>2024-03-27T13:39:18Z</time>
      </trkpt>
      <trkpt lat="50.04513" lon="2.11432">
        <ele>55.9</ele>
        <time>2024-03-27T13:39:19Z</time>
      </trkpt>
      <trkpt lat="50.04513" lon="2.11432">
        <ele>55.9</ele>
        <time>2024-03-27T13:39:20Z</time>
      </trkpt>
      <trkpt lat="50.04513" lon="2.11432">
        <ele>55.9</ele>
        <time>2024-03-27T13:39:21Z</time>
      </trkpt>
      <trkpt lat="50.04513" lon="2.11432">
        <ele>55.9</ele>
        <time>2024-03-27T13:39:22Z</time>
      </trkpt>
      <trkpt lat="50.04513" lon="2.11432">
        <ele>55.9</ele>
        <time>2024-03-27T13:39:23Z</time>
      </trkpt>
      <trkpt lat="50.04513" lon="2.11432">
        <ele>55.9</ele>
        <time>2024-03-27T13:39:24Z</time>
      </trkpt>
      <trkpt lat="50.04513" lon="2.11432">
        <ele>55.9</ele>
        <time>2024-03-27T13:39:25Z</time>
      </trkpt>
      <trkpt lat="50.04513" lon="2.11432">
        <ele>55.9</ele>
        <time>2024-03-27T13:39:26Z</time>
      </trkpt>
      <trkpt lat="50.04513" lon="2.11432">
        <ele>55.9</ele>
        <time>2024-03-27T13:39:27Z</time>
      </trkpt>
      <trkpt lat="50.04513" lon="2.11432">
        <ele>55.9</ele>
        <time>2024-03-27T13:39:28Z</time>
      </trkpt>
      <trkpt lat="50.04513" lon="2.11432">
        <ele>55.9</ele>
        <time>2024-03-27T13:39:29Z</time>
      </trkpt>
      <trkpt lat="50.04513" lon="2.11432">
        <ele>55.9</ele>
        <time>2024-03-27T13:39:30Z</time>
      </trkpt>
      <trkpt lat="50.04513" lon="2.11433">
        <ele>55.9</ele>
        <time>2024-03-27T13:39:31Z</time>
      </trkpt>
      <trkpt lat="50.04513" lon="2.11433">
        <ele>55.9</ele>
        <time>2024-03-27T13:39:32Z</time>
      </trkpt>
      <trkpt lat="50.04513" lon="2.11433">
        <ele>55.9</ele>
        <time>2024-03-27T13:39:33Z</time>
      </trkpt>
      <trkpt lat="50.04513" lon="2.11433">
        <ele>55.9</ele>
        <time>2024-03-27T13:39:34Z</time>
      </trkpt>
      <trkpt lat="50.04513" lon="2.11433">
        <ele>55.9</ele>
        <time>2024-03-27T13:39:35Z</time>
      </trkpt>
      <trkpt lat="50.04513" lon="2.11433">
        <ele>55.9</ele>
        <time>2024-03-27T13:39:36Z</time>
      </trkpt>
      <trkpt lat="50.04513" lon="2.11433">
        <ele>55.9</ele>
        <time>2024-03-27T13:39:37Z</time>
      </trkpt>
      <trkpt lat="50.04513" lon="2.11433">
        <ele>55.9</ele>
        <time>2024-03-27T13:39:38Z</time>
      </trkpt>
      <trkpt lat="50.04513" lon="2.11433">
        <ele>55.9</ele>
        <time>2024-03-27T13:39:39Z</time>
      </trkpt>
      <trkpt lat="50.04513" lon="2.11433">
        <ele>55.9</ele>
        <time>2024-03-27T13:39:40Z</time>
      </trkpt>
      <trkpt lat="50.04513" lon="2.11433">
        <ele>55.9</ele>
        <time>2024-03-27T13:39:41Z</time>
      </trkpt>
      <trkpt lat="50.04513" lon="2.11433">
        <ele>55.9</ele>
        <time>2024-03-27T13:39:42Z</time>
      </trkpt>
      <trkpt lat="50.04513" lon="2.11433">
        <ele>55.9</ele>
        <time>2024-03-27T13:39:43Z</time>
      </trkpt>
      <trkpt lat="50.04513" lon="2.11433">
        <ele>55.9</ele>
        <time>2024-03-27T13:39:44Z</time>
      </trkpt>
      <trkpt lat="50.04513" lon="2.11434">
        <ele>55.9</ele>
        <time>2024-03-27T13:39:45Z</time>
      </trkpt>
      <trkpt lat="50.04513" lon="2.11434">
        <ele>55.9</ele>
        <time>2024-03-27T13:39:46Z</time>
      </trkpt>
      <trkpt lat="50.04513" lon="2.11434">
        <ele>55.9</ele>
        <time>2024-03-27T13:39:47Z</time>
      </trkpt>
      <trkpt lat="50.04513" lon="2.11434">
        <ele>55.9</ele>
        <time>2024-03-27T13:39:48Z</time>
      </trkpt>
      <trkpt lat="50.04513" lon="2.11434">
        <ele>55.9</ele>
        <time>2024-03-27T13:39:49Z</time>
      </trkpt>
      <trkpt lat="50.04513" lon="2.11434">
        <ele>55.9</ele>
        <time>2024-03-27T13:39:50Z</time>
      </trkpt>
      <trkpt lat="50.04513" lon="2.11434">
        <ele>55.9</ele>
        <time>2024-03-27T13:39:51Z</time>
      </trkpt>
      <trkpt lat="50.04513" lon="2.11434">
        <ele>55.9</ele>
        <time>2024-03-27T13:39:52Z</time>
      </trkpt>
      <trkpt lat="50.04513" lon="2.11434">
        <ele>55.9</ele>
        <time>2024-03-27T13:39:53Z</time>
      </trkpt>
      <trkpt lat="50.04513" lon="2.11434">
        <ele>55.9</ele>
        <time>2024-03-27T13:39:54Z</time>
      </trkpt>
      <trkpt lat="50.04513" lon="2.11434">
        <ele>55.9</ele>
        <time>2024-03-27T13:39:55Z</time>
      </trkpt>
      <trkpt lat="50.04513" lon="2.11434">
        <ele>55.9</ele>
        <time>2024-03-27T13:39:56Z</time>
      </trkpt>
      <trkpt lat="50.04513" lon="2.11434">
        <ele>55.9</ele>
        <time>2024-03-27T13:39:57Z</time>
      </trkpt>
      <trkpt lat="50.04513" lon="2.11434">
        <ele>55.9</ele>
        <time>2024-03-27T13:39:58Z</time>
      </trkpt>
      <trkpt lat="50.04513" lon="2.11434">
        <ele>55.9</ele>
        <time>2024-03-27T13:39:59Z</time>
      </trkpt>
      <trkpt lat="50.04513" lon="2.11435">
        <ele>55.9</ele>
        <time>2024-03-27T13:40:00Z</time>
      </trkpt>
      <trkpt lat="50.04513" lon="2.11435">
        <ele>55.9</ele>
        <time>2024-03-27T13:40:01Z</time>
      </trkpt>
      <trkpt lat="50.04513" lon="2.11435">
        <ele>55.9</ele>
        <time>2024-03-27T13:40:02Z</time>
      </trkpt>
      <trkpt lat="50.04513" lon="2.11435">
        <ele>55.9</ele>
        <time>2024-03-27T13:40:03Z</time>
      </trkpt>
      <trkpt lat="50.04513" lon="2.11435">
        <ele>55.9</ele>
        <time>2024-03-27T13:40:04Z</time>
      </trkpt>
      <trkpt lat="50.04513" lon="2.11435">
        <ele>55.9</ele>
        <time>2024-03-27T13:40:05Z</time>
      </trkpt>
      <trkpt lat="50.04513" lon="2.11435">
        <ele>55.9</ele>
        <time>2024-03-27T13:40:06Z</time>
      </trkpt>
      <trkpt lat="50.04513" lon="2.11435">
        <ele>55.9</ele>
        <time>2024-03-27T13:40:07Z</time>
      </trkpt>
      <trkpt lat="50.04513" lon="2.11435">
        <ele>55.9</ele>
        <time>2024-03-27T13:40:08Z</time>
      </trkpt>
      <trkpt lat="50.04513" lon="2.11435">
        <ele>55.9</ele>
        <time>2024-03-27T13:40:09Z</time>
      </trkpt>
      <trkpt lat="50.04513" lon="2.11435">
        <ele>55.9</ele>
        <time>2024-03-27T13:40:10Z</time>
      </trkpt>
      <trkpt lat="50.04513" lon="2.11435">
        <ele>55.9</ele>
        <time>2024-03-27T13:40:11Z</time>
      </trkpt>
      <trkpt lat="50.04513" lon="2.11435">
        <ele>55.9</ele>
        <time>2024-03-27T13:40:12Z</time>
      </trkpt>
      <trkpt lat="50.04513" lon="2.11435">
        <ele>55.9</ele>
        <time>2024-03-27T13:40:13Z</time>
      </trkpt>
      <trkpt lat="50.04513" lon="2.11435">
        <ele>55.9</ele>
        <time>2024-03-27T13:40:14Z</time>
      </trkpt>
      <trkpt lat="50.04513" lon="2.11435">
        <ele>55.9</ele>
        <time>2024-03-27T13:40:15Z</time>
      </trkpt>
      <trkpt lat="50.04513" lon="2.11435">
        <ele>55.9</ele>
        <time>2024-03-27T13:40:16Z</time>
      </trkpt>
      <trkpt lat="50.04513" lon="2.11435">
        <ele>55.9</ele>
        <time>2024-03-27T13:40:17Z</time>
      </trkpt>
      <trkpt lat="50.04513" lon="2.11435">
        <ele>55.9</ele>
        <time>2024-03-27T13:40:18Z</time>
      </trkpt>
      <trkpt lat="50.04513" lon="2.11435">
        <ele>55.9</ele>
        <time>2024-03-27T13:40:19Z</time>
      </trkpt>
      <trkpt lat="50.04513" lon="2.11435">
        <ele>55.9</ele>
        <time>2024-03-27T13:40:20Z</time>
      </trkpt>
      <trkpt lat="50.04513" lon="2.11435">
        <ele>55.9</ele>
        <time>2024-03-27T13:40:21Z</time>
      </trkpt>
      <trkpt lat="50.04513" lon="2.11435">
        <ele>55.9</ele>
        <time>2024-03-27T13:40:22Z</time>
      </trkpt>
      <trkpt lat="50.04513" lon="2.11435">
        <ele>55.9</ele>
        <time>2024-03-27T13:40:23Z</time>
      </trkpt>
      <trkpt lat="50.04513" lon="2.11435">
        <ele>55.9</ele>
        <time>2024-03-27T13:40:24Z</time>
      </trkpt>
      <trkpt lat="50.04513" lon="2.11435">
        <ele>55.9</ele>
        <time>2024-03-27T13:40:25Z</time>
      </trkpt>
      <trkpt lat="50.04513" lon="2.11435">
        <ele>55.9</ele>
        <time>2024-03-27T13:40:26Z</time>
      </trkpt>
      <trkpt lat="50.04513" lon="2.11435">
        <ele>55.9</ele>
        <time>2024-03-27T13:40:27Z</time>
      </trkpt>
      <trkpt lat="50.04513" lon="2.11435">
        <ele>55.9</ele>
        <time>2024-03-27T13:40:28Z</time>
      </trkpt>
      <trkpt lat="50.04513" lon="2.11435">
        <ele>55.9</ele>
        <time>2024-03-27T13:40:29Z</time>
      </trkpt>
      <trkpt lat="50.04513" lon="2.11435">
        <ele>55.9</ele>
        <time>2024-03-27T13:40:30Z</time>
      </trkpt>
      <trkpt lat="50.04513" lon="2.11435">
        <ele>55.9</ele>
        <time>2024-03-27T13:40:31Z</time>
      </trkpt>
      <trkpt lat="50.04513" lon="2.11435">
        <ele>55.9</ele>
        <time>2024-03-27T13:40:32Z</time>
      </trkpt>
      <trkpt lat="50.04513" lon="2.11435">
        <ele>55.9</ele>
        <time>2024-03-27T13:40:33Z</time>
      </trkpt>
      <trkpt lat="50.04513" lon="2.11435">
        <ele>55.9</ele>
        <time>2024-03-27T13:40:34Z</time>
      </trkpt>
      <trkpt lat="50.04513" lon="2.11435">
        <ele>55.9</ele>
        <time>2024-03-27T13:40:35Z</time>
      </trkpt>
      <trkpt lat="50.04513" lon="2.11435">
        <ele>55.9</ele>
        <time>2024-03-27T13:40:36Z</time>
      </trkpt>
      <trkpt lat="50.04513" lon="2.11435">
        <ele>55.9</ele>
        <time>2024-03-27T13:40:37Z</time>
      </trkpt>
      <trkpt lat="50.04513" lon="2.11435">
        <ele>55.9</ele>
        <time>2024-03-27T13:40:38Z</time>
      </trkpt>
      <trkpt lat="50.04513" lon="2.11435">
        <ele>55.9</ele>
        <time>2024-03-27T13:40:39Z</time>
      </trkpt>
      <trkpt lat="50.04513" lon="2.11435">
        <ele>55.9</ele>
        <time>2024-03-27T13:40:40Z</time>
      </trkpt>
      <trkpt lat="50.04513" lon="2.11435">
        <ele>55.9</ele>
        <time>2024-03-27T13:40:41Z</time>
      </trkpt>
      <trkpt lat="50.04513" lon="2.11435">
        <ele>55.9</ele>
        <time>2024-03-27T13:40:42Z</time>
      </trkpt>
      <trkpt lat="50.04513" lon="2.11435">
        <ele>55.9</ele>
        <time>2024-03-27T13:40:43Z</time>
      </trkpt>
      <trkpt lat="50.04513" lon="2.11435">
        <ele>55.9</ele>
        <time>2024-03-27T13:40:44Z</time>
      </trkpt>
      <trkpt lat="50.04513" lon="2.11435">
        <ele>55.9</ele>
        <time>2024-03-27T13:40:45Z</time>
      </trkpt>
      <trkpt lat="50.04513" lon="2.11435">
        <ele>55.9</ele>
        <time>2024-03-27T13:40:46Z</time>
      </trkpt>
      <trkpt lat="50.04513" lon="2.11435">
        <ele>55.9</ele>
        <time>2024-03-27T13:40:47Z</time>
      </trkpt>
      <trkpt lat="50.04513" lon="2.11435">
        <ele>55.9</ele>
        <time>2024-03-27T13:40:48Z</time>
      </trkpt>
      <trkpt lat="50.04513" lon="2.11435">
        <ele>55.9</ele>
        <time>2024-03-27T13:40:49Z</time>
      </trkpt>
      <trkpt lat="50.04513" lon="2.11435">
        <ele>55.9</ele>
        <time>2024-03-27T13:40:50Z</time>
      </trkpt>
      <trkpt lat="50.04513" lon="2.11435">
        <ele>55.9</ele>
        <time>2024-03-27T13:40:51Z</time>
      </trkpt>
      <trkpt lat="50.04513" lon="2.11435">
        <ele>55.9</ele>
        <time>2024-03-27T13:40:52Z</time>
      </trkpt>
      <trkpt lat="50.04513" lon="2.11435">
        <ele>55.9</ele>
        <time>2024-03-27T13:40:53Z</time>
      </trkpt>
      <trkpt lat="50.04513" lon="2.11435">
        <ele>55.9</ele>
        <time>2024-03-27T13:40:54Z</time>
      </trkpt>
      <trkpt lat="50.04513" lon="2.11435">
        <ele>55.9</ele>
        <time>2024-03-27T13:40:55Z</time>
      </trkpt>
      <trkpt lat="50.04513" lon="2.11435">
        <ele>55.9</ele>
        <time>2024-03-27T13:40:56Z</time>
      </trkpt>
      <trkpt lat="50.04513" lon="2.11435">
        <ele>55.9</ele>
        <time>2024-03-27T13:40:57Z</time>
      </trkpt>
      <trkpt lat="50.04513" lon="2.11435">
        <ele>55.9</ele>
        <time>2024-03-27T13:40:58Z</time>
      </trkpt>
      <trkpt lat="50.04513" lon="2.11435">
        <ele>55.9</ele>
        <time>2024-03-27T13:40:59Z</time>
      </trkpt>
      <trkpt lat="50.04513" lon="2.11435">
        <ele>55.9</ele>
        <time>2024-03-27T13:41:00Z</time>
      </trkpt>
      <trkpt lat="50.04513" lon="2.11435">
        <ele>55.9</ele>
        <time>2024-03-27T13:41:01Z</time>
      </trkpt>
      <trkpt lat="50.04513" lon="2.11435">
        <ele>55.9</ele>
        <time>2024-03-27T13:41:02Z</time>
      </trkpt>
      <trkpt lat="50.04513" lon="2.11435">
        <ele>55.9</ele>
        <time>2024-03-27T13:41:03Z</time>
      </trkpt>
      <trkpt lat="50.04513" lon="2.11435">
        <ele>55.9</ele>
        <time>2024-03-27T13:41:04Z</time>
      </trkpt>
      <trkpt lat="50.04513" lon="2.11435">
        <ele>55.9</ele>
        <time>2024-03-27T13:41:05Z</time>
      </trkpt>
      <trkpt lat="50.04513" lon="2.11435">
        <ele>55.9</ele>
        <time>2024-03-27T13:41:06Z</time>
      </trkpt>
      <trkpt lat="50.04513" lon="2.11435">
        <ele>55.9</ele>
        <time>2024-03-27T13:41:07Z</time>
      </trkpt>
      <trkpt lat="50.04513" lon="2.11435">
        <ele>55.9</ele>
        <time>2024-03-27T13:41:08Z</time>
      </trkpt>
      <trkpt lat="50.04513" lon="2.11435">
        <ele>55.9</ele>
        <time>2024-03-27T13:41:09Z</time>
      </trkpt>
      <trkpt lat="50.04513" lon="2.11435">
        <ele>55.9</ele>
        <time>2024-03-27T13:41:10Z</time>
      </trkpt>
      <trkpt lat="50.04513" lon="2.11435">
        <ele>55.9</ele>
        <time>2024-03-27T13:41:11Z</time>
      </trkpt>
      <trkpt lat="50.04513" lon="2.11435">
        <ele>55.9</ele>
        <time>2024-03-27T13:41:12Z</time>
      </trkpt>
      <trkpt lat="50.04513" lon="2.11435">
        <ele>55.9</ele>
        <time>2024-03-27T13:41:13Z</time>
      </trkpt>
      <trkpt lat="50.04513" lon="2.11435">
        <ele>55.9</ele>
        <time>2024-03-27T13:41:14Z</time>
      </trkpt>
      <trkpt lat="50.04513" lon="2.11435">
        <ele>55.9</ele>
        <time>2024-03-27T13:41:15Z</time>
      </trkpt>
      <trkpt lat="50.04513" lon="2.11435">
        <ele>55.9</ele>
        <time>2024-03-27T13:41:16Z</time>
      </trkpt>
      <trkpt lat="50.04513" lon="2.11435">
        <ele>55.9</ele>
        <time>2024-03-27T13:41:17Z</time>
      </trkpt>
      <trkpt lat="50.04513" lon="2.11435">
        <ele>55.9</ele>
        <time>2024-03-27T13:41:18Z</time>
      </trkpt>
      <trkpt lat="50.04513" lon="2.11435">
        <ele>55.9</ele>
        <time>2024-03-27T13:41:19Z</time>
      </trkpt>
      <trkpt lat="50.04513" lon="2.11435">
        <ele>55.9</ele>
        <time>2024-03-27T13:41:20Z</time>
      </trkpt>
      <trkpt lat="50.04513" lon="2.11435">
        <ele>55.9</ele>
        <time>2024-03-27T13:41:21Z</time>
      </trkpt>
      <trkpt lat="50.04513" lon="2.11435">
        <ele>55.9</ele>
        <time>2024-03-27T13:41:22Z</time>
      </trkpt>
      <trkpt lat="50.04513" lon="2.11434">
        <ele>56</ele>
        <time>2024-03-27T13:41:23Z</time>
      </trkpt>
      <trkpt lat="50.04512" lon="2.11434">
        <ele>56</ele>
        <time>2024-03-27T13:41:24Z</time>
      </trkpt>
      <trkpt lat="50.04512" lon="2.11432">
        <ele>56</ele>
        <time>2024-03-27T13:41:25Z</time>
      </trkpt>
      <trkpt lat="50.04512" lon="2.1143">
        <ele>56</ele>
        <time>2024-03-27T13:41:26Z</time>
      </trkpt>
      <trkpt lat="50.04512" lon="2.11429">
        <ele>56</ele>
        <time>2024-03-27T13:41:27Z</time>
      </trkpt>
      <trkpt lat="50.04513" lon="2.11427">
        <ele>56</ele>
        <time>2024-03-27T13:41:28Z</time>
      </trkpt>
      <trkpt lat="50.04513" lon="2.11426">
        <ele>56.1</ele>
        <time>2024-03-27T13:41:29Z</time>
      </trkpt>
      <trkpt lat="50.04513" lon="2.11425">
        <ele>56.1</ele>
        <time>2024-03-27T13:41:30Z</time>
      </trkpt>
      <trkpt lat="50.04515" lon="2.11424">
        <ele>56.1</ele>
        <time>2024-03-27T13:41:31Z</time>
      </trkpt>
      <trkpt lat="50.04516" lon="2.11423">
        <ele>56.1</ele>
        <time>2024-03-27T13:41:32Z</time>
      </trkpt>
      <trkpt lat="50.04518" lon="2.11422">
        <ele>56.1</ele>
        <time>2024-03-27T13:41:33Z</time>
      </trkpt>
      <trkpt lat="50.04519" lon="2.11422">
        <ele>56.2</ele>
        <time>2024-03-27T13:41:34Z</time>
      </trkpt>
      <trkpt lat="50.04521" lon="2.11421">
        <ele>56.2</ele>
        <time>2024-03-27T13:41:35Z</time>
      </trkpt>
      <trkpt lat="50.04522" lon="2.1142">
        <ele>56.2</ele>
        <time>2024-03-27T13:41:36Z</time>
      </trkpt>
      <trkpt lat="50.04523" lon="2.1142">
        <ele>56.2</ele>
        <time>2024-03-27T13:41:37Z</time>
      </trkpt>
      <trkpt lat="50.04523" lon="2.11419">
        <ele>56.2</ele>
        <time>2024-03-27T13:41:38Z</time>
      </trkpt>
      <trkpt lat="50.04524" lon="2.11419">
        <ele>56.2</ele>
        <time>2024-03-27T13:41:39Z</time>
      </trkpt>
      <trkpt lat="50.04525" lon="2.11419">
        <ele>56.2</ele>
        <time>2024-03-27T13:41:40Z</time>
      </trkpt>
      <trkpt lat="50.04526" lon="2.11419">
        <ele>56.2</ele>
        <time>2024-03-27T13:41:41Z</time>
      </trkpt>
      <trkpt lat="50.04526" lon="2.11418">
        <ele>56.2</ele>
        <time>2024-03-27T13:41:42Z</time>
      </trkpt>
      <trkpt lat="50.04527" lon="2.11418">
        <ele>56.2</ele>
        <time>2024-03-27T13:41:43Z</time>
      </trkpt>
      <trkpt lat="50.04528" lon="2.11418">
        <ele>56.2</ele>
        <time>2024-03-27T13:41:44Z</time>
      </trkpt>
      <trkpt lat="50.04529" lon="2.11417">
        <ele>56.2</ele>
        <time>2024-03-27T13:41:45Z</time>
      </trkpt>
      <trkpt lat="50.0453" lon="2.11417">
        <ele>56.2</ele>
        <time>2024-03-27T13:41:46Z</time>
      </trkpt>
      <trkpt lat="50.04532" lon="2.11416">
        <ele>56.2</ele>
        <time>2024-03-27T13:41:47Z</time>
      </trkpt>
      <trkpt lat="50.04533" lon="2.11416">
        <ele>56.2</ele>
        <time>2024-03-27T13:41:48Z</time>
      </trkpt>
      <trkpt lat="50.04534" lon="2.11416">
        <ele>56.2</ele>
        <time>2024-03-27T13:41:49Z</time>
      </trkpt>
      <trkpt lat="50.04536" lon="2.11415">
        <ele>56.2</ele>
        <time>2024-03-27T13:41:50Z</time>
      </trkpt>
      <trkpt lat="50.04537" lon="2.11415">
        <ele>56.2</ele>
        <time>2024-03-27T13:41:51Z</time>
      </trkpt>
      <trkpt lat="50.04538" lon="2.11414">
        <ele>56.2</ele>
        <time>2024-03-27T13:41:52Z</time>
      </trkpt>
      <trkpt lat="50.0454" lon="2.11413">
        <ele>56.2</ele>
        <time>2024-03-27T13:41:53Z</time>
      </trkpt>
      <trkpt lat="50.04541" lon="2.11413">
        <ele>56.2</ele>
        <time>2024-03-27T13:41:54Z</time>
      </trkpt>
      <trkpt lat="50.04542" lon="2.11412">
        <ele>56.2</ele>
        <time>2024-03-27T13:41:55Z</time>
      </trkpt>
      <trkpt lat="50.04543" lon="2.11411">
        <ele>56.2</ele>
        <time>2024-03-27T13:41:56Z</time>
      </trkpt>
      <trkpt lat="50.04544" lon="2.11411">
        <ele>56.2</ele>
        <time>2024-03-27T13:41:57Z</time>
      </trkpt>
      <trkpt lat="50.04545" lon="2.11411">
        <ele>56.2</ele>
        <time>2024-03-27T13:41:58Z</time>
      </trkpt>
      <trkpt lat="50.04546" lon="2.1141">
        <ele>56.3</ele>
        <time>2024-03-27T13:41:59Z</time>
      </trkpt>
      <trkpt lat="50.04547" lon="2.11409">
        <ele>56.3</ele>
        <time>2024-03-27T13:42:00Z</time>
      </trkpt>
      <trkpt lat="50.04548" lon="2.11409">
        <ele>56.3</ele>
        <time>2024-03-27T13:42:01Z</time>
      </trkpt>
      <trkpt lat="50.04549" lon="2.11408">
        <ele>56.3</ele>
        <time>2024-03-27T13:42:02Z</time>
      </trkpt>
      <trkpt lat="50.0455" lon="2.11408">
        <ele>56.3</ele>
        <time>2024-03-27T13:42:03Z</time>
      </trkpt>
      <trkpt lat="50.04551" lon="2.11407">
        <ele>56.3</ele>
        <time>2024-03-27T13:42:04Z</time>
      </trkpt>
      <trkpt lat="50.04552" lon="2.11406">
        <ele>56.3</ele>
        <time>2024-03-27T13:42:05Z</time>
      </trkpt>
      <trkpt lat="50.04553" lon="2.11405">
        <ele>56.3</ele>
        <time>2024-03-27T13:42:06Z</time>
      </trkpt>
      <trkpt lat="50.04554" lon="2.11404">
        <ele>56.3</ele>
        <time>2024-03-27T13:42:07Z</time>
      </trkpt>
      <trkpt lat="50.04554" lon="2.11404">
        <ele>56.3</ele>
        <time>2024-03-27T13:42:08Z</time>
      </trkpt>
      <trkpt lat="50.04555" lon="2.11403">
        <ele>56.4</ele>
        <time>2024-03-27T13:42:09Z</time>
      </trkpt>
      <trkpt lat="50.04556" lon="2.11402">
        <ele>56.4</ele>
        <time>2024-03-27T13:42:10Z</time>
      </trkpt>
      <trkpt lat="50.04557" lon="2.11402">
        <ele>56.4</ele>
        <time>2024-03-27T13:42:11Z</time>
      </trkpt>
      <trkpt lat="50.04558" lon="2.11401">
        <ele>56.4</ele>
        <time>2024-03-27T13:42:12Z</time>
      </trkpt>
      <trkpt lat="50.04558" lon="2.11401">
        <ele>56.4</ele>
        <time>2024-03-27T13:42:13Z</time>
      </trkpt>
      <trkpt lat="50.04559" lon="2.114">
        <ele>56.4</ele>
        <time>2024-03-27T13:42:14Z</time>
      </trkpt>
      <trkpt lat="50.0456" lon="2.11399">
        <ele>56.4</ele>
        <time>2024-03-27T13:42:15Z</time>
      </trkpt>
      <trkpt lat="50.04561" lon="2.11398">
        <ele>56.4</ele>
        <time>2024-03-27T13:42:16Z</time>
      </trkpt>
      <trkpt lat="50.04562" lon="2.11398">
        <ele>56.4</ele>
        <time>2024-03-27T13:42:17Z</time>
      </trkpt>
      <trkpt lat="50.04562" lon="2.11398">
        <ele>56.4</ele>
        <time>2024-03-27T13:42:18Z</time>
      </trkpt>
      <trkpt lat="50.04563" lon="2.11398">
        <ele>56.4</ele>
        <time>2024-03-27T13:42:19Z</time>
      </trkpt>
      <trkpt lat="50.04564" lon="2.11397">
        <ele>56.4</ele>
        <time>2024-03-27T13:42:20Z</time>
      </trkpt>
      <trkpt lat="50.04565" lon="2.11396">
        <ele>56.4</ele>
        <time>2024-03-27T13:42:21Z</time>
      </trkpt>
      <trkpt lat="50.04565" lon="2.11395">
        <ele>56.5</ele>
        <time>2024-03-27T13:42:22Z</time>
      </trkpt>
      <trkpt lat="50.04566" lon="2.11394">
        <ele>56.5</ele>
        <time>2024-03-27T13:42:23Z</time>
      </trkpt>
      <trkpt lat="50.04566" lon="2.11393">
        <ele>56.5</ele>
        <time>2024-03-27T13:42:24Z</time>
      </trkpt>
      <trkpt lat="50.04567" lon="2.11392">
        <ele>56.5</ele>
        <time>2024-03-27T13:42:25Z</time>
      </trkpt>
      <trkpt lat="50.04568" lon="2.11392">
        <ele>56.5</ele>
        <time>2024-03-27T13:42:26Z</time>
      </trkpt>
      <trkpt lat="50.04569" lon="2.11391">
        <ele>56.5</ele>
        <time>2024-03-27T13:42:27Z</time>
      </trkpt>
      <trkpt lat="50.0457" lon="2.1139">
        <ele>56.5</ele>
        <time>2024-03-27T13:42:28Z</time>
      </trkpt>
      <trkpt lat="50.0457" lon="2.1139">
        <ele>56.5</ele>
        <time>2024-03-27T13:42:29Z</time>
      </trkpt>
      <trkpt lat="50.04571" lon="2.11389">
        <ele>56.5</ele>
        <time>2024-03-27T13:42:30Z</time>
      </trkpt>
      <trkpt lat="50.04572" lon="2.11388">
        <ele>56.5</ele>
        <time>2024-03-27T13:42:31Z</time>
      </trkpt>
      <trkpt lat="50.04573" lon="2.11387">
        <ele>56.5</ele>
        <time>2024-03-27T13:42:32Z</time>
      </trkpt>
      <trkpt lat="50.04574" lon="2.11386">
        <ele>56.5</ele>
        <time>2024-03-27T13:42:33Z</time>
      </trkpt>
      <trkpt lat="50.04575" lon="2.11386">
        <ele>56.5</ele>
        <time>2024-03-27T13:42:34Z</time>
      </trkpt>
      <trkpt lat="50.04576" lon="2.11385">
        <ele>56.5</ele>
        <time>2024-03-27T13:42:35Z</time>
      </trkpt>
      <trkpt lat="50.04576" lon="2.11384">
        <ele>56.5</ele>
        <time>2024-03-27T13:42:36Z</time>
      </trkpt>
      <trkpt lat="50.04577" lon="2.11383">
        <ele>56.5</ele>
        <time>2024-03-27T13:42:37Z</time>
      </trkpt>
      <trkpt lat="50.04578" lon="2.11383">
        <ele>56.5</ele>
        <time>2024-03-27T13:42:38Z</time>
      </trkpt>
      <trkpt lat="50.04579" lon="2.11382">
        <ele>56.5</ele>
        <time>2024-03-27T13:42:39Z</time>
      </trkpt>
      <trkpt lat="50.0458" lon="2.11381">
        <ele>56.5</ele>
        <time>2024-03-27T13:42:40Z</time>
      </trkpt>
      <trkpt lat="50.04581" lon="2.1138">
        <ele>56.5</ele>
        <time>2024-03-27T13:42:41Z</time>
      </trkpt>
      <trkpt lat="50.04582" lon="2.11379">
        <ele>56.5</ele>
        <time>2024-03-27T13:42:42Z</time>
      </trkpt>
      <trkpt lat="50.04582" lon="2.11378">
        <ele>56.6</ele>
        <time>2024-03-27T13:42:43Z</time>
      </trkpt>
      <trkpt lat="50.04583" lon="2.11378">
        <ele>56.6</ele>
        <time>2024-03-27T13:42:44Z</time>
      </trkpt>
      <trkpt lat="50.04584" lon="2.11377">
        <ele>56.6</ele>
        <time>2024-03-27T13:42:45Z</time>
      </trkpt>
      <trkpt lat="50.04585" lon="2.11376">
        <ele>56.6</ele>
        <time>2024-03-27T13:42:46Z</time>
      </trkpt>
      <trkpt lat="50.04586" lon="2.11375">
        <ele>56.6</ele>
        <time>2024-03-27T13:42:47Z</time>
      </trkpt>
      <trkpt lat="50.04587" lon="2.11374">
        <ele>56.6</ele>
        <time>2024-03-27T13:42:48Z</time>
      </trkpt>
      <trkpt lat="50.04587" lon="2.11373">
        <ele>56.6</ele>
        <time>2024-03-27T13:42:49Z</time>
      </trkpt>
      <trkpt lat="50.04588" lon="2.11372">
        <ele>56.6</ele>
        <time>2024-03-27T13:42:50Z</time>
      </trkpt>
      <trkpt lat="50.04589" lon="2.11371">
        <ele>56.6</ele>
        <time>2024-03-27T13:42:51Z</time>
      </trkpt>
      <trkpt lat="50.04589" lon="2.1137">
        <ele>56.6</ele>
        <time>2024-03-27T13:42:52Z</time>
      </trkpt>
      <trkpt lat="50.0459" lon="2.11369">
        <ele>56.6</ele>
        <time>2024-03-27T13:42:53Z</time>
      </trkpt>
      <trkpt lat="50.04591" lon="2.11369">
        <ele>56.6</ele>
        <time>2024-03-27T13:42:54Z</time>
      </trkpt>
      <trkpt lat="50.04592" lon="2.11368">
        <ele>56.6</ele>
        <time>2024-03-27T13:42:55Z</time>
      </trkpt>
      <trkpt lat="50.04593" lon="2.11367">
        <ele>56.6</ele>
        <time>2024-03-27T13:42:56Z</time>
      </trkpt>
      <trkpt lat="50.04594" lon="2.11367">
        <ele>56.6</ele>
        <time>2024-03-27T13:42:57Z</time>
      </trkpt>
      <trkpt lat="50.04595" lon="2.11366">
        <ele>56.6</ele>
        <time>2024-03-27T13:42:58Z</time>
      </trkpt>
      <trkpt lat="50.04596" lon="2.11366">
        <ele>56.6</ele>
        <time>2024-03-27T13:42:59Z</time>
      </trkpt>
      <trkpt lat="50.04597" lon="2.11365">
        <ele>56.6</ele>
        <time>2024-03-27T13:43:00Z</time>
      </trkpt>
      <trkpt lat="50.04598" lon="2.11364">
        <ele>56.6</ele>
        <time>2024-03-27T13:43:01Z</time>
      </trkpt>
      <trkpt lat="50.04599" lon="2.11363">
        <ele>56.6</ele>
        <time>2024-03-27T13:43:02Z</time>
      </trkpt>
      <trkpt lat="50.04599" lon="2.11363">
        <ele>56.7</ele>
        <time>2024-03-27T13:43:03Z</time>
      </trkpt>
      <trkpt lat="50.046" lon="2.11362">
        <ele>56.7</ele>
        <time>2024-03-27T13:43:04Z</time>
      </trkpt>
      <trkpt lat="50.04601" lon="2.11361">
        <ele>56.7</ele>
        <time>2024-03-27T13:43:05Z</time>
      </trkpt>
      <trkpt lat="50.04602" lon="2.1136">
        <ele>56.7</ele>
        <time>2024-03-27T13:43:06Z</time>
      </trkpt>
      <trkpt lat="50.04603" lon="2.11359">
        <ele>56.7</ele>
        <time>2024-03-27T13:43:07Z</time>
      </trkpt>
      <trkpt lat="50.04603" lon="2.11357">
        <ele>56.7</ele>
        <time>2024-03-27T13:43:08Z</time>
      </trkpt>
      <trkpt lat="50.04604" lon="2.11356">
        <ele>56.7</ele>
        <time>2024-03-27T13:43:09Z</time>
      </trkpt>
      <trkpt lat="50.04605" lon="2.11355">
        <ele>56.7</ele>
        <time>2024-03-27T13:43:10Z</time>
      </trkpt>
      <trkpt lat="50.04606" lon="2.11354">
        <ele>56.8</ele>
        <time>2024-03-27T13:43:11Z</time>
      </trkpt>
      <trkpt lat="50.04606" lon="2.11352">
        <ele>56.8</ele>
        <time>2024-03-27T13:43:12Z</time>
      </trkpt>
      <trkpt lat="50.04607" lon="2.11351">
        <ele>56.8</ele>
        <time>2024-03-27T13:43:13Z</time>
      </trkpt>
      <trkpt lat="50.04608" lon="2.1135">
        <ele>56.8</ele>
        <time>2024-03-27T13:43:14Z</time>
      </trkpt>
      <trkpt lat="50.04609" lon="2.11349">
        <ele>56.8</ele>
        <time>2024-03-27T13:43:15Z</time>
      </trkpt>
      <trkpt lat="50.04609" lon="2.11347">
        <ele>56.8</ele>
        <time>2024-03-27T13:43:16Z</time>
      </trkpt>
      <trkpt lat="50.0461" lon="2.11347">
        <ele>56.8</ele>
        <time>2024-03-27T13:43:17Z</time>
      </trkpt>
      <trkpt lat="50.04611" lon="2.11346">
        <ele>56.9</ele>
        <time>2024-03-27T13:43:18Z</time>
      </trkpt>
      <trkpt lat="50.04612" lon="2.11344">
        <ele>56.9</ele>
        <time>2024-03-27T13:43:19Z</time>
      </trkpt>
      <trkpt lat="50.04613" lon="2.11344">
        <ele>56.9</ele>
        <time>2024-03-27T13:43:20Z</time>
      </trkpt>
      <trkpt lat="50.04614" lon="2.11343">
        <ele>56.9</ele>
        <time>2024-03-27T13:43:21Z</time>
      </trkpt>
      <trkpt lat="50.04614" lon="2.11343">
        <ele>56.9</ele>
        <time>2024-03-27T13:43:22Z</time>
      </trkpt>
      <trkpt lat="50.04615" lon="2.11342">
        <ele>56.9</ele>
        <time>2024-03-27T13:43:23Z</time>
      </trkpt>
      <trkpt lat="50.04616" lon="2.11342">
        <ele>56.9</ele>
        <time>2024-03-27T13:43:24Z</time>
      </trkpt>
      <trkpt lat="50.04616" lon="2.11341">
        <ele>57</ele>
        <time>2024-03-27T13:43:25Z</time>
      </trkpt>
      <trkpt lat="50.04617" lon="2.1134">
        <ele>57</ele>
        <time>2024-03-27T13:43:26Z</time>
      </trkpt>
      <trkpt lat="50.04618" lon="2.11339">
        <ele>57</ele>
        <time>2024-03-27T13:43:27Z</time>
      </trkpt>
      <trkpt lat="50.04619" lon="2.11338">
        <ele>57</ele>
        <time>2024-03-27T13:43:28Z</time>
      </trkpt>
      <trkpt lat="50.04619" lon="2.11338">
        <ele>57</ele>
        <time>2024-03-27T13:43:29Z</time>
      </trkpt>
      <trkpt lat="50.04621" lon="2.11336">
        <ele>57</ele>
        <time>2024-03-27T13:43:30Z</time>
      </trkpt>
      <trkpt lat="50.04621" lon="2.11336">
        <ele>57.1</ele>
        <time>2024-03-27T13:43:31Z</time>
      </trkpt>
      <trkpt lat="50.04622" lon="2.11335">
        <ele>57.1</ele>
        <time>2024-03-27T13:43:32Z</time>
      </trkpt>
      <trkpt lat="50.04622" lon="2.11335">
        <ele>57.1</ele>
        <time>2024-03-27T13:43:33Z</time>
      </trkpt>
      <trkpt lat="50.04623" lon="2.11334">
        <ele>57.1</ele>
        <time>2024-03-27T13:43:34Z</time>
      </trkpt>
      <trkpt lat="50.04624" lon="2.11334">
        <ele>57.1</ele>
        <time>2024-03-27T13:43:35Z</time>
      </trkpt>
      <trkpt lat="50.04625" lon="2.11334">
        <ele>57.2</ele>
        <time>2024-03-27T13:43:36Z</time>
      </trkpt>
      <trkpt lat="50.04626" lon="2.11333">
        <ele>57.2</ele>
        <time>2024-03-27T13:43:37Z</time>
      </trkpt>
      <trkpt lat="50.04627" lon="2.11333">
        <ele>57.2</ele>
        <time>2024-03-27T13:43:38Z</time>
      </trkpt>
      <trkpt lat="50.04628" lon="2.11332">
        <ele>57.2</ele>
        <time>2024-03-27T13:43:39Z</time>
      </trkpt>
      <trkpt lat="50.04628" lon="2.11331">
        <ele>57.2</ele>
        <time>2024-03-27T13:43:40Z</time>
      </trkpt>
      <trkpt lat="50.04629" lon="2.11331">
        <ele>57.2</ele>
        <time>2024-03-27T13:43:41Z</time>
      </trkpt>
      <trkpt lat="50.0463" lon="2.1133">
        <ele>57.3</ele>
        <time>2024-03-27T13:43:42Z</time>
      </trkpt>
      <trkpt lat="50.04631" lon="2.11329">
        <ele>57.3</ele>
        <time>2024-03-27T13:43:43Z</time>
      </trkpt>
      <trkpt lat="50.04632" lon="2.11328">
        <ele>57.3</ele>
        <time>2024-03-27T13:43:44Z</time>
      </trkpt>
      <trkpt lat="50.04633" lon="2.11327">
        <ele>57.3</ele>
        <time>2024-03-27T13:43:45Z</time>
      </trkpt>
      <trkpt lat="50.04634" lon="2.11327">
        <ele>57.4</ele>
        <time>2024-03-27T13:43:46Z</time>
      </trkpt>
      <trkpt lat="50.04635" lon="2.11326">
        <ele>57.4</ele>
        <time>2024-03-27T13:43:47Z</time>
      </trkpt>
      <trkpt lat="50.04635" lon="2.11325">
        <ele>57.4</ele>
        <time>2024-03-27T13:43:48Z</time>
      </trkpt>
      <trkpt lat="50.04636" lon="2.11324">
        <ele>57.4</ele>
        <time>2024-03-27T13:43:49Z</time>
      </trkpt>
      <trkpt lat="50.04637" lon="2.11324">
        <ele>57.4</ele>
        <time>2024-03-27T13:43:50Z</time>
      </trkpt>
      <trkpt lat="50.04638" lon="2.11323">
        <ele>57.5</ele>
        <time>2024-03-27T13:43:51Z</time>
      </trkpt>
      <trkpt lat="50.04639" lon="2.11322">
        <ele>57.5</ele>
        <time>2024-03-27T13:43:52Z</time>
      </trkpt>
      <trkpt lat="50.0464" lon="2.11321">
        <ele>57.5</ele>
        <time>2024-03-27T13:43:53Z</time>
      </trkpt>
      <trkpt lat="50.0464" lon="2.11321">
        <ele>57.5</ele>
        <time>2024-03-27T13:43:54Z</time>
      </trkpt>
      <trkpt lat="50.04641" lon="2.1132">
        <ele>57.5</ele>
        <time>2024-03-27T13:43:55Z</time>
      </trkpt>
      <trkpt lat="50.04642" lon="2.11319">
        <ele>57.5</ele>
        <time>2024-03-27T13:43:56Z</time>
      </trkpt>
      <trkpt lat="50.04643" lon="2.11319">
        <ele>57.6</ele>
        <time>2024-03-27T13:43:57Z</time>
      </trkpt>
      <trkpt lat="50.04644" lon="2.11318">
        <ele>57.6</ele>
        <time>2024-03-27T13:43:58Z</time>
      </trkpt>
      <trkpt lat="50.04645" lon="2.11317">
        <ele>57.6</ele>
        <time>2024-03-27T13:43:59Z</time>
      </trkpt>
      <trkpt lat="50.04646" lon="2.11316">
        <ele>57.6</ele>
        <time>2024-03-27T13:44:00Z</time>
      </trkpt>
      <trkpt lat="50.04646" lon="2.11316">
        <ele>57.7</ele>
        <time>2024-03-27T13:44:01Z</time>
      </trkpt>
      <trkpt lat="50.04647" lon="2.11315">
        <ele>57.7</ele>
        <time>2024-03-27T13:44:02Z</time>
      </trkpt>
      <trkpt lat="50.04648" lon="2.11314">
        <ele>57.7</ele>
        <time>2024-03-27T13:44:03Z</time>
      </trkpt>
      <trkpt lat="50.04649" lon="2.11313">
        <ele>57.7</ele>
        <time>2024-03-27T13:44:04Z</time>
      </trkpt>
      <trkpt lat="50.0465" lon="2.11312">
        <ele>57.8</ele>
        <time>2024-03-27T13:44:05Z</time>
      </trkpt>
      <trkpt lat="50.04651" lon="2.11311">
        <ele>57.8</ele>
        <time>2024-03-27T13:44:06Z</time>
      </trkpt>
      <trkpt lat="50.04651" lon="2.11311">
        <ele>57.8</ele>
        <time>2024-03-27T13:44:07Z</time>
      </trkpt>
      <trkpt lat="50.04652" lon="2.1131">
        <ele>57.8</ele>
        <time>2024-03-27T13:44:08Z</time>
      </trkpt>
      <trkpt lat="50.04653" lon="2.11309">
        <ele>57.9</ele>
        <time>2024-03-27T13:44:09Z</time>
      </trkpt>
      <trkpt lat="50.04654" lon="2.11308">
        <ele>57.9</ele>
        <time>2024-03-27T13:44:10Z</time>
      </trkpt>
      <trkpt lat="50.04655" lon="2.11307">
        <ele>57.9</ele>
        <time>2024-03-27T13:44:11Z</time>
      </trkpt>
      <trkpt lat="50.04656" lon="2.11306">
        <ele>57.9</ele>
        <time>2024-03-27T13:44:12Z</time>
      </trkpt>
      <trkpt lat="50.04657" lon="2.11305">
        <ele>58</ele>
        <time>2024-03-27T13:44:13Z</time>
      </trkpt>
      <trkpt lat="50.04657" lon="2.11304">
        <ele>58</ele>
        <time>2024-03-27T13:44:14Z</time>
      </trkpt>
      <trkpt lat="50.04658" lon="2.11303">
        <ele>58</ele>
        <time>2024-03-27T13:44:15Z</time>
      </trkpt>
      <trkpt lat="50.04659" lon="2.11302">
        <ele>58.1</ele>
        <time>2024-03-27T13:44:16Z</time>
      </trkpt>
      <trkpt lat="50.0466" lon="2.11301">
        <ele>58.1</ele>
        <time>2024-03-27T13:44:17Z</time>
      </trkpt>
      <trkpt lat="50.04661" lon="2.113">
        <ele>58.1</ele>
        <time>2024-03-27T13:44:18Z</time>
      </trkpt>
      <trkpt lat="50.04662" lon="2.113">
        <ele>58.1</ele>
        <time>2024-03-27T13:44:19Z</time>
      </trkpt>
      <trkpt lat="50.04663" lon="2.11299">
        <ele>58.2</ele>
        <time>2024-03-27T13:44:20Z</time>
      </trkpt>
      <trkpt lat="50.04664" lon="2.11298">
        <ele>58.2</ele>
        <time>2024-03-27T13:44:21Z</time>
      </trkpt>
      <trkpt lat="50.04665" lon="2.11298">
        <ele>58.2</ele>
        <time>2024-03-27T13:44:22Z</time>
      </trkpt>
      <trkpt lat="50.04666" lon="2.11297">
        <ele>58.3</ele>
        <time>2024-03-27T13:44:23Z</time>
      </trkpt>
      <trkpt lat="50.04667" lon="2.11296">
        <ele>58.3</ele>
        <time>2024-03-27T13:44:24Z</time>
      </trkpt>
      <trkpt lat="50.04668" lon="2.11295">
        <ele>58.3</ele>
        <time>2024-03-27T13:44:25Z</time>
      </trkpt>
      <trkpt lat="50.04669" lon="2.11295">
        <ele>58.4</ele>
        <time>2024-03-27T13:44:26Z</time>
      </trkpt>
      <trkpt lat="50.04669" lon="2.11294">
        <ele>58.4</ele>
        <time>2024-03-27T13:44:27Z</time>
      </trkpt>
      <trkpt lat="50.0467" lon="2.11293">
        <ele>58.4</ele>
        <time>2024-03-27T13:44:28Z</time>
      </trkpt>
      <trkpt lat="50.04671" lon="2.11292">
        <ele>58.4</ele>
        <time>2024-03-27T13:44:29Z</time>
      </trkpt>
      <trkpt lat="50.04672" lon="2.11291">
        <ele>58.5</ele>
        <time>2024-03-27T13:44:30Z</time>
      </trkpt>
      <trkpt lat="50.04673" lon="2.1129">
        <ele>58.5</ele>
        <time>2024-03-27T13:44:31Z</time>
      </trkpt>
      <trkpt lat="50.04674" lon="2.11289">
        <ele>58.5</ele>
        <time>2024-03-27T13:44:32Z</time>
      </trkpt>
      <trkpt lat="50.04675" lon="2.11289">
        <ele>58.5</ele>
        <time>2024-03-27T13:44:33Z</time>
      </trkpt>
      <trkpt lat="50.04676" lon="2.11288">
        <ele>58.6</ele>
        <time>2024-03-27T13:44:34Z</time>
      </trkpt>
      <trkpt lat="50.04677" lon="2.11288">
        <ele>58.6</ele>
        <time>2024-03-27T13:44:35Z</time>
      </trkpt>
      <trkpt lat="50.04678" lon="2.11287">
        <ele>58.6</ele>
        <time>2024-03-27T13:44:36Z</time>
      </trkpt>
      <trkpt lat="50.04679" lon="2.11287">
        <ele>58.7</ele>
        <time>2024-03-27T13:44:37Z</time>
      </trkpt>
      <trkpt lat="50.0468" lon="2.11286">
        <ele>58.7</ele>
        <time>2024-03-27T13:44:38Z</time>
      </trkpt>
      <trkpt lat="50.04681" lon="2.11285">
        <ele>58.7</ele>
        <time>2024-03-27T13:44:39Z</time>
      </trkpt>
      <trkpt lat="50.04682" lon="2.11284">
        <ele>58.7</ele>
        <time>2024-03-27T13:44:40Z</time>
      </trkpt>
      <trkpt lat="50.04683" lon="2.11283">
        <ele>58.8</ele>
        <time>2024-03-27T13:44:41Z</time>
      </trkpt>
      <trkpt lat="50.04684" lon="2.11282">
        <ele>58.8</ele>
        <time>2024-03-27T13:44:42Z</time>
      </trkpt>
      <trkpt lat="50.04685" lon="2.11282">
        <ele>58.8</ele>
        <time>2024-03-27T13:44:43Z</time>
      </trkpt>
      <trkpt lat="50.04686" lon="2.11281">
        <ele>58.8</ele>
        <time>2024-03-27T13:44:44Z</time>
      </trkpt>
      <trkpt lat="50.04687" lon="2.1128">
        <ele>58.9</ele>
        <time>2024-03-27T13:44:45Z</time>
      </trkpt>
      <trkpt lat="50.04688" lon="2.11279">
        <ele>58.9</ele>
        <time>2024-03-27T13:44:46Z</time>
      </trkpt>
      <trkpt lat="50.04689" lon="2.11278">
        <ele>58.9</ele>
        <time>2024-03-27T13:44:47Z</time>
      </trkpt>
      <trkpt lat="50.0469" lon="2.11278">
        <ele>58.9</ele>
        <time>2024-03-27T13:44:48Z</time>
      </trkpt>
      <trkpt lat="50.0469" lon="2.11277">
        <ele>59</ele>
        <time>2024-03-27T13:44:49Z</time>
      </trkpt>
      <trkpt lat="50.04691" lon="2.11276">
        <ele>59</ele>
        <time>2024-03-27T13:44:50Z</time>
      </trkpt>
      <trkpt lat="50.04692" lon="2.11276">
        <ele>59</ele>
        <time>2024-03-27T13:44:51Z</time>
      </trkpt>
      <trkpt lat="50.04693" lon="2.11275">
        <ele>59</ele>
        <time>2024-03-27T13:44:52Z</time>
      </trkpt>
      <trkpt lat="50.04694" lon="2.11274">
        <ele>59.1</ele>
        <time>2024-03-27T13:44:53Z</time>
      </trkpt>
      <trkpt lat="50.04695" lon="2.11273">
        <ele>59.1</ele>
        <time>2024-03-27T13:44:54Z</time>
      </trkpt>
      <trkpt lat="50.04696" lon="2.11273">
        <ele>59.1</ele>
        <time>2024-03-27T13:44:55Z</time>
      </trkpt>
      <trkpt lat="50.04697" lon="2.11272">
        <ele>59.1</ele>
        <time>2024-03-27T13:44:56Z</time>
      </trkpt>
      <trkpt lat="50.04698" lon="2.11272">
        <ele>59.2</ele>
        <time>2024-03-27T13:44:57Z</time>
      </trkpt>
      <trkpt lat="50.04699" lon="2.11271">
        <ele>59.2</ele>
        <time>2024-03-27T13:44:58Z</time>
      </trkpt>
      <trkpt lat="50.047" lon="2.1127">
        <ele>59.2</ele>
        <time>2024-03-27T13:44:59Z</time>
      </trkpt>
      <trkpt lat="50.04701" lon="2.11269">
        <ele>59.2</ele>
        <time>2024-03-27T13:45:00Z</time>
      </trkpt>
      <trkpt lat="50.04702" lon="2.11269">
        <ele>59.3</ele>
        <time>2024-03-27T13:45:01Z</time>
      </trkpt>
      <trkpt lat="50.04703" lon="2.11268">
        <ele>59.3</ele>
        <time>2024-03-27T13:45:02Z</time>
      </trkpt>
      <trkpt lat="50.04704" lon="2.11267">
        <ele>59.3</ele>
        <time>2024-03-27T13:45:03Z</time>
      </trkpt>
      <trkpt lat="50.04705" lon="2.11266">
        <ele>59.3</ele>
        <time>2024-03-27T13:45:04Z</time>
      </trkpt>
      <trkpt lat="50.04706" lon="2.11265">
        <ele>59.4</ele>
        <time>2024-03-27T13:45:05Z</time>
      </trkpt>
      <trkpt lat="50.04707" lon="2.11265">
        <ele>59.4</ele>
        <time>2024-03-27T13:45:06Z</time>
      </trkpt>
      <trkpt lat="50.04708" lon="2.11265">
        <ele>59.4</ele>
        <time>2024-03-27T13:45:07Z</time>
      </trkpt>
      <trkpt lat="50.04709" lon="2.11264">
        <ele>59.4</ele>
        <time>2024-03-27T13:45:08Z</time>
      </trkpt>
      <trkpt lat="50.0471" lon="2.11263">
        <ele>59.5</ele>
        <time>2024-03-27T13:45:09Z</time>
      </trkpt>
      <trkpt lat="50.04711" lon="2.11262">
        <ele>59.5</ele>
        <time>2024-03-27T13:45:10Z</time>
      </trkpt>
      <trkpt lat="50.04712" lon="2.11262">
        <ele>59.5</ele>
        <time>2024-03-27T13:45:11Z</time>
      </trkpt>
      <trkpt lat="50.04713" lon="2.11261">
        <ele>59.5</ele>
        <time>2024-03-27T13:45:12Z</time>
      </trkpt>
      <trkpt lat="50.04714" lon="2.1126">
        <ele>59.6</ele>
        <time>2024-03-27T13:45:13Z</time>
      </trkpt>
      <trkpt lat="50.04715" lon="2.1126">
        <ele>59.6</ele>
        <time>2024-03-27T13:45:14Z</time>
      </trkpt>
      <trkpt lat="50.04716" lon="2.11259">
        <ele>59.6</ele>
        <time>2024-03-27T13:45:15Z</time>
      </trkpt>
      <trkpt lat="50.04717" lon="2.11258">
        <ele>59.6</ele>
        <time>2024-03-27T13:45:16Z</time>
      </trkpt>
      <trkpt lat="50.04718" lon="2.11257">
        <ele>59.7</ele>
        <time>2024-03-27T13:45:17Z</time>
      </trkpt>
      <trkpt lat="50.04719" lon="2.11257">
        <ele>59.7</ele>
        <time>2024-03-27T13:45:18Z</time>
      </trkpt>
      <trkpt lat="50.0472" lon="2.11256">
        <ele>59.7</ele>
        <time>2024-03-27T13:45:19Z</time>
      </trkpt>
      <trkpt lat="50.04721" lon="2.11255">
        <ele>59.7</ele>
        <time>2024-03-27T13:45:20Z</time>
      </trkpt>
      <trkpt lat="50.04722" lon="2.11254">
        <ele>59.7</ele>
        <time>2024-03-27T13:45:21Z</time>
      </trkpt>
      <trkpt lat="50.04723" lon="2.11253">
        <ele>59.8</ele>
        <time>2024-03-27T13:45:22Z</time>
      </trkpt>
      <trkpt lat="50.04724" lon="2.11252">
        <ele>59.8</ele>
        <time>2024-03-27T13:45:23Z</time>
      </trkpt>
      <trkpt lat="50.04725" lon="2.11252">
        <ele>59.8</ele>
        <time>2024-03-27T13:45:24Z</time>
      </trkpt>
      <trkpt lat="50.04726" lon="2.1125">
        <ele>59.8</ele>
        <time>2024-03-27T13:45:25Z</time>
      </trkpt>
      <trkpt lat="50.04727" lon="2.11249">
        <ele>59.8</ele>
        <time>2024-03-27T13:45:26Z</time>
      </trkpt>
      <trkpt lat="50.04728" lon="2.11248">
        <ele>59.9</ele>
        <time>2024-03-27T13:45:27Z</time>
      </trkpt>
      <trkpt lat="50.04729" lon="2.11248">
        <ele>59.9</ele>
        <time>2024-03-27T13:45:28Z</time>
      </trkpt>
      <trkpt lat="50.04729" lon="2.11247">
        <ele>59.9</ele>
        <time>2024-03-27T13:45:29Z</time>
      </trkpt>
      <trkpt lat="50.0473" lon="2.11246">
        <ele>59.9</ele>
        <time>2024-03-27T13:45:30Z</time>
      </trkpt>
      <trkpt lat="50.04731" lon="2.11245">
        <ele>59.9</ele>
        <time>2024-03-27T13:45:31Z</time>
      </trkpt>
      <trkpt lat="50.04732" lon="2.11244">
        <ele>59.9</ele>
        <time>2024-03-27T13:45:32Z</time>
      </trkpt>
      <trkpt lat="50.04733" lon="2.11243">
        <ele>60</ele>
        <time>2024-03-27T13:45:33Z</time>
      </trkpt>
      <trkpt lat="50.04734" lon="2.11242">
        <ele>60</ele>
        <time>2024-03-27T13:45:34Z</time>
      </trkpt>
      <trkpt lat="50.04735" lon="2.11241">
        <ele>60</ele>
        <time>2024-03-27T13:45:35Z</time>
      </trkpt>
      <trkpt lat="50.04736" lon="2.1124">
        <ele>60</ele>
        <time>2024-03-27T13:45:36Z</time>
      </trkpt>
      <trkpt lat="50.04737" lon="2.1124">
        <ele>60</ele>
        <time>2024-03-27T13:45:37Z</time>
      </trkpt>
      <trkpt lat="50.04738" lon="2.11239">
        <ele>60.1</ele>
        <time>2024-03-27T13:45:38Z</time>
      </trkpt>
      <trkpt lat="50.04738" lon="2.11238">
        <ele>60.1</ele>
        <time>2024-03-27T13:45:39Z</time>
      </trkpt>
      <trkpt lat="50.04739" lon="2.11238">
        <ele>60.1</ele>
        <time>2024-03-27T13:45:40Z</time>
      </trkpt>
      <trkpt lat="50.0474" lon="2.11238">
        <ele>60.1</ele>
        <time>2024-03-27T13:45:41Z</time>
      </trkpt>
      <trkpt lat="50.04741" lon="2.11238">
        <ele>60.1</ele>
        <time>2024-03-27T13:45:42Z</time>
      </trkpt>
      <trkpt lat="50.04742" lon="2.11237">
        <ele>60.1</ele>
        <time>2024-03-27T13:45:43Z</time>
      </trkpt>
      <trkpt lat="50.04743" lon="2.11236">
        <ele>60.1</ele>
        <time>2024-03-27T13:45:44Z</time>
      </trkpt>
      <trkpt lat="50.04744" lon="2.11235">
        <ele>60.1</ele>
        <time>2024-03-27T13:45:45Z</time>
      </trkpt>
      <trkpt lat="50.04744" lon="2.11235">
        <ele>60.2</ele>
        <time>2024-03-27T13:45:46Z</time>
      </trkpt>
      <trkpt lat="50.04745" lon="2.11234">
        <ele>60.2</ele>
        <time>2024-03-27T13:45:47Z</time>
      </trkpt>
      <trkpt lat="50.04746" lon="2.11234">
        <ele>60.2</ele>
        <time>2024-03-27T13:45:48Z</time>
      </trkpt>
      <trkpt lat="50.04747" lon="2.11233">
        <ele>60.2</ele>
        <time>2024-03-27T13:45:49Z</time>
      </trkpt>
      <trkpt lat="50.04748" lon="2.11232">
        <ele>60.2</ele>
        <time>2024-03-27T13:45:50Z</time>
      </trkpt>
      <trkpt lat="50.04749" lon="2.11232">
        <ele>60.2</ele>
        <time>2024-03-27T13:45:51Z</time>
      </trkpt>
      <trkpt lat="50.0475" lon="2.11231">
        <ele>60.2</ele>
        <time>2024-03-27T13:45:52Z</time>
      </trkpt>
      <trkpt lat="50.04751" lon="2.11231">
        <ele>60.2</ele>
        <time>2024-03-27T13:45:53Z</time>
      </trkpt>
      <trkpt lat="50.04752" lon="2.1123">
        <ele>60.2</ele>
        <time>2024-03-27T13:45:54Z</time>
      </trkpt>
      <trkpt lat="50.04753" lon="2.1123">
        <ele>60.3</ele>
        <time>2024-03-27T13:45:55Z</time>
      </trkpt>
      <trkpt lat="50.04754" lon="2.11229">
        <ele>60.3</ele>
        <time>2024-03-27T13:45:56Z</time>
      </trkpt>
      <trkpt lat="50.04755" lon="2.11229">
        <ele>60.3</ele>
        <time>2024-03-27T13:45:57Z</time>
      </trkpt>
      <trkpt lat="50.04756" lon="2.11228">
        <ele>60.3</ele>
        <time>2024-03-27T13:45:58Z</time>
      </trkpt>
      <trkpt lat="50.04757" lon="2.11227">
        <ele>60.3</ele>
        <time>2024-03-27T13:45:59Z</time>
      </trkpt>
      <trkpt lat="50.04758" lon="2.11226">
        <ele>60.3</ele>
        <time>2024-03-27T13:46:00Z</time>
      </trkpt>
      <trkpt lat="50.04759" lon="2.11226">
        <ele>60.3</ele>
        <time>2024-03-27T13:46:01Z</time>
      </trkpt>
      <trkpt lat="50.04759" lon="2.11225">
        <ele>60.3</ele>
        <time>2024-03-27T13:46:02Z</time>
      </trkpt>
      <trkpt lat="50.0476" lon="2.11225">
        <ele>60.3</ele>
        <time>2024-03-27T13:46:03Z</time>
      </trkpt>
      <trkpt lat="50.04761" lon="2.11224">
        <ele>60.3</ele>
        <time>2024-03-27T13:46:04Z</time>
      </trkpt>
      <trkpt lat="50.04762" lon="2.11223">
        <ele>60.3</ele>
        <time>2024-03-27T13:46:05Z</time>
      </trkpt>
      <trkpt lat="50.04763" lon="2.11223">
        <ele>60.3</ele>
        <time>2024-03-27T13:46:06Z</time>
      </trkpt>
      <trkpt lat="50.04764" lon="2.11222">
        <ele>60.4</ele>
        <time>2024-03-27T13:46:07Z</time>
      </trkpt>
      <trkpt lat="50.04764" lon="2.11221">
        <ele>60.4</ele>
        <time>2024-03-27T13:46:08Z</time>
      </trkpt>
      <trkpt lat="50.04765" lon="2.1122">
        <ele>60.4</ele>
        <time>2024-03-27T13:46:09Z</time>
      </trkpt>
      <trkpt lat="50.04766" lon="2.1122">
        <ele>60.4</ele>
        <time>2024-03-27T13:46:10Z</time>
      </trkpt>
      <trkpt lat="50.04767" lon="2.11218">
        <ele>60.4</ele>
        <time>2024-03-27T13:46:11Z</time>
      </trkpt>
      <trkpt lat="50.04768" lon="2.11218">
        <ele>60.4</ele>
        <time>2024-03-27T13:46:12Z</time>
      </trkpt>
      <trkpt lat="50.04769" lon="2.11217">
        <ele>60.4</ele>
        <time>2024-03-27T13:46:13Z</time>
      </trkpt>
      <trkpt lat="50.04769" lon="2.11217">
        <ele>60.4</ele>
        <time>2024-03-27T13:46:14Z</time>
      </trkpt>
      <trkpt lat="50.0477" lon="2.11216">
        <ele>60.4</ele>
        <time>2024-03-27T13:46:15Z</time>
      </trkpt>
      <trkpt lat="50.04771" lon="2.11215">
        <ele>60.4</ele>
        <time>2024-03-27T13:46:16Z</time>
      </trkpt>
      <trkpt lat="50.04772" lon="2.11214">
        <ele>60.4</ele>
        <time>2024-03-27T13:46:17Z</time>
      </trkpt>
      <trkpt lat="50.04773" lon="2.11214">
        <ele>60.5</ele>
        <time>2024-03-27T13:46:18Z</time>
      </trkpt>
      <trkpt lat="50.04774" lon="2.11213">
        <ele>60.5</ele>
        <time>2024-03-27T13:46:19Z</time>
      </trkpt>
      <trkpt lat="50.04775" lon="2.11212">
        <ele>60.5</ele>
        <time>2024-03-27T13:46:20Z</time>
      </trkpt>
      <trkpt lat="50.04776" lon="2.11212">
        <ele>60.5</ele>
        <time>2024-03-27T13:46:21Z</time>
      </trkpt>
      <trkpt lat="50.04777" lon="2.11211">
        <ele>60.5</ele>
        <time>2024-03-27T13:46:22Z</time>
      </trkpt>
      <trkpt lat="50.04778" lon="2.1121">
        <ele>60.5</ele>
        <time>2024-03-27T13:46:23Z</time>
      </trkpt>
      <trkpt lat="50.04779" lon="2.11209">
        <ele>60.5</ele>
        <time>2024-03-27T13:46:24Z</time>
      </trkpt>
      <trkpt lat="50.0478" lon="2.11208">
        <ele>60.5</ele>
        <time>2024-03-27T13:46:25Z</time>
      </trkpt>
      <trkpt lat="50.04781" lon="2.11207">
        <ele>60.5</ele>
        <time>2024-03-27T13:46:26Z</time>
      </trkpt>
      <trkpt lat="50.04782" lon="2.11206">
        <ele>60.6</ele>
        <time>2024-03-27T13:46:27Z</time>
      </trkpt>
      <trkpt lat="50.04783" lon="2.11206">
        <ele>60.6</ele>
        <time>2024-03-27T13:46:28Z</time>
      </trkpt>
      <trkpt lat="50.04783" lon="2.11205">
        <ele>60.6</ele>
        <time>2024-03-27T13:46:29Z</time>
      </trkpt>
      <trkpt lat="50.04784" lon="2.11204">
        <ele>60.6</ele>
        <time>2024-03-27T13:46:30Z</time>
      </trkpt>
      <trkpt lat="50.04785" lon="2.11203">
        <ele>60.6</ele>
        <time>2024-03-27T13:46:31Z</time>
      </trkpt>
      <trkpt lat="50.04786" lon="2.11203">
        <ele>60.6</ele>
        <time>2024-03-27T13:46:32Z</time>
      </trkpt>
      <trkpt lat="50.04787" lon="2.11202">
        <ele>60.6</ele>
        <time>2024-03-27T13:46:33Z</time>
      </trkpt>
      <trkpt lat="50.04788" lon="2.11201">
        <ele>60.6</ele>
        <time>2024-03-27T13:46:34Z</time>
      </trkpt>
      <trkpt lat="50.04789" lon="2.11201">
        <ele>60.6</ele>
        <time>2024-03-27T13:46:35Z</time>
      </trkpt>
      <trkpt lat="50.0479" lon="2.112">
        <ele>60.6</ele>
        <time>2024-03-27T13:46:36Z</time>
      </trkpt>
      <trkpt lat="50.0479" lon="2.11199">
        <ele>60.6</ele>
        <time>2024-03-27T13:46:37Z</time>
      </trkpt>
      <trkpt lat="50.04791" lon="2.11199">
        <ele>60.7</ele>
        <time>2024-03-27T13:46:38Z</time>
      </trkpt>
      <trkpt lat="50.04792" lon="2.11198">
        <ele>60.7</ele>
        <time>2024-03-27T13:46:39Z</time>
      </trkpt>
      <trkpt lat="50.04793" lon="2.11197">
        <ele>60.7</ele>
        <time>2024-03-27T13:46:40Z</time>
      </trkpt>
      <trkpt lat="50.04794" lon="2.11196">
        <ele>60.7</ele>
        <time>2024-03-27T13:46:41Z</time>
      </trkpt>
      <trkpt lat="50.04795" lon="2.11195">
        <ele>60.7</ele>
        <time>2024-03-27T13:46:42Z</time>
      </trkpt>
      <trkpt lat="50.04796" lon="2.11194">
        <ele>60.7</ele>
        <time>2024-03-27T13:46:43Z</time>
      </trkpt>
      <trkpt lat="50.04797" lon="2.11193">
        <ele>60.7</ele>
        <time>2024-03-27T13:46:44Z</time>
      </trkpt>
      <trkpt lat="50.04798" lon="2.11192">
        <ele>60.7</ele>
        <time>2024-03-27T13:46:45Z</time>
      </trkpt>
      <trkpt lat="50.04799" lon="2.11192">
        <ele>60.7</ele>
        <time>2024-03-27T13:46:46Z</time>
      </trkpt>
      <trkpt lat="50.048" lon="2.11191">
        <ele>60.8</ele>
        <time>2024-03-27T13:46:47Z</time>
      </trkpt>
      <trkpt lat="50.04801" lon="2.1119">
        <ele>60.8</ele>
        <time>2024-03-27T13:46:48Z</time>
      </trkpt>
      <trkpt lat="50.04802" lon="2.11189">
        <ele>60.8</ele>
        <time>2024-03-27T13:46:49Z</time>
      </trkpt>
      <trkpt lat="50.04803" lon="2.11188">
        <ele>60.8</ele>
        <time>2024-03-27T13:46:50Z</time>
      </trkpt>
      <trkpt lat="50.04803" lon="2.11187">
        <ele>60.8</ele>
        <time>2024-03-27T13:46:51Z</time>
      </trkpt>
      <trkpt lat="50.04804" lon="2.11185">
        <ele>60.8</ele>
        <time>2024-03-27T13:46:52Z</time>
      </trkpt>
      <trkpt lat="50.04804" lon="2.11184">
        <ele>60.8</ele>
        <time>2024-03-27T13:46:53Z</time>
      </trkpt>
      <trkpt lat="50.04805" lon="2.11183">
        <ele>60.8</ele>
        <time>2024-03-27T13:46:54Z</time>
      </trkpt>
      <trkpt lat="50.04806" lon="2.11182">
        <ele>60.8</ele>
        <time>2024-03-27T13:46:55Z</time>
      </trkpt>
      <trkpt lat="50.04807" lon="2.11182">
        <ele>60.8</ele>
        <time>2024-03-27T13:46:56Z</time>
      </trkpt>
      <trkpt lat="50.04808" lon="2.11181">
        <ele>60.8</ele>
        <time>2024-03-27T13:46:57Z</time>
      </trkpt>
      <trkpt lat="50.04809" lon="2.1118">
        <ele>60.8</ele>
        <time>2024-03-27T13:46:58Z</time>
      </trkpt>
      <trkpt lat="50.0481" lon="2.1118">
        <ele>60.8</ele>
        <time>2024-03-27T13:46:59Z</time>
      </trkpt>
      <trkpt lat="50.0481" lon="2.11179">
        <ele>60.8</ele>
        <time>2024-03-27T13:47:00Z</time>
      </trkpt>
      <trkpt lat="50.04811" lon="2.11179">
        <ele>60.8</ele>
        <time>2024-03-27T13:47:01Z</time>
      </trkpt>
      <trkpt lat="50.04812" lon="2.11178">
        <ele>60.8</ele>
        <time>2024-03-27T13:47:02Z</time>
      </trkpt>
      <trkpt lat="50.04813" lon="2.11177">
        <ele>60.8</ele>
        <time>2024-03-27T13:47:03Z</time>
      </trkpt>
      <trkpt lat="50.04814" lon="2.11176">
        <ele>60.8</ele>
        <time>2024-03-27T13:47:04Z</time>
      </trkpt>
      <trkpt lat="50.04815" lon="2.11176">
        <ele>60.8</ele>
        <time>2024-03-27T13:47:05Z</time>
      </trkpt>
      <trkpt lat="50.04816" lon="2.11175">
        <ele>60.8</ele>
        <time>2024-03-27T13:47:06Z</time>
      </trkpt>
      <trkpt lat="50.04817" lon="2.11174">
        <ele>60.8</ele>
        <time>2024-03-27T13:47:07Z</time>
      </trkpt>
      <trkpt lat="50.04818" lon="2.11173">
        <ele>60.8</ele>
        <time>2024-03-27T13:47:08Z</time>
      </trkpt>
      <trkpt lat="50.04819" lon="2.11172">
        <ele>60.8</ele>
        <time>2024-03-27T13:47:09Z</time>
      </trkpt>
      <trkpt lat="50.0482" lon="2.1117">
        <ele>60.9</ele>
        <time>2024-03-27T13:47:10Z</time>
      </trkpt>
      <trkpt lat="50.04821" lon="2.11169">
        <ele>60.9</ele>
        <time>2024-03-27T13:47:11Z</time>
      </trkpt>
      <trkpt lat="50.04822" lon="2.11168">
        <ele>60.9</ele>
        <time>2024-03-27T13:47:12Z</time>
      </trkpt>
      <trkpt lat="50.04823" lon="2.11167">
        <ele>60.9</ele>
        <time>2024-03-27T13:47:13Z</time>
      </trkpt>
      <trkpt lat="50.04824" lon="2.11166">
        <ele>60.9</ele>
        <time>2024-03-27T13:47:14Z</time>
      </trkpt>
      <trkpt lat="50.04825" lon="2.11165">
        <ele>60.9</ele>
        <time>2024-03-27T13:47:15Z</time>
      </trkpt>
      <trkpt lat="50.04826" lon="2.11164">
        <ele>60.9</ele>
        <time>2024-03-27T13:47:16Z</time>
      </trkpt>
      <trkpt lat="50.04827" lon="2.11163">
        <ele>60.9</ele>
        <time>2024-03-27T13:47:17Z</time>
      </trkpt>
      <trkpt lat="50.04828" lon="2.11162">
        <ele>60.9</ele>
        <time>2024-03-27T13:47:18Z</time>
      </trkpt>
      <trkpt lat="50.04829" lon="2.11161">
        <ele>60.9</ele>
        <time>2024-03-27T13:47:19Z</time>
      </trkpt>
      <trkpt lat="50.0483" lon="2.1116">
        <ele>60.9</ele>
        <time>2024-03-27T13:47:20Z</time>
      </trkpt>
      <trkpt lat="50.04831" lon="2.11159">
        <ele>60.9</ele>
        <time>2024-03-27T13:47:21Z</time>
      </trkpt>
      <trkpt lat="50.04831" lon="2.11158">
        <ele>60.9</ele>
        <time>2024-03-27T13:47:22Z</time>
      </trkpt>
      <trkpt lat="50.04832" lon="2.11157">
        <ele>60.9</ele>
        <time>2024-03-27T13:47:23Z</time>
      </trkpt>
      <trkpt lat="50.04833" lon="2.11156">
        <ele>60.9</ele>
        <time>2024-03-27T13:47:24Z</time>
      </trkpt>
      <trkpt lat="50.04835" lon="2.11154">
        <ele>60.9</ele>
        <time>2024-03-27T13:47:25Z</time>
      </trkpt>
      <trkpt lat="50.04836" lon="2.11153">
        <ele>61</ele>
        <time>2024-03-27T13:47:26Z</time>
      </trkpt>
      <trkpt lat="50.04837" lon="2.11152">
        <ele>61</ele>
        <time>2024-03-27T13:47:27Z</time>
      </trkpt>
      <trkpt lat="50.04838" lon="2.11151">
        <ele>61</ele>
        <time>2024-03-27T13:47:28Z</time>
      </trkpt>
      <trkpt lat="50.04839" lon="2.1115">
        <ele>61</ele>
        <time>2024-03-27T13:47:29Z</time>
      </trkpt>
      <trkpt lat="50.0484" lon="2.11149">
        <ele>61</ele>
        <time>2024-03-27T13:47:30Z</time>
      </trkpt>
      <trkpt lat="50.04841" lon="2.11149">
        <ele>61</ele>
        <time>2024-03-27T13:47:31Z</time>
      </trkpt>
      <trkpt lat="50.04842" lon="2.11148">
        <ele>61</ele>
        <time>2024-03-27T13:47:32Z</time>
      </trkpt>
      <trkpt lat="50.04843" lon="2.11148">
        <ele>61</ele>
        <time>2024-03-27T13:47:33Z</time>
      </trkpt>
      <trkpt lat="50.04844" lon="2.11147">
        <ele>61</ele>
        <time>2024-03-27T13:47:34Z</time>
      </trkpt>
      <trkpt lat="50.04845" lon="2.11146">
        <ele>61</ele>
        <time>2024-03-27T13:47:35Z</time>
      </trkpt>
      <trkpt lat="50.04846" lon="2.11146">
        <ele>61</ele>
        <time>2024-03-27T13:47:36Z</time>
      </trkpt>
      <trkpt lat="50.04847" lon="2.11145">
        <ele>61</ele>
        <time>2024-03-27T13:47:37Z</time>
      </trkpt>
      <trkpt lat="50.04847" lon="2.11144">
        <ele>61</ele>
        <time>2024-03-27T13:47:38Z</time>
      </trkpt>
      <trkpt lat="50.04848" lon="2.11144">
        <ele>61</ele>
        <time>2024-03-27T13:47:39Z</time>
      </trkpt>
      <trkpt lat="50.04849" lon="2.11143">
        <ele>61</ele>
        <time>2024-03-27T13:47:40Z</time>
      </trkpt>
      <trkpt lat="50.0485" lon="2.11142">
        <ele>61</ele>
        <time>2024-03-27T13:47:41Z</time>
      </trkpt>
      <trkpt lat="50.04851" lon="2.11141">
        <ele>61.1</ele>
        <time>2024-03-27T13:47:42Z</time>
      </trkpt>
      <trkpt lat="50.04852" lon="2.1114">
        <ele>61.1</ele>
        <time>2024-03-27T13:47:43Z</time>
      </trkpt>
      <trkpt lat="50.04853" lon="2.11138">
        <ele>61.1</ele>
        <time>2024-03-27T13:47:44Z</time>
      </trkpt>
      <trkpt lat="50.04853" lon="2.11138">
        <ele>61.1</ele>
        <time>2024-03-27T13:47:45Z</time>
      </trkpt>
      <trkpt lat="50.04854" lon="2.11137">
        <ele>61.1</ele>
        <time>2024-03-27T13:47:46Z</time>
      </trkpt>
      <trkpt lat="50.04855" lon="2.11136">
        <ele>61.1</ele>
        <time>2024-03-27T13:47:47Z</time>
      </trkpt>
      <trkpt lat="50.04856" lon="2.11136">
        <ele>61.1</ele>
        <time>2024-03-27T13:47:48Z</time>
      </trkpt>
      <trkpt lat="50.04857" lon="2.11135">
        <ele>61.1</ele>
        <time>2024-03-27T13:47:49Z</time>
      </trkpt>
      <trkpt lat="50.04858" lon="2.11134">
        <ele>61.1</ele>
        <time>2024-03-27T13:47:50Z</time>
      </trkpt>
      <trkpt lat="50.04859" lon="2.11133">
        <ele>61.1</ele>
        <time>2024-03-27T13:47:51Z</time>
      </trkpt>
      <trkpt lat="50.0486" lon="2.11133">
        <ele>61.1</ele>
        <time>2024-03-27T13:47:52Z</time>
      </trkpt>
      <trkpt lat="50.04861" lon="2.11132">
        <ele>61.1</ele>
        <time>2024-03-27T13:47:53Z</time>
      </trkpt>
      <trkpt lat="50.04862" lon="2.11131">
        <ele>61.2</ele>
        <time>2024-03-27T13:47:54Z</time>
      </trkpt>
      <trkpt lat="50.04863" lon="2.1113">
        <ele>61.2</ele>
        <time>2024-03-27T13:47:55Z</time>
      </trkpt>
      <trkpt lat="50.04864" lon="2.1113">
        <ele>61.2</ele>
        <time>2024-03-27T13:47:56Z</time>
      </trkpt>
      <trkpt lat="50.04865" lon="2.11129">
        <ele>61.2</ele>
        <time>2024-03-27T13:47:57Z</time>
      </trkpt>
      <trkpt lat="50.04866" lon="2.11128">
        <ele>61.2</ele>
        <time>2024-03-27T13:47:58Z</time>
      </trkpt>
      <trkpt lat="50.04867" lon="2.11127">
        <ele>61.2</ele>
        <time>2024-03-27T13:47:59Z</time>
      </trkpt>
      <trkpt lat="50.04868" lon="2.11127">
        <ele>61.2</ele>
        <time>2024-03-27T13:48:00Z</time>
      </trkpt>
      <trkpt lat="50.04869" lon="2.11126">
        <ele>61.2</ele>
        <time>2024-03-27T13:48:01Z</time>
      </trkpt>
      <trkpt lat="50.0487" lon="2.11125">
        <ele>61.3</ele>
        <time>2024-03-27T13:48:02Z</time>
      </trkpt>
      <trkpt lat="50.04871" lon="2.11125">
        <ele>61.3</ele>
        <time>2024-03-27T13:48:03Z</time>
      </trkpt>
      <trkpt lat="50.04873" lon="2.11123">
        <ele>61.3</ele>
        <time>2024-03-27T13:48:04Z</time>
      </trkpt>
      <trkpt lat="50.04874" lon="2.11123">
        <ele>61.3</ele>
        <time>2024-03-27T13:48:05Z</time>
      </trkpt>
      <trkpt lat="50.04875" lon="2.11122">
        <ele>61.3</ele>
        <time>2024-03-27T13:48:06Z</time>
      </trkpt>
      <trkpt lat="50.04876" lon="2.11121">
        <ele>61.3</ele>
        <time>2024-03-27T13:48:07Z</time>
      </trkpt>
      <trkpt lat="50.04877" lon="2.11121">
        <ele>61.3</ele>
        <time>2024-03-27T13:48:08Z</time>
      </trkpt>
      <trkpt lat="50.04878" lon="2.1112">
        <ele>61.4</ele>
        <time>2024-03-27T13:48:09Z</time>
      </trkpt>
      <trkpt lat="50.04879" lon="2.11119">
        <ele>61.4</ele>
        <time>2024-03-27T13:48:10Z</time>
      </trkpt>
      <trkpt lat="50.0488" lon="2.11119">
        <ele>61.4</ele>
        <time>2024-03-27T13:48:11Z</time>
      </trkpt>
      <trkpt lat="50.04881" lon="2.11118">
        <ele>61.4</ele>
        <time>2024-03-27T13:48:12Z</time>
      </trkpt>
      <trkpt lat="50.04882" lon="2.11117">
        <ele>61.4</ele>
        <time>2024-03-27T13:48:13Z</time>
      </trkpt>
      <trkpt lat="50.04883" lon="2.11116">
        <ele>61.4</ele>
        <time>2024-03-27T13:48:14Z</time>
      </trkpt>
      <trkpt lat="50.04883" lon="2.11116">
        <ele>61.4</ele>
        <time>2024-03-27T13:48:15Z</time>
      </trkpt>
      <trkpt lat="50.04884" lon="2.11115">
        <ele>61.5</ele>
        <time>2024-03-27T13:48:16Z</time>
      </trkpt>
      <trkpt lat="50.04885" lon="2.11114">
        <ele>61.5</ele>
        <time>2024-03-27T13:48:17Z</time>
      </trkpt>
      <trkpt lat="50.04886" lon="2.11113">
        <ele>61.5</ele>
        <time>2024-03-27T13:48:18Z</time>
      </trkpt>
      <trkpt lat="50.04887" lon="2.11112">
        <ele>61.5</ele>
        <time>2024-03-27T13:48:19Z</time>
      </trkpt>
      <trkpt lat="50.04888" lon="2.11112">
        <ele>61.5</ele>
        <time>2024-03-27T13:48:20Z</time>
      </trkpt>
      <trkpt lat="50.04889" lon="2.11111">
        <ele>61.5</ele>
        <time>2024-03-27T13:48:21Z</time>
      </trkpt>
      <trkpt lat="50.0489" lon="2.1111">
        <ele>61.6</ele>
        <time>2024-03-27T13:48:22Z</time>
      </trkpt>
      <trkpt lat="50.04891" lon="2.11109">
        <ele>61.6</ele>
        <time>2024-03-27T13:48:23Z</time>
      </trkpt>
      <trkpt lat="50.04891" lon="2.11108">
        <ele>61.6</ele>
        <time>2024-03-27T13:48:24Z</time>
      </trkpt>
      <trkpt lat="50.04892" lon="2.11108">
        <ele>61.6</ele>
        <time>2024-03-27T13:48:25Z</time>
      </trkpt>
      <trkpt lat="50.04893" lon="2.11107">
        <ele>61.6</ele>
        <time>2024-03-27T13:48:26Z</time>
      </trkpt>
      <trkpt lat="50.04894" lon="2.11106">
        <ele>61.6</ele>
        <time>2024-03-27T13:48:27Z</time>
      </trkpt>
      <trkpt lat="50.04895" lon="2.11105">
        <ele>61.7</ele>
        <time>2024-03-27T13:48:28Z</time>
      </trkpt>
      <trkpt lat="50.04896" lon="2.11105">
        <ele>61.7</ele>
        <time>2024-03-27T13:48:29Z</time>
      </trkpt>
      <trkpt lat="50.04897" lon="2.11104">
        <ele>61.7</ele>
        <time>2024-03-27T13:48:30Z</time>
      </trkpt>
      <trkpt lat="50.04898" lon="2.11103">
        <ele>61.7</ele>
        <time>2024-03-27T13:48:31Z</time>
      </trkpt>
      <trkpt lat="50.04899" lon="2.11103">
        <ele>61.8</ele>
        <time>2024-03-27T13:48:32Z</time>
      </trkpt>
      <trkpt lat="50.049" lon="2.11102">
        <ele>61.8</ele>
        <time>2024-03-27T13:48:33Z</time>
      </trkpt>
      <trkpt lat="50.04901" lon="2.11101">
        <ele>61.8</ele>
        <time>2024-03-27T13:48:34Z</time>
      </trkpt>
      <trkpt lat="50.04902" lon="2.111">
        <ele>61.8</ele>
        <time>2024-03-27T13:48:35Z</time>
      </trkpt>
      <trkpt lat="50.04903" lon="2.11099">
        <ele>61.8</ele>
        <time>2024-03-27T13:48:36Z</time>
      </trkpt>
      <trkpt lat="50.04904" lon="2.11099">
        <ele>61.9</ele>
        <time>2024-03-27T13:48:37Z</time>
      </trkpt>
      <trkpt lat="50.04905" lon="2.11098">
        <ele>61.9</ele>
        <time>2024-03-27T13:48:38Z</time>
      </trkpt>
      <trkpt lat="50.04906" lon="2.11097">
        <ele>61.9</ele>
        <time>2024-03-27T13:48:39Z</time>
      </trkpt>
      <trkpt lat="50.04907" lon="2.11097">
        <ele>61.9</ele>
        <time>2024-03-27T13:48:40Z</time>
      </trkpt>
      <trkpt lat="50.04908" lon="2.11096">
        <ele>61.9</ele>
        <time>2024-03-27T13:48:41Z</time>
      </trkpt>
      <trkpt lat="50.04909" lon="2.11095">
        <ele>62</ele>
        <time>2024-03-27T13:48:42Z</time>
      </trkpt>
      <trkpt lat="50.0491" lon="2.11095">
        <ele>62</ele>
        <time>2024-03-27T13:48:43Z</time>
      </trkpt>
      <trkpt lat="50.04911" lon="2.11094">
        <ele>62</ele>
        <time>2024-03-27T13:48:44Z</time>
      </trkpt>
      <trkpt lat="50.04912" lon="2.11093">
        <ele>62</ele>
        <time>2024-03-27T13:48:45Z</time>
      </trkpt>
      <trkpt lat="50.04914" lon="2.11092">
        <ele>62.1</ele>
        <time>2024-03-27T13:48:46Z</time>
      </trkpt>
      <trkpt lat="50.04914" lon="2.11091">
        <ele>62.1</ele>
        <time>2024-03-27T13:48:47Z</time>
      </trkpt>
      <trkpt lat="50.04915" lon="2.1109">
        <ele>62.1</ele>
        <time>2024-03-27T13:48:48Z</time>
      </trkpt>
      <trkpt lat="50.04916" lon="2.11089">
        <ele>62.1</ele>
        <time>2024-03-27T13:48:49Z</time>
      </trkpt>
      <trkpt lat="50.04917" lon="2.11088">
        <ele>62.1</ele>
        <time>2024-03-27T13:48:50Z</time>
      </trkpt>
      <trkpt lat="50.04918" lon="2.11087">
        <ele>62.2</ele>
        <time>2024-03-27T13:48:51Z</time>
      </trkpt>
      <trkpt lat="50.04919" lon="2.11085">
        <ele>62.2</ele>
        <time>2024-03-27T13:48:52Z</time>
      </trkpt>
      <trkpt lat="50.04919" lon="2.11084">
        <ele>62.2</ele>
        <time>2024-03-27T13:48:53Z</time>
      </trkpt>
      <trkpt lat="50.0492" lon="2.11083">
        <ele>62.2</ele>
        <time>2024-03-27T13:48:54Z</time>
      </trkpt>
      <trkpt lat="50.04921" lon="2.11082">
        <ele>62.2</ele>
        <time>2024-03-27T13:48:55Z</time>
      </trkpt>
      <trkpt lat="50.04922" lon="2.11081">
        <ele>62.2</ele>
        <time>2024-03-27T13:48:56Z</time>
      </trkpt>
      <trkpt lat="50.04923" lon="2.1108">
        <ele>62.3</ele>
        <time>2024-03-27T13:48:57Z</time>
      </trkpt>
      <trkpt lat="50.04924" lon="2.11079">
        <ele>62.3</ele>
        <time>2024-03-27T13:48:58Z</time>
      </trkpt>
      <trkpt lat="50.04925" lon="2.11078">
        <ele>62.3</ele>
        <time>2024-03-27T13:48:59Z</time>
      </trkpt>
      <trkpt lat="50.04925" lon="2.11077">
        <ele>62.3</ele>
        <time>2024-03-27T13:49:00Z</time>
      </trkpt>
      <trkpt lat="50.04926" lon="2.11076">
        <ele>62.3</ele>
        <time>2024-03-27T13:49:01Z</time>
      </trkpt>
      <trkpt lat="50.04927" lon="2.11075">
        <ele>62.3</ele>
        <time>2024-03-27T13:49:02Z</time>
      </trkpt>
      <trkpt lat="50.04928" lon="2.11074">
        <ele>62.4</ele>
        <time>2024-03-27T13:49:03Z</time>
      </trkpt>
      <trkpt lat="50.04929" lon="2.11074">
        <ele>62.4</ele>
        <time>2024-03-27T13:49:04Z</time>
      </trkpt>
      <trkpt lat="50.0493" lon="2.11073">
        <ele>62.4</ele>
        <time>2024-03-27T13:49:05Z</time>
      </trkpt>
      <trkpt lat="50.04931" lon="2.11072">
        <ele>62.4</ele>
        <time>2024-03-27T13:49:06Z</time>
      </trkpt>
      <trkpt lat="50.04931" lon="2.11071">
        <ele>62.4</ele>
        <time>2024-03-27T13:49:07Z</time>
      </trkpt>
      <trkpt lat="50.04932" lon="2.1107">
        <ele>62.4</ele>
        <time>2024-03-27T13:49:08Z</time>
      </trkpt>
      <trkpt lat="50.04933" lon="2.1107">
        <ele>62.4</ele>
        <time>2024-03-27T13:49:09Z</time>
      </trkpt>
      <trkpt lat="50.04934" lon="2.11069">
        <ele>62.4</ele>
        <time>2024-03-27T13:49:10Z</time>
      </trkpt>
      <trkpt lat="50.04934" lon="2.11068">
        <ele>62.4</ele>
        <time>2024-03-27T13:49:11Z</time>
      </trkpt>
      <trkpt lat="50.04935" lon="2.11067">
        <ele>62.4</ele>
        <time>2024-03-27T13:49:12Z</time>
      </trkpt>
      <trkpt lat="50.04936" lon="2.11066">
        <ele>62.4</ele>
        <time>2024-03-27T13:49:13Z</time>
      </trkpt>
      <trkpt lat="50.04937" lon="2.11065">
        <ele>62.4</ele>
        <time>2024-03-27T13:49:14Z</time>
      </trkpt>
      <trkpt lat="50.04938" lon="2.11065">
        <ele>62.4</ele>
        <time>2024-03-27T13:49:15Z</time>
      </trkpt>
      <trkpt lat="50.04939" lon="2.11064">
        <ele>62.5</ele>
        <time>2024-03-27T13:49:16Z</time>
      </trkpt>
      <trkpt lat="50.0494" lon="2.11063">
        <ele>62.5</ele>
        <time>2024-03-27T13:49:17Z</time>
      </trkpt>
      <trkpt lat="50.04941" lon="2.11062">
        <ele>62.5</ele>
        <time>2024-03-27T13:49:18Z</time>
      </trkpt>
      <trkpt lat="50.04942" lon="2.11062">
        <ele>62.5</ele>
        <time>2024-03-27T13:49:19Z</time>
      </trkpt>
      <trkpt lat="50.04943" lon="2.11061">
        <ele>62.5</ele>
        <time>2024-03-27T13:49:20Z</time>
      </trkpt>
      <trkpt lat="50.04943" lon="2.1106">
        <ele>62.5</ele>
        <time>2024-03-27T13:49:21Z</time>
      </trkpt>
      <trkpt lat="50.04944" lon="2.11059">
        <ele>62.5</ele>
        <time>2024-03-27T13:49:22Z</time>
      </trkpt>
      <trkpt lat="50.04945" lon="2.11058">
        <ele>62.5</ele>
        <time>2024-03-27T13:49:23Z</time>
      </trkpt>
      <trkpt lat="50.04946" lon="2.11057">
        <ele>62.5</ele>
        <time>2024-03-27T13:49:24Z</time>
      </trkpt>
      <trkpt lat="50.04947" lon="2.11056">
        <ele>62.5</ele>
        <time>2024-03-27T13:49:25Z</time>
      </trkpt>
      <trkpt lat="50.04948" lon="2.11056">
        <ele>62.5</ele>
        <time>2024-03-27T13:49:26Z</time>
      </trkpt>
      <trkpt lat="50.04949" lon="2.11055">
        <ele>62.5</ele>
        <time>2024-03-27T13:49:27Z</time>
      </trkpt>
      <trkpt lat="50.0495" lon="2.11054">
        <ele>62.6</ele>
        <time>2024-03-27T13:49:28Z</time>
      </trkpt>
      <trkpt lat="50.04951" lon="2.11053">
        <ele>62.6</ele>
        <time>2024-03-27T13:49:29Z</time>
      </trkpt>
      <trkpt lat="50.04952" lon="2.11052">
        <ele>62.6</ele>
        <time>2024-03-27T13:49:30Z</time>
      </trkpt>
      <trkpt lat="50.04953" lon="2.11052">
        <ele>62.6</ele>
        <time>2024-03-27T13:49:31Z</time>
      </trkpt>
      <trkpt lat="50.04954" lon="2.11051">
        <ele>62.6</ele>
        <time>2024-03-27T13:49:32Z</time>
      </trkpt>
      <trkpt lat="50.04955" lon="2.1105">
        <ele>62.6</ele>
        <time>2024-03-27T13:49:33Z</time>
      </trkpt>
      <trkpt lat="50.04956" lon="2.11049">
        <ele>62.6</ele>
        <time>2024-03-27T13:49:34Z</time>
      </trkpt>
      <trkpt lat="50.04957" lon="2.11049">
        <ele>62.6</ele>
        <time>2024-03-27T13:49:35Z</time>
      </trkpt>
      <trkpt lat="50.04958" lon="2.11048">
        <ele>62.6</ele>
        <time>2024-03-27T13:49:36Z</time>
      </trkpt>
      <trkpt lat="50.04959" lon="2.11047">
        <ele>62.6</ele>
        <time>2024-03-27T13:49:37Z</time>
      </trkpt>
      <trkpt lat="50.0496" lon="2.11046">
        <ele>62.6</ele>
        <time>2024-03-27T13:49:38Z</time>
      </trkpt>
      <trkpt lat="50.0496" lon="2.11045">
        <ele>62.6</ele>
        <time>2024-03-27T13:49:39Z</time>
      </trkpt>
      <trkpt lat="50.04961" lon="2.11044">
        <ele>62.7</ele>
        <time>2024-03-27T13:49:40Z</time>
      </trkpt>
      <trkpt lat="50.04962" lon="2.11044">
        <ele>62.7</ele>
        <time>2024-03-27T13:49:41Z</time>
      </trkpt>
      <trkpt lat="50.04963" lon="2.11043">
        <ele>62.7</ele>
        <time>2024-03-27T13:49:42Z</time>
      </trkpt>
      <trkpt lat="50.04964" lon="2.11043">
        <ele>62.7</ele>
        <time>2024-03-27T13:49:43Z</time>
      </trkpt>
      <trkpt lat="50.04965" lon="2.11042">
        <ele>62.7</ele>
        <time>2024-03-27T13:49:44Z</time>
      </trkpt>
      <trkpt lat="50.04966" lon="2.11041">
        <ele>62.7</ele>
        <time>2024-03-27T13:49:45Z</time>
      </trkpt>
      <trkpt lat="50.04967" lon="2.11041">
        <ele>62.7</ele>
        <time>2024-03-27T13:49:46Z</time>
      </trkpt>
      <trkpt lat="50.04968" lon="2.1104">
        <ele>62.7</ele>
        <time>2024-03-27T13:49:47Z</time>
      </trkpt>
      <trkpt lat="50.04969" lon="2.11039">
        <ele>62.7</ele>
        <time>2024-03-27T13:49:48Z</time>
      </trkpt>
      <trkpt lat="50.0497" lon="2.11038">
        <ele>62.8</ele>
        <time>2024-03-27T13:49:49Z</time>
      </trkpt>
      <trkpt lat="50.04971" lon="2.11038">
        <ele>62.8</ele>
        <time>2024-03-27T13:49:50Z</time>
      </trkpt>
      <trkpt lat="50.04972" lon="2.11037">
        <ele>62.8</ele>
        <time>2024-03-27T13:49:51Z</time>
      </trkpt>
      <trkpt lat="50.04973" lon="2.11036">
        <ele>62.8</ele>
        <time>2024-03-27T13:49:52Z</time>
      </trkpt>
      <trkpt lat="50.04974" lon="2.11035">
        <ele>62.8</ele>
        <time>2024-03-27T13:49:53Z</time>
      </trkpt>
      <trkpt lat="50.04975" lon="2.11034">
        <ele>62.8</ele>
        <time>2024-03-27T13:49:54Z</time>
      </trkpt>
      <trkpt lat="50.04976" lon="2.11034">
        <ele>62.8</ele>
        <time>2024-03-27T13:49:55Z</time>
      </trkpt>
      <trkpt lat="50.04977" lon="2.11033">
        <ele>62.8</ele>
        <time>2024-03-27T13:49:56Z</time>
      </trkpt>
      <trkpt lat="50.04977" lon="2.11032">
        <ele>62.9</ele>
        <time>2024-03-27T13:49:57Z</time>
      </trkpt>
      <trkpt lat="50.04978" lon="2.11031">
        <ele>62.9</ele>
        <time>2024-03-27T13:49:58Z</time>
      </trkpt>
      <trkpt lat="50.04979" lon="2.11031">
        <ele>62.9</ele>
        <time>2024-03-27T13:49:59Z</time>
      </trkpt>
      <trkpt lat="50.0498" lon="2.1103">
        <ele>62.9</ele>
        <time>2024-03-27T13:50:00Z</time>
      </trkpt>
      <trkpt lat="50.04982" lon="2.11029">
        <ele>62.9</ele>
        <time>2024-03-27T13:50:01Z</time>
      </trkpt>
      <trkpt lat="50.04983" lon="2.11029">
        <ele>62.9</ele>
        <time>2024-03-27T13:50:02Z</time>
      </trkpt>
      <trkpt lat="50.04984" lon="2.11028">
        <ele>63</ele>
        <time>2024-03-27T13:50:03Z</time>
      </trkpt>
      <trkpt lat="50.04985" lon="2.11027">
        <ele>63</ele>
        <time>2024-03-27T13:50:04Z</time>
      </trkpt>
      <trkpt lat="50.04986" lon="2.11027">
        <ele>63</ele>
        <time>2024-03-27T13:50:05Z</time>
      </trkpt>
      <trkpt lat="50.04986" lon="2.11026">
        <ele>63</ele>
        <time>2024-03-27T13:50:06Z</time>
      </trkpt>
      <trkpt lat="50.04988" lon="2.11025">
        <ele>63</ele>
        <time>2024-03-27T13:50:07Z</time>
      </trkpt>
      <trkpt lat="50.04989" lon="2.11024">
        <ele>63</ele>
        <time>2024-03-27T13:50:08Z</time>
      </trkpt>
      <trkpt lat="50.0499" lon="2.11023">
        <ele>63.1</ele>
        <time>2024-03-27T13:50:09Z</time>
      </trkpt>
      <trkpt lat="50.04991" lon="2.11022">
        <ele>63.1</ele>
        <time>2024-03-27T13:50:10Z</time>
      </trkpt>
      <trkpt lat="50.04992" lon="2.11022">
        <ele>63.1</ele>
        <time>2024-03-27T13:50:11Z</time>
      </trkpt>
      <trkpt lat="50.04993" lon="2.11021">
        <ele>63.1</ele>
        <time>2024-03-27T13:50:12Z</time>
      </trkpt>
      <trkpt lat="50.04994" lon="2.1102">
        <ele>63.1</ele>
        <time>2024-03-27T13:50:13Z</time>
      </trkpt>
      <trkpt lat="50.04994" lon="2.11019">
        <ele>63.1</ele>
        <time>2024-03-27T13:50:14Z</time>
      </trkpt>
      <trkpt lat="50.04996" lon="2.11018">
        <ele>63.1</ele>
        <time>2024-03-27T13:50:15Z</time>
      </trkpt>
      <trkpt lat="50.04996" lon="2.11017">
        <ele>63.1</ele>
        <time>2024-03-27T13:50:16Z</time>
      </trkpt>
      <trkpt lat="50.04997" lon="2.11016">
        <ele>63.2</ele>
        <time>2024-03-27T13:50:17Z</time>
      </trkpt>
      <trkpt lat="50.04998" lon="2.11015">
        <ele>63.2</ele>
        <time>2024-03-27T13:50:18Z</time>
      </trkpt>
      <trkpt lat="50.04999" lon="2.11015">
        <ele>63.2</ele>
        <time>2024-03-27T13:50:19Z</time>
      </trkpt>
      <trkpt lat="50.05" lon="2.11013">
        <ele>63.2</ele>
        <time>2024-03-27T13:50:20Z</time>
      </trkpt>
      <trkpt lat="50.05001" lon="2.11013">
        <ele>63.2</ele>
        <time>2024-03-27T13:50:21Z</time>
      </trkpt>
      <trkpt lat="50.05002" lon="2.11012">
        <ele>63.2</ele>
        <time>2024-03-27T13:50:22Z</time>
      </trkpt>
      <trkpt lat="50.05003" lon="2.11011">
        <ele>63.2</ele>
        <time>2024-03-27T13:50:23Z</time>
      </trkpt>
      <trkpt lat="50.05004" lon="2.1101">
        <ele>63.2</ele>
        <time>2024-03-27T13:50:24Z</time>
      </trkpt>
      <trkpt lat="50.05005" lon="2.11009">
        <ele>63.3</ele>
        <time>2024-03-27T13:50:25Z</time>
      </trkpt>
      <trkpt lat="50.05006" lon="2.11008">
        <ele>63.3</ele>
        <time>2024-03-27T13:50:26Z</time>
      </trkpt>
      <trkpt lat="50.05007" lon="2.11007">
        <ele>63.3</ele>
        <time>2024-03-27T13:50:27Z</time>
      </trkpt>
      <trkpt lat="50.05008" lon="2.11006">
        <ele>63.3</ele>
        <time>2024-03-27T13:50:28Z</time>
      </trkpt>
      <trkpt lat="50.05009" lon="2.11006">
        <ele>63.3</ele>
        <time>2024-03-27T13:50:29Z</time>
      </trkpt>
      <trkpt lat="50.05009" lon="2.11005">
        <ele>63.3</ele>
        <time>2024-03-27T13:50:30Z</time>
      </trkpt>
      <trkpt lat="50.0501" lon="2.11005">
        <ele>63.3</ele>
        <time>2024-03-27T13:50:31Z</time>
      </trkpt>
      <trkpt lat="50.05011" lon="2.11004">
        <ele>63.3</ele>
        <time>2024-03-27T13:50:32Z</time>
      </trkpt>
      <trkpt lat="50.05012" lon="2.11003">
        <ele>63.4</ele>
        <time>2024-03-27T13:50:33Z</time>
      </trkpt>
      <trkpt lat="50.05013" lon="2.11003">
        <ele>63.4</ele>
        <time>2024-03-27T13:50:34Z</time>
      </trkpt>
      <trkpt lat="50.05014" lon="2.11002">
        <ele>63.4</ele>
        <time>2024-03-27T13:50:35Z</time>
      </trkpt>
      <trkpt lat="50.05015" lon="2.11001">
        <ele>63.4</ele>
        <time>2024-03-27T13:50:36Z</time>
      </trkpt>
      <trkpt lat="50.05016" lon="2.11001">
        <ele>63.4</ele>
        <time>2024-03-27T13:50:37Z</time>
      </trkpt>
      <trkpt lat="50.05017" lon="2.11">
        <ele>63.4</ele>
        <time>2024-03-27T13:50:38Z</time>
      </trkpt>
      <trkpt lat="50.05018" lon="2.10999">
        <ele>63.4</ele>
        <time>2024-03-27T13:50:39Z</time>
      </trkpt>
      <trkpt lat="50.05019" lon="2.10998">
        <ele>63.4</ele>
        <time>2024-03-27T13:50:40Z</time>
      </trkpt>
      <trkpt lat="50.0502" lon="2.10998">
        <ele>63.5</ele>
        <time>2024-03-27T13:50:41Z</time>
      </trkpt>
      <trkpt lat="50.05021" lon="2.10997">
        <ele>63.5</ele>
        <time>2024-03-27T13:50:42Z</time>
      </trkpt>
      <trkpt lat="50.05022" lon="2.10996">
        <ele>63.5</ele>
        <time>2024-03-27T13:50:43Z</time>
      </trkpt>
      <trkpt lat="50.05023" lon="2.10995">
        <ele>63.5</ele>
        <time>2024-03-27T13:50:44Z</time>
      </trkpt>
      <trkpt lat="50.05025" lon="2.10993">
        <ele>63.5</ele>
        <time>2024-03-27T13:50:45Z</time>
      </trkpt>
      <trkpt lat="50.05026" lon="2.10992">
        <ele>63.5</ele>
        <time>2024-03-27T13:50:46Z</time>
      </trkpt>
      <trkpt lat="50.05027" lon="2.10991">
        <ele>63.6</ele>
        <time>2024-03-27T13:50:47Z</time>
      </trkpt>
      <trkpt lat="50.05028" lon="2.10991">
        <ele>63.6</ele>
        <time>2024-03-27T13:50:48Z</time>
      </trkpt>
      <trkpt lat="50.05029" lon="2.1099">
        <ele>63.6</ele>
        <time>2024-03-27T13:50:49Z</time>
      </trkpt>
      <trkpt lat="50.0503" lon="2.10989">
        <ele>63.6</ele>
        <time>2024-03-27T13:50:50Z</time>
      </trkpt>
      <trkpt lat="50.05031" lon="2.10988">
        <ele>63.6</ele>
        <time>2024-03-27T13:50:51Z</time>
      </trkpt>
      <trkpt lat="50.05032" lon="2.10987">
        <ele>63.6</ele>
        <time>2024-03-27T13:50:52Z</time>
      </trkpt>
      <trkpt lat="50.05033" lon="2.10986">
        <ele>63.6</ele>
        <time>2024-03-27T13:50:53Z</time>
      </trkpt>
      <trkpt lat="50.05034" lon="2.10985">
        <ele>63.6</ele>
        <time>2024-03-27T13:50:54Z</time>
      </trkpt>
      <trkpt lat="50.05035" lon="2.10984">
        <ele>63.6</ele>
        <time>2024-03-27T13:50:55Z</time>
      </trkpt>
      <trkpt lat="50.05035" lon="2.10983">
        <ele>63.7</ele>
        <time>2024-03-27T13:50:56Z</time>
      </trkpt>
      <trkpt lat="50.05036" lon="2.10983">
        <ele>63.7</ele>
        <time>2024-03-27T13:50:57Z</time>
      </trkpt>
      <trkpt lat="50.05037" lon="2.10982">
        <ele>63.7</ele>
        <time>2024-03-27T13:50:58Z</time>
      </trkpt>
      <trkpt lat="50.05038" lon="2.10981">
        <ele>63.7</ele>
        <time>2024-03-27T13:50:59Z</time>
      </trkpt>
      <trkpt lat="50.05039" lon="2.1098">
        <ele>63.7</ele>
        <time>2024-03-27T13:51:00Z</time>
      </trkpt>
      <trkpt lat="50.0504" lon="2.10979">
        <ele>63.7</ele>
        <time>2024-03-27T13:51:01Z</time>
      </trkpt>
      <trkpt lat="50.05041" lon="2.10979">
        <ele>63.7</ele>
        <time>2024-03-27T13:51:02Z</time>
      </trkpt>
      <trkpt lat="50.05042" lon="2.10978">
        <ele>63.7</ele>
        <time>2024-03-27T13:51:03Z</time>
      </trkpt>
      <trkpt lat="50.05043" lon="2.10977">
        <ele>63.7</ele>
        <time>2024-03-27T13:51:04Z</time>
      </trkpt>
      <trkpt lat="50.05044" lon="2.10976">
        <ele>63.7</ele>
        <time>2024-03-27T13:51:05Z</time>
      </trkpt>
      <trkpt lat="50.05044" lon="2.10976">
        <ele>63.7</ele>
        <time>2024-03-27T13:51:06Z</time>
      </trkpt>
      <trkpt lat="50.05045" lon="2.10975">
        <ele>63.8</ele>
        <time>2024-03-27T13:51:07Z</time>
      </trkpt>
      <trkpt lat="50.05046" lon="2.10974">
        <ele>63.8</ele>
        <time>2024-03-27T13:51:08Z</time>
      </trkpt>
      <trkpt lat="50.05047" lon="2.10973">
        <ele>63.8</ele>
        <time>2024-03-27T13:51:09Z</time>
      </trkpt>
      <trkpt lat="50.05048" lon="2.10973">
        <ele>63.8</ele>
        <time>2024-03-27T13:51:10Z</time>
      </trkpt>
      <trkpt lat="50.05048" lon="2.10972">
        <ele>63.8</ele>
        <time>2024-03-27T13:51:11Z</time>
      </trkpt>
      <trkpt lat="50.05049" lon="2.10971">
        <ele>63.8</ele>
        <time>2024-03-27T13:51:12Z</time>
      </trkpt>
      <trkpt lat="50.05051" lon="2.1097">
        <ele>63.8</ele>
        <time>2024-03-27T13:51:13Z</time>
      </trkpt>
      <trkpt lat="50.05051" lon="2.1097">
        <ele>63.8</ele>
        <time>2024-03-27T13:51:14Z</time>
      </trkpt>
      <trkpt lat="50.05052" lon="2.10969">
        <ele>63.8</ele>
        <time>2024-03-27T13:51:15Z</time>
      </trkpt>
      <trkpt lat="50.05053" lon="2.10968">
        <ele>63.9</ele>
        <time>2024-03-27T13:51:16Z</time>
      </trkpt>
      <trkpt lat="50.05054" lon="2.10967">
        <ele>63.9</ele>
        <time>2024-03-27T13:51:17Z</time>
      </trkpt>
      <trkpt lat="50.05055" lon="2.10966">
        <ele>63.9</ele>
        <time>2024-03-27T13:51:18Z</time>
      </trkpt>
      <trkpt lat="50.05057" lon="2.10964">
        <ele>63.9</ele>
        <time>2024-03-27T13:51:19Z</time>
      </trkpt>
      <trkpt lat="50.05057" lon="2.10963">
        <ele>63.9</ele>
        <time>2024-03-27T13:51:20Z</time>
      </trkpt>
      <trkpt lat="50.05058" lon="2.10963">
        <ele>63.9</ele>
        <time>2024-03-27T13:51:21Z</time>
      </trkpt>
      <trkpt lat="50.0506" lon="2.10961">
        <ele>63.9</ele>
        <time>2024-03-27T13:51:22Z</time>
      </trkpt>
      <trkpt lat="50.0506" lon="2.1096">
        <ele>64</ele>
        <time>2024-03-27T13:51:23Z</time>
      </trkpt>
      <trkpt lat="50.05061" lon="2.10959">
        <ele>64</ele>
        <time>2024-03-27T13:51:24Z</time>
      </trkpt>
      <trkpt lat="50.05062" lon="2.10958">
        <ele>64</ele>
        <time>2024-03-27T13:51:25Z</time>
      </trkpt>
      <trkpt lat="50.05063" lon="2.10957">
        <ele>64</ele>
        <time>2024-03-27T13:51:26Z</time>
      </trkpt>
      <trkpt lat="50.05064" lon="2.10956">
        <ele>64</ele>
        <time>2024-03-27T13:51:27Z</time>
      </trkpt>
      <trkpt lat="50.05066" lon="2.10955">
        <ele>64</ele>
        <time>2024-03-27T13:51:28Z</time>
      </trkpt>
      <trkpt lat="50.05066" lon="2.10954">
        <ele>64</ele>
        <time>2024-03-27T13:51:29Z</time>
      </trkpt>
      <trkpt lat="50.05067" lon="2.10953">
        <ele>64.1</ele>
        <time>2024-03-27T13:51:30Z</time>
      </trkpt>
      <trkpt lat="50.05069" lon="2.10952">
        <ele>64.1</ele>
        <time>2024-03-27T13:51:31Z</time>
      </trkpt>
      <trkpt lat="50.0507" lon="2.10951">
        <ele>64.1</ele>
        <time>2024-03-27T13:51:32Z</time>
      </trkpt>
      <trkpt lat="50.05071" lon="2.10951">
        <ele>64.1</ele>
        <time>2024-03-27T13:51:33Z</time>
      </trkpt>
      <trkpt lat="50.05071" lon="2.1095">
        <ele>64.1</ele>
        <time>2024-03-27T13:51:34Z</time>
      </trkpt>
      <trkpt lat="50.05072" lon="2.10949">
        <ele>64.1</ele>
        <time>2024-03-27T13:51:35Z</time>
      </trkpt>
      <trkpt lat="50.05073" lon="2.10949">
        <ele>64.1</ele>
        <time>2024-03-27T13:51:36Z</time>
      </trkpt>
      <trkpt lat="50.05074" lon="2.10948">
        <ele>64.1</ele>
        <time>2024-03-27T13:51:37Z</time>
      </trkpt>
      <trkpt lat="50.05075" lon="2.10947">
        <ele>64.2</ele>
        <time>2024-03-27T13:51:38Z</time>
      </trkpt>
      <trkpt lat="50.05076" lon="2.10946">
        <ele>64.2</ele>
        <time>2024-03-27T13:51:39Z</time>
      </trkpt>
      <trkpt lat="50.05077" lon="2.10945">
        <ele>64.2</ele>
        <time>2024-03-27T13:51:40Z</time>
      </trkpt>
      <trkpt lat="50.05078" lon="2.10945">
        <ele>64.2</ele>
        <time>2024-03-27T13:51:41Z</time>
      </trkpt>
      <trkpt lat="50.05079" lon="2.10944">
        <ele>64.2</ele>
        <time>2024-03-27T13:51:42Z</time>
      </trkpt>
      <trkpt lat="50.0508" lon="2.10943">
        <ele>64.2</ele>
        <time>2024-03-27T13:51:43Z</time>
      </trkpt>
      <trkpt lat="50.05081" lon="2.10942">
        <ele>64.2</ele>
        <time>2024-03-27T13:51:44Z</time>
      </trkpt>
      <trkpt lat="50.05082" lon="2.10941">
        <ele>64.2</ele>
        <time>2024-03-27T13:51:45Z</time>
      </trkpt>
      <trkpt lat="50.05084" lon="2.1094">
        <ele>64.3</ele>
        <time>2024-03-27T13:51:46Z</time>
      </trkpt>
      <trkpt lat="50.05084" lon="2.10939">
        <ele>64.3</ele>
        <time>2024-03-27T13:51:47Z</time>
      </trkpt>
      <trkpt lat="50.05085" lon="2.10939">
        <ele>64.3</ele>
        <time>2024-03-27T13:51:48Z</time>
      </trkpt>
      <trkpt lat="50.05086" lon="2.10938">
        <ele>64.3</ele>
        <time>2024-03-27T13:51:49Z</time>
      </trkpt>
      <trkpt lat="50.05087" lon="2.10937">
        <ele>64.3</ele>
        <time>2024-03-27T13:51:50Z</time>
      </trkpt>
      <trkpt lat="50.05088" lon="2.10936">
        <ele>64.3</ele>
        <time>2024-03-27T13:51:51Z</time>
      </trkpt>
      <trkpt lat="50.05089" lon="2.10936">
        <ele>64.3</ele>
        <time>2024-03-27T13:51:52Z</time>
      </trkpt>
      <trkpt lat="50.0509" lon="2.10935">
        <ele>64.3</ele>
        <time>2024-03-27T13:51:53Z</time>
      </trkpt>
      <trkpt lat="50.05091" lon="2.10934">
        <ele>64.4</ele>
        <time>2024-03-27T13:51:54Z</time>
      </trkpt>
      <trkpt lat="50.05092" lon="2.10933">
        <ele>64.4</ele>
        <time>2024-03-27T13:51:55Z</time>
      </trkpt>
      <trkpt lat="50.05093" lon="2.10932">
        <ele>64.4</ele>
        <time>2024-03-27T13:51:56Z</time>
      </trkpt>
      <trkpt lat="50.05094" lon="2.10931">
        <ele>64.4</ele>
        <time>2024-03-27T13:51:57Z</time>
      </trkpt>
      <trkpt lat="50.05095" lon="2.1093">
        <ele>64.4</ele>
        <time>2024-03-27T13:51:58Z</time>
      </trkpt>
      <trkpt lat="50.05096" lon="2.10929">
        <ele>64.4</ele>
        <time>2024-03-27T13:51:59Z</time>
      </trkpt>
      <trkpt lat="50.05097" lon="2.10928">
        <ele>64.5</ele>
        <time>2024-03-27T13:52:00Z</time>
      </trkpt>
      <trkpt lat="50.05098" lon="2.10928">
        <ele>64.5</ele>
        <time>2024-03-27T13:52:01Z</time>
      </trkpt>
      <trkpt lat="50.05099" lon="2.10927">
        <ele>64.5</ele>
        <time>2024-03-27T13:52:02Z</time>
      </trkpt>
      <trkpt lat="50.051" lon="2.10926">
        <ele>64.5</ele>
        <time>2024-03-27T13:52:03Z</time>
      </trkpt>
      <trkpt lat="50.05101" lon="2.10925">
        <ele>64.5</ele>
        <time>2024-03-27T13:52:04Z</time>
      </trkpt>
      <trkpt lat="50.05101" lon="2.10924">
        <ele>64.5</ele>
        <time>2024-03-27T13:52:05Z</time>
      </trkpt>
      <trkpt lat="50.05102" lon="2.10924">
        <ele>64.6</ele>
        <time>2024-03-27T13:52:06Z</time>
      </trkpt>
      <trkpt lat="50.05103" lon="2.10923">
        <ele>64.6</ele>
        <time>2024-03-27T13:52:07Z</time>
      </trkpt>
      <trkpt lat="50.05104" lon="2.10922">
        <ele>64.6</ele>
        <time>2024-03-27T13:52:08Z</time>
      </trkpt>
      <trkpt lat="50.05105" lon="2.10921">
        <ele>64.6</ele>
        <time>2024-03-27T13:52:09Z</time>
      </trkpt>
      <trkpt lat="50.05106" lon="2.1092">
        <ele>64.6</ele>
        <time>2024-03-27T13:52:10Z</time>
      </trkpt>
      <trkpt lat="50.05107" lon="2.10919">
        <ele>64.6</ele>
        <time>2024-03-27T13:52:11Z</time>
      </trkpt>
      <trkpt lat="50.05108" lon="2.10919">
        <ele>64.7</ele>
        <time>2024-03-27T13:52:12Z</time>
      </trkpt>
      <trkpt lat="50.05109" lon="2.10918">
        <ele>64.7</ele>
        <time>2024-03-27T13:52:13Z</time>
      </trkpt>
      <trkpt lat="50.0511" lon="2.10918">
        <ele>64.7</ele>
        <time>2024-03-27T13:52:14Z</time>
      </trkpt>
      <trkpt lat="50.05111" lon="2.10917">
        <ele>64.7</ele>
        <time>2024-03-27T13:52:15Z</time>
      </trkpt>
      <trkpt lat="50.05112" lon="2.10916">
        <ele>64.7</ele>
        <time>2024-03-27T13:52:16Z</time>
      </trkpt>
      <trkpt lat="50.05113" lon="2.10916">
        <ele>64.7</ele>
        <time>2024-03-27T13:52:17Z</time>
      </trkpt>
      <trkpt lat="50.05114" lon="2.10915">
        <ele>64.7</ele>
        <time>2024-03-27T13:52:18Z</time>
      </trkpt>
      <trkpt lat="50.05115" lon="2.10915">
        <ele>64.7</ele>
        <time>2024-03-27T13:52:19Z</time>
      </trkpt>
      <trkpt lat="50.05115" lon="2.10914">
        <ele>64.8</ele>
        <time>2024-03-27T13:52:20Z</time>
      </trkpt>
      <trkpt lat="50.05116" lon="2.10913">
        <ele>64.8</ele>
        <time>2024-03-27T13:52:21Z</time>
      </trkpt>
      <trkpt lat="50.05117" lon="2.10913">
        <ele>64.8</ele>
        <time>2024-03-27T13:52:22Z</time>
      </trkpt>
      <trkpt lat="50.05118" lon="2.10912">
        <ele>64.8</ele>
        <time>2024-03-27T13:52:23Z</time>
      </trkpt>
      <trkpt lat="50.05119" lon="2.10911">
        <ele>64.8</ele>
        <time>2024-03-27T13:52:24Z</time>
      </trkpt>
      <trkpt lat="50.0512" lon="2.1091">
        <ele>64.8</ele>
        <time>2024-03-27T13:52:25Z</time>
      </trkpt>
      <trkpt lat="50.05121" lon="2.10909">
        <ele>64.8</ele>
        <time>2024-03-27T13:52:26Z</time>
      </trkpt>
      <trkpt lat="50.05122" lon="2.10909">
        <ele>64.8</ele>
        <time>2024-03-27T13:52:27Z</time>
      </trkpt>
      <trkpt lat="50.05123" lon="2.10908">
        <ele>64.9</ele>
        <time>2024-03-27T13:52:28Z</time>
      </trkpt>
      <trkpt lat="50.05124" lon="2.10907">
        <ele>64.9</ele>
        <time>2024-03-27T13:52:29Z</time>
      </trkpt>
      <trkpt lat="50.05125" lon="2.10906">
        <ele>64.9</ele>
        <time>2024-03-27T13:52:30Z</time>
      </trkpt>
      <trkpt lat="50.05126" lon="2.10905">
        <ele>64.9</ele>
        <time>2024-03-27T13:52:31Z</time>
      </trkpt>
      <trkpt lat="50.05126" lon="2.10904">
        <ele>64.9</ele>
        <time>2024-03-27T13:52:32Z</time>
      </trkpt>
      <trkpt lat="50.05127" lon="2.10903">
        <ele>64.9</ele>
        <time>2024-03-27T13:52:33Z</time>
      </trkpt>
      <trkpt lat="50.05128" lon="2.10902">
        <ele>64.9</ele>
        <time>2024-03-27T13:52:34Z</time>
      </trkpt>
      <trkpt lat="50.05129" lon="2.10902">
        <ele>64.9</ele>
        <time>2024-03-27T13:52:35Z</time>
      </trkpt>
      <trkpt lat="50.0513" lon="2.10901">
        <ele>65</ele>
        <time>2024-03-27T13:52:36Z</time>
      </trkpt>
      <trkpt lat="50.0513" lon="2.109">
        <ele>65</ele>
        <time>2024-03-27T13:52:37Z</time>
      </trkpt>
      <trkpt lat="50.05131" lon="2.10899">
        <ele>65</ele>
        <time>2024-03-27T13:52:38Z</time>
      </trkpt>
      <trkpt lat="50.05132" lon="2.10898">
        <ele>65</ele>
        <time>2024-03-27T13:52:39Z</time>
      </trkpt>
      <trkpt lat="50.05133" lon="2.10898">
        <ele>65</ele>
        <time>2024-03-27T13:52:40Z</time>
      </trkpt>
      <trkpt lat="50.05134" lon="2.10897">
        <ele>65</ele>
        <time>2024-03-27T13:52:41Z</time>
      </trkpt>
      <trkpt lat="50.05135" lon="2.10896">
        <ele>65</ele>
        <time>2024-03-27T13:52:42Z</time>
      </trkpt>
      <trkpt lat="50.05136" lon="2.10895">
        <ele>65</ele>
        <time>2024-03-27T13:52:43Z</time>
      </trkpt>
      <trkpt lat="50.05137" lon="2.10895">
        <ele>65</ele>
        <time>2024-03-27T13:52:44Z</time>
      </trkpt>
      <trkpt lat="50.05138" lon="2.10894">
        <ele>65.1</ele>
        <time>2024-03-27T13:52:45Z</time>
      </trkpt>
      <trkpt lat="50.05139" lon="2.10893">
        <ele>65.1</ele>
        <time>2024-03-27T13:52:46Z</time>
      </trkpt>
      <trkpt lat="50.0514" lon="2.10892">
        <ele>65.1</ele>
        <time>2024-03-27T13:52:47Z</time>
      </trkpt>
      <trkpt lat="50.0514" lon="2.10892">
        <ele>65.1</ele>
        <time>2024-03-27T13:52:48Z</time>
      </trkpt>
      <trkpt lat="50.05141" lon="2.10891">
        <ele>65.1</ele>
        <time>2024-03-27T13:52:49Z</time>
      </trkpt>
      <trkpt lat="50.05142" lon="2.1089">
        <ele>65.1</ele>
        <time>2024-03-27T13:52:50Z</time>
      </trkpt>
      <trkpt lat="50.05143" lon="2.10889">
        <ele>65.1</ele>
        <time>2024-03-27T13:52:51Z</time>
      </trkpt>
      <trkpt lat="50.05144" lon="2.10888">
        <ele>65.1</ele>
        <time>2024-03-27T13:52:52Z</time>
      </trkpt>
      <trkpt lat="50.05145" lon="2.10887">
        <ele>65.1</ele>
        <time>2024-03-27T13:52:53Z</time>
      </trkpt>
      <trkpt lat="50.05146" lon="2.10887">
        <ele>65.2</ele>
        <time>2024-03-27T13:52:54Z</time>
      </trkpt>
      <trkpt lat="50.05147" lon="2.10886">
        <ele>65.2</ele>
        <time>2024-03-27T13:52:55Z</time>
      </trkpt>
      <trkpt lat="50.05148" lon="2.10885">
        <ele>65.2</ele>
        <time>2024-03-27T13:52:56Z</time>
      </trkpt>
      <trkpt lat="50.05149" lon="2.10884">
        <ele>65.2</ele>
        <time>2024-03-27T13:52:57Z</time>
      </trkpt>
      <trkpt lat="50.0515" lon="2.10884">
        <ele>65.2</ele>
        <time>2024-03-27T13:52:58Z</time>
      </trkpt>
      <trkpt lat="50.05151" lon="2.10883">
        <ele>65.2</ele>
        <time>2024-03-27T13:52:59Z</time>
      </trkpt>
      <trkpt lat="50.05152" lon="2.10882">
        <ele>65.2</ele>
        <time>2024-03-27T13:53:00Z</time>
      </trkpt>
      <trkpt lat="50.05153" lon="2.10881">
        <ele>65.2</ele>
        <time>2024-03-27T13:53:01Z</time>
      </trkpt>
      <trkpt lat="50.05154" lon="2.1088">
        <ele>65.3</ele>
        <time>2024-03-27T13:53:02Z</time>
      </trkpt>
      <trkpt lat="50.05155" lon="2.10879">
        <ele>65.3</ele>
        <time>2024-03-27T13:53:03Z</time>
      </trkpt>
      <trkpt lat="50.05156" lon="2.10879">
        <ele>65.3</ele>
        <time>2024-03-27T13:53:04Z</time>
      </trkpt>
      <trkpt lat="50.05156" lon="2.10878">
        <ele>65.3</ele>
        <time>2024-03-27T13:53:05Z</time>
      </trkpt>
      <trkpt lat="50.05157" lon="2.10877">
        <ele>65.3</ele>
        <time>2024-03-27T13:53:06Z</time>
      </trkpt>
      <trkpt lat="50.05158" lon="2.10877">
        <ele>65.3</ele>
        <time>2024-03-27T13:53:07Z</time>
      </trkpt>
      <trkpt lat="50.05159" lon="2.10877">
        <ele>65.3</ele>
        <time>2024-03-27T13:53:08Z</time>
      </trkpt>
      <trkpt lat="50.0516" lon="2.10877">
        <ele>65.3</ele>
        <time>2024-03-27T13:53:09Z</time>
      </trkpt>
      <trkpt lat="50.05161" lon="2.10876">
        <ele>65.4</ele>
        <time>2024-03-27T13:53:10Z</time>
      </trkpt>
      <trkpt lat="50.05162" lon="2.10875">
        <ele>65.4</ele>
        <time>2024-03-27T13:53:11Z</time>
      </trkpt>
      <trkpt lat="50.05163" lon="2.10874">
        <ele>65.4</ele>
        <time>2024-03-27T13:53:12Z</time>
      </trkpt>
      <trkpt lat="50.05164" lon="2.10874">
        <ele>65.4</ele>
        <time>2024-03-27T13:53:13Z</time>
      </trkpt>
      <trkpt lat="50.05165" lon="2.10873">
        <ele>65.4</ele>
        <time>2024-03-27T13:53:14Z</time>
      </trkpt>
      <trkpt lat="50.05166" lon="2.10872">
        <ele>65.4</ele>
        <time>2024-03-27T13:53:15Z</time>
      </trkpt>
      <trkpt lat="50.05167" lon="2.10871">
        <ele>65.4</ele>
        <time>2024-03-27T13:53:16Z</time>
      </trkpt>
      <trkpt lat="50.05167" lon="2.1087">
        <ele>65.5</ele>
        <time>2024-03-27T13:53:17Z</time>
      </trkpt>
      <trkpt lat="50.05168" lon="2.10869">
        <ele>65.5</ele>
        <time>2024-03-27T13:53:18Z</time>
      </trkpt>
      <trkpt lat="50.05169" lon="2.10868">
        <ele>65.5</ele>
        <time>2024-03-27T13:53:19Z</time>
      </trkpt>
      <trkpt lat="50.0517" lon="2.10867">
        <ele>65.5</ele>
        <time>2024-03-27T13:53:20Z</time>
      </trkpt>
      <trkpt lat="50.05171" lon="2.10866">
        <ele>65.5</ele>
        <time>2024-03-27T13:53:21Z</time>
      </trkpt>
      <trkpt lat="50.05172" lon="2.10865">
        <ele>65.5</ele>
        <time>2024-03-27T13:53:22Z</time>
      </trkpt>
      <trkpt lat="50.05173" lon="2.10864">
        <ele>65.5</ele>
        <time>2024-03-27T13:53:23Z</time>
      </trkpt>
      <trkpt lat="50.05174" lon="2.10863">
        <ele>65.6</ele>
        <time>2024-03-27T13:53:24Z</time>
      </trkpt>
      <trkpt lat="50.05174" lon="2.10862">
        <ele>65.6</ele>
        <time>2024-03-27T13:53:25Z</time>
      </trkpt>
      <trkpt lat="50.05175" lon="2.10861">
        <ele>65.6</ele>
        <time>2024-03-27T13:53:26Z</time>
      </trkpt>
      <trkpt lat="50.05176" lon="2.1086">
        <ele>65.6</ele>
        <time>2024-03-27T13:53:27Z</time>
      </trkpt>
      <trkpt lat="50.05177" lon="2.10859">
        <ele>65.6</ele>
        <time>2024-03-27T13:53:28Z</time>
      </trkpt>
      <trkpt lat="50.05178" lon="2.10858">
        <ele>65.6</ele>
        <time>2024-03-27T13:53:29Z</time>
      </trkpt>
      <trkpt lat="50.05179" lon="2.10857">
        <ele>65.7</ele>
        <time>2024-03-27T13:53:30Z</time>
      </trkpt>
      <trkpt lat="50.0518" lon="2.10856">
        <ele>65.7</ele>
        <time>2024-03-27T13:53:31Z</time>
      </trkpt>
      <trkpt lat="50.05181" lon="2.10855">
        <ele>65.7</ele>
        <time>2024-03-27T13:53:32Z</time>
      </trkpt>
      <trkpt lat="50.05182" lon="2.10854">
        <ele>65.7</ele>
        <time>2024-03-27T13:53:33Z</time>
      </trkpt>
      <trkpt lat="50.05183" lon="2.10854">
        <ele>65.7</ele>
        <time>2024-03-27T13:53:34Z</time>
      </trkpt>
      <trkpt lat="50.05183" lon="2.10853">
        <ele>65.7</ele>
        <time>2024-03-27T13:53:35Z</time>
      </trkpt>
      <trkpt lat="50.05184" lon="2.10851">
        <ele>65.8</ele>
        <time>2024-03-27T13:53:36Z</time>
      </trkpt>
      <trkpt lat="50.05186" lon="2.10849">
        <ele>65.8</ele>
        <time>2024-03-27T13:53:37Z</time>
      </trkpt>
      <trkpt lat="50.05186" lon="2.10848">
        <ele>65.8</ele>
        <time>2024-03-27T13:53:38Z</time>
      </trkpt>
      <trkpt lat="50.05187" lon="2.10848">
        <ele>65.8</ele>
        <time>2024-03-27T13:53:39Z</time>
      </trkpt>
      <trkpt lat="50.05188" lon="2.10847">
        <ele>65.8</ele>
        <time>2024-03-27T13:53:40Z</time>
      </trkpt>
      <trkpt lat="50.05189" lon="2.10846">
        <ele>65.9</ele>
        <time>2024-03-27T13:53:41Z</time>
      </trkpt>
      <trkpt lat="50.0519" lon="2.10845">
        <ele>65.9</ele>
        <time>2024-03-27T13:53:42Z</time>
      </trkpt>
      <trkpt lat="50.0519" lon="2.10844">
        <ele>65.9</ele>
        <time>2024-03-27T13:53:43Z</time>
      </trkpt>
      <trkpt lat="50.05191" lon="2.10843">
        <ele>65.9</ele>
        <time>2024-03-27T13:53:44Z</time>
      </trkpt>
      <trkpt lat="50.05193" lon="2.10842">
        <ele>65.9</ele>
        <time>2024-03-27T13:53:45Z</time>
      </trkpt>
      <trkpt lat="50.05194" lon="2.10842">
        <ele>66</ele>
        <time>2024-03-27T13:53:46Z</time>
      </trkpt>
      <trkpt lat="50.05195" lon="2.10841">
        <ele>66</ele>
        <time>2024-03-27T13:53:47Z</time>
      </trkpt>
      <trkpt lat="50.05196" lon="2.1084">
        <ele>66</ele>
        <time>2024-03-27T13:53:48Z</time>
      </trkpt>
      <trkpt lat="50.05197" lon="2.10839">
        <ele>66</ele>
        <time>2024-03-27T13:53:49Z</time>
      </trkpt>
      <trkpt lat="50.05197" lon="2.10838">
        <ele>66</ele>
        <time>2024-03-27T13:53:50Z</time>
      </trkpt>
      <trkpt lat="50.05198" lon="2.10837">
        <ele>66.1</ele>
        <time>2024-03-27T13:53:51Z</time>
      </trkpt>
      <trkpt lat="50.05199" lon="2.10836">
        <ele>66.1</ele>
        <time>2024-03-27T13:53:52Z</time>
      </trkpt>
      <trkpt lat="50.052" lon="2.10836">
        <ele>66.1</ele>
        <time>2024-03-27T13:53:53Z</time>
      </trkpt>
      <trkpt lat="50.05201" lon="2.10835">
        <ele>66.1</ele>
        <time>2024-03-27T13:53:54Z</time>
      </trkpt>
      <trkpt lat="50.05202" lon="2.10834">
        <ele>66.1</ele>
        <time>2024-03-27T13:53:55Z</time>
      </trkpt>
      <trkpt lat="50.05203" lon="2.10834">
        <ele>66.2</ele>
        <time>2024-03-27T13:53:56Z</time>
      </trkpt>
      <trkpt lat="50.05204" lon="2.10833">
        <ele>66.2</ele>
        <time>2024-03-27T13:53:57Z</time>
      </trkpt>
      <trkpt lat="50.05205" lon="2.10832">
        <ele>66.2</ele>
        <time>2024-03-27T13:53:58Z</time>
      </trkpt>
      <trkpt lat="50.05206" lon="2.10831">
        <ele>66.2</ele>
        <time>2024-03-27T13:53:59Z</time>
      </trkpt>
      <trkpt lat="50.05207" lon="2.10831">
        <ele>66.2</ele>
        <time>2024-03-27T13:54:00Z</time>
      </trkpt>
      <trkpt lat="50.05208" lon="2.1083">
        <ele>66.2</ele>
        <time>2024-03-27T13:54:01Z</time>
      </trkpt>
      <trkpt lat="50.05209" lon="2.10829">
        <ele>66.3</ele>
        <time>2024-03-27T13:54:02Z</time>
      </trkpt>
      <trkpt lat="50.0521" lon="2.10828">
        <ele>66.3</ele>
        <time>2024-03-27T13:54:03Z</time>
      </trkpt>
      <trkpt lat="50.05211" lon="2.10827">
        <ele>66.3</ele>
        <time>2024-03-27T13:54:04Z</time>
      </trkpt>
      <trkpt lat="50.05212" lon="2.10827">
        <ele>66.3</ele>
        <time>2024-03-27T13:54:05Z</time>
      </trkpt>
      <trkpt lat="50.05212" lon="2.10826">
        <ele>66.3</ele>
        <time>2024-03-27T13:54:06Z</time>
      </trkpt>
      <trkpt lat="50.05213" lon="2.10825">
        <ele>66.4</ele>
        <time>2024-03-27T13:54:07Z</time>
      </trkpt>
      <trkpt lat="50.05214" lon="2.10824">
        <ele>66.4</ele>
        <time>2024-03-27T13:54:08Z</time>
      </trkpt>
      <trkpt lat="50.05215" lon="2.10823">
        <ele>66.4</ele>
        <time>2024-03-27T13:54:09Z</time>
      </trkpt>
      <trkpt lat="50.05216" lon="2.10822">
        <ele>66.4</ele>
        <time>2024-03-27T13:54:10Z</time>
      </trkpt>
      <trkpt lat="50.05217" lon="2.10822">
        <ele>66.4</ele>
        <time>2024-03-27T13:54:11Z</time>
      </trkpt>
      <trkpt lat="50.05218" lon="2.10821">
        <ele>66.5</ele>
        <time>2024-03-27T13:54:12Z</time>
      </trkpt>
      <trkpt lat="50.05219" lon="2.1082">
        <ele>66.5</ele>
        <time>2024-03-27T13:54:13Z</time>
      </trkpt>
      <trkpt lat="50.0522" lon="2.1082">
        <ele>66.5</ele>
        <time>2024-03-27T13:54:14Z</time>
      </trkpt>
      <trkpt lat="50.05221" lon="2.10819">
        <ele>66.5</ele>
        <time>2024-03-27T13:54:15Z</time>
      </trkpt>
      <trkpt lat="50.05222" lon="2.10818">
        <ele>66.5</ele>
        <time>2024-03-27T13:54:16Z</time>
      </trkpt>
      <trkpt lat="50.05223" lon="2.10817">
        <ele>66.5</ele>
        <time>2024-03-27T13:54:17Z</time>
      </trkpt>
      <trkpt lat="50.05224" lon="2.10816">
        <ele>66.6</ele>
        <time>2024-03-27T13:54:18Z</time>
      </trkpt>
      <trkpt lat="50.05225" lon="2.10816">
        <ele>66.6</ele>
        <time>2024-03-27T13:54:19Z</time>
      </trkpt>
      <trkpt lat="50.05226" lon="2.10815">
        <ele>66.6</ele>
        <time>2024-03-27T13:54:20Z</time>
      </trkpt>
      <trkpt lat="50.05227" lon="2.10814">
        <ele>66.6</ele>
        <time>2024-03-27T13:54:21Z</time>
      </trkpt>
      <trkpt lat="50.05228" lon="2.10813">
        <ele>66.6</ele>
        <time>2024-03-27T13:54:22Z</time>
      </trkpt>
      <trkpt lat="50.05229" lon="2.10812">
        <ele>66.7</ele>
        <time>2024-03-27T13:54:23Z</time>
      </trkpt>
      <trkpt lat="50.0523" lon="2.10811">
        <ele>66.7</ele>
        <time>2024-03-27T13:54:24Z</time>
      </trkpt>
      <trkpt lat="50.05231" lon="2.1081">
        <ele>66.7</ele>
        <time>2024-03-27T13:54:25Z</time>
      </trkpt>
      <trkpt lat="50.05232" lon="2.1081">
        <ele>66.7</ele>
        <time>2024-03-27T13:54:26Z</time>
      </trkpt>
      <trkpt lat="50.05232" lon="2.10809">
        <ele>66.8</ele>
        <time>2024-03-27T13:54:27Z</time>
      </trkpt>
      <trkpt lat="50.05233" lon="2.10808">
        <ele>66.8</ele>
        <time>2024-03-27T13:54:28Z</time>
      </trkpt>
      <trkpt lat="50.05234" lon="2.10807">
        <ele>66.8</ele>
        <time>2024-03-27T13:54:29Z</time>
      </trkpt>
      <trkpt lat="50.05235" lon="2.10806">
        <ele>66.8</ele>
        <time>2024-03-27T13:54:30Z</time>
      </trkpt>
      <trkpt lat="50.05237" lon="2.10804">
        <ele>66.9</ele>
        <time>2024-03-27T13:54:31Z</time>
      </trkpt>
      <trkpt lat="50.05238" lon="2.10804">
        <ele>66.9</ele>
        <time>2024-03-27T13:54:32Z</time>
      </trkpt>
      <trkpt lat="50.05239" lon="2.10803">
        <ele>66.9</ele>
        <time>2024-03-27T13:54:33Z</time>
      </trkpt>
      <trkpt lat="50.0524" lon="2.10802">
        <ele>66.9</ele>
        <time>2024-03-27T13:54:34Z</time>
      </trkpt>
      <trkpt lat="50.05241" lon="2.10801">
        <ele>66.9</ele>
        <time>2024-03-27T13:54:35Z</time>
      </trkpt>
      <trkpt lat="50.05242" lon="2.10801">
        <ele>66.9</ele>
        <time>2024-03-27T13:54:36Z</time>
      </trkpt>
      <trkpt lat="50.05242" lon="2.108">
        <ele>67</ele>
        <time>2024-03-27T13:54:37Z</time>
      </trkpt>
      <trkpt lat="50.05243" lon="2.10799">
        <ele>67</ele>
        <time>2024-03-27T13:54:38Z</time>
      </trkpt>
      <trkpt lat="50.05244" lon="2.10798">
        <ele>67</ele>
        <time>2024-03-27T13:54:39Z</time>
      </trkpt>
      <trkpt lat="50.05245" lon="2.10797">
        <ele>67</ele>
        <time>2024-03-27T13:54:40Z</time>
      </trkpt>
      <trkpt lat="50.05246" lon="2.10796">
        <ele>67</ele>
        <time>2024-03-27T13:54:41Z</time>
      </trkpt>
      <trkpt lat="50.05247" lon="2.10796">
        <ele>67.1</ele>
        <time>2024-03-27T13:54:42Z</time>
      </trkpt>
      <trkpt lat="50.05248" lon="2.10795">
        <ele>67.1</ele>
        <time>2024-03-27T13:54:43Z</time>
      </trkpt>
      <trkpt lat="50.05249" lon="2.10794">
        <ele>67.1</ele>
        <time>2024-03-27T13:54:44Z</time>
      </trkpt>
      <trkpt lat="50.0525" lon="2.10793">
        <ele>67.1</ele>
        <time>2024-03-27T13:54:45Z</time>
      </trkpt>
      <trkpt lat="50.05251" lon="2.10793">
        <ele>67.2</ele>
        <time>2024-03-27T13:54:46Z</time>
      </trkpt>
      <trkpt lat="50.05252" lon="2.10792">
        <ele>67.2</ele>
        <time>2024-03-27T13:54:47Z</time>
      </trkpt>
      <trkpt lat="50.05253" lon="2.10791">
        <ele>67.2</ele>
        <time>2024-03-27T13:54:48Z</time>
      </trkpt>
      <trkpt lat="50.05254" lon="2.1079">
        <ele>67.2</ele>
        <time>2024-03-27T13:54:49Z</time>
      </trkpt>
      <trkpt lat="50.05255" lon="2.10789">
        <ele>67.3</ele>
        <time>2024-03-27T13:54:50Z</time>
      </trkpt>
      <trkpt lat="50.05256" lon="2.10788">
        <ele>67.3</ele>
        <time>2024-03-27T13:54:51Z</time>
      </trkpt>
      <trkpt lat="50.05257" lon="2.10787">
        <ele>67.3</ele>
        <time>2024-03-27T13:54:52Z</time>
      </trkpt>
      <trkpt lat="50.05258" lon="2.10787">
        <ele>67.3</ele>
        <time>2024-03-27T13:54:53Z</time>
      </trkpt>
      <trkpt lat="50.05259" lon="2.10786">
        <ele>67.3</ele>
        <time>2024-03-27T13:54:54Z</time>
      </trkpt>
      <trkpt lat="50.0526" lon="2.10785">
        <ele>67.4</ele>
        <time>2024-03-27T13:54:55Z</time>
      </trkpt>
      <trkpt lat="50.05261" lon="2.10784">
        <ele>67.4</ele>
        <time>2024-03-27T13:54:56Z</time>
      </trkpt>
      <trkpt lat="50.05262" lon="2.10783">
        <ele>67.4</ele>
        <time>2024-03-27T13:54:57Z</time>
      </trkpt>
      <trkpt lat="50.05263" lon="2.10782">
        <ele>67.4</ele>
        <time>2024-03-27T13:54:58Z</time>
      </trkpt>
      <trkpt lat="50.05264" lon="2.10782">
        <ele>67.5</ele>
        <time>2024-03-27T13:54:59Z</time>
      </trkpt>
      <trkpt lat="50.05265" lon="2.10781">
        <ele>67.5</ele>
        <time>2024-03-27T13:55:00Z</time>
      </trkpt>
      <trkpt lat="50.05266" lon="2.1078">
        <ele>67.5</ele>
        <time>2024-03-27T13:55:01Z</time>
      </trkpt>
      <trkpt lat="50.05267" lon="2.10779">
        <ele>67.5</ele>
        <time>2024-03-27T13:55:02Z</time>
      </trkpt>
      <trkpt lat="50.05268" lon="2.10779">
        <ele>67.6</ele>
        <time>2024-03-27T13:55:03Z</time>
      </trkpt>
      <trkpt lat="50.05269" lon="2.10778">
        <ele>67.6</ele>
        <time>2024-03-27T13:55:04Z</time>
      </trkpt>
      <trkpt lat="50.0527" lon="2.10777">
        <ele>67.6</ele>
        <time>2024-03-27T13:55:05Z</time>
      </trkpt>
      <trkpt lat="50.05271" lon="2.10776">
        <ele>67.7</ele>
        <time>2024-03-27T13:55:06Z</time>
      </trkpt>
      <trkpt lat="50.05272" lon="2.10775">
        <ele>67.7</ele>
        <time>2024-03-27T13:55:07Z</time>
      </trkpt>
      <trkpt lat="50.05273" lon="2.10774">
        <ele>67.7</ele>
        <time>2024-03-27T13:55:08Z</time>
      </trkpt>
      <trkpt lat="50.05274" lon="2.10773">
        <ele>67.7</ele>
        <time>2024-03-27T13:55:09Z</time>
      </trkpt>
      <trkpt lat="50.05276" lon="2.10771">
        <ele>67.8</ele>
        <time>2024-03-27T13:55:10Z</time>
      </trkpt>
      <trkpt lat="50.05276" lon="2.10771">
        <ele>67.8</ele>
        <time>2024-03-27T13:55:11Z</time>
      </trkpt>
      <trkpt lat="50.05277" lon="2.1077">
        <ele>67.8</ele>
        <time>2024-03-27T13:55:12Z</time>
      </trkpt>
      <trkpt lat="50.05278" lon="2.10769">
        <ele>67.9</ele>
        <time>2024-03-27T13:55:13Z</time>
      </trkpt>
      <trkpt lat="50.05279" lon="2.10768">
        <ele>67.9</ele>
        <time>2024-03-27T13:55:14Z</time>
      </trkpt>
      <trkpt lat="50.0528" lon="2.10767">
        <ele>67.9</ele>
        <time>2024-03-27T13:55:15Z</time>
      </trkpt>
      <trkpt lat="50.05282" lon="2.10766">
        <ele>68</ele>
        <time>2024-03-27T13:55:16Z</time>
      </trkpt>
      <trkpt lat="50.05282" lon="2.10765">
        <ele>68</ele>
        <time>2024-03-27T13:55:17Z</time>
      </trkpt>
      <trkpt lat="50.05283" lon="2.10765">
        <ele>68</ele>
        <time>2024-03-27T13:55:18Z</time>
      </trkpt>
      <trkpt lat="50.05285" lon="2.10763">
        <ele>68.1</ele>
        <time>2024-03-27T13:55:19Z</time>
      </trkpt>
      <trkpt lat="50.05286" lon="2.10762">
        <ele>68.1</ele>
        <time>2024-03-27T13:55:20Z</time>
      </trkpt>
      <trkpt lat="50.05287" lon="2.10762">
        <ele>68.2</ele>
        <time>2024-03-27T13:55:21Z</time>
      </trkpt>
      <trkpt lat="50.05288" lon="2.10761">
        <ele>68.2</ele>
        <time>2024-03-27T13:55:22Z</time>
      </trkpt>
      <trkpt lat="50.05289" lon="2.1076">
        <ele>68.3</ele>
        <time>2024-03-27T13:55:23Z</time>
      </trkpt>
      <trkpt lat="50.0529" lon="2.10759">
        <ele>68.3</ele>
        <time>2024-03-27T13:55:24Z</time>
      </trkpt>
      <trkpt lat="50.05291" lon="2.10757">
        <ele>68.4</ele>
        <time>2024-03-27T13:55:25Z</time>
      </trkpt>
      <trkpt lat="50.05292" lon="2.10757">
        <ele>68.4</ele>
        <time>2024-03-27T13:55:26Z</time>
      </trkpt>
      <trkpt lat="50.05293" lon="2.10756">
        <ele>68.4</ele>
        <time>2024-03-27T13:55:27Z</time>
      </trkpt>
      <trkpt lat="50.05294" lon="2.10755">
        <ele>68.4</ele>
        <time>2024-03-27T13:55:28Z</time>
      </trkpt>
      <trkpt lat="50.05295" lon="2.10754">
        <ele>68.5</ele>
        <time>2024-03-27T13:55:29Z</time>
      </trkpt>
      <trkpt lat="50.05296" lon="2.10753">
        <ele>68.5</ele>
        <time>2024-03-27T13:55:30Z</time>
      </trkpt>
      <trkpt lat="50.05297" lon="2.10753">
        <ele>68.6</ele>
        <time>2024-03-27T13:55:31Z</time>
      </trkpt>
      <trkpt lat="50.05298" lon="2.10752">
        <ele>68.6</ele>
        <time>2024-03-27T13:55:32Z</time>
      </trkpt>
      <trkpt lat="50.05299" lon="2.10751">
        <ele>68.6</ele>
        <time>2024-03-27T13:55:33Z</time>
      </trkpt>
      <trkpt lat="50.053" lon="2.10751">
        <ele>68.7</ele>
        <time>2024-03-27T13:55:34Z</time>
      </trkpt>
      <trkpt lat="50.05301" lon="2.1075">
        <ele>68.7</ele>
        <time>2024-03-27T13:55:35Z</time>
      </trkpt>
      <trkpt lat="50.05302" lon="2.10749">
        <ele>68.7</ele>
        <time>2024-03-27T13:55:36Z</time>
      </trkpt>
      <trkpt lat="50.05303" lon="2.10749">
        <ele>68.8</ele>
        <time>2024-03-27T13:55:37Z</time>
      </trkpt>
      <trkpt lat="50.05304" lon="2.10748">
        <ele>68.8</ele>
        <time>2024-03-27T13:55:38Z</time>
      </trkpt>
      <trkpt lat="50.05305" lon="2.10748">
        <ele>68.8</ele>
        <time>2024-03-27T13:55:39Z</time>
      </trkpt>
      <trkpt lat="50.05305" lon="2.10747">
        <ele>68.9</ele>
        <time>2024-03-27T13:55:40Z</time>
      </trkpt>
      <trkpt lat="50.05306" lon="2.10746">
        <ele>68.9</ele>
        <time>2024-03-27T13:55:41Z</time>
      </trkpt>
      <trkpt lat="50.05307" lon="2.10746">
        <ele>68.9</ele>
        <time>2024-03-27T13:55:42Z</time>
      </trkpt>
      <trkpt lat="50.05308" lon="2.10745">
        <ele>68.9</ele>
        <time>2024-03-27T13:55:43Z</time>
      </trkpt>
      <trkpt lat="50.05309" lon="2.10744">
        <ele>69</ele>
        <time>2024-03-27T13:55:44Z</time>
      </trkpt>
      <trkpt lat="50.0531" lon="2.10744">
        <ele>69</ele>
        <time>2024-03-27T13:55:45Z</time>
      </trkpt>
      <trkpt lat="50.05311" lon="2.10743">
        <ele>69</ele>
        <time>2024-03-27T13:55:46Z</time>
      </trkpt>
      <trkpt lat="50.05312" lon="2.10743">
        <ele>69.1</ele>
        <time>2024-03-27T13:55:47Z</time>
      </trkpt>
      <trkpt lat="50.05313" lon="2.10743">
        <ele>69.1</ele>
        <time>2024-03-27T13:55:48Z</time>
      </trkpt>
      <trkpt lat="50.05314" lon="2.10742">
        <ele>69.1</ele>
        <time>2024-03-27T13:55:49Z</time>
      </trkpt>
      <trkpt lat="50.05315" lon="2.10742">
        <ele>69.1</ele>
        <time>2024-03-27T13:55:50Z</time>
      </trkpt>
      <trkpt lat="50.05315" lon="2.10741">
        <ele>69.1</ele>
        <time>2024-03-27T13:55:51Z</time>
      </trkpt>
      <trkpt lat="50.05316" lon="2.10741">
        <ele>69.2</ele>
        <time>2024-03-27T13:55:52Z</time>
      </trkpt>
      <trkpt lat="50.05317" lon="2.1074">
        <ele>69.2</ele>
        <time>2024-03-27T13:55:53Z</time>
      </trkpt>
      <trkpt lat="50.05317" lon="2.1074">
        <ele>69.2</ele>
        <time>2024-03-27T13:55:54Z</time>
      </trkpt>
      <trkpt lat="50.05318" lon="2.10739">
        <ele>69.2</ele>
        <time>2024-03-27T13:55:55Z</time>
      </trkpt>
      <trkpt lat="50.05319" lon="2.10739">
        <ele>69.2</ele>
        <time>2024-03-27T13:55:56Z</time>
      </trkpt>
      <trkpt lat="50.05319" lon="2.10738">
        <ele>69.2</ele>
        <time>2024-03-27T13:55:57Z</time>
      </trkpt>
      <trkpt lat="50.0532" lon="2.10738">
        <ele>69.3</ele>
        <time>2024-03-27T13:55:58Z</time>
      </trkpt>
      <trkpt lat="50.05321" lon="2.10737">
        <ele>69.3</ele>
        <time>2024-03-27T13:55:59Z</time>
      </trkpt>
      <trkpt lat="50.05321" lon="2.10737">
        <ele>69.3</ele>
        <time>2024-03-27T13:56:00Z</time>
      </trkpt>
      <trkpt lat="50.05322" lon="2.10736">
        <ele>69.3</ele>
        <time>2024-03-27T13:56:01Z</time>
      </trkpt>
      <trkpt lat="50.05322" lon="2.10735">
        <ele>69.3</ele>
        <time>2024-03-27T13:56:02Z</time>
      </trkpt>
      <trkpt lat="50.05323" lon="2.10734">
        <ele>69.3</ele>
        <time>2024-03-27T13:56:03Z</time>
      </trkpt>
      <trkpt lat="50.05323" lon="2.10734">
        <ele>69.3</ele>
        <time>2024-03-27T13:56:04Z</time>
      </trkpt>
      <trkpt lat="50.05324" lon="2.10734">
        <ele>69.4</ele>
        <time>2024-03-27T13:56:05Z</time>
      </trkpt>
      <trkpt lat="50.05324" lon="2.10734">
        <ele>69.4</ele>
        <time>2024-03-27T13:56:06Z</time>
      </trkpt>
      <trkpt lat="50.05324" lon="2.10734">
        <ele>69.4</ele>
        <time>2024-03-27T13:56:07Z</time>
      </trkpt>
      <trkpt lat="50.05324" lon="2.10734">
        <ele>69.4</ele>
        <time>2024-03-27T13:56:08Z</time>
      </trkpt>
      <trkpt lat="50.05324" lon="2.10734">
        <ele>69.4</ele>
        <time>2024-03-27T13:56:09Z</time>
      </trkpt>
      <trkpt lat="50.05324" lon="2.10734">
        <ele>69.4</ele>
        <time>2024-03-27T13:56:10Z</time>
      </trkpt>
      <trkpt lat="50.05324" lon="2.10734">
        <ele>69.4</ele>
        <time>2024-03-27T13:56:11Z</time>
      </trkpt>
      <trkpt lat="50.05324" lon="2.10734">
        <ele>69.4</ele>
        <time>2024-03-27T13:56:12Z</time>
      </trkpt>
      <trkpt lat="50.05324" lon="2.10734">
        <ele>69.4</ele>
        <time>2024-03-27T13:56:13Z</time>
      </trkpt>
      <trkpt lat="50.05324" lon="2.10734">
        <ele>69.4</ele>
        <time>2024-03-27T13:56:14Z</time>
      </trkpt>
      <trkpt lat="50.05324" lon="2.10734">
        <ele>69.4</ele>
        <time>2024-03-27T13:56:15Z</time>
      </trkpt>
      <trkpt lat="50.05324" lon="2.10734">
        <ele>69.4</ele>
        <time>2024-03-27T13:56:16Z</time>
      </trkpt>
      <trkpt lat="50.05324" lon="2.10734">
        <ele>69.4</ele>
        <time>2024-03-27T13:56:17Z</time>
      </trkpt>
      <trkpt lat="50.05324" lon="2.10734">
        <ele>69.4</ele>
        <time>2024-03-27T13:56:18Z</time>
      </trkpt>
      <trkpt lat="50.05324" lon="2.10734">
        <ele>69.4</ele>
        <time>2024-03-27T13:56:19Z</time>
      </trkpt>
      <trkpt lat="50.05324" lon="2.10734">
        <ele>69.4</ele>
        <time>2024-03-27T13:56:20Z</time>
      </trkpt>
      <trkpt lat="50.05324" lon="2.10734">
        <ele>69.4</ele>
        <time>2024-03-27T13:56:21Z</time>
      </trkpt>
      <trkpt lat="50.05324" lon="2.10734">
        <ele>69.4</ele>
        <time>2024-03-27T13:56:22Z</time>
      </trkpt>
      <trkpt lat="50.05324" lon="2.10734">
        <ele>69.4</ele>
        <time>2024-03-27T13:56:23Z</time>
      </trkpt>
      <trkpt lat="50.05324" lon="2.10734">
        <ele>69.4</ele>
        <time>2024-03-27T13:56:24Z</time>
      </trkpt>
      <trkpt lat="50.05324" lon="2.10734">
        <ele>69.4</ele>
        <time>2024-03-27T13:56:25Z</time>
      </trkpt>
      <trkpt lat="50.05324" lon="2.10734">
        <ele>69.4</ele>
        <time>2024-03-27T13:56:26Z</time>
      </trkpt>
      <trkpt lat="50.05324" lon="2.10734">
        <ele>69.4</ele>
        <time>2024-03-27T13:56:27Z</time>
      </trkpt>
      <trkpt lat="50.05324" lon="2.10734">
        <ele>69.4</ele>
        <time>2024-03-27T13:56:28Z</time>
      </trkpt>
      <trkpt lat="50.05324" lon="2.10734">
        <ele>69.4</ele>
        <time>2024-03-27T13:56:29Z</time>
      </trkpt>
      <trkpt lat="50.05324" lon="2.10734">
        <ele>69.4</ele>
        <time>2024-03-27T13:56:30Z</time>
      </trkpt>
      <trkpt lat="50.05324" lon="2.10734">
        <ele>69.4</ele>
        <time>2024-03-27T13:56:31Z</time>
      </trkpt>
      <trkpt lat="50.05324" lon="2.10734">
        <ele>69.4</ele>
        <time>2024-03-27T13:56:32Z</time>
      </trkpt>
      <trkpt lat="50.05324" lon="2.10734">
        <ele>69.4</ele>
        <time>2024-03-27T13:56:33Z</time>
      </trkpt>
      <trkpt lat="50.05324" lon="2.10734">
        <ele>69.4</ele>
        <time>2024-03-27T13:56:34Z</time>
      </trkpt>
      <trkpt lat="50.05324" lon="2.10734">
        <ele>69.4</ele>
        <time>2024-03-27T13:56:35Z</time>
      </trkpt>
      <trkpt lat="50.05324" lon="2.10734">
        <ele>69.4</ele>
        <time>2024-03-27T13:56:36Z</time>
      </trkpt>
      <trkpt lat="50.05324" lon="2.10734">
        <ele>69.4</ele>
        <time>2024-03-27T13:56:37Z</time>
      </trkpt>
      <trkpt lat="50.05324" lon="2.10734">
        <ele>69.4</ele>
        <time>2024-03-27T13:56:38Z</time>
      </trkpt>
      <trkpt lat="50.05324" lon="2.10734">
        <ele>69.4</ele>
        <time>2024-03-27T13:56:39Z</time>
      </trkpt>
      <trkpt lat="50.05324" lon="2.10734">
        <ele>69.4</ele>
        <time>2024-03-27T13:56:40Z</time>
      </trkpt>
      <trkpt lat="50.05324" lon="2.10734">
        <ele>69.4</ele>
        <time>2024-03-27T13:56:41Z</time>
      </trkpt>
      <trkpt lat="50.05324" lon="2.10734">
        <ele>69.4</ele>
        <time>2024-03-27T13:56:42Z</time>
      </trkpt>
      <trkpt lat="50.05324" lon="2.10734">
        <ele>69.4</ele>
        <time>2024-03-27T13:56:43Z</time>
      </trkpt>
      <trkpt lat="50.05324" lon="2.10734">
        <ele>69.4</ele>
        <time>2024-03-27T13:56:44Z</time>
      </trkpt>
      <trkpt lat="50.05324" lon="2.10734">
        <ele>69.4</ele>
        <time>2024-03-27T13:56:45Z</time>
      </trkpt>
      <trkpt lat="50.05324" lon="2.10734">
        <ele>69.4</ele>
        <time>2024-03-27T13:56:46Z</time>
      </trkpt>
      <trkpt lat="50.05324" lon="2.10734">
        <ele>69.4</ele>
        <time>2024-03-27T13:56:47Z</time>
      </trkpt>
      <trkpt lat="50.05324" lon="2.10734">
        <ele>69.4</ele>
        <time>2024-03-27T13:56:48Z</time>
      </trkpt>
      <trkpt lat="50.05324" lon="2.10734">
        <ele>69.4</ele>
        <time>2024-03-27T13:56:49Z</time>
      </trkpt>
      <trkpt lat="50.05324" lon="2.10734">
        <ele>69.4</ele>
        <time>2024-03-27T13:56:50Z</time>
      </trkpt>
      <trkpt lat="50.05324" lon="2.10734">
        <ele>69.4</ele>
        <time>2024-03-27T13:56:51Z</time>
      </trkpt>
      <trkpt lat="50.05324" lon="2.10734">
        <ele>69.4</ele>
        <time>2024-03-27T13:56:52Z</time>
      </trkpt>
      <trkpt lat="50.05324" lon="2.10734">
        <ele>69.4</ele>
        <time>2024-03-27T13:56:53Z</time>
      </trkpt>
      <trkpt lat="50.05324" lon="2.10734">
        <ele>69.4</ele>
        <time>2024-03-27T13:56:54Z</time>
      </trkpt>
      <trkpt lat="50.05324" lon="2.10734">
        <ele>69.4</ele>
        <time>2024-03-27T13:56:55Z</time>
      </trkpt>
      <trkpt lat="50.05324" lon="2.10734">
        <ele>69.4</ele>
        <time>2024-03-27T13:56:56Z</time>
      </trkpt>
      <trkpt lat="50.05324" lon="2.10734">
        <ele>69.4</ele>
        <time>2024-03-27T13:56:57Z</time>
      </trkpt>
      <trkpt lat="50.05324" lon="2.10734">
        <ele>69.4</ele>
        <time>2024-03-27T13:56:58Z</time>
      </trkpt>
      <trkpt lat="50.05324" lon="2.10734">
        <ele>69.4</ele>
        <time>2024-03-27T13:56:59Z</time>
      </trkpt>
      <trkpt lat="50.05324" lon="2.10734">
        <ele>69.4</ele>
        <time>2024-03-27T13:57:00Z</time>
      </trkpt>
      <trkpt lat="50.05324" lon="2.10734">
        <ele>69.4</ele>
        <time>2024-03-27T13:57:01Z</time>
      </trkpt>
      <trkpt lat="50.05324" lon="2.10734">
        <ele>69.4</ele>
        <time>2024-03-27T13:57:02Z</time>
      </trkpt>
      <trkpt lat="50.05324" lon="2.10734">
        <ele>69.4</ele>
        <time>2024-03-27T13:57:03Z</time>
      </trkpt>
      <trkpt lat="50.05324" lon="2.10734">
        <ele>69.4</ele>
        <time>2024-03-27T13:57:04Z</time>
      </trkpt>
      <trkpt lat="50.05324" lon="2.10734">
        <ele>69.4</ele>
        <time>2024-03-27T13:57:05Z</time>
      </trkpt>
      <trkpt lat="50.05324" lon="2.10734">
        <ele>69.4</ele>
        <time>2024-03-27T13:57:06Z</time>
      </trkpt>
      <trkpt lat="50.05324" lon="2.10734">
        <ele>69.4</ele>
        <time>2024-03-27T13:57:07Z</time>
      </trkpt>
      <trkpt lat="50.05324" lon="2.10734">
        <ele>69.4</ele>
        <time>2024-03-27T13:57:08Z</time>
      </trkpt>
      <trkpt lat="50.05324" lon="2.10734">
        <ele>69.4</ele>
        <time>2024-03-27T13:57:09Z</time>
      </trkpt>
      <trkpt lat="50.05324" lon="2.10734">
        <ele>69.4</ele>
        <time>2024-03-27T13:57:10Z</time>
      </trkpt>
      <trkpt lat="50.05324" lon="2.10734">
        <ele>69.4</ele>
        <time>2024-03-27T13:57:11Z</time>
      </trkpt>
      <trkpt lat="50.05324" lon="2.10734">
        <ele>69.4</ele>
        <time>2024-03-27T13:57:12Z</time>
      </trkpt>
      <trkpt lat="50.05324" lon="2.10734">
        <ele>69.4</ele>
        <time>2024-03-27T13:57:13Z</time>
      </trkpt>
      <trkpt lat="50.05324" lon="2.10734">
        <ele>69.4</ele>
        <time>2024-03-27T13:57:14Z</time>
      </trkpt>
      <trkpt lat="50.05324" lon="2.10734">
        <ele>69.4</ele>
        <time>2024-03-27T13:57:15Z</time>
      </trkpt>
      <trkpt lat="50.05324" lon="2.10734">
        <ele>69.4</ele>
        <time>2024-03-27T13:57:16Z</time>
      </trkpt>
      <trkpt lat="50.05324" lon="2.10734">
        <ele>69.4</ele>
        <time>2024-03-27T13:57:17Z</time>
      </trkpt>
      <trkpt lat="50.05322" lon="2.10734">
        <ele>69.4</ele>
        <time>2024-03-27T13:57:18Z</time>
      </trkpt>
      <trkpt lat="50.05322" lon="2.10734">
        <ele>69.4</ele>
        <time>2024-03-27T13:57:19Z</time>
      </trkpt>
      <trkpt lat="50.05322" lon="2.10734">
        <ele>69.4</ele>
        <time>2024-03-27T13:57:20Z</time>
      </trkpt>
      <trkpt lat="50.05322" lon="2.10734">
        <ele>69.4</ele>
        <time>2024-03-27T13:57:21Z</time>
      </trkpt>
      <trkpt lat="50.05322" lon="2.10734">
        <ele>69.4</ele>
        <time>2024-03-27T13:57:22Z</time>
      </trkpt>
      <trkpt lat="50.05322" lon="2.10734">
        <ele>69.4</ele>
        <time>2024-03-27T13:57:23Z</time>
      </trkpt>
      <trkpt lat="50.05322" lon="2.10734">
        <ele>69.4</ele>
        <time>2024-03-27T13:57:24Z</time>
      </trkpt>
      <trkpt lat="50.05322" lon="2.10734">
        <ele>69.4</ele>
        <time>2024-03-27T13:57:25Z</time>
      </trkpt>
      <trkpt lat="50.05322" lon="2.10734">
        <ele>69.4</ele>
        <time>2024-03-27T13:57:26Z</time>
      </trkpt>
      <trkpt lat="50.05322" lon="2.10734">
        <ele>69.4</ele>
        <time>2024-03-27T13:57:27Z</time>
      </trkpt>
      <trkpt lat="50.05322" lon="2.10734">
        <ele>69.4</ele>
        <time>2024-03-27T13:57:28Z</time>
      </trkpt>
      <trkpt lat="50.05322" lon="2.10734">
        <ele>69.4</ele>
        <time>2024-03-27T13:57:29Z</time>
      </trkpt>
      <trkpt lat="50.05322" lon="2.10734">
        <ele>69.4</ele>
        <time>2024-03-27T13:57:30Z</time>
      </trkpt>
      <trkpt lat="50.05322" lon="2.10734">
        <ele>69.4</ele>
        <time>2024-03-27T13:57:31Z</time>
      </trkpt>
      <trkpt lat="50.05322" lon="2.10734">
        <ele>69.4</ele>
        <time>2024-03-27T13:57:32Z</time>
      </trkpt>
      <trkpt lat="50.05322" lon="2.10734">
        <ele>69.4</ele>
        <time>2024-03-27T13:57:33Z</time>
      </trkpt>
      <trkpt lat="50.05322" lon="2.10734">
        <ele>69.4</ele>
        <time>2024-03-27T13:57:34Z</time>
      </trkpt>
      <trkpt lat="50.05322" lon="2.10734">
        <ele>69.4</ele>
        <time>2024-03-27T13:57:35Z</time>
      </trkpt>
      <trkpt lat="50.05322" lon="2.10734">
        <ele>69.4</ele>
        <time>2024-03-27T13:57:36Z</time>
      </trkpt>
      <trkpt lat="50.05322" lon="2.10734">
        <ele>69.4</ele>
        <time>2024-03-27T13:57:37Z</time>
      </trkpt>
      <trkpt lat="50.05322" lon="2.10734">
        <ele>69.4</ele>
        <time>2024-03-27T13:57:38Z</time>
      </trkpt>
      <trkpt lat="50.05322" lon="2.10734">
        <ele>69.4</ele>
        <time>2024-03-27T13:57:39Z</time>
      </trkpt>
      <trkpt lat="50.05322" lon="2.10734">
        <ele>69.4</ele>
        <time>2024-03-27T13:57:40Z</time>
      </trkpt>
      <trkpt lat="50.05322" lon="2.10734">
        <ele>69.4</ele>
        <time>2024-03-27T13:57:41Z</time>
      </trkpt>
      <trkpt lat="50.05322" lon="2.10734">
        <ele>69.4</ele>
        <time>2024-03-27T13:57:42Z</time>
      </trkpt>
      <trkpt lat="50.05322" lon="2.10734">
        <ele>69.4</ele>
        <time>2024-03-27T13:57:43Z</time>
      </trkpt>
      <trkpt lat="50.05322" lon="2.10734">
        <ele>69.4</ele>
        <time>2024-03-27T13:57:44Z</time>
      </trkpt>
      <trkpt lat="50.05322" lon="2.10734">
        <ele>69.4</ele>
        <time>2024-03-27T13:57:45Z</time>
      </trkpt>
      <trkpt lat="50.05322" lon="2.10734">
        <ele>69.4</ele>
        <time>2024-03-27T13:57:46Z</time>
      </trkpt>
      <trkpt lat="50.05322" lon="2.10734">
        <ele>69.4</ele>
        <time>2024-03-27T13:57:47Z</time>
      </trkpt>
      <trkpt lat="50.05322" lon="2.10734">
        <ele>69.4</ele>
        <time>2024-03-27T13:57:48Z</time>
      </trkpt>
      <trkpt lat="50.05322" lon="2.10734">
        <ele>69.4</ele>
        <time>2024-03-27T13:57:49Z</time>
      </trkpt>
      <trkpt lat="50.05322" lon="2.10734">
        <ele>69.4</ele>
        <time>2024-03-27T13:57:50Z</time>
      </trkpt>
      <trkpt lat="50.05322" lon="2.10734">
        <ele>69.4</ele>
        <time>2024-03-27T13:57:51Z</time>
      </trkpt>
      <trkpt lat="50.05322" lon="2.10734">
        <ele>69.4</ele>
        <time>2024-03-27T13:57:52Z</time>
      </trkpt>
      <trkpt lat="50.05322" lon="2.10734">
        <ele>69.4</ele>
        <time>2024-03-27T13:57:53Z</time>
      </trkpt>
      <trkpt lat="50.05322" lon="2.10734">
        <ele>69.4</ele>
        <time>2024-03-27T13:57:54Z</time>
      </trkpt>
      <trkpt lat="50.05322" lon="2.10734">
        <ele>69.4</ele>
        <time>2024-03-27T13:57:55Z</time>
      </trkpt>
      <trkpt lat="50.05322" lon="2.10734">
        <ele>69.4</ele>
        <time>2024-03-27T13:57:56Z</time>
      </trkpt>
      <trkpt lat="50.05322" lon="2.10734">
        <ele>69.4</ele>
        <time>2024-03-27T13:57:57Z</time>
      </trkpt>
      <trkpt lat="50.05322" lon="2.10734">
        <ele>69.4</ele>
        <time>2024-03-27T13:57:58Z</time>
      </trkpt>
      <trkpt lat="50.05322" lon="2.10734">
        <ele>69.4</ele>
        <time>2024-03-27T13:57:59Z</time>
      </trkpt>
      <trkpt lat="50.05322" lon="2.10734">
        <ele>69.4</ele>
        <time>2024-03-27T13:58:00Z</time>
      </trkpt>
      <trkpt lat="50.05322" lon="2.10734">
        <ele>69.4</ele>
        <time>2024-03-27T13:58:01Z</time>
      </trkpt>
      <trkpt lat="50.05322" lon="2.10734">
        <ele>69.4</ele>
        <time>2024-03-27T13:58:02Z</time>
      </trkpt>
      <trkpt lat="50.05322" lon="2.10734">
        <ele>69.4</ele>
        <time>2024-03-27T13:58:03Z</time>
      </trkpt>
      <trkpt lat="50.05322" lon="2.10734">
        <ele>69.4</ele>
        <time>2024-03-27T13:58:04Z</time>
      </trkpt>
      <trkpt lat="50.05322" lon="2.10734">
        <ele>69.4</ele>
        <time>2024-03-27T13:58:05Z</time>
      </trkpt>
      <trkpt lat="50.05322" lon="2.10734">
        <ele>69.4</ele>
        <time>2024-03-27T13:58:06Z</time>
      </trkpt>
      <trkpt lat="50.05322" lon="2.10734">
        <ele>69.4</ele>
        <time>2024-03-27T13:58:07Z</time>
      </trkpt>
      <trkpt lat="50.05322" lon="2.10734">
        <ele>69.4</ele>
        <time>2024-03-27T13:58:08Z</time>
      </trkpt>
      <trkpt lat="50.05322" lon="2.10734">
        <ele>69.4</ele>
        <time>2024-03-27T13:58:09Z</time>
      </trkpt>
      <trkpt lat="50.05322" lon="2.10734">
        <ele>69.4</ele>
        <time>2024-03-27T13:58:10Z</time>
      </trkpt>
      <trkpt lat="50.05322" lon="2.10732">
        <ele>69.5</ele>
        <time>2024-03-27T13:58:11Z</time>
      </trkpt>
      <trkpt lat="50.05322" lon="2.10732">
        <ele>69.5</ele>
        <time>2024-03-27T13:58:12Z</time>
      </trkpt>
      <trkpt lat="50.05323" lon="2.10733">
        <ele>69.5</ele>
        <time>2024-03-27T13:58:13Z</time>
      </trkpt>
      <trkpt lat="50.05323" lon="2.10733">
        <ele>69.5</ele>
        <time>2024-03-27T13:58:14Z</time>
      </trkpt>
      <trkpt lat="50.05323" lon="2.10733">
        <ele>69.5</ele>
        <time>2024-03-27T13:58:15Z</time>
      </trkpt>
      <trkpt lat="50.05324" lon="2.10733">
        <ele>69.5</ele>
        <time>2024-03-27T13:58:16Z</time>
      </trkpt>
      <trkpt lat="50.05324" lon="2.10732">
        <ele>69.5</ele>
        <time>2024-03-27T13:58:17Z</time>
      </trkpt>
      <trkpt lat="50.05325" lon="2.10731">
        <ele>69.5</ele>
        <time>2024-03-27T13:58:18Z</time>
      </trkpt>
      <trkpt lat="50.05325" lon="2.10731">
        <ele>69.5</ele>
        <time>2024-03-27T13:58:19Z</time>
      </trkpt>
      <trkpt lat="50.05326" lon="2.10729">
        <ele>69.6</ele>
        <time>2024-03-27T13:58:20Z</time>
      </trkpt>
      <trkpt lat="50.05327" lon="2.10728">
        <ele>69.6</ele>
        <time>2024-03-27T13:58:21Z</time>
      </trkpt>
      <trkpt lat="50.05328" lon="2.10727">
        <ele>69.6</ele>
        <time>2024-03-27T13:58:22Z</time>
      </trkpt>
      <trkpt lat="50.05329" lon="2.10725">
        <ele>69.6</ele>
        <time>2024-03-27T13:58:23Z</time>
      </trkpt>
      <trkpt lat="50.05329" lon="2.10724">
        <ele>69.6</ele>
        <time>2024-03-27T13:58:24Z</time>
      </trkpt>
      <trkpt lat="50.0533" lon="2.10723">
        <ele>69.7</ele>
        <time>2024-03-27T13:58:25Z</time>
      </trkpt>
      <trkpt lat="50.05331" lon="2.10722">
        <ele>69.7</ele>
        <time>2024-03-27T13:58:26Z</time>
      </trkpt>
      <trkpt lat="50.05332" lon="2.10721">
        <ele>69.7</ele>
        <time>2024-03-27T13:58:27Z</time>
      </trkpt>
      <trkpt lat="50.05332" lon="2.1072">
        <ele>69.7</ele>
        <time>2024-03-27T13:58:28Z</time>
      </trkpt>
      <trkpt lat="50.05333" lon="2.10719">
        <ele>69.7</ele>
        <time>2024-03-27T13:58:29Z</time>
      </trkpt>
      <trkpt lat="50.05333" lon="2.10718">
        <ele>69.7</ele>
        <time>2024-03-27T13:58:30Z</time>
      </trkpt>
      <trkpt lat="50.05334" lon="2.10717">
        <ele>69.8</ele>
        <time>2024-03-27T13:58:31Z</time>
      </trkpt>
      <trkpt lat="50.05335" lon="2.10716">
        <ele>69.8</ele>
        <time>2024-03-27T13:58:32Z</time>
      </trkpt>
      <trkpt lat="50.05336" lon="2.10716">
        <ele>69.8</ele>
        <time>2024-03-27T13:58:33Z</time>
      </trkpt>
      <trkpt lat="50.05336" lon="2.10716">
        <ele>69.8</ele>
        <time>2024-03-27T13:58:34Z</time>
      </trkpt>
      <trkpt lat="50.05337" lon="2.10715">
        <ele>69.8</ele>
        <time>2024-03-27T13:58:35Z</time>
      </trkpt>
      <trkpt lat="50.05338" lon="2.10714">
        <ele>69.9</ele>
        <time>2024-03-27T13:58:36Z</time>
      </trkpt>
      <trkpt lat="50.05339" lon="2.10714">
        <ele>69.9</ele>
        <time>2024-03-27T13:58:37Z</time>
      </trkpt>
      <trkpt lat="50.0534" lon="2.10713">
        <ele>69.9</ele>
        <time>2024-03-27T13:58:38Z</time>
      </trkpt>
      <trkpt lat="50.05341" lon="2.10713">
        <ele>69.9</ele>
        <time>2024-03-27T13:58:39Z</time>
      </trkpt>
      <trkpt lat="50.05342" lon="2.10712">
        <ele>70</ele>
        <time>2024-03-27T13:58:40Z</time>
      </trkpt>
      <trkpt lat="50.05343" lon="2.10711">
        <ele>70</ele>
        <time>2024-03-27T13:58:41Z</time>
      </trkpt>
      <trkpt lat="50.05344" lon="2.10711">
        <ele>70</ele>
        <time>2024-03-27T13:58:42Z</time>
      </trkpt>
      <trkpt lat="50.05345" lon="2.1071">
        <ele>70</ele>
        <time>2024-03-27T13:58:43Z</time>
      </trkpt>
      <trkpt lat="50.05346" lon="2.10709">
        <ele>70.1</ele>
        <time>2024-03-27T13:58:44Z</time>
      </trkpt>
      <trkpt lat="50.05346" lon="2.10708">
        <ele>70.1</ele>
        <time>2024-03-27T13:58:45Z</time>
      </trkpt>
      <trkpt lat="50.05347" lon="2.10707">
        <ele>70.1</ele>
        <time>2024-03-27T13:58:46Z</time>
      </trkpt>
      <trkpt lat="50.05348" lon="2.10707">
        <ele>70.1</ele>
        <time>2024-03-27T13:58:47Z</time>
      </trkpt>
      <trkpt lat="50.05349" lon="2.10707">
        <ele>70.2</ele>
        <time>2024-03-27T13:58:48Z</time>
      </trkpt>
      <trkpt lat="50.0535" lon="2.10707">
        <ele>70.2</ele>
        <time>2024-03-27T13:58:49Z</time>
      </trkpt>
      <trkpt lat="50.05351" lon="2.10706">
        <ele>70.2</ele>
        <time>2024-03-27T13:58:50Z</time>
      </trkpt>
      <trkpt lat="50.05351" lon="2.10705">
        <ele>70.2</ele>
        <time>2024-03-27T13:58:51Z</time>
      </trkpt>
      <trkpt lat="50.05352" lon="2.10704">
        <ele>70.2</ele>
        <time>2024-03-27T13:58:52Z</time>
      </trkpt>
      <trkpt lat="50.05353" lon="2.10703">
        <ele>70.3</ele>
        <time>2024-03-27T13:58:53Z</time>
      </trkpt>
      <trkpt lat="50.05353" lon="2.10701">
        <ele>70.3</ele>
        <time>2024-03-27T13:58:54Z</time>
      </trkpt>
      <trkpt lat="50.05354" lon="2.107">
        <ele>70.3</ele>
        <time>2024-03-27T13:58:55Z</time>
      </trkpt>
      <trkpt lat="50.05355" lon="2.10699">
        <ele>70.3</ele>
        <time>2024-03-27T13:58:56Z</time>
      </trkpt>
      <trkpt lat="50.05356" lon="2.107">
        <ele>70.4</ele>
        <time>2024-03-27T13:58:57Z</time>
      </trkpt>
      <trkpt lat="50.05357" lon="2.10699">
        <ele>70.4</ele>
        <time>2024-03-27T13:58:58Z</time>
      </trkpt>
      <trkpt lat="50.05358" lon="2.10699">
        <ele>70.4</ele>
        <time>2024-03-27T13:58:59Z</time>
      </trkpt>
      <trkpt lat="50.05358" lon="2.10698">
        <ele>70.4</ele>
        <time>2024-03-27T13:59:00Z</time>
      </trkpt>
      <trkpt lat="50.05359" lon="2.10697">
        <ele>70.5</ele>
        <time>2024-03-27T13:59:01Z</time>
      </trkpt>
      <trkpt lat="50.0536" lon="2.10697">
        <ele>70.5</ele>
        <time>2024-03-27T13:59:02Z</time>
      </trkpt>
      <trkpt lat="50.0536" lon="2.10696">
        <ele>70.5</ele>
        <time>2024-03-27T13:59:03Z</time>
      </trkpt>
      <trkpt lat="50.05361" lon="2.10695">
        <ele>70.5</ele>
        <time>2024-03-27T13:59:04Z</time>
      </trkpt>
      <trkpt lat="50.05362" lon="2.10694">
        <ele>70.5</ele>
        <time>2024-03-27T13:59:05Z</time>
      </trkpt>
      <trkpt lat="50.05362" lon="2.10693">
        <ele>70.6</ele>
        <time>2024-03-27T13:59:06Z</time>
      </trkpt>
      <trkpt lat="50.05363" lon="2.10692">
        <ele>70.6</ele>
        <time>2024-03-27T13:59:07Z</time>
      </trkpt>
      <trkpt lat="50.05364" lon="2.10691">
        <ele>70.6</ele>
        <time>2024-03-27T13:59:08Z</time>
      </trkpt>
      <trkpt lat="50.05364" lon="2.10691">
        <ele>70.6</ele>
        <time>2024-03-27T13:59:09Z</time>
      </trkpt>
      <trkpt lat="50.05365" lon="2.1069">
        <ele>70.6</ele>
        <time>2024-03-27T13:59:10Z</time>
      </trkpt>
      <trkpt lat="50.05366" lon="2.10689">
        <ele>70.7</ele>
        <time>2024-03-27T13:59:11Z</time>
      </trkpt>
      <trkpt lat="50.05367" lon="2.10688">
        <ele>70.7</ele>
        <time>2024-03-27T13:59:12Z</time>
      </trkpt>
      <trkpt lat="50.05367" lon="2.10687">
        <ele>70.7</ele>
        <time>2024-03-27T13:59:13Z</time>
      </trkpt>
      <trkpt lat="50.05368" lon="2.10686">
        <ele>70.7</ele>
        <time>2024-03-27T13:59:14Z</time>
      </trkpt>
      <trkpt lat="50.05368" lon="2.10685">
        <ele>70.7</ele>
        <time>2024-03-27T13:59:15Z</time>
      </trkpt>
      <trkpt lat="50.05369" lon="2.10684">
        <ele>70.8</ele>
        <time>2024-03-27T13:59:16Z</time>
      </trkpt>
      <trkpt lat="50.05369" lon="2.10683">
        <ele>70.8</ele>
        <time>2024-03-27T13:59:17Z</time>
      </trkpt>
      <trkpt lat="50.0537" lon="2.10682">
        <ele>70.8</ele>
        <time>2024-03-27T13:59:18Z</time>
      </trkpt>
      <trkpt lat="50.0537" lon="2.10681">
        <ele>70.8</ele>
        <time>2024-03-27T13:59:19Z</time>
      </trkpt>
      <trkpt lat="50.05371" lon="2.1068">
        <ele>70.9</ele>
        <time>2024-03-27T13:59:20Z</time>
      </trkpt>
      <trkpt lat="50.05372" lon="2.10679">
        <ele>70.9</ele>
        <time>2024-03-27T13:59:21Z</time>
      </trkpt>
      <trkpt lat="50.05372" lon="2.10678">
        <ele>70.9</ele>
        <time>2024-03-27T13:59:22Z</time>
      </trkpt>
      <trkpt lat="50.05373" lon="2.10677">
        <ele>70.9</ele>
        <time>2024-03-27T13:59:23Z</time>
      </trkpt>
      <trkpt lat="50.05374" lon="2.10677">
        <ele>71</ele>
        <time>2024-03-27T13:59:24Z</time>
      </trkpt>
      <trkpt lat="50.05375" lon="2.10676">
        <ele>71</ele>
        <time>2024-03-27T13:59:25Z</time>
      </trkpt>
      <trkpt lat="50.05376" lon="2.10675">
        <ele>71</ele>
        <time>2024-03-27T13:59:26Z</time>
      </trkpt>
      <trkpt lat="50.05377" lon="2.10675">
        <ele>71</ele>
        <time>2024-03-27T13:59:27Z</time>
      </trkpt>
      <trkpt lat="50.05377" lon="2.10675">
        <ele>71</ele>
        <time>2024-03-27T13:59:28Z</time>
      </trkpt>
      <trkpt lat="50.05378" lon="2.10674">
        <ele>71.1</ele>
        <time>2024-03-27T13:59:29Z</time>
      </trkpt>
      <trkpt lat="50.05379" lon="2.10674">
        <ele>71.1</ele>
        <time>2024-03-27T13:59:30Z</time>
      </trkpt>
      <trkpt lat="50.0538" lon="2.10673">
        <ele>71.1</ele>
        <time>2024-03-27T13:59:31Z</time>
      </trkpt>
      <trkpt lat="50.05381" lon="2.10672">
        <ele>71.1</ele>
        <time>2024-03-27T13:59:32Z</time>
      </trkpt>
      <trkpt lat="50.05382" lon="2.10671">
        <ele>71.2</ele>
        <time>2024-03-27T13:59:33Z</time>
      </trkpt>
      <trkpt lat="50.05382" lon="2.10671">
        <ele>71.2</ele>
        <time>2024-03-27T13:59:34Z</time>
      </trkpt>
      <trkpt lat="50.05383" lon="2.1067">
        <ele>71.2</ele>
        <time>2024-03-27T13:59:35Z</time>
      </trkpt>
      <trkpt lat="50.05384" lon="2.1067">
        <ele>71.2</ele>
        <time>2024-03-27T13:59:36Z</time>
      </trkpt>
      <trkpt lat="50.05385" lon="2.10669">
        <ele>71.3</ele>
        <time>2024-03-27T13:59:37Z</time>
      </trkpt>
      <trkpt lat="50.05386" lon="2.10669">
        <ele>71.3</ele>
        <time>2024-03-27T13:59:38Z</time>
      </trkpt>
      <trkpt lat="50.05387" lon="2.10669">
        <ele>71.3</ele>
        <time>2024-03-27T13:59:39Z</time>
      </trkpt>
      <trkpt lat="50.05387" lon="2.10669">
        <ele>71.3</ele>
        <time>2024-03-27T13:59:40Z</time>
      </trkpt>
      <trkpt lat="50.05388" lon="2.10668">
        <ele>71.3</ele>
        <time>2024-03-27T13:59:41Z</time>
      </trkpt>
      <trkpt lat="50.05389" lon="2.10668">
        <ele>71.4</ele>
        <time>2024-03-27T13:59:42Z</time>
      </trkpt>
      <trkpt lat="50.0539" lon="2.10667">
        <ele>71.4</ele>
        <time>2024-03-27T13:59:43Z</time>
      </trkpt>
      <trkpt lat="50.05391" lon="2.10667">
        <ele>71.4</ele>
        <time>2024-03-27T13:59:44Z</time>
      </trkpt>
      <trkpt lat="50.05391" lon="2.10666">
        <ele>71.4</ele>
        <time>2024-03-27T13:59:45Z</time>
      </trkpt>
      <trkpt lat="50.05392" lon="2.10666">
        <ele>71.4</ele>
        <time>2024-03-27T13:59:46Z</time>
      </trkpt>
      <trkpt lat="50.05393" lon="2.10665">
        <ele>71.5</ele>
        <time>2024-03-27T13:59:47Z</time>
      </trkpt>
      <trkpt lat="50.05394" lon="2.10665">
        <ele>71.5</ele>
        <time>2024-03-27T13:59:48Z</time>
      </trkpt>
      <trkpt lat="50.05395" lon="2.10664">
        <ele>71.5</ele>
        <time>2024-03-27T13:59:49Z</time>
      </trkpt>
      <trkpt lat="50.05396" lon="2.10664">
        <ele>71.5</ele>
        <time>2024-03-27T13:59:50Z</time>
      </trkpt>
      <trkpt lat="50.05397" lon="2.10663">
        <ele>71.6</ele>
        <time>2024-03-27T13:59:51Z</time>
      </trkpt>
      <trkpt lat="50.05398" lon="2.10663">
        <ele>71.6</ele>
        <time>2024-03-27T13:59:52Z</time>
      </trkpt>
      <trkpt lat="50.05399" lon="2.10662">
        <ele>71.6</ele>
        <time>2024-03-27T13:59:53Z</time>
      </trkpt>
      <trkpt lat="50.054" lon="2.10661">
        <ele>71.6</ele>
        <time>2024-03-27T13:59:54Z</time>
      </trkpt>
      <trkpt lat="50.05401" lon="2.10661">
        <ele>71.7</ele>
        <time>2024-03-27T13:59:55Z</time>
      </trkpt>
      <trkpt lat="50.05402" lon="2.1066">
        <ele>71.7</ele>
        <time>2024-03-27T13:59:56Z</time>
      </trkpt>
      <trkpt lat="50.05403" lon="2.10659">
        <ele>71.7</ele>
        <time>2024-03-27T13:59:57Z</time>
      </trkpt>
      <trkpt lat="50.05404" lon="2.10658">
        <ele>71.7</ele>
        <time>2024-03-27T13:59:58Z</time>
      </trkpt>
      <trkpt lat="50.05405" lon="2.10657">
        <ele>71.8</ele>
        <time>2024-03-27T13:59:59Z</time>
      </trkpt>
      <trkpt lat="50.05405" lon="2.10656">
        <ele>71.8</ele>
        <time>2024-03-27T14:00:00Z</time>
      </trkpt>
      <trkpt lat="50.05406" lon="2.10654">
        <ele>71.8</ele>
        <time>2024-03-27T14:00:01Z</time>
      </trkpt>
      <trkpt lat="50.05407" lon="2.10653">
        <ele>71.9</ele>
        <time>2024-03-27T14:00:02Z</time>
      </trkpt>
      <trkpt lat="50.05408" lon="2.10652">
        <ele>71.9</ele>
        <time>2024-03-27T14:00:03Z</time>
      </trkpt>
      <trkpt lat="50.05409" lon="2.10651">
        <ele>71.9</ele>
        <time>2024-03-27T14:00:04Z</time>
      </trkpt>
      <trkpt lat="50.0541" lon="2.10651">
        <ele>71.9</ele>
        <time>2024-03-27T14:00:05Z</time>
      </trkpt>
      <trkpt lat="50.05411" lon="2.1065">
        <ele>71.9</ele>
        <time>2024-03-27T14:00:06Z</time>
      </trkpt>
      <trkpt lat="50.05412" lon="2.10649">
        <ele>72</ele>
        <time>2024-03-27T14:00:07Z</time>
      </trkpt>
      <trkpt lat="50.05413" lon="2.10648">
        <ele>72</ele>
        <time>2024-03-27T14:00:08Z</time>
      </trkpt>
      <trkpt lat="50.05414" lon="2.10647">
        <ele>72</ele>
        <time>2024-03-27T14:00:09Z</time>
      </trkpt>
      <trkpt lat="50.05415" lon="2.10646">
        <ele>72</ele>
        <time>2024-03-27T14:00:10Z</time>
      </trkpt>
      <trkpt lat="50.05416" lon="2.10645">
        <ele>72.1</ele>
        <time>2024-03-27T14:00:11Z</time>
      </trkpt>
      <trkpt lat="50.05417" lon="2.10644">
        <ele>72.1</ele>
        <time>2024-03-27T14:00:12Z</time>
      </trkpt>
      <trkpt lat="50.05418" lon="2.10643">
        <ele>72.1</ele>
        <time>2024-03-27T14:00:13Z</time>
      </trkpt>
      <trkpt lat="50.05419" lon="2.10642">
        <ele>72.1</ele>
        <time>2024-03-27T14:00:14Z</time>
      </trkpt>
      <trkpt lat="50.05419" lon="2.10642">
        <ele>72.2</ele>
        <time>2024-03-27T14:00:15Z</time>
      </trkpt>
      <trkpt lat="50.0542" lon="2.10641">
        <ele>72.2</ele>
        <time>2024-03-27T14:00:16Z</time>
      </trkpt>
      <trkpt lat="50.05421" lon="2.1064">
        <ele>72.2</ele>
        <time>2024-03-27T14:00:17Z</time>
      </trkpt>
      <trkpt lat="50.05422" lon="2.10639">
        <ele>72.2</ele>
        <time>2024-03-27T14:00:18Z</time>
      </trkpt>
      <trkpt lat="50.05423" lon="2.10638">
        <ele>72.2</ele>
        <time>2024-03-27T14:00:19Z</time>
      </trkpt>
      <trkpt lat="50.05424" lon="2.10638">
        <ele>72.3</ele>
        <time>2024-03-27T14:00:20Z</time>
      </trkpt>
      <trkpt lat="50.05425" lon="2.10637">
        <ele>72.3</ele>
        <time>2024-03-27T14:00:21Z</time>
      </trkpt>
      <trkpt lat="50.05426" lon="2.10636">
        <ele>72.3</ele>
        <time>2024-03-27T14:00:22Z</time>
      </trkpt>
      <trkpt lat="50.05426" lon="2.10635">
        <ele>72.3</ele>
        <time>2024-03-27T14:00:23Z</time>
      </trkpt>
      <trkpt lat="50.05427" lon="2.10634">
        <ele>72.3</ele>
        <time>2024-03-27T14:00:24Z</time>
      </trkpt>
      <trkpt lat="50.05429" lon="2.10633">
        <ele>72.4</ele>
        <time>2024-03-27T14:00:25Z</time>
      </trkpt>
      <trkpt lat="50.0543" lon="2.10633">
        <ele>72.4</ele>
        <time>2024-03-27T14:00:26Z</time>
      </trkpt>
      <trkpt lat="50.05431" lon="2.10632">
        <ele>72.4</ele>
        <time>2024-03-27T14:00:27Z</time>
      </trkpt>
      <trkpt lat="50.05432" lon="2.10631">
        <ele>72.4</ele>
        <time>2024-03-27T14:00:28Z</time>
      </trkpt>
      <trkpt lat="50.05433" lon="2.1063">
        <ele>72.5</ele>
        <time>2024-03-27T14:00:29Z</time>
      </trkpt>
      <trkpt lat="50.05434" lon="2.10629">
        <ele>72.5</ele>
        <time>2024-03-27T14:00:30Z</time>
      </trkpt>
      <trkpt lat="50.05435" lon="2.10628">
        <ele>72.5</ele>
        <time>2024-03-27T14:00:31Z</time>
      </trkpt>
      <trkpt lat="50.05436" lon="2.10627">
        <ele>72.5</ele>
        <time>2024-03-27T14:00:32Z</time>
      </trkpt>
      <trkpt lat="50.05436" lon="2.10626">
        <ele>72.6</ele>
        <time>2024-03-27T14:00:33Z</time>
      </trkpt>
      <trkpt lat="50.05437" lon="2.10624">
        <ele>72.6</ele>
        <time>2024-03-27T14:00:34Z</time>
      </trkpt>
      <trkpt lat="50.05438" lon="2.10624">
        <ele>72.6</ele>
        <time>2024-03-27T14:00:35Z</time>
      </trkpt>
      <trkpt lat="50.05439" lon="2.10623">
        <ele>72.6</ele>
        <time>2024-03-27T14:00:36Z</time>
      </trkpt>
      <trkpt lat="50.0544" lon="2.10622">
        <ele>72.6</ele>
        <time>2024-03-27T14:00:37Z</time>
      </trkpt>
      <trkpt lat="50.05441" lon="2.10622">
        <ele>72.7</ele>
        <time>2024-03-27T14:00:38Z</time>
      </trkpt>
      <trkpt lat="50.05442" lon="2.10621">
        <ele>72.7</ele>
        <time>2024-03-27T14:00:39Z</time>
      </trkpt>
      <trkpt lat="50.05443" lon="2.1062">
        <ele>72.7</ele>
        <time>2024-03-27T14:00:40Z</time>
      </trkpt>
      <trkpt lat="50.05444" lon="2.1062">
        <ele>72.7</ele>
        <time>2024-03-27T14:00:41Z</time>
      </trkpt>
      <trkpt lat="50.05445" lon="2.10619">
        <ele>72.8</ele>
        <time>2024-03-27T14:00:42Z</time>
      </trkpt>
      <trkpt lat="50.05446" lon="2.10619">
        <ele>72.8</ele>
        <time>2024-03-27T14:00:43Z</time>
      </trkpt>
      <trkpt lat="50.05447" lon="2.10618">
        <ele>72.8</ele>
        <time>2024-03-27T14:00:44Z</time>
      </trkpt>
      <trkpt lat="50.05448" lon="2.10618">
        <ele>72.8</ele>
        <time>2024-03-27T14:00:45Z</time>
      </trkpt>
      <trkpt lat="50.05449" lon="2.10618">
        <ele>72.9</ele>
        <time>2024-03-27T14:00:46Z</time>
      </trkpt>
      <trkpt lat="50.05449" lon="2.10617">
        <ele>72.9</ele>
        <time>2024-03-27T14:00:47Z</time>
      </trkpt>
      <trkpt lat="50.0545" lon="2.10617">
        <ele>72.9</ele>
        <time>2024-03-27T14:00:48Z</time>
      </trkpt>
      <trkpt lat="50.05451" lon="2.10616">
        <ele>72.9</ele>
        <time>2024-03-27T14:00:49Z</time>
      </trkpt>
      <trkpt lat="50.05452" lon="2.10616">
        <ele>72.9</ele>
        <time>2024-03-27T14:00:50Z</time>
      </trkpt>
      <trkpt lat="50.05453" lon="2.10615">
        <ele>73</ele>
        <time>2024-03-27T14:00:51Z</time>
      </trkpt>
      <trkpt lat="50.05454" lon="2.10614">
        <ele>73</ele>
        <time>2024-03-27T14:00:52Z</time>
      </trkpt>
      <trkpt lat="50.05455" lon="2.10614">
        <ele>73</ele>
        <time>2024-03-27T14:00:53Z</time>
      </trkpt>
      <trkpt lat="50.05456" lon="2.10613">
        <ele>73</ele>
        <time>2024-03-27T14:00:54Z</time>
      </trkpt>
      <trkpt lat="50.05456" lon="2.10612">
        <ele>73</ele>
        <time>2024-03-27T14:00:55Z</time>
      </trkpt>
      <trkpt lat="50.05457" lon="2.10612">
        <ele>73.1</ele>
        <time>2024-03-27T14:00:56Z</time>
      </trkpt>
      <trkpt lat="50.05458" lon="2.10611">
        <ele>73.1</ele>
        <time>2024-03-27T14:00:57Z</time>
      </trkpt>
      <trkpt lat="50.05458" lon="2.1061">
        <ele>73.1</ele>
        <time>2024-03-27T14:00:58Z</time>
      </trkpt>
      <trkpt lat="50.05459" lon="2.10609">
        <ele>73.1</ele>
        <time>2024-03-27T14:00:59Z</time>
      </trkpt>
      <trkpt lat="50.0546" lon="2.10607">
        <ele>73.2</ele>
        <time>2024-03-27T14:01:00Z</time>
      </trkpt>
      <trkpt lat="50.0546" lon="2.10606">
        <ele>73.2</ele>
        <time>2024-03-27T14:01:01Z</time>
      </trkpt>
      <trkpt lat="50.05461" lon="2.10606">
        <ele>73.2</ele>
        <time>2024-03-27T14:01:02Z</time>
      </trkpt>
      <trkpt lat="50.05462" lon="2.10605">
        <ele>73.2</ele>
        <time>2024-03-27T14:01:03Z</time>
      </trkpt>
      <trkpt lat="50.05463" lon="2.10605">
        <ele>73.3</ele>
        <time>2024-03-27T14:01:04Z</time>
      </trkpt>
      <trkpt lat="50.05464" lon="2.10604">
        <ele>73.3</ele>
        <time>2024-03-27T14:01:05Z</time>
      </trkpt>
      <trkpt lat="50.05465" lon="2.10603">
        <ele>73.3</ele>
        <time>2024-03-27T14:01:06Z</time>
      </trkpt>
      <trkpt lat="50.05466" lon="2.10602">
        <ele>73.4</ele>
        <time>2024-03-27T14:01:07Z</time>
      </trkpt>
      <trkpt lat="50.05468" lon="2.10601">
        <ele>73.4</ele>
        <time>2024-03-27T14:01:08Z</time>
      </trkpt>
      <trkpt lat="50.05469" lon="2.106">
        <ele>73.4</ele>
        <time>2024-03-27T14:01:09Z</time>
      </trkpt>
      <trkpt lat="50.0547" lon="2.106">
        <ele>73.5</ele>
        <time>2024-03-27T14:01:10Z</time>
      </trkpt>
      <trkpt lat="50.05471" lon="2.10599">
        <ele>73.5</ele>
        <time>2024-03-27T14:01:11Z</time>
      </trkpt>
      <trkpt lat="50.05472" lon="2.10598">
        <ele>73.5</ele>
        <time>2024-03-27T14:01:12Z</time>
      </trkpt>
      <trkpt lat="50.05473" lon="2.10597">
        <ele>73.5</ele>
        <time>2024-03-27T14:01:13Z</time>
      </trkpt>
      <trkpt lat="50.05474" lon="2.10597">
        <ele>73.6</ele>
        <time>2024-03-27T14:01:14Z</time>
      </trkpt>
      <trkpt lat="50.05475" lon="2.10596">
        <ele>73.6</ele>
        <time>2024-03-27T14:01:15Z</time>
      </trkpt>
      <trkpt lat="50.05476" lon="2.10595">
        <ele>73.6</ele>
        <time>2024-03-27T14:01:16Z</time>
      </trkpt>
      <trkpt lat="50.05477" lon="2.10595">
        <ele>73.7</ele>
        <time>2024-03-27T14:01:17Z</time>
      </trkpt>
      <trkpt lat="50.05478" lon="2.10594">
        <ele>73.7</ele>
        <time>2024-03-27T14:01:18Z</time>
      </trkpt>
      <trkpt lat="50.05479" lon="2.10593">
        <ele>73.7</ele>
        <time>2024-03-27T14:01:19Z</time>
      </trkpt>
      <trkpt lat="50.0548" lon="2.10592">
        <ele>73.8</ele>
        <time>2024-03-27T14:01:20Z</time>
      </trkpt>
      <trkpt lat="50.05481" lon="2.10592">
        <ele>73.8</ele>
        <time>2024-03-27T14:01:21Z</time>
      </trkpt>
      <trkpt lat="50.05482" lon="2.10591">
        <ele>73.9</ele>
        <time>2024-03-27T14:01:22Z</time>
      </trkpt>
      <trkpt lat="50.05483" lon="2.1059">
        <ele>73.9</ele>
        <time>2024-03-27T14:01:23Z</time>
      </trkpt>
      <trkpt lat="50.05484" lon="2.10589">
        <ele>73.9</ele>
        <time>2024-03-27T14:01:24Z</time>
      </trkpt>
      <trkpt lat="50.05485" lon="2.10589">
        <ele>74</ele>
        <time>2024-03-27T14:01:25Z</time>
      </trkpt>
      <trkpt lat="50.05486" lon="2.10588">
        <ele>74</ele>
        <time>2024-03-27T14:01:26Z</time>
      </trkpt>
      <trkpt lat="50.05487" lon="2.10587">
        <ele>74</ele>
        <time>2024-03-27T14:01:27Z</time>
      </trkpt>
      <trkpt lat="50.05488" lon="2.10587">
        <ele>74.1</ele>
        <time>2024-03-27T14:01:28Z</time>
      </trkpt>
      <trkpt lat="50.05489" lon="2.10586">
        <ele>74.1</ele>
        <time>2024-03-27T14:01:29Z</time>
      </trkpt>
      <trkpt lat="50.0549" lon="2.10585">
        <ele>74.1</ele>
        <time>2024-03-27T14:01:30Z</time>
      </trkpt>
      <trkpt lat="50.05492" lon="2.10585">
        <ele>74.2</ele>
        <time>2024-03-27T14:01:31Z</time>
      </trkpt>
      <trkpt lat="50.05493" lon="2.10584">
        <ele>74.2</ele>
        <time>2024-03-27T14:01:32Z</time>
      </trkpt>
      <trkpt lat="50.05494" lon="2.10583">
        <ele>74.2</ele>
        <time>2024-03-27T14:01:33Z</time>
      </trkpt>
      <trkpt lat="50.05495" lon="2.10583">
        <ele>74.3</ele>
        <time>2024-03-27T14:01:34Z</time>
      </trkpt>
      <trkpt lat="50.05496" lon="2.10582">
        <ele>74.3</ele>
        <time>2024-03-27T14:01:35Z</time>
      </trkpt>
      <trkpt lat="50.05497" lon="2.10581">
        <ele>74.3</ele>
        <time>2024-03-27T14:01:36Z</time>
      </trkpt>
      <trkpt lat="50.05498" lon="2.1058">
        <ele>74.3</ele>
        <time>2024-03-27T14:01:37Z</time>
      </trkpt>
      <trkpt lat="50.05499" lon="2.10579">
        <ele>74.4</ele>
        <time>2024-03-27T14:01:38Z</time>
      </trkpt>
      <trkpt lat="50.055" lon="2.10579">
        <ele>74.4</ele>
        <time>2024-03-27T14:01:39Z</time>
      </trkpt>
      <trkpt lat="50.05501" lon="2.10578">
        <ele>74.4</ele>
        <time>2024-03-27T14:01:40Z</time>
      </trkpt>
      <trkpt lat="50.05502" lon="2.10577">
        <ele>74.5</ele>
        <time>2024-03-27T14:01:41Z</time>
      </trkpt>
      <trkpt lat="50.05503" lon="2.10576">
        <ele>74.5</ele>
        <time>2024-03-27T14:01:42Z</time>
      </trkpt>
      <trkpt lat="50.05504" lon="2.10575">
        <ele>74.5</ele>
        <time>2024-03-27T14:01:43Z</time>
      </trkpt>
      <trkpt lat="50.05505" lon="2.10575">
        <ele>74.6</ele>
        <time>2024-03-27T14:01:44Z</time>
      </trkpt>
      <trkpt lat="50.05506" lon="2.10574">
        <ele>74.6</ele>
        <time>2024-03-27T14:01:45Z</time>
      </trkpt>
      <trkpt lat="50.05507" lon="2.10573">
        <ele>74.6</ele>
        <time>2024-03-27T14:01:46Z</time>
      </trkpt>
      <trkpt lat="50.05508" lon="2.10572">
        <ele>74.6</ele>
        <time>2024-03-27T14:01:47Z</time>
      </trkpt>
      <trkpt lat="50.05509" lon="2.10571">
        <ele>74.7</ele>
        <time>2024-03-27T14:01:48Z</time>
      </trkpt>
      <trkpt lat="50.0551" lon="2.10571">
        <ele>74.7</ele>
        <time>2024-03-27T14:01:49Z</time>
      </trkpt>
      <trkpt lat="50.0551" lon="2.1057">
        <ele>74.7</ele>
        <time>2024-03-27T14:01:50Z</time>
      </trkpt>
      <trkpt lat="50.05511" lon="2.10569">
        <ele>74.7</ele>
        <time>2024-03-27T14:01:51Z</time>
      </trkpt>
      <trkpt lat="50.05512" lon="2.10569">
        <ele>74.7</ele>
        <time>2024-03-27T14:01:52Z</time>
      </trkpt>
      <trkpt lat="50.05513" lon="2.10568">
        <ele>74.8</ele>
        <time>2024-03-27T14:01:53Z</time>
      </trkpt>
      <trkpt lat="50.05514" lon="2.10567">
        <ele>74.8</ele>
        <time>2024-03-27T14:01:54Z</time>
      </trkpt>
      <trkpt lat="50.05515" lon="2.10566">
        <ele>74.8</ele>
        <time>2024-03-27T14:01:55Z</time>
      </trkpt>
      <trkpt lat="50.05516" lon="2.10565">
        <ele>74.8</ele>
        <time>2024-03-27T14:01:56Z</time>
      </trkpt>
      <trkpt lat="50.05517" lon="2.10564">
        <ele>74.9</ele>
        <time>2024-03-27T14:01:57Z</time>
      </trkpt>
      <trkpt lat="50.05517" lon="2.10564">
        <ele>74.9</ele>
        <time>2024-03-27T14:01:58Z</time>
      </trkpt>
      <trkpt lat="50.05519" lon="2.10563">
        <ele>74.9</ele>
        <time>2024-03-27T14:01:59Z</time>
      </trkpt>
      <trkpt lat="50.05519" lon="2.10562">
        <ele>74.9</ele>
        <time>2024-03-27T14:02:00Z</time>
      </trkpt>
      <trkpt lat="50.0552" lon="2.10561">
        <ele>74.9</ele>
        <time>2024-03-27T14:02:01Z</time>
      </trkpt>
      <trkpt lat="50.05521" lon="2.10561">
        <ele>75</ele>
        <time>2024-03-27T14:02:02Z</time>
      </trkpt>
      <trkpt lat="50.05522" lon="2.1056">
        <ele>75</ele>
        <time>2024-03-27T14:02:03Z</time>
      </trkpt>
      <trkpt lat="50.05523" lon="2.10559">
        <ele>75</ele>
        <time>2024-03-27T14:02:04Z</time>
      </trkpt>
      <trkpt lat="50.05524" lon="2.10559">
        <ele>75</ele>
        <time>2024-03-27T14:02:05Z</time>
      </trkpt>
      <trkpt lat="50.05525" lon="2.10558">
        <ele>75.1</ele>
        <time>2024-03-27T14:02:06Z</time>
      </trkpt>
      <trkpt lat="50.05526" lon="2.10557">
        <ele>75.1</ele>
        <time>2024-03-27T14:02:07Z</time>
      </trkpt>
      <trkpt lat="50.05527" lon="2.10555">
        <ele>75.1</ele>
        <time>2024-03-27T14:02:08Z</time>
      </trkpt>
      <trkpt lat="50.05527" lon="2.10554">
        <ele>75.1</ele>
        <time>2024-03-27T14:02:09Z</time>
      </trkpt>
      <trkpt lat="50.05528" lon="2.10553">
        <ele>75.2</ele>
        <time>2024-03-27T14:02:10Z</time>
      </trkpt>
      <trkpt lat="50.05529" lon="2.10552">
        <ele>75.2</ele>
        <time>2024-03-27T14:02:11Z</time>
      </trkpt>
      <trkpt lat="50.0553" lon="2.10551">
        <ele>75.2</ele>
        <time>2024-03-27T14:02:12Z</time>
      </trkpt>
      <trkpt lat="50.05531" lon="2.10549">
        <ele>75.3</ele>
        <time>2024-03-27T14:02:13Z</time>
      </trkpt>
      <trkpt lat="50.05533" lon="2.10548">
        <ele>75.3</ele>
        <time>2024-03-27T14:02:14Z</time>
      </trkpt>
      <trkpt lat="50.05534" lon="2.10547">
        <ele>75.4</ele>
        <time>2024-03-27T14:02:15Z</time>
      </trkpt>
      <trkpt lat="50.05534" lon="2.10546">
        <ele>75.4</ele>
        <time>2024-03-27T14:02:16Z</time>
      </trkpt>
      <trkpt lat="50.05535" lon="2.10545">
        <ele>75.4</ele>
        <time>2024-03-27T14:02:17Z</time>
      </trkpt>
      <trkpt lat="50.05536" lon="2.10544">
        <ele>75.4</ele>
        <time>2024-03-27T14:02:18Z</time>
      </trkpt>
      <trkpt lat="50.05537" lon="2.10544">
        <ele>75.5</ele>
        <time>2024-03-27T14:02:19Z</time>
      </trkpt>
      <trkpt lat="50.05538" lon="2.10543">
        <ele>75.5</ele>
        <time>2024-03-27T14:02:20Z</time>
      </trkpt>
      <trkpt lat="50.05539" lon="2.10542">
        <ele>75.5</ele>
        <time>2024-03-27T14:02:21Z</time>
      </trkpt>
      <trkpt lat="50.0554" lon="2.10541">
        <ele>75.6</ele>
        <time>2024-03-27T14:02:22Z</time>
      </trkpt>
      <trkpt lat="50.05541" lon="2.1054">
        <ele>75.6</ele>
        <time>2024-03-27T14:02:23Z</time>
      </trkpt>
      <trkpt lat="50.05542" lon="2.10539">
        <ele>75.6</ele>
        <time>2024-03-27T14:02:24Z</time>
      </trkpt>
      <trkpt lat="50.05542" lon="2.10538">
        <ele>75.6</ele>
        <time>2024-03-27T14:02:25Z</time>
      </trkpt>
      <trkpt lat="50.05543" lon="2.10537">
        <ele>75.7</ele>
        <time>2024-03-27T14:02:26Z</time>
      </trkpt>
      <trkpt lat="50.05544" lon="2.10537">
        <ele>75.7</ele>
        <time>2024-03-27T14:02:27Z</time>
      </trkpt>
      <trkpt lat="50.05545" lon="2.10536">
        <ele>75.7</ele>
        <time>2024-03-27T14:02:28Z</time>
      </trkpt>
      <trkpt lat="50.05546" lon="2.10535">
        <ele>75.8</ele>
        <time>2024-03-27T14:02:29Z</time>
      </trkpt>
      <trkpt lat="50.05547" lon="2.10534">
        <ele>75.8</ele>
        <time>2024-03-27T14:02:30Z</time>
      </trkpt>
      <trkpt lat="50.05548" lon="2.10533">
        <ele>75.8</ele>
        <time>2024-03-27T14:02:31Z</time>
      </trkpt>
      <trkpt lat="50.05549" lon="2.10532">
        <ele>75.8</ele>
        <time>2024-03-27T14:02:32Z</time>
      </trkpt>
      <trkpt lat="50.0555" lon="2.10532">
        <ele>75.9</ele>
        <time>2024-03-27T14:02:33Z</time>
      </trkpt>
      <trkpt lat="50.05551" lon="2.10531">
        <ele>75.9</ele>
        <time>2024-03-27T14:02:34Z</time>
      </trkpt>
      <trkpt lat="50.05552" lon="2.1053">
        <ele>75.9</ele>
        <time>2024-03-27T14:02:35Z</time>
      </trkpt>
      <trkpt lat="50.05553" lon="2.10529">
        <ele>75.9</ele>
        <time>2024-03-27T14:02:36Z</time>
      </trkpt>
      <trkpt lat="50.05554" lon="2.10529">
        <ele>76</ele>
        <time>2024-03-27T14:02:37Z</time>
      </trkpt>
      <trkpt lat="50.05555" lon="2.10528">
        <ele>76</ele>
        <time>2024-03-27T14:02:38Z</time>
      </trkpt>
      <trkpt lat="50.05556" lon="2.10527">
        <ele>76</ele>
        <time>2024-03-27T14:02:39Z</time>
      </trkpt>
      <trkpt lat="50.05557" lon="2.10526">
        <ele>76.1</ele>
        <time>2024-03-27T14:02:40Z</time>
      </trkpt>
      <trkpt lat="50.05557" lon="2.10525">
        <ele>76.1</ele>
        <time>2024-03-27T14:02:41Z</time>
      </trkpt>
      <trkpt lat="50.05558" lon="2.10524">
        <ele>76.1</ele>
        <time>2024-03-27T14:02:42Z</time>
      </trkpt>
      <trkpt lat="50.05559" lon="2.10524">
        <ele>76.1</ele>
        <time>2024-03-27T14:02:43Z</time>
      </trkpt>
      <trkpt lat="50.0556" lon="2.10523">
        <ele>76.2</ele>
        <time>2024-03-27T14:02:44Z</time>
      </trkpt>
      <trkpt lat="50.05561" lon="2.10522">
        <ele>76.2</ele>
        <time>2024-03-27T14:02:45Z</time>
      </trkpt>
      <trkpt lat="50.05562" lon="2.10521">
        <ele>76.2</ele>
        <time>2024-03-27T14:02:46Z</time>
      </trkpt>
      <trkpt lat="50.05563" lon="2.10521">
        <ele>76.3</ele>
        <time>2024-03-27T14:02:47Z</time>
      </trkpt>
      <trkpt lat="50.05564" lon="2.1052">
        <ele>76.3</ele>
        <time>2024-03-27T14:02:48Z</time>
      </trkpt>
      <trkpt lat="50.05565" lon="2.10519">
        <ele>76.3</ele>
        <time>2024-03-27T14:02:49Z</time>
      </trkpt>
      <trkpt lat="50.05566" lon="2.10518">
        <ele>76.3</ele>
        <time>2024-03-27T14:02:50Z</time>
      </trkpt>
      <trkpt lat="50.05567" lon="2.10517">
        <ele>76.4</ele>
        <time>2024-03-27T14:02:51Z</time>
      </trkpt>
      <trkpt lat="50.05568" lon="2.10516">
        <ele>76.4</ele>
        <time>2024-03-27T14:02:52Z</time>
      </trkpt>
      <trkpt lat="50.05569" lon="2.10515">
        <ele>76.4</ele>
        <time>2024-03-27T14:02:53Z</time>
      </trkpt>
      <trkpt lat="50.05569" lon="2.10514">
        <ele>76.4</ele>
        <time>2024-03-27T14:02:54Z</time>
      </trkpt>
      <trkpt lat="50.0557" lon="2.10513">
        <ele>76.5</ele>
        <time>2024-03-27T14:02:55Z</time>
      </trkpt>
      <trkpt lat="50.05571" lon="2.10513">
        <ele>76.5</ele>
        <time>2024-03-27T14:02:56Z</time>
      </trkpt>
      <trkpt lat="50.05572" lon="2.10512">
        <ele>76.5</ele>
        <time>2024-03-27T14:02:57Z</time>
      </trkpt>
      <trkpt lat="50.05573" lon="2.10511">
        <ele>76.5</ele>
        <time>2024-03-27T14:02:58Z</time>
      </trkpt>
      <trkpt lat="50.05574" lon="2.1051">
        <ele>76.6</ele>
        <time>2024-03-27T14:02:59Z</time>
      </trkpt>
      <trkpt lat="50.05575" lon="2.10509">
        <ele>76.6</ele>
        <time>2024-03-27T14:03:00Z</time>
      </trkpt>
      <trkpt lat="50.05576" lon="2.10509">
        <ele>76.6</ele>
        <time>2024-03-27T14:03:01Z</time>
      </trkpt>
      <trkpt lat="50.05577" lon="2.10508">
        <ele>76.7</ele>
        <time>2024-03-27T14:03:02Z</time>
      </trkpt>
      <trkpt lat="50.05578" lon="2.10507">
        <ele>76.7</ele>
        <time>2024-03-27T14:03:03Z</time>
      </trkpt>
      <trkpt lat="50.05579" lon="2.10506">
        <ele>76.7</ele>
        <time>2024-03-27T14:03:04Z</time>
      </trkpt>
      <trkpt lat="50.0558" lon="2.10506">
        <ele>76.7</ele>
        <time>2024-03-27T14:03:05Z</time>
      </trkpt>
      <trkpt lat="50.05581" lon="2.10505">
        <ele>76.8</ele>
        <time>2024-03-27T14:03:06Z</time>
      </trkpt>
      <trkpt lat="50.05582" lon="2.10504">
        <ele>76.8</ele>
        <time>2024-03-27T14:03:07Z</time>
      </trkpt>
      <trkpt lat="50.05583" lon="2.10503">
        <ele>76.8</ele>
        <time>2024-03-27T14:03:08Z</time>
      </trkpt>
      <trkpt lat="50.05584" lon="2.10503">
        <ele>76.9</ele>
        <time>2024-03-27T14:03:09Z</time>
      </trkpt>
      <trkpt lat="50.05585" lon="2.10502">
        <ele>76.9</ele>
        <time>2024-03-27T14:03:10Z</time>
      </trkpt>
      <trkpt lat="50.05586" lon="2.10502">
        <ele>76.9</ele>
        <time>2024-03-27T14:03:11Z</time>
      </trkpt>
      <trkpt lat="50.05587" lon="2.10501">
        <ele>76.9</ele>
        <time>2024-03-27T14:03:12Z</time>
      </trkpt>
      <trkpt lat="50.05588" lon="2.105">
        <ele>77</ele>
        <time>2024-03-27T14:03:13Z</time>
      </trkpt>
      <trkpt lat="50.05588" lon="2.10499">
        <ele>77</ele>
        <time>2024-03-27T14:03:14Z</time>
      </trkpt>
      <trkpt lat="50.05589" lon="2.10499">
        <ele>77</ele>
        <time>2024-03-27T14:03:15Z</time>
      </trkpt>
      <trkpt lat="50.0559" lon="2.10498">
        <ele>77</ele>
        <time>2024-03-27T14:03:16Z</time>
      </trkpt>
      <trkpt lat="50.05591" lon="2.10497">
        <ele>77.1</ele>
        <time>2024-03-27T14:03:17Z</time>
      </trkpt>
      <trkpt lat="50.05592" lon="2.10496">
        <ele>77.1</ele>
        <time>2024-03-27T14:03:18Z</time>
      </trkpt>
      <trkpt lat="50.05593" lon="2.10495">
        <ele>77.1</ele>
        <time>2024-03-27T14:03:19Z</time>
      </trkpt>
      <trkpt lat="50.05594" lon="2.10495">
        <ele>77.1</ele>
        <time>2024-03-27T14:03:20Z</time>
      </trkpt>
      <trkpt lat="50.05595" lon="2.10494">
        <ele>77.2</ele>
        <time>2024-03-27T14:03:21Z</time>
      </trkpt>
      <trkpt lat="50.05596" lon="2.10493">
        <ele>77.2</ele>
        <time>2024-03-27T14:03:22Z</time>
      </trkpt>
      <trkpt lat="50.05597" lon="2.10492">
        <ele>77.2</ele>
        <time>2024-03-27T14:03:23Z</time>
      </trkpt>
      <trkpt lat="50.05598" lon="2.10491">
        <ele>77.3</ele>
        <time>2024-03-27T14:03:24Z</time>
      </trkpt>
      <trkpt lat="50.05598" lon="2.1049">
        <ele>77.3</ele>
        <time>2024-03-27T14:03:25Z</time>
      </trkpt>
      <trkpt lat="50.05599" lon="2.1049">
        <ele>77.3</ele>
        <time>2024-03-27T14:03:26Z</time>
      </trkpt>
      <trkpt lat="50.056" lon="2.10488">
        <ele>77.3</ele>
        <time>2024-03-27T14:03:27Z</time>
      </trkpt>
      <trkpt lat="50.05601" lon="2.10487">
        <ele>77.4</ele>
        <time>2024-03-27T14:03:28Z</time>
      </trkpt>
      <trkpt lat="50.05602" lon="2.10486">
        <ele>77.4</ele>
        <time>2024-03-27T14:03:29Z</time>
      </trkpt>
      <trkpt lat="50.05602" lon="2.10486">
        <ele>77.4</ele>
        <time>2024-03-27T14:03:30Z</time>
      </trkpt>
      <trkpt lat="50.05604" lon="2.10485">
        <ele>77.4</ele>
        <time>2024-03-27T14:03:31Z</time>
      </trkpt>
      <trkpt lat="50.05604" lon="2.10484">
        <ele>77.5</ele>
        <time>2024-03-27T14:03:32Z</time>
      </trkpt>
      <trkpt lat="50.05605" lon="2.10483">
        <ele>77.5</ele>
        <time>2024-03-27T14:03:33Z</time>
      </trkpt>
      <trkpt lat="50.05606" lon="2.10482">
        <ele>77.5</ele>
        <time>2024-03-27T14:03:34Z</time>
      </trkpt>
      <trkpt lat="50.05607" lon="2.10481">
        <ele>77.6</ele>
        <time>2024-03-27T14:03:35Z</time>
      </trkpt>
      <trkpt lat="50.05608" lon="2.10481">
        <ele>77.6</ele>
        <time>2024-03-27T14:03:36Z</time>
      </trkpt>
      <trkpt lat="50.05609" lon="2.1048">
        <ele>77.6</ele>
        <time>2024-03-27T14:03:37Z</time>
      </trkpt>
      <trkpt lat="50.0561" lon="2.10479">
        <ele>77.6</ele>
        <time>2024-03-27T14:03:38Z</time>
      </trkpt>
      <trkpt lat="50.05611" lon="2.10478">
        <ele>77.7</ele>
        <time>2024-03-27T14:03:39Z</time>
      </trkpt>
      <trkpt lat="50.05612" lon="2.10477">
        <ele>77.7</ele>
        <time>2024-03-27T14:03:40Z</time>
      </trkpt>
      <trkpt lat="50.05613" lon="2.10477">
        <ele>77.7</ele>
        <time>2024-03-27T14:03:41Z</time>
      </trkpt>
      <trkpt lat="50.05613" lon="2.10476">
        <ele>77.8</ele>
        <time>2024-03-27T14:03:42Z</time>
      </trkpt>
      <trkpt lat="50.05614" lon="2.10475">
        <ele>77.8</ele>
        <time>2024-03-27T14:03:43Z</time>
      </trkpt>
      <trkpt lat="50.05615" lon="2.10474">
        <ele>77.8</ele>
        <time>2024-03-27T14:03:44Z</time>
      </trkpt>
      <trkpt lat="50.05616" lon="2.10473">
        <ele>77.8</ele>
        <time>2024-03-27T14:03:45Z</time>
      </trkpt>
      <trkpt lat="50.05617" lon="2.10472">
        <ele>77.9</ele>
        <time>2024-03-27T14:03:46Z</time>
      </trkpt>
      <trkpt lat="50.05618" lon="2.10472">
        <ele>77.9</ele>
        <time>2024-03-27T14:03:47Z</time>
      </trkpt>
      <trkpt lat="50.05619" lon="2.10471">
        <ele>77.9</ele>
        <time>2024-03-27T14:03:48Z</time>
      </trkpt>
      <trkpt lat="50.0562" lon="2.1047">
        <ele>78</ele>
        <time>2024-03-27T14:03:49Z</time>
      </trkpt>
      <trkpt lat="50.05621" lon="2.10469">
        <ele>78</ele>
        <time>2024-03-27T14:03:50Z</time>
      </trkpt>
      <trkpt lat="50.05621" lon="2.10468">
        <ele>78</ele>
        <time>2024-03-27T14:03:51Z</time>
      </trkpt>
      <trkpt lat="50.05622" lon="2.10468">
        <ele>78</ele>
        <time>2024-03-27T14:03:52Z</time>
      </trkpt>
      <trkpt lat="50.05623" lon="2.10467">
        <ele>78.1</ele>
        <time>2024-03-27T14:03:53Z</time>
      </trkpt>
      <trkpt lat="50.05624" lon="2.10466">
        <ele>78.1</ele>
        <time>2024-03-27T14:03:54Z</time>
      </trkpt>
      <trkpt lat="50.05625" lon="2.10465">
        <ele>78.1</ele>
        <time>2024-03-27T14:03:55Z</time>
      </trkpt>
      <trkpt lat="50.05626" lon="2.10464">
        <ele>78.1</ele>
        <time>2024-03-27T14:03:56Z</time>
      </trkpt>
      <trkpt lat="50.05627" lon="2.10464">
        <ele>78.2</ele>
        <time>2024-03-27T14:03:57Z</time>
      </trkpt>
      <trkpt lat="50.05628" lon="2.10463">
        <ele>78.2</ele>
        <time>2024-03-27T14:03:58Z</time>
      </trkpt>
      <trkpt lat="50.05628" lon="2.10462">
        <ele>78.2</ele>
        <time>2024-03-27T14:03:59Z</time>
      </trkpt>
      <trkpt lat="50.05629" lon="2.10461">
        <ele>78.3</ele>
        <time>2024-03-27T14:04:00Z</time>
      </trkpt>
      <trkpt lat="50.0563" lon="2.1046">
        <ele>78.3</ele>
        <time>2024-03-27T14:04:01Z</time>
      </trkpt>
      <trkpt lat="50.05631" lon="2.10459">
        <ele>78.3</ele>
        <time>2024-03-27T14:04:02Z</time>
      </trkpt>
      <trkpt lat="50.05632" lon="2.10458">
        <ele>78.4</ele>
        <time>2024-03-27T14:04:03Z</time>
      </trkpt>
      <trkpt lat="50.05633" lon="2.10457">
        <ele>78.4</ele>
        <time>2024-03-27T14:04:04Z</time>
      </trkpt>
      <trkpt lat="50.05634" lon="2.10456">
        <ele>78.4</ele>
        <time>2024-03-27T14:04:05Z</time>
      </trkpt>
      <trkpt lat="50.05634" lon="2.10455">
        <ele>78.4</ele>
        <time>2024-03-27T14:04:06Z</time>
      </trkpt>
      <trkpt lat="50.05635" lon="2.10454">
        <ele>78.5</ele>
        <time>2024-03-27T14:04:07Z</time>
      </trkpt>
      <trkpt lat="50.05636" lon="2.10453">
        <ele>78.5</ele>
        <time>2024-03-27T14:04:08Z</time>
      </trkpt>
      <trkpt lat="50.05637" lon="2.10453">
        <ele>78.5</ele>
        <time>2024-03-27T14:04:09Z</time>
      </trkpt>
      <trkpt lat="50.05638" lon="2.10452">
        <ele>78.6</ele>
        <time>2024-03-27T14:04:10Z</time>
      </trkpt>
      <trkpt lat="50.0564" lon="2.1045">
        <ele>78.6</ele>
        <time>2024-03-27T14:04:11Z</time>
      </trkpt>
      <trkpt lat="50.05641" lon="2.10449">
        <ele>78.7</ele>
        <time>2024-03-27T14:04:12Z</time>
      </trkpt>
      <trkpt lat="50.05642" lon="2.10449">
        <ele>78.7</ele>
        <time>2024-03-27T14:04:13Z</time>
      </trkpt>
      <trkpt lat="50.05643" lon="2.10448">
        <ele>78.7</ele>
        <time>2024-03-27T14:04:14Z</time>
      </trkpt>
      <trkpt lat="50.05644" lon="2.10447">
        <ele>78.8</ele>
        <time>2024-03-27T14:04:15Z</time>
      </trkpt>
      <trkpt lat="50.05644" lon="2.10447">
        <ele>78.8</ele>
        <time>2024-03-27T14:04:16Z</time>
      </trkpt>
      <trkpt lat="50.05646" lon="2.10445">
        <ele>78.9</ele>
        <time>2024-03-27T14:04:17Z</time>
      </trkpt>
      <trkpt lat="50.05647" lon="2.10444">
        <ele>78.9</ele>
        <time>2024-03-27T14:04:18Z</time>
      </trkpt>
      <trkpt lat="50.05648" lon="2.10444">
        <ele>78.9</ele>
        <time>2024-03-27T14:04:19Z</time>
      </trkpt>
      <trkpt lat="50.05649" lon="2.10442">
        <ele>79</ele>
        <time>2024-03-27T14:04:20Z</time>
      </trkpt>
      <trkpt lat="50.0565" lon="2.10442">
        <ele>79</ele>
        <time>2024-03-27T14:04:21Z</time>
      </trkpt>
      <trkpt lat="50.05651" lon="2.10441">
        <ele>79</ele>
        <time>2024-03-27T14:04:22Z</time>
      </trkpt>
      <trkpt lat="50.05652" lon="2.10441">
        <ele>79.1</ele>
        <time>2024-03-27T14:04:23Z</time>
      </trkpt>
      <trkpt lat="50.05653" lon="2.1044">
        <ele>79.1</ele>
        <time>2024-03-27T14:04:24Z</time>
      </trkpt>
      <trkpt lat="50.05654" lon="2.10439">
        <ele>79.1</ele>
        <time>2024-03-27T14:04:25Z</time>
      </trkpt>
      <trkpt lat="50.05655" lon="2.10438">
        <ele>79.2</ele>
        <time>2024-03-27T14:04:26Z</time>
      </trkpt>
      <trkpt lat="50.05656" lon="2.10437">
        <ele>79.2</ele>
        <time>2024-03-27T14:04:27Z</time>
      </trkpt>
      <trkpt lat="50.05657" lon="2.10436">
        <ele>79.3</ele>
        <time>2024-03-27T14:04:28Z</time>
      </trkpt>
      <trkpt lat="50.05658" lon="2.10436">
        <ele>79.3</ele>
        <time>2024-03-27T14:04:29Z</time>
      </trkpt>
      <trkpt lat="50.05659" lon="2.10435">
        <ele>79.4</ele>
        <time>2024-03-27T14:04:30Z</time>
      </trkpt>
      <trkpt lat="50.0566" lon="2.10434">
        <ele>79.4</ele>
        <time>2024-03-27T14:04:31Z</time>
      </trkpt>
      <trkpt lat="50.05661" lon="2.10433">
        <ele>79.4</ele>
        <time>2024-03-27T14:04:32Z</time>
      </trkpt>
      <trkpt lat="50.05662" lon="2.10433">
        <ele>79.5</ele>
        <time>2024-03-27T14:04:33Z</time>
      </trkpt>
      <trkpt lat="50.05663" lon="2.10432">
        <ele>79.5</ele>
        <time>2024-03-27T14:04:34Z</time>
      </trkpt>
      <trkpt lat="50.05664" lon="2.10431">
        <ele>79.6</ele>
        <time>2024-03-27T14:04:35Z</time>
      </trkpt>
      <trkpt lat="50.05665" lon="2.1043">
        <ele>79.6</ele>
        <time>2024-03-27T14:04:36Z</time>
      </trkpt>
      <trkpt lat="50.05666" lon="2.10429">
        <ele>79.7</ele>
        <time>2024-03-27T14:04:37Z</time>
      </trkpt>
      <trkpt lat="50.05667" lon="2.10429">
        <ele>79.7</ele>
        <time>2024-03-27T14:04:38Z</time>
      </trkpt>
      <trkpt lat="50.05668" lon="2.10428">
        <ele>79.7</ele>
        <time>2024-03-27T14:04:39Z</time>
      </trkpt>
      <trkpt lat="50.05668" lon="2.10428">
        <ele>79.8</ele>
        <time>2024-03-27T14:04:40Z</time>
      </trkpt>
      <trkpt lat="50.0567" lon="2.10427">
        <ele>79.8</ele>
        <time>2024-03-27T14:04:41Z</time>
      </trkpt>
      <trkpt lat="50.05671" lon="2.10426">
        <ele>79.9</ele>
        <time>2024-03-27T14:04:42Z</time>
      </trkpt>
      <trkpt lat="50.05672" lon="2.10425">
        <ele>79.9</ele>
        <time>2024-03-27T14:04:43Z</time>
      </trkpt>
      <trkpt lat="50.05673" lon="2.10425">
        <ele>80</ele>
        <time>2024-03-27T14:04:44Z</time>
      </trkpt>
      <trkpt lat="50.05673" lon="2.10424">
        <ele>80</ele>
        <time>2024-03-27T14:04:45Z</time>
      </trkpt>
      <trkpt lat="50.05674" lon="2.10423">
        <ele>80.1</ele>
        <time>2024-03-27T14:04:46Z</time>
      </trkpt>
      <trkpt lat="50.05675" lon="2.10422">
        <ele>80.1</ele>
        <time>2024-03-27T14:04:47Z</time>
      </trkpt>
      <trkpt lat="50.05676" lon="2.10422">
        <ele>80.2</ele>
        <time>2024-03-27T14:04:48Z</time>
      </trkpt>
      <trkpt lat="50.05677" lon="2.10421">
        <ele>80.2</ele>
        <time>2024-03-27T14:04:49Z</time>
      </trkpt>
      <trkpt lat="50.05678" lon="2.1042">
        <ele>80.2</ele>
        <time>2024-03-27T14:04:50Z</time>
      </trkpt>
      <trkpt lat="50.05679" lon="2.10419">
        <ele>80.3</ele>
        <time>2024-03-27T14:04:51Z</time>
      </trkpt>
      <trkpt lat="50.05679" lon="2.10418">
        <ele>80.3</ele>
        <time>2024-03-27T14:04:52Z</time>
      </trkpt>
      <trkpt lat="50.0568" lon="2.10417">
        <ele>80.4</ele>
        <time>2024-03-27T14:04:53Z</time>
      </trkpt>
      <trkpt lat="50.05681" lon="2.10417">
        <ele>80.4</ele>
        <time>2024-03-27T14:04:54Z</time>
      </trkpt>
      <trkpt lat="50.05681" lon="2.10416">
        <ele>80.4</ele>
        <time>2024-03-27T14:04:55Z</time>
      </trkpt>
      <trkpt lat="50.05682" lon="2.10415">
        <ele>80.5</ele>
        <time>2024-03-27T14:04:56Z</time>
      </trkpt>
      <trkpt lat="50.05683" lon="2.10414">
        <ele>80.5</ele>
        <time>2024-03-27T14:04:57Z</time>
      </trkpt>
      <trkpt lat="50.05684" lon="2.10414">
        <ele>80.6</ele>
        <time>2024-03-27T14:04:58Z</time>
      </trkpt>
      <trkpt lat="50.05685" lon="2.10413">
        <ele>80.6</ele>
        <time>2024-03-27T14:04:59Z</time>
      </trkpt>
      <trkpt lat="50.05686" lon="2.10412">
        <ele>80.6</ele>
        <time>2024-03-27T14:05:00Z</time>
      </trkpt>
      <trkpt lat="50.05687" lon="2.10412">
        <ele>80.7</ele>
        <time>2024-03-27T14:05:01Z</time>
      </trkpt>
      <trkpt lat="50.05688" lon="2.10411">
        <ele>80.7</ele>
        <time>2024-03-27T14:05:02Z</time>
      </trkpt>
      <trkpt lat="50.05689" lon="2.1041">
        <ele>80.8</ele>
        <time>2024-03-27T14:05:03Z</time>
      </trkpt>
      <trkpt lat="50.0569" lon="2.10409">
        <ele>80.8</ele>
        <time>2024-03-27T14:05:04Z</time>
      </trkpt>
      <trkpt lat="50.05691" lon="2.10408">
        <ele>80.9</ele>
        <time>2024-03-27T14:05:05Z</time>
      </trkpt>
      <trkpt lat="50.05692" lon="2.10408">
        <ele>80.9</ele>
        <time>2024-03-27T14:05:06Z</time>
      </trkpt>
      <trkpt lat="50.05692" lon="2.10407">
        <ele>81</ele>
        <time>2024-03-27T14:05:07Z</time>
      </trkpt>
      <trkpt lat="50.05693" lon="2.10406">
        <ele>81</ele>
        <time>2024-03-27T14:05:08Z</time>
      </trkpt>
      <trkpt lat="50.05694" lon="2.10405">
        <ele>81</ele>
        <time>2024-03-27T14:05:09Z</time>
      </trkpt>
      <trkpt lat="50.05695" lon="2.10404">
        <ele>81.1</ele>
        <time>2024-03-27T14:05:10Z</time>
      </trkpt>
      <trkpt lat="50.05696" lon="2.10403">
        <ele>81.1</ele>
        <time>2024-03-27T14:05:11Z</time>
      </trkpt>
      <trkpt lat="50.05697" lon="2.10402">
        <ele>81.2</ele>
        <time>2024-03-27T14:05:12Z</time>
      </trkpt>
      <trkpt lat="50.05698" lon="2.10401">
        <ele>81.2</ele>
        <time>2024-03-27T14:05:13Z</time>
      </trkpt>
      <trkpt lat="50.05699" lon="2.104">
        <ele>81.3</ele>
        <time>2024-03-27T14:05:14Z</time>
      </trkpt>
      <trkpt lat="50.057" lon="2.10399">
        <ele>81.3</ele>
        <time>2024-03-27T14:05:15Z</time>
      </trkpt>
      <trkpt lat="50.05701" lon="2.10399">
        <ele>81.4</ele>
        <time>2024-03-27T14:05:16Z</time>
      </trkpt>
      <trkpt lat="50.05702" lon="2.10398">
        <ele>81.4</ele>
        <time>2024-03-27T14:05:17Z</time>
      </trkpt>
      <trkpt lat="50.05703" lon="2.10397">
        <ele>81.4</ele>
        <time>2024-03-27T14:05:18Z</time>
      </trkpt>
      <trkpt lat="50.05703" lon="2.10397">
        <ele>81.5</ele>
        <time>2024-03-27T14:05:19Z</time>
      </trkpt>
      <trkpt lat="50.05704" lon="2.10396">
        <ele>81.5</ele>
        <time>2024-03-27T14:05:20Z</time>
      </trkpt>
      <trkpt lat="50.05705" lon="2.10395">
        <ele>81.5</ele>
        <time>2024-03-27T14:05:21Z</time>
      </trkpt>
      <trkpt lat="50.05706" lon="2.10394">
        <ele>81.6</ele>
        <time>2024-03-27T14:05:22Z</time>
      </trkpt>
      <trkpt lat="50.05707" lon="2.10393">
        <ele>81.6</ele>
        <time>2024-03-27T14:05:23Z</time>
      </trkpt>
      <trkpt lat="50.05708" lon="2.10393">
        <ele>81.6</ele>
        <time>2024-03-27T14:05:24Z</time>
      </trkpt>
      <trkpt lat="50.05709" lon="2.10392">
        <ele>81.7</ele>
        <time>2024-03-27T14:05:25Z</time>
      </trkpt>
      <trkpt lat="50.05709" lon="2.10392">
        <ele>81.7</ele>
        <time>2024-03-27T14:05:26Z</time>
      </trkpt>
      <trkpt lat="50.0571" lon="2.10391">
        <ele>81.7</ele>
        <time>2024-03-27T14:05:27Z</time>
      </trkpt>
      <trkpt lat="50.05711" lon="2.1039">
        <ele>81.8</ele>
        <time>2024-03-27T14:05:28Z</time>
      </trkpt>
      <trkpt lat="50.05712" lon="2.10389">
        <ele>81.8</ele>
        <time>2024-03-27T14:05:29Z</time>
      </trkpt>
      <trkpt lat="50.05713" lon="2.10389">
        <ele>81.8</ele>
        <time>2024-03-27T14:05:30Z</time>
      </trkpt>
      <trkpt lat="50.05713" lon="2.10388">
        <ele>81.9</ele>
        <time>2024-03-27T14:05:31Z</time>
      </trkpt>
      <trkpt lat="50.05714" lon="2.10388">
        <ele>81.9</ele>
        <time>2024-03-27T14:05:32Z</time>
      </trkpt>
      <trkpt lat="50.05715" lon="2.10387">
        <ele>81.9</ele>
        <time>2024-03-27T14:05:33Z</time>
      </trkpt>
      <trkpt lat="50.05716" lon="2.10387">
        <ele>82</ele>
        <time>2024-03-27T14:05:34Z</time>
      </trkpt>
      <trkpt lat="50.05717" lon="2.10386">
        <ele>82</ele>
        <time>2024-03-27T14:05:35Z</time>
      </trkpt>
      <trkpt lat="50.05718" lon="2.10386">
        <ele>82</ele>
        <time>2024-03-27T14:05:36Z</time>
      </trkpt>
      <trkpt lat="50.0572" lon="2.10385">
        <ele>82.1</ele>
        <time>2024-03-27T14:05:37Z</time>
      </trkpt>
      <trkpt lat="50.05721" lon="2.10385">
        <ele>82.1</ele>
        <time>2024-03-27T14:05:38Z</time>
      </trkpt>
      <trkpt lat="50.05722" lon="2.10384">
        <ele>82.2</ele>
        <time>2024-03-27T14:05:39Z</time>
      </trkpt>
      <trkpt lat="50.05723" lon="2.10383">
        <ele>82.2</ele>
        <time>2024-03-27T14:05:40Z</time>
      </trkpt>
      <trkpt lat="50.05725" lon="2.10382">
        <ele>82.3</ele>
        <time>2024-03-27T14:05:41Z</time>
      </trkpt>
      <trkpt lat="50.05725" lon="2.10381">
        <ele>82.3</ele>
        <time>2024-03-27T14:05:42Z</time>
      </trkpt>
      <trkpt lat="50.05726" lon="2.1038">
        <ele>82.3</ele>
        <time>2024-03-27T14:05:43Z</time>
      </trkpt>
      <trkpt lat="50.05727" lon="2.10379">
        <ele>82.3</ele>
        <time>2024-03-27T14:05:44Z</time>
      </trkpt>
      <trkpt lat="50.05728" lon="2.10378">
        <ele>82.4</ele>
        <time>2024-03-27T14:05:45Z</time>
      </trkpt>
      <trkpt lat="50.05729" lon="2.10377">
        <ele>82.4</ele>
        <time>2024-03-27T14:05:46Z</time>
      </trkpt>
      <trkpt lat="50.0573" lon="2.10376">
        <ele>82.5</ele>
        <time>2024-03-27T14:05:47Z</time>
      </trkpt>
      <trkpt lat="50.05731" lon="2.10375">
        <ele>82.5</ele>
        <time>2024-03-27T14:05:48Z</time>
      </trkpt>
      <trkpt lat="50.05732" lon="2.10374">
        <ele>82.5</ele>
        <time>2024-03-27T14:05:49Z</time>
      </trkpt>
      <trkpt lat="50.05732" lon="2.10373">
        <ele>82.5</ele>
        <time>2024-03-27T14:05:50Z</time>
      </trkpt>
      <trkpt lat="50.05733" lon="2.10372">
        <ele>82.6</ele>
        <time>2024-03-27T14:05:51Z</time>
      </trkpt>
      <trkpt lat="50.05734" lon="2.10372">
        <ele>82.6</ele>
        <time>2024-03-27T14:05:52Z</time>
      </trkpt>
      <trkpt lat="50.05735" lon="2.10371">
        <ele>82.6</ele>
        <time>2024-03-27T14:05:53Z</time>
      </trkpt>
      <trkpt lat="50.05735" lon="2.1037">
        <ele>82.7</ele>
        <time>2024-03-27T14:05:54Z</time>
      </trkpt>
      <trkpt lat="50.05736" lon="2.1037">
        <ele>82.7</ele>
        <time>2024-03-27T14:05:55Z</time>
      </trkpt>
      <trkpt lat="50.05737" lon="2.10369">
        <ele>82.7</ele>
        <time>2024-03-27T14:05:56Z</time>
      </trkpt>
      <trkpt lat="50.05738" lon="2.10368">
        <ele>82.8</ele>
        <time>2024-03-27T14:05:57Z</time>
      </trkpt>
      <trkpt lat="50.05738" lon="2.10367">
        <ele>82.8</ele>
        <time>2024-03-27T14:05:58Z</time>
      </trkpt>
      <trkpt lat="50.05739" lon="2.10367">
        <ele>82.8</ele>
        <time>2024-03-27T14:05:59Z</time>
      </trkpt>
      <trkpt lat="50.05739" lon="2.10369">
        <ele>82.8</ele>
        <time>2024-03-27T14:06:00Z</time>
      </trkpt>
      <trkpt lat="50.05738" lon="2.1037">
        <ele>82.9</ele>
        <time>2024-03-27T14:06:01Z</time>
      </trkpt>
      <trkpt lat="50.05738" lon="2.1037">
        <ele>82.9</ele>
        <time>2024-03-27T14:06:02Z</time>
      </trkpt>
      <trkpt lat="50.05738" lon="2.1037">
        <ele>82.9</ele>
        <time>2024-03-27T14:06:03Z</time>
      </trkpt>
      <trkpt lat="50.05738" lon="2.1037">
        <ele>82.9</ele>
        <time>2024-03-27T14:06:04Z</time>
      </trkpt>
      <trkpt lat="50.05737" lon="2.10369">
        <ele>82.9</ele>
        <time>2024-03-27T14:06:05Z</time>
      </trkpt>
      <trkpt lat="50.05737" lon="2.10369">
        <ele>82.9</ele>
        <time>2024-03-27T14:06:06Z</time>
      </trkpt>
      <trkpt lat="50.05737" lon="2.1037">
        <ele>82.9</ele>
        <time>2024-03-27T14:06:07Z</time>
      </trkpt>
      <trkpt lat="50.05738" lon="2.1037">
        <ele>82.9</ele>
        <time>2024-03-27T14:06:08Z</time>
      </trkpt>
      <trkpt lat="50.05738" lon="2.1037">
        <ele>82.9</ele>
        <time>2024-03-27T14:06:09Z</time>
      </trkpt>
      <trkpt lat="50.05738" lon="2.1037">
        <ele>82.9</ele>
        <time>2024-03-27T14:06:10Z</time>
      </trkpt>
      <trkpt lat="50.05739" lon="2.10369">
        <ele>83</ele>
        <time>2024-03-27T14:06:11Z</time>
      </trkpt>
      <trkpt lat="50.0574" lon="2.10369">
        <ele>83</ele>
        <time>2024-03-27T14:06:12Z</time>
      </trkpt>
      <trkpt lat="50.0574" lon="2.10368">
        <ele>83</ele>
        <time>2024-03-27T14:06:13Z</time>
      </trkpt>
      <trkpt lat="50.05742" lon="2.10367">
        <ele>83.1</ele>
        <time>2024-03-27T14:06:14Z</time>
      </trkpt>
      <trkpt lat="50.05742" lon="2.10366">
        <ele>83.1</ele>
        <time>2024-03-27T14:06:15Z</time>
      </trkpt>
      <trkpt lat="50.05743" lon="2.10365">
        <ele>83.1</ele>
        <time>2024-03-27T14:06:16Z</time>
      </trkpt>
      <trkpt lat="50.05743" lon="2.10365">
        <ele>83.2</ele>
        <time>2024-03-27T14:06:17Z</time>
      </trkpt>
      <trkpt lat="50.05744" lon="2.10364">
        <ele>83.2</ele>
        <time>2024-03-27T14:06:18Z</time>
      </trkpt>
      <trkpt lat="50.05745" lon="2.10364">
        <ele>83.2</ele>
        <time>2024-03-27T14:06:19Z</time>
      </trkpt>
      <trkpt lat="50.05745" lon="2.10363">
        <ele>83.3</ele>
        <time>2024-03-27T14:06:20Z</time>
      </trkpt>
      <trkpt lat="50.05746" lon="2.10362">
        <ele>83.3</ele>
        <time>2024-03-27T14:06:21Z</time>
      </trkpt>
      <trkpt lat="50.05747" lon="2.10361">
        <ele>83.3</ele>
        <time>2024-03-27T14:06:22Z</time>
      </trkpt>
      <trkpt lat="50.05747" lon="2.1036">
        <ele>83.4</ele>
        <time>2024-03-27T14:06:23Z</time>
      </trkpt>
      <trkpt lat="50.05748" lon="2.1036">
        <ele>83.4</ele>
        <time>2024-03-27T14:06:24Z</time>
      </trkpt>
      <trkpt lat="50.05749" lon="2.10359">
        <ele>83.4</ele>
        <time>2024-03-27T14:06:25Z</time>
      </trkpt>
      <trkpt lat="50.0575" lon="2.10358">
        <ele>83.5</ele>
        <time>2024-03-27T14:06:26Z</time>
      </trkpt>
      <trkpt lat="50.05751" lon="2.10357">
        <ele>83.5</ele>
        <time>2024-03-27T14:06:27Z</time>
      </trkpt>
      <trkpt lat="50.05752" lon="2.10357">
        <ele>83.6</ele>
        <time>2024-03-27T14:06:28Z</time>
      </trkpt>
      <trkpt lat="50.05753" lon="2.10356">
        <ele>83.6</ele>
        <time>2024-03-27T14:06:29Z</time>
      </trkpt>
      <trkpt lat="50.05754" lon="2.10355">
        <ele>83.7</ele>
        <time>2024-03-27T14:06:30Z</time>
      </trkpt>
      <trkpt lat="50.05755" lon="2.10354">
        <ele>83.7</ele>
        <time>2024-03-27T14:06:31Z</time>
      </trkpt>
      <trkpt lat="50.05756" lon="2.10353">
        <ele>83.8</ele>
        <time>2024-03-27T14:06:32Z</time>
      </trkpt>
      <trkpt lat="50.05758" lon="2.10352">
        <ele>83.8</ele>
        <time>2024-03-27T14:06:33Z</time>
      </trkpt>
      <trkpt lat="50.05759" lon="2.10351">
        <ele>83.9</ele>
        <time>2024-03-27T14:06:34Z</time>
      </trkpt>
      <trkpt lat="50.0576" lon="2.1035">
        <ele>83.9</ele>
        <time>2024-03-27T14:06:35Z</time>
      </trkpt>
      <trkpt lat="50.05761" lon="2.10348">
        <ele>84</ele>
        <time>2024-03-27T14:06:36Z</time>
      </trkpt>
      <trkpt lat="50.05762" lon="2.10348">
        <ele>84</ele>
        <time>2024-03-27T14:06:37Z</time>
      </trkpt>
      <trkpt lat="50.05763" lon="2.10347">
        <ele>84.1</ele>
        <time>2024-03-27T14:06:38Z</time>
      </trkpt>
      <trkpt lat="50.05764" lon="2.10346">
        <ele>84.1</ele>
        <time>2024-03-27T14:06:39Z</time>
      </trkpt>
      <trkpt lat="50.05765" lon="2.10345">
        <ele>84.2</ele>
        <time>2024-03-27T14:06:40Z</time>
      </trkpt>
      <trkpt lat="50.05766" lon="2.10344">
        <ele>84.2</ele>
        <time>2024-03-27T14:06:41Z</time>
      </trkpt>
      <trkpt lat="50.05767" lon="2.10344">
        <ele>84.2</ele>
        <time>2024-03-27T14:06:42Z</time>
      </trkpt>
      <trkpt lat="50.05768" lon="2.10343">
        <ele>84.3</ele>
        <time>2024-03-27T14:06:43Z</time>
      </trkpt>
      <trkpt lat="50.05768" lon="2.10342">
        <ele>84.3</ele>
        <time>2024-03-27T14:06:44Z</time>
      </trkpt>
      <trkpt lat="50.05769" lon="2.10341">
        <ele>84.4</ele>
        <time>2024-03-27T14:06:45Z</time>
      </trkpt>
      <trkpt lat="50.0577" lon="2.1034">
        <ele>84.4</ele>
        <time>2024-03-27T14:06:46Z</time>
      </trkpt>
      <trkpt lat="50.05771" lon="2.10339">
        <ele>84.5</ele>
        <time>2024-03-27T14:06:47Z</time>
      </trkpt>
      <trkpt lat="50.05772" lon="2.10339">
        <ele>84.5</ele>
        <time>2024-03-27T14:06:48Z</time>
      </trkpt>
      <trkpt lat="50.05773" lon="2.10338">
        <ele>84.5</ele>
        <time>2024-03-27T14:06:49Z</time>
      </trkpt>
      <trkpt lat="50.05774" lon="2.10338">
        <ele>84.6</ele>
        <time>2024-03-27T14:06:50Z</time>
      </trkpt>
      <trkpt lat="50.05775" lon="2.10338">
        <ele>84.6</ele>
        <time>2024-03-27T14:06:51Z</time>
      </trkpt>
      <trkpt lat="50.05776" lon="2.10337">
        <ele>84.6</ele>
        <time>2024-03-27T14:06:52Z</time>
      </trkpt>
      <trkpt lat="50.05777" lon="2.10337">
        <ele>84.7</ele>
        <time>2024-03-27T14:06:53Z</time>
      </trkpt>
      <trkpt lat="50.05778" lon="2.10336">
        <ele>84.7</ele>
        <time>2024-03-27T14:06:54Z</time>
      </trkpt>
      <trkpt lat="50.05779" lon="2.10335">
        <ele>84.8</ele>
        <time>2024-03-27T14:06:55Z</time>
      </trkpt>
      <trkpt lat="50.05779" lon="2.10334">
        <ele>84.8</ele>
        <time>2024-03-27T14:06:56Z</time>
      </trkpt>
      <trkpt lat="50.0578" lon="2.10334">
        <ele>84.8</ele>
        <time>2024-03-27T14:06:57Z</time>
      </trkpt>
      <trkpt lat="50.05781" lon="2.10333">
        <ele>84.9</ele>
        <time>2024-03-27T14:06:58Z</time>
      </trkpt>
      <trkpt lat="50.05782" lon="2.10331">
        <ele>84.9</ele>
        <time>2024-03-27T14:06:59Z</time>
      </trkpt>
      <trkpt lat="50.05783" lon="2.1033">
        <ele>85</ele>
        <time>2024-03-27T14:07:00Z</time>
      </trkpt>
      <trkpt lat="50.05783" lon="2.10329">
        <ele>85</ele>
        <time>2024-03-27T14:07:01Z</time>
      </trkpt>
      <trkpt lat="50.05784" lon="2.10328">
        <ele>85.1</ele>
        <time>2024-03-27T14:07:02Z</time>
      </trkpt>
      <trkpt lat="50.05785" lon="2.10327">
        <ele>85.1</ele>
        <time>2024-03-27T14:07:03Z</time>
      </trkpt>
      <trkpt lat="50.05786" lon="2.10326">
        <ele>85.2</ele>
        <time>2024-03-27T14:07:04Z</time>
      </trkpt>
      <trkpt lat="50.05787" lon="2.10325">
        <ele>85.2</ele>
        <time>2024-03-27T14:07:05Z</time>
      </trkpt>
      <trkpt lat="50.05788" lon="2.10324">
        <ele>85.2</ele>
        <time>2024-03-27T14:07:06Z</time>
      </trkpt>
      <trkpt lat="50.05789" lon="2.10323">
        <ele>85.3</ele>
        <time>2024-03-27T14:07:07Z</time>
      </trkpt>
      <trkpt lat="50.0579" lon="2.10322">
        <ele>85.3</ele>
        <time>2024-03-27T14:07:08Z</time>
      </trkpt>
      <trkpt lat="50.05791" lon="2.10322">
        <ele>85.4</ele>
        <time>2024-03-27T14:07:09Z</time>
      </trkpt>
      <trkpt lat="50.05792" lon="2.10321">
        <ele>85.4</ele>
        <time>2024-03-27T14:07:10Z</time>
      </trkpt>
      <trkpt lat="50.05792" lon="2.1032">
        <ele>85.5</ele>
        <time>2024-03-27T14:07:11Z</time>
      </trkpt>
      <trkpt lat="50.05793" lon="2.10319">
        <ele>85.5</ele>
        <time>2024-03-27T14:07:12Z</time>
      </trkpt>
      <trkpt lat="50.05794" lon="2.10318">
        <ele>85.6</ele>
        <time>2024-03-27T14:07:13Z</time>
      </trkpt>
      <trkpt lat="50.05795" lon="2.10317">
        <ele>85.6</ele>
        <time>2024-03-27T14:07:14Z</time>
      </trkpt>
      <trkpt lat="50.05796" lon="2.10317">
        <ele>85.7</ele>
        <time>2024-03-27T14:07:15Z</time>
      </trkpt>
      <trkpt lat="50.05797" lon="2.10316">
        <ele>85.7</ele>
        <time>2024-03-27T14:07:16Z</time>
      </trkpt>
      <trkpt lat="50.05798" lon="2.10315">
        <ele>85.7</ele>
        <time>2024-03-27T14:07:17Z</time>
      </trkpt>
      <trkpt lat="50.05799" lon="2.10314">
        <ele>85.8</ele>
        <time>2024-03-27T14:07:18Z</time>
      </trkpt>
      <trkpt lat="50.058" lon="2.10313">
        <ele>85.8</ele>
        <time>2024-03-27T14:07:19Z</time>
      </trkpt>
      <trkpt lat="50.05801" lon="2.10313">
        <ele>85.9</ele>
        <time>2024-03-27T14:07:20Z</time>
      </trkpt>
      <trkpt lat="50.05802" lon="2.10312">
        <ele>85.9</ele>
        <time>2024-03-27T14:07:21Z</time>
      </trkpt>
      <trkpt lat="50.05803" lon="2.10311">
        <ele>86</ele>
        <time>2024-03-27T14:07:22Z</time>
      </trkpt>
      <trkpt lat="50.05804" lon="2.10311">
        <ele>86</ele>
        <time>2024-03-27T14:07:23Z</time>
      </trkpt>
      <trkpt lat="50.05805" lon="2.10311">
        <ele>86.1</ele>
        <time>2024-03-27T14:07:24Z</time>
      </trkpt>
      <trkpt lat="50.05806" lon="2.1031">
        <ele>86.1</ele>
        <time>2024-03-27T14:07:25Z</time>
      </trkpt>
      <trkpt lat="50.05807" lon="2.1031">
        <ele>86.2</ele>
        <time>2024-03-27T14:07:26Z</time>
      </trkpt>
      <trkpt lat="50.05808" lon="2.10309">
        <ele>86.2</ele>
        <time>2024-03-27T14:07:27Z</time>
      </trkpt>
      <trkpt lat="50.05809" lon="2.10308">
        <ele>86.3</ele>
        <time>2024-03-27T14:07:28Z</time>
      </trkpt>
      <trkpt lat="50.0581" lon="2.10308">
        <ele>86.3</ele>
        <time>2024-03-27T14:07:29Z</time>
      </trkpt>
      <trkpt lat="50.05811" lon="2.10307">
        <ele>86.4</ele>
        <time>2024-03-27T14:07:30Z</time>
      </trkpt>
      <trkpt lat="50.05811" lon="2.10306">
        <ele>86.4</ele>
        <time>2024-03-27T14:07:31Z</time>
      </trkpt>
      <trkpt lat="50.05812" lon="2.10306">
        <ele>86.4</ele>
        <time>2024-03-27T14:07:32Z</time>
      </trkpt>
      <trkpt lat="50.05813" lon="2.10305">
        <ele>86.5</ele>
        <time>2024-03-27T14:07:33Z</time>
      </trkpt>
      <trkpt lat="50.05814" lon="2.10304">
        <ele>86.5</ele>
        <time>2024-03-27T14:07:34Z</time>
      </trkpt>
      <trkpt lat="50.05815" lon="2.10303">
        <ele>86.6</ele>
        <time>2024-03-27T14:07:35Z</time>
      </trkpt>
      <trkpt lat="50.05816" lon="2.10302">
        <ele>86.6</ele>
        <time>2024-03-27T14:07:36Z</time>
      </trkpt>
      <trkpt lat="50.05817" lon="2.10302">
        <ele>86.7</ele>
        <time>2024-03-27T14:07:37Z</time>
      </trkpt>
      <trkpt lat="50.05818" lon="2.10301">
        <ele>86.7</ele>
        <time>2024-03-27T14:07:38Z</time>
      </trkpt>
      <trkpt lat="50.05819" lon="2.103">
        <ele>86.8</ele>
        <time>2024-03-27T14:07:39Z</time>
      </trkpt>
      <trkpt lat="50.05819" lon="2.10299">
        <ele>86.8</ele>
        <time>2024-03-27T14:07:40Z</time>
      </trkpt>
      <trkpt lat="50.0582" lon="2.10298">
        <ele>86.9</ele>
        <time>2024-03-27T14:07:41Z</time>
      </trkpt>
      <trkpt lat="50.05821" lon="2.10298">
        <ele>86.9</ele>
        <time>2024-03-27T14:07:42Z</time>
      </trkpt>
      <trkpt lat="50.05822" lon="2.10297">
        <ele>87</ele>
        <time>2024-03-27T14:07:43Z</time>
      </trkpt>
      <trkpt lat="50.05823" lon="2.10296">
        <ele>87</ele>
        <time>2024-03-27T14:07:44Z</time>
      </trkpt>
      <trkpt lat="50.05823" lon="2.10295">
        <ele>87</ele>
        <time>2024-03-27T14:07:45Z</time>
      </trkpt>
      <trkpt lat="50.05824" lon="2.10294">
        <ele>87.1</ele>
        <time>2024-03-27T14:07:46Z</time>
      </trkpt>
      <trkpt lat="50.05825" lon="2.10293">
        <ele>87.2</ele>
        <time>2024-03-27T14:07:47Z</time>
      </trkpt>
      <trkpt lat="50.05826" lon="2.10293">
        <ele>87.2</ele>
        <time>2024-03-27T14:07:48Z</time>
      </trkpt>
      <trkpt lat="50.05827" lon="2.10292">
        <ele>87.3</ele>
        <time>2024-03-27T14:07:49Z</time>
      </trkpt>
      <trkpt lat="50.05828" lon="2.10291">
        <ele>87.3</ele>
        <time>2024-03-27T14:07:50Z</time>
      </trkpt>
      <trkpt lat="50.05829" lon="2.10291">
        <ele>87.3</ele>
        <time>2024-03-27T14:07:51Z</time>
      </trkpt>
      <trkpt lat="50.0583" lon="2.1029">
        <ele>87.4</ele>
        <time>2024-03-27T14:07:52Z</time>
      </trkpt>
      <trkpt lat="50.05831" lon="2.10289">
        <ele>87.4</ele>
        <time>2024-03-27T14:07:53Z</time>
      </trkpt>
      <trkpt lat="50.05832" lon="2.10288">
        <ele>87.5</ele>
        <time>2024-03-27T14:07:54Z</time>
      </trkpt>
      <trkpt lat="50.05833" lon="2.10287">
        <ele>87.6</ele>
        <time>2024-03-27T14:07:55Z</time>
      </trkpt>
      <trkpt lat="50.05833" lon="2.10287">
        <ele>87.6</ele>
        <time>2024-03-27T14:07:56Z</time>
      </trkpt>
      <trkpt lat="50.05834" lon="2.10286">
        <ele>87.7</ele>
        <time>2024-03-27T14:07:57Z</time>
      </trkpt>
      <trkpt lat="50.05835" lon="2.10285">
        <ele>87.7</ele>
        <time>2024-03-27T14:07:58Z</time>
      </trkpt>
      <trkpt lat="50.05836" lon="2.10284">
        <ele>87.8</ele>
        <time>2024-03-27T14:07:59Z</time>
      </trkpt>
      <trkpt lat="50.05837" lon="2.10283">
        <ele>87.8</ele>
        <time>2024-03-27T14:08:00Z</time>
      </trkpt>
      <trkpt lat="50.05838" lon="2.10282">
        <ele>87.9</ele>
        <time>2024-03-27T14:08:01Z</time>
      </trkpt>
      <trkpt lat="50.05839" lon="2.10281">
        <ele>87.9</ele>
        <time>2024-03-27T14:08:02Z</time>
      </trkpt>
      <trkpt lat="50.0584" lon="2.10281">
        <ele>88</ele>
        <time>2024-03-27T14:08:03Z</time>
      </trkpt>
      <trkpt lat="50.05841" lon="2.1028">
        <ele>88.1</ele>
        <time>2024-03-27T14:08:04Z</time>
      </trkpt>
      <trkpt lat="50.05842" lon="2.10279">
        <ele>88.1</ele>
        <time>2024-03-27T14:08:05Z</time>
      </trkpt>
      <trkpt lat="50.05843" lon="2.10279">
        <ele>88.2</ele>
        <time>2024-03-27T14:08:06Z</time>
      </trkpt>
      <trkpt lat="50.05844" lon="2.10278">
        <ele>88.2</ele>
        <time>2024-03-27T14:08:07Z</time>
      </trkpt>
      <trkpt lat="50.05844" lon="2.10277">
        <ele>88.3</ele>
        <time>2024-03-27T14:08:08Z</time>
      </trkpt>
      <trkpt lat="50.05845" lon="2.10276">
        <ele>88.3</ele>
        <time>2024-03-27T14:08:09Z</time>
      </trkpt>
      <trkpt lat="50.05846" lon="2.10276">
        <ele>88.4</ele>
        <time>2024-03-27T14:08:10Z</time>
      </trkpt>
      <trkpt lat="50.05847" lon="2.10275">
        <ele>88.4</ele>
        <time>2024-03-27T14:08:11Z</time>
      </trkpt>
      <trkpt lat="50.05848" lon="2.10274">
        <ele>88.5</ele>
        <time>2024-03-27T14:08:12Z</time>
      </trkpt>
      <trkpt lat="50.05849" lon="2.10274">
        <ele>88.6</ele>
        <time>2024-03-27T14:08:13Z</time>
      </trkpt>
      <trkpt lat="50.0585" lon="2.10273">
        <ele>88.6</ele>
        <time>2024-03-27T14:08:14Z</time>
      </trkpt>
      <trkpt lat="50.05851" lon="2.10272">
        <ele>88.7</ele>
        <time>2024-03-27T14:08:15Z</time>
      </trkpt>
      <trkpt lat="50.05852" lon="2.10272">
        <ele>88.7</ele>
        <time>2024-03-27T14:08:16Z</time>
      </trkpt>
      <trkpt lat="50.05853" lon="2.10271">
        <ele>88.8</ele>
        <time>2024-03-27T14:08:17Z</time>
      </trkpt>
      <trkpt lat="50.05854" lon="2.10271">
        <ele>88.8</ele>
        <time>2024-03-27T14:08:18Z</time>
      </trkpt>
      <trkpt lat="50.05855" lon="2.1027">
        <ele>88.9</ele>
        <time>2024-03-27T14:08:19Z</time>
      </trkpt>
      <trkpt lat="50.05856" lon="2.10269">
        <ele>89</ele>
        <time>2024-03-27T14:08:20Z</time>
      </trkpt>
      <trkpt lat="50.05857" lon="2.10268">
        <ele>89</ele>
        <time>2024-03-27T14:08:21Z</time>
      </trkpt>
      <trkpt lat="50.05858" lon="2.10267">
        <ele>89.1</ele>
        <time>2024-03-27T14:08:22Z</time>
      </trkpt>
      <trkpt lat="50.05859" lon="2.10267">
        <ele>89.1</ele>
        <time>2024-03-27T14:08:23Z</time>
      </trkpt>
      <trkpt lat="50.05859" lon="2.10266">
        <ele>89.2</ele>
        <time>2024-03-27T14:08:24Z</time>
      </trkpt>
      <trkpt lat="50.0586" lon="2.10266">
        <ele>89.2</ele>
        <time>2024-03-27T14:08:25Z</time>
      </trkpt>
      <trkpt lat="50.05861" lon="2.10265">
        <ele>89.3</ele>
        <time>2024-03-27T14:08:26Z</time>
      </trkpt>
      <trkpt lat="50.05862" lon="2.10265">
        <ele>89.4</ele>
        <time>2024-03-27T14:08:27Z</time>
      </trkpt>
      <trkpt lat="50.05863" lon="2.10265">
        <ele>89.4</ele>
        <time>2024-03-27T14:08:28Z</time>
      </trkpt>
      <trkpt lat="50.05864" lon="2.10264">
        <ele>89.5</ele>
        <time>2024-03-27T14:08:29Z</time>
      </trkpt>
      <trkpt lat="50.05865" lon="2.10263">
        <ele>89.5</ele>
        <time>2024-03-27T14:08:30Z</time>
      </trkpt>
      <trkpt lat="50.05866" lon="2.10263">
        <ele>89.6</ele>
        <time>2024-03-27T14:08:31Z</time>
      </trkpt>
      <trkpt lat="50.05867" lon="2.10262">
        <ele>89.7</ele>
        <time>2024-03-27T14:08:32Z</time>
      </trkpt>
      <trkpt lat="50.05868" lon="2.10261">
        <ele>89.7</ele>
        <time>2024-03-27T14:08:33Z</time>
      </trkpt>
      <trkpt lat="50.05869" lon="2.10261">
        <ele>89.8</ele>
        <time>2024-03-27T14:08:34Z</time>
      </trkpt>
      <trkpt lat="50.0587" lon="2.1026">
        <ele>89.8</ele>
        <time>2024-03-27T14:08:35Z</time>
      </trkpt>
      <trkpt lat="50.05871" lon="2.10259">
        <ele>89.9</ele>
        <time>2024-03-27T14:08:36Z</time>
      </trkpt>
      <trkpt lat="50.05872" lon="2.10258">
        <ele>90</ele>
        <time>2024-03-27T14:08:37Z</time>
      </trkpt>
      <trkpt lat="50.05873" lon="2.10257">
        <ele>90</ele>
        <time>2024-03-27T14:08:38Z</time>
      </trkpt>
      <trkpt lat="50.05873" lon="2.10256">
        <ele>90.1</ele>
        <time>2024-03-27T14:08:39Z</time>
      </trkpt>
      <trkpt lat="50.05874" lon="2.10256">
        <ele>90.1</ele>
        <time>2024-03-27T14:08:40Z</time>
      </trkpt>
      <trkpt lat="50.05875" lon="2.10255">
        <ele>90.2</ele>
        <time>2024-03-27T14:08:41Z</time>
      </trkpt>
      <trkpt lat="50.05876" lon="2.10254">
        <ele>90.2</ele>
        <time>2024-03-27T14:08:42Z</time>
      </trkpt>
      <trkpt lat="50.05877" lon="2.10253">
        <ele>90.3</ele>
        <time>2024-03-27T14:08:43Z</time>
      </trkpt>
      <trkpt lat="50.05878" lon="2.10253">
        <ele>90.4</ele>
        <time>2024-03-27T14:08:44Z</time>
      </trkpt>
      <trkpt lat="50.05879" lon="2.10252">
        <ele>90.4</ele>
        <time>2024-03-27T14:08:45Z</time>
      </trkpt>
      <trkpt lat="50.05879" lon="2.10251">
        <ele>90.5</ele>
        <time>2024-03-27T14:08:46Z</time>
      </trkpt>
      <trkpt lat="50.0588" lon="2.10251">
        <ele>90.5</ele>
        <time>2024-03-27T14:08:47Z</time>
      </trkpt>
      <trkpt lat="50.05881" lon="2.1025">
        <ele>90.6</ele>
        <time>2024-03-27T14:08:48Z</time>
      </trkpt>
      <trkpt lat="50.05882" lon="2.1025">
        <ele>90.6</ele>
        <time>2024-03-27T14:08:49Z</time>
      </trkpt>
      <trkpt lat="50.05883" lon="2.10249">
        <ele>90.7</ele>
        <time>2024-03-27T14:08:50Z</time>
      </trkpt>
      <trkpt lat="50.05884" lon="2.10248">
        <ele>90.7</ele>
        <time>2024-03-27T14:08:51Z</time>
      </trkpt>
      <trkpt lat="50.05884" lon="2.10248">
        <ele>90.8</ele>
        <time>2024-03-27T14:08:52Z</time>
      </trkpt>
      <trkpt lat="50.05885" lon="2.10247">
        <ele>90.8</ele>
        <time>2024-03-27T14:08:53Z</time>
      </trkpt>
      <trkpt lat="50.05886" lon="2.10247">
        <ele>90.8</ele>
        <time>2024-03-27T14:08:54Z</time>
      </trkpt>
      <trkpt lat="50.05887" lon="2.10246">
        <ele>90.9</ele>
        <time>2024-03-27T14:08:55Z</time>
      </trkpt>
      <trkpt lat="50.05887" lon="2.10246">
        <ele>90.9</ele>
        <time>2024-03-27T14:08:56Z</time>
      </trkpt>
      <trkpt lat="50.05888" lon="2.10245">
        <ele>91</ele>
        <time>2024-03-27T14:08:57Z</time>
      </trkpt>
      <trkpt lat="50.0589" lon="2.10243">
        <ele>91.1</ele>
        <time>2024-03-27T14:08:58Z</time>
      </trkpt>
      <trkpt lat="50.0589" lon="2.10243">
        <ele>91.1</ele>
        <time>2024-03-27T14:08:59Z</time>
      </trkpt>
      <trkpt lat="50.05891" lon="2.10242">
        <ele>91.2</ele>
        <time>2024-03-27T14:09:00Z</time>
      </trkpt>
      <trkpt lat="50.05891" lon="2.10241">
        <ele>91.2</ele>
        <time>2024-03-27T14:09:01Z</time>
      </trkpt>
      <trkpt lat="50.05892" lon="2.1024">
        <ele>91.3</ele>
        <time>2024-03-27T14:09:02Z</time>
      </trkpt>
      <trkpt lat="50.05893" lon="2.10239">
        <ele>91.3</ele>
        <time>2024-03-27T14:09:03Z</time>
      </trkpt>
      <trkpt lat="50.05894" lon="2.10238">
        <ele>91.4</ele>
        <time>2024-03-27T14:09:04Z</time>
      </trkpt>
      <trkpt lat="50.05895" lon="2.10238">
        <ele>91.4</ele>
        <time>2024-03-27T14:09:05Z</time>
      </trkpt>
      <trkpt lat="50.05896" lon="2.10237">
        <ele>91.5</ele>
        <time>2024-03-27T14:09:06Z</time>
      </trkpt>
      <trkpt lat="50.05897" lon="2.10236">
        <ele>91.5</ele>
        <time>2024-03-27T14:09:07Z</time>
      </trkpt>
      <trkpt lat="50.05898" lon="2.10235">
        <ele>91.6</ele>
        <time>2024-03-27T14:09:08Z</time>
      </trkpt>
      <trkpt lat="50.05899" lon="2.10234">
        <ele>91.6</ele>
        <time>2024-03-27T14:09:09Z</time>
      </trkpt>
      <trkpt lat="50.05899" lon="2.10233">
        <ele>91.7</ele>
        <time>2024-03-27T14:09:10Z</time>
      </trkpt>
      <trkpt lat="50.059" lon="2.10232">
        <ele>91.7</ele>
        <time>2024-03-27T14:09:11Z</time>
      </trkpt>
      <trkpt lat="50.05901" lon="2.10231">
        <ele>91.8</ele>
        <time>2024-03-27T14:09:12Z</time>
      </trkpt>
      <trkpt lat="50.05902" lon="2.1023">
        <ele>91.8</ele>
        <time>2024-03-27T14:09:13Z</time>
      </trkpt>
      <trkpt lat="50.05903" lon="2.10229">
        <ele>91.9</ele>
        <time>2024-03-27T14:09:14Z</time>
      </trkpt>
      <trkpt lat="50.05903" lon="2.10228">
        <ele>91.9</ele>
        <time>2024-03-27T14:09:15Z</time>
      </trkpt>
      <trkpt lat="50.05904" lon="2.10227">
        <ele>92</ele>
        <time>2024-03-27T14:09:16Z</time>
      </trkpt>
      <trkpt lat="50.05905" lon="2.10227">
        <ele>92</ele>
        <time>2024-03-27T14:09:17Z</time>
      </trkpt>
      <trkpt lat="50.05906" lon="2.10226">
        <ele>92.1</ele>
        <time>2024-03-27T14:09:18Z</time>
      </trkpt>
      <trkpt lat="50.05907" lon="2.10225">
        <ele>92.1</ele>
        <time>2024-03-27T14:09:19Z</time>
      </trkpt>
      <trkpt lat="50.05908" lon="2.10224">
        <ele>92.2</ele>
        <time>2024-03-27T14:09:20Z</time>
      </trkpt>
      <trkpt lat="50.05909" lon="2.10223">
        <ele>92.2</ele>
        <time>2024-03-27T14:09:21Z</time>
      </trkpt>
      <trkpt lat="50.05909" lon="2.10223">
        <ele>92.2</ele>
        <time>2024-03-27T14:09:22Z</time>
      </trkpt>
      <trkpt lat="50.0591" lon="2.10222">
        <ele>92.3</ele>
        <time>2024-03-27T14:09:23Z</time>
      </trkpt>
      <trkpt lat="50.05911" lon="2.10221">
        <ele>92.3</ele>
        <time>2024-03-27T14:09:24Z</time>
      </trkpt>
      <trkpt lat="50.05911" lon="2.10221">
        <ele>92.4</ele>
        <time>2024-03-27T14:09:25Z</time>
      </trkpt>
      <trkpt lat="50.05912" lon="2.1022">
        <ele>92.4</ele>
        <time>2024-03-27T14:09:26Z</time>
      </trkpt>
      <trkpt lat="50.05913" lon="2.10219">
        <ele>92.4</ele>
        <time>2024-03-27T14:09:27Z</time>
      </trkpt>
      <trkpt lat="50.05914" lon="2.10218">
        <ele>92.5</ele>
        <time>2024-03-27T14:09:28Z</time>
      </trkpt>
      <trkpt lat="50.05914" lon="2.10217">
        <ele>92.5</ele>
        <time>2024-03-27T14:09:29Z</time>
      </trkpt>
      <trkpt lat="50.05915" lon="2.10216">
        <ele>92.6</ele>
        <time>2024-03-27T14:09:30Z</time>
      </trkpt>
      <trkpt lat="50.05916" lon="2.10216">
        <ele>92.6</ele>
        <time>2024-03-27T14:09:31Z</time>
      </trkpt>
      <trkpt lat="50.05917" lon="2.10215">
        <ele>92.7</ele>
        <time>2024-03-27T14:09:32Z</time>
      </trkpt>
      <trkpt lat="50.05918" lon="2.10214">
        <ele>92.7</ele>
        <time>2024-03-27T14:09:33Z</time>
      </trkpt>
      <trkpt lat="50.05919" lon="2.10213">
        <ele>92.8</ele>
        <time>2024-03-27T14:09:34Z</time>
      </trkpt>
      <trkpt lat="50.05919" lon="2.10213">
        <ele>92.8</ele>
        <time>2024-03-27T14:09:35Z</time>
      </trkpt>
      <trkpt lat="50.0592" lon="2.10212">
        <ele>92.8</ele>
        <time>2024-03-27T14:09:36Z</time>
      </trkpt>
      <trkpt lat="50.05921" lon="2.10211">
        <ele>92.9</ele>
        <time>2024-03-27T14:09:37Z</time>
      </trkpt>
      <trkpt lat="50.05921" lon="2.1021">
        <ele>92.9</ele>
        <time>2024-03-27T14:09:38Z</time>
      </trkpt>
      <trkpt lat="50.05922" lon="2.1021">
        <ele>93</ele>
        <time>2024-03-27T14:09:39Z</time>
      </trkpt>
      <trkpt lat="50.05923" lon="2.10209">
        <ele>93</ele>
        <time>2024-03-27T14:09:40Z</time>
      </trkpt>
      <trkpt lat="50.05924" lon="2.10208">
        <ele>93.1</ele>
        <time>2024-03-27T14:09:41Z</time>
      </trkpt>
      <trkpt lat="50.05925" lon="2.10207">
        <ele>93.1</ele>
        <time>2024-03-27T14:09:42Z</time>
      </trkpt>
      <trkpt lat="50.05926" lon="2.10206">
        <ele>93.2</ele>
        <time>2024-03-27T14:09:43Z</time>
      </trkpt>
      <trkpt lat="50.05926" lon="2.10204">
        <ele>93.2</ele>
        <time>2024-03-27T14:09:44Z</time>
      </trkpt>
      <trkpt lat="50.05927" lon="2.10204">
        <ele>93.3</ele>
        <time>2024-03-27T14:09:45Z</time>
      </trkpt>
      <trkpt lat="50.05928" lon="2.10203">
        <ele>93.3</ele>
        <time>2024-03-27T14:09:46Z</time>
      </trkpt>
      <trkpt lat="50.05929" lon="2.10202">
        <ele>93.3</ele>
        <time>2024-03-27T14:09:47Z</time>
      </trkpt>
      <trkpt lat="50.0593" lon="2.10201">
        <ele>93.4</ele>
        <time>2024-03-27T14:09:48Z</time>
      </trkpt>
      <trkpt lat="50.0593" lon="2.102">
        <ele>93.4</ele>
        <time>2024-03-27T14:09:49Z</time>
      </trkpt>
      <trkpt lat="50.05931" lon="2.102">
        <ele>93.5</ele>
        <time>2024-03-27T14:09:50Z</time>
      </trkpt>
      <trkpt lat="50.05932" lon="2.10199">
        <ele>93.5</ele>
        <time>2024-03-27T14:09:51Z</time>
      </trkpt>
      <trkpt lat="50.05933" lon="2.10198">
        <ele>93.6</ele>
        <time>2024-03-27T14:09:52Z</time>
      </trkpt>
      <trkpt lat="50.05934" lon="2.10198">
        <ele>93.6</ele>
        <time>2024-03-27T14:09:53Z</time>
      </trkpt>
      <trkpt lat="50.05935" lon="2.10197">
        <ele>93.7</ele>
        <time>2024-03-27T14:09:54Z</time>
      </trkpt>
      <trkpt lat="50.05936" lon="2.10196">
        <ele>93.7</ele>
        <time>2024-03-27T14:09:55Z</time>
      </trkpt>
      <trkpt lat="50.05936" lon="2.10196">
        <ele>93.8</ele>
        <time>2024-03-27T14:09:56Z</time>
      </trkpt>
      <trkpt lat="50.05937" lon="2.10195">
        <ele>93.8</ele>
        <time>2024-03-27T14:09:57Z</time>
      </trkpt>
      <trkpt lat="50.05938" lon="2.10195">
        <ele>93.9</ele>
        <time>2024-03-27T14:09:58Z</time>
      </trkpt>
      <trkpt lat="50.05939" lon="2.10194">
        <ele>93.9</ele>
        <time>2024-03-27T14:09:59Z</time>
      </trkpt>
      <trkpt lat="50.0594" lon="2.10193">
        <ele>93.9</ele>
        <time>2024-03-27T14:10:00Z</time>
      </trkpt>
      <trkpt lat="50.0594" lon="2.10193">
        <ele>94</ele>
        <time>2024-03-27T14:10:01Z</time>
      </trkpt>
      <trkpt lat="50.05941" lon="2.10192">
        <ele>94</ele>
        <time>2024-03-27T14:10:02Z</time>
      </trkpt>
      <trkpt lat="50.05942" lon="2.10192">
        <ele>94.1</ele>
        <time>2024-03-27T14:10:03Z</time>
      </trkpt>
      <trkpt lat="50.05943" lon="2.10191">
        <ele>94.1</ele>
        <time>2024-03-27T14:10:04Z</time>
      </trkpt>
      <trkpt lat="50.05944" lon="2.1019">
        <ele>94.2</ele>
        <time>2024-03-27T14:10:05Z</time>
      </trkpt>
      <trkpt lat="50.05945" lon="2.1019">
        <ele>94.2</ele>
        <time>2024-03-27T14:10:06Z</time>
      </trkpt>
      <trkpt lat="50.05946" lon="2.10189">
        <ele>94.3</ele>
        <time>2024-03-27T14:10:07Z</time>
      </trkpt>
      <trkpt lat="50.05946" lon="2.10188">
        <ele>94.3</ele>
        <time>2024-03-27T14:10:08Z</time>
      </trkpt>
      <trkpt lat="50.05947" lon="2.10187">
        <ele>94.4</ele>
        <time>2024-03-27T14:10:09Z</time>
      </trkpt>
      <trkpt lat="50.05948" lon="2.10187">
        <ele>94.5</ele>
        <time>2024-03-27T14:10:10Z</time>
      </trkpt>
      <trkpt lat="50.05949" lon="2.10186">
        <ele>94.5</ele>
        <time>2024-03-27T14:10:11Z</time>
      </trkpt>
      <trkpt lat="50.0595" lon="2.10185">
        <ele>94.5</ele>
        <time>2024-03-27T14:10:12Z</time>
      </trkpt>
      <trkpt lat="50.0595" lon="2.10184">
        <ele>94.6</ele>
        <time>2024-03-27T14:10:13Z</time>
      </trkpt>
      <trkpt lat="50.05951" lon="2.10184">
        <ele>94.6</ele>
        <time>2024-03-27T14:10:14Z</time>
      </trkpt>
      <trkpt lat="50.05952" lon="2.10183">
        <ele>94.7</ele>
        <time>2024-03-27T14:10:15Z</time>
      </trkpt>
      <trkpt lat="50.05953" lon="2.10183">
        <ele>94.8</ele>
        <time>2024-03-27T14:10:16Z</time>
      </trkpt>
      <trkpt lat="50.05954" lon="2.10182">
        <ele>94.8</ele>
        <time>2024-03-27T14:10:17Z</time>
      </trkpt>
      <trkpt lat="50.05954" lon="2.10181">
        <ele>94.9</ele>
        <time>2024-03-27T14:10:18Z</time>
      </trkpt>
      <trkpt lat="50.05955" lon="2.1018">
        <ele>94.9</ele>
        <time>2024-03-27T14:10:19Z</time>
      </trkpt>
      <trkpt lat="50.05956" lon="2.10179">
        <ele>95</ele>
        <time>2024-03-27T14:10:20Z</time>
      </trkpt>
      <trkpt lat="50.05957" lon="2.10179">
        <ele>95</ele>
        <time>2024-03-27T14:10:21Z</time>
      </trkpt>
      <trkpt lat="50.05958" lon="2.10178">
        <ele>95.1</ele>
        <time>2024-03-27T14:10:22Z</time>
      </trkpt>
      <trkpt lat="50.05959" lon="2.10177">
        <ele>95.1</ele>
        <time>2024-03-27T14:10:23Z</time>
      </trkpt>
      <trkpt lat="50.05959" lon="2.10176">
        <ele>95.2</ele>
        <time>2024-03-27T14:10:24Z</time>
      </trkpt>
      <trkpt lat="50.0596" lon="2.10176">
        <ele>95.2</ele>
        <time>2024-03-27T14:10:25Z</time>
      </trkpt>
      <trkpt lat="50.05961" lon="2.10175">
        <ele>95.3</ele>
        <time>2024-03-27T14:10:26Z</time>
      </trkpt>
      <trkpt lat="50.05962" lon="2.10175">
        <ele>95.4</ele>
        <time>2024-03-27T14:10:27Z</time>
      </trkpt>
      <trkpt lat="50.05963" lon="2.10174">
        <ele>95.4</ele>
        <time>2024-03-27T14:10:28Z</time>
      </trkpt>
      <trkpt lat="50.05964" lon="2.10173">
        <ele>95.5</ele>
        <time>2024-03-27T14:10:29Z</time>
      </trkpt>
      <trkpt lat="50.05964" lon="2.10172">
        <ele>95.5</ele>
        <time>2024-03-27T14:10:30Z</time>
      </trkpt>
      <trkpt lat="50.05965" lon="2.10171">
        <ele>95.6</ele>
        <time>2024-03-27T14:10:31Z</time>
      </trkpt>
      <trkpt lat="50.05966" lon="2.10171">
        <ele>95.6</ele>
        <time>2024-03-27T14:10:32Z</time>
      </trkpt>
      <trkpt lat="50.05967" lon="2.1017">
        <ele>95.7</ele>
        <time>2024-03-27T14:10:33Z</time>
      </trkpt>
      <trkpt lat="50.05968" lon="2.10169">
        <ele>95.8</ele>
        <time>2024-03-27T14:10:34Z</time>
      </trkpt>
      <trkpt lat="50.05969" lon="2.10168">
        <ele>95.8</ele>
        <time>2024-03-27T14:10:35Z</time>
      </trkpt>
      <trkpt lat="50.05969" lon="2.10168">
        <ele>95.9</ele>
        <time>2024-03-27T14:10:36Z</time>
      </trkpt>
      <trkpt lat="50.0597" lon="2.10167">
        <ele>95.9</ele>
        <time>2024-03-27T14:10:37Z</time>
      </trkpt>
      <trkpt lat="50.05971" lon="2.10166">
        <ele>96</ele>
        <time>2024-03-27T14:10:38Z</time>
      </trkpt>
      <trkpt lat="50.05972" lon="2.10166">
        <ele>96.1</ele>
        <time>2024-03-27T14:10:39Z</time>
      </trkpt>
      <trkpt lat="50.05973" lon="2.10165">
        <ele>96.1</ele>
        <time>2024-03-27T14:10:40Z</time>
      </trkpt>
      <trkpt lat="50.05974" lon="2.10164">
        <ele>96.2</ele>
        <time>2024-03-27T14:10:41Z</time>
      </trkpt>
      <trkpt lat="50.05974" lon="2.10163">
        <ele>96.2</ele>
        <time>2024-03-27T14:10:42Z</time>
      </trkpt>
      <trkpt lat="50.05975" lon="2.10162">
        <ele>96.3</ele>
        <time>2024-03-27T14:10:43Z</time>
      </trkpt>
      <trkpt lat="50.05976" lon="2.10161">
        <ele>96.3</ele>
        <time>2024-03-27T14:10:44Z</time>
      </trkpt>
      <trkpt lat="50.05977" lon="2.1016">
        <ele>96.4</ele>
        <time>2024-03-27T14:10:45Z</time>
      </trkpt>
      <trkpt lat="50.05978" lon="2.10159">
        <ele>96.5</ele>
        <time>2024-03-27T14:10:46Z</time>
      </trkpt>
      <trkpt lat="50.05978" lon="2.10158">
        <ele>96.5</ele>
        <time>2024-03-27T14:10:47Z</time>
      </trkpt>
      <trkpt lat="50.05979" lon="2.10158">
        <ele>96.6</ele>
        <time>2024-03-27T14:10:48Z</time>
      </trkpt>
      <trkpt lat="50.0598" lon="2.10157">
        <ele>96.6</ele>
        <time>2024-03-27T14:10:49Z</time>
      </trkpt>
      <trkpt lat="50.05981" lon="2.10156">
        <ele>96.7</ele>
        <time>2024-03-27T14:10:50Z</time>
      </trkpt>
      <trkpt lat="50.05981" lon="2.10155">
        <ele>96.7</ele>
        <time>2024-03-27T14:10:51Z</time>
      </trkpt>
      <trkpt lat="50.05982" lon="2.10155">
        <ele>96.8</ele>
        <time>2024-03-27T14:10:52Z</time>
      </trkpt>
      <trkpt lat="50.05983" lon="2.10154">
        <ele>96.9</ele>
        <time>2024-03-27T14:10:53Z</time>
      </trkpt>
      <trkpt lat="50.05983" lon="2.10153">
        <ele>96.9</ele>
        <time>2024-03-27T14:10:54Z</time>
      </trkpt>
      <trkpt lat="50.05984" lon="2.10152">
        <ele>96.9</ele>
        <time>2024-03-27T14:10:55Z</time>
      </trkpt>
      <trkpt lat="50.05985" lon="2.10152">
        <ele>97</ele>
        <time>2024-03-27T14:10:56Z</time>
      </trkpt>
      <trkpt lat="50.05985" lon="2.10151">
        <ele>97</ele>
        <time>2024-03-27T14:10:57Z</time>
      </trkpt>
      <trkpt lat="50.05986" lon="2.1015">
        <ele>97.1</ele>
        <time>2024-03-27T14:10:58Z</time>
      </trkpt>
      <trkpt lat="50.05987" lon="2.1015">
        <ele>97.1</ele>
        <time>2024-03-27T14:10:59Z</time>
      </trkpt>
      <trkpt lat="50.05987" lon="2.10149">
        <ele>97.2</ele>
        <time>2024-03-27T14:11:00Z</time>
      </trkpt>
      <trkpt lat="50.05988" lon="2.10148">
        <ele>97.2</ele>
        <time>2024-03-27T14:11:01Z</time>
      </trkpt>
      <trkpt lat="50.05989" lon="2.10148">
        <ele>97.3</ele>
        <time>2024-03-27T14:11:02Z</time>
      </trkpt>
      <trkpt lat="50.05989" lon="2.10147">
        <ele>97.3</ele>
        <time>2024-03-27T14:11:03Z</time>
      </trkpt>
      <trkpt lat="50.0599" lon="2.10147">
        <ele>97.4</ele>
        <time>2024-03-27T14:11:04Z</time>
      </trkpt>
      <trkpt lat="50.05991" lon="2.10146">
        <ele>97.4</ele>
        <time>2024-03-27T14:11:05Z</time>
      </trkpt>
      <trkpt lat="50.05992" lon="2.10145">
        <ele>97.5</ele>
        <time>2024-03-27T14:11:06Z</time>
      </trkpt>
      <trkpt lat="50.05993" lon="2.10145">
        <ele>97.6</ele>
        <time>2024-03-27T14:11:07Z</time>
      </trkpt>
      <trkpt lat="50.05994" lon="2.10144">
        <ele>97.6</ele>
        <time>2024-03-27T14:11:08Z</time>
      </trkpt>
      <trkpt lat="50.05995" lon="2.10143">
        <ele>97.7</ele>
        <time>2024-03-27T14:11:09Z</time>
      </trkpt>
      <trkpt lat="50.05996" lon="2.10143">
        <ele>97.7</ele>
        <time>2024-03-27T14:11:10Z</time>
      </trkpt>
      <trkpt lat="50.05997" lon="2.10142">
        <ele>97.8</ele>
        <time>2024-03-27T14:11:11Z</time>
      </trkpt>
      <trkpt lat="50.05998" lon="2.10142">
        <ele>97.9</ele>
        <time>2024-03-27T14:11:12Z</time>
      </trkpt>
      <trkpt lat="50.05999" lon="2.10142">
        <ele>97.9</ele>
        <time>2024-03-27T14:11:13Z</time>
      </trkpt>
      <trkpt lat="50.06" lon="2.10142">
        <ele>98</ele>
        <time>2024-03-27T14:11:14Z</time>
      </trkpt>
      <trkpt lat="50.06" lon="2.10141">
        <ele>98</ele>
        <time>2024-03-27T14:11:15Z</time>
      </trkpt>
      <trkpt lat="50.06001" lon="2.1014">
        <ele>98.1</ele>
        <time>2024-03-27T14:11:16Z</time>
      </trkpt>
      <trkpt lat="50.06002" lon="2.10139">
        <ele>98.2</ele>
        <time>2024-03-27T14:11:17Z</time>
      </trkpt>
      <trkpt lat="50.06003" lon="2.10138">
        <ele>98.2</ele>
        <time>2024-03-27T14:11:18Z</time>
      </trkpt>
      <trkpt lat="50.06004" lon="2.10138">
        <ele>98.3</ele>
        <time>2024-03-27T14:11:19Z</time>
      </trkpt>
      <trkpt lat="50.06005" lon="2.10137">
        <ele>98.3</ele>
        <time>2024-03-27T14:11:20Z</time>
      </trkpt>
      <trkpt lat="50.06006" lon="2.10136">
        <ele>98.4</ele>
        <time>2024-03-27T14:11:21Z</time>
      </trkpt>
      <trkpt lat="50.06007" lon="2.10135">
        <ele>98.5</ele>
        <time>2024-03-27T14:11:22Z</time>
      </trkpt>
      <trkpt lat="50.06008" lon="2.10134">
        <ele>98.5</ele>
        <time>2024-03-27T14:11:23Z</time>
      </trkpt>
      <trkpt lat="50.06009" lon="2.10134">
        <ele>98.6</ele>
        <time>2024-03-27T14:11:24Z</time>
      </trkpt>
      <trkpt lat="50.0601" lon="2.10133">
        <ele>98.7</ele>
        <time>2024-03-27T14:11:25Z</time>
      </trkpt>
      <trkpt lat="50.06011" lon="2.10132">
        <ele>98.7</ele>
        <time>2024-03-27T14:11:26Z</time>
      </trkpt>
      <trkpt lat="50.06012" lon="2.10131">
        <ele>98.8</ele>
        <time>2024-03-27T14:11:27Z</time>
      </trkpt>
      <trkpt lat="50.06012" lon="2.1013">
        <ele>98.9</ele>
        <time>2024-03-27T14:11:28Z</time>
      </trkpt>
      <trkpt lat="50.06013" lon="2.10129">
        <ele>98.9</ele>
        <time>2024-03-27T14:11:29Z</time>
      </trkpt>
      <trkpt lat="50.06014" lon="2.10128">
        <ele>99</ele>
        <time>2024-03-27T14:11:30Z</time>
      </trkpt>
      <trkpt lat="50.06015" lon="2.10128">
        <ele>99</ele>
        <time>2024-03-27T14:11:31Z</time>
      </trkpt>
      <trkpt lat="50.06016" lon="2.10127">
        <ele>99.1</ele>
        <time>2024-03-27T14:11:32Z</time>
      </trkpt>
      <trkpt lat="50.06017" lon="2.10126">
        <ele>99.1</ele>
        <time>2024-03-27T14:11:33Z</time>
      </trkpt>
      <trkpt lat="50.06017" lon="2.10125">
        <ele>99.2</ele>
        <time>2024-03-27T14:11:34Z</time>
      </trkpt>
      <trkpt lat="50.06018" lon="2.10125">
        <ele>99.3</ele>
        <time>2024-03-27T14:11:35Z</time>
      </trkpt>
      <trkpt lat="50.06019" lon="2.10124">
        <ele>99.3</ele>
        <time>2024-03-27T14:11:36Z</time>
      </trkpt>
      <trkpt lat="50.0602" lon="2.10123">
        <ele>99.4</ele>
        <time>2024-03-27T14:11:37Z</time>
      </trkpt>
      <trkpt lat="50.06021" lon="2.10122">
        <ele>99.4</ele>
        <time>2024-03-27T14:11:38Z</time>
      </trkpt>
      <trkpt lat="50.06022" lon="2.10122">
        <ele>99.5</ele>
        <time>2024-03-27T14:11:39Z</time>
      </trkpt>
      <trkpt lat="50.06022" lon="2.10121">
        <ele>99.5</ele>
        <time>2024-03-27T14:11:40Z</time>
      </trkpt>
      <trkpt lat="50.06023" lon="2.1012">
        <ele>99.6</ele>
        <time>2024-03-27T14:11:41Z</time>
      </trkpt>
      <trkpt lat="50.06024" lon="2.10119">
        <ele>99.6</ele>
        <time>2024-03-27T14:11:42Z</time>
      </trkpt>
      <trkpt lat="50.06025" lon="2.10119">
        <ele>99.7</ele>
        <time>2024-03-27T14:11:43Z</time>
      </trkpt>
      <trkpt lat="50.06026" lon="2.10118">
        <ele>99.7</ele>
        <time>2024-03-27T14:11:44Z</time>
      </trkpt>
      <trkpt lat="50.06026" lon="2.10117">
        <ele>99.8</ele>
        <time>2024-03-27T14:11:45Z</time>
      </trkpt>
      <trkpt lat="50.06027" lon="2.10116">
        <ele>99.8</ele>
        <time>2024-03-27T14:11:46Z</time>
      </trkpt>
      <trkpt lat="50.06028" lon="2.10115">
        <ele>99.9</ele>
        <time>2024-03-27T14:11:47Z</time>
      </trkpt>
      <trkpt lat="50.06029" lon="2.10115">
        <ele>99.9</ele>
        <time>2024-03-27T14:11:48Z</time>
      </trkpt>
      <trkpt lat="50.06029" lon="2.10114">
        <ele>100</ele>
        <time>2024-03-27T14:11:49Z</time>
      </trkpt>
      <trkpt lat="50.0603" lon="2.10113">
        <ele>100</ele>
        <time>2024-03-27T14:11:50Z</time>
      </trkpt>
      <trkpt lat="50.06031" lon="2.10113">
        <ele>100.1</ele>
        <time>2024-03-27T14:11:51Z</time>
      </trkpt>
      <trkpt lat="50.06031" lon="2.10112">
        <ele>100.1</ele>
        <time>2024-03-27T14:11:52Z</time>
      </trkpt>
      <trkpt lat="50.06032" lon="2.10111">
        <ele>100.2</ele>
        <time>2024-03-27T14:11:53Z</time>
      </trkpt>
      <trkpt lat="50.06033" lon="2.1011">
        <ele>100.2</ele>
        <time>2024-03-27T14:11:54Z</time>
      </trkpt>
      <trkpt lat="50.06034" lon="2.1011">
        <ele>100.2</ele>
        <time>2024-03-27T14:11:55Z</time>
      </trkpt>
      <trkpt lat="50.06035" lon="2.10109">
        <ele>100.3</ele>
        <time>2024-03-27T14:11:56Z</time>
      </trkpt>
      <trkpt lat="50.06035" lon="2.10109">
        <ele>100.3</ele>
        <time>2024-03-27T14:11:57Z</time>
      </trkpt>
      <trkpt lat="50.06036" lon="2.10108">
        <ele>100.4</ele>
        <time>2024-03-27T14:11:58Z</time>
      </trkpt>
      <trkpt lat="50.06037" lon="2.10107">
        <ele>100.4</ele>
        <time>2024-03-27T14:11:59Z</time>
      </trkpt>
      <trkpt lat="50.06038" lon="2.10107">
        <ele>100.5</ele>
        <time>2024-03-27T14:12:00Z</time>
      </trkpt>
      <trkpt lat="50.06038" lon="2.10106">
        <ele>100.5</ele>
        <time>2024-03-27T14:12:01Z</time>
      </trkpt>
      <trkpt lat="50.06039" lon="2.10105">
        <ele>100.6</ele>
        <time>2024-03-27T14:12:02Z</time>
      </trkpt>
      <trkpt lat="50.0604" lon="2.10104">
        <ele>100.6</ele>
        <time>2024-03-27T14:12:03Z</time>
      </trkpt>
      <trkpt lat="50.06041" lon="2.10103">
        <ele>100.7</ele>
        <time>2024-03-27T14:12:04Z</time>
      </trkpt>
      <trkpt lat="50.06041" lon="2.10103">
        <ele>100.7</ele>
        <time>2024-03-27T14:12:05Z</time>
      </trkpt>
      <trkpt lat="50.06042" lon="2.10102">
        <ele>100.8</ele>
        <time>2024-03-27T14:12:06Z</time>
      </trkpt>
      <trkpt lat="50.06043" lon="2.10102">
        <ele>100.8</ele>
        <time>2024-03-27T14:12:07Z</time>
      </trkpt>
      <trkpt lat="50.06043" lon="2.10101">
        <ele>100.9</ele>
        <time>2024-03-27T14:12:08Z</time>
      </trkpt>
      <trkpt lat="50.06044" lon="2.101">
        <ele>100.9</ele>
        <time>2024-03-27T14:12:09Z</time>
      </trkpt>
      <trkpt lat="50.06045" lon="2.101">
        <ele>101</ele>
        <time>2024-03-27T14:12:10Z</time>
      </trkpt>
      <trkpt lat="50.06046" lon="2.10099">
        <ele>101</ele>
        <time>2024-03-27T14:12:11Z</time>
      </trkpt>
      <trkpt lat="50.06047" lon="2.10098">
        <ele>101.1</ele>
        <time>2024-03-27T14:12:12Z</time>
      </trkpt>
      <trkpt lat="50.06048" lon="2.10098">
        <ele>101.1</ele>
        <time>2024-03-27T14:12:13Z</time>
      </trkpt>
      <trkpt lat="50.06049" lon="2.10098">
        <ele>101.2</ele>
        <time>2024-03-27T14:12:14Z</time>
      </trkpt>
      <trkpt lat="50.0605" lon="2.10097">
        <ele>101.2</ele>
        <time>2024-03-27T14:12:15Z</time>
      </trkpt>
      <trkpt lat="50.06051" lon="2.10097">
        <ele>101.3</ele>
        <time>2024-03-27T14:12:16Z</time>
      </trkpt>
      <trkpt lat="50.06051" lon="2.10096">
        <ele>101.3</ele>
        <time>2024-03-27T14:12:17Z</time>
      </trkpt>
      <trkpt lat="50.06052" lon="2.10096">
        <ele>101.4</ele>
        <time>2024-03-27T14:12:18Z</time>
      </trkpt>
      <trkpt lat="50.06053" lon="2.10095">
        <ele>101.4</ele>
        <time>2024-03-27T14:12:19Z</time>
      </trkpt>
      <trkpt lat="50.06054" lon="2.10095">
        <ele>101.5</ele>
        <time>2024-03-27T14:12:20Z</time>
      </trkpt>
      <trkpt lat="50.06055" lon="2.10094">
        <ele>101.5</ele>
        <time>2024-03-27T14:12:21Z</time>
      </trkpt>
      <trkpt lat="50.06056" lon="2.10094">
        <ele>101.6</ele>
        <time>2024-03-27T14:12:22Z</time>
      </trkpt>
      <trkpt lat="50.06057" lon="2.10093">
        <ele>101.6</ele>
        <time>2024-03-27T14:12:23Z</time>
      </trkpt>
      <trkpt lat="50.06058" lon="2.10093">
        <ele>101.7</ele>
        <time>2024-03-27T14:12:24Z</time>
      </trkpt>
      <trkpt lat="50.06059" lon="2.10092">
        <ele>101.7</ele>
        <time>2024-03-27T14:12:25Z</time>
      </trkpt>
      <trkpt lat="50.06059" lon="2.10092">
        <ele>101.8</ele>
        <time>2024-03-27T14:12:26Z</time>
      </trkpt>
      <trkpt lat="50.0606" lon="2.10091">
        <ele>101.8</ele>
        <time>2024-03-27T14:12:27Z</time>
      </trkpt>
      <trkpt lat="50.06061" lon="2.1009">
        <ele>101.9</ele>
        <time>2024-03-27T14:12:28Z</time>
      </trkpt>
      <trkpt lat="50.06062" lon="2.1009">
        <ele>101.9</ele>
        <time>2024-03-27T14:12:29Z</time>
      </trkpt>
      <trkpt lat="50.06063" lon="2.10089">
        <ele>102</ele>
        <time>2024-03-27T14:12:30Z</time>
      </trkpt>
      <trkpt lat="50.06064" lon="2.10088">
        <ele>102</ele>
        <time>2024-03-27T14:12:31Z</time>
      </trkpt>
      <trkpt lat="50.06065" lon="2.10087">
        <ele>102.1</ele>
        <time>2024-03-27T14:12:32Z</time>
      </trkpt>
      <trkpt lat="50.06066" lon="2.10086">
        <ele>102.1</ele>
        <time>2024-03-27T14:12:33Z</time>
      </trkpt>
      <trkpt lat="50.06066" lon="2.10085">
        <ele>102.2</ele>
        <time>2024-03-27T14:12:34Z</time>
      </trkpt>
      <trkpt lat="50.06067" lon="2.10084">
        <ele>102.2</ele>
        <time>2024-03-27T14:12:35Z</time>
      </trkpt>
      <trkpt lat="50.06068" lon="2.10084">
        <ele>102.3</ele>
        <time>2024-03-27T14:12:36Z</time>
      </trkpt>
      <trkpt lat="50.06069" lon="2.10083">
        <ele>102.3</ele>
        <time>2024-03-27T14:12:37Z</time>
      </trkpt>
      <trkpt lat="50.06069" lon="2.10082">
        <ele>102.4</ele>
        <time>2024-03-27T14:12:38Z</time>
      </trkpt>
      <trkpt lat="50.0607" lon="2.10081">
        <ele>102.4</ele>
        <time>2024-03-27T14:12:39Z</time>
      </trkpt>
      <trkpt lat="50.06071" lon="2.10081">
        <ele>102.4</ele>
        <time>2024-03-27T14:12:40Z</time>
      </trkpt>
      <trkpt lat="50.06071" lon="2.1008">
        <ele>102.5</ele>
        <time>2024-03-27T14:12:41Z</time>
      </trkpt>
      <trkpt lat="50.06072" lon="2.1008">
        <ele>102.5</ele>
        <time>2024-03-27T14:12:42Z</time>
      </trkpt>
      <trkpt lat="50.06073" lon="2.10079">
        <ele>102.5</ele>
        <time>2024-03-27T14:12:43Z</time>
      </trkpt>
      <trkpt lat="50.06073" lon="2.10079">
        <ele>102.6</ele>
        <time>2024-03-27T14:12:44Z</time>
      </trkpt>
      <trkpt lat="50.06074" lon="2.10079">
        <ele>102.6</ele>
        <time>2024-03-27T14:12:45Z</time>
      </trkpt>
      <trkpt lat="50.06074" lon="2.10078">
        <ele>102.6</ele>
        <time>2024-03-27T14:12:46Z</time>
      </trkpt>
      <trkpt lat="50.06075" lon="2.10078">
        <ele>102.7</ele>
        <time>2024-03-27T14:12:47Z</time>
      </trkpt>
      <trkpt lat="50.06076" lon="2.10078">
        <ele>102.7</ele>
        <time>2024-03-27T14:12:48Z</time>
      </trkpt>
      <trkpt lat="50.06076" lon="2.10078">
        <ele>102.7</ele>
        <time>2024-03-27T14:12:49Z</time>
      </trkpt>
      <trkpt lat="50.06076" lon="2.10078">
        <ele>102.7</ele>
        <time>2024-03-27T14:12:50Z</time>
      </trkpt>
      <trkpt lat="50.06076" lon="2.10079">
        <ele>102.7</ele>
        <time>2024-03-27T14:12:51Z</time>
      </trkpt>
      <trkpt lat="50.06076" lon="2.10079">
        <ele>102.8</ele>
        <time>2024-03-27T14:12:52Z</time>
      </trkpt>
      <trkpt lat="50.06076" lon="2.1008">
        <ele>102.8</ele>
        <time>2024-03-27T14:12:53Z</time>
      </trkpt>
      <trkpt lat="50.06076" lon="2.1008">
        <ele>102.8</ele>
        <time>2024-03-27T14:12:54Z</time>
      </trkpt>
      <trkpt lat="50.06075" lon="2.1008">
        <ele>102.8</ele>
        <time>2024-03-27T14:12:55Z</time>
      </trkpt>
      <trkpt lat="50.06075" lon="2.1008">
        <ele>102.8</ele>
        <time>2024-03-27T14:12:56Z</time>
      </trkpt>
      <trkpt lat="50.06075" lon="2.1008">
        <ele>102.8</ele>
        <time>2024-03-27T14:12:57Z</time>
      </trkpt>
      <trkpt lat="50.06075" lon="2.1008">
        <ele>102.8</ele>
        <time>2024-03-27T14:12:58Z</time>
      </trkpt>
      <trkpt lat="50.06075" lon="2.1008">
        <ele>102.8</ele>
        <time>2024-03-27T14:12:59Z</time>
      </trkpt>
      <trkpt lat="50.06075" lon="2.10081">
        <ele>102.8</ele>
        <time>2024-03-27T14:13:00Z</time>
      </trkpt>
      <trkpt lat="50.06075" lon="2.10081">
        <ele>102.8</ele>
        <time>2024-03-27T14:13:01Z</time>
      </trkpt>
      <trkpt lat="50.06075" lon="2.10081">
        <ele>102.8</ele>
        <time>2024-03-27T14:13:02Z</time>
      </trkpt>
      <trkpt lat="50.06075" lon="2.10081">
        <ele>102.8</ele>
        <time>2024-03-27T14:13:03Z</time>
      </trkpt>
      <trkpt lat="50.06075" lon="2.10081">
        <ele>102.8</ele>
        <time>2024-03-27T14:13:04Z</time>
      </trkpt>
      <trkpt lat="50.06075" lon="2.10081">
        <ele>102.8</ele>
        <time>2024-03-27T14:13:05Z</time>
      </trkpt>
      <trkpt lat="50.06075" lon="2.10081">
        <ele>102.8</ele>
        <time>2024-03-27T14:13:06Z</time>
      </trkpt>
      <trkpt lat="50.06074" lon="2.10081">
        <ele>102.9</ele>
        <time>2024-03-27T14:13:07Z</time>
      </trkpt>
      <trkpt lat="50.06074" lon="2.10081">
        <ele>102.9</ele>
        <time>2024-03-27T14:13:08Z</time>
      </trkpt>
      <trkpt lat="50.06074" lon="2.10081">
        <ele>102.9</ele>
        <time>2024-03-27T14:13:09Z</time>
      </trkpt>
      <trkpt lat="50.06072" lon="2.10082">
        <ele>103</ele>
        <time>2024-03-27T14:13:10Z</time>
      </trkpt>
      <trkpt lat="50.06071" lon="2.10082">
        <ele>103</ele>
        <time>2024-03-27T14:13:11Z</time>
      </trkpt>
      <trkpt lat="50.0607" lon="2.10082">
        <ele>103</ele>
        <time>2024-03-27T14:13:12Z</time>
      </trkpt>
      <trkpt lat="50.0607" lon="2.10082">
        <ele>103</ele>
        <time>2024-03-27T14:13:13Z</time>
      </trkpt>
      <trkpt lat="50.0607" lon="2.10082">
        <ele>103</ele>
        <time>2024-03-27T14:13:14Z</time>
      </trkpt>
      <trkpt lat="50.0607" lon="2.10082">
        <ele>103</ele>
        <time>2024-03-27T14:13:15Z</time>
      </trkpt>
      <trkpt lat="50.0607" lon="2.10082">
        <ele>103</ele>
        <time>2024-03-27T14:13:16Z</time>
      </trkpt>
      <trkpt lat="50.0607" lon="2.10082">
        <ele>103</ele>
        <time>2024-03-27T14:13:17Z</time>
      </trkpt>
      <trkpt lat="50.0607" lon="2.10082">
        <ele>103</ele>
        <time>2024-03-27T14:13:18Z</time>
      </trkpt>
      <trkpt lat="50.0607" lon="2.10082">
        <ele>103</ele>
        <time>2024-03-27T14:13:19Z</time>
      </trkpt>
      <trkpt lat="50.0607" lon="2.10082">
        <ele>103</ele>
        <time>2024-03-27T14:13:20Z</time>
      </trkpt>
      <trkpt lat="50.0607" lon="2.10082">
        <ele>103</ele>
        <time>2024-03-27T14:13:21Z</time>
      </trkpt>
      <trkpt lat="50.0607" lon="2.10082">
        <ele>103</ele>
        <time>2024-03-27T14:13:22Z</time>
      </trkpt>
      <trkpt lat="50.0607" lon="2.10082">
        <ele>103</ele>
        <time>2024-03-27T14:13:23Z</time>
      </trkpt>
      <trkpt lat="50.0607" lon="2.10082">
        <ele>103</ele>
        <time>2024-03-27T14:13:24Z</time>
      </trkpt>
      <trkpt lat="50.0607" lon="2.10082">
        <ele>103</ele>
        <time>2024-03-27T14:13:25Z</time>
      </trkpt>
      <trkpt lat="50.0607" lon="2.10082">
        <ele>103</ele>
        <time>2024-03-27T14:13:26Z</time>
      </trkpt>
      <trkpt lat="50.0607" lon="2.10082">
        <ele>103</ele>
        <time>2024-03-27T14:13:27Z</time>
      </trkpt>
      <trkpt lat="50.0607" lon="2.10082">
        <ele>103</ele>
        <time>2024-03-27T14:13:28Z</time>
      </trkpt>
      <trkpt lat="50.0607" lon="2.10082">
        <ele>103</ele>
        <time>2024-03-27T14:13:29Z</time>
      </trkpt>
      <trkpt lat="50.0607" lon="2.10082">
        <ele>103</ele>
        <time>2024-03-27T14:13:30Z</time>
      </trkpt>
      <trkpt lat="50.0607" lon="2.10082">
        <ele>103</ele>
        <time>2024-03-27T14:13:31Z</time>
      </trkpt>
      <trkpt lat="50.0607" lon="2.10082">
        <ele>103</ele>
        <time>2024-03-27T14:13:32Z</time>
      </trkpt>
      <trkpt lat="50.0607" lon="2.10082">
        <ele>103</ele>
        <time>2024-03-27T14:13:33Z</time>
      </trkpt>
      <trkpt lat="50.0607" lon="2.10082">
        <ele>103</ele>
        <time>2024-03-27T14:13:34Z</time>
      </trkpt>
      <trkpt lat="50.0607" lon="2.10082">
        <ele>103</ele>
        <time>2024-03-27T14:13:35Z</time>
      </trkpt>
      <trkpt lat="50.0607" lon="2.10082">
        <ele>103</ele>
        <time>2024-03-27T14:13:36Z</time>
      </trkpt>
      <trkpt lat="50.0607" lon="2.10082">
        <ele>103</ele>
        <time>2024-03-27T14:13:37Z</time>
      </trkpt>
      <trkpt lat="50.0607" lon="2.10082">
        <ele>103</ele>
        <time>2024-03-27T14:13:38Z</time>
      </trkpt>
      <trkpt lat="50.0607" lon="2.10082">
        <ele>103</ele>
        <time>2024-03-27T14:13:39Z</time>
      </trkpt>
      <trkpt lat="50.0607" lon="2.10082">
        <ele>103</ele>
        <time>2024-03-27T14:13:40Z</time>
      </trkpt>
      <trkpt lat="50.0607" lon="2.10082">
        <ele>103</ele>
        <time>2024-03-27T14:13:41Z</time>
      </trkpt>
      <trkpt lat="50.0607" lon="2.10082">
        <ele>103</ele>
        <time>2024-03-27T14:13:42Z</time>
      </trkpt>
      <trkpt lat="50.0607" lon="2.10082">
        <ele>103</ele>
        <time>2024-03-27T14:13:43Z</time>
      </trkpt>
      <trkpt lat="50.0607" lon="2.10082">
        <ele>103</ele>
        <time>2024-03-27T14:13:44Z</time>
      </trkpt>
      <trkpt lat="50.0607" lon="2.10082">
        <ele>103</ele>
        <time>2024-03-27T14:13:45Z</time>
      </trkpt>
      <trkpt lat="50.0607" lon="2.10082">
        <ele>103</ele>
        <time>2024-03-27T14:13:46Z</time>
      </trkpt>
      <trkpt lat="50.0607" lon="2.10082">
        <ele>103</ele>
        <time>2024-03-27T14:13:47Z</time>
      </trkpt>
      <trkpt lat="50.0607" lon="2.10082">
        <ele>103</ele>
        <time>2024-03-27T14:13:48Z</time>
      </trkpt>
      <trkpt lat="50.0607" lon="2.10082">
        <ele>103</ele>
        <time>2024-03-27T14:13:49Z</time>
      </trkpt>
      <trkpt lat="50.0607" lon="2.10082">
        <ele>103</ele>
        <time>2024-03-27T14:13:50Z</time>
      </trkpt>
      <trkpt lat="50.0607" lon="2.10082">
        <ele>103</ele>
        <time>2024-03-27T14:13:51Z</time>
      </trkpt>
      <trkpt lat="50.0607" lon="2.10082">
        <ele>103</ele>
        <time>2024-03-27T14:13:52Z</time>
      </trkpt>
      <trkpt lat="50.0607" lon="2.10082">
        <ele>103</ele>
        <time>2024-03-27T14:13:53Z</time>
      </trkpt>
      <trkpt lat="50.0607" lon="2.10082">
        <ele>103</ele>
        <time>2024-03-27T14:13:54Z</time>
      </trkpt>
      <trkpt lat="50.0607" lon="2.10082">
        <ele>103</ele>
        <time>2024-03-27T14:13:55Z</time>
      </trkpt>
      <trkpt lat="50.0607" lon="2.10082">
        <ele>103</ele>
        <time>2024-03-27T14:13:56Z</time>
      </trkpt>
      <trkpt lat="50.0607" lon="2.10082">
        <ele>103</ele>
        <time>2024-03-27T14:13:57Z</time>
      </trkpt>
      <trkpt lat="50.0607" lon="2.10082">
        <ele>103</ele>
        <time>2024-03-27T14:13:58Z</time>
      </trkpt>
      <trkpt lat="50.0607" lon="2.10082">
        <ele>103</ele>
        <time>2024-03-27T14:13:59Z</time>
      </trkpt>
      <trkpt lat="50.0607" lon="2.10082">
        <ele>103</ele>
        <time>2024-03-27T14:14:00Z</time>
      </trkpt>
      <trkpt lat="50.0607" lon="2.10082">
        <ele>103</ele>
        <time>2024-03-27T14:14:01Z</time>
      </trkpt>
      <trkpt lat="50.0607" lon="2.10082">
        <ele>103</ele>
        <time>2024-03-27T14:14:02Z</time>
      </trkpt>
      <trkpt lat="50.0607" lon="2.10082">
        <ele>103</ele>
        <time>2024-03-27T14:14:03Z</time>
      </trkpt>
      <trkpt lat="50.0607" lon="2.10082">
        <ele>103</ele>
        <time>2024-03-27T14:14:04Z</time>
      </trkpt>
      <trkpt lat="50.0607" lon="2.10082">
        <ele>103</ele>
        <time>2024-03-27T14:14:05Z</time>
      </trkpt>
      <trkpt lat="50.0607" lon="2.10082">
        <ele>103</ele>
        <time>2024-03-27T14:14:06Z</time>
      </trkpt>
      <trkpt lat="50.0607" lon="2.10082">
        <ele>103</ele>
        <time>2024-03-27T14:14:07Z</time>
      </trkpt>
      <trkpt lat="50.0607" lon="2.10082">
        <ele>103</ele>
        <time>2024-03-27T14:14:08Z</time>
      </trkpt>
      <trkpt lat="50.0607" lon="2.10082">
        <ele>103</ele>
        <time>2024-03-27T14:14:09Z</time>
      </trkpt>
      <trkpt lat="50.0607" lon="2.10082">
        <ele>103</ele>
        <time>2024-03-27T14:14:10Z</time>
      </trkpt>
      <trkpt lat="50.0607" lon="2.10082">
        <ele>103</ele>
        <time>2024-03-27T14:14:11Z</time>
      </trkpt>
      <trkpt lat="50.0607" lon="2.10082">
        <ele>103</ele>
        <time>2024-03-27T14:14:12Z</time>
      </trkpt>
      <trkpt lat="50.0607" lon="2.10082">
        <ele>103</ele>
        <time>2024-03-27T14:14:13Z</time>
      </trkpt>
      <trkpt lat="50.0607" lon="2.10082">
        <ele>103</ele>
        <time>2024-03-27T14:14:14Z</time>
      </trkpt>
      <trkpt lat="50.0607" lon="2.10082">
        <ele>103</ele>
        <time>2024-03-27T14:14:15Z</time>
      </trkpt>
      <trkpt lat="50.0607" lon="2.10082">
        <ele>103</ele>
        <time>2024-03-27T14:14:16Z</time>
      </trkpt>
      <trkpt lat="50.0607" lon="2.10082">
        <ele>103</ele>
        <time>2024-03-27T14:14:17Z</time>
      </trkpt>
      <trkpt lat="50.0607" lon="2.10082">
        <ele>103</ele>
        <time>2024-03-27T14:14:18Z</time>
      </trkpt>
      <trkpt lat="50.0607" lon="2.10082">
        <ele>103</ele>
        <time>2024-03-27T14:14:19Z</time>
      </trkpt>
      <trkpt lat="50.0607" lon="2.10082">
        <ele>103</ele>
        <time>2024-03-27T14:14:20Z</time>
      </trkpt>
      <trkpt lat="50.0607" lon="2.10082">
        <ele>103</ele>
        <time>2024-03-27T14:14:21Z</time>
      </trkpt>
      <trkpt lat="50.0607" lon="2.10082">
        <ele>103</ele>
        <time>2024-03-27T14:14:22Z</time>
      </trkpt>
      <trkpt lat="50.0607" lon="2.10082">
        <ele>103</ele>
        <time>2024-03-27T14:14:23Z</time>
      </trkpt>
      <trkpt lat="50.0607" lon="2.10082">
        <ele>103</ele>
        <time>2024-03-27T14:14:24Z</time>
      </trkpt>
      <trkpt lat="50.0607" lon="2.10082">
        <ele>103</ele>
        <time>2024-03-27T14:14:25Z</time>
      </trkpt>
      <trkpt lat="50.0607" lon="2.10082">
        <ele>103</ele>
        <time>2024-03-27T14:14:26Z</time>
      </trkpt>
      <trkpt lat="50.0607" lon="2.10082">
        <ele>103</ele>
        <time>2024-03-27T14:14:27Z</time>
      </trkpt>
      <trkpt lat="50.0607" lon="2.10082">
        <ele>103</ele>
        <time>2024-03-27T14:14:28Z</time>
      </trkpt>
      <trkpt lat="50.0607" lon="2.10082">
        <ele>103</ele>
        <time>2024-03-27T14:14:29Z</time>
      </trkpt>
      <trkpt lat="50.0607" lon="2.10082">
        <ele>103</ele>
        <time>2024-03-27T14:14:30Z</time>
      </trkpt>
      <trkpt lat="50.0607" lon="2.10082">
        <ele>103</ele>
        <time>2024-03-27T14:14:31Z</time>
      </trkpt>
      <trkpt lat="50.0607" lon="2.10082">
        <ele>103</ele>
        <time>2024-03-27T14:14:32Z</time>
      </trkpt>
      <trkpt lat="50.0607" lon="2.10082">
        <ele>103</ele>
        <time>2024-03-27T14:14:33Z</time>
      </trkpt>
      <trkpt lat="50.0607" lon="2.10082">
        <ele>103</ele>
        <time>2024-03-27T14:14:34Z</time>
      </trkpt>
      <trkpt lat="50.0607" lon="2.10082">
        <ele>103</ele>
        <time>2024-03-27T14:14:35Z</time>
      </trkpt>
      <trkpt lat="50.0607" lon="2.10082">
        <ele>103</ele>
        <time>2024-03-27T14:14:36Z</time>
      </trkpt>
      <trkpt lat="50.0607" lon="2.10082">
        <ele>103</ele>
        <time>2024-03-27T14:14:37Z</time>
      </trkpt>
      <trkpt lat="50.0607" lon="2.10082">
        <ele>103</ele>
        <time>2024-03-27T14:14:38Z</time>
      </trkpt>
      <trkpt lat="50.0607" lon="2.10082">
        <ele>103</ele>
        <time>2024-03-27T14:14:39Z</time>
      </trkpt>
      <trkpt lat="50.0607" lon="2.10082">
        <ele>103</ele>
        <time>2024-03-27T14:14:40Z</time>
      </trkpt>
      <trkpt lat="50.0607" lon="2.10082">
        <ele>103</ele>
        <time>2024-03-27T14:14:41Z</time>
      </trkpt>
      <trkpt lat="50.0607" lon="2.10082">
        <ele>103</ele>
        <time>2024-03-27T14:14:42Z</time>
      </trkpt>
      <trkpt lat="50.0607" lon="2.10082">
        <ele>103</ele>
        <time>2024-03-27T14:14:43Z</time>
      </trkpt>
      <trkpt lat="50.0607" lon="2.10082">
        <ele>103</ele>
        <time>2024-03-27T14:14:44Z</time>
      </trkpt>
      <trkpt lat="50.0607" lon="2.10082">
        <ele>103</ele>
        <time>2024-03-27T14:14:45Z</time>
      </trkpt>
      <trkpt lat="50.0607" lon="2.10082">
        <ele>103</ele>
        <time>2024-03-27T14:14:46Z</time>
      </trkpt>
      <trkpt lat="50.0607" lon="2.10082">
        <ele>103</ele>
        <time>2024-03-27T14:14:47Z</time>
      </trkpt>
      <trkpt lat="50.0607" lon="2.10082">
        <ele>103</ele>
        <time>2024-03-27T14:14:48Z</time>
      </trkpt>
      <trkpt lat="50.0607" lon="2.10082">
        <ele>103</ele>
        <time>2024-03-27T14:14:49Z</time>
      </trkpt>
      <trkpt lat="50.0607" lon="2.10082">
        <ele>103</ele>
        <time>2024-03-27T14:14:50Z</time>
      </trkpt>
      <trkpt lat="50.0607" lon="2.10082">
        <ele>103</ele>
        <time>2024-03-27T14:14:51Z</time>
      </trkpt>
      <trkpt lat="50.0607" lon="2.10082">
        <ele>103</ele>
        <time>2024-03-27T14:14:52Z</time>
      </trkpt>
      <trkpt lat="50.0607" lon="2.10082">
        <ele>103</ele>
        <time>2024-03-27T14:14:53Z</time>
      </trkpt>
      <trkpt lat="50.0607" lon="2.10082">
        <ele>103</ele>
        <time>2024-03-27T14:14:54Z</time>
      </trkpt>
      <trkpt lat="50.0607" lon="2.10082">
        <ele>103</ele>
        <time>2024-03-27T14:14:55Z</time>
      </trkpt>
      <trkpt lat="50.0607" lon="2.10082">
        <ele>103</ele>
        <time>2024-03-27T14:14:56Z</time>
      </trkpt>
      <trkpt lat="50.0607" lon="2.10082">
        <ele>103</ele>
        <time>2024-03-27T14:14:57Z</time>
      </trkpt>
      <trkpt lat="50.0607" lon="2.10082">
        <ele>103</ele>
        <time>2024-03-27T14:14:58Z</time>
      </trkpt>
      <trkpt lat="50.0607" lon="2.10082">
        <ele>103</ele>
        <time>2024-03-27T14:14:59Z</time>
      </trkpt>
      <trkpt lat="50.0607" lon="2.10082">
        <ele>103</ele>
        <time>2024-03-27T14:15:00Z</time>
      </trkpt>
      <trkpt lat="50.0607" lon="2.10082">
        <ele>103</ele>
        <time>2024-03-27T14:15:01Z</time>
      </trkpt>
      <trkpt lat="50.0607" lon="2.10082">
        <ele>103</ele>
        <time>2024-03-27T14:15:02Z</time>
      </trkpt>
      <trkpt lat="50.0607" lon="2.10082">
        <ele>103</ele>
        <time>2024-03-27T14:15:03Z</time>
      </trkpt>
      <trkpt lat="50.0607" lon="2.10082">
        <ele>103</ele>
        <time>2024-03-27T14:15:04Z</time>
      </trkpt>
      <trkpt lat="50.0607" lon="2.10082">
        <ele>103</ele>
        <time>2024-03-27T14:15:05Z</time>
      </trkpt>
      <trkpt lat="50.0607" lon="2.10082">
        <ele>103</ele>
        <time>2024-03-27T14:15:06Z</time>
      </trkpt>
      <trkpt lat="50.0607" lon="2.10082">
        <ele>103</ele>
        <time>2024-03-27T14:15:07Z</time>
      </trkpt>
      <trkpt lat="50.0607" lon="2.10082">
        <ele>103</ele>
        <time>2024-03-27T14:15:08Z</time>
      </trkpt>
      <trkpt lat="50.0607" lon="2.10082">
        <ele>103</ele>
        <time>2024-03-27T14:15:09Z</time>
      </trkpt>
      <trkpt lat="50.0607" lon="2.10082">
        <ele>103</ele>
        <time>2024-03-27T14:15:10Z</time>
      </trkpt>
      <trkpt lat="50.0607" lon="2.10082">
        <ele>103</ele>
        <time>2024-03-27T14:15:11Z</time>
      </trkpt>
      <trkpt lat="50.0607" lon="2.10082">
        <ele>103</ele>
        <time>2024-03-27T14:15:12Z</time>
      </trkpt>
      <trkpt lat="50.0607" lon="2.10082">
        <ele>103</ele>
        <time>2024-03-27T14:15:13Z</time>
      </trkpt>
      <trkpt lat="50.0607" lon="2.10082">
        <ele>103</ele>
        <time>2024-03-27T14:15:14Z</time>
      </trkpt>
      <trkpt lat="50.0607" lon="2.10082">
        <ele>103</ele>
        <time>2024-03-27T14:15:15Z</time>
      </trkpt>
      <trkpt lat="50.0607" lon="2.10082">
        <ele>103</ele>
        <time>2024-03-27T14:15:16Z</time>
      </trkpt>
      <trkpt lat="50.0607" lon="2.10082">
        <ele>103</ele>
        <time>2024-03-27T14:15:17Z</time>
      </trkpt>
      <trkpt lat="50.0607" lon="2.10082">
        <ele>103</ele>
        <time>2024-03-27T14:15:18Z</time>
      </trkpt>
      <trkpt lat="50.0607" lon="2.10082">
        <ele>103</ele>
        <time>2024-03-27T14:15:19Z</time>
      </trkpt>
      <trkpt lat="50.0607" lon="2.10082">
        <ele>103</ele>
        <time>2024-03-27T14:15:20Z</time>
      </trkpt>
      <trkpt lat="50.0607" lon="2.10082">
        <ele>103</ele>
        <time>2024-03-27T14:15:21Z</time>
      </trkpt>
      <trkpt lat="50.0607" lon="2.10082">
        <ele>103</ele>
        <time>2024-03-27T14:15:22Z</time>
      </trkpt>
      <trkpt lat="50.0607" lon="2.10082">
        <ele>103</ele>
        <time>2024-03-27T14:15:23Z</time>
      </trkpt>
      <trkpt lat="50.0607" lon="2.10082">
        <ele>103</ele>
        <time>2024-03-27T14:15:24Z</time>
      </trkpt>
      <trkpt lat="50.0607" lon="2.10082">
        <ele>103</ele>
        <time>2024-03-27T14:15:25Z</time>
      </trkpt>
      <trkpt lat="50.0607" lon="2.10082">
        <ele>103</ele>
        <time>2024-03-27T14:15:26Z</time>
      </trkpt>
      <trkpt lat="50.0607" lon="2.10082">
        <ele>103</ele>
        <time>2024-03-27T14:15:27Z</time>
      </trkpt>
      <trkpt lat="50.0607" lon="2.10082">
        <ele>103</ele>
        <time>2024-03-27T14:15:28Z</time>
      </trkpt>
      <trkpt lat="50.0607" lon="2.10082">
        <ele>103</ele>
        <time>2024-03-27T14:15:29Z</time>
      </trkpt>
      <trkpt lat="50.0607" lon="2.10082">
        <ele>103</ele>
        <time>2024-03-27T14:15:30Z</time>
      </trkpt>
      <trkpt lat="50.0607" lon="2.10082">
        <ele>103</ele>
        <time>2024-03-27T14:15:31Z</time>
      </trkpt>
      <trkpt lat="50.0607" lon="2.10082">
        <ele>103</ele>
        <time>2024-03-27T14:15:32Z</time>
      </trkpt>
      <trkpt lat="50.0607" lon="2.10082">
        <ele>103</ele>
        <time>2024-03-27T14:15:33Z</time>
      </trkpt>
      <trkpt lat="50.0607" lon="2.10082">
        <ele>103</ele>
        <time>2024-03-27T14:15:34Z</time>
      </trkpt>
      <trkpt lat="50.0607" lon="2.10082">
        <ele>103</ele>
        <time>2024-03-27T14:15:35Z</time>
      </trkpt>
      <trkpt lat="50.0607" lon="2.10082">
        <ele>103</ele>
        <time>2024-03-27T14:15:36Z</time>
      </trkpt>
      <trkpt lat="50.0607" lon="2.10082">
        <ele>103</ele>
        <time>2024-03-27T14:15:37Z</time>
      </trkpt>
      <trkpt lat="50.0607" lon="2.10082">
        <ele>103</ele>
        <time>2024-03-27T14:15:38Z</time>
      </trkpt>
      <trkpt lat="50.0607" lon="2.10082">
        <ele>103</ele>
        <time>2024-03-27T14:15:39Z</time>
      </trkpt>
      <trkpt lat="50.0607" lon="2.10082">
        <ele>103</ele>
        <time>2024-03-27T14:15:40Z</time>
      </trkpt>
      <trkpt lat="50.0607" lon="2.10082">
        <ele>103</ele>
        <time>2024-03-27T14:15:41Z</time>
      </trkpt>
      <trkpt lat="50.0607" lon="2.10082">
        <ele>103</ele>
        <time>2024-03-27T14:15:42Z</time>
      </trkpt>
      <trkpt lat="50.0607" lon="2.10082">
        <ele>103</ele>
        <time>2024-03-27T14:15:43Z</time>
      </trkpt>
      <trkpt lat="50.0607" lon="2.10082">
        <ele>103</ele>
        <time>2024-03-27T14:15:44Z</time>
      </trkpt>
      <trkpt lat="50.0607" lon="2.10082">
        <ele>103</ele>
        <time>2024-03-27T14:15:45Z</time>
      </trkpt>
      <trkpt lat="50.0607" lon="2.10082">
        <ele>103</ele>
        <time>2024-03-27T14:15:46Z</time>
      </trkpt>
      <trkpt lat="50.0607" lon="2.10082">
        <ele>103</ele>
        <time>2024-03-27T14:15:47Z</time>
      </trkpt>
      <trkpt lat="50.0607" lon="2.10082">
        <ele>103</ele>
        <time>2024-03-27T14:15:48Z</time>
      </trkpt>
      <trkpt lat="50.0607" lon="2.10082">
        <ele>103</ele>
        <time>2024-03-27T14:15:49Z</time>
      </trkpt>
      <trkpt lat="50.0607" lon="2.10082">
        <ele>103</ele>
        <time>2024-03-27T14:15:50Z</time>
      </trkpt>
      <trkpt lat="50.06069" lon="2.10082">
        <ele>103.1</ele>
        <time>2024-03-27T14:15:51Z</time>
      </trkpt>
      <trkpt lat="50.0607" lon="2.10082">
        <ele>103.1</ele>
        <time>2024-03-27T14:15:52Z</time>
      </trkpt>
      <trkpt lat="50.0607" lon="2.10081">
        <ele>103.1</ele>
        <time>2024-03-27T14:15:53Z</time>
      </trkpt>
      <trkpt lat="50.0607" lon="2.10081">
        <ele>103.1</ele>
        <time>2024-03-27T14:15:54Z</time>
      </trkpt>
      <trkpt lat="50.0607" lon="2.10082">
        <ele>103.1</ele>
        <time>2024-03-27T14:15:55Z</time>
      </trkpt>
      <trkpt lat="50.0607" lon="2.10082">
        <ele>103.1</ele>
        <time>2024-03-27T14:15:56Z</time>
      </trkpt>
      <trkpt lat="50.06071" lon="2.10081">
        <ele>103.1</ele>
        <time>2024-03-27T14:15:57Z</time>
      </trkpt>
      <trkpt lat="50.06071" lon="2.10081">
        <ele>103.2</ele>
        <time>2024-03-27T14:15:58Z</time>
      </trkpt>
      <trkpt lat="50.06072" lon="2.10081">
        <ele>103.2</ele>
        <time>2024-03-27T14:15:59Z</time>
      </trkpt>
      <trkpt lat="50.06072" lon="2.1008">
        <ele>103.2</ele>
        <time>2024-03-27T14:16:00Z</time>
      </trkpt>
      <trkpt lat="50.06072" lon="2.1008">
        <ele>103.2</ele>
        <time>2024-03-27T14:16:01Z</time>
      </trkpt>
      <trkpt lat="50.06072" lon="2.1008">
        <ele>103.2</ele>
        <time>2024-03-27T14:16:02Z</time>
      </trkpt>
      <trkpt lat="50.06072" lon="2.1008">
        <ele>103.2</ele>
        <time>2024-03-27T14:16:03Z</time>
      </trkpt>
      <trkpt lat="50.06072" lon="2.1008">
        <ele>103.2</ele>
        <time>2024-03-27T14:16:04Z</time>
      </trkpt>
      <trkpt lat="50.06072" lon="2.1008">
        <ele>103.2</ele>
        <time>2024-03-27T14:16:05Z</time>
      </trkpt>
      <trkpt lat="50.06072" lon="2.1008">
        <ele>103.2</ele>
        <time>2024-03-27T14:16:06Z</time>
      </trkpt>
      <trkpt lat="50.06072" lon="2.10081">
        <ele>103.2</ele>
        <time>2024-03-27T14:16:07Z</time>
      </trkpt>
      <trkpt lat="50.06072" lon="2.10081">
        <ele>103.2</ele>
        <time>2024-03-27T14:16:08Z</time>
      </trkpt>
      <trkpt lat="50.06072" lon="2.10081">
        <ele>103.2</ele>
        <time>2024-03-27T14:16:09Z</time>
      </trkpt>
      <trkpt lat="50.06072" lon="2.10081">
        <ele>103.2</ele>
        <time>2024-03-27T14:16:10Z</time>
      </trkpt>
      <trkpt lat="50.06072" lon="2.10081">
        <ele>103.2</ele>
        <time>2024-03-27T14:16:11Z</time>
      </trkpt>
      <trkpt lat="50.06072" lon="2.10081">
        <ele>103.2</ele>
        <time>2024-03-27T14:16:12Z</time>
      </trkpt>
      <trkpt lat="50.06072" lon="2.10081">
        <ele>103.2</ele>
        <time>2024-03-27T14:16:13Z</time>
      </trkpt>
      <trkpt lat="50.06072" lon="2.10081">
        <ele>103.2</ele>
        <time>2024-03-27T14:16:14Z</time>
      </trkpt>
      <trkpt lat="50.06072" lon="2.10081">
        <ele>103.2</ele>
        <time>2024-03-27T14:16:15Z</time>
      </trkpt>
      <trkpt lat="50.06072" lon="2.10081">
        <ele>103.2</ele>
        <time>2024-03-27T14:16:16Z</time>
      </trkpt>
      <trkpt lat="50.06072" lon="2.10081">
        <ele>103.2</ele>
        <time>2024-03-27T14:16:17Z</time>
      </trkpt>
      <trkpt lat="50.06071" lon="2.10082">
        <ele>103.3</ele>
        <time>2024-03-27T14:16:18Z</time>
      </trkpt>
      <trkpt lat="50.06071" lon="2.10082">
        <ele>103.3</ele>
        <time>2024-03-27T14:16:19Z</time>
      </trkpt>
      <trkpt lat="50.06071" lon="2.10082">
        <ele>103.3</ele>
        <time>2024-03-27T14:16:20Z</time>
      </trkpt>
      <trkpt lat="50.06071" lon="2.10081">
        <ele>103.3</ele>
        <time>2024-03-27T14:16:21Z</time>
      </trkpt>
      <trkpt lat="50.06071" lon="2.10081">
        <ele>103.3</ele>
        <time>2024-03-27T14:16:22Z</time>
      </trkpt>
      <trkpt lat="50.0607" lon="2.10081">
        <ele>103.3</ele>
        <time>2024-03-27T14:16:23Z</time>
      </trkpt>
      <trkpt lat="50.06071" lon="2.1008">
        <ele>103.3</ele>
        <time>2024-03-27T14:16:24Z</time>
      </trkpt>
      <trkpt lat="50.06072" lon="2.10079">
        <ele>103.4</ele>
        <time>2024-03-27T14:16:25Z</time>
      </trkpt>
      <trkpt lat="50.06072" lon="2.10079">
        <ele>103.4</ele>
        <time>2024-03-27T14:16:26Z</time>
      </trkpt>
      <trkpt lat="50.06073" lon="2.10078">
        <ele>103.4</ele>
        <time>2024-03-27T14:16:27Z</time>
      </trkpt>
      <trkpt lat="50.06074" lon="2.10077">
        <ele>103.5</ele>
        <time>2024-03-27T14:16:28Z</time>
      </trkpt>
      <trkpt lat="50.06075" lon="2.10076">
        <ele>103.5</ele>
        <time>2024-03-27T14:16:29Z</time>
      </trkpt>
      <trkpt lat="50.06075" lon="2.10075">
        <ele>103.5</ele>
        <time>2024-03-27T14:16:30Z</time>
      </trkpt>
      <trkpt lat="50.06076" lon="2.10074">
        <ele>103.5</ele>
        <time>2024-03-27T14:16:31Z</time>
      </trkpt>
      <trkpt lat="50.06075" lon="2.10073">
        <ele>103.5</ele>
        <time>2024-03-27T14:16:32Z</time>
      </trkpt>
      <trkpt lat="50.06075" lon="2.10071">
        <ele>103.6</ele>
        <time>2024-03-27T14:16:33Z</time>
      </trkpt>
      <trkpt lat="50.06077" lon="2.10071">
        <ele>103.6</ele>
        <time>2024-03-27T14:16:34Z</time>
      </trkpt>
      <trkpt lat="50.06078" lon="2.1007">
        <ele>103.6</ele>
        <time>2024-03-27T14:16:35Z</time>
      </trkpt>
      <trkpt lat="50.06081" lon="2.10069">
        <ele>103.7</ele>
        <time>2024-03-27T14:16:36Z</time>
      </trkpt>
      <trkpt lat="50.06082" lon="2.10068">
        <ele>103.7</ele>
        <time>2024-03-27T14:16:37Z</time>
      </trkpt>
      <trkpt lat="50.06085" lon="2.10066">
        <ele>103.7</ele>
        <time>2024-03-27T14:16:38Z</time>
      </trkpt>
      <trkpt lat="50.06086" lon="2.10065">
        <ele>103.7</ele>
        <time>2024-03-27T14:16:39Z</time>
      </trkpt>
      <trkpt lat="50.06087" lon="2.10065">
        <ele>103.7</ele>
        <time>2024-03-27T14:16:40Z</time>
      </trkpt>
      <trkpt lat="50.06088" lon="2.10064">
        <ele>103.7</ele>
        <time>2024-03-27T14:16:41Z</time>
      </trkpt>
      <trkpt lat="50.06089" lon="2.10063">
        <ele>103.7</ele>
        <time>2024-03-27T14:16:42Z</time>
      </trkpt>
      <trkpt lat="50.0609" lon="2.10063">
        <ele>103.7</ele>
        <time>2024-03-27T14:16:43Z</time>
      </trkpt>
      <trkpt lat="50.06091" lon="2.10063">
        <ele>103.7</ele>
        <time>2024-03-27T14:16:44Z</time>
      </trkpt>
      <trkpt lat="50.06092" lon="2.10062">
        <ele>103.7</ele>
        <time>2024-03-27T14:16:45Z</time>
      </trkpt>
      <trkpt lat="50.06093" lon="2.10061">
        <ele>103.7</ele>
        <time>2024-03-27T14:16:46Z</time>
      </trkpt>
      <trkpt lat="50.06094" lon="2.1006">
        <ele>103.7</ele>
        <time>2024-03-27T14:16:47Z</time>
      </trkpt>
      <trkpt lat="50.06095" lon="2.1006">
        <ele>103.7</ele>
        <time>2024-03-27T14:16:48Z</time>
      </trkpt>
      <trkpt lat="50.06096" lon="2.10059">
        <ele>103.7</ele>
        <time>2024-03-27T14:16:49Z</time>
      </trkpt>
      <trkpt lat="50.06097" lon="2.10058">
        <ele>103.7</ele>
        <time>2024-03-27T14:16:50Z</time>
      </trkpt>
      <trkpt lat="50.06098" lon="2.10056">
        <ele>103.7</ele>
        <time>2024-03-27T14:16:51Z</time>
      </trkpt>
      <trkpt lat="50.061" lon="2.10055">
        <ele>103.7</ele>
        <time>2024-03-27T14:16:52Z</time>
      </trkpt>
      <trkpt lat="50.06101" lon="2.10054">
        <ele>103.7</ele>
        <time>2024-03-27T14:16:53Z</time>
      </trkpt>
      <trkpt lat="50.06102" lon="2.10054">
        <ele>103.7</ele>
        <time>2024-03-27T14:16:54Z</time>
      </trkpt>
      <trkpt lat="50.06104" lon="2.10052">
        <ele>103.7</ele>
        <time>2024-03-27T14:16:55Z</time>
      </trkpt>
      <trkpt lat="50.06105" lon="2.10052">
        <ele>103.7</ele>
        <time>2024-03-27T14:16:56Z</time>
      </trkpt>
      <trkpt lat="50.06107" lon="2.1005">
        <ele>103.7</ele>
        <time>2024-03-27T14:16:57Z</time>
      </trkpt>
      <trkpt lat="50.06108" lon="2.10049">
        <ele>103.7</ele>
        <time>2024-03-27T14:16:58Z</time>
      </trkpt>
      <trkpt lat="50.06109" lon="2.10047">
        <ele>103.6</ele>
        <time>2024-03-27T14:16:59Z</time>
      </trkpt>
      <trkpt lat="50.06108" lon="2.10046">
        <ele>103.6</ele>
        <time>2024-03-27T14:17:00Z</time>
      </trkpt>
      <trkpt lat="50.06108" lon="2.10046">
        <ele>103.6</ele>
        <time>2024-03-27T14:17:01Z</time>
      </trkpt>
      <trkpt lat="50.06107" lon="2.10047">
        <ele>103.6</ele>
        <time>2024-03-27T14:17:02Z</time>
      </trkpt>
      <trkpt lat="50.06107" lon="2.10048">
        <ele>103.6</ele>
        <time>2024-03-27T14:17:03Z</time>
      </trkpt>
      <trkpt lat="50.06108" lon="2.10047">
        <ele>103.6</ele>
        <time>2024-03-27T14:17:04Z</time>
      </trkpt>
      <trkpt lat="50.06109" lon="2.10046">
        <ele>103.6</ele>
        <time>2024-03-27T14:17:05Z</time>
      </trkpt>
      <trkpt lat="50.06111" lon="2.10045">
        <ele>103.6</ele>
        <time>2024-03-27T14:17:06Z</time>
      </trkpt>
      <trkpt lat="50.06112" lon="2.10043">
        <ele>103.6</ele>
        <time>2024-03-27T14:17:07Z</time>
      </trkpt>
      <trkpt lat="50.06113" lon="2.10042">
        <ele>103.5</ele>
        <time>2024-03-27T14:17:08Z</time>
      </trkpt>
      <trkpt lat="50.06114" lon="2.10041">
        <ele>103.5</ele>
        <time>2024-03-27T14:17:09Z</time>
      </trkpt>
      <trkpt lat="50.06115" lon="2.10039">
        <ele>103.5</ele>
        <time>2024-03-27T14:17:10Z</time>
      </trkpt>
      <trkpt lat="50.06116" lon="2.10038">
        <ele>103.5</ele>
        <time>2024-03-27T14:17:11Z</time>
      </trkpt>
      <trkpt lat="50.06117" lon="2.10037">
        <ele>103.5</ele>
        <time>2024-03-27T14:17:12Z</time>
      </trkpt>
      <trkpt lat="50.06118" lon="2.10037">
        <ele>103.5</ele>
        <time>2024-03-27T14:17:13Z</time>
      </trkpt>
      <trkpt lat="50.06119" lon="2.10036">
        <ele>103.4</ele>
        <time>2024-03-27T14:17:14Z</time>
      </trkpt>
      <trkpt lat="50.06119" lon="2.10035">
        <ele>103.4</ele>
        <time>2024-03-27T14:17:15Z</time>
      </trkpt>
      <trkpt lat="50.0612" lon="2.10035">
        <ele>103.4</ele>
        <time>2024-03-27T14:17:16Z</time>
      </trkpt>
      <trkpt lat="50.06121" lon="2.10034">
        <ele>103.4</ele>
        <time>2024-03-27T14:17:17Z</time>
      </trkpt>
      <trkpt lat="50.06121" lon="2.10033">
        <ele>103.4</ele>
        <time>2024-03-27T14:17:18Z</time>
      </trkpt>
      <trkpt lat="50.06122" lon="2.10032">
        <ele>103.4</ele>
        <time>2024-03-27T14:17:19Z</time>
      </trkpt>
      <trkpt lat="50.06124" lon="2.10032">
        <ele>103.4</ele>
        <time>2024-03-27T14:17:20Z</time>
      </trkpt>
      <trkpt lat="50.06126" lon="2.10032">
        <ele>103.4</ele>
        <time>2024-03-27T14:17:21Z</time>
      </trkpt>
      <trkpt lat="50.06127" lon="2.10031">
        <ele>103.3</ele>
        <time>2024-03-27T14:17:22Z</time>
      </trkpt>
      <trkpt lat="50.06128" lon="2.10031">
        <ele>103.3</ele>
        <time>2024-03-27T14:17:23Z</time>
      </trkpt>
      <trkpt lat="50.06129" lon="2.1003">
        <ele>103.3</ele>
        <time>2024-03-27T14:17:24Z</time>
      </trkpt>
      <trkpt lat="50.06131" lon="2.10029">
        <ele>103.3</ele>
        <time>2024-03-27T14:17:25Z</time>
      </trkpt>
      <trkpt lat="50.06132" lon="2.10028">
        <ele>103.3</ele>
        <time>2024-03-27T14:17:26Z</time>
      </trkpt>
      <trkpt lat="50.06134" lon="2.10027">
        <ele>103.3</ele>
        <time>2024-03-27T14:17:27Z</time>
      </trkpt>
      <trkpt lat="50.06135" lon="2.10026">
        <ele>103.3</ele>
        <time>2024-03-27T14:17:28Z</time>
      </trkpt>
      <trkpt lat="50.06135" lon="2.10025">
        <ele>103.3</ele>
        <time>2024-03-27T14:17:29Z</time>
      </trkpt>
      <trkpt lat="50.06137" lon="2.10024">
        <ele>103.3</ele>
        <time>2024-03-27T14:17:30Z</time>
      </trkpt>
      <trkpt lat="50.06138" lon="2.10023">
        <ele>103.2</ele>
        <time>2024-03-27T14:17:31Z</time>
      </trkpt>
      <trkpt lat="50.06139" lon="2.10022">
        <ele>103.2</ele>
        <time>2024-03-27T14:17:32Z</time>
      </trkpt>
      <trkpt lat="50.0614" lon="2.10021">
        <ele>103.2</ele>
        <time>2024-03-27T14:17:33Z</time>
      </trkpt>
      <trkpt lat="50.06141" lon="2.1002">
        <ele>103.2</ele>
        <time>2024-03-27T14:17:34Z</time>
      </trkpt>
      <trkpt lat="50.06142" lon="2.1002">
        <ele>103.2</ele>
        <time>2024-03-27T14:17:35Z</time>
      </trkpt>
      <trkpt lat="50.06143" lon="2.10019">
        <ele>103.2</ele>
        <time>2024-03-27T14:17:36Z</time>
      </trkpt>
      <trkpt lat="50.06144" lon="2.10018">
        <ele>103.2</ele>
        <time>2024-03-27T14:17:37Z</time>
      </trkpt>
      <trkpt lat="50.06145" lon="2.10018">
        <ele>103.2</ele>
        <time>2024-03-27T14:17:38Z</time>
      </trkpt>
      <trkpt lat="50.06146" lon="2.10017">
        <ele>103.2</ele>
        <time>2024-03-27T14:17:39Z</time>
      </trkpt>
      <trkpt lat="50.06147" lon="2.10017">
        <ele>103.2</ele>
        <time>2024-03-27T14:17:40Z</time>
      </trkpt>
      <trkpt lat="50.06148" lon="2.10016">
        <ele>103.2</ele>
        <time>2024-03-27T14:17:41Z</time>
      </trkpt>
      <trkpt lat="50.06149" lon="2.10016">
        <ele>103.2</ele>
        <time>2024-03-27T14:17:42Z</time>
      </trkpt>
      <trkpt lat="50.0615" lon="2.10015">
        <ele>103.2</ele>
        <time>2024-03-27T14:17:43Z</time>
      </trkpt>
      <trkpt lat="50.06151" lon="2.10014">
        <ele>103.2</ele>
        <time>2024-03-27T14:17:44Z</time>
      </trkpt>
      <trkpt lat="50.06152" lon="2.10013">
        <ele>103.2</ele>
        <time>2024-03-27T14:17:45Z</time>
      </trkpt>
      <trkpt lat="50.06153" lon="2.10013">
        <ele>103.2</ele>
        <time>2024-03-27T14:17:46Z</time>
      </trkpt>
      <trkpt lat="50.06154" lon="2.10012">
        <ele>103.2</ele>
        <time>2024-03-27T14:17:47Z</time>
      </trkpt>
      <trkpt lat="50.06155" lon="2.10012">
        <ele>103.2</ele>
        <time>2024-03-27T14:17:48Z</time>
      </trkpt>
      <trkpt lat="50.06155" lon="2.10011">
        <ele>103.2</ele>
        <time>2024-03-27T14:17:49Z</time>
      </trkpt>
      <trkpt lat="50.06156" lon="2.1001">
        <ele>103.2</ele>
        <time>2024-03-27T14:17:50Z</time>
      </trkpt>
      <trkpt lat="50.06157" lon="2.1001">
        <ele>103.2</ele>
        <time>2024-03-27T14:17:51Z</time>
      </trkpt>
      <trkpt lat="50.06158" lon="2.10009">
        <ele>103.2</ele>
        <time>2024-03-27T14:17:52Z</time>
      </trkpt>
      <trkpt lat="50.06159" lon="2.10009">
        <ele>103.2</ele>
        <time>2024-03-27T14:17:53Z</time>
      </trkpt>
      <trkpt lat="50.0616" lon="2.10008">
        <ele>103.2</ele>
        <time>2024-03-27T14:17:54Z</time>
      </trkpt>
      <trkpt lat="50.06161" lon="2.10007">
        <ele>103.2</ele>
        <time>2024-03-27T14:17:55Z</time>
      </trkpt>
      <trkpt lat="50.06162" lon="2.10007">
        <ele>103.2</ele>
        <time>2024-03-27T14:17:56Z</time>
      </trkpt>
      <trkpt lat="50.06163" lon="2.10006">
        <ele>103.2</ele>
        <time>2024-03-27T14:17:57Z</time>
      </trkpt>
      <trkpt lat="50.06164" lon="2.10006">
        <ele>103.2</ele>
        <time>2024-03-27T14:17:58Z</time>
      </trkpt>
      <trkpt lat="50.06164" lon="2.10005">
        <ele>103.2</ele>
        <time>2024-03-27T14:17:59Z</time>
      </trkpt>
      <trkpt lat="50.06165" lon="2.10004">
        <ele>103.2</ele>
        <time>2024-03-27T14:18:00Z</time>
      </trkpt>
      <trkpt lat="50.06166" lon="2.10004">
        <ele>103.2</ele>
        <time>2024-03-27T14:18:01Z</time>
      </trkpt>
      <trkpt lat="50.06167" lon="2.10003">
        <ele>103.2</ele>
        <time>2024-03-27T14:18:02Z</time>
      </trkpt>
      <trkpt lat="50.06168" lon="2.10002">
        <ele>103.2</ele>
        <time>2024-03-27T14:18:03Z</time>
      </trkpt>
      <trkpt lat="50.06169" lon="2.10001">
        <ele>103.2</ele>
        <time>2024-03-27T14:18:04Z</time>
      </trkpt>
      <trkpt lat="50.0617" lon="2.1">
        <ele>103.2</ele>
        <time>2024-03-27T14:18:05Z</time>
      </trkpt>
      <trkpt lat="50.06171" lon="2.1">
        <ele>103.2</ele>
        <time>2024-03-27T14:18:06Z</time>
      </trkpt>
      <trkpt lat="50.06172" lon="2.09999">
        <ele>103.2</ele>
        <time>2024-03-27T14:18:07Z</time>
      </trkpt>
      <trkpt lat="50.06173" lon="2.09999">
        <ele>103.2</ele>
        <time>2024-03-27T14:18:08Z</time>
      </trkpt>
      <trkpt lat="50.06174" lon="2.09998">
        <ele>103.2</ele>
        <time>2024-03-27T14:18:09Z</time>
      </trkpt>
      <trkpt lat="50.06175" lon="2.09997">
        <ele>103.2</ele>
        <time>2024-03-27T14:18:10Z</time>
      </trkpt>
      <trkpt lat="50.06176" lon="2.09997">
        <ele>103.2</ele>
        <time>2024-03-27T14:18:11Z</time>
      </trkpt>
      <trkpt lat="50.06177" lon="2.09996">
        <ele>103.2</ele>
        <time>2024-03-27T14:18:12Z</time>
      </trkpt>
      <trkpt lat="50.06178" lon="2.09995">
        <ele>103.2</ele>
        <time>2024-03-27T14:18:13Z</time>
      </trkpt>
      <trkpt lat="50.06179" lon="2.09995">
        <ele>103.2</ele>
        <time>2024-03-27T14:18:14Z</time>
      </trkpt>
      <trkpt lat="50.0618" lon="2.09994">
        <ele>103.2</ele>
        <time>2024-03-27T14:18:15Z</time>
      </trkpt>
      <trkpt lat="50.06181" lon="2.09993">
        <ele>103.2</ele>
        <time>2024-03-27T14:18:16Z</time>
      </trkpt>
      <trkpt lat="50.06182" lon="2.09993">
        <ele>103.2</ele>
        <time>2024-03-27T14:18:17Z</time>
      </trkpt>
      <trkpt lat="50.06183" lon="2.09992">
        <ele>103.2</ele>
        <time>2024-03-27T14:18:18Z</time>
      </trkpt>
      <trkpt lat="50.06184" lon="2.09992">
        <ele>103.2</ele>
        <time>2024-03-27T14:18:19Z</time>
      </trkpt>
      <trkpt lat="50.06185" lon="2.09991">
        <ele>103.2</ele>
        <time>2024-03-27T14:18:20Z</time>
      </trkpt>
      <trkpt lat="50.06186" lon="2.0999">
        <ele>103.2</ele>
        <time>2024-03-27T14:18:21Z</time>
      </trkpt>
      <trkpt lat="50.06187" lon="2.09989">
        <ele>103.2</ele>
        <time>2024-03-27T14:18:22Z</time>
      </trkpt>
      <trkpt lat="50.06188" lon="2.09989">
        <ele>103.2</ele>
        <time>2024-03-27T14:18:23Z</time>
      </trkpt>
      <trkpt lat="50.06189" lon="2.09987">
        <ele>103.2</ele>
        <time>2024-03-27T14:18:24Z</time>
      </trkpt>
      <trkpt lat="50.06189" lon="2.09986">
        <ele>103.2</ele>
        <time>2024-03-27T14:18:25Z</time>
      </trkpt>
      <trkpt lat="50.06189" lon="2.09985">
        <ele>103.2</ele>
        <time>2024-03-27T14:18:26Z</time>
      </trkpt>
      <trkpt lat="50.0619" lon="2.09985">
        <ele>103.2</ele>
        <time>2024-03-27T14:18:27Z</time>
      </trkpt>
      <trkpt lat="50.06191" lon="2.09985">
        <ele>103.2</ele>
        <time>2024-03-27T14:18:28Z</time>
      </trkpt>
      <trkpt lat="50.06191" lon="2.09985">
        <ele>103.2</ele>
        <time>2024-03-27T14:18:29Z</time>
      </trkpt>
      <trkpt lat="50.06191" lon="2.09987">
        <ele>103.2</ele>
        <time>2024-03-27T14:18:30Z</time>
      </trkpt>
      <trkpt lat="50.06191" lon="2.09988">
        <ele>103.2</ele>
        <time>2024-03-27T14:18:31Z</time>
      </trkpt>
      <trkpt lat="50.06192" lon="2.09987">
        <ele>103.2</ele>
        <time>2024-03-27T14:18:32Z</time>
      </trkpt>
      <trkpt lat="50.06193" lon="2.09986">
        <ele>103.3</ele>
        <time>2024-03-27T14:18:33Z</time>
      </trkpt>
      <trkpt lat="50.06193" lon="2.09986">
        <ele>103.3</ele>
        <time>2024-03-27T14:18:34Z</time>
      </trkpt>
      <trkpt lat="50.06194" lon="2.09985">
        <ele>103.3</ele>
        <time>2024-03-27T14:18:35Z</time>
      </trkpt>
      <trkpt lat="50.06195" lon="2.09983">
        <ele>103.3</ele>
        <time>2024-03-27T14:18:36Z</time>
      </trkpt>
      <trkpt lat="50.06195" lon="2.09982">
        <ele>103.3</ele>
        <time>2024-03-27T14:18:37Z</time>
      </trkpt>
      <trkpt lat="50.06196" lon="2.09982">
        <ele>103.3</ele>
        <time>2024-03-27T14:18:38Z</time>
      </trkpt>
      <trkpt lat="50.06197" lon="2.09981">
        <ele>103.3</ele>
        <time>2024-03-27T14:18:39Z</time>
      </trkpt>
      <trkpt lat="50.06198" lon="2.0998">
        <ele>103.3</ele>
        <time>2024-03-27T14:18:40Z</time>
      </trkpt>
      <trkpt lat="50.06199" lon="2.09981">
        <ele>103.3</ele>
        <time>2024-03-27T14:18:41Z</time>
      </trkpt>
      <trkpt lat="50.062" lon="2.09981">
        <ele>103.3</ele>
        <time>2024-03-27T14:18:42Z</time>
      </trkpt>
      <trkpt lat="50.06201" lon="2.0998">
        <ele>103.3</ele>
        <time>2024-03-27T14:18:43Z</time>
      </trkpt>
      <trkpt lat="50.06202" lon="2.0998">
        <ele>103.3</ele>
        <time>2024-03-27T14:18:44Z</time>
      </trkpt>
      <trkpt lat="50.06203" lon="2.09979">
        <ele>103.4</ele>
        <time>2024-03-27T14:18:45Z</time>
      </trkpt>
      <trkpt lat="50.06204" lon="2.09978">
        <ele>103.4</ele>
        <time>2024-03-27T14:18:46Z</time>
      </trkpt>
      <trkpt lat="50.06205" lon="2.09978">
        <ele>103.4</ele>
        <time>2024-03-27T14:18:47Z</time>
      </trkpt>
      <trkpt lat="50.06206" lon="2.09977">
        <ele>103.4</ele>
        <time>2024-03-27T14:18:48Z</time>
      </trkpt>
      <trkpt lat="50.06207" lon="2.09977">
        <ele>103.4</ele>
        <time>2024-03-27T14:18:49Z</time>
      </trkpt>
      <trkpt lat="50.06208" lon="2.09976">
        <ele>103.5</ele>
        <time>2024-03-27T14:18:50Z</time>
      </trkpt>
      <trkpt lat="50.06209" lon="2.09976">
        <ele>103.5</ele>
        <time>2024-03-27T14:18:51Z</time>
      </trkpt>
      <trkpt lat="50.0621" lon="2.09975">
        <ele>103.5</ele>
        <time>2024-03-27T14:18:52Z</time>
      </trkpt>
      <trkpt lat="50.06211" lon="2.09974">
        <ele>103.5</ele>
        <time>2024-03-27T14:18:53Z</time>
      </trkpt>
      <trkpt lat="50.06212" lon="2.09973">
        <ele>103.5</ele>
        <time>2024-03-27T14:18:54Z</time>
      </trkpt>
      <trkpt lat="50.06213" lon="2.09973">
        <ele>103.5</ele>
        <time>2024-03-27T14:18:55Z</time>
      </trkpt>
      <trkpt lat="50.06214" lon="2.09972">
        <ele>103.6</ele>
        <time>2024-03-27T14:18:56Z</time>
      </trkpt>
      <trkpt lat="50.06215" lon="2.09972">
        <ele>103.6</ele>
        <time>2024-03-27T14:18:57Z</time>
      </trkpt>
      <trkpt lat="50.06216" lon="2.09971">
        <ele>103.6</ele>
        <time>2024-03-27T14:18:58Z</time>
      </trkpt>
      <trkpt lat="50.06217" lon="2.0997">
        <ele>103.6</ele>
        <time>2024-03-27T14:18:59Z</time>
      </trkpt>
      <trkpt lat="50.06218" lon="2.0997">
        <ele>103.7</ele>
        <time>2024-03-27T14:19:00Z</time>
      </trkpt>
      <trkpt lat="50.0622" lon="2.09969">
        <ele>103.7</ele>
        <time>2024-03-27T14:19:01Z</time>
      </trkpt>
      <trkpt lat="50.06221" lon="2.09968">
        <ele>103.7</ele>
        <time>2024-03-27T14:19:02Z</time>
      </trkpt>
      <trkpt lat="50.06222" lon="2.09968">
        <ele>103.8</ele>
        <time>2024-03-27T14:19:03Z</time>
      </trkpt>
      <trkpt lat="50.06223" lon="2.09967">
        <ele>103.8</ele>
        <time>2024-03-27T14:19:04Z</time>
      </trkpt>
      <trkpt lat="50.06225" lon="2.09966">
        <ele>103.8</ele>
        <time>2024-03-27T14:19:05Z</time>
      </trkpt>
      <trkpt lat="50.06227" lon="2.09965">
        <ele>103.9</ele>
        <time>2024-03-27T14:19:06Z</time>
      </trkpt>
      <trkpt lat="50.06228" lon="2.09964">
        <ele>103.9</ele>
        <time>2024-03-27T14:19:07Z</time>
      </trkpt>
      <trkpt lat="50.06229" lon="2.09964">
        <ele>103.9</ele>
        <time>2024-03-27T14:19:08Z</time>
      </trkpt>
      <trkpt lat="50.06231" lon="2.09962">
        <ele>104</ele>
        <time>2024-03-27T14:19:09Z</time>
      </trkpt>
      <trkpt lat="50.06231" lon="2.09962">
        <ele>104</ele>
        <time>2024-03-27T14:19:10Z</time>
      </trkpt>
      <trkpt lat="50.06232" lon="2.09961">
        <ele>104</ele>
        <time>2024-03-27T14:19:11Z</time>
      </trkpt>
      <trkpt lat="50.06234" lon="2.09959">
        <ele>104.1</ele>
        <time>2024-03-27T14:19:12Z</time>
      </trkpt>
      <trkpt lat="50.06235" lon="2.09959">
        <ele>104.1</ele>
        <time>2024-03-27T14:19:13Z</time>
      </trkpt>
      <trkpt lat="50.06235" lon="2.09958">
        <ele>104.1</ele>
        <time>2024-03-27T14:19:14Z</time>
      </trkpt>
      <trkpt lat="50.06236" lon="2.09958">
        <ele>104.1</ele>
        <time>2024-03-27T14:19:15Z</time>
      </trkpt>
      <trkpt lat="50.06237" lon="2.09957">
        <ele>104.2</ele>
        <time>2024-03-27T14:19:16Z</time>
      </trkpt>
      <trkpt lat="50.06238" lon="2.09956">
        <ele>104.2</ele>
        <time>2024-03-27T14:19:17Z</time>
      </trkpt>
      <trkpt lat="50.06239" lon="2.09955">
        <ele>104.2</ele>
        <time>2024-03-27T14:19:18Z</time>
      </trkpt>
      <trkpt lat="50.0624" lon="2.09954">
        <ele>104.3</ele>
        <time>2024-03-27T14:19:19Z</time>
      </trkpt>
      <trkpt lat="50.06241" lon="2.09953">
        <ele>104.3</ele>
        <time>2024-03-27T14:19:20Z</time>
      </trkpt>
      <trkpt lat="50.06242" lon="2.09953">
        <ele>104.3</ele>
        <time>2024-03-27T14:19:21Z</time>
      </trkpt>
      <trkpt lat="50.06243" lon="2.09952">
        <ele>104.3</ele>
        <time>2024-03-27T14:19:22Z</time>
      </trkpt>
      <trkpt lat="50.06243" lon="2.09951">
        <ele>104.4</ele>
        <time>2024-03-27T14:19:23Z</time>
      </trkpt>
      <trkpt lat="50.06244" lon="2.0995">
        <ele>104.4</ele>
        <time>2024-03-27T14:19:24Z</time>
      </trkpt>
      <trkpt lat="50.06245" lon="2.09949">
        <ele>104.4</ele>
        <time>2024-03-27T14:19:25Z</time>
      </trkpt>
      <trkpt lat="50.06246" lon="2.09948">
        <ele>104.5</ele>
        <time>2024-03-27T14:19:26Z</time>
      </trkpt>
      <trkpt lat="50.06247" lon="2.09947">
        <ele>104.5</ele>
        <time>2024-03-27T14:19:27Z</time>
      </trkpt>
      <trkpt lat="50.06248" lon="2.09946">
        <ele>104.5</ele>
        <time>2024-03-27T14:19:28Z</time>
      </trkpt>
      <trkpt lat="50.06248" lon="2.09945">
        <ele>104.5</ele>
        <time>2024-03-27T14:19:29Z</time>
      </trkpt>
      <trkpt lat="50.06249" lon="2.09945">
        <ele>104.6</ele>
        <time>2024-03-27T14:19:30Z</time>
      </trkpt>
      <trkpt lat="50.0625" lon="2.09944">
        <ele>104.6</ele>
        <time>2024-03-27T14:19:31Z</time>
      </trkpt>
      <trkpt lat="50.06251" lon="2.09943">
        <ele>104.6</ele>
        <time>2024-03-27T14:19:32Z</time>
      </trkpt>
      <trkpt lat="50.06252" lon="2.09943">
        <ele>104.7</ele>
        <time>2024-03-27T14:19:33Z</time>
      </trkpt>
      <trkpt lat="50.06253" lon="2.09942">
        <ele>104.7</ele>
        <time>2024-03-27T14:19:34Z</time>
      </trkpt>
      <trkpt lat="50.06254" lon="2.09941">
        <ele>104.7</ele>
        <time>2024-03-27T14:19:35Z</time>
      </trkpt>
      <trkpt lat="50.06255" lon="2.0994">
        <ele>104.7</ele>
        <time>2024-03-27T14:19:36Z</time>
      </trkpt>
      <trkpt lat="50.06255" lon="2.0994">
        <ele>104.8</ele>
        <time>2024-03-27T14:19:37Z</time>
      </trkpt>
      <trkpt lat="50.06256" lon="2.09939">
        <ele>104.8</ele>
        <time>2024-03-27T14:19:38Z</time>
      </trkpt>
      <trkpt lat="50.06257" lon="2.09938">
        <ele>104.8</ele>
        <time>2024-03-27T14:19:39Z</time>
      </trkpt>
      <trkpt lat="50.06258" lon="2.09938">
        <ele>104.8</ele>
        <time>2024-03-27T14:19:40Z</time>
      </trkpt>
      <trkpt lat="50.06259" lon="2.09937">
        <ele>104.9</ele>
        <time>2024-03-27T14:19:41Z</time>
      </trkpt>
      <trkpt lat="50.0626" lon="2.09937">
        <ele>104.9</ele>
        <time>2024-03-27T14:19:42Z</time>
      </trkpt>
      <trkpt lat="50.06261" lon="2.09936">
        <ele>104.9</ele>
        <time>2024-03-27T14:19:43Z</time>
      </trkpt>
      <trkpt lat="50.06262" lon="2.09935">
        <ele>104.9</ele>
        <time>2024-03-27T14:19:44Z</time>
      </trkpt>
      <trkpt lat="50.06263" lon="2.09935">
        <ele>105</ele>
        <time>2024-03-27T14:19:45Z</time>
      </trkpt>
      <trkpt lat="50.06264" lon="2.09934">
        <ele>105</ele>
        <time>2024-03-27T14:19:46Z</time>
      </trkpt>
      <trkpt lat="50.06265" lon="2.09933">
        <ele>105</ele>
        <time>2024-03-27T14:19:47Z</time>
      </trkpt>
      <trkpt lat="50.06266" lon="2.09932">
        <ele>105.1</ele>
        <time>2024-03-27T14:19:48Z</time>
      </trkpt>
      <trkpt lat="50.06266" lon="2.09931">
        <ele>105.1</ele>
        <time>2024-03-27T14:19:49Z</time>
      </trkpt>
      <trkpt lat="50.06267" lon="2.09931">
        <ele>105.1</ele>
        <time>2024-03-27T14:19:50Z</time>
      </trkpt>
      <trkpt lat="50.06268" lon="2.0993">
        <ele>105.2</ele>
        <time>2024-03-27T14:19:51Z</time>
      </trkpt>
      <trkpt lat="50.06269" lon="2.09929">
        <ele>105.2</ele>
        <time>2024-03-27T14:19:52Z</time>
      </trkpt>
      <trkpt lat="50.0627" lon="2.09929">
        <ele>105.2</ele>
        <time>2024-03-27T14:19:53Z</time>
      </trkpt>
      <trkpt lat="50.06271" lon="2.09928">
        <ele>105.3</ele>
        <time>2024-03-27T14:19:54Z</time>
      </trkpt>
      <trkpt lat="50.06272" lon="2.09927">
        <ele>105.3</ele>
        <time>2024-03-27T14:19:55Z</time>
      </trkpt>
      <trkpt lat="50.06272" lon="2.09927">
        <ele>105.3</ele>
        <time>2024-03-27T14:19:56Z</time>
      </trkpt>
      <trkpt lat="50.06273" lon="2.09926">
        <ele>105.3</ele>
        <time>2024-03-27T14:19:57Z</time>
      </trkpt>
      <trkpt lat="50.06274" lon="2.09925">
        <ele>105.4</ele>
        <time>2024-03-27T14:19:58Z</time>
      </trkpt>
      <trkpt lat="50.06275" lon="2.09925">
        <ele>105.4</ele>
        <time>2024-03-27T14:19:59Z</time>
      </trkpt>
      <trkpt lat="50.06276" lon="2.09925">
        <ele>105.4</ele>
        <time>2024-03-27T14:20:00Z</time>
      </trkpt>
      <trkpt lat="50.06277" lon="2.09924">
        <ele>105.5</ele>
        <time>2024-03-27T14:20:01Z</time>
      </trkpt>
      <trkpt lat="50.06278" lon="2.09924">
        <ele>105.5</ele>
        <time>2024-03-27T14:20:02Z</time>
      </trkpt>
      <trkpt lat="50.06279" lon="2.09923">
        <ele>105.5</ele>
        <time>2024-03-27T14:20:03Z</time>
      </trkpt>
      <trkpt lat="50.0628" lon="2.09923">
        <ele>105.6</ele>
        <time>2024-03-27T14:20:04Z</time>
      </trkpt>
      <trkpt lat="50.06281" lon="2.09923">
        <ele>105.6</ele>
        <time>2024-03-27T14:20:05Z</time>
      </trkpt>
      <trkpt lat="50.06282" lon="2.09922">
        <ele>105.6</ele>
        <time>2024-03-27T14:20:06Z</time>
      </trkpt>
      <trkpt lat="50.06283" lon="2.09921">
        <ele>105.7</ele>
        <time>2024-03-27T14:20:07Z</time>
      </trkpt>
      <trkpt lat="50.06284" lon="2.09921">
        <ele>105.7</ele>
        <time>2024-03-27T14:20:08Z</time>
      </trkpt>
      <trkpt lat="50.06285" lon="2.0992">
        <ele>105.7</ele>
        <time>2024-03-27T14:20:09Z</time>
      </trkpt>
      <trkpt lat="50.06286" lon="2.09919">
        <ele>105.8</ele>
        <time>2024-03-27T14:20:10Z</time>
      </trkpt>
      <trkpt lat="50.06286" lon="2.09918">
        <ele>105.8</ele>
        <time>2024-03-27T14:20:11Z</time>
      </trkpt>
      <trkpt lat="50.06287" lon="2.09917">
        <ele>105.8</ele>
        <time>2024-03-27T14:20:12Z</time>
      </trkpt>
      <trkpt lat="50.06288" lon="2.09917">
        <ele>105.9</ele>
        <time>2024-03-27T14:20:13Z</time>
      </trkpt>
      <trkpt lat="50.06289" lon="2.09916">
        <ele>105.9</ele>
        <time>2024-03-27T14:20:14Z</time>
      </trkpt>
      <trkpt lat="50.0629" lon="2.09915">
        <ele>105.9</ele>
        <time>2024-03-27T14:20:15Z</time>
      </trkpt>
      <trkpt lat="50.06291" lon="2.09914">
        <ele>106</ele>
        <time>2024-03-27T14:20:16Z</time>
      </trkpt>
      <trkpt lat="50.06292" lon="2.09914">
        <ele>106</ele>
        <time>2024-03-27T14:20:17Z</time>
      </trkpt>
      <trkpt lat="50.06293" lon="2.09913">
        <ele>106</ele>
        <time>2024-03-27T14:20:18Z</time>
      </trkpt>
      <trkpt lat="50.06294" lon="2.09912">
        <ele>106.1</ele>
        <time>2024-03-27T14:20:19Z</time>
      </trkpt>
      <trkpt lat="50.06295" lon="2.09912">
        <ele>106.1</ele>
        <time>2024-03-27T14:20:20Z</time>
      </trkpt>
      <trkpt lat="50.06295" lon="2.09911">
        <ele>106.1</ele>
        <time>2024-03-27T14:20:21Z</time>
      </trkpt>
      <trkpt lat="50.06296" lon="2.09911">
        <ele>106.1</ele>
        <time>2024-03-27T14:20:22Z</time>
      </trkpt>
      <trkpt lat="50.06297" lon="2.0991">
        <ele>106.2</ele>
        <time>2024-03-27T14:20:23Z</time>
      </trkpt>
      <trkpt lat="50.06298" lon="2.0991">
        <ele>106.2</ele>
        <time>2024-03-27T14:20:24Z</time>
      </trkpt>
      <trkpt lat="50.06299" lon="2.09909">
        <ele>106.2</ele>
        <time>2024-03-27T14:20:25Z</time>
      </trkpt>
      <trkpt lat="50.063" lon="2.09908">
        <ele>106.2</ele>
        <time>2024-03-27T14:20:26Z</time>
      </trkpt>
      <trkpt lat="50.06301" lon="2.09908">
        <ele>106.3</ele>
        <time>2024-03-27T14:20:27Z</time>
      </trkpt>
      <trkpt lat="50.06301" lon="2.09907">
        <ele>106.3</ele>
        <time>2024-03-27T14:20:28Z</time>
      </trkpt>
      <trkpt lat="50.06302" lon="2.09907">
        <ele>106.3</ele>
        <time>2024-03-27T14:20:29Z</time>
      </trkpt>
      <trkpt lat="50.06303" lon="2.09907">
        <ele>106.3</ele>
        <time>2024-03-27T14:20:30Z</time>
      </trkpt>
      <trkpt lat="50.06304" lon="2.09906">
        <ele>106.4</ele>
        <time>2024-03-27T14:20:31Z</time>
      </trkpt>
      <trkpt lat="50.06305" lon="2.09906">
        <ele>106.4</ele>
        <time>2024-03-27T14:20:32Z</time>
      </trkpt>
      <trkpt lat="50.06306" lon="2.09905">
        <ele>106.4</ele>
        <time>2024-03-27T14:20:33Z</time>
      </trkpt>
      <trkpt lat="50.06307" lon="2.09905">
        <ele>106.4</ele>
        <time>2024-03-27T14:20:34Z</time>
      </trkpt>
      <trkpt lat="50.06308" lon="2.09904">
        <ele>106.4</ele>
        <time>2024-03-27T14:20:35Z</time>
      </trkpt>
      <trkpt lat="50.06308" lon="2.09904">
        <ele>106.4</ele>
        <time>2024-03-27T14:20:36Z</time>
      </trkpt>
      <trkpt lat="50.06309" lon="2.09904">
        <ele>106.5</ele>
        <time>2024-03-27T14:20:37Z</time>
      </trkpt>
      <trkpt lat="50.0631" lon="2.09903">
        <ele>106.5</ele>
        <time>2024-03-27T14:20:38Z</time>
      </trkpt>
      <trkpt lat="50.06311" lon="2.09903">
        <ele>106.5</ele>
        <time>2024-03-27T14:20:39Z</time>
      </trkpt>
      <trkpt lat="50.06312" lon="2.09902">
        <ele>106.5</ele>
        <time>2024-03-27T14:20:40Z</time>
      </trkpt>
      <trkpt lat="50.06313" lon="2.09902">
        <ele>106.5</ele>
        <time>2024-03-27T14:20:41Z</time>
      </trkpt>
      <trkpt lat="50.06314" lon="2.09901">
        <ele>106.6</ele>
        <time>2024-03-27T14:20:42Z</time>
      </trkpt>
      <trkpt lat="50.06315" lon="2.09901">
        <ele>106.6</ele>
        <time>2024-03-27T14:20:43Z</time>
      </trkpt>
      <trkpt lat="50.06316" lon="2.099">
        <ele>106.6</ele>
        <time>2024-03-27T14:20:44Z</time>
      </trkpt>
      <trkpt lat="50.06317" lon="2.09899">
        <ele>106.6</ele>
        <time>2024-03-27T14:20:45Z</time>
      </trkpt>
      <trkpt lat="50.06318" lon="2.09898">
        <ele>106.6</ele>
        <time>2024-03-27T14:20:46Z</time>
      </trkpt>
      <trkpt lat="50.06319" lon="2.09898">
        <ele>106.6</ele>
        <time>2024-03-27T14:20:47Z</time>
      </trkpt>
      <trkpt lat="50.0632" lon="2.09898">
        <ele>106.7</ele>
        <time>2024-03-27T14:20:48Z</time>
      </trkpt>
      <trkpt lat="50.0632" lon="2.09897">
        <ele>106.7</ele>
        <time>2024-03-27T14:20:49Z</time>
      </trkpt>
      <trkpt lat="50.06321" lon="2.09896">
        <ele>106.7</ele>
        <time>2024-03-27T14:20:50Z</time>
      </trkpt>
      <trkpt lat="50.06322" lon="2.09895">
        <ele>106.7</ele>
        <time>2024-03-27T14:20:51Z</time>
      </trkpt>
      <trkpt lat="50.06323" lon="2.09894">
        <ele>106.7</ele>
        <time>2024-03-27T14:20:52Z</time>
      </trkpt>
      <trkpt lat="50.06324" lon="2.09893">
        <ele>106.7</ele>
        <time>2024-03-27T14:20:53Z</time>
      </trkpt>
      <trkpt lat="50.06325" lon="2.09892">
        <ele>106.8</ele>
        <time>2024-03-27T14:20:54Z</time>
      </trkpt>
      <trkpt lat="50.06326" lon="2.09891">
        <ele>106.8</ele>
        <time>2024-03-27T14:20:55Z</time>
      </trkpt>
      <trkpt lat="50.06327" lon="2.0989">
        <ele>106.8</ele>
        <time>2024-03-27T14:20:56Z</time>
      </trkpt>
      <trkpt lat="50.06328" lon="2.09889">
        <ele>106.8</ele>
        <time>2024-03-27T14:20:57Z</time>
      </trkpt>
      <trkpt lat="50.06329" lon="2.09888">
        <ele>106.8</ele>
        <time>2024-03-27T14:20:58Z</time>
      </trkpt>
      <trkpt lat="50.0633" lon="2.09888">
        <ele>106.8</ele>
        <time>2024-03-27T14:20:59Z</time>
      </trkpt>
      <trkpt lat="50.06331" lon="2.09887">
        <ele>106.8</ele>
        <time>2024-03-27T14:21:00Z</time>
      </trkpt>
      <trkpt lat="50.06332" lon="2.09886">
        <ele>106.8</ele>
        <time>2024-03-27T14:21:01Z</time>
      </trkpt>
      <trkpt lat="50.06333" lon="2.09886">
        <ele>106.9</ele>
        <time>2024-03-27T14:21:02Z</time>
      </trkpt>
      <trkpt lat="50.06334" lon="2.09885">
        <ele>106.9</ele>
        <time>2024-03-27T14:21:03Z</time>
      </trkpt>
      <trkpt lat="50.06335" lon="2.09885">
        <ele>106.9</ele>
        <time>2024-03-27T14:21:04Z</time>
      </trkpt>
      <trkpt lat="50.06336" lon="2.09884">
        <ele>106.9</ele>
        <time>2024-03-27T14:21:05Z</time>
      </trkpt>
      <trkpt lat="50.06337" lon="2.09883">
        <ele>106.9</ele>
        <time>2024-03-27T14:21:06Z</time>
      </trkpt>
      <trkpt lat="50.06337" lon="2.09882">
        <ele>106.9</ele>
        <time>2024-03-27T14:21:07Z</time>
      </trkpt>
      <trkpt lat="50.06338" lon="2.09881">
        <ele>106.9</ele>
        <time>2024-03-27T14:21:08Z</time>
      </trkpt>
      <trkpt lat="50.06339" lon="2.0988">
        <ele>106.9</ele>
        <time>2024-03-27T14:21:09Z</time>
      </trkpt>
      <trkpt lat="50.0634" lon="2.09879">
        <ele>106.9</ele>
        <time>2024-03-27T14:21:10Z</time>
      </trkpt>
      <trkpt lat="50.06341" lon="2.09878">
        <ele>106.9</ele>
        <time>2024-03-27T14:21:11Z</time>
      </trkpt>
      <trkpt lat="50.06342" lon="2.09877">
        <ele>106.9</ele>
        <time>2024-03-27T14:21:12Z</time>
      </trkpt>
      <trkpt lat="50.06343" lon="2.09876">
        <ele>106.9</ele>
        <time>2024-03-27T14:21:13Z</time>
      </trkpt>
      <trkpt lat="50.06344" lon="2.09875">
        <ele>106.9</ele>
        <time>2024-03-27T14:21:14Z</time>
      </trkpt>
      <trkpt lat="50.06345" lon="2.09874">
        <ele>106.9</ele>
        <time>2024-03-27T14:21:15Z</time>
      </trkpt>
      <trkpt lat="50.06345" lon="2.09874">
        <ele>106.9</ele>
        <time>2024-03-27T14:21:16Z</time>
      </trkpt>
      <trkpt lat="50.06346" lon="2.09873">
        <ele>106.9</ele>
        <time>2024-03-27T14:21:17Z</time>
      </trkpt>
      <trkpt lat="50.06347" lon="2.09872">
        <ele>106.9</ele>
        <time>2024-03-27T14:21:18Z</time>
      </trkpt>
      <trkpt lat="50.06348" lon="2.09872">
        <ele>106.9</ele>
        <time>2024-03-27T14:21:19Z</time>
      </trkpt>
      <trkpt lat="50.06349" lon="2.09872">
        <ele>106.9</ele>
        <time>2024-03-27T14:21:20Z</time>
      </trkpt>
      <trkpt lat="50.0635" lon="2.09871">
        <ele>106.8</ele>
        <time>2024-03-27T14:21:21Z</time>
      </trkpt>
      <trkpt lat="50.06351" lon="2.09871">
        <ele>106.8</ele>
        <time>2024-03-27T14:21:22Z</time>
      </trkpt>
      <trkpt lat="50.06352" lon="2.09871">
        <ele>106.8</ele>
        <time>2024-03-27T14:21:23Z</time>
      </trkpt>
      <trkpt lat="50.06353" lon="2.09871">
        <ele>106.8</ele>
        <time>2024-03-27T14:21:24Z</time>
      </trkpt>
      <trkpt lat="50.06354" lon="2.09871">
        <ele>106.8</ele>
        <time>2024-03-27T14:21:25Z</time>
      </trkpt>
      <trkpt lat="50.06355" lon="2.09871">
        <ele>106.8</ele>
        <time>2024-03-27T14:21:26Z</time>
      </trkpt>
      <trkpt lat="50.06356" lon="2.09871">
        <ele>106.8</ele>
        <time>2024-03-27T14:21:27Z</time>
      </trkpt>
      <trkpt lat="50.06357" lon="2.09871">
        <ele>106.8</ele>
        <time>2024-03-27T14:21:28Z</time>
      </trkpt>
      <trkpt lat="50.06357" lon="2.09872">
        <ele>106.8</ele>
        <time>2024-03-27T14:21:29Z</time>
      </trkpt>
      <trkpt lat="50.06358" lon="2.09871">
        <ele>106.8</ele>
        <time>2024-03-27T14:21:30Z</time>
      </trkpt>
      <trkpt lat="50.06358" lon="2.09871">
        <ele>106.8</ele>
        <time>2024-03-27T14:21:31Z</time>
      </trkpt>
      <trkpt lat="50.06358" lon="2.0987">
        <ele>106.8</ele>
        <time>2024-03-27T14:21:32Z</time>
      </trkpt>
      <trkpt lat="50.06358" lon="2.0987">
        <ele>106.8</ele>
        <time>2024-03-27T14:21:33Z</time>
      </trkpt>
      <trkpt lat="50.06359" lon="2.0987">
        <ele>106.8</ele>
        <time>2024-03-27T14:21:34Z</time>
      </trkpt>
      <trkpt lat="50.06359" lon="2.09869">
        <ele>106.8</ele>
        <time>2024-03-27T14:21:35Z</time>
      </trkpt>
      <trkpt lat="50.0636" lon="2.09869">
        <ele>106.7</ele>
        <time>2024-03-27T14:21:36Z</time>
      </trkpt>
      <trkpt lat="50.06361" lon="2.09868">
        <ele>106.7</ele>
        <time>2024-03-27T14:21:37Z</time>
      </trkpt>
      <trkpt lat="50.06362" lon="2.09868">
        <ele>106.7</ele>
        <time>2024-03-27T14:21:38Z</time>
      </trkpt>
      <trkpt lat="50.06363" lon="2.09868">
        <ele>106.7</ele>
        <time>2024-03-27T14:21:39Z</time>
      </trkpt>
      <trkpt lat="50.06364" lon="2.09868">
        <ele>106.7</ele>
        <time>2024-03-27T14:21:40Z</time>
      </trkpt>
      <trkpt lat="50.06366" lon="2.09867">
        <ele>106.7</ele>
        <time>2024-03-27T14:21:41Z</time>
      </trkpt>
      <trkpt lat="50.06366" lon="2.09866">
        <ele>106.7</ele>
        <time>2024-03-27T14:21:42Z</time>
      </trkpt>
      <trkpt lat="50.06367" lon="2.09866">
        <ele>106.6</ele>
        <time>2024-03-27T14:21:43Z</time>
      </trkpt>
      <trkpt lat="50.06369" lon="2.09865">
        <ele>106.6</ele>
        <time>2024-03-27T14:21:44Z</time>
      </trkpt>
      <trkpt lat="50.0637" lon="2.09865">
        <ele>106.6</ele>
        <time>2024-03-27T14:21:45Z</time>
      </trkpt>
      <trkpt lat="50.06371" lon="2.09864">
        <ele>106.6</ele>
        <time>2024-03-27T14:21:46Z</time>
      </trkpt>
      <trkpt lat="50.06372" lon="2.09863">
        <ele>106.6</ele>
        <time>2024-03-27T14:21:47Z</time>
      </trkpt>
      <trkpt lat="50.06373" lon="2.09862">
        <ele>106.5</ele>
        <time>2024-03-27T14:21:48Z</time>
      </trkpt>
      <trkpt lat="50.06376" lon="2.09861">
        <ele>106.5</ele>
        <time>2024-03-27T14:21:49Z</time>
      </trkpt>
      <trkpt lat="50.06377" lon="2.09861">
        <ele>106.4</ele>
        <time>2024-03-27T14:21:50Z</time>
      </trkpt>
      <trkpt lat="50.06379" lon="2.0986">
        <ele>106.4</ele>
        <time>2024-03-27T14:21:51Z</time>
      </trkpt>
      <trkpt lat="50.0638" lon="2.0986">
        <ele>106.4</ele>
        <time>2024-03-27T14:21:52Z</time>
      </trkpt>
      <trkpt lat="50.06382" lon="2.09859">
        <ele>106.3</ele>
        <time>2024-03-27T14:21:53Z</time>
      </trkpt>
      <trkpt lat="50.06383" lon="2.09859">
        <ele>106.3</ele>
        <time>2024-03-27T14:21:54Z</time>
      </trkpt>
      <trkpt lat="50.06384" lon="2.09858">
        <ele>106.3</ele>
        <time>2024-03-27T14:21:55Z</time>
      </trkpt>
      <trkpt lat="50.06386" lon="2.09857">
        <ele>106.2</ele>
        <time>2024-03-27T14:21:56Z</time>
      </trkpt>
      <trkpt lat="50.06386" lon="2.09857">
        <ele>106.2</ele>
        <time>2024-03-27T14:21:57Z</time>
      </trkpt>
      <trkpt lat="50.06387" lon="2.09856">
        <ele>106.2</ele>
        <time>2024-03-27T14:21:58Z</time>
      </trkpt>
      <trkpt lat="50.06389" lon="2.09855">
        <ele>106.1</ele>
        <time>2024-03-27T14:21:59Z</time>
      </trkpt>
      <trkpt lat="50.0639" lon="2.09855">
        <ele>106.1</ele>
        <time>2024-03-27T14:22:00Z</time>
      </trkpt>
      <trkpt lat="50.06391" lon="2.09854">
        <ele>106.1</ele>
        <time>2024-03-27T14:22:01Z</time>
      </trkpt>
      <trkpt lat="50.06392" lon="2.09854">
        <ele>106.1</ele>
        <time>2024-03-27T14:22:02Z</time>
      </trkpt>
      <trkpt lat="50.06393" lon="2.09853">
        <ele>106</ele>
        <time>2024-03-27T14:22:03Z</time>
      </trkpt>
      <trkpt lat="50.06394" lon="2.09853">
        <ele>106</ele>
        <time>2024-03-27T14:22:04Z</time>
      </trkpt>
      <trkpt lat="50.06395" lon="2.09853">
        <ele>106</ele>
        <time>2024-03-27T14:22:05Z</time>
      </trkpt>
      <trkpt lat="50.06396" lon="2.09852">
        <ele>105.9</ele>
        <time>2024-03-27T14:22:06Z</time>
      </trkpt>
      <trkpt lat="50.06397" lon="2.09852">
        <ele>105.9</ele>
        <time>2024-03-27T14:22:07Z</time>
      </trkpt>
      <trkpt lat="50.06398" lon="2.09852">
        <ele>105.8</ele>
        <time>2024-03-27T14:22:08Z</time>
      </trkpt>
      <trkpt lat="50.06399" lon="2.09851">
        <ele>105.8</ele>
        <time>2024-03-27T14:22:09Z</time>
      </trkpt>
      <trkpt lat="50.064" lon="2.09851">
        <ele>105.8</ele>
        <time>2024-03-27T14:22:10Z</time>
      </trkpt>
      <trkpt lat="50.06402" lon="2.0985">
        <ele>105.7</ele>
        <time>2024-03-27T14:22:11Z</time>
      </trkpt>
      <trkpt lat="50.06403" lon="2.0985">
        <ele>105.7</ele>
        <time>2024-03-27T14:22:12Z</time>
      </trkpt>
      <trkpt lat="50.06403" lon="2.0985">
        <ele>105.7</ele>
        <time>2024-03-27T14:22:13Z</time>
      </trkpt>
      <trkpt lat="50.06404" lon="2.09849">
        <ele>105.6</ele>
        <time>2024-03-27T14:22:14Z</time>
      </trkpt>
      <trkpt lat="50.06406" lon="2.09849">
        <ele>105.6</ele>
        <time>2024-03-27T14:22:15Z</time>
      </trkpt>
      <trkpt lat="50.06407" lon="2.09849">
        <ele>105.6</ele>
        <time>2024-03-27T14:22:16Z</time>
      </trkpt>
      <trkpt lat="50.06407" lon="2.09848">
        <ele>105.5</ele>
        <time>2024-03-27T14:22:17Z</time>
      </trkpt>
      <trkpt lat="50.06408" lon="2.09848">
        <ele>105.5</ele>
        <time>2024-03-27T14:22:18Z</time>
      </trkpt>
      <trkpt lat="50.06409" lon="2.09848">
        <ele>105.4</ele>
        <time>2024-03-27T14:22:19Z</time>
      </trkpt>
      <trkpt lat="50.0641" lon="2.09848">
        <ele>105.4</ele>
        <time>2024-03-27T14:22:20Z</time>
      </trkpt>
      <trkpt lat="50.06411" lon="2.09848">
        <ele>105.4</ele>
        <time>2024-03-27T14:22:21Z</time>
      </trkpt>
      <trkpt lat="50.06412" lon="2.09847">
        <ele>105.3</ele>
        <time>2024-03-27T14:22:22Z</time>
      </trkpt>
      <trkpt lat="50.06413" lon="2.09847">
        <ele>105.3</ele>
        <time>2024-03-27T14:22:23Z</time>
      </trkpt>
      <trkpt lat="50.06414" lon="2.09846">
        <ele>105.3</ele>
        <time>2024-03-27T14:22:24Z</time>
      </trkpt>
      <trkpt lat="50.06415" lon="2.09846">
        <ele>105.2</ele>
        <time>2024-03-27T14:22:25Z</time>
      </trkpt>
      <trkpt lat="50.06416" lon="2.09846">
        <ele>105.2</ele>
        <time>2024-03-27T14:22:26Z</time>
      </trkpt>
      <trkpt lat="50.06417" lon="2.09845">
        <ele>105.2</ele>
        <time>2024-03-27T14:22:27Z</time>
      </trkpt>
      <trkpt lat="50.06418" lon="2.09845">
        <ele>105.1</ele>
        <time>2024-03-27T14:22:28Z</time>
      </trkpt>
      <trkpt lat="50.06418" lon="2.09845">
        <ele>105.1</ele>
        <time>2024-03-27T14:22:29Z</time>
      </trkpt>
      <trkpt lat="50.06419" lon="2.09844">
        <ele>105.1</ele>
        <time>2024-03-27T14:22:30Z</time>
      </trkpt>
      <trkpt lat="50.0642" lon="2.09843">
        <ele>105</ele>
        <time>2024-03-27T14:22:31Z</time>
      </trkpt>
      <trkpt lat="50.0642" lon="2.09842">
        <ele>105</ele>
        <time>2024-03-27T14:22:32Z</time>
      </trkpt>
      <trkpt lat="50.06421" lon="2.09841">
        <ele>104.9</ele>
        <time>2024-03-27T14:22:33Z</time>
      </trkpt>
      <trkpt lat="50.06421" lon="2.0984">
        <ele>104.9</ele>
        <time>2024-03-27T14:22:34Z</time>
      </trkpt>
      <trkpt lat="50.06421" lon="2.09839">
        <ele>104.9</ele>
        <time>2024-03-27T14:22:35Z</time>
      </trkpt>
      <trkpt lat="50.06421" lon="2.09838">
        <ele>104.9</ele>
        <time>2024-03-27T14:22:36Z</time>
      </trkpt>
      <trkpt lat="50.06422" lon="2.09838">
        <ele>104.9</ele>
        <time>2024-03-27T14:22:37Z</time>
      </trkpt>
      <trkpt lat="50.06422" lon="2.09838">
        <ele>104.9</ele>
        <time>2024-03-27T14:22:38Z</time>
      </trkpt>
      <trkpt lat="50.06422" lon="2.09838">
        <ele>104.9</ele>
        <time>2024-03-27T14:22:39Z</time>
      </trkpt>
      <trkpt lat="50.06422" lon="2.09839">
        <ele>104.9</ele>
        <time>2024-03-27T14:22:40Z</time>
      </trkpt>
      <trkpt lat="50.06421" lon="2.09839">
        <ele>104.8</ele>
        <time>2024-03-27T14:22:41Z</time>
      </trkpt>
      <trkpt lat="50.06421" lon="2.09839">
        <ele>104.8</ele>
        <time>2024-03-27T14:22:42Z</time>
      </trkpt>
      <trkpt lat="50.06421" lon="2.09839">
        <ele>104.8</ele>
        <time>2024-03-27T14:22:43Z</time>
      </trkpt>
      <trkpt lat="50.06421" lon="2.09839">
        <ele>104.8</ele>
        <time>2024-03-27T14:22:44Z</time>
      </trkpt>
      <trkpt lat="50.0642" lon="2.09839">
        <ele>104.8</ele>
        <time>2024-03-27T14:22:45Z</time>
      </trkpt>
      <trkpt lat="50.0642" lon="2.09839">
        <ele>104.8</ele>
        <time>2024-03-27T14:22:46Z</time>
      </trkpt>
      <trkpt lat="50.0642" lon="2.09839">
        <ele>104.8</ele>
        <time>2024-03-27T14:22:47Z</time>
      </trkpt>
      <trkpt lat="50.0642" lon="2.09839">
        <ele>104.8</ele>
        <time>2024-03-27T14:22:48Z</time>
      </trkpt>
      <trkpt lat="50.0642" lon="2.09839">
        <ele>104.8</ele>
        <time>2024-03-27T14:22:49Z</time>
      </trkpt>
      <trkpt lat="50.0642" lon="2.09839">
        <ele>104.8</ele>
        <time>2024-03-27T14:22:50Z</time>
      </trkpt>
      <trkpt lat="50.0642" lon="2.09839">
        <ele>104.8</ele>
        <time>2024-03-27T14:22:51Z</time>
      </trkpt>
      <trkpt lat="50.0642" lon="2.09839">
        <ele>104.8</ele>
        <time>2024-03-27T14:22:52Z</time>
      </trkpt>
      <trkpt lat="50.0642" lon="2.09839">
        <ele>104.8</ele>
        <time>2024-03-27T14:22:53Z</time>
      </trkpt>
      <trkpt lat="50.0642" lon="2.09839">
        <ele>104.8</ele>
        <time>2024-03-27T14:22:54Z</time>
      </trkpt>
      <trkpt lat="50.0642" lon="2.09839">
        <ele>104.8</ele>
        <time>2024-03-27T14:22:55Z</time>
      </trkpt>
      <trkpt lat="50.0642" lon="2.09839">
        <ele>104.8</ele>
        <time>2024-03-27T14:22:56Z</time>
      </trkpt>
      <trkpt lat="50.0642" lon="2.09838">
        <ele>104.8</ele>
        <time>2024-03-27T14:22:57Z</time>
      </trkpt>
      <trkpt lat="50.0642" lon="2.09838">
        <ele>104.8</ele>
        <time>2024-03-27T14:22:58Z</time>
      </trkpt>
      <trkpt lat="50.0642" lon="2.09838">
        <ele>104.8</ele>
        <time>2024-03-27T14:22:59Z</time>
      </trkpt>
      <trkpt lat="50.0642" lon="2.09838">
        <ele>104.8</ele>
        <time>2024-03-27T14:23:00Z</time>
      </trkpt>
      <trkpt lat="50.0642" lon="2.09838">
        <ele>104.8</ele>
        <time>2024-03-27T14:23:01Z</time>
      </trkpt>
      <trkpt lat="50.0642" lon="2.09838">
        <ele>104.8</ele>
        <time>2024-03-27T14:23:02Z</time>
      </trkpt>
      <trkpt lat="50.0642" lon="2.09838">
        <ele>104.8</ele>
        <time>2024-03-27T14:23:03Z</time>
      </trkpt>
      <trkpt lat="50.0642" lon="2.09838">
        <ele>104.8</ele>
        <time>2024-03-27T14:23:04Z</time>
      </trkpt>
      <trkpt lat="50.0642" lon="2.09838">
        <ele>104.8</ele>
        <time>2024-03-27T14:23:05Z</time>
      </trkpt>
      <trkpt lat="50.0642" lon="2.09838">
        <ele>104.8</ele>
        <time>2024-03-27T14:23:06Z</time>
      </trkpt>
      <trkpt lat="50.0642" lon="2.09838">
        <ele>104.8</ele>
        <time>2024-03-27T14:23:07Z</time>
      </trkpt>
      <trkpt lat="50.0642" lon="2.09838">
        <ele>104.8</ele>
        <time>2024-03-27T14:23:08Z</time>
      </trkpt>
      <trkpt lat="50.0642" lon="2.09838">
        <ele>104.8</ele>
        <time>2024-03-27T14:23:09Z</time>
      </trkpt>
      <trkpt lat="50.0642" lon="2.09838">
        <ele>104.8</ele>
        <time>2024-03-27T14:23:10Z</time>
      </trkpt>
      <trkpt lat="50.0642" lon="2.09838">
        <ele>104.8</ele>
        <time>2024-03-27T14:23:11Z</time>
      </trkpt>
      <trkpt lat="50.0642" lon="2.09838">
        <ele>104.8</ele>
        <time>2024-03-27T14:23:12Z</time>
      </trkpt>
      <trkpt lat="50.0642" lon="2.09838">
        <ele>104.8</ele>
        <time>2024-03-27T14:23:13Z</time>
      </trkpt>
      <trkpt lat="50.0642" lon="2.09837">
        <ele>104.7</ele>
        <time>2024-03-27T14:23:14Z</time>
      </trkpt>
      <trkpt lat="50.0642" lon="2.09836">
        <ele>104.7</ele>
        <time>2024-03-27T14:23:15Z</time>
      </trkpt>
      <trkpt lat="50.06421" lon="2.09836">
        <ele>104.7</ele>
        <time>2024-03-27T14:23:16Z</time>
      </trkpt>
      <trkpt lat="50.06421" lon="2.09836">
        <ele>104.7</ele>
        <time>2024-03-27T14:23:17Z</time>
      </trkpt>
      <trkpt lat="50.06422" lon="2.09836">
        <ele>104.6</ele>
        <time>2024-03-27T14:23:18Z</time>
      </trkpt>
      <trkpt lat="50.06423" lon="2.09836">
        <ele>104.6</ele>
        <time>2024-03-27T14:23:19Z</time>
      </trkpt>
      <trkpt lat="50.06424" lon="2.09836">
        <ele>104.6</ele>
        <time>2024-03-27T14:23:20Z</time>
      </trkpt>
      <trkpt lat="50.06425" lon="2.09836">
        <ele>104.5</ele>
        <time>2024-03-27T14:23:21Z</time>
      </trkpt>
      <trkpt lat="50.06425" lon="2.09836">
        <ele>104.5</ele>
        <time>2024-03-27T14:23:22Z</time>
      </trkpt>
      <trkpt lat="50.06425" lon="2.09836">
        <ele>104.5</ele>
        <time>2024-03-27T14:23:23Z</time>
      </trkpt>
      <trkpt lat="50.06426" lon="2.09837">
        <ele>104.5</ele>
        <time>2024-03-27T14:23:24Z</time>
      </trkpt>
      <trkpt lat="50.06427" lon="2.09837">
        <ele>104.5</ele>
        <time>2024-03-27T14:23:25Z</time>
      </trkpt>
      <trkpt lat="50.06427" lon="2.09837">
        <ele>104.4</ele>
        <time>2024-03-27T14:23:26Z</time>
      </trkpt>
      <trkpt lat="50.06427" lon="2.09837">
        <ele>104.4</ele>
        <time>2024-03-27T14:23:27Z</time>
      </trkpt>
      <trkpt lat="50.06428" lon="2.09838">
        <ele>104.4</ele>
        <time>2024-03-27T14:23:28Z</time>
      </trkpt>
      <trkpt lat="50.06428" lon="2.09838">
        <ele>104.4</ele>
        <time>2024-03-27T14:23:29Z</time>
      </trkpt>
      <trkpt lat="50.06429" lon="2.09838">
        <ele>104.4</ele>
        <time>2024-03-27T14:23:30Z</time>
      </trkpt>
      <trkpt lat="50.06429" lon="2.09839">
        <ele>104.4</ele>
        <time>2024-03-27T14:23:31Z</time>
      </trkpt>
      <trkpt lat="50.06429" lon="2.09839">
        <ele>104.3</ele>
        <time>2024-03-27T14:23:32Z</time>
      </trkpt>
      <trkpt lat="50.0643" lon="2.09839">
        <ele>104.3</ele>
        <time>2024-03-27T14:23:33Z</time>
      </trkpt>
      <trkpt lat="50.06431" lon="2.0984">
        <ele>104.3</ele>
        <time>2024-03-27T14:23:34Z</time>
      </trkpt>
      <trkpt lat="50.06432" lon="2.0984">
        <ele>104.3</ele>
        <time>2024-03-27T14:23:35Z</time>
      </trkpt>
      <trkpt lat="50.06432" lon="2.09841">
        <ele>104.2</ele>
        <time>2024-03-27T14:23:36Z</time>
      </trkpt>
      <trkpt lat="50.06433" lon="2.09842">
        <ele>104.2</ele>
        <time>2024-03-27T14:23:37Z</time>
      </trkpt>
      <trkpt lat="50.06434" lon="2.09842">
        <ele>104.2</ele>
        <time>2024-03-27T14:23:38Z</time>
      </trkpt>
      <trkpt lat="50.06434" lon="2.09843">
        <ele>104.1</ele>
        <time>2024-03-27T14:23:39Z</time>
      </trkpt>
      <trkpt lat="50.06435" lon="2.09843">
        <ele>104.1</ele>
        <time>2024-03-27T14:23:40Z</time>
      </trkpt>
      <trkpt lat="50.06435" lon="2.09844">
        <ele>104.1</ele>
        <time>2024-03-27T14:23:41Z</time>
      </trkpt>
      <trkpt lat="50.06435" lon="2.09844">
        <ele>104.1</ele>
        <time>2024-03-27T14:23:42Z</time>
      </trkpt>
      <trkpt lat="50.06435" lon="2.09845">
        <ele>104.1</ele>
        <time>2024-03-27T14:23:43Z</time>
      </trkpt>
      <trkpt lat="50.06435" lon="2.09845">
        <ele>104.1</ele>
        <time>2024-03-27T14:23:44Z</time>
      </trkpt>
      <trkpt lat="50.06435" lon="2.09844">
        <ele>104.1</ele>
        <time>2024-03-27T14:23:45Z</time>
      </trkpt>
      <trkpt lat="50.06435" lon="2.09844">
        <ele>104.1</ele>
        <time>2024-03-27T14:23:46Z</time>
      </trkpt>
      <trkpt lat="50.06435" lon="2.09844">
        <ele>104</ele>
        <time>2024-03-27T14:23:47Z</time>
      </trkpt>
      <trkpt lat="50.06435" lon="2.09843">
        <ele>104</ele>
        <time>2024-03-27T14:23:48Z</time>
      </trkpt>
      <trkpt lat="50.06435" lon="2.09843">
        <ele>104</ele>
        <time>2024-03-27T14:23:49Z</time>
      </trkpt>
      <trkpt lat="50.06435" lon="2.09843">
        <ele>104</ele>
        <time>2024-03-27T14:23:50Z</time>
      </trkpt>
      <trkpt lat="50.06435" lon="2.09843">
        <ele>104</ele>
        <time>2024-03-27T14:23:51Z</time>
      </trkpt>
      <trkpt lat="50.06435" lon="2.09843">
        <ele>104</ele>
        <time>2024-03-27T14:23:52Z</time>
      </trkpt>
      <trkpt lat="50.06435" lon="2.09843">
        <ele>104</ele>
        <time>2024-03-27T14:23:53Z</time>
      </trkpt>
      <trkpt lat="50.06435" lon="2.09843">
        <ele>104</ele>
        <time>2024-03-27T14:23:54Z</time>
      </trkpt>
      <trkpt lat="50.06435" lon="2.09843">
        <ele>104</ele>
        <time>2024-03-27T14:23:55Z</time>
      </trkpt>
      <trkpt lat="50.06435" lon="2.09843">
        <ele>104</ele>
        <time>2024-03-27T14:23:56Z</time>
      </trkpt>
      <trkpt lat="50.06435" lon="2.09843">
        <ele>104</ele>
        <time>2024-03-27T14:23:57Z</time>
      </trkpt>
      <trkpt lat="50.06435" lon="2.09843">
        <ele>104</ele>
        <time>2024-03-27T14:23:58Z</time>
      </trkpt>
      <trkpt lat="50.06435" lon="2.09843">
        <ele>104</ele>
        <time>2024-03-27T14:23:59Z</time>
      </trkpt>
      <trkpt lat="50.06435" lon="2.09843">
        <ele>104</ele>
        <time>2024-03-27T14:24:00Z</time>
      </trkpt>
      <trkpt lat="50.06435" lon="2.09843">
        <ele>104</ele>
        <time>2024-03-27T14:24:01Z</time>
      </trkpt>
      <trkpt lat="50.06435" lon="2.09843">
        <ele>104</ele>
        <time>2024-03-27T14:24:02Z</time>
      </trkpt>
      <trkpt lat="50.06435" lon="2.09843">
        <ele>104</ele>
        <time>2024-03-27T14:24:03Z</time>
      </trkpt>
      <trkpt lat="50.06435" lon="2.09844">
        <ele>104</ele>
        <time>2024-03-27T14:24:04Z</time>
      </trkpt>
      <trkpt lat="50.06436" lon="2.09845">
        <ele>103.9</ele>
        <time>2024-03-27T14:24:05Z</time>
      </trkpt>
      <trkpt lat="50.06436" lon="2.09847">
        <ele>103.9</ele>
        <time>2024-03-27T14:24:06Z</time>
      </trkpt>
      <trkpt lat="50.06437" lon="2.09848">
        <ele>103.9</ele>
        <time>2024-03-27T14:24:07Z</time>
      </trkpt>
      <trkpt lat="50.06437" lon="2.0985">
        <ele>103.8</ele>
        <time>2024-03-27T14:24:08Z</time>
      </trkpt>
      <trkpt lat="50.06437" lon="2.09852">
        <ele>103.8</ele>
        <time>2024-03-27T14:24:09Z</time>
      </trkpt>
      <trkpt lat="50.06438" lon="2.09853">
        <ele>103.7</ele>
        <time>2024-03-27T14:24:10Z</time>
      </trkpt>
      <trkpt lat="50.06438" lon="2.09855">
        <ele>103.7</ele>
        <time>2024-03-27T14:24:11Z</time>
      </trkpt>
      <trkpt lat="50.06439" lon="2.09856">
        <ele>103.7</ele>
        <time>2024-03-27T14:24:12Z</time>
      </trkpt>
      <trkpt lat="50.06439" lon="2.09857">
        <ele>103.6</ele>
        <time>2024-03-27T14:24:13Z</time>
      </trkpt>
      <trkpt lat="50.0644" lon="2.09858">
        <ele>103.6</ele>
        <time>2024-03-27T14:24:14Z</time>
      </trkpt>
      <trkpt lat="50.0644" lon="2.09859">
        <ele>103.6</ele>
        <time>2024-03-27T14:24:15Z</time>
      </trkpt>
      <trkpt lat="50.06441" lon="2.09861">
        <ele>103.5</ele>
        <time>2024-03-27T14:24:16Z</time>
      </trkpt>
      <trkpt lat="50.06441" lon="2.09862">
        <ele>103.5</ele>
        <time>2024-03-27T14:24:17Z</time>
      </trkpt>
      <trkpt lat="50.06442" lon="2.09863">
        <ele>103.5</ele>
        <time>2024-03-27T14:24:18Z</time>
      </trkpt>
      <trkpt lat="50.06442" lon="2.09864">
        <ele>103.4</ele>
        <time>2024-03-27T14:24:19Z</time>
      </trkpt>
      <trkpt lat="50.06443" lon="2.09866">
        <ele>103.4</ele>
        <time>2024-03-27T14:24:20Z</time>
      </trkpt>
      <trkpt lat="50.06443" lon="2.09867">
        <ele>103.3</ele>
        <time>2024-03-27T14:24:21Z</time>
      </trkpt>
      <trkpt lat="50.06444" lon="2.09868">
        <ele>103.3</ele>
        <time>2024-03-27T14:24:22Z</time>
      </trkpt>
      <trkpt lat="50.06444" lon="2.09869">
        <ele>103.3</ele>
        <time>2024-03-27T14:24:23Z</time>
      </trkpt>
      <trkpt lat="50.06445" lon="2.09871">
        <ele>103.2</ele>
        <time>2024-03-27T14:24:24Z</time>
      </trkpt>
      <trkpt lat="50.06445" lon="2.09872">
        <ele>103.2</ele>
        <time>2024-03-27T14:24:25Z</time>
      </trkpt>
      <trkpt lat="50.06446" lon="2.09875">
        <ele>103.1</ele>
        <time>2024-03-27T14:24:26Z</time>
      </trkpt>
      <trkpt lat="50.06447" lon="2.09876">
        <ele>103.1</ele>
        <time>2024-03-27T14:24:27Z</time>
      </trkpt>
      <trkpt lat="50.06447" lon="2.09877">
        <ele>103</ele>
        <time>2024-03-27T14:24:28Z</time>
      </trkpt>
      <trkpt lat="50.06448" lon="2.09879">
        <ele>103</ele>
        <time>2024-03-27T14:24:29Z</time>
      </trkpt>
      <trkpt lat="50.06448" lon="2.09881">
        <ele>102.9</ele>
        <time>2024-03-27T14:24:30Z</time>
      </trkpt>
      <trkpt lat="50.06449" lon="2.09883">
        <ele>102.9</ele>
        <time>2024-03-27T14:24:31Z</time>
      </trkpt>
      <trkpt lat="50.06449" lon="2.09885">
        <ele>102.8</ele>
        <time>2024-03-27T14:24:32Z</time>
      </trkpt>
      <trkpt lat="50.0645" lon="2.09887">
        <ele>102.8</ele>
        <time>2024-03-27T14:24:33Z</time>
      </trkpt>
      <trkpt lat="50.06451" lon="2.09889">
        <ele>102.7</ele>
        <time>2024-03-27T14:24:34Z</time>
      </trkpt>
      <trkpt lat="50.06451" lon="2.09893">
        <ele>102.6</ele>
        <time>2024-03-27T14:24:35Z</time>
      </trkpt>
      <trkpt lat="50.06452" lon="2.09894">
        <ele>102.6</ele>
        <time>2024-03-27T14:24:36Z</time>
      </trkpt>
      <trkpt lat="50.06452" lon="2.09895">
        <ele>102.5</ele>
        <time>2024-03-27T14:24:37Z</time>
      </trkpt>
      <trkpt lat="50.06453" lon="2.09898">
        <ele>102.5</ele>
        <time>2024-03-27T14:24:38Z</time>
      </trkpt>
      <trkpt lat="50.06453" lon="2.09899">
        <ele>102.4</ele>
        <time>2024-03-27T14:24:39Z</time>
      </trkpt>
      <trkpt lat="50.06453" lon="2.09901">
        <ele>102.4</ele>
        <time>2024-03-27T14:24:40Z</time>
      </trkpt>
      <trkpt lat="50.06454" lon="2.09904">
        <ele>102.3</ele>
        <time>2024-03-27T14:24:41Z</time>
      </trkpt>
      <trkpt lat="50.06454" lon="2.09905">
        <ele>102.3</ele>
        <time>2024-03-27T14:24:42Z</time>
      </trkpt>
      <trkpt lat="50.06455" lon="2.09906">
        <ele>102.2</ele>
        <time>2024-03-27T14:24:43Z</time>
      </trkpt>
      <trkpt lat="50.06455" lon="2.09907">
        <ele>102.2</ele>
        <time>2024-03-27T14:24:44Z</time>
      </trkpt>
      <trkpt lat="50.06456" lon="2.09909">
        <ele>102.2</ele>
        <time>2024-03-27T14:24:45Z</time>
      </trkpt>
      <trkpt lat="50.06456" lon="2.0991">
        <ele>102.1</ele>
        <time>2024-03-27T14:24:46Z</time>
      </trkpt>
      <trkpt lat="50.06457" lon="2.09912">
        <ele>102.1</ele>
        <time>2024-03-27T14:24:47Z</time>
      </trkpt>
      <trkpt lat="50.06457" lon="2.09913">
        <ele>102</ele>
        <time>2024-03-27T14:24:48Z</time>
      </trkpt>
      <trkpt lat="50.06458" lon="2.09915">
        <ele>102</ele>
        <time>2024-03-27T14:24:49Z</time>
      </trkpt>
      <trkpt lat="50.06458" lon="2.09916">
        <ele>102</ele>
        <time>2024-03-27T14:24:50Z</time>
      </trkpt>
      <trkpt lat="50.06459" lon="2.09918">
        <ele>101.9</ele>
        <time>2024-03-27T14:24:51Z</time>
      </trkpt>
      <trkpt lat="50.06459" lon="2.0992">
        <ele>101.9</ele>
        <time>2024-03-27T14:24:52Z</time>
      </trkpt>
      <trkpt lat="50.06459" lon="2.09922">
        <ele>101.8</ele>
        <time>2024-03-27T14:24:53Z</time>
      </trkpt>
      <trkpt lat="50.0646" lon="2.09923">
        <ele>101.8</ele>
        <time>2024-03-27T14:24:54Z</time>
      </trkpt>
      <trkpt lat="50.0646" lon="2.09925">
        <ele>101.8</ele>
        <time>2024-03-27T14:24:55Z</time>
      </trkpt>
      <trkpt lat="50.0646" lon="2.09926">
        <ele>101.7</ele>
        <time>2024-03-27T14:24:56Z</time>
      </trkpt>
      <trkpt lat="50.0646" lon="2.09928">
        <ele>101.7</ele>
        <time>2024-03-27T14:24:57Z</time>
      </trkpt>
      <trkpt lat="50.0646" lon="2.09929">
        <ele>101.7</ele>
        <time>2024-03-27T14:24:58Z</time>
      </trkpt>
      <trkpt lat="50.06461" lon="2.09931">
        <ele>101.6</ele>
        <time>2024-03-27T14:24:59Z</time>
      </trkpt>
      <trkpt lat="50.06461" lon="2.09932">
        <ele>101.6</ele>
        <time>2024-03-27T14:25:00Z</time>
      </trkpt>
      <trkpt lat="50.06461" lon="2.09934">
        <ele>101.6</ele>
        <time>2024-03-27T14:25:01Z</time>
      </trkpt>
      <trkpt lat="50.06461" lon="2.09936">
        <ele>101.5</ele>
        <time>2024-03-27T14:25:02Z</time>
      </trkpt>
      <trkpt lat="50.06461" lon="2.09937">
        <ele>101.5</ele>
        <time>2024-03-27T14:25:03Z</time>
      </trkpt>
      <trkpt lat="50.06461" lon="2.09939">
        <ele>101.5</ele>
        <time>2024-03-27T14:25:04Z</time>
      </trkpt>
      <trkpt lat="50.06461" lon="2.0994">
        <ele>101.4</ele>
        <time>2024-03-27T14:25:05Z</time>
      </trkpt>
      <trkpt lat="50.06461" lon="2.09942">
        <ele>101.4</ele>
        <time>2024-03-27T14:25:06Z</time>
      </trkpt>
      <trkpt lat="50.06461" lon="2.09943">
        <ele>101.4</ele>
        <time>2024-03-27T14:25:07Z</time>
      </trkpt>
      <trkpt lat="50.0646" lon="2.09944">
        <ele>101.3</ele>
        <time>2024-03-27T14:25:08Z</time>
      </trkpt>
      <trkpt lat="50.06459" lon="2.09944">
        <ele>101.3</ele>
        <time>2024-03-27T14:25:09Z</time>
      </trkpt>
      <trkpt lat="50.0646" lon="2.09945">
        <ele>101.3</ele>
        <time>2024-03-27T14:25:10Z</time>
      </trkpt>
      <trkpt lat="50.0646" lon="2.09946">
        <ele>101.3</ele>
        <time>2024-03-27T14:25:11Z</time>
      </trkpt>
      <trkpt lat="50.0646" lon="2.09947">
        <ele>101.2</ele>
        <time>2024-03-27T14:25:12Z</time>
      </trkpt>
      <trkpt lat="50.06461" lon="2.09948">
        <ele>101.2</ele>
        <time>2024-03-27T14:25:13Z</time>
      </trkpt>
      <trkpt lat="50.06462" lon="2.09948">
        <ele>101.2</ele>
        <time>2024-03-27T14:25:14Z</time>
      </trkpt>
      <trkpt lat="50.06462" lon="2.09949">
        <ele>101.2</ele>
        <time>2024-03-27T14:25:15Z</time>
      </trkpt>
      <trkpt lat="50.06463" lon="2.0995">
        <ele>101.1</ele>
        <time>2024-03-27T14:25:16Z</time>
      </trkpt>
      <trkpt lat="50.06463" lon="2.09951">
        <ele>101.1</ele>
        <time>2024-03-27T14:25:17Z</time>
      </trkpt>
      <trkpt lat="50.06463" lon="2.09952">
        <ele>101.1</ele>
        <time>2024-03-27T14:25:18Z</time>
      </trkpt>
      <trkpt lat="50.06463" lon="2.09953">
        <ele>101</ele>
        <time>2024-03-27T14:25:19Z</time>
      </trkpt>
      <trkpt lat="50.06464" lon="2.09954">
        <ele>101</ele>
        <time>2024-03-27T14:25:20Z</time>
      </trkpt>
      <trkpt lat="50.06464" lon="2.09956">
        <ele>101</ele>
        <time>2024-03-27T14:25:21Z</time>
      </trkpt>
      <trkpt lat="50.06464" lon="2.09957">
        <ele>101</ele>
        <time>2024-03-27T14:25:22Z</time>
      </trkpt>
      <trkpt lat="50.06464" lon="2.09958">
        <ele>100.9</ele>
        <time>2024-03-27T14:25:23Z</time>
      </trkpt>
      <trkpt lat="50.06464" lon="2.09959">
        <ele>100.9</ele>
        <time>2024-03-27T14:25:24Z</time>
      </trkpt>
      <trkpt lat="50.06464" lon="2.0996">
        <ele>100.9</ele>
        <time>2024-03-27T14:25:25Z</time>
      </trkpt>
      <trkpt lat="50.06464" lon="2.09962">
        <ele>100.8</ele>
        <time>2024-03-27T14:25:26Z</time>
      </trkpt>
      <trkpt lat="50.06464" lon="2.09963">
        <ele>100.8</ele>
        <time>2024-03-27T14:25:27Z</time>
      </trkpt>
      <trkpt lat="50.06465" lon="2.09964">
        <ele>100.8</ele>
        <time>2024-03-27T14:25:28Z</time>
      </trkpt>
      <trkpt lat="50.06465" lon="2.09965">
        <ele>100.7</ele>
        <time>2024-03-27T14:25:29Z</time>
      </trkpt>
      <trkpt lat="50.06465" lon="2.09966">
        <ele>100.7</ele>
        <time>2024-03-27T14:25:30Z</time>
      </trkpt>
      <trkpt lat="50.06466" lon="2.09968">
        <ele>100.7</ele>
        <time>2024-03-27T14:25:31Z</time>
      </trkpt>
      <trkpt lat="50.06466" lon="2.09969">
        <ele>100.6</ele>
        <time>2024-03-27T14:25:32Z</time>
      </trkpt>
      <trkpt lat="50.06467" lon="2.09971">
        <ele>100.6</ele>
        <time>2024-03-27T14:25:33Z</time>
      </trkpt>
      <trkpt lat="50.06468" lon="2.09973">
        <ele>100.5</ele>
        <time>2024-03-27T14:25:34Z</time>
      </trkpt>
      <trkpt lat="50.06469" lon="2.09975">
        <ele>100.5</ele>
        <time>2024-03-27T14:25:35Z</time>
      </trkpt>
      <trkpt lat="50.06469" lon="2.09977">
        <ele>100.4</ele>
        <time>2024-03-27T14:25:36Z</time>
      </trkpt>
      <trkpt lat="50.0647" lon="2.09979">
        <ele>100.4</ele>
        <time>2024-03-27T14:25:37Z</time>
      </trkpt>
      <trkpt lat="50.0647" lon="2.0998">
        <ele>100.3</ele>
        <time>2024-03-27T14:25:38Z</time>
      </trkpt>
      <trkpt lat="50.06471" lon="2.09981">
        <ele>100.3</ele>
        <time>2024-03-27T14:25:39Z</time>
      </trkpt>
      <trkpt lat="50.06472" lon="2.09982">
        <ele>100.3</ele>
        <time>2024-03-27T14:25:40Z</time>
      </trkpt>
      <trkpt lat="50.06473" lon="2.09983">
        <ele>100.2</ele>
        <time>2024-03-27T14:25:41Z</time>
      </trkpt>
      <trkpt lat="50.06473" lon="2.09984">
        <ele>100.2</ele>
        <time>2024-03-27T14:25:42Z</time>
      </trkpt>
      <trkpt lat="50.06473" lon="2.09986">
        <ele>100.2</ele>
        <time>2024-03-27T14:25:43Z</time>
      </trkpt>
      <trkpt lat="50.06474" lon="2.09987">
        <ele>100.1</ele>
        <time>2024-03-27T14:25:44Z</time>
      </trkpt>
      <trkpt lat="50.06473" lon="2.09989">
        <ele>100.1</ele>
        <time>2024-03-27T14:25:45Z</time>
      </trkpt>
      <trkpt lat="50.06473" lon="2.09991">
        <ele>100.1</ele>
        <time>2024-03-27T14:25:46Z</time>
      </trkpt>
      <trkpt lat="50.06474" lon="2.09992">
        <ele>100</ele>
        <time>2024-03-27T14:25:47Z</time>
      </trkpt>
      <trkpt lat="50.06474" lon="2.09994">
        <ele>100</ele>
        <time>2024-03-27T14:25:48Z</time>
      </trkpt>
      <trkpt lat="50.06474" lon="2.09995">
        <ele>100</ele>
        <time>2024-03-27T14:25:49Z</time>
      </trkpt>
      <trkpt lat="50.06474" lon="2.09996">
        <ele>100</ele>
        <time>2024-03-27T14:25:50Z</time>
      </trkpt>
      <trkpt lat="50.06475" lon="2.09997">
        <ele>99.9</ele>
        <time>2024-03-27T14:25:51Z</time>
      </trkpt>
      <trkpt lat="50.06475" lon="2.09999">
        <ele>99.9</ele>
        <time>2024-03-27T14:25:52Z</time>
      </trkpt>
      <trkpt lat="50.06475" lon="2.1">
        <ele>99.9</ele>
        <time>2024-03-27T14:25:53Z</time>
      </trkpt>
      <trkpt lat="50.06476" lon="2.10002">
        <ele>99.8</ele>
        <time>2024-03-27T14:25:54Z</time>
      </trkpt>
      <trkpt lat="50.06476" lon="2.10003">
        <ele>99.8</ele>
        <time>2024-03-27T14:25:55Z</time>
      </trkpt>
      <trkpt lat="50.06476" lon="2.10005">
        <ele>99.8</ele>
        <time>2024-03-27T14:25:56Z</time>
      </trkpt>
      <trkpt lat="50.06477" lon="2.10008">
        <ele>99.7</ele>
        <time>2024-03-27T14:25:57Z</time>
      </trkpt>
      <trkpt lat="50.06477" lon="2.10009">
        <ele>99.7</ele>
        <time>2024-03-27T14:25:58Z</time>
      </trkpt>
      <trkpt lat="50.06478" lon="2.1001">
        <ele>99.7</ele>
        <time>2024-03-27T14:25:59Z</time>
      </trkpt>
      <trkpt lat="50.06479" lon="2.10012">
        <ele>99.6</ele>
        <time>2024-03-27T14:26:00Z</time>
      </trkpt>
      <trkpt lat="50.06479" lon="2.10014">
        <ele>99.6</ele>
        <time>2024-03-27T14:26:01Z</time>
      </trkpt>
      <trkpt lat="50.0648" lon="2.10017">
        <ele>99.5</ele>
        <time>2024-03-27T14:26:02Z</time>
      </trkpt>
      <trkpt lat="50.06481" lon="2.10018">
        <ele>99.5</ele>
        <time>2024-03-27T14:26:03Z</time>
      </trkpt>
      <trkpt lat="50.06481" lon="2.10019">
        <ele>99.4</ele>
        <time>2024-03-27T14:26:04Z</time>
      </trkpt>
      <trkpt lat="50.06482" lon="2.1002">
        <ele>99.4</ele>
        <time>2024-03-27T14:26:05Z</time>
      </trkpt>
      <trkpt lat="50.06482" lon="2.10022">
        <ele>99.4</ele>
        <time>2024-03-27T14:26:06Z</time>
      </trkpt>
      <trkpt lat="50.06483" lon="2.10024">
        <ele>99.3</ele>
        <time>2024-03-27T14:26:07Z</time>
      </trkpt>
      <trkpt lat="50.06484" lon="2.10027">
        <ele>99.3</ele>
        <time>2024-03-27T14:26:08Z</time>
      </trkpt>
      <trkpt lat="50.06484" lon="2.10028">
        <ele>99.2</ele>
        <time>2024-03-27T14:26:09Z</time>
      </trkpt>
      <trkpt lat="50.06485" lon="2.10029">
        <ele>99.2</ele>
        <time>2024-03-27T14:26:10Z</time>
      </trkpt>
      <trkpt lat="50.06486" lon="2.10032">
        <ele>99.1</ele>
        <time>2024-03-27T14:26:11Z</time>
      </trkpt>
      <trkpt lat="50.06486" lon="2.10033">
        <ele>99.1</ele>
        <time>2024-03-27T14:26:12Z</time>
      </trkpt>
      <trkpt lat="50.06486" lon="2.10034">
        <ele>99.1</ele>
        <time>2024-03-27T14:26:13Z</time>
      </trkpt>
      <trkpt lat="50.06487" lon="2.10037">
        <ele>99</ele>
        <time>2024-03-27T14:26:14Z</time>
      </trkpt>
      <trkpt lat="50.06487" lon="2.10039">
        <ele>99</ele>
        <time>2024-03-27T14:26:15Z</time>
      </trkpt>
      <trkpt lat="50.06487" lon="2.1004">
        <ele>99</ele>
        <time>2024-03-27T14:26:16Z</time>
      </trkpt>
      <trkpt lat="50.06488" lon="2.10043">
        <ele>98.9</ele>
        <time>2024-03-27T14:26:17Z</time>
      </trkpt>
      <trkpt lat="50.06488" lon="2.10044">
        <ele>98.9</ele>
        <time>2024-03-27T14:26:18Z</time>
      </trkpt>
      <trkpt lat="50.06489" lon="2.10045">
        <ele>98.9</ele>
        <time>2024-03-27T14:26:19Z</time>
      </trkpt>
      <trkpt lat="50.0649" lon="2.10048">
        <ele>98.8</ele>
        <time>2024-03-27T14:26:20Z</time>
      </trkpt>
      <trkpt lat="50.0649" lon="2.1005">
        <ele>98.8</ele>
        <time>2024-03-27T14:26:21Z</time>
      </trkpt>
      <trkpt lat="50.0649" lon="2.10051">
        <ele>98.8</ele>
        <time>2024-03-27T14:26:22Z</time>
      </trkpt>
      <trkpt lat="50.06491" lon="2.10053">
        <ele>98.7</ele>
        <time>2024-03-27T14:26:23Z</time>
      </trkpt>
      <trkpt lat="50.06491" lon="2.10055">
        <ele>98.7</ele>
        <time>2024-03-27T14:26:24Z</time>
      </trkpt>
      <trkpt lat="50.06491" lon="2.10056">
        <ele>98.7</ele>
        <time>2024-03-27T14:26:25Z</time>
      </trkpt>
      <trkpt lat="50.06492" lon="2.10057">
        <ele>98.6</ele>
        <time>2024-03-27T14:26:26Z</time>
      </trkpt>
      <trkpt lat="50.06492" lon="2.10059">
        <ele>98.6</ele>
        <time>2024-03-27T14:26:27Z</time>
      </trkpt>
      <trkpt lat="50.06492" lon="2.1006">
        <ele>98.6</ele>
        <time>2024-03-27T14:26:28Z</time>
      </trkpt>
      <trkpt lat="50.06493" lon="2.10062">
        <ele>98.5</ele>
        <time>2024-03-27T14:26:29Z</time>
      </trkpt>
      <trkpt lat="50.06493" lon="2.10064">
        <ele>98.5</ele>
        <time>2024-03-27T14:26:30Z</time>
      </trkpt>
      <trkpt lat="50.06494" lon="2.10065">
        <ele>98.5</ele>
        <time>2024-03-27T14:26:31Z</time>
      </trkpt>
      <trkpt lat="50.06494" lon="2.10067">
        <ele>98.4</ele>
        <time>2024-03-27T14:26:32Z</time>
      </trkpt>
      <trkpt lat="50.06495" lon="2.10068">
        <ele>98.4</ele>
        <time>2024-03-27T14:26:33Z</time>
      </trkpt>
      <trkpt lat="50.06495" lon="2.1007">
        <ele>98.4</ele>
        <time>2024-03-27T14:26:34Z</time>
      </trkpt>
      <trkpt lat="50.06495" lon="2.10071">
        <ele>98.3</ele>
        <time>2024-03-27T14:26:35Z</time>
      </trkpt>
      <trkpt lat="50.06496" lon="2.10073">
        <ele>98.3</ele>
        <time>2024-03-27T14:26:36Z</time>
      </trkpt>
      <trkpt lat="50.06496" lon="2.10075">
        <ele>98.3</ele>
        <time>2024-03-27T14:26:37Z</time>
      </trkpt>
      <trkpt lat="50.06496" lon="2.10077">
        <ele>98.2</ele>
        <time>2024-03-27T14:26:38Z</time>
      </trkpt>
      <trkpt lat="50.06497" lon="2.10078">
        <ele>98.2</ele>
        <time>2024-03-27T14:26:39Z</time>
      </trkpt>
      <trkpt lat="50.06497" lon="2.10079">
        <ele>98.2</ele>
        <time>2024-03-27T14:26:40Z</time>
      </trkpt>
      <trkpt lat="50.06497" lon="2.1008">
        <ele>98.1</ele>
        <time>2024-03-27T14:26:41Z</time>
      </trkpt>
      <trkpt lat="50.06498" lon="2.10081">
        <ele>98.1</ele>
        <time>2024-03-27T14:26:42Z</time>
      </trkpt>
      <trkpt lat="50.06498" lon="2.10083">
        <ele>98.1</ele>
        <time>2024-03-27T14:26:43Z</time>
      </trkpt>
      <trkpt lat="50.06498" lon="2.10084">
        <ele>98</ele>
        <time>2024-03-27T14:26:44Z</time>
      </trkpt>
      <trkpt lat="50.06499" lon="2.10086">
        <ele>98</ele>
        <time>2024-03-27T14:26:45Z</time>
      </trkpt>
      <trkpt lat="50.06499" lon="2.10088">
        <ele>98</ele>
        <time>2024-03-27T14:26:46Z</time>
      </trkpt>
      <trkpt lat="50.06499" lon="2.10089">
        <ele>98</ele>
        <time>2024-03-27T14:26:47Z</time>
      </trkpt>
      <trkpt lat="50.065" lon="2.1009">
        <ele>97.9</ele>
        <time>2024-03-27T14:26:48Z</time>
      </trkpt>
      <trkpt lat="50.065" lon="2.10092">
        <ele>97.9</ele>
        <time>2024-03-27T14:26:49Z</time>
      </trkpt>
      <trkpt lat="50.065" lon="2.10093">
        <ele>97.9</ele>
        <time>2024-03-27T14:26:50Z</time>
      </trkpt>
      <trkpt lat="50.06501" lon="2.10095">
        <ele>97.8</ele>
        <time>2024-03-27T14:26:51Z</time>
      </trkpt>
      <trkpt lat="50.06501" lon="2.10096">
        <ele>97.8</ele>
        <time>2024-03-27T14:26:52Z</time>
      </trkpt>
      <trkpt lat="50.06502" lon="2.10098">
        <ele>97.8</ele>
        <time>2024-03-27T14:26:53Z</time>
      </trkpt>
      <trkpt lat="50.06502" lon="2.101">
        <ele>97.7</ele>
        <time>2024-03-27T14:26:54Z</time>
      </trkpt>
      <trkpt lat="50.06503" lon="2.10101">
        <ele>97.7</ele>
        <time>2024-03-27T14:26:55Z</time>
      </trkpt>
      <trkpt lat="50.06503" lon="2.10103">
        <ele>97.7</ele>
        <time>2024-03-27T14:26:56Z</time>
      </trkpt>
      <trkpt lat="50.06503" lon="2.10105">
        <ele>97.7</ele>
        <time>2024-03-27T14:26:57Z</time>
      </trkpt>
      <trkpt lat="50.06504" lon="2.10106">
        <ele>97.6</ele>
        <time>2024-03-27T14:26:58Z</time>
      </trkpt>
      <trkpt lat="50.06504" lon="2.10108">
        <ele>97.6</ele>
        <time>2024-03-27T14:26:59Z</time>
      </trkpt>
      <trkpt lat="50.06504" lon="2.10109">
        <ele>97.6</ele>
        <time>2024-03-27T14:27:00Z</time>
      </trkpt>
      <trkpt lat="50.06505" lon="2.10111">
        <ele>97.5</ele>
        <time>2024-03-27T14:27:01Z</time>
      </trkpt>
      <trkpt lat="50.06506" lon="2.10112">
        <ele>97.5</ele>
        <time>2024-03-27T14:27:02Z</time>
      </trkpt>
      <trkpt lat="50.06506" lon="2.10114">
        <ele>97.5</ele>
        <time>2024-03-27T14:27:03Z</time>
      </trkpt>
      <trkpt lat="50.06507" lon="2.10115">
        <ele>97.5</ele>
        <time>2024-03-27T14:27:04Z</time>
      </trkpt>
      <trkpt lat="50.06507" lon="2.10117">
        <ele>97.4</ele>
        <time>2024-03-27T14:27:05Z</time>
      </trkpt>
      <trkpt lat="50.06507" lon="2.10119">
        <ele>97.4</ele>
        <time>2024-03-27T14:27:06Z</time>
      </trkpt>
      <trkpt lat="50.06508" lon="2.1012">
        <ele>97.4</ele>
        <time>2024-03-27T14:27:07Z</time>
      </trkpt>
      <trkpt lat="50.06508" lon="2.10122">
        <ele>97.4</ele>
        <time>2024-03-27T14:27:08Z</time>
      </trkpt>
      <trkpt lat="50.06509" lon="2.10123">
        <ele>97.3</ele>
        <time>2024-03-27T14:27:09Z</time>
      </trkpt>
      <trkpt lat="50.0651" lon="2.10125">
        <ele>97.3</ele>
        <time>2024-03-27T14:27:10Z</time>
      </trkpt>
      <trkpt lat="50.0651" lon="2.10126">
        <ele>97.3</ele>
        <time>2024-03-27T14:27:11Z</time>
      </trkpt>
      <trkpt lat="50.0651" lon="2.10127">
        <ele>97.3</ele>
        <time>2024-03-27T14:27:12Z</time>
      </trkpt>
      <trkpt lat="50.06511" lon="2.10129">
        <ele>97.2</ele>
        <time>2024-03-27T14:27:13Z</time>
      </trkpt>
      <trkpt lat="50.06511" lon="2.1013">
        <ele>97.2</ele>
        <time>2024-03-27T14:27:14Z</time>
      </trkpt>
      <trkpt lat="50.06512" lon="2.10132">
        <ele>97.2</ele>
        <time>2024-03-27T14:27:15Z</time>
      </trkpt>
      <trkpt lat="50.06512" lon="2.10133">
        <ele>97.2</ele>
        <time>2024-03-27T14:27:16Z</time>
      </trkpt>
      <trkpt lat="50.06513" lon="2.10135">
        <ele>97.2</ele>
        <time>2024-03-27T14:27:17Z</time>
      </trkpt>
      <trkpt lat="50.06513" lon="2.10136">
        <ele>97.1</ele>
        <time>2024-03-27T14:27:18Z</time>
      </trkpt>
      <trkpt lat="50.06513" lon="2.10138">
        <ele>97.1</ele>
        <time>2024-03-27T14:27:19Z</time>
      </trkpt>
      <trkpt lat="50.06514" lon="2.10139">
        <ele>97.1</ele>
        <time>2024-03-27T14:27:20Z</time>
      </trkpt>
      <trkpt lat="50.06515" lon="2.10142">
        <ele>97.1</ele>
        <time>2024-03-27T14:27:21Z</time>
      </trkpt>
      <trkpt lat="50.06515" lon="2.10144">
        <ele>97.1</ele>
        <time>2024-03-27T14:27:22Z</time>
      </trkpt>
      <trkpt lat="50.06515" lon="2.10145">
        <ele>97.1</ele>
        <time>2024-03-27T14:27:23Z</time>
      </trkpt>
      <trkpt lat="50.06516" lon="2.10146">
        <ele>97</ele>
        <time>2024-03-27T14:27:24Z</time>
      </trkpt>
      <trkpt lat="50.06516" lon="2.10148">
        <ele>97</ele>
        <time>2024-03-27T14:27:25Z</time>
      </trkpt>
      <trkpt lat="50.06517" lon="2.1015">
        <ele>97</ele>
        <time>2024-03-27T14:27:26Z</time>
      </trkpt>
      <trkpt lat="50.06518" lon="2.10153">
        <ele>97</ele>
        <time>2024-03-27T14:27:27Z</time>
      </trkpt>
      <trkpt lat="50.06518" lon="2.10154">
        <ele>97</ele>
        <time>2024-03-27T14:27:28Z</time>
      </trkpt>
      <trkpt lat="50.06518" lon="2.10155">
        <ele>97</ele>
        <time>2024-03-27T14:27:29Z</time>
      </trkpt>
      <trkpt lat="50.06519" lon="2.10157">
        <ele>96.9</ele>
        <time>2024-03-27T14:27:30Z</time>
      </trkpt>
      <trkpt lat="50.06519" lon="2.10158">
        <ele>96.9</ele>
        <time>2024-03-27T14:27:31Z</time>
      </trkpt>
      <trkpt lat="50.0652" lon="2.1016">
        <ele>96.9</ele>
        <time>2024-03-27T14:27:32Z</time>
      </trkpt>
      <trkpt lat="50.06521" lon="2.10162">
        <ele>96.9</ele>
        <time>2024-03-27T14:27:33Z</time>
      </trkpt>
      <trkpt lat="50.06521" lon="2.10163">
        <ele>96.9</ele>
        <time>2024-03-27T14:27:34Z</time>
      </trkpt>
      <trkpt lat="50.06522" lon="2.10164">
        <ele>96.9</ele>
        <time>2024-03-27T14:27:35Z</time>
      </trkpt>
      <trkpt lat="50.06522" lon="2.10166">
        <ele>96.8</ele>
        <time>2024-03-27T14:27:36Z</time>
      </trkpt>
      <trkpt lat="50.06523" lon="2.10167">
        <ele>96.8</ele>
        <time>2024-03-27T14:27:37Z</time>
      </trkpt>
      <trkpt lat="50.06523" lon="2.10169">
        <ele>96.8</ele>
        <time>2024-03-27T14:27:38Z</time>
      </trkpt>
      <trkpt lat="50.06524" lon="2.1017">
        <ele>96.8</ele>
        <time>2024-03-27T14:27:39Z</time>
      </trkpt>
      <trkpt lat="50.06524" lon="2.10172">
        <ele>96.8</ele>
        <time>2024-03-27T14:27:40Z</time>
      </trkpt>
      <trkpt lat="50.06525" lon="2.10173">
        <ele>96.8</ele>
        <time>2024-03-27T14:27:41Z</time>
      </trkpt>
      <trkpt lat="50.06525" lon="2.10175">
        <ele>96.8</ele>
        <time>2024-03-27T14:27:42Z</time>
      </trkpt>
      <trkpt lat="50.06526" lon="2.10176">
        <ele>96.7</ele>
        <time>2024-03-27T14:27:43Z</time>
      </trkpt>
      <trkpt lat="50.06526" lon="2.10178">
        <ele>96.7</ele>
        <time>2024-03-27T14:27:44Z</time>
      </trkpt>
      <trkpt lat="50.06527" lon="2.1018">
        <ele>96.7</ele>
        <time>2024-03-27T14:27:45Z</time>
      </trkpt>
      <trkpt lat="50.06527" lon="2.10181">
        <ele>96.7</ele>
        <time>2024-03-27T14:27:46Z</time>
      </trkpt>
      <trkpt lat="50.06527" lon="2.10183">
        <ele>96.6</ele>
        <time>2024-03-27T14:27:47Z</time>
      </trkpt>
      <trkpt lat="50.06528" lon="2.10184">
        <ele>96.6</ele>
        <time>2024-03-27T14:27:48Z</time>
      </trkpt>
      <trkpt lat="50.06528" lon="2.10186">
        <ele>96.6</ele>
        <time>2024-03-27T14:27:49Z</time>
      </trkpt>
      <trkpt lat="50.06529" lon="2.10187">
        <ele>96.6</ele>
        <time>2024-03-27T14:27:50Z</time>
      </trkpt>
      <trkpt lat="50.06529" lon="2.10189">
        <ele>96.6</ele>
        <time>2024-03-27T14:27:51Z</time>
      </trkpt>
      <trkpt lat="50.0653" lon="2.1019">
        <ele>96.5</ele>
        <time>2024-03-27T14:27:52Z</time>
      </trkpt>
      <trkpt lat="50.06531" lon="2.10192">
        <ele>96.5</ele>
        <time>2024-03-27T14:27:53Z</time>
      </trkpt>
      <trkpt lat="50.06532" lon="2.10195">
        <ele>96.5</ele>
        <time>2024-03-27T14:27:54Z</time>
      </trkpt>
      <trkpt lat="50.06532" lon="2.10196">
        <ele>96.5</ele>
        <time>2024-03-27T14:27:55Z</time>
      </trkpt>
      <trkpt lat="50.06532" lon="2.10197">
        <ele>96.5</ele>
        <time>2024-03-27T14:27:56Z</time>
      </trkpt>
      <trkpt lat="50.06533" lon="2.10199">
        <ele>96.4</ele>
        <time>2024-03-27T14:27:57Z</time>
      </trkpt>
      <trkpt lat="50.06533" lon="2.102">
        <ele>96.4</ele>
        <time>2024-03-27T14:27:58Z</time>
      </trkpt>
      <trkpt lat="50.06534" lon="2.10202">
        <ele>96.4</ele>
        <time>2024-03-27T14:27:59Z</time>
      </trkpt>
      <trkpt lat="50.06534" lon="2.10205">
        <ele>96.4</ele>
        <time>2024-03-27T14:28:00Z</time>
      </trkpt>
      <trkpt lat="50.06535" lon="2.10206">
        <ele>96.3</ele>
        <time>2024-03-27T14:28:01Z</time>
      </trkpt>
      <trkpt lat="50.06535" lon="2.10207">
        <ele>96.3</ele>
        <time>2024-03-27T14:28:02Z</time>
      </trkpt>
      <trkpt lat="50.06536" lon="2.10209">
        <ele>96.3</ele>
        <time>2024-03-27T14:28:03Z</time>
      </trkpt>
      <trkpt lat="50.06536" lon="2.1021">
        <ele>96.3</ele>
        <time>2024-03-27T14:28:04Z</time>
      </trkpt>
      <trkpt lat="50.06537" lon="2.10212">
        <ele>96.3</ele>
        <time>2024-03-27T14:28:05Z</time>
      </trkpt>
      <trkpt lat="50.06537" lon="2.10214">
        <ele>96.3</ele>
        <time>2024-03-27T14:28:06Z</time>
      </trkpt>
      <trkpt lat="50.06537" lon="2.10215">
        <ele>96.2</ele>
        <time>2024-03-27T14:28:07Z</time>
      </trkpt>
      <trkpt lat="50.06538" lon="2.10217">
        <ele>96.2</ele>
        <time>2024-03-27T14:28:08Z</time>
      </trkpt>
      <trkpt lat="50.06538" lon="2.10219">
        <ele>96.2</ele>
        <time>2024-03-27T14:28:09Z</time>
      </trkpt>
      <trkpt lat="50.06538" lon="2.1022">
        <ele>96.2</ele>
        <time>2024-03-27T14:28:10Z</time>
      </trkpt>
      <trkpt lat="50.06539" lon="2.10222">
        <ele>96.2</ele>
        <time>2024-03-27T14:28:11Z</time>
      </trkpt>
      <trkpt lat="50.06539" lon="2.10223">
        <ele>96.2</ele>
        <time>2024-03-27T14:28:12Z</time>
      </trkpt>
      <trkpt lat="50.0654" lon="2.10225">
        <ele>96.2</ele>
        <time>2024-03-27T14:28:13Z</time>
      </trkpt>
      <trkpt lat="50.06541" lon="2.10226">
        <ele>96.1</ele>
        <time>2024-03-27T14:28:14Z</time>
      </trkpt>
      <trkpt lat="50.06541" lon="2.10227">
        <ele>96.1</ele>
        <time>2024-03-27T14:28:15Z</time>
      </trkpt>
      <trkpt lat="50.06542" lon="2.10229">
        <ele>96.1</ele>
        <time>2024-03-27T14:28:16Z</time>
      </trkpt>
      <trkpt lat="50.06543" lon="2.1023">
        <ele>96.1</ele>
        <time>2024-03-27T14:28:17Z</time>
      </trkpt>
      <trkpt lat="50.06543" lon="2.10231">
        <ele>96.1</ele>
        <time>2024-03-27T14:28:18Z</time>
      </trkpt>
      <trkpt lat="50.06544" lon="2.10233">
        <ele>96.1</ele>
        <time>2024-03-27T14:28:19Z</time>
      </trkpt>
      <trkpt lat="50.06545" lon="2.10234">
        <ele>96.1</ele>
        <time>2024-03-27T14:28:20Z</time>
      </trkpt>
      <trkpt lat="50.06545" lon="2.10236">
        <ele>96</ele>
        <time>2024-03-27T14:28:21Z</time>
      </trkpt>
      <trkpt lat="50.06546" lon="2.10237">
        <ele>96</ele>
        <time>2024-03-27T14:28:22Z</time>
      </trkpt>
      <trkpt lat="50.06546" lon="2.10238">
        <ele>96</ele>
        <time>2024-03-27T14:28:23Z</time>
      </trkpt>
      <trkpt lat="50.06547" lon="2.1024">
        <ele>96</ele>
        <time>2024-03-27T14:28:24Z</time>
      </trkpt>
      <trkpt lat="50.06548" lon="2.10241">
        <ele>96</ele>
        <time>2024-03-27T14:28:25Z</time>
      </trkpt>
      <trkpt lat="50.06548" lon="2.10242">
        <ele>96</ele>
        <time>2024-03-27T14:28:26Z</time>
      </trkpt>
      <trkpt lat="50.06549" lon="2.10244">
        <ele>96</ele>
        <time>2024-03-27T14:28:27Z</time>
      </trkpt>
      <trkpt lat="50.06549" lon="2.10245">
        <ele>96</ele>
        <time>2024-03-27T14:28:28Z</time>
      </trkpt>
      <trkpt lat="50.0655" lon="2.10247">
        <ele>95.9</ele>
        <time>2024-03-27T14:28:29Z</time>
      </trkpt>
      <trkpt lat="50.06551" lon="2.10249">
        <ele>95.9</ele>
        <time>2024-03-27T14:28:30Z</time>
      </trkpt>
      <trkpt lat="50.06551" lon="2.1025">
        <ele>95.9</ele>
        <time>2024-03-27T14:28:31Z</time>
      </trkpt>
      <trkpt lat="50.06551" lon="2.10252">
        <ele>95.9</ele>
        <time>2024-03-27T14:28:32Z</time>
      </trkpt>
      <trkpt lat="50.06552" lon="2.10254">
        <ele>95.9</ele>
        <time>2024-03-27T14:28:33Z</time>
      </trkpt>
      <trkpt lat="50.06552" lon="2.10256">
        <ele>95.9</ele>
        <time>2024-03-27T14:28:34Z</time>
      </trkpt>
      <trkpt lat="50.06553" lon="2.10257">
        <ele>95.9</ele>
        <time>2024-03-27T14:28:35Z</time>
      </trkpt>
      <trkpt lat="50.06554" lon="2.10258">
        <ele>95.9</ele>
        <time>2024-03-27T14:28:36Z</time>
      </trkpt>
      <trkpt lat="50.06554" lon="2.1026">
        <ele>95.8</ele>
        <time>2024-03-27T14:28:37Z</time>
      </trkpt>
      <trkpt lat="50.06555" lon="2.10261">
        <ele>95.8</ele>
        <time>2024-03-27T14:28:38Z</time>
      </trkpt>
      <trkpt lat="50.06555" lon="2.10262">
        <ele>95.8</ele>
        <time>2024-03-27T14:28:39Z</time>
      </trkpt>
      <trkpt lat="50.06556" lon="2.10263">
        <ele>95.8</ele>
        <time>2024-03-27T14:28:40Z</time>
      </trkpt>
      <trkpt lat="50.06556" lon="2.10264">
        <ele>95.8</ele>
        <time>2024-03-27T14:28:41Z</time>
      </trkpt>
      <trkpt lat="50.06557" lon="2.10265">
        <ele>95.8</ele>
        <time>2024-03-27T14:28:42Z</time>
      </trkpt>
      <trkpt lat="50.06558" lon="2.10267">
        <ele>95.8</ele>
        <time>2024-03-27T14:28:43Z</time>
      </trkpt>
      <trkpt lat="50.06558" lon="2.10268">
        <ele>95.8</ele>
        <time>2024-03-27T14:28:44Z</time>
      </trkpt>
      <trkpt lat="50.06559" lon="2.10269">
        <ele>95.8</ele>
        <time>2024-03-27T14:28:45Z</time>
      </trkpt>
      <trkpt lat="50.0656" lon="2.1027">
        <ele>95.8</ele>
        <time>2024-03-27T14:28:46Z</time>
      </trkpt>
      <trkpt lat="50.0656" lon="2.1027">
        <ele>95.8</ele>
        <time>2024-03-27T14:28:47Z</time>
      </trkpt>
      <trkpt lat="50.06561" lon="2.10272">
        <ele>95.8</ele>
        <time>2024-03-27T14:28:48Z</time>
      </trkpt>
      <trkpt lat="50.06561" lon="2.10273">
        <ele>95.8</ele>
        <time>2024-03-27T14:28:49Z</time>
      </trkpt>
      <trkpt lat="50.06562" lon="2.10274">
        <ele>95.8</ele>
        <time>2024-03-27T14:28:50Z</time>
      </trkpt>
      <trkpt lat="50.06562" lon="2.10275">
        <ele>95.8</ele>
        <time>2024-03-27T14:28:51Z</time>
      </trkpt>
      <trkpt lat="50.06563" lon="2.10276">
        <ele>95.8</ele>
        <time>2024-03-27T14:28:52Z</time>
      </trkpt>
      <trkpt lat="50.06563" lon="2.10278">
        <ele>95.8</ele>
        <time>2024-03-27T14:28:53Z</time>
      </trkpt>
      <trkpt lat="50.06564" lon="2.10279">
        <ele>95.8</ele>
        <time>2024-03-27T14:28:54Z</time>
      </trkpt>
      <trkpt lat="50.06564" lon="2.1028">
        <ele>95.8</ele>
        <time>2024-03-27T14:28:55Z</time>
      </trkpt>
      <trkpt lat="50.06565" lon="2.10281">
        <ele>95.8</ele>
        <time>2024-03-27T14:28:56Z</time>
      </trkpt>
      <trkpt lat="50.06565" lon="2.10283">
        <ele>95.8</ele>
        <time>2024-03-27T14:28:57Z</time>
      </trkpt>
      <trkpt lat="50.06565" lon="2.10284">
        <ele>95.8</ele>
        <time>2024-03-27T14:28:58Z</time>
      </trkpt>
      <trkpt lat="50.06566" lon="2.10285">
        <ele>95.8</ele>
        <time>2024-03-27T14:28:59Z</time>
      </trkpt>
      <trkpt lat="50.06566" lon="2.10286">
        <ele>95.8</ele>
        <time>2024-03-27T14:29:00Z</time>
      </trkpt>
      <trkpt lat="50.06567" lon="2.10287">
        <ele>95.8</ele>
        <time>2024-03-27T14:29:01Z</time>
      </trkpt>
      <trkpt lat="50.06567" lon="2.10289">
        <ele>95.8</ele>
        <time>2024-03-27T14:29:02Z</time>
      </trkpt>
      <trkpt lat="50.06568" lon="2.1029">
        <ele>95.8</ele>
        <time>2024-03-27T14:29:03Z</time>
      </trkpt>
      <trkpt lat="50.06569" lon="2.10291">
        <ele>95.8</ele>
        <time>2024-03-27T14:29:04Z</time>
      </trkpt>
      <trkpt lat="50.06569" lon="2.10292">
        <ele>95.8</ele>
        <time>2024-03-27T14:29:05Z</time>
      </trkpt>
      <trkpt lat="50.06569" lon="2.10293">
        <ele>95.8</ele>
        <time>2024-03-27T14:29:06Z</time>
      </trkpt>
      <trkpt lat="50.0657" lon="2.10294">
        <ele>95.8</ele>
        <time>2024-03-27T14:29:07Z</time>
      </trkpt>
      <trkpt lat="50.0657" lon="2.10296">
        <ele>95.8</ele>
        <time>2024-03-27T14:29:08Z</time>
      </trkpt>
      <trkpt lat="50.06571" lon="2.10297">
        <ele>95.8</ele>
        <time>2024-03-27T14:29:09Z</time>
      </trkpt>
      <trkpt lat="50.06572" lon="2.10298">
        <ele>95.8</ele>
        <time>2024-03-27T14:29:10Z</time>
      </trkpt>
      <trkpt lat="50.06572" lon="2.10299">
        <ele>95.8</ele>
        <time>2024-03-27T14:29:11Z</time>
      </trkpt>
      <trkpt lat="50.06573" lon="2.10302">
        <ele>95.8</ele>
        <time>2024-03-27T14:29:12Z</time>
      </trkpt>
      <trkpt lat="50.06573" lon="2.10302">
        <ele>95.8</ele>
        <time>2024-03-27T14:29:13Z</time>
      </trkpt>
      <trkpt lat="50.06574" lon="2.10303">
        <ele>95.8</ele>
        <time>2024-03-27T14:29:14Z</time>
      </trkpt>
      <trkpt lat="50.06574" lon="2.10304">
        <ele>95.8</ele>
        <time>2024-03-27T14:29:15Z</time>
      </trkpt>
      <trkpt lat="50.06575" lon="2.10305">
        <ele>95.8</ele>
        <time>2024-03-27T14:29:16Z</time>
      </trkpt>
      <trkpt lat="50.06576" lon="2.10306">
        <ele>95.8</ele>
        <time>2024-03-27T14:29:17Z</time>
      </trkpt>
      <trkpt lat="50.06576" lon="2.10307">
        <ele>95.8</ele>
        <time>2024-03-27T14:29:18Z</time>
      </trkpt>
      <trkpt lat="50.06576" lon="2.10308">
        <ele>95.8</ele>
        <time>2024-03-27T14:29:19Z</time>
      </trkpt>
      <trkpt lat="50.06576" lon="2.10309">
        <ele>95.8</ele>
        <time>2024-03-27T14:29:20Z</time>
      </trkpt>
      <trkpt lat="50.06576" lon="2.1031">
        <ele>95.8</ele>
        <time>2024-03-27T14:29:21Z</time>
      </trkpt>
      <trkpt lat="50.06575" lon="2.1031">
        <ele>95.8</ele>
        <time>2024-03-27T14:29:22Z</time>
      </trkpt>
      <trkpt lat="50.06575" lon="2.1031">
        <ele>95.8</ele>
        <time>2024-03-27T14:29:23Z</time>
      </trkpt>
      <trkpt lat="50.06575" lon="2.10311">
        <ele>95.8</ele>
        <time>2024-03-27T14:29:24Z</time>
      </trkpt>
      <trkpt lat="50.06575" lon="2.10311">
        <ele>95.8</ele>
        <time>2024-03-27T14:29:25Z</time>
      </trkpt>
      <trkpt lat="50.06575" lon="2.10311">
        <ele>95.8</ele>
        <time>2024-03-27T14:29:26Z</time>
      </trkpt>
      <trkpt lat="50.06575" lon="2.10311">
        <ele>95.8</ele>
        <time>2024-03-27T14:29:27Z</time>
      </trkpt>
      <trkpt lat="50.06575" lon="2.10311">
        <ele>95.8</ele>
        <time>2024-03-27T14:29:28Z</time>
      </trkpt>
      <trkpt lat="50.06575" lon="2.10311">
        <ele>95.8</ele>
        <time>2024-03-27T14:29:29Z</time>
      </trkpt>
      <trkpt lat="50.06575" lon="2.10312">
        <ele>95.8</ele>
        <time>2024-03-27T14:29:30Z</time>
      </trkpt>
      <trkpt lat="50.06575" lon="2.10312">
        <ele>95.8</ele>
        <time>2024-03-27T14:29:31Z</time>
      </trkpt>
      <trkpt lat="50.06575" lon="2.10312">
        <ele>95.8</ele>
        <time>2024-03-27T14:29:32Z</time>
      </trkpt>
      <trkpt lat="50.06575" lon="2.10312">
        <ele>95.8</ele>
        <time>2024-03-27T14:29:33Z</time>
      </trkpt>
      <trkpt lat="50.06575" lon="2.10312">
        <ele>95.8</ele>
        <time>2024-03-27T14:29:34Z</time>
      </trkpt>
      <trkpt lat="50.06575" lon="2.10312">
        <ele>95.8</ele>
        <time>2024-03-27T14:29:35Z</time>
      </trkpt>
      <trkpt lat="50.06575" lon="2.10312">
        <ele>95.8</ele>
        <time>2024-03-27T14:29:36Z</time>
      </trkpt>
      <trkpt lat="50.06575" lon="2.10312">
        <ele>95.8</ele>
        <time>2024-03-27T14:29:37Z</time>
      </trkpt>
      <trkpt lat="50.06575" lon="2.10312">
        <ele>95.8</ele>
        <time>2024-03-27T14:29:38Z</time>
      </trkpt>
      <trkpt lat="50.06575" lon="2.10312">
        <ele>95.8</ele>
        <time>2024-03-27T14:29:39Z</time>
      </trkpt>
      <trkpt lat="50.06575" lon="2.10312">
        <ele>95.8</ele>
        <time>2024-03-27T14:29:40Z</time>
      </trkpt>
      <trkpt lat="50.06575" lon="2.10312">
        <ele>95.8</ele>
        <time>2024-03-27T14:29:41Z</time>
      </trkpt>
      <trkpt lat="50.06574" lon="2.10311">
        <ele>95.8</ele>
        <time>2024-03-27T14:29:42Z</time>
      </trkpt>
      <trkpt lat="50.06574" lon="2.10311">
        <ele>95.8</ele>
        <time>2024-03-27T14:29:43Z</time>
      </trkpt>
      <trkpt lat="50.06574" lon="2.10311">
        <ele>95.8</ele>
        <time>2024-03-27T14:29:44Z</time>
      </trkpt>
      <trkpt lat="50.06573" lon="2.10311">
        <ele>95.8</ele>
        <time>2024-03-27T14:29:45Z</time>
      </trkpt>
      <trkpt lat="50.06573" lon="2.10311">
        <ele>95.8</ele>
        <time>2024-03-27T14:29:46Z</time>
      </trkpt>
      <trkpt lat="50.06573" lon="2.10311">
        <ele>95.8</ele>
        <time>2024-03-27T14:29:47Z</time>
      </trkpt>
      <trkpt lat="50.06573" lon="2.10311">
        <ele>95.8</ele>
        <time>2024-03-27T14:29:48Z</time>
      </trkpt>
      <trkpt lat="50.06573" lon="2.10311">
        <ele>95.8</ele>
        <time>2024-03-27T14:29:49Z</time>
      </trkpt>
      <trkpt lat="50.06573" lon="2.10311">
        <ele>95.8</ele>
        <time>2024-03-27T14:29:50Z</time>
      </trkpt>
      <trkpt lat="50.06573" lon="2.10311">
        <ele>95.8</ele>
        <time>2024-03-27T14:29:51Z</time>
      </trkpt>
      <trkpt lat="50.06573" lon="2.10311">
        <ele>95.8</ele>
        <time>2024-03-27T14:29:52Z</time>
      </trkpt>
      <trkpt lat="50.06573" lon="2.10311">
        <ele>95.8</ele>
        <time>2024-03-27T14:29:53Z</time>
      </trkpt>
      <trkpt lat="50.06573" lon="2.10311">
        <ele>95.8</ele>
        <time>2024-03-27T14:29:54Z</time>
      </trkpt>
      <trkpt lat="50.06573" lon="2.10311">
        <ele>95.8</ele>
        <time>2024-03-27T14:29:55Z</time>
      </trkpt>
      <trkpt lat="50.06573" lon="2.10311">
        <ele>95.8</ele>
        <time>2024-03-27T14:29:56Z</time>
      </trkpt>
      <trkpt lat="50.06573" lon="2.10311">
        <ele>95.8</ele>
        <time>2024-03-27T14:29:57Z</time>
      </trkpt>
      <trkpt lat="50.06573" lon="2.10311">
        <ele>95.8</ele>
        <time>2024-03-27T14:29:58Z</time>
      </trkpt>
      <trkpt lat="50.06573" lon="2.10311">
        <ele>95.8</ele>
        <time>2024-03-27T14:29:59Z</time>
      </trkpt>
      <trkpt lat="50.06573" lon="2.10311">
        <ele>95.8</ele>
        <time>2024-03-27T14:30:00Z</time>
      </trkpt>
      <trkpt lat="50.06573" lon="2.10311">
        <ele>95.8</ele>
        <time>2024-03-27T14:30:01Z</time>
      </trkpt>
      <trkpt lat="50.06573" lon="2.10311">
        <ele>95.8</ele>
        <time>2024-03-27T14:30:02Z</time>
      </trkpt>
      <trkpt lat="50.06573" lon="2.10311">
        <ele>95.8</ele>
        <time>2024-03-27T14:30:03Z</time>
      </trkpt>
      <trkpt lat="50.06573" lon="2.10311">
        <ele>95.8</ele>
        <time>2024-03-27T14:30:04Z</time>
      </trkpt>
      <trkpt lat="50.06573" lon="2.10311">
        <ele>95.8</ele>
        <time>2024-03-27T14:30:05Z</time>
      </trkpt>
      <trkpt lat="50.06573" lon="2.10311">
        <ele>95.8</ele>
        <time>2024-03-27T14:30:06Z</time>
      </trkpt>
      <trkpt lat="50.06573" lon="2.10311">
        <ele>95.8</ele>
        <time>2024-03-27T14:30:07Z</time>
      </trkpt>
      <trkpt lat="50.06573" lon="2.10311">
        <ele>95.8</ele>
        <time>2024-03-27T14:30:08Z</time>
      </trkpt>
      <trkpt lat="50.06573" lon="2.10311">
        <ele>95.8</ele>
        <time>2024-03-27T14:30:09Z</time>
      </trkpt>
      <trkpt lat="50.06573" lon="2.10311">
        <ele>95.8</ele>
        <time>2024-03-27T14:30:10Z</time>
      </trkpt>
      <trkpt lat="50.06573" lon="2.10311">
        <ele>95.8</ele>
        <time>2024-03-27T14:30:11Z</time>
      </trkpt>
      <trkpt lat="50.06573" lon="2.10311">
        <ele>95.8</ele>
        <time>2024-03-27T14:30:12Z</time>
      </trkpt>
      <trkpt lat="50.06573" lon="2.10311">
        <ele>95.8</ele>
        <time>2024-03-27T14:30:13Z</time>
      </trkpt>
      <trkpt lat="50.06573" lon="2.10311">
        <ele>95.8</ele>
        <time>2024-03-27T14:30:14Z</time>
      </trkpt>
      <trkpt lat="50.06573" lon="2.10311">
        <ele>95.8</ele>
        <time>2024-03-27T14:30:15Z</time>
      </trkpt>
      <trkpt lat="50.06573" lon="2.10311">
        <ele>95.8</ele>
        <time>2024-03-27T14:30:16Z</time>
      </trkpt>
      <trkpt lat="50.06573" lon="2.10311">
        <ele>95.8</ele>
        <time>2024-03-27T14:30:17Z</time>
      </trkpt>
      <trkpt lat="50.06573" lon="2.10311">
        <ele>95.8</ele>
        <time>2024-03-27T14:30:18Z</time>
      </trkpt>
      <trkpt lat="50.06573" lon="2.10311">
        <ele>95.8</ele>
        <time>2024-03-27T14:30:19Z</time>
      </trkpt>
      <trkpt lat="50.06573" lon="2.10311">
        <ele>95.8</ele>
        <time>2024-03-27T14:30:20Z</time>
      </trkpt>
      <trkpt lat="50.06573" lon="2.10311">
        <ele>95.8</ele>
        <time>2024-03-27T14:30:21Z</time>
      </trkpt>
      <trkpt lat="50.06573" lon="2.10311">
        <ele>95.8</ele>
        <time>2024-03-27T14:30:22Z</time>
      </trkpt>
      <trkpt lat="50.06573" lon="2.10311">
        <ele>95.8</ele>
        <time>2024-03-27T14:30:23Z</time>
      </trkpt>
      <trkpt lat="50.06573" lon="2.10311">
        <ele>95.8</ele>
        <time>2024-03-27T14:30:24Z</time>
      </trkpt>
      <trkpt lat="50.06573" lon="2.10311">
        <ele>95.8</ele>
        <time>2024-03-27T14:30:25Z</time>
      </trkpt>
      <trkpt lat="50.06573" lon="2.10311">
        <ele>95.8</ele>
        <time>2024-03-27T14:30:26Z</time>
      </trkpt>
      <trkpt lat="50.06573" lon="2.10311">
        <ele>95.8</ele>
        <time>2024-03-27T14:30:27Z</time>
      </trkpt>
      <trkpt lat="50.06573" lon="2.10311">
        <ele>95.8</ele>
        <time>2024-03-27T14:30:28Z</time>
      </trkpt>
      <trkpt lat="50.06573" lon="2.10311">
        <ele>95.8</ele>
        <time>2024-03-27T14:30:29Z</time>
      </trkpt>
      <trkpt lat="50.06573" lon="2.10311">
        <ele>95.8</ele>
        <time>2024-03-27T14:30:30Z</time>
      </trkpt>
      <trkpt lat="50.06573" lon="2.10311">
        <ele>95.8</ele>
        <time>2024-03-27T14:30:31Z</time>
      </trkpt>
      <trkpt lat="50.06573" lon="2.10311">
        <ele>95.8</ele>
        <time>2024-03-27T14:30:32Z</time>
      </trkpt>
      <trkpt lat="50.06573" lon="2.10311">
        <ele>95.8</ele>
        <time>2024-03-27T14:30:33Z</time>
      </trkpt>
      <trkpt lat="50.06573" lon="2.10311">
        <ele>95.8</ele>
        <time>2024-03-27T14:30:34Z</time>
      </trkpt>
      <trkpt lat="50.06573" lon="2.10311">
        <ele>95.8</ele>
        <time>2024-03-27T14:30:35Z</time>
      </trkpt>
      <trkpt lat="50.06573" lon="2.1031">
        <ele>95.8</ele>
        <time>2024-03-27T14:30:36Z</time>
      </trkpt>
      <trkpt lat="50.06574" lon="2.1031">
        <ele>95.8</ele>
        <time>2024-03-27T14:30:37Z</time>
      </trkpt>
      <trkpt lat="50.06574" lon="2.1031">
        <ele>95.8</ele>
        <time>2024-03-27T14:30:38Z</time>
      </trkpt>
      <trkpt lat="50.06574" lon="2.1031">
        <ele>95.8</ele>
        <time>2024-03-27T14:30:39Z</time>
      </trkpt>
      <trkpt lat="50.06574" lon="2.1031">
        <ele>95.8</ele>
        <time>2024-03-27T14:30:40Z</time>
      </trkpt>
      <trkpt lat="50.06574" lon="2.1031">
        <ele>95.8</ele>
        <time>2024-03-27T14:30:41Z</time>
      </trkpt>
      <trkpt lat="50.06574" lon="2.1031">
        <ele>95.8</ele>
        <time>2024-03-27T14:30:42Z</time>
      </trkpt>
      <trkpt lat="50.06574" lon="2.1031">
        <ele>95.8</ele>
        <time>2024-03-27T14:30:43Z</time>
      </trkpt>
      <trkpt lat="50.06574" lon="2.1031">
        <ele>95.8</ele>
        <time>2024-03-27T14:30:44Z</time>
      </trkpt>
      <trkpt lat="50.06574" lon="2.1031">
        <ele>95.8</ele>
        <time>2024-03-27T14:30:45Z</time>
      </trkpt>
      <trkpt lat="50.06574" lon="2.1031">
        <ele>95.8</ele>
        <time>2024-03-27T14:30:46Z</time>
      </trkpt>
      <trkpt lat="50.06574" lon="2.1031">
        <ele>95.8</ele>
        <time>2024-03-27T14:30:47Z</time>
      </trkpt>
      <trkpt lat="50.06574" lon="2.1031">
        <ele>95.8</ele>
        <time>2024-03-27T14:30:48Z</time>
      </trkpt>
      <trkpt lat="50.06574" lon="2.1031">
        <ele>95.8</ele>
        <time>2024-03-27T14:30:49Z</time>
      </trkpt>
      <trkpt lat="50.06574" lon="2.1031">
        <ele>95.8</ele>
        <time>2024-03-27T14:30:50Z</time>
      </trkpt>
      <trkpt lat="50.06574" lon="2.1031">
        <ele>95.8</ele>
        <time>2024-03-27T14:30:51Z</time>
      </trkpt>
      <trkpt lat="50.06574" lon="2.1031">
        <ele>95.8</ele>
        <time>2024-03-27T14:30:52Z</time>
      </trkpt>
      <trkpt lat="50.06574" lon="2.1031">
        <ele>95.8</ele>
        <time>2024-03-27T14:30:53Z</time>
      </trkpt>
      <trkpt lat="50.06574" lon="2.1031">
        <ele>95.8</ele>
        <time>2024-03-27T14:30:54Z</time>
      </trkpt>
      <trkpt lat="50.06574" lon="2.1031">
        <ele>95.8</ele>
        <time>2024-03-27T14:30:55Z</time>
      </trkpt>
      <trkpt lat="50.06574" lon="2.1031">
        <ele>95.8</ele>
        <time>2024-03-27T14:30:56Z</time>
      </trkpt>
      <trkpt lat="50.06574" lon="2.1031">
        <ele>95.8</ele>
        <time>2024-03-27T14:30:57Z</time>
      </trkpt>
      <trkpt lat="50.06574" lon="2.1031">
        <ele>95.8</ele>
        <time>2024-03-27T14:30:58Z</time>
      </trkpt>
      <trkpt lat="50.06574" lon="2.1031">
        <ele>95.8</ele>
        <time>2024-03-27T14:30:59Z</time>
      </trkpt>
      <trkpt lat="50.06574" lon="2.1031">
        <ele>95.8</ele>
        <time>2024-03-27T14:31:00Z</time>
      </trkpt>
      <trkpt lat="50.06574" lon="2.1031">
        <ele>95.8</ele>
        <time>2024-03-27T14:31:01Z</time>
      </trkpt>
      <trkpt lat="50.06574" lon="2.1031">
        <ele>95.8</ele>
        <time>2024-03-27T14:31:02Z</time>
      </trkpt>
      <trkpt lat="50.06574" lon="2.1031">
        <ele>95.8</ele>
        <time>2024-03-27T14:31:03Z</time>
      </trkpt>
      <trkpt lat="50.06574" lon="2.1031">
        <ele>95.8</ele>
        <time>2024-03-27T14:31:04Z</time>
      </trkpt>
      <trkpt lat="50.06574" lon="2.1031">
        <ele>95.8</ele>
        <time>2024-03-27T14:31:05Z</time>
      </trkpt>
      <trkpt lat="50.06574" lon="2.1031">
        <ele>95.8</ele>
        <time>2024-03-27T14:31:06Z</time>
      </trkpt>
      <trkpt lat="50.06574" lon="2.1031">
        <ele>95.8</ele>
        <time>2024-03-27T14:31:07Z</time>
      </trkpt>
      <trkpt lat="50.06574" lon="2.1031">
        <ele>95.8</ele>
        <time>2024-03-27T14:31:08Z</time>
      </trkpt>
      <trkpt lat="50.06574" lon="2.1031">
        <ele>95.8</ele>
        <time>2024-03-27T14:31:09Z</time>
      </trkpt>
      <trkpt lat="50.06574" lon="2.1031">
        <ele>95.8</ele>
        <time>2024-03-27T14:31:10Z</time>
      </trkpt>
      <trkpt lat="50.06574" lon="2.1031">
        <ele>95.8</ele>
        <time>2024-03-27T14:31:11Z</time>
      </trkpt>
      <trkpt lat="50.06574" lon="2.1031">
        <ele>95.8</ele>
        <time>2024-03-27T14:31:12Z</time>
      </trkpt>
      <trkpt lat="50.06574" lon="2.1031">
        <ele>95.8</ele>
        <time>2024-03-27T14:31:13Z</time>
      </trkpt>
      <trkpt lat="50.06574" lon="2.1031">
        <ele>95.8</ele>
        <time>2024-03-27T14:31:14Z</time>
      </trkpt>
      <trkpt lat="50.06574" lon="2.1031">
        <ele>95.8</ele>
        <time>2024-03-27T14:31:15Z</time>
      </trkpt>
      <trkpt lat="50.06574" lon="2.1031">
        <ele>95.8</ele>
        <time>2024-03-27T14:31:16Z</time>
      </trkpt>
      <trkpt lat="50.06574" lon="2.1031">
        <ele>95.8</ele>
        <time>2024-03-27T14:31:17Z</time>
      </trkpt>
      <trkpt lat="50.06574" lon="2.1031">
        <ele>95.8</ele>
        <time>2024-03-27T14:31:18Z</time>
      </trkpt>
      <trkpt lat="50.06574" lon="2.1031">
        <ele>95.8</ele>
        <time>2024-03-27T14:31:19Z</time>
      </trkpt>
      <trkpt lat="50.06574" lon="2.1031">
        <ele>95.8</ele>
        <time>2024-03-27T14:31:20Z</time>
      </trkpt>
      <trkpt lat="50.06574" lon="2.1031">
        <ele>95.8</ele>
        <time>2024-03-27T14:31:21Z</time>
      </trkpt>
      <trkpt lat="50.06574" lon="2.10311">
        <ele>95.8</ele>
        <time>2024-03-27T14:31:22Z</time>
      </trkpt>
      <trkpt lat="50.06574" lon="2.10312">
        <ele>95.8</ele>
        <time>2024-03-27T14:31:23Z</time>
      </trkpt>
      <trkpt lat="50.06575" lon="2.10313">
        <ele>95.8</ele>
        <time>2024-03-27T14:31:24Z</time>
      </trkpt>
      <trkpt lat="50.06575" lon="2.10313">
        <ele>95.8</ele>
        <time>2024-03-27T14:31:25Z</time>
      </trkpt>
      <trkpt lat="50.06575" lon="2.10314">
        <ele>95.8</ele>
        <time>2024-03-27T14:31:26Z</time>
      </trkpt>
      <trkpt lat="50.06575" lon="2.10314">
        <ele>95.8</ele>
        <time>2024-03-27T14:31:27Z</time>
      </trkpt>
      <trkpt lat="50.06575" lon="2.10315">
        <ele>95.8</ele>
        <time>2024-03-27T14:31:28Z</time>
      </trkpt>
      <trkpt lat="50.06576" lon="2.10317">
        <ele>95.8</ele>
        <time>2024-03-27T14:31:29Z</time>
      </trkpt>
      <trkpt lat="50.06577" lon="2.10318">
        <ele>95.8</ele>
        <time>2024-03-27T14:31:30Z</time>
      </trkpt>
      <trkpt lat="50.06577" lon="2.10319">
        <ele>95.8</ele>
        <time>2024-03-27T14:31:31Z</time>
      </trkpt>
      <trkpt lat="50.06578" lon="2.1032">
        <ele>95.8</ele>
        <time>2024-03-27T14:31:32Z</time>
      </trkpt>
      <trkpt lat="50.06579" lon="2.10321">
        <ele>95.8</ele>
        <time>2024-03-27T14:31:33Z</time>
      </trkpt>
      <trkpt lat="50.06579" lon="2.10322">
        <ele>95.8</ele>
        <time>2024-03-27T14:31:34Z</time>
      </trkpt>
      <trkpt lat="50.0658" lon="2.10323">
        <ele>95.8</ele>
        <time>2024-03-27T14:31:35Z</time>
      </trkpt>
      <trkpt lat="50.06581" lon="2.10323">
        <ele>95.8</ele>
        <time>2024-03-27T14:31:36Z</time>
      </trkpt>
      <trkpt lat="50.06582" lon="2.10322">
        <ele>95.8</ele>
        <time>2024-03-27T14:31:37Z</time>
      </trkpt>
      <trkpt lat="50.06582" lon="2.10321">
        <ele>95.8</ele>
        <time>2024-03-27T14:31:38Z</time>
      </trkpt>
      <trkpt lat="50.06581" lon="2.10319">
        <ele>95.8</ele>
        <time>2024-03-27T14:31:39Z</time>
      </trkpt>
      <trkpt lat="50.06581" lon="2.10319">
        <ele>95.8</ele>
        <time>2024-03-27T14:31:40Z</time>
      </trkpt>
      <trkpt lat="50.06581" lon="2.1032">
        <ele>95.8</ele>
        <time>2024-03-27T14:31:41Z</time>
      </trkpt>
      <trkpt lat="50.06581" lon="2.10321">
        <ele>95.8</ele>
        <time>2024-03-27T14:31:42Z</time>
      </trkpt>
      <trkpt lat="50.06582" lon="2.10321">
        <ele>95.8</ele>
        <time>2024-03-27T14:31:43Z</time>
      </trkpt>
      <trkpt lat="50.06582" lon="2.10322">
        <ele>95.8</ele>
        <time>2024-03-27T14:31:44Z</time>
      </trkpt>
      <trkpt lat="50.06583" lon="2.10324">
        <ele>95.8</ele>
        <time>2024-03-27T14:31:45Z</time>
      </trkpt>
      <trkpt lat="50.06584" lon="2.10325">
        <ele>95.8</ele>
        <time>2024-03-27T14:31:46Z</time>
      </trkpt>
      <trkpt lat="50.06585" lon="2.10327">
        <ele>95.8</ele>
        <time>2024-03-27T14:31:47Z</time>
      </trkpt>
      <trkpt lat="50.06585" lon="2.10329">
        <ele>95.8</ele>
        <time>2024-03-27T14:31:48Z</time>
      </trkpt>
      <trkpt lat="50.06585" lon="2.1033">
        <ele>95.8</ele>
        <time>2024-03-27T14:31:49Z</time>
      </trkpt>
      <trkpt lat="50.06586" lon="2.10332">
        <ele>95.8</ele>
        <time>2024-03-27T14:31:50Z</time>
      </trkpt>
      <trkpt lat="50.06586" lon="2.10334">
        <ele>95.7</ele>
        <time>2024-03-27T14:31:51Z</time>
      </trkpt>
      <trkpt lat="50.06588" lon="2.10337">
        <ele>95.7</ele>
        <time>2024-03-27T14:31:52Z</time>
      </trkpt>
      <trkpt lat="50.06588" lon="2.10338">
        <ele>95.7</ele>
        <time>2024-03-27T14:31:53Z</time>
      </trkpt>
      <trkpt lat="50.06589" lon="2.1034">
        <ele>95.7</ele>
        <time>2024-03-27T14:31:54Z</time>
      </trkpt>
      <trkpt lat="50.06589" lon="2.10341">
        <ele>95.7</ele>
        <time>2024-03-27T14:31:55Z</time>
      </trkpt>
      <trkpt lat="50.0659" lon="2.10342">
        <ele>95.7</ele>
        <time>2024-03-27T14:31:56Z</time>
      </trkpt>
      <trkpt lat="50.06591" lon="2.10344">
        <ele>95.7</ele>
        <time>2024-03-27T14:31:57Z</time>
      </trkpt>
      <trkpt lat="50.06591" lon="2.10346">
        <ele>95.6</ele>
        <time>2024-03-27T14:31:58Z</time>
      </trkpt>
      <trkpt lat="50.06592" lon="2.10347">
        <ele>95.6</ele>
        <time>2024-03-27T14:31:59Z</time>
      </trkpt>
      <trkpt lat="50.06592" lon="2.10349">
        <ele>95.6</ele>
        <time>2024-03-27T14:32:00Z</time>
      </trkpt>
      <trkpt lat="50.06593" lon="2.1035">
        <ele>95.6</ele>
        <time>2024-03-27T14:32:01Z</time>
      </trkpt>
      <trkpt lat="50.06593" lon="2.10352">
        <ele>95.6</ele>
        <time>2024-03-27T14:32:02Z</time>
      </trkpt>
      <trkpt lat="50.06593" lon="2.10354">
        <ele>95.6</ele>
        <time>2024-03-27T14:32:03Z</time>
      </trkpt>
      <trkpt lat="50.06593" lon="2.10355">
        <ele>95.6</ele>
        <time>2024-03-27T14:32:04Z</time>
      </trkpt>
      <trkpt lat="50.06593" lon="2.10357">
        <ele>95.6</ele>
        <time>2024-03-27T14:32:05Z</time>
      </trkpt>
      <trkpt lat="50.06594" lon="2.10358">
        <ele>95.6</ele>
        <time>2024-03-27T14:32:06Z</time>
      </trkpt>
      <trkpt lat="50.06594" lon="2.1036">
        <ele>95.6</ele>
        <time>2024-03-27T14:32:07Z</time>
      </trkpt>
      <trkpt lat="50.06595" lon="2.10361">
        <ele>95.6</ele>
        <time>2024-03-27T14:32:08Z</time>
      </trkpt>
      <trkpt lat="50.06595" lon="2.10363">
        <ele>95.6</ele>
        <time>2024-03-27T14:32:09Z</time>
      </trkpt>
      <trkpt lat="50.06596" lon="2.10365">
        <ele>95.5</ele>
        <time>2024-03-27T14:32:10Z</time>
      </trkpt>
      <trkpt lat="50.06596" lon="2.10366">
        <ele>95.5</ele>
        <time>2024-03-27T14:32:11Z</time>
      </trkpt>
      <trkpt lat="50.06596" lon="2.10367">
        <ele>95.5</ele>
        <time>2024-03-27T14:32:12Z</time>
      </trkpt>
      <trkpt lat="50.06597" lon="2.10369">
        <ele>95.5</ele>
        <time>2024-03-27T14:32:13Z</time>
      </trkpt>
      <trkpt lat="50.06597" lon="2.1037">
        <ele>95.5</ele>
        <time>2024-03-27T14:32:14Z</time>
      </trkpt>
      <trkpt lat="50.06597" lon="2.10371">
        <ele>95.5</ele>
        <time>2024-03-27T14:32:15Z</time>
      </trkpt>
      <trkpt lat="50.06598" lon="2.10373">
        <ele>95.5</ele>
        <time>2024-03-27T14:32:16Z</time>
      </trkpt>
      <trkpt lat="50.06598" lon="2.10374">
        <ele>95.5</ele>
        <time>2024-03-27T14:32:17Z</time>
      </trkpt>
      <trkpt lat="50.06598" lon="2.10375">
        <ele>95.5</ele>
        <time>2024-03-27T14:32:18Z</time>
      </trkpt>
      <trkpt lat="50.06599" lon="2.10377">
        <ele>95.5</ele>
        <time>2024-03-27T14:32:19Z</time>
      </trkpt>
      <trkpt lat="50.06599" lon="2.10378">
        <ele>95.5</ele>
        <time>2024-03-27T14:32:20Z</time>
      </trkpt>
      <trkpt lat="50.06599" lon="2.10379">
        <ele>95.5</ele>
        <time>2024-03-27T14:32:21Z</time>
      </trkpt>
      <trkpt lat="50.066" lon="2.1038">
        <ele>95.5</ele>
        <time>2024-03-27T14:32:22Z</time>
      </trkpt>
      <trkpt lat="50.066" lon="2.10382">
        <ele>95.5</ele>
        <time>2024-03-27T14:32:23Z</time>
      </trkpt>
      <trkpt lat="50.06601" lon="2.10383">
        <ele>95.5</ele>
        <time>2024-03-27T14:32:24Z</time>
      </trkpt>
      <trkpt lat="50.06601" lon="2.10384">
        <ele>95.5</ele>
        <time>2024-03-27T14:32:25Z</time>
      </trkpt>
      <trkpt lat="50.06602" lon="2.10385">
        <ele>95.5</ele>
        <time>2024-03-27T14:32:26Z</time>
      </trkpt>
      <trkpt lat="50.06602" lon="2.10387">
        <ele>95.5</ele>
        <time>2024-03-27T14:32:27Z</time>
      </trkpt>
      <trkpt lat="50.06603" lon="2.10388">
        <ele>95.5</ele>
        <time>2024-03-27T14:32:28Z</time>
      </trkpt>
      <trkpt lat="50.06603" lon="2.10389">
        <ele>95.5</ele>
        <time>2024-03-27T14:32:29Z</time>
      </trkpt>
      <trkpt lat="50.06604" lon="2.1039">
        <ele>95.5</ele>
        <time>2024-03-27T14:32:30Z</time>
      </trkpt>
      <trkpt lat="50.06604" lon="2.10392">
        <ele>95.5</ele>
        <time>2024-03-27T14:32:31Z</time>
      </trkpt>
      <trkpt lat="50.06605" lon="2.10393">
        <ele>95.5</ele>
        <time>2024-03-27T14:32:32Z</time>
      </trkpt>
      <trkpt lat="50.06605" lon="2.10394">
        <ele>95.5</ele>
        <time>2024-03-27T14:32:33Z</time>
      </trkpt>
      <trkpt lat="50.06606" lon="2.10395">
        <ele>95.5</ele>
        <time>2024-03-27T14:32:34Z</time>
      </trkpt>
      <trkpt lat="50.06606" lon="2.10397">
        <ele>95.5</ele>
        <time>2024-03-27T14:32:35Z</time>
      </trkpt>
      <trkpt lat="50.06607" lon="2.10398">
        <ele>95.5</ele>
        <time>2024-03-27T14:32:36Z</time>
      </trkpt>
      <trkpt lat="50.06608" lon="2.10399">
        <ele>95.5</ele>
        <time>2024-03-27T14:32:37Z</time>
      </trkpt>
      <trkpt lat="50.06608" lon="2.104">
        <ele>95.5</ele>
        <time>2024-03-27T14:32:38Z</time>
      </trkpt>
      <trkpt lat="50.06609" lon="2.10401">
        <ele>95.5</ele>
        <time>2024-03-27T14:32:39Z</time>
      </trkpt>
      <trkpt lat="50.06609" lon="2.10402">
        <ele>95.5</ele>
        <time>2024-03-27T14:32:40Z</time>
      </trkpt>
      <trkpt lat="50.06609" lon="2.10403">
        <ele>95.5</ele>
        <time>2024-03-27T14:32:41Z</time>
      </trkpt>
      <trkpt lat="50.0661" lon="2.10405">
        <ele>95.5</ele>
        <time>2024-03-27T14:32:42Z</time>
      </trkpt>
      <trkpt lat="50.0661" lon="2.10406">
        <ele>95.5</ele>
        <time>2024-03-27T14:32:43Z</time>
      </trkpt>
      <trkpt lat="50.06611" lon="2.10407">
        <ele>95.5</ele>
        <time>2024-03-27T14:32:44Z</time>
      </trkpt>
      <trkpt lat="50.06611" lon="2.10409">
        <ele>95.5</ele>
        <time>2024-03-27T14:32:45Z</time>
      </trkpt>
      <trkpt lat="50.06611" lon="2.1041">
        <ele>95.5</ele>
        <time>2024-03-27T14:32:46Z</time>
      </trkpt>
      <trkpt lat="50.06612" lon="2.10412">
        <ele>95.5</ele>
        <time>2024-03-27T14:32:47Z</time>
      </trkpt>
      <trkpt lat="50.06612" lon="2.10413">
        <ele>95.5</ele>
        <time>2024-03-27T14:32:48Z</time>
      </trkpt>
      <trkpt lat="50.06613" lon="2.10415">
        <ele>95.5</ele>
        <time>2024-03-27T14:32:49Z</time>
      </trkpt>
      <trkpt lat="50.06613" lon="2.10416">
        <ele>95.5</ele>
        <time>2024-03-27T14:32:50Z</time>
      </trkpt>
      <trkpt lat="50.06613" lon="2.10418">
        <ele>95.5</ele>
        <time>2024-03-27T14:32:51Z</time>
      </trkpt>
      <trkpt lat="50.06613" lon="2.10419">
        <ele>95.5</ele>
        <time>2024-03-27T14:32:52Z</time>
      </trkpt>
      <trkpt lat="50.06614" lon="2.1042">
        <ele>95.5</ele>
        <time>2024-03-27T14:32:53Z</time>
      </trkpt>
      <trkpt lat="50.06614" lon="2.10421">
        <ele>95.5</ele>
        <time>2024-03-27T14:32:54Z</time>
      </trkpt>
      <trkpt lat="50.06615" lon="2.10419">
        <ele>95.5</ele>
        <time>2024-03-27T14:32:55Z</time>
      </trkpt>
      <trkpt lat="50.06614" lon="2.10418">
        <ele>95.5</ele>
        <time>2024-03-27T14:32:56Z</time>
      </trkpt>
      <trkpt lat="50.06614" lon="2.10417">
        <ele>95.5</ele>
        <time>2024-03-27T14:32:57Z</time>
      </trkpt>
      <trkpt lat="50.06613" lon="2.10417">
        <ele>95.5</ele>
        <time>2024-03-27T14:32:58Z</time>
      </trkpt>
      <trkpt lat="50.06613" lon="2.10418">
        <ele>95.5</ele>
        <time>2024-03-27T14:32:59Z</time>
      </trkpt>
      <trkpt lat="50.06613" lon="2.1042">
        <ele>95.5</ele>
        <time>2024-03-27T14:33:00Z</time>
      </trkpt>
      <trkpt lat="50.06614" lon="2.10422">
        <ele>95.5</ele>
        <time>2024-03-27T14:33:01Z</time>
      </trkpt>
      <trkpt lat="50.06614" lon="2.10423">
        <ele>95.5</ele>
        <time>2024-03-27T14:33:02Z</time>
      </trkpt>
      <trkpt lat="50.06614" lon="2.10427">
        <ele>95.5</ele>
        <time>2024-03-27T14:33:03Z</time>
      </trkpt>
      <trkpt lat="50.06615" lon="2.10428">
        <ele>95.5</ele>
        <time>2024-03-27T14:33:04Z</time>
      </trkpt>
      <trkpt lat="50.06615" lon="2.1043">
        <ele>95.5</ele>
        <time>2024-03-27T14:33:05Z</time>
      </trkpt>
      <trkpt lat="50.06615" lon="2.10432">
        <ele>95.5</ele>
        <time>2024-03-27T14:33:06Z</time>
      </trkpt>
      <trkpt lat="50.06616" lon="2.10434">
        <ele>95.5</ele>
        <time>2024-03-27T14:33:07Z</time>
      </trkpt>
      <trkpt lat="50.06617" lon="2.10437">
        <ele>95.5</ele>
        <time>2024-03-27T14:33:08Z</time>
      </trkpt>
      <trkpt lat="50.06617" lon="2.10439">
        <ele>95.5</ele>
        <time>2024-03-27T14:33:09Z</time>
      </trkpt>
      <trkpt lat="50.06617" lon="2.1044">
        <ele>95.5</ele>
        <time>2024-03-27T14:33:10Z</time>
      </trkpt>
      <trkpt lat="50.06618" lon="2.10443">
        <ele>95.5</ele>
        <time>2024-03-27T14:33:11Z</time>
      </trkpt>
      <trkpt lat="50.06619" lon="2.10444">
        <ele>95.5</ele>
        <time>2024-03-27T14:33:12Z</time>
      </trkpt>
      <trkpt lat="50.06619" lon="2.10445">
        <ele>95.5</ele>
        <time>2024-03-27T14:33:13Z</time>
      </trkpt>
      <trkpt lat="50.0662" lon="2.10448">
        <ele>95.4</ele>
        <time>2024-03-27T14:33:14Z</time>
      </trkpt>
      <trkpt lat="50.06621" lon="2.10449">
        <ele>95.4</ele>
        <time>2024-03-27T14:33:15Z</time>
      </trkpt>
      <trkpt lat="50.06621" lon="2.1045">
        <ele>95.4</ele>
        <time>2024-03-27T14:33:16Z</time>
      </trkpt>
      <trkpt lat="50.06622" lon="2.10453">
        <ele>95.4</ele>
        <time>2024-03-27T14:33:17Z</time>
      </trkpt>
      <trkpt lat="50.06623" lon="2.10454">
        <ele>95.4</ele>
        <time>2024-03-27T14:33:18Z</time>
      </trkpt>
      <trkpt lat="50.06623" lon="2.10455">
        <ele>95.4</ele>
        <time>2024-03-27T14:33:19Z</time>
      </trkpt>
      <trkpt lat="50.06624" lon="2.10458">
        <ele>95.4</ele>
        <time>2024-03-27T14:33:20Z</time>
      </trkpt>
      <trkpt lat="50.06624" lon="2.10459">
        <ele>95.4</ele>
        <time>2024-03-27T14:33:21Z</time>
      </trkpt>
      <trkpt lat="50.06625" lon="2.1046">
        <ele>95.4</ele>
        <time>2024-03-27T14:33:22Z</time>
      </trkpt>
      <trkpt lat="50.06625" lon="2.10461">
        <ele>95.4</ele>
        <time>2024-03-27T14:33:23Z</time>
      </trkpt>
      <trkpt lat="50.06626" lon="2.10463">
        <ele>95.4</ele>
        <time>2024-03-27T14:33:24Z</time>
      </trkpt>
      <trkpt lat="50.06627" lon="2.10464">
        <ele>95.4</ele>
        <time>2024-03-27T14:33:25Z</time>
      </trkpt>
      <trkpt lat="50.06627" lon="2.10466">
        <ele>95.4</ele>
        <time>2024-03-27T14:33:26Z</time>
      </trkpt>
      <trkpt lat="50.06628" lon="2.10467">
        <ele>95.4</ele>
        <time>2024-03-27T14:33:27Z</time>
      </trkpt>
      <trkpt lat="50.06628" lon="2.10468">
        <ele>95.3</ele>
        <time>2024-03-27T14:33:28Z</time>
      </trkpt>
      <trkpt lat="50.06629" lon="2.1047">
        <ele>95.3</ele>
        <time>2024-03-27T14:33:29Z</time>
      </trkpt>
      <trkpt lat="50.06629" lon="2.10472">
        <ele>95.3</ele>
        <time>2024-03-27T14:33:30Z</time>
      </trkpt>
      <trkpt lat="50.0663" lon="2.10473">
        <ele>95.3</ele>
        <time>2024-03-27T14:33:31Z</time>
      </trkpt>
      <trkpt lat="50.06631" lon="2.10475">
        <ele>95.3</ele>
        <time>2024-03-27T14:33:32Z</time>
      </trkpt>
      <trkpt lat="50.06631" lon="2.10476">
        <ele>95.3</ele>
        <time>2024-03-27T14:33:33Z</time>
      </trkpt>
      <trkpt lat="50.06632" lon="2.10478">
        <ele>95.3</ele>
        <time>2024-03-27T14:33:34Z</time>
      </trkpt>
      <trkpt lat="50.06632" lon="2.10479">
        <ele>95.3</ele>
        <time>2024-03-27T14:33:35Z</time>
      </trkpt>
      <trkpt lat="50.06633" lon="2.10481">
        <ele>95.3</ele>
        <time>2024-03-27T14:33:36Z</time>
      </trkpt>
      <trkpt lat="50.06633" lon="2.10482">
        <ele>95.3</ele>
        <time>2024-03-27T14:33:37Z</time>
      </trkpt>
      <trkpt lat="50.06634" lon="2.10484">
        <ele>95.3</ele>
        <time>2024-03-27T14:33:38Z</time>
      </trkpt>
      <trkpt lat="50.06634" lon="2.10485">
        <ele>95.3</ele>
        <time>2024-03-27T14:33:39Z</time>
      </trkpt>
      <trkpt lat="50.06635" lon="2.10487">
        <ele>95.3</ele>
        <time>2024-03-27T14:33:40Z</time>
      </trkpt>
      <trkpt lat="50.06635" lon="2.10488">
        <ele>95.2</ele>
        <time>2024-03-27T14:33:41Z</time>
      </trkpt>
      <trkpt lat="50.06636" lon="2.1049">
        <ele>95.2</ele>
        <time>2024-03-27T14:33:42Z</time>
      </trkpt>
      <trkpt lat="50.06636" lon="2.10491">
        <ele>95.2</ele>
        <time>2024-03-27T14:33:43Z</time>
      </trkpt>
      <trkpt lat="50.06637" lon="2.10494">
        <ele>95.2</ele>
        <time>2024-03-27T14:33:44Z</time>
      </trkpt>
      <trkpt lat="50.06638" lon="2.10496">
        <ele>95.2</ele>
        <time>2024-03-27T14:33:45Z</time>
      </trkpt>
      <trkpt lat="50.06638" lon="2.10497">
        <ele>95.2</ele>
        <time>2024-03-27T14:33:46Z</time>
      </trkpt>
      <trkpt lat="50.06638" lon="2.10498">
        <ele>95.2</ele>
        <time>2024-03-27T14:33:47Z</time>
      </trkpt>
      <trkpt lat="50.06639" lon="2.105">
        <ele>95.2</ele>
        <time>2024-03-27T14:33:48Z</time>
      </trkpt>
      <trkpt lat="50.06639" lon="2.10502">
        <ele>95.2</ele>
        <time>2024-03-27T14:33:49Z</time>
      </trkpt>
      <trkpt lat="50.06639" lon="2.10503">
        <ele>95.2</ele>
        <time>2024-03-27T14:33:50Z</time>
      </trkpt>
      <trkpt lat="50.0664" lon="2.10505">
        <ele>95.2</ele>
        <time>2024-03-27T14:33:51Z</time>
      </trkpt>
      <trkpt lat="50.0664" lon="2.10507">
        <ele>95.2</ele>
        <time>2024-03-27T14:33:52Z</time>
      </trkpt>
      <trkpt lat="50.06641" lon="2.1051">
        <ele>95.2</ele>
        <time>2024-03-27T14:33:53Z</time>
      </trkpt>
      <trkpt lat="50.06642" lon="2.10511">
        <ele>95.1</ele>
        <time>2024-03-27T14:33:54Z</time>
      </trkpt>
      <trkpt lat="50.06642" lon="2.10512">
        <ele>95.1</ele>
        <time>2024-03-27T14:33:55Z</time>
      </trkpt>
      <trkpt lat="50.06643" lon="2.10515">
        <ele>95.1</ele>
        <time>2024-03-27T14:33:56Z</time>
      </trkpt>
      <trkpt lat="50.06643" lon="2.10516">
        <ele>95.1</ele>
        <time>2024-03-27T14:33:57Z</time>
      </trkpt>
      <trkpt lat="50.06643" lon="2.10517">
        <ele>95.1</ele>
        <time>2024-03-27T14:33:58Z</time>
      </trkpt>
      <trkpt lat="50.06644" lon="2.1052">
        <ele>95.1</ele>
        <time>2024-03-27T14:33:59Z</time>
      </trkpt>
      <trkpt lat="50.06645" lon="2.10521">
        <ele>95.1</ele>
        <time>2024-03-27T14:34:00Z</time>
      </trkpt>
      <trkpt lat="50.06645" lon="2.10522">
        <ele>95.1</ele>
        <time>2024-03-27T14:34:01Z</time>
      </trkpt>
      <trkpt lat="50.06646" lon="2.10524">
        <ele>95.1</ele>
        <time>2024-03-27T14:34:02Z</time>
      </trkpt>
      <trkpt lat="50.06646" lon="2.10525">
        <ele>95.1</ele>
        <time>2024-03-27T14:34:03Z</time>
      </trkpt>
      <trkpt lat="50.06647" lon="2.10527">
        <ele>95.1</ele>
        <time>2024-03-27T14:34:04Z</time>
      </trkpt>
      <trkpt lat="50.06647" lon="2.10528">
        <ele>95.1</ele>
        <time>2024-03-27T14:34:05Z</time>
      </trkpt>
      <trkpt lat="50.06648" lon="2.1053">
        <ele>95.1</ele>
        <time>2024-03-27T14:34:06Z</time>
      </trkpt>
      <trkpt lat="50.06648" lon="2.10531">
        <ele>95.1</ele>
        <time>2024-03-27T14:34:07Z</time>
      </trkpt>
      <trkpt lat="50.06649" lon="2.10533">
        <ele>95.1</ele>
        <time>2024-03-27T14:34:08Z</time>
      </trkpt>
      <trkpt lat="50.06649" lon="2.10535">
        <ele>95</ele>
        <time>2024-03-27T14:34:09Z</time>
      </trkpt>
      <trkpt lat="50.0665" lon="2.10536">
        <ele>95</ele>
        <time>2024-03-27T14:34:10Z</time>
      </trkpt>
      <trkpt lat="50.0665" lon="2.10538">
        <ele>95</ele>
        <time>2024-03-27T14:34:11Z</time>
      </trkpt>
      <trkpt lat="50.06651" lon="2.1054">
        <ele>95</ele>
        <time>2024-03-27T14:34:12Z</time>
      </trkpt>
      <trkpt lat="50.06651" lon="2.10541">
        <ele>95</ele>
        <time>2024-03-27T14:34:13Z</time>
      </trkpt>
      <trkpt lat="50.06652" lon="2.10543">
        <ele>95</ele>
        <time>2024-03-27T14:34:14Z</time>
      </trkpt>
      <trkpt lat="50.06652" lon="2.10544">
        <ele>95</ele>
        <time>2024-03-27T14:34:15Z</time>
      </trkpt>
      <trkpt lat="50.06653" lon="2.10545">
        <ele>95</ele>
        <time>2024-03-27T14:34:16Z</time>
      </trkpt>
      <trkpt lat="50.06653" lon="2.10547">
        <ele>95</ele>
        <time>2024-03-27T14:34:17Z</time>
      </trkpt>
      <trkpt lat="50.06654" lon="2.10548">
        <ele>95</ele>
        <time>2024-03-27T14:34:18Z</time>
      </trkpt>
      <trkpt lat="50.06654" lon="2.1055">
        <ele>95</ele>
        <time>2024-03-27T14:34:19Z</time>
      </trkpt>
      <trkpt lat="50.06655" lon="2.10552">
        <ele>95</ele>
        <time>2024-03-27T14:34:20Z</time>
      </trkpt>
      <trkpt lat="50.06655" lon="2.10553">
        <ele>95</ele>
        <time>2024-03-27T14:34:21Z</time>
      </trkpt>
      <trkpt lat="50.06655" lon="2.10555">
        <ele>95</ele>
        <time>2024-03-27T14:34:22Z</time>
      </trkpt>
      <trkpt lat="50.06656" lon="2.10556">
        <ele>95</ele>
        <time>2024-03-27T14:34:23Z</time>
      </trkpt>
      <trkpt lat="50.06657" lon="2.10558">
        <ele>94.9</ele>
        <time>2024-03-27T14:34:24Z</time>
      </trkpt>
      <trkpt lat="50.06657" lon="2.10559">
        <ele>94.9</ele>
        <time>2024-03-27T14:34:25Z</time>
      </trkpt>
      <trkpt lat="50.06658" lon="2.10561">
        <ele>94.9</ele>
        <time>2024-03-27T14:34:26Z</time>
      </trkpt>
      <trkpt lat="50.06658" lon="2.10562">
        <ele>94.9</ele>
        <time>2024-03-27T14:34:27Z</time>
      </trkpt>
      <trkpt lat="50.06659" lon="2.10563">
        <ele>94.9</ele>
        <time>2024-03-27T14:34:28Z</time>
      </trkpt>
      <trkpt lat="50.06659" lon="2.10565">
        <ele>94.9</ele>
        <time>2024-03-27T14:34:29Z</time>
      </trkpt>
      <trkpt lat="50.06659" lon="2.10566">
        <ele>94.9</ele>
        <time>2024-03-27T14:34:30Z</time>
      </trkpt>
      <trkpt lat="50.0666" lon="2.10567">
        <ele>94.9</ele>
        <time>2024-03-27T14:34:31Z</time>
      </trkpt>
      <trkpt lat="50.06661" lon="2.10569">
        <ele>94.9</ele>
        <time>2024-03-27T14:34:32Z</time>
      </trkpt>
      <trkpt lat="50.06661" lon="2.1057">
        <ele>94.9</ele>
        <time>2024-03-27T14:34:33Z</time>
      </trkpt>
      <trkpt lat="50.06662" lon="2.10572">
        <ele>94.9</ele>
        <time>2024-03-27T14:34:34Z</time>
      </trkpt>
      <trkpt lat="50.06662" lon="2.10573">
        <ele>94.8</ele>
        <time>2024-03-27T14:34:35Z</time>
      </trkpt>
      <trkpt lat="50.06663" lon="2.10575">
        <ele>94.8</ele>
        <time>2024-03-27T14:34:36Z</time>
      </trkpt>
      <trkpt lat="50.06663" lon="2.10576">
        <ele>94.8</ele>
        <time>2024-03-27T14:34:37Z</time>
      </trkpt>
      <trkpt lat="50.06664" lon="2.10578">
        <ele>94.8</ele>
        <time>2024-03-27T14:34:38Z</time>
      </trkpt>
      <trkpt lat="50.06664" lon="2.1058">
        <ele>94.8</ele>
        <time>2024-03-27T14:34:39Z</time>
      </trkpt>
      <trkpt lat="50.06665" lon="2.10581">
        <ele>94.8</ele>
        <time>2024-03-27T14:34:40Z</time>
      </trkpt>
      <trkpt lat="50.06665" lon="2.10582">
        <ele>94.8</ele>
        <time>2024-03-27T14:34:41Z</time>
      </trkpt>
      <trkpt lat="50.06666" lon="2.10584">
        <ele>94.8</ele>
        <time>2024-03-27T14:34:42Z</time>
      </trkpt>
      <trkpt lat="50.06666" lon="2.10585">
        <ele>94.8</ele>
        <time>2024-03-27T14:34:43Z</time>
      </trkpt>
      <trkpt lat="50.06666" lon="2.10587">
        <ele>94.8</ele>
        <time>2024-03-27T14:34:44Z</time>
      </trkpt>
      <trkpt lat="50.06667" lon="2.10588">
        <ele>94.8</ele>
        <time>2024-03-27T14:34:45Z</time>
      </trkpt>
      <trkpt lat="50.06667" lon="2.1059">
        <ele>94.7</ele>
        <time>2024-03-27T14:34:46Z</time>
      </trkpt>
      <trkpt lat="50.06668" lon="2.10591">
        <ele>94.7</ele>
        <time>2024-03-27T14:34:47Z</time>
      </trkpt>
      <trkpt lat="50.06669" lon="2.10593">
        <ele>94.7</ele>
        <time>2024-03-27T14:34:48Z</time>
      </trkpt>
      <trkpt lat="50.06669" lon="2.10594">
        <ele>94.7</ele>
        <time>2024-03-27T14:34:49Z</time>
      </trkpt>
      <trkpt lat="50.0667" lon="2.10595">
        <ele>94.7</ele>
        <time>2024-03-27T14:34:50Z</time>
      </trkpt>
      <trkpt lat="50.0667" lon="2.10597">
        <ele>94.7</ele>
        <time>2024-03-27T14:34:51Z</time>
      </trkpt>
      <trkpt lat="50.06671" lon="2.10598">
        <ele>94.7</ele>
        <time>2024-03-27T14:34:52Z</time>
      </trkpt>
      <trkpt lat="50.06671" lon="2.10599">
        <ele>94.7</ele>
        <time>2024-03-27T14:34:53Z</time>
      </trkpt>
      <trkpt lat="50.06672" lon="2.10601">
        <ele>94.7</ele>
        <time>2024-03-27T14:34:54Z</time>
      </trkpt>
      <trkpt lat="50.06672" lon="2.10602">
        <ele>94.7</ele>
        <time>2024-03-27T14:34:55Z</time>
      </trkpt>
      <trkpt lat="50.06673" lon="2.10604">
        <ele>94.7</ele>
        <time>2024-03-27T14:34:56Z</time>
      </trkpt>
      <trkpt lat="50.06673" lon="2.10605">
        <ele>94.6</ele>
        <time>2024-03-27T14:34:57Z</time>
      </trkpt>
      <trkpt lat="50.06674" lon="2.10607">
        <ele>94.6</ele>
        <time>2024-03-27T14:34:58Z</time>
      </trkpt>
      <trkpt lat="50.06674" lon="2.1061">
        <ele>94.6</ele>
        <time>2024-03-27T14:34:59Z</time>
      </trkpt>
      <trkpt lat="50.06675" lon="2.10611">
        <ele>94.6</ele>
        <time>2024-03-27T14:35:00Z</time>
      </trkpt>
      <trkpt lat="50.06675" lon="2.10612">
        <ele>94.6</ele>
        <time>2024-03-27T14:35:01Z</time>
      </trkpt>
      <trkpt lat="50.06675" lon="2.10614">
        <ele>94.6</ele>
        <time>2024-03-27T14:35:02Z</time>
      </trkpt>
      <trkpt lat="50.06676" lon="2.10616">
        <ele>94.6</ele>
        <time>2024-03-27T14:35:03Z</time>
      </trkpt>
      <trkpt lat="50.06676" lon="2.10617">
        <ele>94.6</ele>
        <time>2024-03-27T14:35:04Z</time>
      </trkpt>
      <trkpt lat="50.06677" lon="2.1062">
        <ele>94.6</ele>
        <time>2024-03-27T14:35:05Z</time>
      </trkpt>
      <trkpt lat="50.06677" lon="2.10621">
        <ele>94.6</ele>
        <time>2024-03-27T14:35:06Z</time>
      </trkpt>
      <trkpt lat="50.06678" lon="2.10623">
        <ele>94.5</ele>
        <time>2024-03-27T14:35:07Z</time>
      </trkpt>
      <trkpt lat="50.06678" lon="2.10625">
        <ele>94.5</ele>
        <time>2024-03-27T14:35:08Z</time>
      </trkpt>
      <trkpt lat="50.06679" lon="2.10627">
        <ele>94.5</ele>
        <time>2024-03-27T14:35:09Z</time>
      </trkpt>
      <trkpt lat="50.06679" lon="2.10629">
        <ele>94.5</ele>
        <time>2024-03-27T14:35:10Z</time>
      </trkpt>
      <trkpt lat="50.06679" lon="2.10632">
        <ele>94.5</ele>
        <time>2024-03-27T14:35:11Z</time>
      </trkpt>
      <trkpt lat="50.06679" lon="2.10634">
        <ele>94.5</ele>
        <time>2024-03-27T14:35:12Z</time>
      </trkpt>
      <trkpt lat="50.0668" lon="2.10637">
        <ele>94.5</ele>
        <time>2024-03-27T14:35:13Z</time>
      </trkpt>
      <trkpt lat="50.0668" lon="2.10641">
        <ele>94.5</ele>
        <time>2024-03-27T14:35:14Z</time>
      </trkpt>
      <trkpt lat="50.06681" lon="2.10643">
        <ele>94.5</ele>
        <time>2024-03-27T14:35:15Z</time>
      </trkpt>
      <trkpt lat="50.06681" lon="2.10645">
        <ele>94.4</ele>
        <time>2024-03-27T14:35:16Z</time>
      </trkpt>
      <trkpt lat="50.06681" lon="2.10647">
        <ele>94.4</ele>
        <time>2024-03-27T14:35:17Z</time>
      </trkpt>
      <trkpt lat="50.06681" lon="2.1065">
        <ele>94.4</ele>
        <time>2024-03-27T14:35:18Z</time>
      </trkpt>
      <trkpt lat="50.06681" lon="2.10652">
        <ele>94.4</ele>
        <time>2024-03-27T14:35:19Z</time>
      </trkpt>
      <trkpt lat="50.06682" lon="2.10653">
        <ele>94.4</ele>
        <time>2024-03-27T14:35:20Z</time>
      </trkpt>
      <trkpt lat="50.06682" lon="2.10657">
        <ele>94.4</ele>
        <time>2024-03-27T14:35:21Z</time>
      </trkpt>
      <trkpt lat="50.06682" lon="2.10658">
        <ele>94.4</ele>
        <time>2024-03-27T14:35:22Z</time>
      </trkpt>
      <trkpt lat="50.06682" lon="2.10659">
        <ele>94.4</ele>
        <time>2024-03-27T14:35:23Z</time>
      </trkpt>
      <trkpt lat="50.06682" lon="2.10661">
        <ele>94.4</ele>
        <time>2024-03-27T14:35:24Z</time>
      </trkpt>
      <trkpt lat="50.06683" lon="2.10663">
        <ele>94.4</ele>
        <time>2024-03-27T14:35:25Z</time>
      </trkpt>
      <trkpt lat="50.06683" lon="2.10667">
        <ele>94.4</ele>
        <time>2024-03-27T14:35:26Z</time>
      </trkpt>
      <trkpt lat="50.06684" lon="2.10668">
        <ele>94.4</ele>
        <time>2024-03-27T14:35:27Z</time>
      </trkpt>
      <trkpt lat="50.06684" lon="2.10669">
        <ele>94.4</ele>
        <time>2024-03-27T14:35:28Z</time>
      </trkpt>
      <trkpt lat="50.06684" lon="2.10671">
        <ele>94.4</ele>
        <time>2024-03-27T14:35:29Z</time>
      </trkpt>
      <trkpt lat="50.06685" lon="2.10672">
        <ele>94.4</ele>
        <time>2024-03-27T14:35:30Z</time>
      </trkpt>
      <trkpt lat="50.06685" lon="2.10673">
        <ele>94.4</ele>
        <time>2024-03-27T14:35:31Z</time>
      </trkpt>
      <trkpt lat="50.06686" lon="2.10674">
        <ele>94.4</ele>
        <time>2024-03-27T14:35:32Z</time>
      </trkpt>
      <trkpt lat="50.06686" lon="2.10676">
        <ele>94.4</ele>
        <time>2024-03-27T14:35:33Z</time>
      </trkpt>
      <trkpt lat="50.06687" lon="2.10677">
        <ele>94.4</ele>
        <time>2024-03-27T14:35:34Z</time>
      </trkpt>
      <trkpt lat="50.06687" lon="2.10679">
        <ele>94.4</ele>
        <time>2024-03-27T14:35:35Z</time>
      </trkpt>
      <trkpt lat="50.06688" lon="2.1068">
        <ele>94.4</ele>
        <time>2024-03-27T14:35:36Z</time>
      </trkpt>
      <trkpt lat="50.06689" lon="2.10681">
        <ele>94.4</ele>
        <time>2024-03-27T14:35:37Z</time>
      </trkpt>
      <trkpt lat="50.06689" lon="2.10683">
        <ele>94.4</ele>
        <time>2024-03-27T14:35:38Z</time>
      </trkpt>
      <trkpt lat="50.0669" lon="2.10684">
        <ele>94.4</ele>
        <time>2024-03-27T14:35:39Z</time>
      </trkpt>
      <trkpt lat="50.06691" lon="2.10685">
        <ele>94.4</ele>
        <time>2024-03-27T14:35:40Z</time>
      </trkpt>
      <trkpt lat="50.06691" lon="2.10686">
        <ele>94.4</ele>
        <time>2024-03-27T14:35:41Z</time>
      </trkpt>
      <trkpt lat="50.06692" lon="2.10687">
        <ele>94.4</ele>
        <time>2024-03-27T14:35:42Z</time>
      </trkpt>
      <trkpt lat="50.06693" lon="2.10689">
        <ele>94.3</ele>
        <time>2024-03-27T14:35:43Z</time>
      </trkpt>
      <trkpt lat="50.06694" lon="2.10691">
        <ele>94.3</ele>
        <time>2024-03-27T14:35:44Z</time>
      </trkpt>
      <trkpt lat="50.06694" lon="2.10692">
        <ele>94.3</ele>
        <time>2024-03-27T14:35:45Z</time>
      </trkpt>
      <trkpt lat="50.06695" lon="2.10693">
        <ele>94.3</ele>
        <time>2024-03-27T14:35:46Z</time>
      </trkpt>
      <trkpt lat="50.06696" lon="2.10696">
        <ele>94.3</ele>
        <time>2024-03-27T14:35:47Z</time>
      </trkpt>
      <trkpt lat="50.06697" lon="2.10697">
        <ele>94.3</ele>
        <time>2024-03-27T14:35:48Z</time>
      </trkpt>
      <trkpt lat="50.06697" lon="2.10698">
        <ele>94.3</ele>
        <time>2024-03-27T14:35:49Z</time>
      </trkpt>
      <trkpt lat="50.06698" lon="2.10701">
        <ele>94.3</ele>
        <time>2024-03-27T14:35:50Z</time>
      </trkpt>
      <trkpt lat="50.06699" lon="2.10702">
        <ele>94.3</ele>
        <time>2024-03-27T14:35:51Z</time>
      </trkpt>
      <trkpt lat="50.06699" lon="2.10703">
        <ele>94.3</ele>
        <time>2024-03-27T14:35:52Z</time>
      </trkpt>
      <trkpt lat="50.067" lon="2.10704">
        <ele>94.3</ele>
        <time>2024-03-27T14:35:53Z</time>
      </trkpt>
      <trkpt lat="50.067" lon="2.10705">
        <ele>94.3</ele>
        <time>2024-03-27T14:35:54Z</time>
      </trkpt>
      <trkpt lat="50.06701" lon="2.10707">
        <ele>94.3</ele>
        <time>2024-03-27T14:35:55Z</time>
      </trkpt>
      <trkpt lat="50.06701" lon="2.10708">
        <ele>94.3</ele>
        <time>2024-03-27T14:35:56Z</time>
      </trkpt>
      <trkpt lat="50.06702" lon="2.1071">
        <ele>94.3</ele>
        <time>2024-03-27T14:35:57Z</time>
      </trkpt>
      <trkpt lat="50.06703" lon="2.10711">
        <ele>94.3</ele>
        <time>2024-03-27T14:35:58Z</time>
      </trkpt>
      <trkpt lat="50.06703" lon="2.10713">
        <ele>94.3</ele>
        <time>2024-03-27T14:35:59Z</time>
      </trkpt>
      <trkpt lat="50.06704" lon="2.10714">
        <ele>94.3</ele>
        <time>2024-03-27T14:36:00Z</time>
      </trkpt>
      <trkpt lat="50.06704" lon="2.10716">
        <ele>94.3</ele>
        <time>2024-03-27T14:36:01Z</time>
      </trkpt>
      <trkpt lat="50.06705" lon="2.10718">
        <ele>94.3</ele>
        <time>2024-03-27T14:36:02Z</time>
      </trkpt>
      <trkpt lat="50.06706" lon="2.10719">
        <ele>94.3</ele>
        <time>2024-03-27T14:36:03Z</time>
      </trkpt>
      <trkpt lat="50.06706" lon="2.1072">
        <ele>94.3</ele>
        <time>2024-03-27T14:36:04Z</time>
      </trkpt>
      <trkpt lat="50.06707" lon="2.10722">
        <ele>94.3</ele>
        <time>2024-03-27T14:36:05Z</time>
      </trkpt>
      <trkpt lat="50.06707" lon="2.10723">
        <ele>94.3</ele>
        <time>2024-03-27T14:36:06Z</time>
      </trkpt>
      <trkpt lat="50.06708" lon="2.10725">
        <ele>94.3</ele>
        <time>2024-03-27T14:36:07Z</time>
      </trkpt>
      <trkpt lat="50.06708" lon="2.10726">
        <ele>94.3</ele>
        <time>2024-03-27T14:36:08Z</time>
      </trkpt>
      <trkpt lat="50.06708" lon="2.10728">
        <ele>94.3</ele>
        <time>2024-03-27T14:36:09Z</time>
      </trkpt>
      <trkpt lat="50.06709" lon="2.10729">
        <ele>94.3</ele>
        <time>2024-03-27T14:36:10Z</time>
      </trkpt>
      <trkpt lat="50.06709" lon="2.10731">
        <ele>94.3</ele>
        <time>2024-03-27T14:36:11Z</time>
      </trkpt>
      <trkpt lat="50.06709" lon="2.10733">
        <ele>94.3</ele>
        <time>2024-03-27T14:36:12Z</time>
      </trkpt>
      <trkpt lat="50.0671" lon="2.10734">
        <ele>94.4</ele>
        <time>2024-03-27T14:36:13Z</time>
      </trkpt>
      <trkpt lat="50.0671" lon="2.10736">
        <ele>94.4</ele>
        <time>2024-03-27T14:36:14Z</time>
      </trkpt>
      <trkpt lat="50.06711" lon="2.10738">
        <ele>94.4</ele>
        <time>2024-03-27T14:36:15Z</time>
      </trkpt>
      <trkpt lat="50.06711" lon="2.10739">
        <ele>94.4</ele>
        <time>2024-03-27T14:36:16Z</time>
      </trkpt>
      <trkpt lat="50.06711" lon="2.10741">
        <ele>94.4</ele>
        <time>2024-03-27T14:36:17Z</time>
      </trkpt>
      <trkpt lat="50.06712" lon="2.10743">
        <ele>94.4</ele>
        <time>2024-03-27T14:36:18Z</time>
      </trkpt>
      <trkpt lat="50.06712" lon="2.10745">
        <ele>94.4</ele>
        <time>2024-03-27T14:36:19Z</time>
      </trkpt>
      <trkpt lat="50.06712" lon="2.10747">
        <ele>94.4</ele>
        <time>2024-03-27T14:36:20Z</time>
      </trkpt>
      <trkpt lat="50.06713" lon="2.10748">
        <ele>94.4</ele>
        <time>2024-03-27T14:36:21Z</time>
      </trkpt>
      <trkpt lat="50.06713" lon="2.1075">
        <ele>94.4</ele>
        <time>2024-03-27T14:36:22Z</time>
      </trkpt>
      <trkpt lat="50.06713" lon="2.10751">
        <ele>94.4</ele>
        <time>2024-03-27T14:36:23Z</time>
      </trkpt>
      <trkpt lat="50.06714" lon="2.10753">
        <ele>94.4</ele>
        <time>2024-03-27T14:36:24Z</time>
      </trkpt>
      <trkpt lat="50.06714" lon="2.10755">
        <ele>94.4</ele>
        <time>2024-03-27T14:36:25Z</time>
      </trkpt>
      <trkpt lat="50.06715" lon="2.10756">
        <ele>94.4</ele>
        <time>2024-03-27T14:36:26Z</time>
      </trkpt>
      <trkpt lat="50.06715" lon="2.10758">
        <ele>94.4</ele>
        <time>2024-03-27T14:36:27Z</time>
      </trkpt>
      <trkpt lat="50.06716" lon="2.10759">
        <ele>94.4</ele>
        <time>2024-03-27T14:36:28Z</time>
      </trkpt>
      <trkpt lat="50.06717" lon="2.10762">
        <ele>94.4</ele>
        <time>2024-03-27T14:36:29Z</time>
      </trkpt>
      <trkpt lat="50.06717" lon="2.10764">
        <ele>94.4</ele>
        <time>2024-03-27T14:36:30Z</time>
      </trkpt>
      <trkpt lat="50.06717" lon="2.10765">
        <ele>94.4</ele>
        <time>2024-03-27T14:36:31Z</time>
      </trkpt>
      <trkpt lat="50.06718" lon="2.10768">
        <ele>94.4</ele>
        <time>2024-03-27T14:36:32Z</time>
      </trkpt>
      <trkpt lat="50.06718" lon="2.10769">
        <ele>94.4</ele>
        <time>2024-03-27T14:36:33Z</time>
      </trkpt>
      <trkpt lat="50.06719" lon="2.1077">
        <ele>94.4</ele>
        <time>2024-03-27T14:36:34Z</time>
      </trkpt>
      <trkpt lat="50.0672" lon="2.10773">
        <ele>94.4</ele>
        <time>2024-03-27T14:36:35Z</time>
      </trkpt>
      <trkpt lat="50.0672" lon="2.10774">
        <ele>94.4</ele>
        <time>2024-03-27T14:36:36Z</time>
      </trkpt>
      <trkpt lat="50.0672" lon="2.10776">
        <ele>94.4</ele>
        <time>2024-03-27T14:36:37Z</time>
      </trkpt>
      <trkpt lat="50.06721" lon="2.10778">
        <ele>94.4</ele>
        <time>2024-03-27T14:36:38Z</time>
      </trkpt>
      <trkpt lat="50.06722" lon="2.1078">
        <ele>94.4</ele>
        <time>2024-03-27T14:36:39Z</time>
      </trkpt>
      <trkpt lat="50.06722" lon="2.10781">
        <ele>94.4</ele>
        <time>2024-03-27T14:36:40Z</time>
      </trkpt>
      <trkpt lat="50.06722" lon="2.10783">
        <ele>94.4</ele>
        <time>2024-03-27T14:36:41Z</time>
      </trkpt>
      <trkpt lat="50.06723" lon="2.10785">
        <ele>94.4</ele>
        <time>2024-03-27T14:36:42Z</time>
      </trkpt>
      <trkpt lat="50.06723" lon="2.10786">
        <ele>94.4</ele>
        <time>2024-03-27T14:36:43Z</time>
      </trkpt>
      <trkpt lat="50.06724" lon="2.10787">
        <ele>94.4</ele>
        <time>2024-03-27T14:36:44Z</time>
      </trkpt>
      <trkpt lat="50.06724" lon="2.10789">
        <ele>94.4</ele>
        <time>2024-03-27T14:36:45Z</time>
      </trkpt>
      <trkpt lat="50.06725" lon="2.10791">
        <ele>94.4</ele>
        <time>2024-03-27T14:36:46Z</time>
      </trkpt>
      <trkpt lat="50.06725" lon="2.10794">
        <ele>94.4</ele>
        <time>2024-03-27T14:36:47Z</time>
      </trkpt>
      <trkpt lat="50.06725" lon="2.10796">
        <ele>94.4</ele>
        <time>2024-03-27T14:36:48Z</time>
      </trkpt>
      <trkpt lat="50.06726" lon="2.10797">
        <ele>94.4</ele>
        <time>2024-03-27T14:36:49Z</time>
      </trkpt>
      <trkpt lat="50.06726" lon="2.108">
        <ele>94.4</ele>
        <time>2024-03-27T14:36:50Z</time>
      </trkpt>
      <trkpt lat="50.06727" lon="2.10801">
        <ele>94.4</ele>
        <time>2024-03-27T14:36:51Z</time>
      </trkpt>
      <trkpt lat="50.06727" lon="2.10802">
        <ele>94.4</ele>
        <time>2024-03-27T14:36:52Z</time>
      </trkpt>
      <trkpt lat="50.06727" lon="2.10804">
        <ele>94.4</ele>
        <time>2024-03-27T14:36:53Z</time>
      </trkpt>
      <trkpt lat="50.06728" lon="2.10806">
        <ele>94.4</ele>
        <time>2024-03-27T14:36:54Z</time>
      </trkpt>
      <trkpt lat="50.06728" lon="2.10807">
        <ele>94.4</ele>
        <time>2024-03-27T14:36:55Z</time>
      </trkpt>
      <trkpt lat="50.06729" lon="2.10808">
        <ele>94.4</ele>
        <time>2024-03-27T14:36:56Z</time>
      </trkpt>
      <trkpt lat="50.06729" lon="2.1081">
        <ele>94.4</ele>
        <time>2024-03-27T14:36:57Z</time>
      </trkpt>
      <trkpt lat="50.0673" lon="2.10811">
        <ele>94.4</ele>
        <time>2024-03-27T14:36:58Z</time>
      </trkpt>
      <trkpt lat="50.0673" lon="2.10813">
        <ele>94.4</ele>
        <time>2024-03-27T14:36:59Z</time>
      </trkpt>
      <trkpt lat="50.06731" lon="2.10814">
        <ele>94.4</ele>
        <time>2024-03-27T14:37:00Z</time>
      </trkpt>
      <trkpt lat="50.06731" lon="2.10815">
        <ele>94.5</ele>
        <time>2024-03-27T14:37:01Z</time>
      </trkpt>
      <trkpt lat="50.06732" lon="2.10817">
        <ele>94.5</ele>
        <time>2024-03-27T14:37:02Z</time>
      </trkpt>
      <trkpt lat="50.06732" lon="2.10818">
        <ele>94.5</ele>
        <time>2024-03-27T14:37:03Z</time>
      </trkpt>
      <trkpt lat="50.06732" lon="2.10819">
        <ele>94.5</ele>
        <time>2024-03-27T14:37:04Z</time>
      </trkpt>
      <trkpt lat="50.06733" lon="2.10821">
        <ele>94.5</ele>
        <time>2024-03-27T14:37:05Z</time>
      </trkpt>
      <trkpt lat="50.06734" lon="2.10822">
        <ele>94.5</ele>
        <time>2024-03-27T14:37:06Z</time>
      </trkpt>
      <trkpt lat="50.06734" lon="2.10824">
        <ele>94.5</ele>
        <time>2024-03-27T14:37:07Z</time>
      </trkpt>
      <trkpt lat="50.06735" lon="2.10825">
        <ele>94.5</ele>
        <time>2024-03-27T14:37:08Z</time>
      </trkpt>
      <trkpt lat="50.06736" lon="2.10826">
        <ele>94.5</ele>
        <time>2024-03-27T14:37:09Z</time>
      </trkpt>
      <trkpt lat="50.06737" lon="2.10828">
        <ele>94.5</ele>
        <time>2024-03-27T14:37:10Z</time>
      </trkpt>
      <trkpt lat="50.06737" lon="2.10829">
        <ele>94.5</ele>
        <time>2024-03-27T14:37:11Z</time>
      </trkpt>
      <trkpt lat="50.06738" lon="2.10831">
        <ele>94.5</ele>
        <time>2024-03-27T14:37:12Z</time>
      </trkpt>
      <trkpt lat="50.06739" lon="2.10832">
        <ele>94.5</ele>
        <time>2024-03-27T14:37:13Z</time>
      </trkpt>
      <trkpt lat="50.06739" lon="2.10833">
        <ele>94.5</ele>
        <time>2024-03-27T14:37:14Z</time>
      </trkpt>
      <trkpt lat="50.0674" lon="2.10834">
        <ele>94.5</ele>
        <time>2024-03-27T14:37:15Z</time>
      </trkpt>
      <trkpt lat="50.06741" lon="2.10836">
        <ele>94.6</ele>
        <time>2024-03-27T14:37:16Z</time>
      </trkpt>
      <trkpt lat="50.06741" lon="2.10837">
        <ele>94.6</ele>
        <time>2024-03-27T14:37:17Z</time>
      </trkpt>
      <trkpt lat="50.06742" lon="2.10839">
        <ele>94.6</ele>
        <time>2024-03-27T14:37:18Z</time>
      </trkpt>
      <trkpt lat="50.06742" lon="2.1084">
        <ele>94.6</ele>
        <time>2024-03-27T14:37:19Z</time>
      </trkpt>
      <trkpt lat="50.06743" lon="2.10841">
        <ele>94.6</ele>
        <time>2024-03-27T14:37:20Z</time>
      </trkpt>
      <trkpt lat="50.06743" lon="2.10842">
        <ele>94.6</ele>
        <time>2024-03-27T14:37:21Z</time>
      </trkpt>
      <trkpt lat="50.06744" lon="2.10843">
        <ele>94.6</ele>
        <time>2024-03-27T14:37:22Z</time>
      </trkpt>
      <trkpt lat="50.06744" lon="2.10845">
        <ele>94.6</ele>
        <time>2024-03-27T14:37:23Z</time>
      </trkpt>
      <trkpt lat="50.06745" lon="2.10846">
        <ele>94.7</ele>
        <time>2024-03-27T14:37:24Z</time>
      </trkpt>
      <trkpt lat="50.06745" lon="2.10848">
        <ele>94.7</ele>
        <time>2024-03-27T14:37:25Z</time>
      </trkpt>
      <trkpt lat="50.06746" lon="2.10849">
        <ele>94.7</ele>
        <time>2024-03-27T14:37:26Z</time>
      </trkpt>
      <trkpt lat="50.06746" lon="2.10851">
        <ele>94.7</ele>
        <time>2024-03-27T14:37:27Z</time>
      </trkpt>
      <trkpt lat="50.06746" lon="2.10852">
        <ele>94.7</ele>
        <time>2024-03-27T14:37:28Z</time>
      </trkpt>
      <trkpt lat="50.06747" lon="2.10854">
        <ele>94.7</ele>
        <time>2024-03-27T14:37:29Z</time>
      </trkpt>
      <trkpt lat="50.06747" lon="2.10856">
        <ele>94.7</ele>
        <time>2024-03-27T14:37:30Z</time>
      </trkpt>
      <trkpt lat="50.06748" lon="2.10857">
        <ele>94.8</ele>
        <time>2024-03-27T14:37:31Z</time>
      </trkpt>
      <trkpt lat="50.06749" lon="2.10861">
        <ele>94.8</ele>
        <time>2024-03-27T14:37:32Z</time>
      </trkpt>
      <trkpt lat="50.06749" lon="2.10862">
        <ele>94.8</ele>
        <time>2024-03-27T14:37:33Z</time>
      </trkpt>
      <trkpt lat="50.06749" lon="2.10863">
        <ele>94.8</ele>
        <time>2024-03-27T14:37:34Z</time>
      </trkpt>
      <trkpt lat="50.0675" lon="2.10866">
        <ele>94.9</ele>
        <time>2024-03-27T14:37:35Z</time>
      </trkpt>
      <trkpt lat="50.0675" lon="2.10867">
        <ele>94.9</ele>
        <time>2024-03-27T14:37:36Z</time>
      </trkpt>
      <trkpt lat="50.06751" lon="2.10868">
        <ele>94.9</ele>
        <time>2024-03-27T14:37:37Z</time>
      </trkpt>
      <trkpt lat="50.06751" lon="2.1087">
        <ele>94.9</ele>
        <time>2024-03-27T14:37:38Z</time>
      </trkpt>
      <trkpt lat="50.06751" lon="2.10872">
        <ele>94.9</ele>
        <time>2024-03-27T14:37:39Z</time>
      </trkpt>
      <trkpt lat="50.06752" lon="2.10873">
        <ele>95</ele>
        <time>2024-03-27T14:37:40Z</time>
      </trkpt>
      <trkpt lat="50.06753" lon="2.10875">
        <ele>95</ele>
        <time>2024-03-27T14:37:41Z</time>
      </trkpt>
      <trkpt lat="50.06753" lon="2.10877">
        <ele>95</ele>
        <time>2024-03-27T14:37:42Z</time>
      </trkpt>
      <trkpt lat="50.06754" lon="2.10878">
        <ele>95</ele>
        <time>2024-03-27T14:37:43Z</time>
      </trkpt>
      <trkpt lat="50.06754" lon="2.10879">
        <ele>95</ele>
        <time>2024-03-27T14:37:44Z</time>
      </trkpt>
      <trkpt lat="50.06755" lon="2.10881">
        <ele>95</ele>
        <time>2024-03-27T14:37:45Z</time>
      </trkpt>
      <trkpt lat="50.06756" lon="2.10882">
        <ele>95.1</ele>
        <time>2024-03-27T14:37:46Z</time>
      </trkpt>
      <trkpt lat="50.06756" lon="2.10884">
        <ele>95.1</ele>
        <time>2024-03-27T14:37:47Z</time>
      </trkpt>
      <trkpt lat="50.06757" lon="2.10885">
        <ele>95.1</ele>
        <time>2024-03-27T14:37:48Z</time>
      </trkpt>
      <trkpt lat="50.06757" lon="2.10886">
        <ele>95.1</ele>
        <time>2024-03-27T14:37:49Z</time>
      </trkpt>
      <trkpt lat="50.06757" lon="2.10887">
        <ele>95.1</ele>
        <time>2024-03-27T14:37:50Z</time>
      </trkpt>
      <trkpt lat="50.06757" lon="2.10889">
        <ele>95.1</ele>
        <time>2024-03-27T14:37:51Z</time>
      </trkpt>
      <trkpt lat="50.06758" lon="2.1089">
        <ele>95.2</ele>
        <time>2024-03-27T14:37:52Z</time>
      </trkpt>
      <trkpt lat="50.06758" lon="2.10892">
        <ele>95.2</ele>
        <time>2024-03-27T14:37:53Z</time>
      </trkpt>
      <trkpt lat="50.06758" lon="2.10894">
        <ele>95.2</ele>
        <time>2024-03-27T14:37:54Z</time>
      </trkpt>
      <trkpt lat="50.06759" lon="2.10895">
        <ele>95.2</ele>
        <time>2024-03-27T14:37:55Z</time>
      </trkpt>
      <trkpt lat="50.06759" lon="2.10897">
        <ele>95.2</ele>
        <time>2024-03-27T14:37:56Z</time>
      </trkpt>
      <trkpt lat="50.0676" lon="2.10898">
        <ele>95.2</ele>
        <time>2024-03-27T14:37:57Z</time>
      </trkpt>
      <trkpt lat="50.0676" lon="2.10899">
        <ele>95.3</ele>
        <time>2024-03-27T14:37:58Z</time>
      </trkpt>
      <trkpt lat="50.0676" lon="2.10901">
        <ele>95.3</ele>
        <time>2024-03-27T14:37:59Z</time>
      </trkpt>
      <trkpt lat="50.06761" lon="2.10902">
        <ele>95.3</ele>
        <time>2024-03-27T14:38:00Z</time>
      </trkpt>
      <trkpt lat="50.06762" lon="2.10903">
        <ele>95.3</ele>
        <time>2024-03-27T14:38:01Z</time>
      </trkpt>
      <trkpt lat="50.06762" lon="2.10905">
        <ele>95.3</ele>
        <time>2024-03-27T14:38:02Z</time>
      </trkpt>
      <trkpt lat="50.06763" lon="2.10908">
        <ele>95.4</ele>
        <time>2024-03-27T14:38:03Z</time>
      </trkpt>
      <trkpt lat="50.06764" lon="2.10909">
        <ele>95.4</ele>
        <time>2024-03-27T14:38:04Z</time>
      </trkpt>
      <trkpt lat="50.06764" lon="2.1091">
        <ele>95.4</ele>
        <time>2024-03-27T14:38:05Z</time>
      </trkpt>
      <trkpt lat="50.06765" lon="2.10914">
        <ele>95.4</ele>
        <time>2024-03-27T14:38:06Z</time>
      </trkpt>
      <trkpt lat="50.06765" lon="2.10915">
        <ele>95.4</ele>
        <time>2024-03-27T14:38:07Z</time>
      </trkpt>
      <trkpt lat="50.06766" lon="2.10916">
        <ele>95.5</ele>
        <time>2024-03-27T14:38:08Z</time>
      </trkpt>
      <trkpt lat="50.06766" lon="2.10918">
        <ele>95.5</ele>
        <time>2024-03-27T14:38:09Z</time>
      </trkpt>
      <trkpt lat="50.06767" lon="2.10919">
        <ele>95.5</ele>
        <time>2024-03-27T14:38:10Z</time>
      </trkpt>
      <trkpt lat="50.06767" lon="2.1092">
        <ele>95.5</ele>
        <time>2024-03-27T14:38:11Z</time>
      </trkpt>
      <trkpt lat="50.06768" lon="2.10923">
        <ele>95.5</ele>
        <time>2024-03-27T14:38:12Z</time>
      </trkpt>
      <trkpt lat="50.06769" lon="2.10924">
        <ele>95.5</ele>
        <time>2024-03-27T14:38:13Z</time>
      </trkpt>
      <trkpt lat="50.06769" lon="2.10925">
        <ele>95.6</ele>
        <time>2024-03-27T14:38:14Z</time>
      </trkpt>
      <trkpt lat="50.0677" lon="2.10928">
        <ele>95.6</ele>
        <time>2024-03-27T14:38:15Z</time>
      </trkpt>
      <trkpt lat="50.06771" lon="2.10929">
        <ele>95.6</ele>
        <time>2024-03-27T14:38:16Z</time>
      </trkpt>
      <trkpt lat="50.06771" lon="2.1093">
        <ele>95.6</ele>
        <time>2024-03-27T14:38:17Z</time>
      </trkpt>
      <trkpt lat="50.06772" lon="2.10933">
        <ele>95.6</ele>
        <time>2024-03-27T14:38:18Z</time>
      </trkpt>
      <trkpt lat="50.06773" lon="2.10934">
        <ele>95.6</ele>
        <time>2024-03-27T14:38:19Z</time>
      </trkpt>
      <trkpt lat="50.06773" lon="2.10935">
        <ele>95.6</ele>
        <time>2024-03-27T14:38:20Z</time>
      </trkpt>
      <trkpt lat="50.06774" lon="2.10936">
        <ele>95.7</ele>
        <time>2024-03-27T14:38:21Z</time>
      </trkpt>
      <trkpt lat="50.06774" lon="2.10938">
        <ele>95.7</ele>
        <time>2024-03-27T14:38:22Z</time>
      </trkpt>
      <trkpt lat="50.06775" lon="2.10939">
        <ele>95.7</ele>
        <time>2024-03-27T14:38:23Z</time>
      </trkpt>
      <trkpt lat="50.06776" lon="2.10942">
        <ele>95.7</ele>
        <time>2024-03-27T14:38:24Z</time>
      </trkpt>
      <trkpt lat="50.06776" lon="2.10943">
        <ele>95.7</ele>
        <time>2024-03-27T14:38:25Z</time>
      </trkpt>
      <trkpt lat="50.06777" lon="2.10944">
        <ele>95.7</ele>
        <time>2024-03-27T14:38:26Z</time>
      </trkpt>
      <trkpt lat="50.06777" lon="2.10946">
        <ele>95.8</ele>
        <time>2024-03-27T14:38:27Z</time>
      </trkpt>
      <trkpt lat="50.06778" lon="2.10947">
        <ele>95.8</ele>
        <time>2024-03-27T14:38:28Z</time>
      </trkpt>
      <trkpt lat="50.06779" lon="2.10949">
        <ele>95.8</ele>
        <time>2024-03-27T14:38:29Z</time>
      </trkpt>
      <trkpt lat="50.0678" lon="2.1095">
        <ele>95.8</ele>
        <time>2024-03-27T14:38:30Z</time>
      </trkpt>
      <trkpt lat="50.0678" lon="2.10952">
        <ele>95.8</ele>
        <time>2024-03-27T14:38:31Z</time>
      </trkpt>
      <trkpt lat="50.06781" lon="2.10953">
        <ele>95.8</ele>
        <time>2024-03-27T14:38:32Z</time>
      </trkpt>
      <trkpt lat="50.06781" lon="2.10954">
        <ele>95.9</ele>
        <time>2024-03-27T14:38:33Z</time>
      </trkpt>
      <trkpt lat="50.06782" lon="2.10955">
        <ele>95.9</ele>
        <time>2024-03-27T14:38:34Z</time>
      </trkpt>
      <trkpt lat="50.06782" lon="2.10957">
        <ele>95.9</ele>
        <time>2024-03-27T14:38:35Z</time>
      </trkpt>
      <trkpt lat="50.06783" lon="2.10959">
        <ele>95.9</ele>
        <time>2024-03-27T14:38:36Z</time>
      </trkpt>
      <trkpt lat="50.06784" lon="2.1096">
        <ele>95.9</ele>
        <time>2024-03-27T14:38:37Z</time>
      </trkpt>
      <trkpt lat="50.06784" lon="2.10962">
        <ele>95.9</ele>
        <time>2024-03-27T14:38:38Z</time>
      </trkpt>
      <trkpt lat="50.06785" lon="2.10963">
        <ele>96</ele>
        <time>2024-03-27T14:38:39Z</time>
      </trkpt>
      <trkpt lat="50.06785" lon="2.10965">
        <ele>96</ele>
        <time>2024-03-27T14:38:40Z</time>
      </trkpt>
      <trkpt lat="50.06786" lon="2.10966">
        <ele>96</ele>
        <time>2024-03-27T14:38:41Z</time>
      </trkpt>
      <trkpt lat="50.06786" lon="2.10967">
        <ele>96</ele>
        <time>2024-03-27T14:38:42Z</time>
      </trkpt>
      <trkpt lat="50.06787" lon="2.10969">
        <ele>96</ele>
        <time>2024-03-27T14:38:43Z</time>
      </trkpt>
      <trkpt lat="50.06788" lon="2.1097">
        <ele>96</ele>
        <time>2024-03-27T14:38:44Z</time>
      </trkpt>
      <trkpt lat="50.06788" lon="2.10971">
        <ele>96.1</ele>
        <time>2024-03-27T14:38:45Z</time>
      </trkpt>
      <trkpt lat="50.06788" lon="2.10972">
        <ele>96.1</ele>
        <time>2024-03-27T14:38:46Z</time>
      </trkpt>
      <trkpt lat="50.06789" lon="2.10974">
        <ele>96.1</ele>
        <time>2024-03-27T14:38:47Z</time>
      </trkpt>
      <trkpt lat="50.06789" lon="2.10975">
        <ele>96.1</ele>
        <time>2024-03-27T14:38:48Z</time>
      </trkpt>
      <trkpt lat="50.0679" lon="2.10976">
        <ele>96.1</ele>
        <time>2024-03-27T14:38:49Z</time>
      </trkpt>
      <trkpt lat="50.06791" lon="2.10977">
        <ele>96.1</ele>
        <time>2024-03-27T14:38:50Z</time>
      </trkpt>
      <trkpt lat="50.06791" lon="2.10979">
        <ele>96.1</ele>
        <time>2024-03-27T14:38:51Z</time>
      </trkpt>
      <trkpt lat="50.06791" lon="2.1098">
        <ele>96.2</ele>
        <time>2024-03-27T14:38:52Z</time>
      </trkpt>
      <trkpt lat="50.06792" lon="2.10982">
        <ele>96.2</ele>
        <time>2024-03-27T14:38:53Z</time>
      </trkpt>
      <trkpt lat="50.06792" lon="2.10983">
        <ele>96.2</ele>
        <time>2024-03-27T14:38:54Z</time>
      </trkpt>
      <trkpt lat="50.06793" lon="2.10985">
        <ele>96.2</ele>
        <time>2024-03-27T14:38:55Z</time>
      </trkpt>
      <trkpt lat="50.06793" lon="2.10986">
        <ele>96.2</ele>
        <time>2024-03-27T14:38:56Z</time>
      </trkpt>
      <trkpt lat="50.06794" lon="2.10987">
        <ele>96.2</ele>
        <time>2024-03-27T14:38:57Z</time>
      </trkpt>
      <trkpt lat="50.06795" lon="2.10989">
        <ele>96.3</ele>
        <time>2024-03-27T14:38:58Z</time>
      </trkpt>
      <trkpt lat="50.06795" lon="2.1099">
        <ele>96.3</ele>
        <time>2024-03-27T14:38:59Z</time>
      </trkpt>
      <trkpt lat="50.06797" lon="2.10993">
        <ele>96.3</ele>
        <time>2024-03-27T14:39:00Z</time>
      </trkpt>
      <trkpt lat="50.06797" lon="2.10994">
        <ele>96.3</ele>
        <time>2024-03-27T14:39:01Z</time>
      </trkpt>
      <trkpt lat="50.06798" lon="2.10995">
        <ele>96.3</ele>
        <time>2024-03-27T14:39:02Z</time>
      </trkpt>
      <trkpt lat="50.06799" lon="2.10997">
        <ele>96.4</ele>
        <time>2024-03-27T14:39:03Z</time>
      </trkpt>
      <trkpt lat="50.06799" lon="2.10998">
        <ele>96.4</ele>
        <time>2024-03-27T14:39:04Z</time>
      </trkpt>
      <trkpt lat="50.068" lon="2.10999">
        <ele>96.4</ele>
        <time>2024-03-27T14:39:05Z</time>
      </trkpt>
      <trkpt lat="50.06801" lon="2.11">
        <ele>96.4</ele>
        <time>2024-03-27T14:39:06Z</time>
      </trkpt>
      <trkpt lat="50.06801" lon="2.11002">
        <ele>96.4</ele>
        <time>2024-03-27T14:39:07Z</time>
      </trkpt>
      <trkpt lat="50.06802" lon="2.11003">
        <ele>96.4</ele>
        <time>2024-03-27T14:39:08Z</time>
      </trkpt>
      <trkpt lat="50.06802" lon="2.11005">
        <ele>96.4</ele>
        <time>2024-03-27T14:39:09Z</time>
      </trkpt>
      <trkpt lat="50.06803" lon="2.11006">
        <ele>96.5</ele>
        <time>2024-03-27T14:39:10Z</time>
      </trkpt>
      <trkpt lat="50.06804" lon="2.11008">
        <ele>96.5</ele>
        <time>2024-03-27T14:39:11Z</time>
      </trkpt>
      <trkpt lat="50.06804" lon="2.11009">
        <ele>96.5</ele>
        <time>2024-03-27T14:39:12Z</time>
      </trkpt>
      <trkpt lat="50.06805" lon="2.11011">
        <ele>96.5</ele>
        <time>2024-03-27T14:39:13Z</time>
      </trkpt>
      <trkpt lat="50.06805" lon="2.11012">
        <ele>96.5</ele>
        <time>2024-03-27T14:39:14Z</time>
      </trkpt>
      <trkpt lat="50.06806" lon="2.11014">
        <ele>96.5</ele>
        <time>2024-03-27T14:39:15Z</time>
      </trkpt>
      <trkpt lat="50.06806" lon="2.11015">
        <ele>96.5</ele>
        <time>2024-03-27T14:39:16Z</time>
      </trkpt>
      <trkpt lat="50.06806" lon="2.11017">
        <ele>96.6</ele>
        <time>2024-03-27T14:39:17Z</time>
      </trkpt>
      <trkpt lat="50.06806" lon="2.11018">
        <ele>96.6</ele>
        <time>2024-03-27T14:39:18Z</time>
      </trkpt>
      <trkpt lat="50.06807" lon="2.1102">
        <ele>96.6</ele>
        <time>2024-03-27T14:39:19Z</time>
      </trkpt>
      <trkpt lat="50.06807" lon="2.11021">
        <ele>96.6</ele>
        <time>2024-03-27T14:39:20Z</time>
      </trkpt>
      <trkpt lat="50.06807" lon="2.11022">
        <ele>96.6</ele>
        <time>2024-03-27T14:39:21Z</time>
      </trkpt>
      <trkpt lat="50.06808" lon="2.11024">
        <ele>96.6</ele>
        <time>2024-03-27T14:39:22Z</time>
      </trkpt>
      <trkpt lat="50.06808" lon="2.11025">
        <ele>96.6</ele>
        <time>2024-03-27T14:39:23Z</time>
      </trkpt>
      <trkpt lat="50.06809" lon="2.11027">
        <ele>96.6</ele>
        <time>2024-03-27T14:39:24Z</time>
      </trkpt>
      <trkpt lat="50.06809" lon="2.11028">
        <ele>96.6</ele>
        <time>2024-03-27T14:39:25Z</time>
      </trkpt>
      <trkpt lat="50.0681" lon="2.1103">
        <ele>96.6</ele>
        <time>2024-03-27T14:39:26Z</time>
      </trkpt>
      <trkpt lat="50.0681" lon="2.11031">
        <ele>96.6</ele>
        <time>2024-03-27T14:39:27Z</time>
      </trkpt>
      <trkpt lat="50.0681" lon="2.11033">
        <ele>96.6</ele>
        <time>2024-03-27T14:39:28Z</time>
      </trkpt>
      <trkpt lat="50.06811" lon="2.11035">
        <ele>96.7</ele>
        <time>2024-03-27T14:39:29Z</time>
      </trkpt>
      <trkpt lat="50.06812" lon="2.11038">
        <ele>96.7</ele>
        <time>2024-03-27T14:39:30Z</time>
      </trkpt>
      <trkpt lat="50.06812" lon="2.11039">
        <ele>96.7</ele>
        <time>2024-03-27T14:39:31Z</time>
      </trkpt>
      <trkpt lat="50.06812" lon="2.1104">
        <ele>96.7</ele>
        <time>2024-03-27T14:39:32Z</time>
      </trkpt>
      <trkpt lat="50.06813" lon="2.11043">
        <ele>96.7</ele>
        <time>2024-03-27T14:39:33Z</time>
      </trkpt>
      <trkpt lat="50.06813" lon="2.11044">
        <ele>96.7</ele>
        <time>2024-03-27T14:39:34Z</time>
      </trkpt>
      <trkpt lat="50.06814" lon="2.11045">
        <ele>96.7</ele>
        <time>2024-03-27T14:39:35Z</time>
      </trkpt>
      <trkpt lat="50.06814" lon="2.11047">
        <ele>96.7</ele>
        <time>2024-03-27T14:39:36Z</time>
      </trkpt>
      <trkpt lat="50.06814" lon="2.11049">
        <ele>96.7</ele>
        <time>2024-03-27T14:39:37Z</time>
      </trkpt>
      <trkpt lat="50.06815" lon="2.1105">
        <ele>96.7</ele>
        <time>2024-03-27T14:39:38Z</time>
      </trkpt>
      <trkpt lat="50.06816" lon="2.11052">
        <ele>96.7</ele>
        <time>2024-03-27T14:39:39Z</time>
      </trkpt>
      <trkpt lat="50.06816" lon="2.11054">
        <ele>96.8</ele>
        <time>2024-03-27T14:39:40Z</time>
      </trkpt>
      <trkpt lat="50.06817" lon="2.11055">
        <ele>96.8</ele>
        <time>2024-03-27T14:39:41Z</time>
      </trkpt>
      <trkpt lat="50.06817" lon="2.11057">
        <ele>96.8</ele>
        <time>2024-03-27T14:39:42Z</time>
      </trkpt>
      <trkpt lat="50.06818" lon="2.11058">
        <ele>96.8</ele>
        <time>2024-03-27T14:39:43Z</time>
      </trkpt>
      <trkpt lat="50.06818" lon="2.1106">
        <ele>96.8</ele>
        <time>2024-03-27T14:39:44Z</time>
      </trkpt>
      <trkpt lat="50.06819" lon="2.11062">
        <ele>96.9</ele>
        <time>2024-03-27T14:39:45Z</time>
      </trkpt>
      <trkpt lat="50.06819" lon="2.11063">
        <ele>96.9</ele>
        <time>2024-03-27T14:39:46Z</time>
      </trkpt>
      <trkpt lat="50.0682" lon="2.11065">
        <ele>96.9</ele>
        <time>2024-03-27T14:39:47Z</time>
      </trkpt>
      <trkpt lat="50.06821" lon="2.11068">
        <ele>96.9</ele>
        <time>2024-03-27T14:39:48Z</time>
      </trkpt>
      <trkpt lat="50.06821" lon="2.11069">
        <ele>96.9</ele>
        <time>2024-03-27T14:39:49Z</time>
      </trkpt>
      <trkpt lat="50.06822" lon="2.1107">
        <ele>97</ele>
        <time>2024-03-27T14:39:50Z</time>
      </trkpt>
      <trkpt lat="50.06822" lon="2.11071">
        <ele>97</ele>
        <time>2024-03-27T14:39:51Z</time>
      </trkpt>
      <trkpt lat="50.06823" lon="2.11073">
        <ele>97</ele>
        <time>2024-03-27T14:39:52Z</time>
      </trkpt>
      <trkpt lat="50.06823" lon="2.11074">
        <ele>97</ele>
        <time>2024-03-27T14:39:53Z</time>
      </trkpt>
      <trkpt lat="50.06824" lon="2.11075">
        <ele>97</ele>
        <time>2024-03-27T14:39:54Z</time>
      </trkpt>
      <trkpt lat="50.06824" lon="2.11077">
        <ele>97.1</ele>
        <time>2024-03-27T14:39:55Z</time>
      </trkpt>
      <trkpt lat="50.06825" lon="2.11078">
        <ele>97.1</ele>
        <time>2024-03-27T14:39:56Z</time>
      </trkpt>
      <trkpt lat="50.06825" lon="2.1108">
        <ele>97.1</ele>
        <time>2024-03-27T14:39:57Z</time>
      </trkpt>
      <trkpt lat="50.06827" lon="2.11083">
        <ele>97.1</ele>
        <time>2024-03-27T14:39:58Z</time>
      </trkpt>
      <trkpt lat="50.06827" lon="2.11085">
        <ele>97.2</ele>
        <time>2024-03-27T14:39:59Z</time>
      </trkpt>
      <trkpt lat="50.06828" lon="2.11087">
        <ele>97.2</ele>
        <time>2024-03-27T14:40:00Z</time>
      </trkpt>
      <trkpt lat="50.06828" lon="2.11089">
        <ele>97.2</ele>
        <time>2024-03-27T14:40:01Z</time>
      </trkpt>
      <trkpt lat="50.06829" lon="2.1109">
        <ele>97.2</ele>
        <time>2024-03-27T14:40:02Z</time>
      </trkpt>
      <trkpt lat="50.06829" lon="2.11092">
        <ele>97.2</ele>
        <time>2024-03-27T14:40:03Z</time>
      </trkpt>
      <trkpt lat="50.0683" lon="2.11093">
        <ele>97.3</ele>
        <time>2024-03-27T14:40:04Z</time>
      </trkpt>
      <trkpt lat="50.06831" lon="2.11095">
        <ele>97.3</ele>
        <time>2024-03-27T14:40:05Z</time>
      </trkpt>
      <trkpt lat="50.06831" lon="2.11096">
        <ele>97.3</ele>
        <time>2024-03-27T14:40:06Z</time>
      </trkpt>
      <trkpt lat="50.06832" lon="2.11097">
        <ele>97.3</ele>
        <time>2024-03-27T14:40:07Z</time>
      </trkpt>
      <trkpt lat="50.06832" lon="2.11099">
        <ele>97.3</ele>
        <time>2024-03-27T14:40:08Z</time>
      </trkpt>
      <trkpt lat="50.06833" lon="2.111">
        <ele>97.3</ele>
        <time>2024-03-27T14:40:09Z</time>
      </trkpt>
      <trkpt lat="50.06834" lon="2.11101">
        <ele>97.4</ele>
        <time>2024-03-27T14:40:10Z</time>
      </trkpt>
      <trkpt lat="50.06834" lon="2.11102">
        <ele>97.4</ele>
        <time>2024-03-27T14:40:11Z</time>
      </trkpt>
      <trkpt lat="50.06835" lon="2.11104">
        <ele>97.4</ele>
        <time>2024-03-27T14:40:12Z</time>
      </trkpt>
      <trkpt lat="50.06835" lon="2.11105">
        <ele>97.4</ele>
        <time>2024-03-27T14:40:13Z</time>
      </trkpt>
      <trkpt lat="50.06835" lon="2.11107">
        <ele>97.4</ele>
        <time>2024-03-27T14:40:14Z</time>
      </trkpt>
      <trkpt lat="50.06836" lon="2.11108">
        <ele>97.4</ele>
        <time>2024-03-27T14:40:15Z</time>
      </trkpt>
      <trkpt lat="50.06836" lon="2.1111">
        <ele>97.5</ele>
        <time>2024-03-27T14:40:16Z</time>
      </trkpt>
      <trkpt lat="50.06837" lon="2.11111">
        <ele>97.5</ele>
        <time>2024-03-27T14:40:17Z</time>
      </trkpt>
      <trkpt lat="50.06837" lon="2.11113">
        <ele>97.5</ele>
        <time>2024-03-27T14:40:18Z</time>
      </trkpt>
      <trkpt lat="50.06838" lon="2.11114">
        <ele>97.5</ele>
        <time>2024-03-27T14:40:19Z</time>
      </trkpt>
      <trkpt lat="50.06838" lon="2.11115">
        <ele>97.5</ele>
        <time>2024-03-27T14:40:20Z</time>
      </trkpt>
      <trkpt lat="50.06839" lon="2.11117">
        <ele>97.5</ele>
        <time>2024-03-27T14:40:21Z</time>
      </trkpt>
      <trkpt lat="50.06839" lon="2.11119">
        <ele>97.5</ele>
        <time>2024-03-27T14:40:22Z</time>
      </trkpt>
      <trkpt lat="50.0684" lon="2.11121">
        <ele>97.5</ele>
        <time>2024-03-27T14:40:23Z</time>
      </trkpt>
      <trkpt lat="50.0684" lon="2.11123">
        <ele>97.6</ele>
        <time>2024-03-27T14:40:25Z</time>
      </trkpt>
      <trkpt lat="50.06841" lon="2.11124">
        <ele>97.6</ele>
        <time>2024-03-27T14:40:26Z</time>
      </trkpt>
      <trkpt lat="50.06842" lon="2.11126">
        <ele>97.6</ele>
        <time>2024-03-27T14:40:27Z</time>
      </trkpt>
      <trkpt lat="50.06842" lon="2.11127">
        <ele>97.6</ele>
        <time>2024-03-27T14:40:28Z</time>
      </trkpt>
      <trkpt lat="50.06842" lon="2.11129">
        <ele>97.6</ele>
        <time>2024-03-27T14:40:29Z</time>
      </trkpt>
      <trkpt lat="50.06843" lon="2.1113">
        <ele>97.6</ele>
        <time>2024-03-27T14:40:30Z</time>
      </trkpt>
      <trkpt lat="50.06843" lon="2.11132">
        <ele>97.6</ele>
        <time>2024-03-27T14:40:31Z</time>
      </trkpt>
      <trkpt lat="50.06844" lon="2.11133">
        <ele>97.6</ele>
        <time>2024-03-27T14:40:32Z</time>
      </trkpt>
      <trkpt lat="50.06844" lon="2.11135">
        <ele>97.6</ele>
        <time>2024-03-27T14:40:33Z</time>
      </trkpt>
      <trkpt lat="50.06845" lon="2.11137">
        <ele>97.6</ele>
        <time>2024-03-27T14:40:34Z</time>
      </trkpt>
      <trkpt lat="50.06845" lon="2.11138">
        <ele>97.6</ele>
        <time>2024-03-27T14:40:35Z</time>
      </trkpt>
      <trkpt lat="50.06846" lon="2.1114">
        <ele>97.7</ele>
        <time>2024-03-27T14:40:36Z</time>
      </trkpt>
      <trkpt lat="50.06846" lon="2.11142">
        <ele>97.7</ele>
        <time>2024-03-27T14:40:37Z</time>
      </trkpt>
      <trkpt lat="50.06846" lon="2.11143">
        <ele>97.7</ele>
        <time>2024-03-27T14:40:38Z</time>
      </trkpt>
      <trkpt lat="50.06847" lon="2.11145">
        <ele>97.7</ele>
        <time>2024-03-27T14:40:39Z</time>
      </trkpt>
      <trkpt lat="50.06847" lon="2.11147">
        <ele>97.7</ele>
        <time>2024-03-27T14:40:40Z</time>
      </trkpt>
      <trkpt lat="50.06848" lon="2.11148">
        <ele>97.7</ele>
        <time>2024-03-27T14:40:41Z</time>
      </trkpt>
      <trkpt lat="50.06848" lon="2.1115">
        <ele>97.7</ele>
        <time>2024-03-27T14:40:42Z</time>
      </trkpt>
      <trkpt lat="50.06849" lon="2.11152">
        <ele>97.7</ele>
        <time>2024-03-27T14:40:43Z</time>
      </trkpt>
      <trkpt lat="50.06849" lon="2.11153">
        <ele>97.7</ele>
        <time>2024-03-27T14:40:44Z</time>
      </trkpt>
      <trkpt lat="50.0685" lon="2.11155">
        <ele>97.7</ele>
        <time>2024-03-27T14:40:45Z</time>
      </trkpt>
      <trkpt lat="50.0685" lon="2.11156">
        <ele>97.7</ele>
        <time>2024-03-27T14:40:46Z</time>
      </trkpt>
      <trkpt lat="50.06851" lon="2.11158">
        <ele>97.7</ele>
        <time>2024-03-27T14:40:47Z</time>
      </trkpt>
      <trkpt lat="50.06851" lon="2.1116">
        <ele>97.7</ele>
        <time>2024-03-27T14:40:48Z</time>
      </trkpt>
      <trkpt lat="50.06851" lon="2.11161">
        <ele>97.8</ele>
        <time>2024-03-27T14:40:49Z</time>
      </trkpt>
      <trkpt lat="50.06852" lon="2.11162">
        <ele>97.8</ele>
        <time>2024-03-27T14:40:50Z</time>
      </trkpt>
      <trkpt lat="50.06852" lon="2.11164">
        <ele>97.8</ele>
        <time>2024-03-27T14:40:51Z</time>
      </trkpt>
      <trkpt lat="50.06853" lon="2.11165">
        <ele>97.8</ele>
        <time>2024-03-27T14:40:52Z</time>
      </trkpt>
      <trkpt lat="50.06853" lon="2.11167">
        <ele>97.8</ele>
        <time>2024-03-27T14:40:53Z</time>
      </trkpt>
      <trkpt lat="50.06854" lon="2.11168">
        <ele>97.8</ele>
        <time>2024-03-27T14:40:54Z</time>
      </trkpt>
      <trkpt lat="50.06854" lon="2.1117">
        <ele>97.8</ele>
        <time>2024-03-27T14:40:55Z</time>
      </trkpt>
      <trkpt lat="50.06855" lon="2.11172">
        <ele>97.8</ele>
        <time>2024-03-27T14:40:56Z</time>
      </trkpt>
      <trkpt lat="50.06855" lon="2.11173">
        <ele>97.8</ele>
        <time>2024-03-27T14:40:57Z</time>
      </trkpt>
      <trkpt lat="50.06856" lon="2.11175">
        <ele>97.8</ele>
        <time>2024-03-27T14:40:58Z</time>
      </trkpt>
      <trkpt lat="50.06856" lon="2.11176">
        <ele>97.8</ele>
        <time>2024-03-27T14:40:59Z</time>
      </trkpt>
      <trkpt lat="50.06857" lon="2.11178">
        <ele>97.8</ele>
        <time>2024-03-27T14:41:00Z</time>
      </trkpt>
      <trkpt lat="50.06857" lon="2.11179">
        <ele>97.8</ele>
        <time>2024-03-27T14:41:01Z</time>
      </trkpt>
      <trkpt lat="50.06858" lon="2.11181">
        <ele>97.8</ele>
        <time>2024-03-27T14:41:02Z</time>
      </trkpt>
      <trkpt lat="50.06858" lon="2.11183">
        <ele>97.8</ele>
        <time>2024-03-27T14:41:03Z</time>
      </trkpt>
      <trkpt lat="50.06859" lon="2.11184">
        <ele>97.8</ele>
        <time>2024-03-27T14:41:04Z</time>
      </trkpt>
      <trkpt lat="50.06859" lon="2.11186">
        <ele>97.9</ele>
        <time>2024-03-27T14:41:05Z</time>
      </trkpt>
      <trkpt lat="50.0686" lon="2.11188">
        <ele>97.9</ele>
        <time>2024-03-27T14:41:06Z</time>
      </trkpt>
      <trkpt lat="50.0686" lon="2.11189">
        <ele>97.9</ele>
        <time>2024-03-27T14:41:07Z</time>
      </trkpt>
      <trkpt lat="50.0686" lon="2.11191">
        <ele>97.9</ele>
        <time>2024-03-27T14:41:08Z</time>
      </trkpt>
      <trkpt lat="50.06861" lon="2.11192">
        <ele>97.9</ele>
        <time>2024-03-27T14:41:09Z</time>
      </trkpt>
      <trkpt lat="50.06861" lon="2.11193">
        <ele>97.9</ele>
        <time>2024-03-27T14:41:10Z</time>
      </trkpt>
      <trkpt lat="50.06862" lon="2.11195">
        <ele>97.9</ele>
        <time>2024-03-27T14:41:11Z</time>
      </trkpt>
      <trkpt lat="50.06862" lon="2.11196">
        <ele>97.9</ele>
        <time>2024-03-27T14:41:12Z</time>
      </trkpt>
      <trkpt lat="50.06863" lon="2.11198">
        <ele>97.9</ele>
        <time>2024-03-27T14:41:13Z</time>
      </trkpt>
      <trkpt lat="50.06863" lon="2.112">
        <ele>97.9</ele>
        <time>2024-03-27T14:41:14Z</time>
      </trkpt>
      <trkpt lat="50.06864" lon="2.11201">
        <ele>97.9</ele>
        <time>2024-03-27T14:41:15Z</time>
      </trkpt>
      <trkpt lat="50.06864" lon="2.11203">
        <ele>97.9</ele>
        <time>2024-03-27T14:41:16Z</time>
      </trkpt>
      <trkpt lat="50.06865" lon="2.11204">
        <ele>97.9</ele>
        <time>2024-03-27T14:41:17Z</time>
      </trkpt>
      <trkpt lat="50.06865" lon="2.11206">
        <ele>98</ele>
        <time>2024-03-27T14:41:18Z</time>
      </trkpt>
      <trkpt lat="50.06866" lon="2.11207">
        <ele>98</ele>
        <time>2024-03-27T14:41:19Z</time>
      </trkpt>
      <trkpt lat="50.06866" lon="2.11209">
        <ele>98</ele>
        <time>2024-03-27T14:41:20Z</time>
      </trkpt>
      <trkpt lat="50.06866" lon="2.11211">
        <ele>98</ele>
        <time>2024-03-27T14:41:21Z</time>
      </trkpt>
      <trkpt lat="50.06867" lon="2.11213">
        <ele>98</ele>
        <time>2024-03-27T14:41:22Z</time>
      </trkpt>
      <trkpt lat="50.06867" lon="2.11214">
        <ele>98</ele>
        <time>2024-03-27T14:41:23Z</time>
      </trkpt>
      <trkpt lat="50.06868" lon="2.11216">
        <ele>98</ele>
        <time>2024-03-27T14:41:24Z</time>
      </trkpt>
      <trkpt lat="50.06868" lon="2.11218">
        <ele>98</ele>
        <time>2024-03-27T14:41:25Z</time>
      </trkpt>
      <trkpt lat="50.06868" lon="2.11219">
        <ele>98</ele>
        <time>2024-03-27T14:41:26Z</time>
      </trkpt>
      <trkpt lat="50.06868" lon="2.11221">
        <ele>98.1</ele>
        <time>2024-03-27T14:41:27Z</time>
      </trkpt>
      <trkpt lat="50.06869" lon="2.11223">
        <ele>98.1</ele>
        <time>2024-03-27T14:41:28Z</time>
      </trkpt>
      <trkpt lat="50.06869" lon="2.11224">
        <ele>98.1</ele>
        <time>2024-03-27T14:41:29Z</time>
      </trkpt>
      <trkpt lat="50.06869" lon="2.11226">
        <ele>98.1</ele>
        <time>2024-03-27T14:41:30Z</time>
      </trkpt>
      <trkpt lat="50.0687" lon="2.11228">
        <ele>98.1</ele>
        <time>2024-03-27T14:41:31Z</time>
      </trkpt>
      <trkpt lat="50.0687" lon="2.11229">
        <ele>98.1</ele>
        <time>2024-03-27T14:41:32Z</time>
      </trkpt>
      <trkpt lat="50.0687" lon="2.11231">
        <ele>98.1</ele>
        <time>2024-03-27T14:41:33Z</time>
      </trkpt>
      <trkpt lat="50.06871" lon="2.11233">
        <ele>98.1</ele>
        <time>2024-03-27T14:41:34Z</time>
      </trkpt>
      <trkpt lat="50.06871" lon="2.11234">
        <ele>98.1</ele>
        <time>2024-03-27T14:41:35Z</time>
      </trkpt>
      <trkpt lat="50.06871" lon="2.11236">
        <ele>98.2</ele>
        <time>2024-03-27T14:41:36Z</time>
      </trkpt>
      <trkpt lat="50.06872" lon="2.11237">
        <ele>98.2</ele>
        <time>2024-03-27T14:41:37Z</time>
      </trkpt>
      <trkpt lat="50.06872" lon="2.11239">
        <ele>98.2</ele>
        <time>2024-03-27T14:41:38Z</time>
      </trkpt>
      <trkpt lat="50.06872" lon="2.1124">
        <ele>98.2</ele>
        <time>2024-03-27T14:41:39Z</time>
      </trkpt>
      <trkpt lat="50.06873" lon="2.11242">
        <ele>98.2</ele>
        <time>2024-03-27T14:41:40Z</time>
      </trkpt>
      <trkpt lat="50.06873" lon="2.11243">
        <ele>98.2</ele>
        <time>2024-03-27T14:41:41Z</time>
      </trkpt>
      <trkpt lat="50.06873" lon="2.11245">
        <ele>98.2</ele>
        <time>2024-03-27T14:41:42Z</time>
      </trkpt>
      <trkpt lat="50.06874" lon="2.11247">
        <ele>98.2</ele>
        <time>2024-03-27T14:41:43Z</time>
      </trkpt>
      <trkpt lat="50.06874" lon="2.11248">
        <ele>98.2</ele>
        <time>2024-03-27T14:41:44Z</time>
      </trkpt>
      <trkpt lat="50.06875" lon="2.11249">
        <ele>98.2</ele>
        <time>2024-03-27T14:41:45Z</time>
      </trkpt>
      <trkpt lat="50.06875" lon="2.11251">
        <ele>98.2</ele>
        <time>2024-03-27T14:41:46Z</time>
      </trkpt>
      <trkpt lat="50.06875" lon="2.11252">
        <ele>98.3</ele>
        <time>2024-03-27T14:41:47Z</time>
      </trkpt>
      <trkpt lat="50.06876" lon="2.11253">
        <ele>98.3</ele>
        <time>2024-03-27T14:41:48Z</time>
      </trkpt>
      <trkpt lat="50.06876" lon="2.11255">
        <ele>98.3</ele>
        <time>2024-03-27T14:41:49Z</time>
      </trkpt>
      <trkpt lat="50.06877" lon="2.11256">
        <ele>98.3</ele>
        <time>2024-03-27T14:41:50Z</time>
      </trkpt>
      <trkpt lat="50.06877" lon="2.11258">
        <ele>98.3</ele>
        <time>2024-03-27T14:41:51Z</time>
      </trkpt>
      <trkpt lat="50.06877" lon="2.11259">
        <ele>98.3</ele>
        <time>2024-03-27T14:41:52Z</time>
      </trkpt>
      <trkpt lat="50.06878" lon="2.11261">
        <ele>98.3</ele>
        <time>2024-03-27T14:41:53Z</time>
      </trkpt>
      <trkpt lat="50.06878" lon="2.11262">
        <ele>98.3</ele>
        <time>2024-03-27T14:41:54Z</time>
      </trkpt>
      <trkpt lat="50.06879" lon="2.11264">
        <ele>98.3</ele>
        <time>2024-03-27T14:41:55Z</time>
      </trkpt>
      <trkpt lat="50.06879" lon="2.11266">
        <ele>98.3</ele>
        <time>2024-03-27T14:41:56Z</time>
      </trkpt>
      <trkpt lat="50.06879" lon="2.11267">
        <ele>98.3</ele>
        <time>2024-03-27T14:41:57Z</time>
      </trkpt>
      <trkpt lat="50.0688" lon="2.11269">
        <ele>98.3</ele>
        <time>2024-03-27T14:41:58Z</time>
      </trkpt>
      <trkpt lat="50.0688" lon="2.11271">
        <ele>98.3</ele>
        <time>2024-03-27T14:41:59Z</time>
      </trkpt>
      <trkpt lat="50.06881" lon="2.11272">
        <ele>98.3</ele>
        <time>2024-03-27T14:42:00Z</time>
      </trkpt>
      <trkpt lat="50.06881" lon="2.11274">
        <ele>98.3</ele>
        <time>2024-03-27T14:42:01Z</time>
      </trkpt>
      <trkpt lat="50.06882" lon="2.11276">
        <ele>98.3</ele>
        <time>2024-03-27T14:42:02Z</time>
      </trkpt>
      <trkpt lat="50.06882" lon="2.11277">
        <ele>98.3</ele>
        <time>2024-03-27T14:42:03Z</time>
      </trkpt>
      <trkpt lat="50.06882" lon="2.11279">
        <ele>98.3</ele>
        <time>2024-03-27T14:42:04Z</time>
      </trkpt>
      <trkpt lat="50.06882" lon="2.1128">
        <ele>98.3</ele>
        <time>2024-03-27T14:42:05Z</time>
      </trkpt>
      <trkpt lat="50.06883" lon="2.11282">
        <ele>98.3</ele>
        <time>2024-03-27T14:42:06Z</time>
      </trkpt>
      <trkpt lat="50.06883" lon="2.11283">
        <ele>98.3</ele>
        <time>2024-03-27T14:42:07Z</time>
      </trkpt>
      <trkpt lat="50.06883" lon="2.11285">
        <ele>98.3</ele>
        <time>2024-03-27T14:42:08Z</time>
      </trkpt>
      <trkpt lat="50.06883" lon="2.11287">
        <ele>98.3</ele>
        <time>2024-03-27T14:42:09Z</time>
      </trkpt>
      <trkpt lat="50.06884" lon="2.11289">
        <ele>98.3</ele>
        <time>2024-03-27T14:42:10Z</time>
      </trkpt>
      <trkpt lat="50.06884" lon="2.11291">
        <ele>98.3</ele>
        <time>2024-03-27T14:42:11Z</time>
      </trkpt>
      <trkpt lat="50.06884" lon="2.11292">
        <ele>98.3</ele>
        <time>2024-03-27T14:42:12Z</time>
      </trkpt>
      <trkpt lat="50.06885" lon="2.11294">
        <ele>98.3</ele>
        <time>2024-03-27T14:42:13Z</time>
      </trkpt>
      <trkpt lat="50.06885" lon="2.11295">
        <ele>98.3</ele>
        <time>2024-03-27T14:42:14Z</time>
      </trkpt>
      <trkpt lat="50.06885" lon="2.11297">
        <ele>98.3</ele>
        <time>2024-03-27T14:42:15Z</time>
      </trkpt>
      <trkpt lat="50.06885" lon="2.11299">
        <ele>98.3</ele>
        <time>2024-03-27T14:42:16Z</time>
      </trkpt>
      <trkpt lat="50.06886" lon="2.113">
        <ele>98.3</ele>
        <time>2024-03-27T14:42:17Z</time>
      </trkpt>
      <trkpt lat="50.06886" lon="2.11302">
        <ele>98.3</ele>
        <time>2024-03-27T14:42:18Z</time>
      </trkpt>
      <trkpt lat="50.06886" lon="2.11304">
        <ele>98.3</ele>
        <time>2024-03-27T14:42:19Z</time>
      </trkpt>
      <trkpt lat="50.06887" lon="2.11305">
        <ele>98.3</ele>
        <time>2024-03-27T14:42:20Z</time>
      </trkpt>
      <trkpt lat="50.06887" lon="2.11307">
        <ele>98.3</ele>
        <time>2024-03-27T14:42:21Z</time>
      </trkpt>
      <trkpt lat="50.06887" lon="2.11309">
        <ele>98.3</ele>
        <time>2024-03-27T14:42:22Z</time>
      </trkpt>
      <trkpt lat="50.06887" lon="2.1131">
        <ele>98.3</ele>
        <time>2024-03-27T14:42:23Z</time>
      </trkpt>
      <trkpt lat="50.06887" lon="2.11312">
        <ele>98.3</ele>
        <time>2024-03-27T14:42:24Z</time>
      </trkpt>
      <trkpt lat="50.06888" lon="2.11313">
        <ele>98.3</ele>
        <time>2024-03-27T14:42:25Z</time>
      </trkpt>
      <trkpt lat="50.06888" lon="2.11315">
        <ele>98.3</ele>
        <time>2024-03-27T14:42:26Z</time>
      </trkpt>
      <trkpt lat="50.06888" lon="2.11316">
        <ele>98.3</ele>
        <time>2024-03-27T14:42:27Z</time>
      </trkpt>
      <trkpt lat="50.06888" lon="2.11317">
        <ele>98.3</ele>
        <time>2024-03-27T14:42:28Z</time>
      </trkpt>
      <trkpt lat="50.06889" lon="2.11319">
        <ele>98.3</ele>
        <time>2024-03-27T14:42:29Z</time>
      </trkpt>
      <trkpt lat="50.06889" lon="2.11321">
        <ele>98.3</ele>
        <time>2024-03-27T14:42:30Z</time>
      </trkpt>
      <trkpt lat="50.06889" lon="2.11322">
        <ele>98.3</ele>
        <time>2024-03-27T14:42:31Z</time>
      </trkpt>
      <trkpt lat="50.06889" lon="2.11324">
        <ele>98.3</ele>
        <time>2024-03-27T14:42:32Z</time>
      </trkpt>
      <trkpt lat="50.0689" lon="2.11326">
        <ele>98.2</ele>
        <time>2024-03-27T14:42:33Z</time>
      </trkpt>
      <trkpt lat="50.0689" lon="2.11328">
        <ele>98.2</ele>
        <time>2024-03-27T14:42:34Z</time>
      </trkpt>
      <trkpt lat="50.0689" lon="2.11329">
        <ele>98.2</ele>
        <time>2024-03-27T14:42:35Z</time>
      </trkpt>
      <trkpt lat="50.0689" lon="2.11331">
        <ele>98.2</ele>
        <time>2024-03-27T14:42:36Z</time>
      </trkpt>
      <trkpt lat="50.0689" lon="2.11333">
        <ele>98.2</ele>
        <time>2024-03-27T14:42:37Z</time>
      </trkpt>
      <trkpt lat="50.06891" lon="2.11335">
        <ele>98.2</ele>
        <time>2024-03-27T14:42:38Z</time>
      </trkpt>
      <trkpt lat="50.06891" lon="2.11336">
        <ele>98.2</ele>
        <time>2024-03-27T14:42:39Z</time>
      </trkpt>
      <trkpt lat="50.06891" lon="2.11338">
        <ele>98.2</ele>
        <time>2024-03-27T14:42:40Z</time>
      </trkpt>
      <trkpt lat="50.06891" lon="2.11341">
        <ele>98.1</ele>
        <time>2024-03-27T14:42:41Z</time>
      </trkpt>
      <trkpt lat="50.06891" lon="2.11343">
        <ele>98.1</ele>
        <time>2024-03-27T14:42:42Z</time>
      </trkpt>
      <trkpt lat="50.06891" lon="2.11344">
        <ele>98.1</ele>
        <time>2024-03-27T14:42:43Z</time>
      </trkpt>
      <trkpt lat="50.06891" lon="2.11346">
        <ele>98.1</ele>
        <time>2024-03-27T14:42:44Z</time>
      </trkpt>
      <trkpt lat="50.06892" lon="2.11348">
        <ele>98.1</ele>
        <time>2024-03-27T14:42:45Z</time>
      </trkpt>
      <trkpt lat="50.06892" lon="2.1135">
        <ele>98.1</ele>
        <time>2024-03-27T14:42:46Z</time>
      </trkpt>
      <trkpt lat="50.06892" lon="2.11353">
        <ele>98.1</ele>
        <time>2024-03-27T14:42:47Z</time>
      </trkpt>
      <trkpt lat="50.06892" lon="2.11354">
        <ele>98</ele>
        <time>2024-03-27T14:42:48Z</time>
      </trkpt>
      <trkpt lat="50.06892" lon="2.11355">
        <ele>98</ele>
        <time>2024-03-27T14:42:49Z</time>
      </trkpt>
      <trkpt lat="50.06893" lon="2.11358">
        <ele>98</ele>
        <time>2024-03-27T14:42:50Z</time>
      </trkpt>
      <trkpt lat="50.06893" lon="2.1136">
        <ele>98</ele>
        <time>2024-03-27T14:42:51Z</time>
      </trkpt>
      <trkpt lat="50.06893" lon="2.11361">
        <ele>98</ele>
        <time>2024-03-27T14:42:52Z</time>
      </trkpt>
      <trkpt lat="50.06893" lon="2.11363">
        <ele>98</ele>
        <time>2024-03-27T14:42:53Z</time>
      </trkpt>
      <trkpt lat="50.06893" lon="2.11365">
        <ele>97.9</ele>
        <time>2024-03-27T14:42:54Z</time>
      </trkpt>
      <trkpt lat="50.06893" lon="2.11366">
        <ele>97.9</ele>
        <time>2024-03-27T14:42:55Z</time>
      </trkpt>
      <trkpt lat="50.06893" lon="2.11368">
        <ele>97.9</ele>
        <time>2024-03-27T14:42:56Z</time>
      </trkpt>
      <trkpt lat="50.06893" lon="2.1137">
        <ele>97.9</ele>
        <time>2024-03-27T14:42:57Z</time>
      </trkpt>
      <trkpt lat="50.06893" lon="2.11372">
        <ele>97.9</ele>
        <time>2024-03-27T14:42:58Z</time>
      </trkpt>
      <trkpt lat="50.06894" lon="2.11374">
        <ele>97.9</ele>
        <time>2024-03-27T14:42:59Z</time>
      </trkpt>
      <trkpt lat="50.06894" lon="2.11375">
        <ele>97.8</ele>
        <time>2024-03-27T14:43:00Z</time>
      </trkpt>
      <trkpt lat="50.06894" lon="2.11377">
        <ele>97.8</ele>
        <time>2024-03-27T14:43:01Z</time>
      </trkpt>
      <trkpt lat="50.06894" lon="2.11379">
        <ele>97.8</ele>
        <time>2024-03-27T14:43:02Z</time>
      </trkpt>
      <trkpt lat="50.06894" lon="2.11381">
        <ele>97.8</ele>
        <time>2024-03-27T14:43:03Z</time>
      </trkpt>
      <trkpt lat="50.06894" lon="2.11383">
        <ele>97.8</ele>
        <time>2024-03-27T14:43:04Z</time>
      </trkpt>
      <trkpt lat="50.06895" lon="2.11384">
        <ele>97.8</ele>
        <time>2024-03-27T14:43:05Z</time>
      </trkpt>
      <trkpt lat="50.06895" lon="2.11386">
        <ele>97.7</ele>
        <time>2024-03-27T14:43:06Z</time>
      </trkpt>
      <trkpt lat="50.06895" lon="2.11388">
        <ele>97.7</ele>
        <time>2024-03-27T14:43:07Z</time>
      </trkpt>
      <trkpt lat="50.06895" lon="2.11389">
        <ele>97.7</ele>
        <time>2024-03-27T14:43:08Z</time>
      </trkpt>
      <trkpt lat="50.06895" lon="2.11391">
        <ele>97.7</ele>
        <time>2024-03-27T14:43:09Z</time>
      </trkpt>
      <trkpt lat="50.06895" lon="2.11393">
        <ele>97.7</ele>
        <time>2024-03-27T14:43:10Z</time>
      </trkpt>
      <trkpt lat="50.06895" lon="2.11396">
        <ele>97.6</ele>
        <time>2024-03-27T14:43:11Z</time>
      </trkpt>
      <trkpt lat="50.06896" lon="2.11397">
        <ele>97.6</ele>
        <time>2024-03-27T14:43:12Z</time>
      </trkpt>
      <trkpt lat="50.06896" lon="2.11399">
        <ele>97.6</ele>
        <time>2024-03-27T14:43:13Z</time>
      </trkpt>
      <trkpt lat="50.06896" lon="2.114">
        <ele>97.6</ele>
        <time>2024-03-27T14:43:14Z</time>
      </trkpt>
      <trkpt lat="50.06896" lon="2.11402">
        <ele>97.5</ele>
        <time>2024-03-27T14:43:15Z</time>
      </trkpt>
      <trkpt lat="50.06897" lon="2.11404">
        <ele>97.5</ele>
        <time>2024-03-27T14:43:16Z</time>
      </trkpt>
      <trkpt lat="50.06897" lon="2.11406">
        <ele>97.5</ele>
        <time>2024-03-27T14:43:17Z</time>
      </trkpt>
      <trkpt lat="50.06897" lon="2.11407">
        <ele>97.5</ele>
        <time>2024-03-27T14:43:18Z</time>
      </trkpt>
      <trkpt lat="50.06897" lon="2.11409">
        <ele>97.4</ele>
        <time>2024-03-27T14:43:19Z</time>
      </trkpt>
      <trkpt lat="50.06898" lon="2.11411">
        <ele>97.4</ele>
        <time>2024-03-27T14:43:20Z</time>
      </trkpt>
      <trkpt lat="50.06898" lon="2.11413">
        <ele>97.4</ele>
        <time>2024-03-27T14:43:21Z</time>
      </trkpt>
      <trkpt lat="50.06898" lon="2.11414">
        <ele>97.4</ele>
        <time>2024-03-27T14:43:22Z</time>
      </trkpt>
      <trkpt lat="50.06899" lon="2.11417">
        <ele>97.3</ele>
        <time>2024-03-27T14:43:23Z</time>
      </trkpt>
      <trkpt lat="50.06899" lon="2.11419">
        <ele>97.3</ele>
        <time>2024-03-27T14:43:24Z</time>
      </trkpt>
      <trkpt lat="50.06899" lon="2.1142">
        <ele>97.3</ele>
        <time>2024-03-27T14:43:25Z</time>
      </trkpt>
      <trkpt lat="50.06899" lon="2.11422">
        <ele>97.2</ele>
        <time>2024-03-27T14:43:26Z</time>
      </trkpt>
      <trkpt lat="50.06899" lon="2.11424">
        <ele>97.2</ele>
        <time>2024-03-27T14:43:27Z</time>
      </trkpt>
      <trkpt lat="50.06899" lon="2.11425">
        <ele>97.2</ele>
        <time>2024-03-27T14:43:28Z</time>
      </trkpt>
      <trkpt lat="50.06899" lon="2.11427">
        <ele>97.2</ele>
        <time>2024-03-27T14:43:29Z</time>
      </trkpt>
      <trkpt lat="50.06899" lon="2.11429">
        <ele>97.1</ele>
        <time>2024-03-27T14:43:30Z</time>
      </trkpt>
      <trkpt lat="50.069" lon="2.11431">
        <ele>97.1</ele>
        <time>2024-03-27T14:43:31Z</time>
      </trkpt>
      <trkpt lat="50.069" lon="2.11434">
        <ele>97.1</ele>
        <time>2024-03-27T14:43:32Z</time>
      </trkpt>
      <trkpt lat="50.069" lon="2.11435">
        <ele>97</ele>
        <time>2024-03-27T14:43:33Z</time>
      </trkpt>
      <trkpt lat="50.069" lon="2.11436">
        <ele>97</ele>
        <time>2024-03-27T14:43:34Z</time>
      </trkpt>
      <trkpt lat="50.069" lon="2.11438">
        <ele>97</ele>
        <time>2024-03-27T14:43:35Z</time>
      </trkpt>
      <trkpt lat="50.069" lon="2.1144">
        <ele>97</ele>
        <time>2024-03-27T14:43:36Z</time>
      </trkpt>
      <trkpt lat="50.069" lon="2.11442">
        <ele>96.9</ele>
        <time>2024-03-27T14:43:37Z</time>
      </trkpt>
      <trkpt lat="50.06901" lon="2.11443">
        <ele>96.9</ele>
        <time>2024-03-27T14:43:38Z</time>
      </trkpt>
      <trkpt lat="50.06901" lon="2.11445">
        <ele>96.9</ele>
        <time>2024-03-27T14:43:39Z</time>
      </trkpt>
      <trkpt lat="50.06901" lon="2.11446">
        <ele>96.9</ele>
        <time>2024-03-27T14:43:40Z</time>
      </trkpt>
      <trkpt lat="50.06901" lon="2.11448">
        <ele>96.8</ele>
        <time>2024-03-27T14:43:41Z</time>
      </trkpt>
      <trkpt lat="50.06901" lon="2.11449">
        <ele>96.8</ele>
        <time>2024-03-27T14:43:42Z</time>
      </trkpt>
      <trkpt lat="50.06901" lon="2.11451">
        <ele>96.8</ele>
        <time>2024-03-27T14:43:43Z</time>
      </trkpt>
      <trkpt lat="50.06902" lon="2.11453">
        <ele>96.8</ele>
        <time>2024-03-27T14:43:44Z</time>
      </trkpt>
      <trkpt lat="50.06902" lon="2.11455">
        <ele>96.7</ele>
        <time>2024-03-27T14:43:45Z</time>
      </trkpt>
      <trkpt lat="50.06902" lon="2.11457">
        <ele>96.7</ele>
        <time>2024-03-27T14:43:46Z</time>
      </trkpt>
      <trkpt lat="50.06903" lon="2.11458">
        <ele>96.7</ele>
        <time>2024-03-27T14:43:47Z</time>
      </trkpt>
      <trkpt lat="50.06903" lon="2.1146">
        <ele>96.7</ele>
        <time>2024-03-27T14:43:48Z</time>
      </trkpt>
      <trkpt lat="50.06903" lon="2.11461">
        <ele>96.6</ele>
        <time>2024-03-27T14:43:49Z</time>
      </trkpt>
      <trkpt lat="50.06903" lon="2.11463">
        <ele>96.6</ele>
        <time>2024-03-27T14:43:50Z</time>
      </trkpt>
      <trkpt lat="50.06904" lon="2.11464">
        <ele>96.6</ele>
        <time>2024-03-27T14:43:51Z</time>
      </trkpt>
      <trkpt lat="50.06904" lon="2.11466">
        <ele>96.6</ele>
        <time>2024-03-27T14:43:52Z</time>
      </trkpt>
      <trkpt lat="50.06904" lon="2.11467">
        <ele>96.5</ele>
        <time>2024-03-27T14:43:53Z</time>
      </trkpt>
      <trkpt lat="50.06904" lon="2.11469">
        <ele>96.5</ele>
        <time>2024-03-27T14:43:54Z</time>
      </trkpt>
      <trkpt lat="50.06905" lon="2.11471">
        <ele>96.5</ele>
        <time>2024-03-27T14:43:55Z</time>
      </trkpt>
      <trkpt lat="50.06905" lon="2.11472">
        <ele>96.5</ele>
        <time>2024-03-27T14:43:56Z</time>
      </trkpt>
      <trkpt lat="50.06905" lon="2.11474">
        <ele>96.4</ele>
        <time>2024-03-27T14:43:57Z</time>
      </trkpt>
      <trkpt lat="50.06906" lon="2.11475">
        <ele>96.4</ele>
        <time>2024-03-27T14:43:58Z</time>
      </trkpt>
      <trkpt lat="50.06906" lon="2.11477">
        <ele>96.4</ele>
        <time>2024-03-27T14:43:59Z</time>
      </trkpt>
      <trkpt lat="50.06906" lon="2.11478">
        <ele>96.4</ele>
        <time>2024-03-27T14:44:00Z</time>
      </trkpt>
      <trkpt lat="50.06906" lon="2.11479">
        <ele>96.3</ele>
        <time>2024-03-27T14:44:01Z</time>
      </trkpt>
      <trkpt lat="50.06906" lon="2.11481">
        <ele>96.3</ele>
        <time>2024-03-27T14:44:02Z</time>
      </trkpt>
      <trkpt lat="50.06906" lon="2.11483">
        <ele>96.3</ele>
        <time>2024-03-27T14:44:03Z</time>
      </trkpt>
      <trkpt lat="50.06906" lon="2.11484">
        <ele>96.3</ele>
        <time>2024-03-27T14:44:04Z</time>
      </trkpt>
      <trkpt lat="50.06906" lon="2.11486">
        <ele>96.2</ele>
        <time>2024-03-27T14:44:05Z</time>
      </trkpt>
      <trkpt lat="50.06907" lon="2.11488">
        <ele>96.2</ele>
        <time>2024-03-27T14:44:06Z</time>
      </trkpt>
      <trkpt lat="50.06907" lon="2.1149">
        <ele>96.2</ele>
        <time>2024-03-27T14:44:07Z</time>
      </trkpt>
      <trkpt lat="50.06907" lon="2.11493">
        <ele>96.1</ele>
        <time>2024-03-27T14:44:08Z</time>
      </trkpt>
      <trkpt lat="50.06907" lon="2.11494">
        <ele>96.1</ele>
        <time>2024-03-27T14:44:09Z</time>
      </trkpt>
      <trkpt lat="50.06908" lon="2.11495">
        <ele>96.1</ele>
        <time>2024-03-27T14:44:10Z</time>
      </trkpt>
      <trkpt lat="50.06908" lon="2.11497">
        <ele>96.1</ele>
        <time>2024-03-27T14:44:11Z</time>
      </trkpt>
      <trkpt lat="50.06908" lon="2.11499">
        <ele>96</ele>
        <time>2024-03-27T14:44:12Z</time>
      </trkpt>
      <trkpt lat="50.06908" lon="2.115">
        <ele>96</ele>
        <time>2024-03-27T14:44:13Z</time>
      </trkpt>
      <trkpt lat="50.06908" lon="2.11502">
        <ele>96</ele>
        <time>2024-03-27T14:44:14Z</time>
      </trkpt>
      <trkpt lat="50.06909" lon="2.11504">
        <ele>96</ele>
        <time>2024-03-27T14:44:15Z</time>
      </trkpt>
      <trkpt lat="50.06909" lon="2.11506">
        <ele>95.9</ele>
        <time>2024-03-27T14:44:16Z</time>
      </trkpt>
      <trkpt lat="50.06909" lon="2.11507">
        <ele>95.9</ele>
        <time>2024-03-27T14:44:17Z</time>
      </trkpt>
      <trkpt lat="50.06909" lon="2.11509">
        <ele>95.9</ele>
        <time>2024-03-27T14:44:18Z</time>
      </trkpt>
      <trkpt lat="50.0691" lon="2.1151">
        <ele>95.9</ele>
        <time>2024-03-27T14:44:19Z</time>
      </trkpt>
      <trkpt lat="50.0691" lon="2.11512">
        <ele>95.8</ele>
        <time>2024-03-27T14:44:20Z</time>
      </trkpt>
      <trkpt lat="50.0691" lon="2.11513">
        <ele>95.8</ele>
        <time>2024-03-27T14:44:21Z</time>
      </trkpt>
      <trkpt lat="50.0691" lon="2.11515">
        <ele>95.8</ele>
        <time>2024-03-27T14:44:22Z</time>
      </trkpt>
      <trkpt lat="50.0691" lon="2.11517">
        <ele>95.8</ele>
        <time>2024-03-27T14:44:23Z</time>
      </trkpt>
      <trkpt lat="50.0691" lon="2.11519">
        <ele>95.7</ele>
        <time>2024-03-27T14:44:24Z</time>
      </trkpt>
      <trkpt lat="50.06911" lon="2.1152">
        <ele>95.7</ele>
        <time>2024-03-27T14:44:25Z</time>
      </trkpt>
      <trkpt lat="50.06911" lon="2.11523">
        <ele>95.7</ele>
        <time>2024-03-27T14:44:26Z</time>
      </trkpt>
      <trkpt lat="50.06912" lon="2.11526">
        <ele>95.6</ele>
        <time>2024-03-27T14:44:27Z</time>
      </trkpt>
      <trkpt lat="50.06912" lon="2.11528">
        <ele>95.6</ele>
        <time>2024-03-27T14:44:28Z</time>
      </trkpt>
      <trkpt lat="50.06912" lon="2.11531">
        <ele>95.6</ele>
        <time>2024-03-27T14:44:29Z</time>
      </trkpt>
      <trkpt lat="50.06912" lon="2.11534">
        <ele>95.5</ele>
        <time>2024-03-27T14:44:30Z</time>
      </trkpt>
      <trkpt lat="50.06912" lon="2.11536">
        <ele>95.5</ele>
        <time>2024-03-27T14:44:31Z</time>
      </trkpt>
      <trkpt lat="50.06912" lon="2.11538">
        <ele>95.5</ele>
        <time>2024-03-27T14:44:32Z</time>
      </trkpt>
      <trkpt lat="50.06912" lon="2.1154">
        <ele>95.4</ele>
        <time>2024-03-27T14:44:33Z</time>
      </trkpt>
      <trkpt lat="50.06912" lon="2.11542">
        <ele>95.4</ele>
        <time>2024-03-27T14:44:34Z</time>
      </trkpt>
      <trkpt lat="50.06912" lon="2.11543">
        <ele>95.4</ele>
        <time>2024-03-27T14:44:35Z</time>
      </trkpt>
      <trkpt lat="50.06913" lon="2.11544">
        <ele>95.4</ele>
        <time>2024-03-27T14:44:36Z</time>
      </trkpt>
      <trkpt lat="50.06914" lon="2.11545">
        <ele>95.4</ele>
        <time>2024-03-27T14:44:37Z</time>
      </trkpt>
      <trkpt lat="50.06914" lon="2.11546">
        <ele>95.4</ele>
        <time>2024-03-27T14:44:38Z</time>
      </trkpt>
      <trkpt lat="50.06914" lon="2.11547">
        <ele>95.3</ele>
        <time>2024-03-27T14:44:39Z</time>
      </trkpt>
      <trkpt lat="50.06914" lon="2.11549">
        <ele>95.3</ele>
        <time>2024-03-27T14:44:40Z</time>
      </trkpt>
      <trkpt lat="50.06915" lon="2.11551">
        <ele>95.3</ele>
        <time>2024-03-27T14:44:41Z</time>
      </trkpt>
      <trkpt lat="50.06915" lon="2.11553">
        <ele>95.3</ele>
        <time>2024-03-27T14:44:42Z</time>
      </trkpt>
      <trkpt lat="50.06916" lon="2.11554">
        <ele>95.2</ele>
        <time>2024-03-27T14:44:43Z</time>
      </trkpt>
      <trkpt lat="50.06916" lon="2.11557">
        <ele>95.2</ele>
        <time>2024-03-27T14:44:44Z</time>
      </trkpt>
      <trkpt lat="50.06917" lon="2.11558">
        <ele>95.2</ele>
        <time>2024-03-27T14:44:45Z</time>
      </trkpt>
      <trkpt lat="50.06917" lon="2.1156">
        <ele>95.2</ele>
        <time>2024-03-27T14:44:46Z</time>
      </trkpt>
      <trkpt lat="50.06918" lon="2.11562">
        <ele>95.1</ele>
        <time>2024-03-27T14:44:47Z</time>
      </trkpt>
      <trkpt lat="50.06918" lon="2.11564">
        <ele>95.1</ele>
        <time>2024-03-27T14:44:48Z</time>
      </trkpt>
      <trkpt lat="50.06918" lon="2.11565">
        <ele>95.1</ele>
        <time>2024-03-27T14:44:49Z</time>
      </trkpt>
      <trkpt lat="50.06919" lon="2.11568">
        <ele>95</ele>
        <time>2024-03-27T14:44:50Z</time>
      </trkpt>
      <trkpt lat="50.06919" lon="2.11569">
        <ele>95</ele>
        <time>2024-03-27T14:44:51Z</time>
      </trkpt>
      <trkpt lat="50.06919" lon="2.1157">
        <ele>95</ele>
        <time>2024-03-27T14:44:52Z</time>
      </trkpt>
      <trkpt lat="50.0692" lon="2.11572">
        <ele>94.9</ele>
        <time>2024-03-27T14:44:53Z</time>
      </trkpt>
      <trkpt lat="50.0692" lon="2.11574">
        <ele>94.9</ele>
        <time>2024-03-27T14:44:54Z</time>
      </trkpt>
      <trkpt lat="50.0692" lon="2.11575">
        <ele>94.9</ele>
        <time>2024-03-27T14:44:55Z</time>
      </trkpt>
      <trkpt lat="50.0692" lon="2.11576">
        <ele>94.9</ele>
        <time>2024-03-27T14:44:56Z</time>
      </trkpt>
      <trkpt lat="50.06921" lon="2.11578">
        <ele>94.8</ele>
        <time>2024-03-27T14:44:57Z</time>
      </trkpt>
      <trkpt lat="50.06921" lon="2.11579">
        <ele>94.8</ele>
        <time>2024-03-27T14:44:58Z</time>
      </trkpt>
      <trkpt lat="50.06921" lon="2.11581">
        <ele>94.8</ele>
        <time>2024-03-27T14:44:59Z</time>
      </trkpt>
      <trkpt lat="50.06922" lon="2.11582">
        <ele>94.7</ele>
        <time>2024-03-27T14:45:00Z</time>
      </trkpt>
      <trkpt lat="50.06922" lon="2.11584">
        <ele>94.7</ele>
        <time>2024-03-27T14:45:01Z</time>
      </trkpt>
      <trkpt lat="50.06922" lon="2.11586">
        <ele>94.7</ele>
        <time>2024-03-27T14:45:02Z</time>
      </trkpt>
      <trkpt lat="50.06923" lon="2.11587">
        <ele>94.6</ele>
        <time>2024-03-27T14:45:03Z</time>
      </trkpt>
      <trkpt lat="50.06923" lon="2.11589">
        <ele>94.6</ele>
        <time>2024-03-27T14:45:04Z</time>
      </trkpt>
      <trkpt lat="50.06923" lon="2.11591">
        <ele>94.6</ele>
        <time>2024-03-27T14:45:05Z</time>
      </trkpt>
      <trkpt lat="50.06923" lon="2.11592">
        <ele>94.5</ele>
        <time>2024-03-27T14:45:06Z</time>
      </trkpt>
      <trkpt lat="50.06924" lon="2.11594">
        <ele>94.5</ele>
        <time>2024-03-27T14:45:07Z</time>
      </trkpt>
      <trkpt lat="50.06924" lon="2.11596">
        <ele>94.4</ele>
        <time>2024-03-27T14:45:08Z</time>
      </trkpt>
      <trkpt lat="50.06924" lon="2.11597">
        <ele>94.4</ele>
        <time>2024-03-27T14:45:09Z</time>
      </trkpt>
      <trkpt lat="50.06925" lon="2.11599">
        <ele>94.4</ele>
        <time>2024-03-27T14:45:10Z</time>
      </trkpt>
      <trkpt lat="50.06925" lon="2.11601">
        <ele>94.3</ele>
        <time>2024-03-27T14:45:11Z</time>
      </trkpt>
      <trkpt lat="50.06925" lon="2.11603">
        <ele>94.3</ele>
        <time>2024-03-27T14:45:12Z</time>
      </trkpt>
      <trkpt lat="50.06925" lon="2.11604">
        <ele>94.2</ele>
        <time>2024-03-27T14:45:13Z</time>
      </trkpt>
      <trkpt lat="50.06926" lon="2.11606">
        <ele>94.2</ele>
        <time>2024-03-27T14:45:14Z</time>
      </trkpt>
      <trkpt lat="50.06926" lon="2.11608">
        <ele>94.2</ele>
        <time>2024-03-27T14:45:15Z</time>
      </trkpt>
      <trkpt lat="50.06927" lon="2.11609">
        <ele>94.1</ele>
        <time>2024-03-27T14:45:16Z</time>
      </trkpt>
      <trkpt lat="50.06927" lon="2.11611">
        <ele>94.1</ele>
        <time>2024-03-27T14:45:17Z</time>
      </trkpt>
      <trkpt lat="50.06927" lon="2.11613">
        <ele>94</ele>
        <time>2024-03-27T14:45:18Z</time>
      </trkpt>
      <trkpt lat="50.06927" lon="2.11615">
        <ele>94</ele>
        <time>2024-03-27T14:45:19Z</time>
      </trkpt>
      <trkpt lat="50.06927" lon="2.11616">
        <ele>94</ele>
        <time>2024-03-27T14:45:20Z</time>
      </trkpt>
      <trkpt lat="50.06928" lon="2.11617">
        <ele>93.9</ele>
        <time>2024-03-27T14:45:21Z</time>
      </trkpt>
      <trkpt lat="50.06928" lon="2.11619">
        <ele>93.9</ele>
        <time>2024-03-27T14:45:22Z</time>
      </trkpt>
      <trkpt lat="50.06928" lon="2.11623">
        <ele>93.8</ele>
        <time>2024-03-27T14:45:23Z</time>
      </trkpt>
      <trkpt lat="50.06929" lon="2.11624">
        <ele>93.8</ele>
        <time>2024-03-27T14:45:24Z</time>
      </trkpt>
      <trkpt lat="50.06929" lon="2.11625">
        <ele>93.8</ele>
        <time>2024-03-27T14:45:25Z</time>
      </trkpt>
      <trkpt lat="50.06929" lon="2.11628">
        <ele>93.7</ele>
        <time>2024-03-27T14:45:26Z</time>
      </trkpt>
      <trkpt lat="50.06929" lon="2.11629">
        <ele>93.7</ele>
        <time>2024-03-27T14:45:27Z</time>
      </trkpt>
      <trkpt lat="50.0693" lon="2.11631">
        <ele>93.6</ele>
        <time>2024-03-27T14:45:28Z</time>
      </trkpt>
      <trkpt lat="50.0693" lon="2.11633">
        <ele>93.6</ele>
        <time>2024-03-27T14:45:29Z</time>
      </trkpt>
      <trkpt lat="50.0693" lon="2.11635">
        <ele>93.5</ele>
        <time>2024-03-27T14:45:30Z</time>
      </trkpt>
      <trkpt lat="50.0693" lon="2.11636">
        <ele>93.5</ele>
        <time>2024-03-27T14:45:31Z</time>
      </trkpt>
      <trkpt lat="50.0693" lon="2.11638">
        <ele>93.4</ele>
        <time>2024-03-27T14:45:32Z</time>
      </trkpt>
      <trkpt lat="50.06931" lon="2.1164">
        <ele>93.4</ele>
        <time>2024-03-27T14:45:33Z</time>
      </trkpt>
      <trkpt lat="50.06931" lon="2.11641">
        <ele>93.4</ele>
        <time>2024-03-27T14:45:34Z</time>
      </trkpt>
      <trkpt lat="50.06931" lon="2.11643">
        <ele>93.3</ele>
        <time>2024-03-27T14:45:35Z</time>
      </trkpt>
      <trkpt lat="50.06932" lon="2.11645">
        <ele>93.3</ele>
        <time>2024-03-27T14:45:36Z</time>
      </trkpt>
      <trkpt lat="50.06932" lon="2.11646">
        <ele>93.2</ele>
        <time>2024-03-27T14:45:37Z</time>
      </trkpt>
      <trkpt lat="50.06932" lon="2.11648">
        <ele>93.2</ele>
        <time>2024-03-27T14:45:38Z</time>
      </trkpt>
      <trkpt lat="50.06933" lon="2.1165">
        <ele>93.2</ele>
        <time>2024-03-27T14:45:39Z</time>
      </trkpt>
      <trkpt lat="50.06933" lon="2.11652">
        <ele>93.1</ele>
        <time>2024-03-27T14:45:40Z</time>
      </trkpt>
      <trkpt lat="50.06933" lon="2.11655">
        <ele>93</ele>
        <time>2024-03-27T14:45:41Z</time>
      </trkpt>
      <trkpt lat="50.06934" lon="2.11657">
        <ele>93</ele>
        <time>2024-03-27T14:45:42Z</time>
      </trkpt>
      <trkpt lat="50.06935" lon="2.11659">
        <ele>92.9</ele>
        <time>2024-03-27T14:45:43Z</time>
      </trkpt>
      <trkpt lat="50.06935" lon="2.1166">
        <ele>92.9</ele>
        <time>2024-03-27T14:45:44Z</time>
      </trkpt>
      <trkpt lat="50.06935" lon="2.11662">
        <ele>92.8</ele>
        <time>2024-03-27T14:45:45Z</time>
      </trkpt>
      <trkpt lat="50.06935" lon="2.11664">
        <ele>92.8</ele>
        <time>2024-03-27T14:45:46Z</time>
      </trkpt>
      <trkpt lat="50.06935" lon="2.11667">
        <ele>92.7</ele>
        <time>2024-03-27T14:45:47Z</time>
      </trkpt>
      <trkpt lat="50.06935" lon="2.11669">
        <ele>92.7</ele>
        <time>2024-03-27T14:45:48Z</time>
      </trkpt>
      <trkpt lat="50.06936" lon="2.11673">
        <ele>92.6</ele>
        <time>2024-03-27T14:45:49Z</time>
      </trkpt>
      <trkpt lat="50.06936" lon="2.11674">
        <ele>92.5</ele>
        <time>2024-03-27T14:45:50Z</time>
      </trkpt>
      <trkpt lat="50.06936" lon="2.11675">
        <ele>92.5</ele>
        <time>2024-03-27T14:45:51Z</time>
      </trkpt>
      <trkpt lat="50.06936" lon="2.11677">
        <ele>92.4</ele>
        <time>2024-03-27T14:45:52Z</time>
      </trkpt>
      <trkpt lat="50.06936" lon="2.11679">
        <ele>92.4</ele>
        <time>2024-03-27T14:45:53Z</time>
      </trkpt>
      <trkpt lat="50.06936" lon="2.11681">
        <ele>92.4</ele>
        <time>2024-03-27T14:45:54Z</time>
      </trkpt>
      <trkpt lat="50.06936" lon="2.11683">
        <ele>92.3</ele>
        <time>2024-03-27T14:45:55Z</time>
      </trkpt>
      <trkpt lat="50.06936" lon="2.11684">
        <ele>92.3</ele>
        <time>2024-03-27T14:45:56Z</time>
      </trkpt>
      <trkpt lat="50.06936" lon="2.11685">
        <ele>92.2</ele>
        <time>2024-03-27T14:45:57Z</time>
      </trkpt>
      <trkpt lat="50.06936" lon="2.11686">
        <ele>92.2</ele>
        <time>2024-03-27T14:45:58Z</time>
      </trkpt>
      <trkpt lat="50.06936" lon="2.11687">
        <ele>92.2</ele>
        <time>2024-03-27T14:45:59Z</time>
      </trkpt>
      <trkpt lat="50.06936" lon="2.11689">
        <ele>92.2</ele>
        <time>2024-03-27T14:46:00Z</time>
      </trkpt>
      <trkpt lat="50.06936" lon="2.1169">
        <ele>92.1</ele>
        <time>2024-03-27T14:46:01Z</time>
      </trkpt>
      <trkpt lat="50.06937" lon="2.11692">
        <ele>92.1</ele>
        <time>2024-03-27T14:46:02Z</time>
      </trkpt>
      <trkpt lat="50.06937" lon="2.11693">
        <ele>92</ele>
        <time>2024-03-27T14:46:03Z</time>
      </trkpt>
      <trkpt lat="50.06938" lon="2.11694">
        <ele>92</ele>
        <time>2024-03-27T14:46:04Z</time>
      </trkpt>
      <trkpt lat="50.06938" lon="2.11696">
        <ele>92</ele>
        <time>2024-03-27T14:46:05Z</time>
      </trkpt>
      <trkpt lat="50.06938" lon="2.11697">
        <ele>91.9</ele>
        <time>2024-03-27T14:46:06Z</time>
      </trkpt>
      <trkpt lat="50.06938" lon="2.117">
        <ele>91.9</ele>
        <time>2024-03-27T14:46:07Z</time>
      </trkpt>
      <trkpt lat="50.06938" lon="2.11702">
        <ele>91.8</ele>
        <time>2024-03-27T14:46:08Z</time>
      </trkpt>
      <trkpt lat="50.06939" lon="2.11704">
        <ele>91.7</ele>
        <time>2024-03-27T14:46:09Z</time>
      </trkpt>
      <trkpt lat="50.06938" lon="2.11706">
        <ele>91.7</ele>
        <time>2024-03-27T14:46:10Z</time>
      </trkpt>
      <trkpt lat="50.06938" lon="2.11707">
        <ele>91.6</ele>
        <time>2024-03-27T14:46:11Z</time>
      </trkpt>
      <trkpt lat="50.06938" lon="2.1171">
        <ele>91.6</ele>
        <time>2024-03-27T14:46:12Z</time>
      </trkpt>
      <trkpt lat="50.06939" lon="2.11713">
        <ele>91.5</ele>
        <time>2024-03-27T14:46:13Z</time>
      </trkpt>
      <trkpt lat="50.06939" lon="2.11715">
        <ele>91.4</ele>
        <time>2024-03-27T14:46:14Z</time>
      </trkpt>
      <trkpt lat="50.06939" lon="2.11717">
        <ele>91.4</ele>
        <time>2024-03-27T14:46:15Z</time>
      </trkpt>
      <trkpt lat="50.06939" lon="2.11719">
        <ele>91.3</ele>
        <time>2024-03-27T14:46:16Z</time>
      </trkpt>
      <trkpt lat="50.06939" lon="2.1172">
        <ele>91.3</ele>
        <time>2024-03-27T14:46:17Z</time>
      </trkpt>
      <trkpt lat="50.06939" lon="2.11722">
        <ele>91.2</ele>
        <time>2024-03-27T14:46:18Z</time>
      </trkpt>
      <trkpt lat="50.06939" lon="2.11723">
        <ele>91.2</ele>
        <time>2024-03-27T14:46:19Z</time>
      </trkpt>
      <trkpt lat="50.06939" lon="2.11724">
        <ele>91.2</ele>
        <time>2024-03-27T14:46:20Z</time>
      </trkpt>
      <trkpt lat="50.06939" lon="2.11726">
        <ele>91.1</ele>
        <time>2024-03-27T14:46:21Z</time>
      </trkpt>
      <trkpt lat="50.06939" lon="2.11727">
        <ele>91.1</ele>
        <time>2024-03-27T14:46:22Z</time>
      </trkpt>
      <trkpt lat="50.0694" lon="2.11729">
        <ele>91</ele>
        <time>2024-03-27T14:46:23Z</time>
      </trkpt>
      <trkpt lat="50.0694" lon="2.11731">
        <ele>91</ele>
        <time>2024-03-27T14:46:24Z</time>
      </trkpt>
      <trkpt lat="50.0694" lon="2.11732">
        <ele>90.9</ele>
        <time>2024-03-27T14:46:25Z</time>
      </trkpt>
      <trkpt lat="50.0694" lon="2.11734">
        <ele>90.9</ele>
        <time>2024-03-27T14:46:26Z</time>
      </trkpt>
      <trkpt lat="50.0694" lon="2.11735">
        <ele>90.8</ele>
        <time>2024-03-27T14:46:27Z</time>
      </trkpt>
      <trkpt lat="50.06941" lon="2.11737">
        <ele>90.8</ele>
        <time>2024-03-27T14:46:28Z</time>
      </trkpt>
      <trkpt lat="50.06941" lon="2.11739">
        <ele>90.8</ele>
        <time>2024-03-27T14:46:29Z</time>
      </trkpt>
      <trkpt lat="50.06941" lon="2.1174">
        <ele>90.7</ele>
        <time>2024-03-27T14:46:30Z</time>
      </trkpt>
      <trkpt lat="50.06941" lon="2.11742">
        <ele>90.7</ele>
        <time>2024-03-27T14:46:31Z</time>
      </trkpt>
      <trkpt lat="50.06941" lon="2.11743">
        <ele>90.6</ele>
        <time>2024-03-27T14:46:32Z</time>
      </trkpt>
      <trkpt lat="50.06941" lon="2.11745">
        <ele>90.6</ele>
        <time>2024-03-27T14:46:33Z</time>
      </trkpt>
      <trkpt lat="50.06941" lon="2.11747">
        <ele>90.5</ele>
        <time>2024-03-27T14:46:34Z</time>
      </trkpt>
      <trkpt lat="50.06941" lon="2.11748">
        <ele>90.5</ele>
        <time>2024-03-27T14:46:35Z</time>
      </trkpt>
      <trkpt lat="50.06942" lon="2.1175">
        <ele>90.4</ele>
        <time>2024-03-27T14:46:36Z</time>
      </trkpt>
      <trkpt lat="50.06942" lon="2.11752">
        <ele>90.4</ele>
        <time>2024-03-27T14:46:37Z</time>
      </trkpt>
      <trkpt lat="50.06942" lon="2.11753">
        <ele>90.3</ele>
        <time>2024-03-27T14:46:38Z</time>
      </trkpt>
      <trkpt lat="50.06942" lon="2.11755">
        <ele>90.3</ele>
        <time>2024-03-27T14:46:39Z</time>
      </trkpt>
      <trkpt lat="50.06942" lon="2.11756">
        <ele>90.2</ele>
        <time>2024-03-27T14:46:40Z</time>
      </trkpt>
      <trkpt lat="50.06942" lon="2.11758">
        <ele>90.2</ele>
        <time>2024-03-27T14:46:41Z</time>
      </trkpt>
      <trkpt lat="50.06942" lon="2.1176">
        <ele>90.1</ele>
        <time>2024-03-27T14:46:42Z</time>
      </trkpt>
      <trkpt lat="50.06942" lon="2.11761">
        <ele>90.1</ele>
        <time>2024-03-27T14:46:43Z</time>
      </trkpt>
      <trkpt lat="50.06942" lon="2.11763">
        <ele>90</ele>
        <time>2024-03-27T14:46:44Z</time>
      </trkpt>
      <trkpt lat="50.06942" lon="2.11764">
        <ele>90</ele>
        <time>2024-03-27T14:46:45Z</time>
      </trkpt>
      <trkpt lat="50.06942" lon="2.11766">
        <ele>89.9</ele>
        <time>2024-03-27T14:46:46Z</time>
      </trkpt>
      <trkpt lat="50.06942" lon="2.11768">
        <ele>89.9</ele>
        <time>2024-03-27T14:46:47Z</time>
      </trkpt>
      <trkpt lat="50.06942" lon="2.11769">
        <ele>89.8</ele>
        <time>2024-03-27T14:46:48Z</time>
      </trkpt>
      <trkpt lat="50.06942" lon="2.11771">
        <ele>89.8</ele>
        <time>2024-03-27T14:46:49Z</time>
      </trkpt>
      <trkpt lat="50.06942" lon="2.11773">
        <ele>89.7</ele>
        <time>2024-03-27T14:46:50Z</time>
      </trkpt>
      <trkpt lat="50.06942" lon="2.11775">
        <ele>89.7</ele>
        <time>2024-03-27T14:46:51Z</time>
      </trkpt>
      <trkpt lat="50.06942" lon="2.11777">
        <ele>89.6</ele>
        <time>2024-03-27T14:46:52Z</time>
      </trkpt>
      <trkpt lat="50.06942" lon="2.11778">
        <ele>89.6</ele>
        <time>2024-03-27T14:46:53Z</time>
      </trkpt>
      <trkpt lat="50.06943" lon="2.1178">
        <ele>89.5</ele>
        <time>2024-03-27T14:46:54Z</time>
      </trkpt>
      <trkpt lat="50.06942" lon="2.11782">
        <ele>89.5</ele>
        <time>2024-03-27T14:46:55Z</time>
      </trkpt>
      <trkpt lat="50.06942" lon="2.11783">
        <ele>89.4</ele>
        <time>2024-03-27T14:46:56Z</time>
      </trkpt>
      <trkpt lat="50.06942" lon="2.11785">
        <ele>89.4</ele>
        <time>2024-03-27T14:46:57Z</time>
      </trkpt>
      <trkpt lat="50.06942" lon="2.11787">
        <ele>89.3</ele>
        <time>2024-03-27T14:46:58Z</time>
      </trkpt>
      <trkpt lat="50.06942" lon="2.11789">
        <ele>89.3</ele>
        <time>2024-03-27T14:46:59Z</time>
      </trkpt>
      <trkpt lat="50.06942" lon="2.1179">
        <ele>89.2</ele>
        <time>2024-03-27T14:47:00Z</time>
      </trkpt>
      <trkpt lat="50.06942" lon="2.11792">
        <ele>89.2</ele>
        <time>2024-03-27T14:47:01Z</time>
      </trkpt>
      <trkpt lat="50.06942" lon="2.11794">
        <ele>89.1</ele>
        <time>2024-03-27T14:47:02Z</time>
      </trkpt>
      <trkpt lat="50.06942" lon="2.11796">
        <ele>89.1</ele>
        <time>2024-03-27T14:47:03Z</time>
      </trkpt>
      <trkpt lat="50.06942" lon="2.11797">
        <ele>89</ele>
        <time>2024-03-27T14:47:04Z</time>
      </trkpt>
      <trkpt lat="50.06942" lon="2.11799">
        <ele>89</ele>
        <time>2024-03-27T14:47:05Z</time>
      </trkpt>
      <trkpt lat="50.06941" lon="2.11801">
        <ele>88.9</ele>
        <time>2024-03-27T14:47:06Z</time>
      </trkpt>
      <trkpt lat="50.06941" lon="2.11802">
        <ele>88.9</ele>
        <time>2024-03-27T14:47:07Z</time>
      </trkpt>
      <trkpt lat="50.06941" lon="2.11804">
        <ele>88.8</ele>
        <time>2024-03-27T14:47:08Z</time>
      </trkpt>
      <trkpt lat="50.06941" lon="2.11806">
        <ele>88.8</ele>
        <time>2024-03-27T14:47:09Z</time>
      </trkpt>
      <trkpt lat="50.06941" lon="2.11808">
        <ele>88.7</ele>
        <time>2024-03-27T14:47:10Z</time>
      </trkpt>
      <trkpt lat="50.06941" lon="2.1181">
        <ele>88.7</ele>
        <time>2024-03-27T14:47:11Z</time>
      </trkpt>
      <trkpt lat="50.0694" lon="2.11811">
        <ele>88.6</ele>
        <time>2024-03-27T14:47:12Z</time>
      </trkpt>
      <trkpt lat="50.0694" lon="2.11813">
        <ele>88.6</ele>
        <time>2024-03-27T14:47:13Z</time>
      </trkpt>
      <trkpt lat="50.0694" lon="2.11815">
        <ele>88.5</ele>
        <time>2024-03-27T14:47:14Z</time>
      </trkpt>
      <trkpt lat="50.0694" lon="2.11816">
        <ele>88.5</ele>
        <time>2024-03-27T14:47:15Z</time>
      </trkpt>
      <trkpt lat="50.0694" lon="2.11818">
        <ele>88.4</ele>
        <time>2024-03-27T14:47:16Z</time>
      </trkpt>
      <trkpt lat="50.0694" lon="2.11819">
        <ele>88.4</ele>
        <time>2024-03-27T14:47:17Z</time>
      </trkpt>
      <trkpt lat="50.0694" lon="2.1182">
        <ele>88.3</ele>
        <time>2024-03-27T14:47:18Z</time>
      </trkpt>
      <trkpt lat="50.06939" lon="2.11822">
        <ele>88.3</ele>
        <time>2024-03-27T14:47:19Z</time>
      </trkpt>
      <trkpt lat="50.06939" lon="2.11824">
        <ele>88.2</ele>
        <time>2024-03-27T14:47:20Z</time>
      </trkpt>
      <trkpt lat="50.06939" lon="2.11826">
        <ele>88.2</ele>
        <time>2024-03-27T14:47:21Z</time>
      </trkpt>
      <trkpt lat="50.0694" lon="2.11829">
        <ele>88.1</ele>
        <time>2024-03-27T14:47:22Z</time>
      </trkpt>
      <trkpt lat="50.0694" lon="2.1183">
        <ele>88</ele>
        <time>2024-03-27T14:47:23Z</time>
      </trkpt>
      <trkpt lat="50.0694" lon="2.11832">
        <ele>88</ele>
        <time>2024-03-27T14:47:24Z</time>
      </trkpt>
      <trkpt lat="50.0694" lon="2.11834">
        <ele>87.9</ele>
        <time>2024-03-27T14:47:25Z</time>
      </trkpt>
      <trkpt lat="50.0694" lon="2.11835">
        <ele>87.9</ele>
        <time>2024-03-27T14:47:26Z</time>
      </trkpt>
      <trkpt lat="50.0694" lon="2.11837">
        <ele>87.8</ele>
        <time>2024-03-27T14:47:27Z</time>
      </trkpt>
      <trkpt lat="50.0694" lon="2.11839">
        <ele>87.8</ele>
        <time>2024-03-27T14:47:28Z</time>
      </trkpt>
      <trkpt lat="50.0694" lon="2.11841">
        <ele>87.7</ele>
        <time>2024-03-27T14:47:29Z</time>
      </trkpt>
      <trkpt lat="50.0694" lon="2.11842">
        <ele>87.7</ele>
        <time>2024-03-27T14:47:30Z</time>
      </trkpt>
      <trkpt lat="50.0694" lon="2.11844">
        <ele>87.6</ele>
        <time>2024-03-27T14:47:31Z</time>
      </trkpt>
      <trkpt lat="50.0694" lon="2.11845">
        <ele>87.6</ele>
        <time>2024-03-27T14:47:32Z</time>
      </trkpt>
      <trkpt lat="50.0694" lon="2.11847">
        <ele>87.6</ele>
        <time>2024-03-27T14:47:33Z</time>
      </trkpt>
      <trkpt lat="50.0694" lon="2.11848">
        <ele>87.5</ele>
        <time>2024-03-27T14:47:34Z</time>
      </trkpt>
      <trkpt lat="50.0694" lon="2.1185">
        <ele>87.5</ele>
        <time>2024-03-27T14:47:35Z</time>
      </trkpt>
      <trkpt lat="50.0694" lon="2.11852">
        <ele>87.4</ele>
        <time>2024-03-27T14:47:36Z</time>
      </trkpt>
      <trkpt lat="50.0694" lon="2.11854">
        <ele>87.4</ele>
        <time>2024-03-27T14:47:37Z</time>
      </trkpt>
      <trkpt lat="50.06939" lon="2.11855">
        <ele>87.3</ele>
        <time>2024-03-27T14:47:38Z</time>
      </trkpt>
      <trkpt lat="50.06939" lon="2.11857">
        <ele>87.3</ele>
        <time>2024-03-27T14:47:39Z</time>
      </trkpt>
      <trkpt lat="50.06939" lon="2.11859">
        <ele>87.2</ele>
        <time>2024-03-27T14:47:40Z</time>
      </trkpt>
      <trkpt lat="50.06939" lon="2.1186">
        <ele>87.2</ele>
        <time>2024-03-27T14:47:41Z</time>
      </trkpt>
      <trkpt lat="50.06939" lon="2.11862">
        <ele>87.2</ele>
        <time>2024-03-27T14:47:42Z</time>
      </trkpt>
      <trkpt lat="50.06938" lon="2.11864">
        <ele>87.1</ele>
        <time>2024-03-27T14:47:43Z</time>
      </trkpt>
      <trkpt lat="50.06938" lon="2.11865">
        <ele>87.1</ele>
        <time>2024-03-27T14:47:44Z</time>
      </trkpt>
      <trkpt lat="50.06938" lon="2.11867">
        <ele>87</ele>
        <time>2024-03-27T14:47:45Z</time>
      </trkpt>
      <trkpt lat="50.06938" lon="2.11869">
        <ele>87</ele>
        <time>2024-03-27T14:47:46Z</time>
      </trkpt>
      <trkpt lat="50.06938" lon="2.11871">
        <ele>87</ele>
        <time>2024-03-27T14:47:47Z</time>
      </trkpt>
      <trkpt lat="50.06938" lon="2.11873">
        <ele>86.9</ele>
        <time>2024-03-27T14:47:48Z</time>
      </trkpt>
      <trkpt lat="50.06938" lon="2.11874">
        <ele>86.9</ele>
        <time>2024-03-27T14:47:49Z</time>
      </trkpt>
      <trkpt lat="50.06938" lon="2.11876">
        <ele>86.9</ele>
        <time>2024-03-27T14:47:50Z</time>
      </trkpt>
      <trkpt lat="50.06938" lon="2.11878">
        <ele>86.8</ele>
        <time>2024-03-27T14:47:51Z</time>
      </trkpt>
      <trkpt lat="50.06938" lon="2.11879">
        <ele>86.8</ele>
        <time>2024-03-27T14:47:52Z</time>
      </trkpt>
      <trkpt lat="50.06938" lon="2.11881">
        <ele>86.8</ele>
        <time>2024-03-27T14:47:53Z</time>
      </trkpt>
      <trkpt lat="50.06938" lon="2.11882">
        <ele>86.7</ele>
        <time>2024-03-27T14:47:54Z</time>
      </trkpt>
      <trkpt lat="50.06938" lon="2.11884">
        <ele>86.7</ele>
        <time>2024-03-27T14:47:55Z</time>
      </trkpt>
      <trkpt lat="50.06938" lon="2.11885">
        <ele>86.7</ele>
        <time>2024-03-27T14:47:56Z</time>
      </trkpt>
      <trkpt lat="50.06938" lon="2.11886">
        <ele>86.7</ele>
        <time>2024-03-27T14:47:57Z</time>
      </trkpt>
      <trkpt lat="50.06937" lon="2.11888">
        <ele>86.6</ele>
        <time>2024-03-27T14:47:58Z</time>
      </trkpt>
      <trkpt lat="50.06937" lon="2.11889">
        <ele>86.6</ele>
        <time>2024-03-27T14:47:59Z</time>
      </trkpt>
      <trkpt lat="50.06937" lon="2.1189">
        <ele>86.6</ele>
        <time>2024-03-27T14:48:00Z</time>
      </trkpt>
      <trkpt lat="50.06937" lon="2.11892">
        <ele>86.6</ele>
        <time>2024-03-27T14:48:01Z</time>
      </trkpt>
      <trkpt lat="50.06937" lon="2.11893">
        <ele>86.5</ele>
        <time>2024-03-27T14:48:02Z</time>
      </trkpt>
      <trkpt lat="50.06937" lon="2.11895">
        <ele>86.5</ele>
        <time>2024-03-27T14:48:03Z</time>
      </trkpt>
      <trkpt lat="50.06937" lon="2.11896">
        <ele>86.5</ele>
        <time>2024-03-27T14:48:04Z</time>
      </trkpt>
      <trkpt lat="50.06937" lon="2.11897">
        <ele>86.5</ele>
        <time>2024-03-27T14:48:05Z</time>
      </trkpt>
      <trkpt lat="50.06937" lon="2.11899">
        <ele>86.4</ele>
        <time>2024-03-27T14:48:06Z</time>
      </trkpt>
      <trkpt lat="50.06937" lon="2.119">
        <ele>86.4</ele>
        <time>2024-03-27T14:48:07Z</time>
      </trkpt>
      <trkpt lat="50.06937" lon="2.11902">
        <ele>86.4</ele>
        <time>2024-03-27T14:48:08Z</time>
      </trkpt>
      <trkpt lat="50.06937" lon="2.11903">
        <ele>86.4</ele>
        <time>2024-03-27T14:48:09Z</time>
      </trkpt>
      <trkpt lat="50.06937" lon="2.11905">
        <ele>86.4</ele>
        <time>2024-03-27T14:48:10Z</time>
      </trkpt>
      <trkpt lat="50.06937" lon="2.11906">
        <ele>86.4</ele>
        <time>2024-03-27T14:48:11Z</time>
      </trkpt>
      <trkpt lat="50.06937" lon="2.11908">
        <ele>86.3</ele>
        <time>2024-03-27T14:48:12Z</time>
      </trkpt>
      <trkpt lat="50.06937" lon="2.1191">
        <ele>86.3</ele>
        <time>2024-03-27T14:48:13Z</time>
      </trkpt>
      <trkpt lat="50.06937" lon="2.11911">
        <ele>86.3</ele>
        <time>2024-03-27T14:48:14Z</time>
      </trkpt>
      <trkpt lat="50.06937" lon="2.11912">
        <ele>86.3</ele>
        <time>2024-03-27T14:48:15Z</time>
      </trkpt>
      <trkpt lat="50.06937" lon="2.11914">
        <ele>86.3</ele>
        <time>2024-03-27T14:48:16Z</time>
      </trkpt>
      <trkpt lat="50.06937" lon="2.11915">
        <ele>86.3</ele>
        <time>2024-03-27T14:48:17Z</time>
      </trkpt>
      <trkpt lat="50.06937" lon="2.11917">
        <ele>86.2</ele>
        <time>2024-03-27T14:48:18Z</time>
      </trkpt>
      <trkpt lat="50.06938" lon="2.11918">
        <ele>86.2</ele>
        <time>2024-03-27T14:48:19Z</time>
      </trkpt>
      <trkpt lat="50.06938" lon="2.1192">
        <ele>86.2</ele>
        <time>2024-03-27T14:48:20Z</time>
      </trkpt>
      <trkpt lat="50.06938" lon="2.11921">
        <ele>86.2</ele>
        <time>2024-03-27T14:48:21Z</time>
      </trkpt>
      <trkpt lat="50.06938" lon="2.11922">
        <ele>86.2</ele>
        <time>2024-03-27T14:48:22Z</time>
      </trkpt>
      <trkpt lat="50.06938" lon="2.11924">
        <ele>86.2</ele>
        <time>2024-03-27T14:48:23Z</time>
      </trkpt>
      <trkpt lat="50.06938" lon="2.11925">
        <ele>86.2</ele>
        <time>2024-03-27T14:48:24Z</time>
      </trkpt>
      <trkpt lat="50.06938" lon="2.11926">
        <ele>86.2</ele>
        <time>2024-03-27T14:48:25Z</time>
      </trkpt>
      <trkpt lat="50.06938" lon="2.11927">
        <ele>86.2</ele>
        <time>2024-03-27T14:48:26Z</time>
      </trkpt>
      <trkpt lat="50.06937" lon="2.11927">
        <ele>86.2</ele>
        <time>2024-03-27T14:48:27Z</time>
      </trkpt>
      <trkpt lat="50.06937" lon="2.11927">
        <ele>86.2</ele>
        <time>2024-03-27T14:48:28Z</time>
      </trkpt>
      <trkpt lat="50.06936" lon="2.11927">
        <ele>86.1</ele>
        <time>2024-03-27T14:48:29Z</time>
      </trkpt>
      <trkpt lat="50.06936" lon="2.11927">
        <ele>86.1</ele>
        <time>2024-03-27T14:48:30Z</time>
      </trkpt>
      <trkpt lat="50.06936" lon="2.11927">
        <ele>86.1</ele>
        <time>2024-03-27T14:48:31Z</time>
      </trkpt>
      <trkpt lat="50.06936" lon="2.11927">
        <ele>86.1</ele>
        <time>2024-03-27T14:48:32Z</time>
      </trkpt>
      <trkpt lat="50.06936" lon="2.11927">
        <ele>86.1</ele>
        <time>2024-03-27T14:48:33Z</time>
      </trkpt>
      <trkpt lat="50.06936" lon="2.11927">
        <ele>86.1</ele>
        <time>2024-03-27T14:48:34Z</time>
      </trkpt>
      <trkpt lat="50.06936" lon="2.11927">
        <ele>86.1</ele>
        <time>2024-03-27T14:48:35Z</time>
      </trkpt>
      <trkpt lat="50.06936" lon="2.11927">
        <ele>86.1</ele>
        <time>2024-03-27T14:48:36Z</time>
      </trkpt>
      <trkpt lat="50.06936" lon="2.11927">
        <ele>86.1</ele>
        <time>2024-03-27T14:48:37Z</time>
      </trkpt>
      <trkpt lat="50.06936" lon="2.11927">
        <ele>86.1</ele>
        <time>2024-03-27T14:48:38Z</time>
      </trkpt>
      <trkpt lat="50.06936" lon="2.11927">
        <ele>86.1</ele>
        <time>2024-03-27T14:48:39Z</time>
      </trkpt>
      <trkpt lat="50.06936" lon="2.11927">
        <ele>86.1</ele>
        <time>2024-03-27T14:48:40Z</time>
      </trkpt>
      <trkpt lat="50.06936" lon="2.11927">
        <ele>86.1</ele>
        <time>2024-03-27T14:48:41Z</time>
      </trkpt>
      <trkpt lat="50.06936" lon="2.11927">
        <ele>86.1</ele>
        <time>2024-03-27T14:48:42Z</time>
      </trkpt>
      <trkpt lat="50.06936" lon="2.11926">
        <ele>86.1</ele>
        <time>2024-03-27T14:48:43Z</time>
      </trkpt>
      <trkpt lat="50.06936" lon="2.11926">
        <ele>86.1</ele>
        <time>2024-03-27T14:48:44Z</time>
      </trkpt>
      <trkpt lat="50.06936" lon="2.11926">
        <ele>86.1</ele>
        <time>2024-03-27T14:48:45Z</time>
      </trkpt>
      <trkpt lat="50.06936" lon="2.11926">
        <ele>86.1</ele>
        <time>2024-03-27T14:48:46Z</time>
      </trkpt>
      <trkpt lat="50.06936" lon="2.11926">
        <ele>86.1</ele>
        <time>2024-03-27T14:48:47Z</time>
      </trkpt>
      <trkpt lat="50.06936" lon="2.11926">
        <ele>86.1</ele>
        <time>2024-03-27T14:48:48Z</time>
      </trkpt>
      <trkpt lat="50.06936" lon="2.11926">
        <ele>86.1</ele>
        <time>2024-03-27T14:48:49Z</time>
      </trkpt>
      <trkpt lat="50.06936" lon="2.11926">
        <ele>86.1</ele>
        <time>2024-03-27T14:48:50Z</time>
      </trkpt>
      <trkpt lat="50.06936" lon="2.11926">
        <ele>86.1</ele>
        <time>2024-03-27T14:48:51Z</time>
      </trkpt>
      <trkpt lat="50.06936" lon="2.11926">
        <ele>86.1</ele>
        <time>2024-03-27T14:48:52Z</time>
      </trkpt>
      <trkpt lat="50.06936" lon="2.11926">
        <ele>86.1</ele>
        <time>2024-03-27T14:48:53Z</time>
      </trkpt>
      <trkpt lat="50.06936" lon="2.11926">
        <ele>86.1</ele>
        <time>2024-03-27T14:48:54Z</time>
      </trkpt>
      <trkpt lat="50.06936" lon="2.11926">
        <ele>86.1</ele>
        <time>2024-03-27T14:48:55Z</time>
      </trkpt>
      <trkpt lat="50.06936" lon="2.11926">
        <ele>86.1</ele>
        <time>2024-03-27T14:48:56Z</time>
      </trkpt>
      <trkpt lat="50.06936" lon="2.11926">
        <ele>86.1</ele>
        <time>2024-03-27T14:48:57Z</time>
      </trkpt>
      <trkpt lat="50.06936" lon="2.11926">
        <ele>86.1</ele>
        <time>2024-03-27T14:48:58Z</time>
      </trkpt>
      <trkpt lat="50.06936" lon="2.11926">
        <ele>86.1</ele>
        <time>2024-03-27T14:48:59Z</time>
      </trkpt>
      <trkpt lat="50.06936" lon="2.11926">
        <ele>86.1</ele>
        <time>2024-03-27T14:49:00Z</time>
      </trkpt>
      <trkpt lat="50.06936" lon="2.11926">
        <ele>86.1</ele>
        <time>2024-03-27T14:49:01Z</time>
      </trkpt>
      <trkpt lat="50.06936" lon="2.11926">
        <ele>86.1</ele>
        <time>2024-03-27T14:49:02Z</time>
      </trkpt>
      <trkpt lat="50.06936" lon="2.11926">
        <ele>86.1</ele>
        <time>2024-03-27T14:49:03Z</time>
      </trkpt>
      <trkpt lat="50.06936" lon="2.11926">
        <ele>86.1</ele>
        <time>2024-03-27T14:49:04Z</time>
      </trkpt>
      <trkpt lat="50.06936" lon="2.11926">
        <ele>86.1</ele>
        <time>2024-03-27T14:49:05Z</time>
      </trkpt>
      <trkpt lat="50.06936" lon="2.11926">
        <ele>86.1</ele>
        <time>2024-03-27T14:49:06Z</time>
      </trkpt>
      <trkpt lat="50.06936" lon="2.11926">
        <ele>86.1</ele>
        <time>2024-03-27T14:49:07Z</time>
      </trkpt>
      <trkpt lat="50.06936" lon="2.11926">
        <ele>86.1</ele>
        <time>2024-03-27T14:49:08Z</time>
      </trkpt>
      <trkpt lat="50.06936" lon="2.11926">
        <ele>86.1</ele>
        <time>2024-03-27T14:49:09Z</time>
      </trkpt>
      <trkpt lat="50.06936" lon="2.11926">
        <ele>86.1</ele>
        <time>2024-03-27T14:49:10Z</time>
      </trkpt>
      <trkpt lat="50.06936" lon="2.11926">
        <ele>86.1</ele>
        <time>2024-03-27T14:49:11Z</time>
      </trkpt>
      <trkpt lat="50.06936" lon="2.11926">
        <ele>86.1</ele>
        <time>2024-03-27T14:49:12Z</time>
      </trkpt>
      <trkpt lat="50.06936" lon="2.11926">
        <ele>86.1</ele>
        <time>2024-03-27T14:49:13Z</time>
      </trkpt>
      <trkpt lat="50.06936" lon="2.11926">
        <ele>86.1</ele>
        <time>2024-03-27T14:49:14Z</time>
      </trkpt>
      <trkpt lat="50.06936" lon="2.11926">
        <ele>86.1</ele>
        <time>2024-03-27T14:49:15Z</time>
      </trkpt>
      <trkpt lat="50.06936" lon="2.11925">
        <ele>86.1</ele>
        <time>2024-03-27T14:49:16Z</time>
      </trkpt>
      <trkpt lat="50.06936" lon="2.11925">
        <ele>86.1</ele>
        <time>2024-03-27T14:49:17Z</time>
      </trkpt>
      <trkpt lat="50.06936" lon="2.11925">
        <ele>86.1</ele>
        <time>2024-03-27T14:49:18Z</time>
      </trkpt>
      <trkpt lat="50.06936" lon="2.11925">
        <ele>86.1</ele>
        <time>2024-03-27T14:49:19Z</time>
      </trkpt>
      <trkpt lat="50.06936" lon="2.11925">
        <ele>86.1</ele>
        <time>2024-03-27T14:49:20Z</time>
      </trkpt>
      <trkpt lat="50.06936" lon="2.11925">
        <ele>86.1</ele>
        <time>2024-03-27T14:49:21Z</time>
      </trkpt>
      <trkpt lat="50.06936" lon="2.11925">
        <ele>86.1</ele>
        <time>2024-03-27T14:49:22Z</time>
      </trkpt>
      <trkpt lat="50.06936" lon="2.11925">
        <ele>86.1</ele>
        <time>2024-03-27T14:49:23Z</time>
      </trkpt>
      <trkpt lat="50.06936" lon="2.11925">
        <ele>86.1</ele>
        <time>2024-03-27T14:49:24Z</time>
      </trkpt>
      <trkpt lat="50.06936" lon="2.11925">
        <ele>86.1</ele>
        <time>2024-03-27T14:49:25Z</time>
      </trkpt>
      <trkpt lat="50.06936" lon="2.11925">
        <ele>86.1</ele>
        <time>2024-03-27T14:49:26Z</time>
      </trkpt>
      <trkpt lat="50.06936" lon="2.11925">
        <ele>86.1</ele>
        <time>2024-03-27T14:49:27Z</time>
      </trkpt>
      <trkpt lat="50.06936" lon="2.11925">
        <ele>86.1</ele>
        <time>2024-03-27T14:49:28Z</time>
      </trkpt>
      <trkpt lat="50.06936" lon="2.11925">
        <ele>86.1</ele>
        <time>2024-03-27T14:49:29Z</time>
      </trkpt>
      <trkpt lat="50.06936" lon="2.11925">
        <ele>86.1</ele>
        <time>2024-03-27T14:49:30Z</time>
      </trkpt>
      <trkpt lat="50.06936" lon="2.11925">
        <ele>86.1</ele>
        <time>2024-03-27T14:49:31Z</time>
      </trkpt>
      <trkpt lat="50.06936" lon="2.11925">
        <ele>86.1</ele>
        <time>2024-03-27T14:49:32Z</time>
      </trkpt>
      <trkpt lat="50.06936" lon="2.11925">
        <ele>86.1</ele>
        <time>2024-03-27T14:49:33Z</time>
      </trkpt>
      <trkpt lat="50.06936" lon="2.11925">
        <ele>86.1</ele>
        <time>2024-03-27T14:49:34Z</time>
      </trkpt>
      <trkpt lat="50.06936" lon="2.11925">
        <ele>86.1</ele>
        <time>2024-03-27T14:49:35Z</time>
      </trkpt>
      <trkpt lat="50.06936" lon="2.11925">
        <ele>86.1</ele>
        <time>2024-03-27T14:49:36Z</time>
      </trkpt>
      <trkpt lat="50.06936" lon="2.11925">
        <ele>86.1</ele>
        <time>2024-03-27T14:49:37Z</time>
      </trkpt>
      <trkpt lat="50.06936" lon="2.11925">
        <ele>86.1</ele>
        <time>2024-03-27T14:49:38Z</time>
      </trkpt>
      <trkpt lat="50.06936" lon="2.11925">
        <ele>86.1</ele>
        <time>2024-03-27T14:49:39Z</time>
      </trkpt>
      <trkpt lat="50.06936" lon="2.11925">
        <ele>86.1</ele>
        <time>2024-03-27T14:49:40Z</time>
      </trkpt>
      <trkpt lat="50.06936" lon="2.11925">
        <ele>86.1</ele>
        <time>2024-03-27T14:49:41Z</time>
      </trkpt>
      <trkpt lat="50.06936" lon="2.11925">
        <ele>86.1</ele>
        <time>2024-03-27T14:49:42Z</time>
      </trkpt>
      <trkpt lat="50.06936" lon="2.11925">
        <ele>86.1</ele>
        <time>2024-03-27T14:49:43Z</time>
      </trkpt>
      <trkpt lat="50.06936" lon="2.11925">
        <ele>86.1</ele>
        <time>2024-03-27T14:49:44Z</time>
      </trkpt>
      <trkpt lat="50.06936" lon="2.11925">
        <ele>86.1</ele>
        <time>2024-03-27T14:49:45Z</time>
      </trkpt>
      <trkpt lat="50.06936" lon="2.11925">
        <ele>86.1</ele>
        <time>2024-03-27T14:49:46Z</time>
      </trkpt>
      <trkpt lat="50.06936" lon="2.11925">
        <ele>86.1</ele>
        <time>2024-03-27T14:49:47Z</time>
      </trkpt>
      <trkpt lat="50.06936" lon="2.11925">
        <ele>86.1</ele>
        <time>2024-03-27T14:49:48Z</time>
      </trkpt>
      <trkpt lat="50.06936" lon="2.11924">
        <ele>86.1</ele>
        <time>2024-03-27T14:49:49Z</time>
      </trkpt>
      <trkpt lat="50.06936" lon="2.11924">
        <ele>86.1</ele>
        <time>2024-03-27T14:49:50Z</time>
      </trkpt>
      <trkpt lat="50.06936" lon="2.11924">
        <ele>86.1</ele>
        <time>2024-03-27T14:49:51Z</time>
      </trkpt>
      <trkpt lat="50.06936" lon="2.11924">
        <ele>86.1</ele>
        <time>2024-03-27T14:49:52Z</time>
      </trkpt>
      <trkpt lat="50.06936" lon="2.11924">
        <ele>86.1</ele>
        <time>2024-03-27T14:49:53Z</time>
      </trkpt>
      <trkpt lat="50.06936" lon="2.11924">
        <ele>86.1</ele>
        <time>2024-03-27T14:49:54Z</time>
      </trkpt>
      <trkpt lat="50.06936" lon="2.11924">
        <ele>86.1</ele>
        <time>2024-03-27T14:49:55Z</time>
      </trkpt>
      <trkpt lat="50.06936" lon="2.11924">
        <ele>86.1</ele>
        <time>2024-03-27T14:49:56Z</time>
      </trkpt>
      <trkpt lat="50.06936" lon="2.11924">
        <ele>86.1</ele>
        <time>2024-03-27T14:49:57Z</time>
      </trkpt>
      <trkpt lat="50.06936" lon="2.11924">
        <ele>86.1</ele>
        <time>2024-03-27T14:49:58Z</time>
      </trkpt>
      <trkpt lat="50.06936" lon="2.11924">
        <ele>86.1</ele>
        <time>2024-03-27T14:49:59Z</time>
      </trkpt>
      <trkpt lat="50.06936" lon="2.11924">
        <ele>86.1</ele>
        <time>2024-03-27T14:50:00Z</time>
      </trkpt>
      <trkpt lat="50.06936" lon="2.11924">
        <ele>86.1</ele>
        <time>2024-03-27T14:50:01Z</time>
      </trkpt>
      <trkpt lat="50.06936" lon="2.11924">
        <ele>86.1</ele>
        <time>2024-03-27T14:50:02Z</time>
      </trkpt>
      <trkpt lat="50.06936" lon="2.11924">
        <ele>86.1</ele>
        <time>2024-03-27T14:50:03Z</time>
      </trkpt>
      <trkpt lat="50.06936" lon="2.11924">
        <ele>86.1</ele>
        <time>2024-03-27T14:50:04Z</time>
      </trkpt>
      <trkpt lat="50.06936" lon="2.11924">
        <ele>86.1</ele>
        <time>2024-03-27T14:50:05Z</time>
      </trkpt>
      <trkpt lat="50.06936" lon="2.11924">
        <ele>86.1</ele>
        <time>2024-03-27T14:50:06Z</time>
      </trkpt>
      <trkpt lat="50.06936" lon="2.11924">
        <ele>86.1</ele>
        <time>2024-03-27T14:50:07Z</time>
      </trkpt>
      <trkpt lat="50.06936" lon="2.11924">
        <ele>86.1</ele>
        <time>2024-03-27T14:50:08Z</time>
      </trkpt>
      <trkpt lat="50.06936" lon="2.11924">
        <ele>86.1</ele>
        <time>2024-03-27T14:50:09Z</time>
      </trkpt>
      <trkpt lat="50.06936" lon="2.11924">
        <ele>86.1</ele>
        <time>2024-03-27T14:50:10Z</time>
      </trkpt>
      <trkpt lat="50.06936" lon="2.11924">
        <ele>86.1</ele>
        <time>2024-03-27T14:50:11Z</time>
      </trkpt>
      <trkpt lat="50.06936" lon="2.11924">
        <ele>86.1</ele>
        <time>2024-03-27T14:50:12Z</time>
      </trkpt>
      <trkpt lat="50.06936" lon="2.11924">
        <ele>86.1</ele>
        <time>2024-03-27T14:50:13Z</time>
      </trkpt>
      <trkpt lat="50.06936" lon="2.11924">
        <ele>86.1</ele>
        <time>2024-03-27T14:50:14Z</time>
      </trkpt>
      <trkpt lat="50.06936" lon="2.11924">
        <ele>86.1</ele>
        <time>2024-03-27T14:50:15Z</time>
      </trkpt>
      <trkpt lat="50.06936" lon="2.11924">
        <ele>86.1</ele>
        <time>2024-03-27T14:50:16Z</time>
      </trkpt>
      <trkpt lat="50.06936" lon="2.11924">
        <ele>86.1</ele>
        <time>2024-03-27T14:50:17Z</time>
      </trkpt>
      <trkpt lat="50.06936" lon="2.11924">
        <ele>86.1</ele>
        <time>2024-03-27T14:50:18Z</time>
      </trkpt>
      <trkpt lat="50.06936" lon="2.11924">
        <ele>86.1</ele>
        <time>2024-03-27T14:50:19Z</time>
      </trkpt>
      <trkpt lat="50.06936" lon="2.11924">
        <ele>86.1</ele>
        <time>2024-03-27T14:50:20Z</time>
      </trkpt>
      <trkpt lat="50.06936" lon="2.11924">
        <ele>86.1</ele>
        <time>2024-03-27T14:50:21Z</time>
      </trkpt>
      <trkpt lat="50.06936" lon="2.11923">
        <ele>86.1</ele>
        <time>2024-03-27T14:50:22Z</time>
      </trkpt>
      <trkpt lat="50.06936" lon="2.11923">
        <ele>86.1</ele>
        <time>2024-03-27T14:50:23Z</time>
      </trkpt>
      <trkpt lat="50.06936" lon="2.11923">
        <ele>86.1</ele>
        <time>2024-03-27T14:50:24Z</time>
      </trkpt>
      <trkpt lat="50.06936" lon="2.11923">
        <ele>86.1</ele>
        <time>2024-03-27T14:50:25Z</time>
      </trkpt>
      <trkpt lat="50.06936" lon="2.11923">
        <ele>86.1</ele>
        <time>2024-03-27T14:50:26Z</time>
      </trkpt>
      <trkpt lat="50.06936" lon="2.11923">
        <ele>86.1</ele>
        <time>2024-03-27T14:50:27Z</time>
      </trkpt>
      <trkpt lat="50.06936" lon="2.11923">
        <ele>86.1</ele>
        <time>2024-03-27T14:50:28Z</time>
      </trkpt>
      <trkpt lat="50.06936" lon="2.11923">
        <ele>86.1</ele>
        <time>2024-03-27T14:50:29Z</time>
      </trkpt>
      <trkpt lat="50.06936" lon="2.11923">
        <ele>86.1</ele>
        <time>2024-03-27T14:50:30Z</time>
      </trkpt>
      <trkpt lat="50.06936" lon="2.11923">
        <ele>86.1</ele>
        <time>2024-03-27T14:50:31Z</time>
      </trkpt>
      <trkpt lat="50.06936" lon="2.11923">
        <ele>86.1</ele>
        <time>2024-03-27T14:50:32Z</time>
      </trkpt>
      <trkpt lat="50.06936" lon="2.11923">
        <ele>86.1</ele>
        <time>2024-03-27T14:50:33Z</time>
      </trkpt>
      <trkpt lat="50.06936" lon="2.11923">
        <ele>86.1</ele>
        <time>2024-03-27T14:50:34Z</time>
      </trkpt>
      <trkpt lat="50.06936" lon="2.11923">
        <ele>86.1</ele>
        <time>2024-03-27T14:50:35Z</time>
      </trkpt>
      <trkpt lat="50.06936" lon="2.11923">
        <ele>86.1</ele>
        <time>2024-03-27T14:50:36Z</time>
      </trkpt>
      <trkpt lat="50.06936" lon="2.11923">
        <ele>86.1</ele>
        <time>2024-03-27T14:50:37Z</time>
      </trkpt>
      <trkpt lat="50.06936" lon="2.11923">
        <ele>86.1</ele>
        <time>2024-03-27T14:50:38Z</time>
      </trkpt>
      <trkpt lat="50.06936" lon="2.11923">
        <ele>86.1</ele>
        <time>2024-03-27T14:50:39Z</time>
      </trkpt>
      <trkpt lat="50.06936" lon="2.11923">
        <ele>86.1</ele>
        <time>2024-03-27T14:50:40Z</time>
      </trkpt>
      <trkpt lat="50.06936" lon="2.11923">
        <ele>86.1</ele>
        <time>2024-03-27T14:50:41Z</time>
      </trkpt>
      <trkpt lat="50.06936" lon="2.11923">
        <ele>86.1</ele>
        <time>2024-03-27T14:50:42Z</time>
      </trkpt>
      <trkpt lat="50.06936" lon="2.11923">
        <ele>86.1</ele>
        <time>2024-03-27T14:50:43Z</time>
      </trkpt>
      <trkpt lat="50.06936" lon="2.11923">
        <ele>86.1</ele>
        <time>2024-03-27T14:50:44Z</time>
      </trkpt>
      <trkpt lat="50.06936" lon="2.11923">
        <ele>86.1</ele>
        <time>2024-03-27T14:50:45Z</time>
      </trkpt>
      <trkpt lat="50.06936" lon="2.11923">
        <ele>86.1</ele>
        <time>2024-03-27T14:50:46Z</time>
      </trkpt>
      <trkpt lat="50.06936" lon="2.11923">
        <ele>86.1</ele>
        <time>2024-03-27T14:50:47Z</time>
      </trkpt>
      <trkpt lat="50.06936" lon="2.11923">
        <ele>86.1</ele>
        <time>2024-03-27T14:50:48Z</time>
      </trkpt>
      <trkpt lat="50.06936" lon="2.11923">
        <ele>86.1</ele>
        <time>2024-03-27T14:50:49Z</time>
      </trkpt>
      <trkpt lat="50.06936" lon="2.11923">
        <ele>86.1</ele>
        <time>2024-03-27T14:50:50Z</time>
      </trkpt>
      <trkpt lat="50.06936" lon="2.11923">
        <ele>86.1</ele>
        <time>2024-03-27T14:50:51Z</time>
      </trkpt>
      <trkpt lat="50.06936" lon="2.11923">
        <ele>86.1</ele>
        <time>2024-03-27T14:50:52Z</time>
      </trkpt>
      <trkpt lat="50.06936" lon="2.11923">
        <ele>86.1</ele>
        <time>2024-03-27T14:50:53Z</time>
      </trkpt>
      <trkpt lat="50.06936" lon="2.11923">
        <ele>86.1</ele>
        <time>2024-03-27T14:50:54Z</time>
      </trkpt>
      <trkpt lat="50.06936" lon="2.11922">
        <ele>86.1</ele>
        <time>2024-03-27T14:50:55Z</time>
      </trkpt>
      <trkpt lat="50.06936" lon="2.11922">
        <ele>86.1</ele>
        <time>2024-03-27T14:50:56Z</time>
      </trkpt>
      <trkpt lat="50.06936" lon="2.11922">
        <ele>86.1</ele>
        <time>2024-03-27T14:50:57Z</time>
      </trkpt>
      <trkpt lat="50.06936" lon="2.11922">
        <ele>86.1</ele>
        <time>2024-03-27T14:50:58Z</time>
      </trkpt>
      <trkpt lat="50.06936" lon="2.11922">
        <ele>86.1</ele>
        <time>2024-03-27T14:50:59Z</time>
      </trkpt>
      <trkpt lat="50.06936" lon="2.11922">
        <ele>86.1</ele>
        <time>2024-03-27T14:51:00Z</time>
      </trkpt>
      <trkpt lat="50.06936" lon="2.11922">
        <ele>86.1</ele>
        <time>2024-03-27T14:51:01Z</time>
      </trkpt>
      <trkpt lat="50.06936" lon="2.11922">
        <ele>86.1</ele>
        <time>2024-03-27T14:51:02Z</time>
      </trkpt>
      <trkpt lat="50.06936" lon="2.11922">
        <ele>86.1</ele>
        <time>2024-03-27T14:51:03Z</time>
      </trkpt>
      <trkpt lat="50.06936" lon="2.11922">
        <ele>86.1</ele>
        <time>2024-03-27T14:51:04Z</time>
      </trkpt>
      <trkpt lat="50.06936" lon="2.11922">
        <ele>86.1</ele>
        <time>2024-03-27T14:51:05Z</time>
      </trkpt>
      <trkpt lat="50.06936" lon="2.11922">
        <ele>86.1</ele>
        <time>2024-03-27T14:51:06Z</time>
      </trkpt>
      <trkpt lat="50.06936" lon="2.11922">
        <ele>86.1</ele>
        <time>2024-03-27T14:51:07Z</time>
      </trkpt>
      <trkpt lat="50.06936" lon="2.11922">
        <ele>86.1</ele>
        <time>2024-03-27T14:51:08Z</time>
      </trkpt>
      <trkpt lat="50.06936" lon="2.11922">
        <ele>86.1</ele>
        <time>2024-03-27T14:51:09Z</time>
      </trkpt>
      <trkpt lat="50.06936" lon="2.11922">
        <ele>86.1</ele>
        <time>2024-03-27T14:51:10Z</time>
      </trkpt>
      <trkpt lat="50.06936" lon="2.11922">
        <ele>86.1</ele>
        <time>2024-03-27T14:51:11Z</time>
      </trkpt>
      <trkpt lat="50.06936" lon="2.11922">
        <ele>86.1</ele>
        <time>2024-03-27T14:51:12Z</time>
      </trkpt>
      <trkpt lat="50.06936" lon="2.11922">
        <ele>86.1</ele>
        <time>2024-03-27T14:51:13Z</time>
      </trkpt>
      <trkpt lat="50.06936" lon="2.11922">
        <ele>86.1</ele>
        <time>2024-03-27T14:51:14Z</time>
      </trkpt>
      <trkpt lat="50.06936" lon="2.11922">
        <ele>86.1</ele>
        <time>2024-03-27T14:51:15Z</time>
      </trkpt>
      <trkpt lat="50.06936" lon="2.11922">
        <ele>86.1</ele>
        <time>2024-03-27T14:51:16Z</time>
      </trkpt>
      <trkpt lat="50.06936" lon="2.11922">
        <ele>86.1</ele>
        <time>2024-03-27T14:51:17Z</time>
      </trkpt>
      <trkpt lat="50.06936" lon="2.11922">
        <ele>86.1</ele>
        <time>2024-03-27T14:51:18Z</time>
      </trkpt>
      <trkpt lat="50.06936" lon="2.11922">
        <ele>86.1</ele>
        <time>2024-03-27T14:51:19Z</time>
      </trkpt>
      <trkpt lat="50.06936" lon="2.11922">
        <ele>86.1</ele>
        <time>2024-03-27T14:51:20Z</time>
      </trkpt>
      <trkpt lat="50.06936" lon="2.11922">
        <ele>86.1</ele>
        <time>2024-03-27T14:51:21Z</time>
      </trkpt>
      <trkpt lat="50.06936" lon="2.11922">
        <ele>86.1</ele>
        <time>2024-03-27T14:51:22Z</time>
      </trkpt>
      <trkpt lat="50.06936" lon="2.11922">
        <ele>86.1</ele>
        <time>2024-03-27T14:51:23Z</time>
      </trkpt>
      <trkpt lat="50.06936" lon="2.11922">
        <ele>86.1</ele>
        <time>2024-03-27T14:51:24Z</time>
      </trkpt>
      <trkpt lat="50.06936" lon="2.11922">
        <ele>86.1</ele>
        <time>2024-03-27T14:51:25Z</time>
      </trkpt>
      <trkpt lat="50.06936" lon="2.11922">
        <ele>86.1</ele>
        <time>2024-03-27T14:51:26Z</time>
      </trkpt>
      <trkpt lat="50.06936" lon="2.11922">
        <ele>86.1</ele>
        <time>2024-03-27T14:51:27Z</time>
      </trkpt>
      <trkpt lat="50.06936" lon="2.11921">
        <ele>86.1</ele>
        <time>2024-03-27T14:51:28Z</time>
      </trkpt>
      <trkpt lat="50.06936" lon="2.11921">
        <ele>86.1</ele>
        <time>2024-03-27T14:51:29Z</time>
      </trkpt>
      <trkpt lat="50.06936" lon="2.11921">
        <ele>86.1</ele>
        <time>2024-03-27T14:51:30Z</time>
      </trkpt>
      <trkpt lat="50.06936" lon="2.11921">
        <ele>86.1</ele>
        <time>2024-03-27T14:51:31Z</time>
      </trkpt>
      <trkpt lat="50.06936" lon="2.11921">
        <ele>86.1</ele>
        <time>2024-03-27T14:51:32Z</time>
      </trkpt>
      <trkpt lat="50.06936" lon="2.11921">
        <ele>86.1</ele>
        <time>2024-03-27T14:51:33Z</time>
      </trkpt>
      <trkpt lat="50.06936" lon="2.11921">
        <ele>86.1</ele>
        <time>2024-03-27T14:51:34Z</time>
      </trkpt>
      <trkpt lat="50.06936" lon="2.11921">
        <ele>86.1</ele>
        <time>2024-03-27T14:51:35Z</time>
      </trkpt>
      <trkpt lat="50.06936" lon="2.11921">
        <ele>86.1</ele>
        <time>2024-03-27T14:51:36Z</time>
      </trkpt>
      <trkpt lat="50.06936" lon="2.11921">
        <ele>86.1</ele>
        <time>2024-03-27T14:51:37Z</time>
      </trkpt>
      <trkpt lat="50.06936" lon="2.11921">
        <ele>86.1</ele>
        <time>2024-03-27T14:51:38Z</time>
      </trkpt>
      <trkpt lat="50.06936" lon="2.11921">
        <ele>86.1</ele>
        <time>2024-03-27T14:51:39Z</time>
      </trkpt>
      <trkpt lat="50.06936" lon="2.11921">
        <ele>86.1</ele>
        <time>2024-03-27T14:51:40Z</time>
      </trkpt>
      <trkpt lat="50.06936" lon="2.11921">
        <ele>86.1</ele>
        <time>2024-03-27T14:51:41Z</time>
      </trkpt>
      <trkpt lat="50.06936" lon="2.11921">
        <ele>86.1</ele>
        <time>2024-03-27T14:51:42Z</time>
      </trkpt>
      <trkpt lat="50.06936" lon="2.11921">
        <ele>86.1</ele>
        <time>2024-03-27T14:51:43Z</time>
      </trkpt>
      <trkpt lat="50.06936" lon="2.11921">
        <ele>86.1</ele>
        <time>2024-03-27T14:51:44Z</time>
      </trkpt>
      <trkpt lat="50.06936" lon="2.11921">
        <ele>86.1</ele>
        <time>2024-03-27T14:51:45Z</time>
      </trkpt>
      <trkpt lat="50.06936" lon="2.11921">
        <ele>86.1</ele>
        <time>2024-03-27T14:51:46Z</time>
      </trkpt>
      <trkpt lat="50.06936" lon="2.11921">
        <ele>86.1</ele>
        <time>2024-03-27T14:51:47Z</time>
      </trkpt>
      <trkpt lat="50.06936" lon="2.11921">
        <ele>86.1</ele>
        <time>2024-03-27T14:51:48Z</time>
      </trkpt>
      <trkpt lat="50.06936" lon="2.11921">
        <ele>86.1</ele>
        <time>2024-03-27T14:51:49Z</time>
      </trkpt>
      <trkpt lat="50.06936" lon="2.11921">
        <ele>86.1</ele>
        <time>2024-03-27T14:51:50Z</time>
      </trkpt>
      <trkpt lat="50.06936" lon="2.11921">
        <ele>86.1</ele>
        <time>2024-03-27T14:51:51Z</time>
      </trkpt>
      <trkpt lat="50.06936" lon="2.11921">
        <ele>86.1</ele>
        <time>2024-03-27T14:51:52Z</time>
      </trkpt>
      <trkpt lat="50.06936" lon="2.11921">
        <ele>86.1</ele>
        <time>2024-03-27T14:51:53Z</time>
      </trkpt>
      <trkpt lat="50.06936" lon="2.11921">
        <ele>86.1</ele>
        <time>2024-03-27T14:51:54Z</time>
      </trkpt>
      <trkpt lat="50.06936" lon="2.11921">
        <ele>86.1</ele>
        <time>2024-03-27T14:51:55Z</time>
      </trkpt>
      <trkpt lat="50.06935" lon="2.11921">
        <ele>86.1</ele>
        <time>2024-03-27T14:51:56Z</time>
      </trkpt>
      <trkpt lat="50.06935" lon="2.11921">
        <ele>86.1</ele>
        <time>2024-03-27T14:51:57Z</time>
      </trkpt>
      <trkpt lat="50.06935" lon="2.11921">
        <ele>86.1</ele>
        <time>2024-03-27T14:51:58Z</time>
      </trkpt>
      <trkpt lat="50.06935" lon="2.11921">
        <ele>86.1</ele>
        <time>2024-03-27T14:51:59Z</time>
      </trkpt>
      <trkpt lat="50.06935" lon="2.11921">
        <ele>86.1</ele>
        <time>2024-03-27T14:52:00Z</time>
      </trkpt>
      <trkpt lat="50.06935" lon="2.1192">
        <ele>86.1</ele>
        <time>2024-03-27T14:52:01Z</time>
      </trkpt>
      <trkpt lat="50.06935" lon="2.1192">
        <ele>86.1</ele>
        <time>2024-03-27T14:52:02Z</time>
      </trkpt>
      <trkpt lat="50.06935" lon="2.1192">
        <ele>86.1</ele>
        <time>2024-03-27T14:52:03Z</time>
      </trkpt>
      <trkpt lat="50.06935" lon="2.1192">
        <ele>86.1</ele>
        <time>2024-03-27T14:52:04Z</time>
      </trkpt>
      <trkpt lat="50.06935" lon="2.1192">
        <ele>86.1</ele>
        <time>2024-03-27T14:52:05Z</time>
      </trkpt>
      <trkpt lat="50.06935" lon="2.1192">
        <ele>86.1</ele>
        <time>2024-03-27T14:52:06Z</time>
      </trkpt>
      <trkpt lat="50.06935" lon="2.1192">
        <ele>86.1</ele>
        <time>2024-03-27T14:52:07Z</time>
      </trkpt>
      <trkpt lat="50.06935" lon="2.1192">
        <ele>86.1</ele>
        <time>2024-03-27T14:52:08Z</time>
      </trkpt>
      <trkpt lat="50.06935" lon="2.1192">
        <ele>86.1</ele>
        <time>2024-03-27T14:52:09Z</time>
      </trkpt>
      <trkpt lat="50.06935" lon="2.1192">
        <ele>86.1</ele>
        <time>2024-03-27T14:52:10Z</time>
      </trkpt>
      <trkpt lat="50.06935" lon="2.1192">
        <ele>86.1</ele>
        <time>2024-03-27T14:52:11Z</time>
      </trkpt>
      <trkpt lat="50.06935" lon="2.1192">
        <ele>86.1</ele>
        <time>2024-03-27T14:52:12Z</time>
      </trkpt>
      <trkpt lat="50.06935" lon="2.1192">
        <ele>86.1</ele>
        <time>2024-03-27T14:52:13Z</time>
      </trkpt>
      <trkpt lat="50.06935" lon="2.1192">
        <ele>86.1</ele>
        <time>2024-03-27T14:52:14Z</time>
      </trkpt>
      <trkpt lat="50.06935" lon="2.1192">
        <ele>86.1</ele>
        <time>2024-03-27T14:52:15Z</time>
      </trkpt>
      <trkpt lat="50.06935" lon="2.1192">
        <ele>86.1</ele>
        <time>2024-03-27T14:52:16Z</time>
      </trkpt>
      <trkpt lat="50.06935" lon="2.1192">
        <ele>86.1</ele>
        <time>2024-03-27T14:52:17Z</time>
      </trkpt>
      <trkpt lat="50.06935" lon="2.1192">
        <ele>86.1</ele>
        <time>2024-03-27T14:52:18Z</time>
      </trkpt>
      <trkpt lat="50.06935" lon="2.1192">
        <ele>86.1</ele>
        <time>2024-03-27T14:52:19Z</time>
      </trkpt>
      <trkpt lat="50.06935" lon="2.1192">
        <ele>86.1</ele>
        <time>2024-03-27T14:52:20Z</time>
      </trkpt>
      <trkpt lat="50.06935" lon="2.1192">
        <ele>86.1</ele>
        <time>2024-03-27T14:52:21Z</time>
      </trkpt>
      <trkpt lat="50.06935" lon="2.1192">
        <ele>86.1</ele>
        <time>2024-03-27T14:52:22Z</time>
      </trkpt>
      <trkpt lat="50.06935" lon="2.1192">
        <ele>86.1</ele>
        <time>2024-03-27T14:52:23Z</time>
      </trkpt>
      <trkpt lat="50.06935" lon="2.1192">
        <ele>86.1</ele>
        <time>2024-03-27T14:52:24Z</time>
      </trkpt>
      <trkpt lat="50.06935" lon="2.1192">
        <ele>86.1</ele>
        <time>2024-03-27T14:52:25Z</time>
      </trkpt>
      <trkpt lat="50.06935" lon="2.1192">
        <ele>86.1</ele>
        <time>2024-03-27T14:52:26Z</time>
      </trkpt>
      <trkpt lat="50.06935" lon="2.1192">
        <ele>86.1</ele>
        <time>2024-03-27T14:52:27Z</time>
      </trkpt>
      <trkpt lat="50.06935" lon="2.1192">
        <ele>86.1</ele>
        <time>2024-03-27T14:52:28Z</time>
      </trkpt>
      <trkpt lat="50.06935" lon="2.1192">
        <ele>86.1</ele>
        <time>2024-03-27T14:52:29Z</time>
      </trkpt>
      <trkpt lat="50.06935" lon="2.1192">
        <ele>86.1</ele>
        <time>2024-03-27T14:52:30Z</time>
      </trkpt>
      <trkpt lat="50.06935" lon="2.1192">
        <ele>86.1</ele>
        <time>2024-03-27T14:52:31Z</time>
      </trkpt>
      <trkpt lat="50.06935" lon="2.11919">
        <ele>86.1</ele>
        <time>2024-03-27T14:52:32Z</time>
      </trkpt>
      <trkpt lat="50.06935" lon="2.1192">
        <ele>86.1</ele>
        <time>2024-03-27T14:52:33Z</time>
      </trkpt>
      <trkpt lat="50.06934" lon="2.1192">
        <ele>86.1</ele>
        <time>2024-03-27T14:52:34Z</time>
      </trkpt>
      <trkpt lat="50.06934" lon="2.11921">
        <ele>86.1</ele>
        <time>2024-03-27T14:52:35Z</time>
      </trkpt>
      <trkpt lat="50.06933" lon="2.11921">
        <ele>86.1</ele>
        <time>2024-03-27T14:52:36Z</time>
      </trkpt>
      <trkpt lat="50.06932" lon="2.11921">
        <ele>86.1</ele>
        <time>2024-03-27T14:52:37Z</time>
      </trkpt>
      <trkpt lat="50.06931" lon="2.11922">
        <ele>86.1</ele>
        <time>2024-03-27T14:52:38Z</time>
      </trkpt>
      <trkpt lat="50.06931" lon="2.11923">
        <ele>86.1</ele>
        <time>2024-03-27T14:52:39Z</time>
      </trkpt>
      <trkpt lat="50.0693" lon="2.11923">
        <ele>86.1</ele>
        <time>2024-03-27T14:52:40Z</time>
      </trkpt>
      <trkpt lat="50.06929" lon="2.11923">
        <ele>86.1</ele>
        <time>2024-03-27T14:52:41Z</time>
      </trkpt>
      <trkpt lat="50.06928" lon="2.11924">
        <ele>86.1</ele>
        <time>2024-03-27T14:52:42Z</time>
      </trkpt>
      <trkpt lat="50.06928" lon="2.11924">
        <ele>86</ele>
        <time>2024-03-27T14:52:43Z</time>
      </trkpt>
      <trkpt lat="50.06927" lon="2.11924">
        <ele>86</ele>
        <time>2024-03-27T14:52:44Z</time>
      </trkpt>
      <trkpt lat="50.06927" lon="2.11924">
        <ele>86</ele>
        <time>2024-03-27T14:52:45Z</time>
      </trkpt>
      <trkpt lat="50.06926" lon="2.11925">
        <ele>86</ele>
        <time>2024-03-27T14:52:46Z</time>
      </trkpt>
      <trkpt lat="50.06926" lon="2.11925">
        <ele>86</ele>
        <time>2024-03-27T14:52:47Z</time>
      </trkpt>
      <trkpt lat="50.06925" lon="2.11925">
        <ele>86</ele>
        <time>2024-03-27T14:52:48Z</time>
      </trkpt>
      <trkpt lat="50.06925" lon="2.11925">
        <ele>86</ele>
        <time>2024-03-27T14:52:49Z</time>
      </trkpt>
      <trkpt lat="50.06924" lon="2.11925">
        <ele>86</ele>
        <time>2024-03-27T14:52:50Z</time>
      </trkpt>
      <trkpt lat="50.06924" lon="2.11925">
        <ele>86</ele>
        <time>2024-03-27T14:52:51Z</time>
      </trkpt>
      <trkpt lat="50.06923" lon="2.11926">
        <ele>86</ele>
        <time>2024-03-27T14:52:52Z</time>
      </trkpt>
      <trkpt lat="50.06922" lon="2.11926">
        <ele>86</ele>
        <time>2024-03-27T14:52:53Z</time>
      </trkpt>
      <trkpt lat="50.06922" lon="2.11926">
        <ele>86</ele>
        <time>2024-03-27T14:52:54Z</time>
      </trkpt>
      <trkpt lat="50.06921" lon="2.11926">
        <ele>86</ele>
        <time>2024-03-27T14:52:55Z</time>
      </trkpt>
      <trkpt lat="50.06919" lon="2.11925">
        <ele>86</ele>
        <time>2024-03-27T14:52:56Z</time>
      </trkpt>
      <trkpt lat="50.06918" lon="2.11925">
        <ele>86</ele>
        <time>2024-03-27T14:52:57Z</time>
      </trkpt>
      <trkpt lat="50.06917" lon="2.11925">
        <ele>86</ele>
        <time>2024-03-27T14:52:58Z</time>
      </trkpt>
      <trkpt lat="50.06915" lon="2.11925">
        <ele>86</ele>
        <time>2024-03-27T14:52:59Z</time>
      </trkpt>
      <trkpt lat="50.06914" lon="2.11925">
        <ele>85.9</ele>
        <time>2024-03-27T14:53:00Z</time>
      </trkpt>
      <trkpt lat="50.06913" lon="2.11925">
        <ele>85.9</ele>
        <time>2024-03-27T14:53:01Z</time>
      </trkpt>
      <trkpt lat="50.06911" lon="2.11925">
        <ele>85.9</ele>
        <time>2024-03-27T14:53:02Z</time>
      </trkpt>
      <trkpt lat="50.0691" lon="2.11925">
        <ele>85.9</ele>
        <time>2024-03-27T14:53:03Z</time>
      </trkpt>
      <trkpt lat="50.06909" lon="2.11925">
        <ele>85.9</ele>
        <time>2024-03-27T14:53:04Z</time>
      </trkpt>
      <trkpt lat="50.06909" lon="2.11925">
        <ele>85.9</ele>
        <time>2024-03-27T14:53:05Z</time>
      </trkpt>
      <trkpt lat="50.06908" lon="2.11925">
        <ele>85.9</ele>
        <time>2024-03-27T14:53:06Z</time>
      </trkpt>
      <trkpt lat="50.06908" lon="2.11924">
        <ele>85.9</ele>
        <time>2024-03-27T14:53:07Z</time>
      </trkpt>
      <trkpt lat="50.06908" lon="2.11924">
        <ele>85.9</ele>
        <time>2024-03-27T14:53:08Z</time>
      </trkpt>
      <trkpt lat="50.06907" lon="2.11924">
        <ele>85.9</ele>
        <time>2024-03-27T14:53:09Z</time>
      </trkpt>
      <trkpt lat="50.06906" lon="2.11924">
        <ele>85.9</ele>
        <time>2024-03-27T14:53:10Z</time>
      </trkpt>
      <trkpt lat="50.06906" lon="2.11924">
        <ele>85.9</ele>
        <time>2024-03-27T14:53:11Z</time>
      </trkpt>
      <trkpt lat="50.06905" lon="2.11924">
        <ele>85.9</ele>
        <time>2024-03-27T14:53:12Z</time>
      </trkpt>
      <trkpt lat="50.06904" lon="2.11924">
        <ele>85.9</ele>
        <time>2024-03-27T14:53:13Z</time>
      </trkpt>
      <trkpt lat="50.06903" lon="2.11924">
        <ele>85.9</ele>
        <time>2024-03-27T14:53:14Z</time>
      </trkpt>
      <trkpt lat="50.06902" lon="2.11924">
        <ele>85.9</ele>
        <time>2024-03-27T14:53:15Z</time>
      </trkpt>
      <trkpt lat="50.06901" lon="2.11924">
        <ele>85.9</ele>
        <time>2024-03-27T14:53:16Z</time>
      </trkpt>
      <trkpt lat="50.069" lon="2.11924">
        <ele>85.9</ele>
        <time>2024-03-27T14:53:17Z</time>
      </trkpt>
      <trkpt lat="50.06899" lon="2.11924">
        <ele>85.9</ele>
        <time>2024-03-27T14:53:18Z</time>
      </trkpt>
      <trkpt lat="50.06898" lon="2.11924">
        <ele>85.9</ele>
        <time>2024-03-27T14:53:19Z</time>
      </trkpt>
      <trkpt lat="50.06897" lon="2.11924">
        <ele>85.9</ele>
        <time>2024-03-27T14:53:20Z</time>
      </trkpt>
      <trkpt lat="50.06896" lon="2.11924">
        <ele>85.9</ele>
        <time>2024-03-27T14:53:21Z</time>
      </trkpt>
      <trkpt lat="50.06894" lon="2.11924">
        <ele>85.9</ele>
        <time>2024-03-27T14:53:22Z</time>
      </trkpt>
      <trkpt lat="50.06893" lon="2.11924">
        <ele>85.9</ele>
        <time>2024-03-27T14:53:23Z</time>
      </trkpt>
      <trkpt lat="50.06892" lon="2.11924">
        <ele>85.9</ele>
        <time>2024-03-27T14:53:24Z</time>
      </trkpt>
      <trkpt lat="50.06891" lon="2.11924">
        <ele>85.9</ele>
        <time>2024-03-27T14:53:25Z</time>
      </trkpt>
      <trkpt lat="50.0689" lon="2.11925">
        <ele>85.9</ele>
        <time>2024-03-27T14:53:26Z</time>
      </trkpt>
      <trkpt lat="50.06889" lon="2.11924">
        <ele>85.9</ele>
        <time>2024-03-27T14:53:27Z</time>
      </trkpt>
      <trkpt lat="50.06887" lon="2.11924">
        <ele>85.9</ele>
        <time>2024-03-27T14:53:28Z</time>
      </trkpt>
      <trkpt lat="50.06886" lon="2.11924">
        <ele>85.9</ele>
        <time>2024-03-27T14:53:29Z</time>
      </trkpt>
      <trkpt lat="50.06885" lon="2.11924">
        <ele>85.9</ele>
        <time>2024-03-27T14:53:30Z</time>
      </trkpt>
      <trkpt lat="50.06884" lon="2.11924">
        <ele>85.9</ele>
        <time>2024-03-27T14:53:31Z</time>
      </trkpt>
      <trkpt lat="50.06883" lon="2.11923">
        <ele>85.9</ele>
        <time>2024-03-27T14:53:32Z</time>
      </trkpt>
      <trkpt lat="50.06882" lon="2.11923">
        <ele>85.9</ele>
        <time>2024-03-27T14:53:33Z</time>
      </trkpt>
      <trkpt lat="50.06881" lon="2.11923">
        <ele>85.9</ele>
        <time>2024-03-27T14:53:34Z</time>
      </trkpt>
      <trkpt lat="50.0688" lon="2.11923">
        <ele>85.9</ele>
        <time>2024-03-27T14:53:35Z</time>
      </trkpt>
      <trkpt lat="50.06879" lon="2.11923">
        <ele>85.9</ele>
        <time>2024-03-27T14:53:36Z</time>
      </trkpt>
      <trkpt lat="50.06878" lon="2.11923">
        <ele>85.9</ele>
        <time>2024-03-27T14:53:37Z</time>
      </trkpt>
      <trkpt lat="50.06877" lon="2.11923">
        <ele>85.9</ele>
        <time>2024-03-27T14:53:38Z</time>
      </trkpt>
      <trkpt lat="50.06875" lon="2.11923">
        <ele>85.9</ele>
        <time>2024-03-27T14:53:39Z</time>
      </trkpt>
      <trkpt lat="50.06874" lon="2.11924">
        <ele>85.9</ele>
        <time>2024-03-27T14:53:40Z</time>
      </trkpt>
      <trkpt lat="50.06873" lon="2.11923">
        <ele>85.9</ele>
        <time>2024-03-27T14:53:41Z</time>
      </trkpt>
      <trkpt lat="50.06872" lon="2.11923">
        <ele>86</ele>
        <time>2024-03-27T14:53:42Z</time>
      </trkpt>
      <trkpt lat="50.06871" lon="2.11923">
        <ele>86</ele>
        <time>2024-03-27T14:53:43Z</time>
      </trkpt>
      <trkpt lat="50.0687" lon="2.11923">
        <ele>86</ele>
        <time>2024-03-27T14:53:44Z</time>
      </trkpt>
      <trkpt lat="50.06869" lon="2.11923">
        <ele>86</ele>
        <time>2024-03-27T14:53:45Z</time>
      </trkpt>
      <trkpt lat="50.06868" lon="2.11923">
        <ele>86</ele>
        <time>2024-03-27T14:53:46Z</time>
      </trkpt>
      <trkpt lat="50.06867" lon="2.11923">
        <ele>86</ele>
        <time>2024-03-27T14:53:47Z</time>
      </trkpt>
      <trkpt lat="50.06866" lon="2.11923">
        <ele>86</ele>
        <time>2024-03-27T14:53:48Z</time>
      </trkpt>
      <trkpt lat="50.06865" lon="2.11923">
        <ele>86</ele>
        <time>2024-03-27T14:53:49Z</time>
      </trkpt>
      <trkpt lat="50.06864" lon="2.11923">
        <ele>86</ele>
        <time>2024-03-27T14:53:50Z</time>
      </trkpt>
      <trkpt lat="50.06863" lon="2.11923">
        <ele>86</ele>
        <time>2024-03-27T14:53:51Z</time>
      </trkpt>
      <trkpt lat="50.06862" lon="2.11922">
        <ele>86</ele>
        <time>2024-03-27T14:53:52Z</time>
      </trkpt>
      <trkpt lat="50.06861" lon="2.11922">
        <ele>86</ele>
        <time>2024-03-27T14:53:53Z</time>
      </trkpt>
      <trkpt lat="50.06859" lon="2.11922">
        <ele>86</ele>
        <time>2024-03-27T14:53:54Z</time>
      </trkpt>
      <trkpt lat="50.06858" lon="2.11922">
        <ele>86</ele>
        <time>2024-03-27T14:53:55Z</time>
      </trkpt>
      <trkpt lat="50.06857" lon="2.11922">
        <ele>86.1</ele>
        <time>2024-03-27T14:53:56Z</time>
      </trkpt>
      <trkpt lat="50.06856" lon="2.11922">
        <ele>86.1</ele>
        <time>2024-03-27T14:53:57Z</time>
      </trkpt>
      <trkpt lat="50.06855" lon="2.11922">
        <ele>86.1</ele>
        <time>2024-03-27T14:53:58Z</time>
      </trkpt>
      <trkpt lat="50.06854" lon="2.11922">
        <ele>86.1</ele>
        <time>2024-03-27T14:53:59Z</time>
      </trkpt>
      <trkpt lat="50.06853" lon="2.11922">
        <ele>86.1</ele>
        <time>2024-03-27T14:54:00Z</time>
      </trkpt>
      <trkpt lat="50.06852" lon="2.11922">
        <ele>86.1</ele>
        <time>2024-03-27T14:54:01Z</time>
      </trkpt>
      <trkpt lat="50.06851" lon="2.11922">
        <ele>86.1</ele>
        <time>2024-03-27T14:54:02Z</time>
      </trkpt>
      <trkpt lat="50.0685" lon="2.11921">
        <ele>86.1</ele>
        <time>2024-03-27T14:54:03Z</time>
      </trkpt>
      <trkpt lat="50.06848" lon="2.11921">
        <ele>86.1</ele>
        <time>2024-03-27T14:54:04Z</time>
      </trkpt>
      <trkpt lat="50.06847" lon="2.11921">
        <ele>86.2</ele>
        <time>2024-03-27T14:54:05Z</time>
      </trkpt>
      <trkpt lat="50.06846" lon="2.1192">
        <ele>86.2</ele>
        <time>2024-03-27T14:54:06Z</time>
      </trkpt>
      <trkpt lat="50.06845" lon="2.1192">
        <ele>86.2</ele>
        <time>2024-03-27T14:54:07Z</time>
      </trkpt>
      <trkpt lat="50.06844" lon="2.1192">
        <ele>86.2</ele>
        <time>2024-03-27T14:54:08Z</time>
      </trkpt>
      <trkpt lat="50.06843" lon="2.11921">
        <ele>86.2</ele>
        <time>2024-03-27T14:54:09Z</time>
      </trkpt>
      <trkpt lat="50.06842" lon="2.11921">
        <ele>86.2</ele>
        <time>2024-03-27T14:54:10Z</time>
      </trkpt>
      <trkpt lat="50.06841" lon="2.11921">
        <ele>86.2</ele>
        <time>2024-03-27T14:54:11Z</time>
      </trkpt>
      <trkpt lat="50.0684" lon="2.11921">
        <ele>86.3</ele>
        <time>2024-03-27T14:54:12Z</time>
      </trkpt>
      <trkpt lat="50.06839" lon="2.11921">
        <ele>86.3</ele>
        <time>2024-03-27T14:54:13Z</time>
      </trkpt>
      <trkpt lat="50.06838" lon="2.11921">
        <ele>86.3</ele>
        <time>2024-03-27T14:54:14Z</time>
      </trkpt>
      <trkpt lat="50.06836" lon="2.11921">
        <ele>86.3</ele>
        <time>2024-03-27T14:54:15Z</time>
      </trkpt>
      <trkpt lat="50.06835" lon="2.11921">
        <ele>86.3</ele>
        <time>2024-03-27T14:54:16Z</time>
      </trkpt>
      <trkpt lat="50.06834" lon="2.11921">
        <ele>86.3</ele>
        <time>2024-03-27T14:54:17Z</time>
      </trkpt>
      <trkpt lat="50.06833" lon="2.11921">
        <ele>86.4</ele>
        <time>2024-03-27T14:54:18Z</time>
      </trkpt>
      <trkpt lat="50.06832" lon="2.11921">
        <ele>86.4</ele>
        <time>2024-03-27T14:54:19Z</time>
      </trkpt>
      <trkpt lat="50.06831" lon="2.11921">
        <ele>86.4</ele>
        <time>2024-03-27T14:54:20Z</time>
      </trkpt>
      <trkpt lat="50.0683" lon="2.11921">
        <ele>86.4</ele>
        <time>2024-03-27T14:54:21Z</time>
      </trkpt>
      <trkpt lat="50.06829" lon="2.11921">
        <ele>86.4</ele>
        <time>2024-03-27T14:54:22Z</time>
      </trkpt>
      <trkpt lat="50.06827" lon="2.11921">
        <ele>86.4</ele>
        <time>2024-03-27T14:54:23Z</time>
      </trkpt>
      <trkpt lat="50.06826" lon="2.11921">
        <ele>86.5</ele>
        <time>2024-03-27T14:54:24Z</time>
      </trkpt>
      <trkpt lat="50.06825" lon="2.1192">
        <ele>86.5</ele>
        <time>2024-03-27T14:54:25Z</time>
      </trkpt>
      <trkpt lat="50.06824" lon="2.1192">
        <ele>86.5</ele>
        <time>2024-03-27T14:54:26Z</time>
      </trkpt>
      <trkpt lat="50.06823" lon="2.1192">
        <ele>86.5</ele>
        <time>2024-03-27T14:54:27Z</time>
      </trkpt>
      <trkpt lat="50.06822" lon="2.1192">
        <ele>86.6</ele>
        <time>2024-03-27T14:54:28Z</time>
      </trkpt>
      <trkpt lat="50.06821" lon="2.1192">
        <ele>86.6</ele>
        <time>2024-03-27T14:54:29Z</time>
      </trkpt>
      <trkpt lat="50.0682" lon="2.1192">
        <ele>86.6</ele>
        <time>2024-03-27T14:54:30Z</time>
      </trkpt>
      <trkpt lat="50.06819" lon="2.1192">
        <ele>86.6</ele>
        <time>2024-03-27T14:54:31Z</time>
      </trkpt>
      <trkpt lat="50.06818" lon="2.1192">
        <ele>86.6</ele>
        <time>2024-03-27T14:54:32Z</time>
      </trkpt>
      <trkpt lat="50.06816" lon="2.1192">
        <ele>86.7</ele>
        <time>2024-03-27T14:54:33Z</time>
      </trkpt>
      <trkpt lat="50.06815" lon="2.1192">
        <ele>86.7</ele>
        <time>2024-03-27T14:54:34Z</time>
      </trkpt>
      <trkpt lat="50.06814" lon="2.11921">
        <ele>86.7</ele>
        <time>2024-03-27T14:54:35Z</time>
      </trkpt>
      <trkpt lat="50.06813" lon="2.11921">
        <ele>86.7</ele>
        <time>2024-03-27T14:54:36Z</time>
      </trkpt>
      <trkpt lat="50.06812" lon="2.11921">
        <ele>86.8</ele>
        <time>2024-03-27T14:54:37Z</time>
      </trkpt>
      <trkpt lat="50.06811" lon="2.11921">
        <ele>86.8</ele>
        <time>2024-03-27T14:54:38Z</time>
      </trkpt>
      <trkpt lat="50.0681" lon="2.11921">
        <ele>86.8</ele>
        <time>2024-03-27T14:54:39Z</time>
      </trkpt>
      <trkpt lat="50.06809" lon="2.11921">
        <ele>86.9</ele>
        <time>2024-03-27T14:54:40Z</time>
      </trkpt>
      <trkpt lat="50.06807" lon="2.1192">
        <ele>86.9</ele>
        <time>2024-03-27T14:54:41Z</time>
      </trkpt>
      <trkpt lat="50.06807" lon="2.11919">
        <ele>86.9</ele>
        <time>2024-03-27T14:54:42Z</time>
      </trkpt>
      <trkpt lat="50.06806" lon="2.11919">
        <ele>86.9</ele>
        <time>2024-03-27T14:54:43Z</time>
      </trkpt>
      <trkpt lat="50.06805" lon="2.11918">
        <ele>87</ele>
        <time>2024-03-27T14:54:44Z</time>
      </trkpt>
      <trkpt lat="50.06804" lon="2.11918">
        <ele>87</ele>
        <time>2024-03-27T14:54:45Z</time>
      </trkpt>
      <trkpt lat="50.06802" lon="2.11917">
        <ele>87</ele>
        <time>2024-03-27T14:54:46Z</time>
      </trkpt>
      <trkpt lat="50.06801" lon="2.11917">
        <ele>87</ele>
        <time>2024-03-27T14:54:47Z</time>
      </trkpt>
      <trkpt lat="50.068" lon="2.11916">
        <ele>87.1</ele>
        <time>2024-03-27T14:54:48Z</time>
      </trkpt>
      <trkpt lat="50.06799" lon="2.11916">
        <ele>87.1</ele>
        <time>2024-03-27T14:54:49Z</time>
      </trkpt>
      <trkpt lat="50.06798" lon="2.11915">
        <ele>87.1</ele>
        <time>2024-03-27T14:54:50Z</time>
      </trkpt>
      <trkpt lat="50.06797" lon="2.11915">
        <ele>87.1</ele>
        <time>2024-03-27T14:54:51Z</time>
      </trkpt>
      <trkpt lat="50.06796" lon="2.11914">
        <ele>87.2</ele>
        <time>2024-03-27T14:54:52Z</time>
      </trkpt>
      <trkpt lat="50.06795" lon="2.11914">
        <ele>87.2</ele>
        <time>2024-03-27T14:54:53Z</time>
      </trkpt>
      <trkpt lat="50.06795" lon="2.11913">
        <ele>87.2</ele>
        <time>2024-03-27T14:54:54Z</time>
      </trkpt>
      <trkpt lat="50.06794" lon="2.11913">
        <ele>87.2</ele>
        <time>2024-03-27T14:54:55Z</time>
      </trkpt>
      <trkpt lat="50.06792" lon="2.11912">
        <ele>87.3</ele>
        <time>2024-03-27T14:54:56Z</time>
      </trkpt>
      <trkpt lat="50.06791" lon="2.11911">
        <ele>87.3</ele>
        <time>2024-03-27T14:54:57Z</time>
      </trkpt>
      <trkpt lat="50.0679" lon="2.11911">
        <ele>87.3</ele>
        <time>2024-03-27T14:54:58Z</time>
      </trkpt>
      <trkpt lat="50.06789" lon="2.1191">
        <ele>87.3</ele>
        <time>2024-03-27T14:54:59Z</time>
      </trkpt>
      <trkpt lat="50.06788" lon="2.1191">
        <ele>87.4</ele>
        <time>2024-03-27T14:55:00Z</time>
      </trkpt>
      <trkpt lat="50.06788" lon="2.11909">
        <ele>87.4</ele>
        <time>2024-03-27T14:55:01Z</time>
      </trkpt>
      <trkpt lat="50.06787" lon="2.11909">
        <ele>87.5</ele>
        <time>2024-03-27T14:55:02Z</time>
      </trkpt>
      <trkpt lat="50.06786" lon="2.11908">
        <ele>87.5</ele>
        <time>2024-03-27T14:55:03Z</time>
      </trkpt>
      <trkpt lat="50.06785" lon="2.11908">
        <ele>87.6</ele>
        <time>2024-03-27T14:55:04Z</time>
      </trkpt>
      <trkpt lat="50.06784" lon="2.11908">
        <ele>87.6</ele>
        <time>2024-03-27T14:55:05Z</time>
      </trkpt>
      <trkpt lat="50.06783" lon="2.11907">
        <ele>87.6</ele>
        <time>2024-03-27T14:55:06Z</time>
      </trkpt>
      <trkpt lat="50.06782" lon="2.11906">
        <ele>87.7</ele>
        <time>2024-03-27T14:55:07Z</time>
      </trkpt>
      <trkpt lat="50.06781" lon="2.11906">
        <ele>87.7</ele>
        <time>2024-03-27T14:55:08Z</time>
      </trkpt>
      <trkpt lat="50.0678" lon="2.11905">
        <ele>87.8</ele>
        <time>2024-03-27T14:55:09Z</time>
      </trkpt>
      <trkpt lat="50.06779" lon="2.11904">
        <ele>87.8</ele>
        <time>2024-03-27T14:55:10Z</time>
      </trkpt>
      <trkpt lat="50.06778" lon="2.11904">
        <ele>87.9</ele>
        <time>2024-03-27T14:55:11Z</time>
      </trkpt>
      <trkpt lat="50.06777" lon="2.11904">
        <ele>87.9</ele>
        <time>2024-03-27T14:55:12Z</time>
      </trkpt>
      <trkpt lat="50.06776" lon="2.11904">
        <ele>87.9</ele>
        <time>2024-03-27T14:55:13Z</time>
      </trkpt>
      <trkpt lat="50.06775" lon="2.11904">
        <ele>88</ele>
        <time>2024-03-27T14:55:14Z</time>
      </trkpt>
      <trkpt lat="50.06774" lon="2.11904">
        <ele>88</ele>
        <time>2024-03-27T14:55:15Z</time>
      </trkpt>
      <trkpt lat="50.06773" lon="2.11904">
        <ele>88.1</ele>
        <time>2024-03-27T14:55:16Z</time>
      </trkpt>
      <trkpt lat="50.06772" lon="2.11903">
        <ele>88.1</ele>
        <time>2024-03-27T14:55:17Z</time>
      </trkpt>
      <trkpt lat="50.06771" lon="2.11903">
        <ele>88.2</ele>
        <time>2024-03-27T14:55:18Z</time>
      </trkpt>
      <trkpt lat="50.0677" lon="2.11903">
        <ele>88.2</ele>
        <time>2024-03-27T14:55:19Z</time>
      </trkpt>
      <trkpt lat="50.06769" lon="2.11903">
        <ele>88.3</ele>
        <time>2024-03-27T14:55:20Z</time>
      </trkpt>
      <trkpt lat="50.06769" lon="2.11902">
        <ele>88.3</ele>
        <time>2024-03-27T14:55:21Z</time>
      </trkpt>
      <trkpt lat="50.06768" lon="2.11902">
        <ele>88.4</ele>
        <time>2024-03-27T14:55:22Z</time>
      </trkpt>
      <trkpt lat="50.06767" lon="2.11901">
        <ele>88.4</ele>
        <time>2024-03-27T14:55:23Z</time>
      </trkpt>
      <trkpt lat="50.06766" lon="2.11901">
        <ele>88.4</ele>
        <time>2024-03-27T14:55:24Z</time>
      </trkpt>
      <trkpt lat="50.06765" lon="2.119">
        <ele>88.5</ele>
        <time>2024-03-27T14:55:25Z</time>
      </trkpt>
      <trkpt lat="50.06764" lon="2.119">
        <ele>88.5</ele>
        <time>2024-03-27T14:55:26Z</time>
      </trkpt>
      <trkpt lat="50.06763" lon="2.11899">
        <ele>88.6</ele>
        <time>2024-03-27T14:55:27Z</time>
      </trkpt>
      <trkpt lat="50.06761" lon="2.11898">
        <ele>88.7</ele>
        <time>2024-03-27T14:55:28Z</time>
      </trkpt>
      <trkpt lat="50.0676" lon="2.11897">
        <ele>88.7</ele>
        <time>2024-03-27T14:55:29Z</time>
      </trkpt>
      <trkpt lat="50.0676" lon="2.11897">
        <ele>88.8</ele>
        <time>2024-03-27T14:55:30Z</time>
      </trkpt>
      <trkpt lat="50.06759" lon="2.11897">
        <ele>88.8</ele>
        <time>2024-03-27T14:55:31Z</time>
      </trkpt>
      <trkpt lat="50.06758" lon="2.11896">
        <ele>88.9</ele>
        <time>2024-03-27T14:55:32Z</time>
      </trkpt>
      <trkpt lat="50.06757" lon="2.11895">
        <ele>88.9</ele>
        <time>2024-03-27T14:55:33Z</time>
      </trkpt>
      <trkpt lat="50.06756" lon="2.11895">
        <ele>88.9</ele>
        <time>2024-03-27T14:55:34Z</time>
      </trkpt>
      <trkpt lat="50.06755" lon="2.11894">
        <ele>89</ele>
        <time>2024-03-27T14:55:35Z</time>
      </trkpt>
      <trkpt lat="50.06754" lon="2.11894">
        <ele>89</ele>
        <time>2024-03-27T14:55:36Z</time>
      </trkpt>
      <trkpt lat="50.06753" lon="2.11894">
        <ele>89.1</ele>
        <time>2024-03-27T14:55:37Z</time>
      </trkpt>
      <trkpt lat="50.06752" lon="2.11893">
        <ele>89.1</ele>
        <time>2024-03-27T14:55:38Z</time>
      </trkpt>
      <trkpt lat="50.06751" lon="2.11893">
        <ele>89.2</ele>
        <time>2024-03-27T14:55:39Z</time>
      </trkpt>
      <trkpt lat="50.0675" lon="2.11893">
        <ele>89.2</ele>
        <time>2024-03-27T14:55:40Z</time>
      </trkpt>
      <trkpt lat="50.06749" lon="2.11893">
        <ele>89.3</ele>
        <time>2024-03-27T14:55:41Z</time>
      </trkpt>
      <trkpt lat="50.06748" lon="2.11892">
        <ele>89.3</ele>
        <time>2024-03-27T14:55:42Z</time>
      </trkpt>
      <trkpt lat="50.06748" lon="2.11892">
        <ele>89.3</ele>
        <time>2024-03-27T14:55:43Z</time>
      </trkpt>
      <trkpt lat="50.06747" lon="2.11892">
        <ele>89.4</ele>
        <time>2024-03-27T14:55:44Z</time>
      </trkpt>
      <trkpt lat="50.06746" lon="2.11891">
        <ele>89.4</ele>
        <time>2024-03-27T14:55:45Z</time>
      </trkpt>
      <trkpt lat="50.06745" lon="2.11891">
        <ele>89.5</ele>
        <time>2024-03-27T14:55:46Z</time>
      </trkpt>
      <trkpt lat="50.06744" lon="2.11891">
        <ele>89.5</ele>
        <time>2024-03-27T14:55:47Z</time>
      </trkpt>
      <trkpt lat="50.06744" lon="2.11889">
        <ele>89.5</ele>
        <time>2024-03-27T14:55:48Z</time>
      </trkpt>
      <trkpt lat="50.06745" lon="2.11889">
        <ele>89.5</ele>
        <time>2024-03-27T14:55:49Z</time>
      </trkpt>
      <trkpt lat="50.06745" lon="2.11888">
        <ele>89.6</ele>
        <time>2024-03-27T14:55:50Z</time>
      </trkpt>
      <trkpt lat="50.06746" lon="2.11888">
        <ele>89.6</ele>
        <time>2024-03-27T14:55:51Z</time>
      </trkpt>
      <trkpt lat="50.06745" lon="2.11889">
        <ele>89.6</ele>
        <time>2024-03-27T14:55:52Z</time>
      </trkpt>
      <trkpt lat="50.06745" lon="2.11889">
        <ele>89.6</ele>
        <time>2024-03-27T14:55:53Z</time>
      </trkpt>
      <trkpt lat="50.06745" lon="2.11889">
        <ele>89.6</ele>
        <time>2024-03-27T14:55:54Z</time>
      </trkpt>
      <trkpt lat="50.06745" lon="2.11889">
        <ele>89.6</ele>
        <time>2024-03-27T14:55:55Z</time>
      </trkpt>
      <trkpt lat="50.06745" lon="2.11889">
        <ele>89.6</ele>
        <time>2024-03-27T14:55:56Z</time>
      </trkpt>
      <trkpt lat="50.06744" lon="2.11888">
        <ele>89.6</ele>
        <time>2024-03-27T14:55:57Z</time>
      </trkpt>
      <trkpt lat="50.06743" lon="2.11888">
        <ele>89.7</ele>
        <time>2024-03-27T14:55:58Z</time>
      </trkpt>
      <trkpt lat="50.06742" lon="2.11887">
        <ele>89.7</ele>
        <time>2024-03-27T14:55:59Z</time>
      </trkpt>
      <trkpt lat="50.06741" lon="2.11887">
        <ele>89.8</ele>
        <time>2024-03-27T14:56:00Z</time>
      </trkpt>
      <trkpt lat="50.0674" lon="2.11886">
        <ele>89.8</ele>
        <time>2024-03-27T14:56:01Z</time>
      </trkpt>
      <trkpt lat="50.06738" lon="2.11886">
        <ele>89.8</ele>
        <time>2024-03-27T14:56:02Z</time>
      </trkpt>
      <trkpt lat="50.06736" lon="2.11886">
        <ele>89.9</ele>
        <time>2024-03-27T14:56:03Z</time>
      </trkpt>
      <trkpt lat="50.06736" lon="2.11886">
        <ele>89.9</ele>
        <time>2024-03-27T14:56:04Z</time>
      </trkpt>
      <trkpt lat="50.06735" lon="2.11886">
        <ele>89.9</ele>
        <time>2024-03-27T14:56:05Z</time>
      </trkpt>
      <trkpt lat="50.06733" lon="2.11886">
        <ele>90</ele>
        <time>2024-03-27T14:56:06Z</time>
      </trkpt>
      <trkpt lat="50.06732" lon="2.11886">
        <ele>90</ele>
        <time>2024-03-27T14:56:07Z</time>
      </trkpt>
      <trkpt lat="50.06731" lon="2.11886">
        <ele>90.1</ele>
        <time>2024-03-27T14:56:08Z</time>
      </trkpt>
      <trkpt lat="50.06729" lon="2.11885">
        <ele>90.1</ele>
        <time>2024-03-27T14:56:09Z</time>
      </trkpt>
      <trkpt lat="50.06728" lon="2.11885">
        <ele>90.1</ele>
        <time>2024-03-27T14:56:10Z</time>
      </trkpt>
      <trkpt lat="50.06728" lon="2.11885">
        <ele>90.1</ele>
        <time>2024-03-27T14:56:11Z</time>
      </trkpt>
      <trkpt lat="50.06727" lon="2.11884">
        <ele>90.1</ele>
        <time>2024-03-27T14:56:12Z</time>
      </trkpt>
      <trkpt lat="50.06725" lon="2.11883">
        <ele>90.2</ele>
        <time>2024-03-27T14:56:13Z</time>
      </trkpt>
      <trkpt lat="50.06724" lon="2.11883">
        <ele>90.2</ele>
        <time>2024-03-27T14:56:14Z</time>
      </trkpt>
      <trkpt lat="50.06722" lon="2.11882">
        <ele>90.2</ele>
        <time>2024-03-27T14:56:15Z</time>
      </trkpt>
      <trkpt lat="50.06722" lon="2.11882">
        <ele>90.2</ele>
        <time>2024-03-27T14:56:16Z</time>
      </trkpt>
      <trkpt lat="50.06721" lon="2.11881">
        <ele>90.2</ele>
        <time>2024-03-27T14:56:17Z</time>
      </trkpt>
      <trkpt lat="50.06719" lon="2.1188">
        <ele>90.3</ele>
        <time>2024-03-27T14:56:18Z</time>
      </trkpt>
      <trkpt lat="50.06718" lon="2.1188">
        <ele>90.3</ele>
        <time>2024-03-27T14:56:19Z</time>
      </trkpt>
      <trkpt lat="50.06717" lon="2.1188">
        <ele>90.3</ele>
        <time>2024-03-27T14:56:20Z</time>
      </trkpt>
      <trkpt lat="50.06716" lon="2.11879">
        <ele>90.3</ele>
        <time>2024-03-27T14:56:21Z</time>
      </trkpt>
      <trkpt lat="50.06715" lon="2.11879">
        <ele>90.3</ele>
        <time>2024-03-27T14:56:22Z</time>
      </trkpt>
      <trkpt lat="50.06714" lon="2.11878">
        <ele>90.3</ele>
        <time>2024-03-27T14:56:23Z</time>
      </trkpt>
      <trkpt lat="50.06713" lon="2.11877">
        <ele>90.3</ele>
        <time>2024-03-27T14:56:24Z</time>
      </trkpt>
      <trkpt lat="50.06712" lon="2.11877">
        <ele>90.3</ele>
        <time>2024-03-27T14:56:25Z</time>
      </trkpt>
      <trkpt lat="50.06711" lon="2.11876">
        <ele>90.3</ele>
        <time>2024-03-27T14:56:26Z</time>
      </trkpt>
      <trkpt lat="50.0671" lon="2.11875">
        <ele>90.3</ele>
        <time>2024-03-27T14:56:27Z</time>
      </trkpt>
      <trkpt lat="50.06709" lon="2.11875">
        <ele>90.3</ele>
        <time>2024-03-27T14:56:28Z</time>
      </trkpt>
      <trkpt lat="50.06708" lon="2.11874">
        <ele>90.3</ele>
        <time>2024-03-27T14:56:29Z</time>
      </trkpt>
      <trkpt lat="50.06707" lon="2.11874">
        <ele>90.3</ele>
        <time>2024-03-27T14:56:30Z</time>
      </trkpt>
      <trkpt lat="50.06706" lon="2.11873">
        <ele>90.3</ele>
        <time>2024-03-27T14:56:31Z</time>
      </trkpt>
      <trkpt lat="50.06705" lon="2.11873">
        <ele>90.3</ele>
        <time>2024-03-27T14:56:32Z</time>
      </trkpt>
      <trkpt lat="50.06704" lon="2.11872">
        <ele>90.3</ele>
        <time>2024-03-27T14:56:33Z</time>
      </trkpt>
      <trkpt lat="50.06703" lon="2.11872">
        <ele>90.3</ele>
        <time>2024-03-27T14:56:34Z</time>
      </trkpt>
      <trkpt lat="50.06702" lon="2.11872">
        <ele>90.3</ele>
        <time>2024-03-27T14:56:35Z</time>
      </trkpt>
      <trkpt lat="50.06701" lon="2.11871">
        <ele>90.3</ele>
        <time>2024-03-27T14:56:36Z</time>
      </trkpt>
      <trkpt lat="50.067" lon="2.11871">
        <ele>90.3</ele>
        <time>2024-03-27T14:56:37Z</time>
      </trkpt>
      <trkpt lat="50.06699" lon="2.1187">
        <ele>90.3</ele>
        <time>2024-03-27T14:56:38Z</time>
      </trkpt>
      <trkpt lat="50.06698" lon="2.1187">
        <ele>90.3</ele>
        <time>2024-03-27T14:56:39Z</time>
      </trkpt>
      <trkpt lat="50.06697" lon="2.11869">
        <ele>90.3</ele>
        <time>2024-03-27T14:56:40Z</time>
      </trkpt>
      <trkpt lat="50.06696" lon="2.11869">
        <ele>90.3</ele>
        <time>2024-03-27T14:56:41Z</time>
      </trkpt>
      <trkpt lat="50.06695" lon="2.11869">
        <ele>90.3</ele>
        <time>2024-03-27T14:56:42Z</time>
      </trkpt>
      <trkpt lat="50.06694" lon="2.11868">
        <ele>90.3</ele>
        <time>2024-03-27T14:56:43Z</time>
      </trkpt>
      <trkpt lat="50.06693" lon="2.11868">
        <ele>90.3</ele>
        <time>2024-03-27T14:56:44Z</time>
      </trkpt>
      <trkpt lat="50.06691" lon="2.11867">
        <ele>90.2</ele>
        <time>2024-03-27T14:56:45Z</time>
      </trkpt>
      <trkpt lat="50.0669" lon="2.11867">
        <ele>90.2</ele>
        <time>2024-03-27T14:56:46Z</time>
      </trkpt>
      <trkpt lat="50.06689" lon="2.11866">
        <ele>90.2</ele>
        <time>2024-03-27T14:56:47Z</time>
      </trkpt>
      <trkpt lat="50.06688" lon="2.11866">
        <ele>90.2</ele>
        <time>2024-03-27T14:56:48Z</time>
      </trkpt>
      <trkpt lat="50.06687" lon="2.11865">
        <ele>90.2</ele>
        <time>2024-03-27T14:56:49Z</time>
      </trkpt>
      <trkpt lat="50.06686" lon="2.11865">
        <ele>90.2</ele>
        <time>2024-03-27T14:56:50Z</time>
      </trkpt>
      <trkpt lat="50.06684" lon="2.11864">
        <ele>90.2</ele>
        <time>2024-03-27T14:56:51Z</time>
      </trkpt>
      <trkpt lat="50.06683" lon="2.11864">
        <ele>90.2</ele>
        <time>2024-03-27T14:56:52Z</time>
      </trkpt>
      <trkpt lat="50.06682" lon="2.11863">
        <ele>90.1</ele>
        <time>2024-03-27T14:56:53Z</time>
      </trkpt>
      <trkpt lat="50.06681" lon="2.11863">
        <ele>90.1</ele>
        <time>2024-03-27T14:56:54Z</time>
      </trkpt>
      <trkpt lat="50.0668" lon="2.11863">
        <ele>90.1</ele>
        <time>2024-03-27T14:56:55Z</time>
      </trkpt>
      <trkpt lat="50.06679" lon="2.11862">
        <ele>90.1</ele>
        <time>2024-03-27T14:56:56Z</time>
      </trkpt>
      <trkpt lat="50.06678" lon="2.11862">
        <ele>90.1</ele>
        <time>2024-03-27T14:56:57Z</time>
      </trkpt>
      <trkpt lat="50.06677" lon="2.11862">
        <ele>90</ele>
        <time>2024-03-27T14:56:58Z</time>
      </trkpt>
      <trkpt lat="50.06676" lon="2.11861">
        <ele>90</ele>
        <time>2024-03-27T14:56:59Z</time>
      </trkpt>
      <trkpt lat="50.06677" lon="2.11859">
        <ele>90</ele>
        <time>2024-03-27T14:57:00Z</time>
      </trkpt>
      <trkpt lat="50.06677" lon="2.11858">
        <ele>90</ele>
        <time>2024-03-27T14:57:01Z</time>
      </trkpt>
      <trkpt lat="50.06678" lon="2.11858">
        <ele>90</ele>
        <time>2024-03-27T14:57:02Z</time>
      </trkpt>
      <trkpt lat="50.06679" lon="2.11858">
        <ele>89.9</ele>
        <time>2024-03-27T14:57:03Z</time>
      </trkpt>
      <trkpt lat="50.06679" lon="2.11857">
        <ele>89.9</ele>
        <time>2024-03-27T14:57:04Z</time>
      </trkpt>
      <trkpt lat="50.06679" lon="2.11857">
        <ele>89.9</ele>
        <time>2024-03-27T14:57:05Z</time>
      </trkpt>
      <trkpt lat="50.06678" lon="2.11857">
        <ele>89.9</ele>
        <time>2024-03-27T14:57:06Z</time>
      </trkpt>
      <trkpt lat="50.06678" lon="2.11855">
        <ele>89.9</ele>
        <time>2024-03-27T14:57:07Z</time>
      </trkpt>
      <trkpt lat="50.06677" lon="2.11855">
        <ele>89.9</ele>
        <time>2024-03-27T14:57:08Z</time>
      </trkpt>
      <trkpt lat="50.06677" lon="2.11854">
        <ele>89.9</ele>
        <time>2024-03-27T14:57:09Z</time>
      </trkpt>
      <trkpt lat="50.06676" lon="2.11855">
        <ele>89.9</ele>
        <time>2024-03-27T14:57:10Z</time>
      </trkpt>
      <trkpt lat="50.06676" lon="2.11855">
        <ele>89.9</ele>
        <time>2024-03-27T14:57:11Z</time>
      </trkpt>
      <trkpt lat="50.06675" lon="2.11855">
        <ele>89.8</ele>
        <time>2024-03-27T14:57:12Z</time>
      </trkpt>
      <trkpt lat="50.06674" lon="2.11855">
        <ele>89.8</ele>
        <time>2024-03-27T14:57:13Z</time>
      </trkpt>
      <trkpt lat="50.06672" lon="2.11854">
        <ele>89.8</ele>
        <time>2024-03-27T14:57:14Z</time>
      </trkpt>
      <trkpt lat="50.06671" lon="2.11854">
        <ele>89.7</ele>
        <time>2024-03-27T14:57:15Z</time>
      </trkpt>
      <trkpt lat="50.06668" lon="2.11854">
        <ele>89.7</ele>
        <time>2024-03-27T14:57:16Z</time>
      </trkpt>
      <trkpt lat="50.06668" lon="2.11854">
        <ele>89.6</ele>
        <time>2024-03-27T14:57:17Z</time>
      </trkpt>
      <trkpt lat="50.06667" lon="2.11854">
        <ele>89.6</ele>
        <time>2024-03-27T14:57:18Z</time>
      </trkpt>
      <trkpt lat="50.06665" lon="2.11854">
        <ele>89.6</ele>
        <time>2024-03-27T14:57:19Z</time>
      </trkpt>
      <trkpt lat="50.06664" lon="2.11853">
        <ele>89.5</ele>
        <time>2024-03-27T14:57:20Z</time>
      </trkpt>
      <trkpt lat="50.06663" lon="2.11853">
        <ele>89.5</ele>
        <time>2024-03-27T14:57:21Z</time>
      </trkpt>
      <trkpt lat="50.06662" lon="2.11853">
        <ele>89.5</ele>
        <time>2024-03-27T14:57:22Z</time>
      </trkpt>
      <trkpt lat="50.06661" lon="2.11852">
        <ele>89.4</ele>
        <time>2024-03-27T14:57:23Z</time>
      </trkpt>
      <trkpt lat="50.0666" lon="2.11852">
        <ele>89.4</ele>
        <time>2024-03-27T14:57:24Z</time>
      </trkpt>
      <trkpt lat="50.06659" lon="2.11851">
        <ele>89.4</ele>
        <time>2024-03-27T14:57:25Z</time>
      </trkpt>
      <trkpt lat="50.06657" lon="2.11851">
        <ele>89.3</ele>
        <time>2024-03-27T14:57:26Z</time>
      </trkpt>
      <trkpt lat="50.06656" lon="2.1185">
        <ele>89.3</ele>
        <time>2024-03-27T14:57:27Z</time>
      </trkpt>
      <trkpt lat="50.06656" lon="2.1185">
        <ele>89.3</ele>
        <time>2024-03-27T14:57:28Z</time>
      </trkpt>
      <trkpt lat="50.06655" lon="2.1185">
        <ele>89.2</ele>
        <time>2024-03-27T14:57:29Z</time>
      </trkpt>
      <trkpt lat="50.06654" lon="2.11849">
        <ele>89.2</ele>
        <time>2024-03-27T14:57:30Z</time>
      </trkpt>
      <trkpt lat="50.06653" lon="2.11849">
        <ele>89.2</ele>
        <time>2024-03-27T14:57:31Z</time>
      </trkpt>
      <trkpt lat="50.06652" lon="2.11848">
        <ele>89.1</ele>
        <time>2024-03-27T14:57:32Z</time>
      </trkpt>
      <trkpt lat="50.06651" lon="2.11848">
        <ele>89.1</ele>
        <time>2024-03-27T14:57:33Z</time>
      </trkpt>
      <trkpt lat="50.0665" lon="2.11848">
        <ele>89.1</ele>
        <time>2024-03-27T14:57:34Z</time>
      </trkpt>
      <trkpt lat="50.06649" lon="2.11847">
        <ele>89</ele>
        <time>2024-03-27T14:57:35Z</time>
      </trkpt>
      <trkpt lat="50.06648" lon="2.11847">
        <ele>89</ele>
        <time>2024-03-27T14:57:36Z</time>
      </trkpt>
      <trkpt lat="50.06647" lon="2.11846">
        <ele>89</ele>
        <time>2024-03-27T14:57:37Z</time>
      </trkpt>
      <trkpt lat="50.06646" lon="2.11846">
        <ele>88.9</ele>
        <time>2024-03-27T14:57:38Z</time>
      </trkpt>
      <trkpt lat="50.06645" lon="2.11846">
        <ele>88.9</ele>
        <time>2024-03-27T14:57:39Z</time>
      </trkpt>
      <trkpt lat="50.06644" lon="2.11845">
        <ele>88.8</ele>
        <time>2024-03-27T14:57:40Z</time>
      </trkpt>
      <trkpt lat="50.06643" lon="2.11845">
        <ele>88.8</ele>
        <time>2024-03-27T14:57:41Z</time>
      </trkpt>
      <trkpt lat="50.06642" lon="2.11844">
        <ele>88.8</ele>
        <time>2024-03-27T14:57:42Z</time>
      </trkpt>
      <trkpt lat="50.06641" lon="2.11844">
        <ele>88.7</ele>
        <time>2024-03-27T14:57:43Z</time>
      </trkpt>
      <trkpt lat="50.0664" lon="2.11843">
        <ele>88.7</ele>
        <time>2024-03-27T14:57:44Z</time>
      </trkpt>
      <trkpt lat="50.06639" lon="2.11843">
        <ele>88.7</ele>
        <time>2024-03-27T14:57:45Z</time>
      </trkpt>
      <trkpt lat="50.06638" lon="2.11843">
        <ele>88.6</ele>
        <time>2024-03-27T14:57:46Z</time>
      </trkpt>
      <trkpt lat="50.06636" lon="2.11842">
        <ele>88.6</ele>
        <time>2024-03-27T14:57:47Z</time>
      </trkpt>
      <trkpt lat="50.06636" lon="2.11842">
        <ele>88.6</ele>
        <time>2024-03-27T14:57:48Z</time>
      </trkpt>
      <trkpt lat="50.06635" lon="2.11841">
        <ele>88.5</ele>
        <time>2024-03-27T14:57:49Z</time>
      </trkpt>
      <trkpt lat="50.06633" lon="2.11841">
        <ele>88.5</ele>
        <time>2024-03-27T14:57:50Z</time>
      </trkpt>
      <trkpt lat="50.06632" lon="2.11841">
        <ele>88.4</ele>
        <time>2024-03-27T14:57:51Z</time>
      </trkpt>
      <trkpt lat="50.06631" lon="2.1184">
        <ele>88.4</ele>
        <time>2024-03-27T14:57:52Z</time>
      </trkpt>
      <trkpt lat="50.0663" lon="2.1184">
        <ele>88.4</ele>
        <time>2024-03-27T14:57:53Z</time>
      </trkpt>
      <trkpt lat="50.06629" lon="2.11839">
        <ele>88.3</ele>
        <time>2024-03-27T14:57:54Z</time>
      </trkpt>
      <trkpt lat="50.06627" lon="2.11839">
        <ele>88.3</ele>
        <time>2024-03-27T14:57:55Z</time>
      </trkpt>
      <trkpt lat="50.06626" lon="2.11838">
        <ele>88.3</ele>
        <time>2024-03-27T14:57:56Z</time>
      </trkpt>
      <trkpt lat="50.06625" lon="2.11838">
        <ele>88.2</ele>
        <time>2024-03-27T14:57:57Z</time>
      </trkpt>
      <trkpt lat="50.06623" lon="2.11837">
        <ele>88.2</ele>
        <time>2024-03-27T14:57:58Z</time>
      </trkpt>
      <trkpt lat="50.06623" lon="2.11837">
        <ele>88.2</ele>
        <time>2024-03-27T14:57:59Z</time>
      </trkpt>
      <trkpt lat="50.06622" lon="2.11837">
        <ele>88.1</ele>
        <time>2024-03-27T14:58:00Z</time>
      </trkpt>
      <trkpt lat="50.06621" lon="2.11836">
        <ele>88.1</ele>
        <time>2024-03-27T14:58:01Z</time>
      </trkpt>
      <trkpt lat="50.06619" lon="2.11836">
        <ele>88.1</ele>
        <time>2024-03-27T14:58:02Z</time>
      </trkpt>
      <trkpt lat="50.06618" lon="2.11836">
        <ele>88</ele>
        <time>2024-03-27T14:58:03Z</time>
      </trkpt>
      <trkpt lat="50.06617" lon="2.11835">
        <ele>88</ele>
        <time>2024-03-27T14:58:04Z</time>
      </trkpt>
      <trkpt lat="50.06616" lon="2.11835">
        <ele>88</ele>
        <time>2024-03-27T14:58:05Z</time>
      </trkpt>
      <trkpt lat="50.06615" lon="2.11834">
        <ele>87.9</ele>
        <time>2024-03-27T14:58:06Z</time>
      </trkpt>
      <trkpt lat="50.06613" lon="2.11834">
        <ele>87.9</ele>
        <time>2024-03-27T14:58:07Z</time>
      </trkpt>
      <trkpt lat="50.06612" lon="2.11833">
        <ele>87.8</ele>
        <time>2024-03-27T14:58:08Z</time>
      </trkpt>
      <trkpt lat="50.06611" lon="2.11833">
        <ele>87.8</ele>
        <time>2024-03-27T14:58:09Z</time>
      </trkpt>
      <trkpt lat="50.0661" lon="2.11833">
        <ele>87.8</ele>
        <time>2024-03-27T14:58:10Z</time>
      </trkpt>
      <trkpt lat="50.06609" lon="2.11832">
        <ele>87.7</ele>
        <time>2024-03-27T14:58:11Z</time>
      </trkpt>
      <trkpt lat="50.06608" lon="2.11832">
        <ele>87.7</ele>
        <time>2024-03-27T14:58:12Z</time>
      </trkpt>
      <trkpt lat="50.06607" lon="2.11832">
        <ele>87.7</ele>
        <time>2024-03-27T14:58:13Z</time>
      </trkpt>
      <trkpt lat="50.06606" lon="2.11831">
        <ele>87.6</ele>
        <time>2024-03-27T14:58:14Z</time>
      </trkpt>
      <trkpt lat="50.06605" lon="2.1183">
        <ele>87.6</ele>
        <time>2024-03-27T14:58:15Z</time>
      </trkpt>
      <trkpt lat="50.06603" lon="2.11829">
        <ele>87.5</ele>
        <time>2024-03-27T14:58:16Z</time>
      </trkpt>
      <trkpt lat="50.06602" lon="2.11829">
        <ele>87.5</ele>
        <time>2024-03-27T14:58:17Z</time>
      </trkpt>
      <trkpt lat="50.06601" lon="2.11828">
        <ele>87.5</ele>
        <time>2024-03-27T14:58:18Z</time>
      </trkpt>
      <trkpt lat="50.06599" lon="2.11828">
        <ele>87.4</ele>
        <time>2024-03-27T14:58:19Z</time>
      </trkpt>
      <trkpt lat="50.06599" lon="2.11827">
        <ele>87.4</ele>
        <time>2024-03-27T14:58:20Z</time>
      </trkpt>
      <trkpt lat="50.06598" lon="2.11827">
        <ele>87.4</ele>
        <time>2024-03-27T14:58:21Z</time>
      </trkpt>
      <trkpt lat="50.06596" lon="2.11826">
        <ele>87.3</ele>
        <time>2024-03-27T14:58:22Z</time>
      </trkpt>
      <trkpt lat="50.06595" lon="2.11826">
        <ele>87.3</ele>
        <time>2024-03-27T14:58:23Z</time>
      </trkpt>
      <trkpt lat="50.06594" lon="2.11825">
        <ele>87.3</ele>
        <time>2024-03-27T14:58:24Z</time>
      </trkpt>
      <trkpt lat="50.06593" lon="2.11825">
        <ele>87.2</ele>
        <time>2024-03-27T14:58:25Z</time>
      </trkpt>
      <trkpt lat="50.06592" lon="2.11825">
        <ele>87.2</ele>
        <time>2024-03-27T14:58:26Z</time>
      </trkpt>
      <trkpt lat="50.06591" lon="2.11824">
        <ele>87.2</ele>
        <time>2024-03-27T14:58:27Z</time>
      </trkpt>
      <trkpt lat="50.0659" lon="2.11823">
        <ele>87.1</ele>
        <time>2024-03-27T14:58:28Z</time>
      </trkpt>
      <trkpt lat="50.06589" lon="2.11823">
        <ele>87.1</ele>
        <time>2024-03-27T14:58:29Z</time>
      </trkpt>
      <trkpt lat="50.06588" lon="2.11822">
        <ele>87</ele>
        <time>2024-03-27T14:58:30Z</time>
      </trkpt>
      <trkpt lat="50.06587" lon="2.11822">
        <ele>87</ele>
        <time>2024-03-27T14:58:31Z</time>
      </trkpt>
      <trkpt lat="50.06586" lon="2.11821">
        <ele>87</ele>
        <time>2024-03-27T14:58:32Z</time>
      </trkpt>
      <trkpt lat="50.06585" lon="2.11821">
        <ele>86.9</ele>
        <time>2024-03-27T14:58:33Z</time>
      </trkpt>
      <trkpt lat="50.06584" lon="2.1182">
        <ele>86.9</ele>
        <time>2024-03-27T14:58:34Z</time>
      </trkpt>
      <trkpt lat="50.06583" lon="2.1182">
        <ele>86.9</ele>
        <time>2024-03-27T14:58:35Z</time>
      </trkpt>
      <trkpt lat="50.06582" lon="2.11819">
        <ele>86.8</ele>
        <time>2024-03-27T14:58:36Z</time>
      </trkpt>
      <trkpt lat="50.0658" lon="2.11818">
        <ele>86.8</ele>
        <time>2024-03-27T14:58:37Z</time>
      </trkpt>
      <trkpt lat="50.06579" lon="2.11817">
        <ele>86.7</ele>
        <time>2024-03-27T14:58:38Z</time>
      </trkpt>
      <trkpt lat="50.06578" lon="2.11817">
        <ele>86.7</ele>
        <time>2024-03-27T14:58:39Z</time>
      </trkpt>
      <trkpt lat="50.06576" lon="2.11816">
        <ele>86.6</ele>
        <time>2024-03-27T14:58:40Z</time>
      </trkpt>
      <trkpt lat="50.06576" lon="2.11815">
        <ele>86.6</ele>
        <time>2024-03-27T14:58:41Z</time>
      </trkpt>
      <trkpt lat="50.06575" lon="2.11815">
        <ele>86.6</ele>
        <time>2024-03-27T14:58:42Z</time>
      </trkpt>
      <trkpt lat="50.06574" lon="2.11814">
        <ele>86.5</ele>
        <time>2024-03-27T14:58:43Z</time>
      </trkpt>
      <trkpt lat="50.06572" lon="2.11813">
        <ele>86.5</ele>
        <time>2024-03-27T14:58:44Z</time>
      </trkpt>
      <trkpt lat="50.0657" lon="2.11812">
        <ele>86.4</ele>
        <time>2024-03-27T14:58:45Z</time>
      </trkpt>
      <trkpt lat="50.06569" lon="2.11811">
        <ele>86.4</ele>
        <time>2024-03-27T14:58:46Z</time>
      </trkpt>
      <trkpt lat="50.06568" lon="2.1181">
        <ele>86.3</ele>
        <time>2024-03-27T14:58:47Z</time>
      </trkpt>
      <trkpt lat="50.06567" lon="2.1181">
        <ele>86.3</ele>
        <time>2024-03-27T14:58:48Z</time>
      </trkpt>
      <trkpt lat="50.06566" lon="2.11809">
        <ele>86.3</ele>
        <time>2024-03-27T14:58:49Z</time>
      </trkpt>
      <trkpt lat="50.06564" lon="2.11808">
        <ele>86.2</ele>
        <time>2024-03-27T14:58:50Z</time>
      </trkpt>
      <trkpt lat="50.06563" lon="2.11808">
        <ele>86.2</ele>
        <time>2024-03-27T14:58:51Z</time>
      </trkpt>
      <trkpt lat="50.06563" lon="2.11807">
        <ele>86.1</ele>
        <time>2024-03-27T14:58:52Z</time>
      </trkpt>
      <trkpt lat="50.06561" lon="2.11806">
        <ele>86.1</ele>
        <time>2024-03-27T14:58:53Z</time>
      </trkpt>
      <trkpt lat="50.0656" lon="2.11806">
        <ele>86</ele>
        <time>2024-03-27T14:58:54Z</time>
      </trkpt>
      <trkpt lat="50.06559" lon="2.11805">
        <ele>86</ele>
        <time>2024-03-27T14:58:55Z</time>
      </trkpt>
      <trkpt lat="50.06558" lon="2.11805">
        <ele>86</ele>
        <time>2024-03-27T14:58:56Z</time>
      </trkpt>
      <trkpt lat="50.06557" lon="2.11805">
        <ele>85.9</ele>
        <time>2024-03-27T14:58:57Z</time>
      </trkpt>
      <trkpt lat="50.06555" lon="2.11804">
        <ele>85.9</ele>
        <time>2024-03-27T14:58:58Z</time>
      </trkpt>
      <trkpt lat="50.06554" lon="2.11804">
        <ele>85.8</ele>
        <time>2024-03-27T14:58:59Z</time>
      </trkpt>
      <trkpt lat="50.06553" lon="2.11804">
        <ele>85.8</ele>
        <time>2024-03-27T14:59:00Z</time>
      </trkpt>
      <trkpt lat="50.06552" lon="2.11803">
        <ele>85.8</ele>
        <time>2024-03-27T14:59:01Z</time>
      </trkpt>
      <trkpt lat="50.06551" lon="2.11803">
        <ele>85.7</ele>
        <time>2024-03-27T14:59:02Z</time>
      </trkpt>
      <trkpt lat="50.0655" lon="2.11802">
        <ele>85.7</ele>
        <time>2024-03-27T14:59:03Z</time>
      </trkpt>
      <trkpt lat="50.06549" lon="2.11802">
        <ele>85.7</ele>
        <time>2024-03-27T14:59:04Z</time>
      </trkpt>
      <trkpt lat="50.06547" lon="2.11801">
        <ele>85.6</ele>
        <time>2024-03-27T14:59:05Z</time>
      </trkpt>
      <trkpt lat="50.06546" lon="2.11801">
        <ele>85.6</ele>
        <time>2024-03-27T14:59:06Z</time>
      </trkpt>
      <trkpt lat="50.06546" lon="2.11801">
        <ele>85.5</ele>
        <time>2024-03-27T14:59:07Z</time>
      </trkpt>
      <trkpt lat="50.06545" lon="2.118">
        <ele>85.5</ele>
        <time>2024-03-27T14:59:08Z</time>
      </trkpt>
      <trkpt lat="50.06544" lon="2.11799">
        <ele>85.5</ele>
        <time>2024-03-27T14:59:09Z</time>
      </trkpt>
      <trkpt lat="50.06543" lon="2.11799">
        <ele>85.4</ele>
        <time>2024-03-27T14:59:10Z</time>
      </trkpt>
      <trkpt lat="50.06542" lon="2.11798">
        <ele>85.4</ele>
        <time>2024-03-27T14:59:11Z</time>
      </trkpt>
      <trkpt lat="50.06541" lon="2.11798">
        <ele>85.4</ele>
        <time>2024-03-27T14:59:12Z</time>
      </trkpt>
      <trkpt lat="50.0654" lon="2.11797">
        <ele>85.3</ele>
        <time>2024-03-27T14:59:13Z</time>
      </trkpt>
      <trkpt lat="50.06539" lon="2.11797">
        <ele>85.3</ele>
        <time>2024-03-27T14:59:14Z</time>
      </trkpt>
      <trkpt lat="50.06537" lon="2.11796">
        <ele>85.3</ele>
        <time>2024-03-27T14:59:15Z</time>
      </trkpt>
      <trkpt lat="50.06536" lon="2.11796">
        <ele>85.2</ele>
        <time>2024-03-27T14:59:16Z</time>
      </trkpt>
      <trkpt lat="50.06534" lon="2.11795">
        <ele>85.1</ele>
        <time>2024-03-27T14:59:17Z</time>
      </trkpt>
      <trkpt lat="50.06534" lon="2.11795">
        <ele>85.1</ele>
        <time>2024-03-27T14:59:18Z</time>
      </trkpt>
      <trkpt lat="50.06533" lon="2.11794">
        <ele>85.1</ele>
        <time>2024-03-27T14:59:19Z</time>
      </trkpt>
      <trkpt lat="50.06531" lon="2.11793">
        <ele>85</ele>
        <time>2024-03-27T14:59:20Z</time>
      </trkpt>
      <trkpt lat="50.0653" lon="2.11793">
        <ele>85</ele>
        <time>2024-03-27T14:59:21Z</time>
      </trkpt>
      <trkpt lat="50.06529" lon="2.11793">
        <ele>85</ele>
        <time>2024-03-27T14:59:22Z</time>
      </trkpt>
      <trkpt lat="50.06527" lon="2.11792">
        <ele>84.9</ele>
        <time>2024-03-27T14:59:23Z</time>
      </trkpt>
      <trkpt lat="50.06526" lon="2.11791">
        <ele>84.8</ele>
        <time>2024-03-27T14:59:24Z</time>
      </trkpt>
      <trkpt lat="50.06524" lon="2.1179">
        <ele>84.8</ele>
        <time>2024-03-27T14:59:25Z</time>
      </trkpt>
      <trkpt lat="50.06523" lon="2.1179">
        <ele>84.7</ele>
        <time>2024-03-27T14:59:26Z</time>
      </trkpt>
      <trkpt lat="50.06522" lon="2.11789">
        <ele>84.7</ele>
        <time>2024-03-27T14:59:27Z</time>
      </trkpt>
      <trkpt lat="50.06521" lon="2.11789">
        <ele>84.7</ele>
        <time>2024-03-27T14:59:28Z</time>
      </trkpt>
      <trkpt lat="50.0652" lon="2.11788">
        <ele>84.6</ele>
        <time>2024-03-27T14:59:29Z</time>
      </trkpt>
      <trkpt lat="50.06519" lon="2.11788">
        <ele>84.6</ele>
        <time>2024-03-27T14:59:30Z</time>
      </trkpt>
      <trkpt lat="50.06518" lon="2.11787">
        <ele>84.6</ele>
        <time>2024-03-27T14:59:31Z</time>
      </trkpt>
      <trkpt lat="50.06517" lon="2.11787">
        <ele>84.5</ele>
        <time>2024-03-27T14:59:32Z</time>
      </trkpt>
      <trkpt lat="50.06516" lon="2.11786">
        <ele>84.5</ele>
        <time>2024-03-27T14:59:33Z</time>
      </trkpt>
      <trkpt lat="50.06515" lon="2.11785">
        <ele>84.5</ele>
        <time>2024-03-27T14:59:34Z</time>
      </trkpt>
      <trkpt lat="50.06514" lon="2.11785">
        <ele>84.4</ele>
        <time>2024-03-27T14:59:35Z</time>
      </trkpt>
      <trkpt lat="50.06512" lon="2.11784">
        <ele>84.4</ele>
        <time>2024-03-27T14:59:36Z</time>
      </trkpt>
      <trkpt lat="50.06511" lon="2.11784">
        <ele>84.4</ele>
        <time>2024-03-27T14:59:37Z</time>
      </trkpt>
      <trkpt lat="50.0651" lon="2.11783">
        <ele>84.3</ele>
        <time>2024-03-27T14:59:38Z</time>
      </trkpt>
      <trkpt lat="50.06509" lon="2.11783">
        <ele>84.3</ele>
        <time>2024-03-27T14:59:39Z</time>
      </trkpt>
      <trkpt lat="50.06508" lon="2.11783">
        <ele>84.3</ele>
        <time>2024-03-27T14:59:40Z</time>
      </trkpt>
      <trkpt lat="50.06507" lon="2.11782">
        <ele>84.2</ele>
        <time>2024-03-27T14:59:41Z</time>
      </trkpt>
      <trkpt lat="50.06506" lon="2.11782">
        <ele>84.2</ele>
        <time>2024-03-27T14:59:42Z</time>
      </trkpt>
      <trkpt lat="50.06505" lon="2.11782">
        <ele>84.2</ele>
        <time>2024-03-27T14:59:43Z</time>
      </trkpt>
      <trkpt lat="50.06504" lon="2.11782">
        <ele>84.2</ele>
        <time>2024-03-27T14:59:44Z</time>
      </trkpt>
      <trkpt lat="50.06503" lon="2.11782">
        <ele>84.1</ele>
        <time>2024-03-27T14:59:45Z</time>
      </trkpt>
      <trkpt lat="50.06502" lon="2.11781">
        <ele>84.1</ele>
        <time>2024-03-27T14:59:46Z</time>
      </trkpt>
      <trkpt lat="50.06501" lon="2.11781">
        <ele>84.1</ele>
        <time>2024-03-27T14:59:47Z</time>
      </trkpt>
      <trkpt lat="50.065" lon="2.1178">
        <ele>84.1</ele>
        <time>2024-03-27T14:59:48Z</time>
      </trkpt>
      <trkpt lat="50.06499" lon="2.1178">
        <ele>84</ele>
        <time>2024-03-27T14:59:49Z</time>
      </trkpt>
      <trkpt lat="50.06497" lon="2.1178">
        <ele>84</ele>
        <time>2024-03-27T14:59:50Z</time>
      </trkpt>
      <trkpt lat="50.06496" lon="2.11779">
        <ele>84</ele>
        <time>2024-03-27T14:59:51Z</time>
      </trkpt>
      <trkpt lat="50.06495" lon="2.11779">
        <ele>83.9</ele>
        <time>2024-03-27T14:59:52Z</time>
      </trkpt>
      <trkpt lat="50.06494" lon="2.11779">
        <ele>83.9</ele>
        <time>2024-03-27T14:59:53Z</time>
      </trkpt>
      <trkpt lat="50.06493" lon="2.11778">
        <ele>83.9</ele>
        <time>2024-03-27T14:59:54Z</time>
      </trkpt>
      <trkpt lat="50.06491" lon="2.11777">
        <ele>83.8</ele>
        <time>2024-03-27T14:59:55Z</time>
      </trkpt>
      <trkpt lat="50.0649" lon="2.11777">
        <ele>83.8</ele>
        <time>2024-03-27T14:59:56Z</time>
      </trkpt>
      <trkpt lat="50.06489" lon="2.11777">
        <ele>83.8</ele>
        <time>2024-03-27T14:59:57Z</time>
      </trkpt>
      <trkpt lat="50.06488" lon="2.11776">
        <ele>83.7</ele>
        <time>2024-03-27T14:59:58Z</time>
      </trkpt>
      <trkpt lat="50.06487" lon="2.11776">
        <ele>83.7</ele>
        <time>2024-03-27T14:59:59Z</time>
      </trkpt>
      <trkpt lat="50.06485" lon="2.11776">
        <ele>83.7</ele>
        <time>2024-03-27T15:00:00Z</time>
      </trkpt>
      <trkpt lat="50.06484" lon="2.11776">
        <ele>83.6</ele>
        <time>2024-03-27T15:00:01Z</time>
      </trkpt>
      <trkpt lat="50.06483" lon="2.11776">
        <ele>83.6</ele>
        <time>2024-03-27T15:00:02Z</time>
      </trkpt>
      <trkpt lat="50.06482" lon="2.11775">
        <ele>83.6</ele>
        <time>2024-03-27T15:00:03Z</time>
      </trkpt>
      <trkpt lat="50.06481" lon="2.11775">
        <ele>83.6</ele>
        <time>2024-03-27T15:00:04Z</time>
      </trkpt>
      <trkpt lat="50.0648" lon="2.11775">
        <ele>83.5</ele>
        <time>2024-03-27T15:00:05Z</time>
      </trkpt>
      <trkpt lat="50.06479" lon="2.11775">
        <ele>83.5</ele>
        <time>2024-03-27T15:00:06Z</time>
      </trkpt>
      <trkpt lat="50.06478" lon="2.11774">
        <ele>83.5</ele>
        <time>2024-03-27T15:00:07Z</time>
      </trkpt>
      <trkpt lat="50.06477" lon="2.11774">
        <ele>83.4</ele>
        <time>2024-03-27T15:00:08Z</time>
      </trkpt>
      <trkpt lat="50.06476" lon="2.11774">
        <ele>83.4</ele>
        <time>2024-03-27T15:00:09Z</time>
      </trkpt>
      <trkpt lat="50.06475" lon="2.11773">
        <ele>83.4</ele>
        <time>2024-03-27T15:00:10Z</time>
      </trkpt>
      <trkpt lat="50.06473" lon="2.11773">
        <ele>83.3</ele>
        <time>2024-03-27T15:00:11Z</time>
      </trkpt>
      <trkpt lat="50.06472" lon="2.11772">
        <ele>83.3</ele>
        <time>2024-03-27T15:00:12Z</time>
      </trkpt>
      <trkpt lat="50.06471" lon="2.11771">
        <ele>83.3</ele>
        <time>2024-03-27T15:00:13Z</time>
      </trkpt>
      <trkpt lat="50.0647" lon="2.11771">
        <ele>83.3</ele>
        <time>2024-03-27T15:00:14Z</time>
      </trkpt>
      <trkpt lat="50.06469" lon="2.1177">
        <ele>83.2</ele>
        <time>2024-03-27T15:00:15Z</time>
      </trkpt>
      <trkpt lat="50.06468" lon="2.1177">
        <ele>83.2</ele>
        <time>2024-03-27T15:00:16Z</time>
      </trkpt>
      <trkpt lat="50.06467" lon="2.11769">
        <ele>83.2</ele>
        <time>2024-03-27T15:00:17Z</time>
      </trkpt>
      <trkpt lat="50.06466" lon="2.11769">
        <ele>83.2</ele>
        <time>2024-03-27T15:00:18Z</time>
      </trkpt>
      <trkpt lat="50.06465" lon="2.11768">
        <ele>83.1</ele>
        <time>2024-03-27T15:00:19Z</time>
      </trkpt>
      <trkpt lat="50.06464" lon="2.11767">
        <ele>83.1</ele>
        <time>2024-03-27T15:00:20Z</time>
      </trkpt>
      <trkpt lat="50.06463" lon="2.11766">
        <ele>83.1</ele>
        <time>2024-03-27T15:00:21Z</time>
      </trkpt>
      <trkpt lat="50.06461" lon="2.11765">
        <ele>83</ele>
        <time>2024-03-27T15:00:22Z</time>
      </trkpt>
      <trkpt lat="50.06461" lon="2.11765">
        <ele>83</ele>
        <time>2024-03-27T15:00:23Z</time>
      </trkpt>
      <trkpt lat="50.0646" lon="2.11764">
        <ele>83</ele>
        <time>2024-03-27T15:00:24Z</time>
      </trkpt>
      <trkpt lat="50.06458" lon="2.11763">
        <ele>82.9</ele>
        <time>2024-03-27T15:00:25Z</time>
      </trkpt>
      <trkpt lat="50.06457" lon="2.11762">
        <ele>82.9</ele>
        <time>2024-03-27T15:00:26Z</time>
      </trkpt>
      <trkpt lat="50.06456" lon="2.11762">
        <ele>82.9</ele>
        <time>2024-03-27T15:00:27Z</time>
      </trkpt>
      <trkpt lat="50.06454" lon="2.11761">
        <ele>82.9</ele>
        <time>2024-03-27T15:00:28Z</time>
      </trkpt>
      <trkpt lat="50.06453" lon="2.11761">
        <ele>82.8</ele>
        <time>2024-03-27T15:00:29Z</time>
      </trkpt>
      <trkpt lat="50.06453" lon="2.1176">
        <ele>82.8</ele>
        <time>2024-03-27T15:00:30Z</time>
      </trkpt>
      <trkpt lat="50.06451" lon="2.1176">
        <ele>82.8</ele>
        <time>2024-03-27T15:00:31Z</time>
      </trkpt>
      <trkpt lat="50.0645" lon="2.1176">
        <ele>82.8</ele>
        <time>2024-03-27T15:00:32Z</time>
      </trkpt>
      <trkpt lat="50.06449" lon="2.11759">
        <ele>82.7</ele>
        <time>2024-03-27T15:00:33Z</time>
      </trkpt>
      <trkpt lat="50.06447" lon="2.11758">
        <ele>82.7</ele>
        <time>2024-03-27T15:00:34Z</time>
      </trkpt>
      <trkpt lat="50.06447" lon="2.11758">
        <ele>82.7</ele>
        <time>2024-03-27T15:00:35Z</time>
      </trkpt>
      <trkpt lat="50.06446" lon="2.11758">
        <ele>82.6</ele>
        <time>2024-03-27T15:00:36Z</time>
      </trkpt>
      <trkpt lat="50.06444" lon="2.11757">
        <ele>82.6</ele>
        <time>2024-03-27T15:00:37Z</time>
      </trkpt>
      <trkpt lat="50.06443" lon="2.11757">
        <ele>82.5</ele>
        <time>2024-03-27T15:00:38Z</time>
      </trkpt>
      <trkpt lat="50.06442" lon="2.11756">
        <ele>82.5</ele>
        <time>2024-03-27T15:00:39Z</time>
      </trkpt>
      <trkpt lat="50.0644" lon="2.11756">
        <ele>82.5</ele>
        <time>2024-03-27T15:00:40Z</time>
      </trkpt>
      <trkpt lat="50.06439" lon="2.11755">
        <ele>82.4</ele>
        <time>2024-03-27T15:00:41Z</time>
      </trkpt>
      <trkpt lat="50.06439" lon="2.11755">
        <ele>82.4</ele>
        <time>2024-03-27T15:00:42Z</time>
      </trkpt>
      <trkpt lat="50.06437" lon="2.11755">
        <ele>82.4</ele>
        <time>2024-03-27T15:00:43Z</time>
      </trkpt>
      <trkpt lat="50.06436" lon="2.11754">
        <ele>82.4</ele>
        <time>2024-03-27T15:00:44Z</time>
      </trkpt>
      <trkpt lat="50.06436" lon="2.11754">
        <ele>82.3</ele>
        <time>2024-03-27T15:00:45Z</time>
      </trkpt>
      <trkpt lat="50.06435" lon="2.11753">
        <ele>82.3</ele>
        <time>2024-03-27T15:00:46Z</time>
      </trkpt>
      <trkpt lat="50.06434" lon="2.11753">
        <ele>82.3</ele>
        <time>2024-03-27T15:00:47Z</time>
      </trkpt>
      <trkpt lat="50.06432" lon="2.11753">
        <ele>82.2</ele>
        <time>2024-03-27T15:00:48Z</time>
      </trkpt>
      <trkpt lat="50.06431" lon="2.11752">
        <ele>82.2</ele>
        <time>2024-03-27T15:00:49Z</time>
      </trkpt>
      <trkpt lat="50.0643" lon="2.11752">
        <ele>82.2</ele>
        <time>2024-03-27T15:00:50Z</time>
      </trkpt>
      <trkpt lat="50.06429" lon="2.11751">
        <ele>82.1</ele>
        <time>2024-03-27T15:00:51Z</time>
      </trkpt>
      <trkpt lat="50.06427" lon="2.1175">
        <ele>82.1</ele>
        <time>2024-03-27T15:00:52Z</time>
      </trkpt>
      <trkpt lat="50.06426" lon="2.1175">
        <ele>82</ele>
        <time>2024-03-27T15:00:53Z</time>
      </trkpt>
      <trkpt lat="50.06425" lon="2.1175">
        <ele>82</ele>
        <time>2024-03-27T15:00:54Z</time>
      </trkpt>
      <trkpt lat="50.06424" lon="2.11749">
        <ele>82</ele>
        <time>2024-03-27T15:00:55Z</time>
      </trkpt>
      <trkpt lat="50.06423" lon="2.11748">
        <ele>81.9</ele>
        <time>2024-03-27T15:00:56Z</time>
      </trkpt>
      <trkpt lat="50.06421" lon="2.11747">
        <ele>81.9</ele>
        <time>2024-03-27T15:00:57Z</time>
      </trkpt>
      <trkpt lat="50.0642" lon="2.11747">
        <ele>81.8</ele>
        <time>2024-03-27T15:00:58Z</time>
      </trkpt>
      <trkpt lat="50.06419" lon="2.11747">
        <ele>81.8</ele>
        <time>2024-03-27T15:00:59Z</time>
      </trkpt>
      <trkpt lat="50.06418" lon="2.11747">
        <ele>81.8</ele>
        <time>2024-03-27T15:01:00Z</time>
      </trkpt>
      <trkpt lat="50.06417" lon="2.11746">
        <ele>81.8</ele>
        <time>2024-03-27T15:01:01Z</time>
      </trkpt>
      <trkpt lat="50.06416" lon="2.11746">
        <ele>81.7</ele>
        <time>2024-03-27T15:01:02Z</time>
      </trkpt>
      <trkpt lat="50.06414" lon="2.11745">
        <ele>81.7</ele>
        <time>2024-03-27T15:01:03Z</time>
      </trkpt>
      <trkpt lat="50.06414" lon="2.11746">
        <ele>81.7</ele>
        <time>2024-03-27T15:01:04Z</time>
      </trkpt>
      <trkpt lat="50.06413" lon="2.11746">
        <ele>81.6</ele>
        <time>2024-03-27T15:01:05Z</time>
      </trkpt>
      <trkpt lat="50.06412" lon="2.11746">
        <ele>81.6</ele>
        <time>2024-03-27T15:01:06Z</time>
      </trkpt>
      <trkpt lat="50.06411" lon="2.11746">
        <ele>81.6</ele>
        <time>2024-03-27T15:01:07Z</time>
      </trkpt>
      <trkpt lat="50.06409" lon="2.11745">
        <ele>81.5</ele>
        <time>2024-03-27T15:01:08Z</time>
      </trkpt>
      <trkpt lat="50.06408" lon="2.11745">
        <ele>81.5</ele>
        <time>2024-03-27T15:01:09Z</time>
      </trkpt>
      <trkpt lat="50.06407" lon="2.11744">
        <ele>81.5</ele>
        <time>2024-03-27T15:01:10Z</time>
      </trkpt>
      <trkpt lat="50.06405" lon="2.11745">
        <ele>81.4</ele>
        <time>2024-03-27T15:01:11Z</time>
      </trkpt>
      <trkpt lat="50.06404" lon="2.11745">
        <ele>81.4</ele>
        <time>2024-03-27T15:01:12Z</time>
      </trkpt>
      <trkpt lat="50.06404" lon="2.11745">
        <ele>81.3</ele>
        <time>2024-03-27T15:01:13Z</time>
      </trkpt>
      <trkpt lat="50.06402" lon="2.11745">
        <ele>81.3</ele>
        <time>2024-03-27T15:01:14Z</time>
      </trkpt>
      <trkpt lat="50.06401" lon="2.11745">
        <ele>81.3</ele>
        <time>2024-03-27T15:01:15Z</time>
      </trkpt>
      <trkpt lat="50.064" lon="2.11744">
        <ele>81.2</ele>
        <time>2024-03-27T15:01:16Z</time>
      </trkpt>
      <trkpt lat="50.06399" lon="2.11744">
        <ele>81.2</ele>
        <time>2024-03-27T15:01:17Z</time>
      </trkpt>
      <trkpt lat="50.06398" lon="2.11743">
        <ele>81.2</ele>
        <time>2024-03-27T15:01:18Z</time>
      </trkpt>
      <trkpt lat="50.06397" lon="2.11743">
        <ele>81.1</ele>
        <time>2024-03-27T15:01:19Z</time>
      </trkpt>
      <trkpt lat="50.06396" lon="2.11742">
        <ele>81.1</ele>
        <time>2024-03-27T15:01:20Z</time>
      </trkpt>
      <trkpt lat="50.06395" lon="2.11742">
        <ele>81.1</ele>
        <time>2024-03-27T15:01:21Z</time>
      </trkpt>
      <trkpt lat="50.06394" lon="2.11742">
        <ele>81</ele>
        <time>2024-03-27T15:01:22Z</time>
      </trkpt>
      <trkpt lat="50.06392" lon="2.11741">
        <ele>81</ele>
        <time>2024-03-27T15:01:23Z</time>
      </trkpt>
      <trkpt lat="50.06391" lon="2.11741">
        <ele>80.9</ele>
        <time>2024-03-27T15:01:24Z</time>
      </trkpt>
      <trkpt lat="50.0639" lon="2.1174">
        <ele>80.9</ele>
        <time>2024-03-27T15:01:25Z</time>
      </trkpt>
      <trkpt lat="50.06388" lon="2.11739">
        <ele>80.8</ele>
        <time>2024-03-27T15:01:26Z</time>
      </trkpt>
      <trkpt lat="50.06387" lon="2.11739">
        <ele>80.8</ele>
        <time>2024-03-27T15:01:27Z</time>
      </trkpt>
      <trkpt lat="50.06386" lon="2.11738">
        <ele>80.8</ele>
        <time>2024-03-27T15:01:28Z</time>
      </trkpt>
      <trkpt lat="50.06386" lon="2.11737">
        <ele>80.7</ele>
        <time>2024-03-27T15:01:29Z</time>
      </trkpt>
      <trkpt lat="50.06384" lon="2.11736">
        <ele>80.7</ele>
        <time>2024-03-27T15:01:30Z</time>
      </trkpt>
      <trkpt lat="50.06383" lon="2.11736">
        <ele>80.7</ele>
        <time>2024-03-27T15:01:31Z</time>
      </trkpt>
      <trkpt lat="50.06382" lon="2.11735">
        <ele>80.6</ele>
        <time>2024-03-27T15:01:32Z</time>
      </trkpt>
      <trkpt lat="50.0638" lon="2.11734">
        <ele>80.6</ele>
        <time>2024-03-27T15:01:33Z</time>
      </trkpt>
      <trkpt lat="50.06378" lon="2.11733">
        <ele>80.5</ele>
        <time>2024-03-27T15:01:34Z</time>
      </trkpt>
      <trkpt lat="50.06377" lon="2.11732">
        <ele>80.5</ele>
        <time>2024-03-27T15:01:35Z</time>
      </trkpt>
      <trkpt lat="50.06376" lon="2.11732">
        <ele>80.5</ele>
        <time>2024-03-27T15:01:36Z</time>
      </trkpt>
      <trkpt lat="50.06375" lon="2.11732">
        <ele>80.4</ele>
        <time>2024-03-27T15:01:37Z</time>
      </trkpt>
      <trkpt lat="50.06374" lon="2.11732">
        <ele>80.4</ele>
        <time>2024-03-27T15:01:38Z</time>
      </trkpt>
      <trkpt lat="50.06373" lon="2.11731">
        <ele>80.4</ele>
        <time>2024-03-27T15:01:39Z</time>
      </trkpt>
      <trkpt lat="50.06372" lon="2.11731">
        <ele>80.3</ele>
        <time>2024-03-27T15:01:40Z</time>
      </trkpt>
      <trkpt lat="50.06371" lon="2.1173">
        <ele>80.3</ele>
        <time>2024-03-27T15:01:41Z</time>
      </trkpt>
      <trkpt lat="50.0637" lon="2.1173">
        <ele>80.3</ele>
        <time>2024-03-27T15:01:42Z</time>
      </trkpt>
      <trkpt lat="50.06369" lon="2.1173">
        <ele>80.2</ele>
        <time>2024-03-27T15:01:43Z</time>
      </trkpt>
      <trkpt lat="50.06368" lon="2.11729">
        <ele>80.2</ele>
        <time>2024-03-27T15:01:44Z</time>
      </trkpt>
      <trkpt lat="50.06368" lon="2.11729">
        <ele>80.2</ele>
        <time>2024-03-27T15:01:45Z</time>
      </trkpt>
      <trkpt lat="50.06367" lon="2.11729">
        <ele>80.2</ele>
        <time>2024-03-27T15:01:46Z</time>
      </trkpt>
      <trkpt lat="50.06366" lon="2.11729">
        <ele>80.1</ele>
        <time>2024-03-27T15:01:47Z</time>
      </trkpt>
      <trkpt lat="50.06365" lon="2.11728">
        <ele>80.1</ele>
        <time>2024-03-27T15:01:48Z</time>
      </trkpt>
      <trkpt lat="50.06364" lon="2.11728">
        <ele>80.1</ele>
        <time>2024-03-27T15:01:49Z</time>
      </trkpt>
      <trkpt lat="50.06362" lon="2.11727">
        <ele>80</ele>
        <time>2024-03-27T15:01:50Z</time>
      </trkpt>
      <trkpt lat="50.06361" lon="2.11726">
        <ele>80</ele>
        <time>2024-03-27T15:01:51Z</time>
      </trkpt>
      <trkpt lat="50.0636" lon="2.11726">
        <ele>80</ele>
        <time>2024-03-27T15:01:52Z</time>
      </trkpt>
      <trkpt lat="50.06359" lon="2.11725">
        <ele>80</ele>
        <time>2024-03-27T15:01:53Z</time>
      </trkpt>
      <trkpt lat="50.06358" lon="2.11724">
        <ele>79.9</ele>
        <time>2024-03-27T15:01:54Z</time>
      </trkpt>
      <trkpt lat="50.06357" lon="2.11724">
        <ele>79.9</ele>
        <time>2024-03-27T15:01:55Z</time>
      </trkpt>
      <trkpt lat="50.06356" lon="2.11723">
        <ele>79.9</ele>
        <time>2024-03-27T15:01:56Z</time>
      </trkpt>
      <trkpt lat="50.06355" lon="2.11722">
        <ele>79.9</ele>
        <time>2024-03-27T15:01:57Z</time>
      </trkpt>
      <trkpt lat="50.06353" lon="2.11722">
        <ele>79.9</ele>
        <time>2024-03-27T15:01:58Z</time>
      </trkpt>
      <trkpt lat="50.06352" lon="2.11721">
        <ele>79.8</ele>
        <time>2024-03-27T15:01:59Z</time>
      </trkpt>
      <trkpt lat="50.06351" lon="2.1172">
        <ele>79.8</ele>
        <time>2024-03-27T15:02:00Z</time>
      </trkpt>
      <trkpt lat="50.0635" lon="2.1172">
        <ele>79.8</ele>
        <time>2024-03-27T15:02:01Z</time>
      </trkpt>
      <trkpt lat="50.06349" lon="2.11719">
        <ele>79.8</ele>
        <time>2024-03-27T15:02:02Z</time>
      </trkpt>
      <trkpt lat="50.06348" lon="2.11719">
        <ele>79.8</ele>
        <time>2024-03-27T15:02:03Z</time>
      </trkpt>
      <trkpt lat="50.06347" lon="2.11718">
        <ele>79.7</ele>
        <time>2024-03-27T15:02:04Z</time>
      </trkpt>
      <trkpt lat="50.06346" lon="2.11718">
        <ele>79.7</ele>
        <time>2024-03-27T15:02:05Z</time>
      </trkpt>
      <trkpt lat="50.06345" lon="2.11717">
        <ele>79.7</ele>
        <time>2024-03-27T15:02:06Z</time>
      </trkpt>
      <trkpt lat="50.06344" lon="2.11717">
        <ele>79.7</ele>
        <time>2024-03-27T15:02:07Z</time>
      </trkpt>
      <trkpt lat="50.06343" lon="2.11716">
        <ele>79.7</ele>
        <time>2024-03-27T15:02:08Z</time>
      </trkpt>
      <trkpt lat="50.06342" lon="2.11716">
        <ele>79.6</ele>
        <time>2024-03-27T15:02:09Z</time>
      </trkpt>
      <trkpt lat="50.0634" lon="2.11716">
        <ele>79.6</ele>
        <time>2024-03-27T15:02:10Z</time>
      </trkpt>
      <trkpt lat="50.06339" lon="2.11715">
        <ele>79.6</ele>
        <time>2024-03-27T15:02:11Z</time>
      </trkpt>
      <trkpt lat="50.06338" lon="2.11714">
        <ele>79.5</ele>
        <time>2024-03-27T15:02:12Z</time>
      </trkpt>
      <trkpt lat="50.06337" lon="2.11714">
        <ele>79.5</ele>
        <time>2024-03-27T15:02:13Z</time>
      </trkpt>
      <trkpt lat="50.06335" lon="2.11713">
        <ele>79.5</ele>
        <time>2024-03-27T15:02:14Z</time>
      </trkpt>
      <trkpt lat="50.06334" lon="2.11713">
        <ele>79.4</ele>
        <time>2024-03-27T15:02:15Z</time>
      </trkpt>
      <trkpt lat="50.06333" lon="2.11713">
        <ele>79.4</ele>
        <time>2024-03-27T15:02:16Z</time>
      </trkpt>
      <trkpt lat="50.06332" lon="2.11712">
        <ele>79.4</ele>
        <time>2024-03-27T15:02:17Z</time>
      </trkpt>
      <trkpt lat="50.06331" lon="2.11712">
        <ele>79.4</ele>
        <time>2024-03-27T15:02:18Z</time>
      </trkpt>
      <trkpt lat="50.0633" lon="2.11711">
        <ele>79.3</ele>
        <time>2024-03-27T15:02:19Z</time>
      </trkpt>
      <trkpt lat="50.06329" lon="2.11711">
        <ele>79.3</ele>
        <time>2024-03-27T15:02:20Z</time>
      </trkpt>
      <trkpt lat="50.06328" lon="2.1171">
        <ele>79.3</ele>
        <time>2024-03-27T15:02:21Z</time>
      </trkpt>
      <trkpt lat="50.06327" lon="2.11709">
        <ele>79.3</ele>
        <time>2024-03-27T15:02:22Z</time>
      </trkpt>
      <trkpt lat="50.06326" lon="2.11709">
        <ele>79.2</ele>
        <time>2024-03-27T15:02:23Z</time>
      </trkpt>
      <trkpt lat="50.06325" lon="2.11709">
        <ele>79.2</ele>
        <time>2024-03-27T15:02:24Z</time>
      </trkpt>
      <trkpt lat="50.06324" lon="2.11708">
        <ele>79.2</ele>
        <time>2024-03-27T15:02:25Z</time>
      </trkpt>
      <trkpt lat="50.06322" lon="2.11707">
        <ele>79.1</ele>
        <time>2024-03-27T15:02:26Z</time>
      </trkpt>
      <trkpt lat="50.06321" lon="2.11707">
        <ele>79.1</ele>
        <time>2024-03-27T15:02:27Z</time>
      </trkpt>
      <trkpt lat="50.0632" lon="2.11706">
        <ele>79.1</ele>
        <time>2024-03-27T15:02:28Z</time>
      </trkpt>
      <trkpt lat="50.06319" lon="2.11706">
        <ele>79</ele>
        <time>2024-03-27T15:02:29Z</time>
      </trkpt>
      <trkpt lat="50.06318" lon="2.11705">
        <ele>79</ele>
        <time>2024-03-27T15:02:30Z</time>
      </trkpt>
      <trkpt lat="50.06317" lon="2.11703">
        <ele>79</ele>
        <time>2024-03-27T15:02:31Z</time>
      </trkpt>
      <trkpt lat="50.06317" lon="2.11703">
        <ele>78.9</ele>
        <time>2024-03-27T15:02:32Z</time>
      </trkpt>
      <trkpt lat="50.06316" lon="2.11702">
        <ele>78.9</ele>
        <time>2024-03-27T15:02:33Z</time>
      </trkpt>
      <trkpt lat="50.06314" lon="2.11701">
        <ele>78.9</ele>
        <time>2024-03-27T15:02:34Z</time>
      </trkpt>
      <trkpt lat="50.06313" lon="2.11701">
        <ele>78.8</ele>
        <time>2024-03-27T15:02:35Z</time>
      </trkpt>
      <trkpt lat="50.06311" lon="2.117">
        <ele>78.8</ele>
        <time>2024-03-27T15:02:36Z</time>
      </trkpt>
      <trkpt lat="50.0631" lon="2.11699">
        <ele>78.7</ele>
        <time>2024-03-27T15:02:37Z</time>
      </trkpt>
      <trkpt lat="50.06309" lon="2.11698">
        <ele>78.7</ele>
        <time>2024-03-27T15:02:38Z</time>
      </trkpt>
      <trkpt lat="50.06306" lon="2.11697">
        <ele>78.6</ele>
        <time>2024-03-27T15:02:39Z</time>
      </trkpt>
      <trkpt lat="50.06305" lon="2.11697">
        <ele>78.6</ele>
        <time>2024-03-27T15:02:40Z</time>
      </trkpt>
      <trkpt lat="50.06304" lon="2.11696">
        <ele>78.5</ele>
        <time>2024-03-27T15:02:41Z</time>
      </trkpt>
      <trkpt lat="50.06302" lon="2.11696">
        <ele>78.5</ele>
        <time>2024-03-27T15:02:42Z</time>
      </trkpt>
      <trkpt lat="50.063" lon="2.11695">
        <ele>78.4</ele>
        <time>2024-03-27T15:02:43Z</time>
      </trkpt>
      <trkpt lat="50.06299" lon="2.11695">
        <ele>78.4</ele>
        <time>2024-03-27T15:02:44Z</time>
      </trkpt>
      <trkpt lat="50.06298" lon="2.11694">
        <ele>78.4</ele>
        <time>2024-03-27T15:02:45Z</time>
      </trkpt>
      <trkpt lat="50.06297" lon="2.11694">
        <ele>78.3</ele>
        <time>2024-03-27T15:02:46Z</time>
      </trkpt>
      <trkpt lat="50.06295" lon="2.11694">
        <ele>78.3</ele>
        <time>2024-03-27T15:02:47Z</time>
      </trkpt>
      <trkpt lat="50.06294" lon="2.11693">
        <ele>78.2</ele>
        <time>2024-03-27T15:02:48Z</time>
      </trkpt>
      <trkpt lat="50.06293" lon="2.11692">
        <ele>78.2</ele>
        <time>2024-03-27T15:02:49Z</time>
      </trkpt>
      <trkpt lat="50.06292" lon="2.11693">
        <ele>78.2</ele>
        <time>2024-03-27T15:02:50Z</time>
      </trkpt>
      <trkpt lat="50.06291" lon="2.11692">
        <ele>78.1</ele>
        <time>2024-03-27T15:02:51Z</time>
      </trkpt>
      <trkpt lat="50.0629" lon="2.11692">
        <ele>78.1</ele>
        <time>2024-03-27T15:02:52Z</time>
      </trkpt>
      <trkpt lat="50.06289" lon="2.11692">
        <ele>78.1</ele>
        <time>2024-03-27T15:02:53Z</time>
      </trkpt>
      <trkpt lat="50.06288" lon="2.11691">
        <ele>78</ele>
        <time>2024-03-27T15:02:54Z</time>
      </trkpt>
      <trkpt lat="50.06286" lon="2.1169">
        <ele>78</ele>
        <time>2024-03-27T15:02:55Z</time>
      </trkpt>
      <trkpt lat="50.06286" lon="2.1169">
        <ele>78</ele>
        <time>2024-03-27T15:02:56Z</time>
      </trkpt>
      <trkpt lat="50.06285" lon="2.11689">
        <ele>77.9</ele>
        <time>2024-03-27T15:02:57Z</time>
      </trkpt>
      <trkpt lat="50.06283" lon="2.11689">
        <ele>77.9</ele>
        <time>2024-03-27T15:02:58Z</time>
      </trkpt>
      <trkpt lat="50.06282" lon="2.11689">
        <ele>77.9</ele>
        <time>2024-03-27T15:02:59Z</time>
      </trkpt>
      <trkpt lat="50.06281" lon="2.11689">
        <ele>77.8</ele>
        <time>2024-03-27T15:03:00Z</time>
      </trkpt>
      <trkpt lat="50.0628" lon="2.11689">
        <ele>77.8</ele>
        <time>2024-03-27T15:03:01Z</time>
      </trkpt>
      <trkpt lat="50.06279" lon="2.11688">
        <ele>77.8</ele>
        <time>2024-03-27T15:03:02Z</time>
      </trkpt>
      <trkpt lat="50.06278" lon="2.11688">
        <ele>77.8</ele>
        <time>2024-03-27T15:03:03Z</time>
      </trkpt>
      <trkpt lat="50.06277" lon="2.11687">
        <ele>77.7</ele>
        <time>2024-03-27T15:03:04Z</time>
      </trkpt>
      <trkpt lat="50.06276" lon="2.11687">
        <ele>77.7</ele>
        <time>2024-03-27T15:03:05Z</time>
      </trkpt>
      <trkpt lat="50.06275" lon="2.11686">
        <ele>77.7</ele>
        <time>2024-03-27T15:03:06Z</time>
      </trkpt>
      <trkpt lat="50.06273" lon="2.11686">
        <ele>77.6</ele>
        <time>2024-03-27T15:03:07Z</time>
      </trkpt>
      <trkpt lat="50.06272" lon="2.11685">
        <ele>77.6</ele>
        <time>2024-03-27T15:03:08Z</time>
      </trkpt>
      <trkpt lat="50.0627" lon="2.11685">
        <ele>77.6</ele>
        <time>2024-03-27T15:03:09Z</time>
      </trkpt>
      <trkpt lat="50.06269" lon="2.11684">
        <ele>77.5</ele>
        <time>2024-03-27T15:03:10Z</time>
      </trkpt>
      <trkpt lat="50.06268" lon="2.11684">
        <ele>77.5</ele>
        <time>2024-03-27T15:03:11Z</time>
      </trkpt>
      <trkpt lat="50.06267" lon="2.11684">
        <ele>77.5</ele>
        <time>2024-03-27T15:03:12Z</time>
      </trkpt>
      <trkpt lat="50.06266" lon="2.11683">
        <ele>77.4</ele>
        <time>2024-03-27T15:03:13Z</time>
      </trkpt>
      <trkpt lat="50.06266" lon="2.11683">
        <ele>77.4</ele>
        <time>2024-03-27T15:03:14Z</time>
      </trkpt>
      <trkpt lat="50.06265" lon="2.11683">
        <ele>77.4</ele>
        <time>2024-03-27T15:03:15Z</time>
      </trkpt>
      <trkpt lat="50.06264" lon="2.11683">
        <ele>77.4</ele>
        <time>2024-03-27T15:03:16Z</time>
      </trkpt>
      <trkpt lat="50.06263" lon="2.11682">
        <ele>77.4</ele>
        <time>2024-03-27T15:03:17Z</time>
      </trkpt>
      <trkpt lat="50.06262" lon="2.11682">
        <ele>77.3</ele>
        <time>2024-03-27T15:03:18Z</time>
      </trkpt>
      <trkpt lat="50.06261" lon="2.11682">
        <ele>77.3</ele>
        <time>2024-03-27T15:03:19Z</time>
      </trkpt>
      <trkpt lat="50.0626" lon="2.11682">
        <ele>77.3</ele>
        <time>2024-03-27T15:03:20Z</time>
      </trkpt>
      <trkpt lat="50.06259" lon="2.11681">
        <ele>77.2</ele>
        <time>2024-03-27T15:03:21Z</time>
      </trkpt>
      <trkpt lat="50.06258" lon="2.11681">
        <ele>77.2</ele>
        <time>2024-03-27T15:03:22Z</time>
      </trkpt>
      <trkpt lat="50.06257" lon="2.11681">
        <ele>77.2</ele>
        <time>2024-03-27T15:03:23Z</time>
      </trkpt>
      <trkpt lat="50.06256" lon="2.1168">
        <ele>77.1</ele>
        <time>2024-03-27T15:03:24Z</time>
      </trkpt>
      <trkpt lat="50.06254" lon="2.1168">
        <ele>77.1</ele>
        <time>2024-03-27T15:03:25Z</time>
      </trkpt>
      <trkpt lat="50.06253" lon="2.11679">
        <ele>77.1</ele>
        <time>2024-03-27T15:03:26Z</time>
      </trkpt>
      <trkpt lat="50.06251" lon="2.11678">
        <ele>77</ele>
        <time>2024-03-27T15:03:27Z</time>
      </trkpt>
      <trkpt lat="50.0625" lon="2.11678">
        <ele>77</ele>
        <time>2024-03-27T15:03:28Z</time>
      </trkpt>
      <trkpt lat="50.06249" lon="2.11677">
        <ele>76.9</ele>
        <time>2024-03-27T15:03:29Z</time>
      </trkpt>
      <trkpt lat="50.06247" lon="2.11677">
        <ele>76.9</ele>
        <time>2024-03-27T15:03:30Z</time>
      </trkpt>
      <trkpt lat="50.06246" lon="2.11676">
        <ele>76.8</ele>
        <time>2024-03-27T15:03:31Z</time>
      </trkpt>
      <trkpt lat="50.06244" lon="2.11676">
        <ele>76.8</ele>
        <time>2024-03-27T15:03:32Z</time>
      </trkpt>
      <trkpt lat="50.06243" lon="2.11676">
        <ele>76.8</ele>
        <time>2024-03-27T15:03:33Z</time>
      </trkpt>
      <trkpt lat="50.06243" lon="2.11676">
        <ele>76.8</ele>
        <time>2024-03-27T15:03:34Z</time>
      </trkpt>
      <trkpt lat="50.06242" lon="2.11676">
        <ele>76.7</ele>
        <time>2024-03-27T15:03:35Z</time>
      </trkpt>
      <trkpt lat="50.06241" lon="2.11676">
        <ele>76.7</ele>
        <time>2024-03-27T15:03:36Z</time>
      </trkpt>
      <trkpt lat="50.0624" lon="2.11675">
        <ele>76.7</ele>
        <time>2024-03-27T15:03:37Z</time>
      </trkpt>
      <trkpt lat="50.06239" lon="2.11675">
        <ele>76.6</ele>
        <time>2024-03-27T15:03:38Z</time>
      </trkpt>
      <trkpt lat="50.06238" lon="2.11675">
        <ele>76.6</ele>
        <time>2024-03-27T15:03:39Z</time>
      </trkpt>
      <trkpt lat="50.06237" lon="2.11675">
        <ele>76.6</ele>
        <time>2024-03-27T15:03:40Z</time>
      </trkpt>
      <trkpt lat="50.06236" lon="2.11675">
        <ele>76.5</ele>
        <time>2024-03-27T15:03:41Z</time>
      </trkpt>
      <trkpt lat="50.06235" lon="2.11674">
        <ele>76.5</ele>
        <time>2024-03-27T15:03:42Z</time>
      </trkpt>
      <trkpt lat="50.06234" lon="2.11674">
        <ele>76.5</ele>
        <time>2024-03-27T15:03:43Z</time>
      </trkpt>
      <trkpt lat="50.06233" lon="2.11674">
        <ele>76.4</ele>
        <time>2024-03-27T15:03:44Z</time>
      </trkpt>
      <trkpt lat="50.06232" lon="2.11673">
        <ele>76.4</ele>
        <time>2024-03-27T15:03:45Z</time>
      </trkpt>
      <trkpt lat="50.0623" lon="2.11673">
        <ele>76.3</ele>
        <time>2024-03-27T15:03:46Z</time>
      </trkpt>
      <trkpt lat="50.06228" lon="2.11672">
        <ele>76.3</ele>
        <time>2024-03-27T15:03:47Z</time>
      </trkpt>
      <trkpt lat="50.06227" lon="2.11671">
        <ele>76.2</ele>
        <time>2024-03-27T15:03:48Z</time>
      </trkpt>
      <trkpt lat="50.06225" lon="2.1167">
        <ele>76.1</ele>
        <time>2024-03-27T15:03:49Z</time>
      </trkpt>
      <trkpt lat="50.06224" lon="2.11669">
        <ele>76.1</ele>
        <time>2024-03-27T15:03:50Z</time>
      </trkpt>
      <trkpt lat="50.06223" lon="2.11668">
        <ele>76.1</ele>
        <time>2024-03-27T15:03:51Z</time>
      </trkpt>
      <trkpt lat="50.06222" lon="2.11668">
        <ele>76</ele>
        <time>2024-03-27T15:03:52Z</time>
      </trkpt>
      <trkpt lat="50.06221" lon="2.11668">
        <ele>76</ele>
        <time>2024-03-27T15:03:53Z</time>
      </trkpt>
      <trkpt lat="50.06221" lon="2.11668">
        <ele>76</ele>
        <time>2024-03-27T15:03:54Z</time>
      </trkpt>
      <trkpt lat="50.0622" lon="2.11667">
        <ele>75.9</ele>
        <time>2024-03-27T15:03:55Z</time>
      </trkpt>
      <trkpt lat="50.06219" lon="2.11667">
        <ele>75.9</ele>
        <time>2024-03-27T15:03:56Z</time>
      </trkpt>
      <trkpt lat="50.06218" lon="2.11666">
        <ele>75.9</ele>
        <time>2024-03-27T15:03:57Z</time>
      </trkpt>
      <trkpt lat="50.06216" lon="2.11666">
        <ele>75.8</ele>
        <time>2024-03-27T15:03:58Z</time>
      </trkpt>
      <trkpt lat="50.06215" lon="2.11665">
        <ele>75.8</ele>
        <time>2024-03-27T15:03:59Z</time>
      </trkpt>
      <trkpt lat="50.06214" lon="2.11665">
        <ele>75.7</ele>
        <time>2024-03-27T15:04:00Z</time>
      </trkpt>
      <trkpt lat="50.06213" lon="2.11665">
        <ele>75.7</ele>
        <time>2024-03-27T15:04:01Z</time>
      </trkpt>
      <trkpt lat="50.06212" lon="2.11665">
        <ele>75.7</ele>
        <time>2024-03-27T15:04:02Z</time>
      </trkpt>
      <trkpt lat="50.06211" lon="2.11665">
        <ele>75.6</ele>
        <time>2024-03-27T15:04:03Z</time>
      </trkpt>
      <trkpt lat="50.0621" lon="2.11665">
        <ele>75.6</ele>
        <time>2024-03-27T15:04:04Z</time>
      </trkpt>
      <trkpt lat="50.06209" lon="2.11665">
        <ele>75.6</ele>
        <time>2024-03-27T15:04:05Z</time>
      </trkpt>
      <trkpt lat="50.06208" lon="2.11664">
        <ele>75.6</ele>
        <time>2024-03-27T15:04:06Z</time>
      </trkpt>
      <trkpt lat="50.06207" lon="2.11663">
        <ele>75.5</ele>
        <time>2024-03-27T15:04:07Z</time>
      </trkpt>
      <trkpt lat="50.06206" lon="2.11662">
        <ele>75.5</ele>
        <time>2024-03-27T15:04:08Z</time>
      </trkpt>
      <trkpt lat="50.06205" lon="2.11662">
        <ele>75.5</ele>
        <time>2024-03-27T15:04:09Z</time>
      </trkpt>
      <trkpt lat="50.06205" lon="2.11661">
        <ele>75.4</ele>
        <time>2024-03-27T15:04:10Z</time>
      </trkpt>
      <trkpt lat="50.06204" lon="2.11661">
        <ele>75.4</ele>
        <time>2024-03-27T15:04:11Z</time>
      </trkpt>
      <trkpt lat="50.06203" lon="2.1166">
        <ele>75.4</ele>
        <time>2024-03-27T15:04:12Z</time>
      </trkpt>
      <trkpt lat="50.06202" lon="2.11659">
        <ele>75.4</ele>
        <time>2024-03-27T15:04:13Z</time>
      </trkpt>
      <trkpt lat="50.06201" lon="2.11658">
        <ele>75.3</ele>
        <time>2024-03-27T15:04:14Z</time>
      </trkpt>
      <trkpt lat="50.062" lon="2.11657">
        <ele>75.3</ele>
        <time>2024-03-27T15:04:15Z</time>
      </trkpt>
      <trkpt lat="50.06199" lon="2.11657">
        <ele>75.3</ele>
        <time>2024-03-27T15:04:16Z</time>
      </trkpt>
      <trkpt lat="50.06198" lon="2.11656">
        <ele>75.2</ele>
        <time>2024-03-27T15:04:17Z</time>
      </trkpt>
      <trkpt lat="50.06197" lon="2.11655">
        <ele>75.2</ele>
        <time>2024-03-27T15:04:18Z</time>
      </trkpt>
      <trkpt lat="50.06196" lon="2.11655">
        <ele>75.2</ele>
        <time>2024-03-27T15:04:19Z</time>
      </trkpt>
      <trkpt lat="50.06195" lon="2.11654">
        <ele>75.2</ele>
        <time>2024-03-27T15:04:20Z</time>
      </trkpt>
      <trkpt lat="50.06194" lon="2.11654">
        <ele>75.1</ele>
        <time>2024-03-27T15:04:21Z</time>
      </trkpt>
      <trkpt lat="50.06193" lon="2.11653">
        <ele>75.1</ele>
        <time>2024-03-27T15:04:22Z</time>
      </trkpt>
      <trkpt lat="50.06192" lon="2.11652">
        <ele>75.1</ele>
        <time>2024-03-27T15:04:23Z</time>
      </trkpt>
      <trkpt lat="50.06191" lon="2.11651">
        <ele>75</ele>
        <time>2024-03-27T15:04:24Z</time>
      </trkpt>
      <trkpt lat="50.06189" lon="2.1165">
        <ele>75</ele>
        <time>2024-03-27T15:04:25Z</time>
      </trkpt>
      <trkpt lat="50.06188" lon="2.1165">
        <ele>75</ele>
        <time>2024-03-27T15:04:26Z</time>
      </trkpt>
      <trkpt lat="50.06187" lon="2.11649">
        <ele>75</ele>
        <time>2024-03-27T15:04:27Z</time>
      </trkpt>
      <trkpt lat="50.06187" lon="2.11649">
        <ele>74.9</ele>
        <time>2024-03-27T15:04:28Z</time>
      </trkpt>
      <trkpt lat="50.06186" lon="2.11648">
        <ele>74.9</ele>
        <time>2024-03-27T15:04:29Z</time>
      </trkpt>
      <trkpt lat="50.06185" lon="2.11648">
        <ele>74.9</ele>
        <time>2024-03-27T15:04:30Z</time>
      </trkpt>
      <trkpt lat="50.06184" lon="2.11647">
        <ele>74.9</ele>
        <time>2024-03-27T15:04:31Z</time>
      </trkpt>
      <trkpt lat="50.06183" lon="2.11646">
        <ele>74.8</ele>
        <time>2024-03-27T15:04:32Z</time>
      </trkpt>
      <trkpt lat="50.06182" lon="2.11645">
        <ele>74.8</ele>
        <time>2024-03-27T15:04:33Z</time>
      </trkpt>
      <trkpt lat="50.06181" lon="2.11644">
        <ele>74.8</ele>
        <time>2024-03-27T15:04:34Z</time>
      </trkpt>
      <trkpt lat="50.0618" lon="2.11644">
        <ele>74.8</ele>
        <time>2024-03-27T15:04:35Z</time>
      </trkpt>
      <trkpt lat="50.06179" lon="2.11643">
        <ele>74.7</ele>
        <time>2024-03-27T15:04:36Z</time>
      </trkpt>
      <trkpt lat="50.06178" lon="2.11642">
        <ele>74.7</ele>
        <time>2024-03-27T15:04:37Z</time>
      </trkpt>
      <trkpt lat="50.06177" lon="2.11641">
        <ele>74.7</ele>
        <time>2024-03-27T15:04:38Z</time>
      </trkpt>
      <trkpt lat="50.06176" lon="2.11641">
        <ele>74.7</ele>
        <time>2024-03-27T15:04:39Z</time>
      </trkpt>
      <trkpt lat="50.06175" lon="2.1164">
        <ele>74.6</ele>
        <time>2024-03-27T15:04:40Z</time>
      </trkpt>
      <trkpt lat="50.06174" lon="2.11639">
        <ele>74.6</ele>
        <time>2024-03-27T15:04:41Z</time>
      </trkpt>
      <trkpt lat="50.06173" lon="2.11639">
        <ele>74.6</ele>
        <time>2024-03-27T15:04:42Z</time>
      </trkpt>
      <trkpt lat="50.06172" lon="2.11638">
        <ele>74.5</ele>
        <time>2024-03-27T15:04:43Z</time>
      </trkpt>
      <trkpt lat="50.06171" lon="2.11637">
        <ele>74.5</ele>
        <time>2024-03-27T15:04:44Z</time>
      </trkpt>
      <trkpt lat="50.0617" lon="2.11636">
        <ele>74.5</ele>
        <time>2024-03-27T15:04:45Z</time>
      </trkpt>
      <trkpt lat="50.06169" lon="2.11635">
        <ele>74.5</ele>
        <time>2024-03-27T15:04:46Z</time>
      </trkpt>
      <trkpt lat="50.06167" lon="2.11634">
        <ele>74.4</ele>
        <time>2024-03-27T15:04:47Z</time>
      </trkpt>
      <trkpt lat="50.06166" lon="2.11633">
        <ele>74.4</ele>
        <time>2024-03-27T15:04:48Z</time>
      </trkpt>
      <trkpt lat="50.06165" lon="2.11633">
        <ele>74.4</ele>
        <time>2024-03-27T15:04:49Z</time>
      </trkpt>
      <trkpt lat="50.06164" lon="2.11632">
        <ele>74.3</ele>
        <time>2024-03-27T15:04:50Z</time>
      </trkpt>
      <trkpt lat="50.06164" lon="2.11632">
        <ele>74.3</ele>
        <time>2024-03-27T15:04:51Z</time>
      </trkpt>
      <trkpt lat="50.06163" lon="2.11631">
        <ele>74.3</ele>
        <time>2024-03-27T15:04:52Z</time>
      </trkpt>
      <trkpt lat="50.06162" lon="2.11631">
        <ele>74.3</ele>
        <time>2024-03-27T15:04:53Z</time>
      </trkpt>
      <trkpt lat="50.06161" lon="2.1163">
        <ele>74.2</ele>
        <time>2024-03-27T15:04:54Z</time>
      </trkpt>
      <trkpt lat="50.0616" lon="2.11629">
        <ele>74.2</ele>
        <time>2024-03-27T15:04:55Z</time>
      </trkpt>
      <trkpt lat="50.06159" lon="2.11629">
        <ele>74.2</ele>
        <time>2024-03-27T15:04:56Z</time>
      </trkpt>
      <trkpt lat="50.06158" lon="2.11628">
        <ele>74.2</ele>
        <time>2024-03-27T15:04:57Z</time>
      </trkpt>
      <trkpt lat="50.06157" lon="2.11627">
        <ele>74.1</ele>
        <time>2024-03-27T15:04:58Z</time>
      </trkpt>
      <trkpt lat="50.06156" lon="2.11627">
        <ele>74.1</ele>
        <time>2024-03-27T15:04:59Z</time>
      </trkpt>
      <trkpt lat="50.06155" lon="2.11626">
        <ele>74.1</ele>
        <time>2024-03-27T15:05:00Z</time>
      </trkpt>
      <trkpt lat="50.06154" lon="2.11626">
        <ele>74</ele>
        <time>2024-03-27T15:05:01Z</time>
      </trkpt>
      <trkpt lat="50.06153" lon="2.11625">
        <ele>74</ele>
        <time>2024-03-27T15:05:02Z</time>
      </trkpt>
      <trkpt lat="50.06152" lon="2.11625">
        <ele>74</ele>
        <time>2024-03-27T15:05:03Z</time>
      </trkpt>
      <trkpt lat="50.06151" lon="2.11624">
        <ele>74</ele>
        <time>2024-03-27T15:05:04Z</time>
      </trkpt>
      <trkpt lat="50.0615" lon="2.11623">
        <ele>73.9</ele>
        <time>2024-03-27T15:05:05Z</time>
      </trkpt>
      <trkpt lat="50.06149" lon="2.11622">
        <ele>73.9</ele>
        <time>2024-03-27T15:05:06Z</time>
      </trkpt>
      <trkpt lat="50.06148" lon="2.11621">
        <ele>73.9</ele>
        <time>2024-03-27T15:05:07Z</time>
      </trkpt>
      <trkpt lat="50.06147" lon="2.1162">
        <ele>73.9</ele>
        <time>2024-03-27T15:05:08Z</time>
      </trkpt>
      <trkpt lat="50.06146" lon="2.1162">
        <ele>73.8</ele>
        <time>2024-03-27T15:05:09Z</time>
      </trkpt>
      <trkpt lat="50.06145" lon="2.11619">
        <ele>73.8</ele>
        <time>2024-03-27T15:05:10Z</time>
      </trkpt>
      <trkpt lat="50.06144" lon="2.11619">
        <ele>73.8</ele>
        <time>2024-03-27T15:05:11Z</time>
      </trkpt>
      <trkpt lat="50.06142" lon="2.11618">
        <ele>73.8</ele>
        <time>2024-03-27T15:05:12Z</time>
      </trkpt>
      <trkpt lat="50.06141" lon="2.11617">
        <ele>73.7</ele>
        <time>2024-03-27T15:05:13Z</time>
      </trkpt>
      <trkpt lat="50.06139" lon="2.11616">
        <ele>73.7</ele>
        <time>2024-03-27T15:05:14Z</time>
      </trkpt>
      <trkpt lat="50.06139" lon="2.11615">
        <ele>73.7</ele>
        <time>2024-03-27T15:05:15Z</time>
      </trkpt>
      <trkpt lat="50.06138" lon="2.11615">
        <ele>73.6</ele>
        <time>2024-03-27T15:05:16Z</time>
      </trkpt>
      <trkpt lat="50.06137" lon="2.11614">
        <ele>73.6</ele>
        <time>2024-03-27T15:05:17Z</time>
      </trkpt>
      <trkpt lat="50.06136" lon="2.11613">
        <ele>73.6</ele>
        <time>2024-03-27T15:05:18Z</time>
      </trkpt>
      <trkpt lat="50.06134" lon="2.11612">
        <ele>73.5</ele>
        <time>2024-03-27T15:05:19Z</time>
      </trkpt>
      <trkpt lat="50.06133" lon="2.11611">
        <ele>73.5</ele>
        <time>2024-03-27T15:05:20Z</time>
      </trkpt>
      <trkpt lat="50.06132" lon="2.1161">
        <ele>73.5</ele>
        <time>2024-03-27T15:05:21Z</time>
      </trkpt>
      <trkpt lat="50.06131" lon="2.1161">
        <ele>73.5</ele>
        <time>2024-03-27T15:05:22Z</time>
      </trkpt>
      <trkpt lat="50.0613" lon="2.11609">
        <ele>73.4</ele>
        <time>2024-03-27T15:05:23Z</time>
      </trkpt>
      <trkpt lat="50.06129" lon="2.11608">
        <ele>73.4</ele>
        <time>2024-03-27T15:05:24Z</time>
      </trkpt>
      <trkpt lat="50.06127" lon="2.11606">
        <ele>73.4</ele>
        <time>2024-03-27T15:05:25Z</time>
      </trkpt>
      <trkpt lat="50.06126" lon="2.11606">
        <ele>73.4</ele>
        <time>2024-03-27T15:05:26Z</time>
      </trkpt>
      <trkpt lat="50.06126" lon="2.11605">
        <ele>73.3</ele>
        <time>2024-03-27T15:05:27Z</time>
      </trkpt>
      <trkpt lat="50.06124" lon="2.11604">
        <ele>73.3</ele>
        <time>2024-03-27T15:05:28Z</time>
      </trkpt>
      <trkpt lat="50.06123" lon="2.11603">
        <ele>73.3</ele>
        <time>2024-03-27T15:05:29Z</time>
      </trkpt>
      <trkpt lat="50.06122" lon="2.11603">
        <ele>73.3</ele>
        <time>2024-03-27T15:05:30Z</time>
      </trkpt>
      <trkpt lat="50.06121" lon="2.11602">
        <ele>73.2</ele>
        <time>2024-03-27T15:05:31Z</time>
      </trkpt>
      <trkpt lat="50.0612" lon="2.11601">
        <ele>73.2</ele>
        <time>2024-03-27T15:05:32Z</time>
      </trkpt>
      <trkpt lat="50.06119" lon="2.11601">
        <ele>73.2</ele>
        <time>2024-03-27T15:05:33Z</time>
      </trkpt>
      <trkpt lat="50.06119" lon="2.116">
        <ele>73.2</ele>
        <time>2024-03-27T15:05:34Z</time>
      </trkpt>
      <trkpt lat="50.06118" lon="2.11599">
        <ele>73.2</ele>
        <time>2024-03-27T15:05:35Z</time>
      </trkpt>
      <trkpt lat="50.06116" lon="2.11599">
        <ele>73.1</ele>
        <time>2024-03-27T15:05:36Z</time>
      </trkpt>
      <trkpt lat="50.06115" lon="2.11598">
        <ele>73.1</ele>
        <time>2024-03-27T15:05:37Z</time>
      </trkpt>
      <trkpt lat="50.06114" lon="2.11597">
        <ele>73.1</ele>
        <time>2024-03-27T15:05:38Z</time>
      </trkpt>
      <trkpt lat="50.06113" lon="2.11596">
        <ele>73.1</ele>
        <time>2024-03-27T15:05:39Z</time>
      </trkpt>
      <trkpt lat="50.06112" lon="2.11595">
        <ele>73.1</ele>
        <time>2024-03-27T15:05:40Z</time>
      </trkpt>
      <trkpt lat="50.06111" lon="2.11594">
        <ele>73</ele>
        <time>2024-03-27T15:05:41Z</time>
      </trkpt>
      <trkpt lat="50.0611" lon="2.11594">
        <ele>73</ele>
        <time>2024-03-27T15:05:42Z</time>
      </trkpt>
      <trkpt lat="50.06109" lon="2.11593">
        <ele>73</ele>
        <time>2024-03-27T15:05:43Z</time>
      </trkpt>
      <trkpt lat="50.06108" lon="2.11593">
        <ele>73</ele>
        <time>2024-03-27T15:05:44Z</time>
      </trkpt>
      <trkpt lat="50.06107" lon="2.11592">
        <ele>73</ele>
        <time>2024-03-27T15:05:45Z</time>
      </trkpt>
      <trkpt lat="50.06106" lon="2.11592">
        <ele>72.9</ele>
        <time>2024-03-27T15:05:46Z</time>
      </trkpt>
      <trkpt lat="50.06105" lon="2.11591">
        <ele>72.9</ele>
        <time>2024-03-27T15:05:47Z</time>
      </trkpt>
      <trkpt lat="50.06104" lon="2.1159">
        <ele>72.9</ele>
        <time>2024-03-27T15:05:48Z</time>
      </trkpt>
      <trkpt lat="50.06103" lon="2.11589">
        <ele>72.9</ele>
        <time>2024-03-27T15:05:49Z</time>
      </trkpt>
      <trkpt lat="50.06102" lon="2.11588">
        <ele>72.9</ele>
        <time>2024-03-27T15:05:50Z</time>
      </trkpt>
      <trkpt lat="50.06101" lon="2.11587">
        <ele>72.8</ele>
        <time>2024-03-27T15:05:51Z</time>
      </trkpt>
      <trkpt lat="50.061" lon="2.11586">
        <ele>72.8</ele>
        <time>2024-03-27T15:05:52Z</time>
      </trkpt>
      <trkpt lat="50.06099" lon="2.11585">
        <ele>72.8</ele>
        <time>2024-03-27T15:05:53Z</time>
      </trkpt>
      <trkpt lat="50.06098" lon="2.11584">
        <ele>72.8</ele>
        <time>2024-03-27T15:05:54Z</time>
      </trkpt>
      <trkpt lat="50.06098" lon="2.11584">
        <ele>72.8</ele>
        <time>2024-03-27T15:05:55Z</time>
      </trkpt>
      <trkpt lat="50.06097" lon="2.11583">
        <ele>72.8</ele>
        <time>2024-03-27T15:05:56Z</time>
      </trkpt>
      <trkpt lat="50.06096" lon="2.11582">
        <ele>72.7</ele>
        <time>2024-03-27T15:05:57Z</time>
      </trkpt>
      <trkpt lat="50.06094" lon="2.11581">
        <ele>72.7</ele>
        <time>2024-03-27T15:05:58Z</time>
      </trkpt>
      <trkpt lat="50.06093" lon="2.1158">
        <ele>72.7</ele>
        <time>2024-03-27T15:05:59Z</time>
      </trkpt>
      <trkpt lat="50.06092" lon="2.1158">
        <ele>72.7</ele>
        <time>2024-03-27T15:06:00Z</time>
      </trkpt>
      <trkpt lat="50.0609" lon="2.11579">
        <ele>72.7</ele>
        <time>2024-03-27T15:06:01Z</time>
      </trkpt>
      <trkpt lat="50.0609" lon="2.11578">
        <ele>72.6</ele>
        <time>2024-03-27T15:06:02Z</time>
      </trkpt>
      <trkpt lat="50.06089" lon="2.11578">
        <ele>72.6</ele>
        <time>2024-03-27T15:06:03Z</time>
      </trkpt>
      <trkpt lat="50.06088" lon="2.11577">
        <ele>72.6</ele>
        <time>2024-03-27T15:06:04Z</time>
      </trkpt>
      <trkpt lat="50.06087" lon="2.11576">
        <ele>72.6</ele>
        <time>2024-03-27T15:06:05Z</time>
      </trkpt>
      <trkpt lat="50.06086" lon="2.11576">
        <ele>72.6</ele>
        <time>2024-03-27T15:06:06Z</time>
      </trkpt>
      <trkpt lat="50.06085" lon="2.11575">
        <ele>72.6</ele>
        <time>2024-03-27T15:06:07Z</time>
      </trkpt>
      <trkpt lat="50.06084" lon="2.11575">
        <ele>72.6</ele>
        <time>2024-03-27T15:06:08Z</time>
      </trkpt>
      <trkpt lat="50.06082" lon="2.11574">
        <ele>72.6</ele>
        <time>2024-03-27T15:06:09Z</time>
      </trkpt>
      <trkpt lat="50.06081" lon="2.11573">
        <ele>72.5</ele>
        <time>2024-03-27T15:06:10Z</time>
      </trkpt>
      <trkpt lat="50.0608" lon="2.11572">
        <ele>72.5</ele>
        <time>2024-03-27T15:06:11Z</time>
      </trkpt>
      <trkpt lat="50.06079" lon="2.11571">
        <ele>72.5</ele>
        <time>2024-03-27T15:06:12Z</time>
      </trkpt>
      <trkpt lat="50.06078" lon="2.1157">
        <ele>72.5</ele>
        <time>2024-03-27T15:06:13Z</time>
      </trkpt>
      <trkpt lat="50.06077" lon="2.11569">
        <ele>72.5</ele>
        <time>2024-03-27T15:06:14Z</time>
      </trkpt>
      <trkpt lat="50.06076" lon="2.11568">
        <ele>72.5</ele>
        <time>2024-03-27T15:06:15Z</time>
      </trkpt>
      <trkpt lat="50.06075" lon="2.11568">
        <ele>72.5</ele>
        <time>2024-03-27T15:06:16Z</time>
      </trkpt>
      <trkpt lat="50.06074" lon="2.11567">
        <ele>72.4</ele>
        <time>2024-03-27T15:06:17Z</time>
      </trkpt>
      <trkpt lat="50.06073" lon="2.11567">
        <ele>72.4</ele>
        <time>2024-03-27T15:06:18Z</time>
      </trkpt>
      <trkpt lat="50.06072" lon="2.11566">
        <ele>72.4</ele>
        <time>2024-03-27T15:06:19Z</time>
      </trkpt>
      <trkpt lat="50.06071" lon="2.11565">
        <ele>72.4</ele>
        <time>2024-03-27T15:06:20Z</time>
      </trkpt>
      <trkpt lat="50.0607" lon="2.11564">
        <ele>72.4</ele>
        <time>2024-03-27T15:06:21Z</time>
      </trkpt>
      <trkpt lat="50.06069" lon="2.11563">
        <ele>72.4</ele>
        <time>2024-03-27T15:06:22Z</time>
      </trkpt>
      <trkpt lat="50.06068" lon="2.11562">
        <ele>72.4</ele>
        <time>2024-03-27T15:06:23Z</time>
      </trkpt>
      <trkpt lat="50.06067" lon="2.11562">
        <ele>72.3</ele>
        <time>2024-03-27T15:06:24Z</time>
      </trkpt>
      <trkpt lat="50.06066" lon="2.11561">
        <ele>72.3</ele>
        <time>2024-03-27T15:06:25Z</time>
      </trkpt>
      <trkpt lat="50.06065" lon="2.1156">
        <ele>72.3</ele>
        <time>2024-03-27T15:06:26Z</time>
      </trkpt>
      <trkpt lat="50.06064" lon="2.1156">
        <ele>72.3</ele>
        <time>2024-03-27T15:06:27Z</time>
      </trkpt>
      <trkpt lat="50.06063" lon="2.11559">
        <ele>72.3</ele>
        <time>2024-03-27T15:06:28Z</time>
      </trkpt>
      <trkpt lat="50.06062" lon="2.11558">
        <ele>72.3</ele>
        <time>2024-03-27T15:06:29Z</time>
      </trkpt>
      <trkpt lat="50.06061" lon="2.11557">
        <ele>72.3</ele>
        <time>2024-03-27T15:06:30Z</time>
      </trkpt>
      <trkpt lat="50.0606" lon="2.11556">
        <ele>72.2</ele>
        <time>2024-03-27T15:06:31Z</time>
      </trkpt>
      <trkpt lat="50.06059" lon="2.11556">
        <ele>72.2</ele>
        <time>2024-03-27T15:06:32Z</time>
      </trkpt>
      <trkpt lat="50.06058" lon="2.11556">
        <ele>72.2</ele>
        <time>2024-03-27T15:06:33Z</time>
      </trkpt>
      <trkpt lat="50.06057" lon="2.11555">
        <ele>72.2</ele>
        <time>2024-03-27T15:06:34Z</time>
      </trkpt>
      <trkpt lat="50.06056" lon="2.11555">
        <ele>72.2</ele>
        <time>2024-03-27T15:06:35Z</time>
      </trkpt>
      <trkpt lat="50.06055" lon="2.11554">
        <ele>72.2</ele>
        <time>2024-03-27T15:06:36Z</time>
      </trkpt>
      <trkpt lat="50.06053" lon="2.11554">
        <ele>72.2</ele>
        <time>2024-03-27T15:06:37Z</time>
      </trkpt>
      <trkpt lat="50.06052" lon="2.11554">
        <ele>72.1</ele>
        <time>2024-03-27T15:06:38Z</time>
      </trkpt>
      <trkpt lat="50.06052" lon="2.11553">
        <ele>72.1</ele>
        <time>2024-03-27T15:06:39Z</time>
      </trkpt>
      <trkpt lat="50.06051" lon="2.11553">
        <ele>72.1</ele>
        <time>2024-03-27T15:06:40Z</time>
      </trkpt>
      <trkpt lat="50.0605" lon="2.11552">
        <ele>72.1</ele>
        <time>2024-03-27T15:06:41Z</time>
      </trkpt>
      <trkpt lat="50.06049" lon="2.11552">
        <ele>72.1</ele>
        <time>2024-03-27T15:06:42Z</time>
      </trkpt>
      <trkpt lat="50.06048" lon="2.11551">
        <ele>72.1</ele>
        <time>2024-03-27T15:06:43Z</time>
      </trkpt>
      <trkpt lat="50.06047" lon="2.1155">
        <ele>72.1</ele>
        <time>2024-03-27T15:06:44Z</time>
      </trkpt>
      <trkpt lat="50.06046" lon="2.1155">
        <ele>72.1</ele>
        <time>2024-03-27T15:06:45Z</time>
      </trkpt>
      <trkpt lat="50.06045" lon="2.11549">
        <ele>72.1</ele>
        <time>2024-03-27T15:06:46Z</time>
      </trkpt>
      <trkpt lat="50.06044" lon="2.11548">
        <ele>72.1</ele>
        <time>2024-03-27T15:06:47Z</time>
      </trkpt>
      <trkpt lat="50.06043" lon="2.11548">
        <ele>72.1</ele>
        <time>2024-03-27T15:06:48Z</time>
      </trkpt>
      <trkpt lat="50.06042" lon="2.11548">
        <ele>72.1</ele>
        <time>2024-03-27T15:06:49Z</time>
      </trkpt>
      <trkpt lat="50.06041" lon="2.11548">
        <ele>72.1</ele>
        <time>2024-03-27T15:06:50Z</time>
      </trkpt>
      <trkpt lat="50.0604" lon="2.11548">
        <ele>72.1</ele>
        <time>2024-03-27T15:06:51Z</time>
      </trkpt>
      <trkpt lat="50.06039" lon="2.11548">
        <ele>72.1</ele>
        <time>2024-03-27T15:06:52Z</time>
      </trkpt>
      <trkpt lat="50.06039" lon="2.11547">
        <ele>72.1</ele>
        <time>2024-03-27T15:06:53Z</time>
      </trkpt>
      <trkpt lat="50.06038" lon="2.11548">
        <ele>72.1</ele>
        <time>2024-03-27T15:06:54Z</time>
      </trkpt>
      <trkpt lat="50.06037" lon="2.11547">
        <ele>72.1</ele>
        <time>2024-03-27T15:06:55Z</time>
      </trkpt>
      <trkpt lat="50.06036" lon="2.11547">
        <ele>72</ele>
        <time>2024-03-27T15:06:56Z</time>
      </trkpt>
      <trkpt lat="50.06035" lon="2.11547">
        <ele>72</ele>
        <time>2024-03-27T15:06:57Z</time>
      </trkpt>
      <trkpt lat="50.06034" lon="2.11547">
        <ele>72</ele>
        <time>2024-03-27T15:06:58Z</time>
      </trkpt>
      <trkpt lat="50.06033" lon="2.11547">
        <ele>72</ele>
        <time>2024-03-27T15:06:59Z</time>
      </trkpt>
      <trkpt lat="50.06032" lon="2.11547">
        <ele>72</ele>
        <time>2024-03-27T15:07:00Z</time>
      </trkpt>
      <trkpt lat="50.06031" lon="2.11546">
        <ele>72</ele>
        <time>2024-03-27T15:07:01Z</time>
      </trkpt>
      <trkpt lat="50.0603" lon="2.11546">
        <ele>72</ele>
        <time>2024-03-27T15:07:02Z</time>
      </trkpt>
      <trkpt lat="50.06029" lon="2.11546">
        <ele>72</ele>
        <time>2024-03-27T15:07:03Z</time>
      </trkpt>
      <trkpt lat="50.06028" lon="2.11545">
        <ele>72</ele>
        <time>2024-03-27T15:07:04Z</time>
      </trkpt>
      <trkpt lat="50.06027" lon="2.11545">
        <ele>72</ele>
        <time>2024-03-27T15:07:05Z</time>
      </trkpt>
      <trkpt lat="50.06026" lon="2.11544">
        <ele>72</ele>
        <time>2024-03-27T15:07:06Z</time>
      </trkpt>
      <trkpt lat="50.06025" lon="2.11543">
        <ele>72</ele>
        <time>2024-03-27T15:07:07Z</time>
      </trkpt>
      <trkpt lat="50.06024" lon="2.11543">
        <ele>72</ele>
        <time>2024-03-27T15:07:08Z</time>
      </trkpt>
      <trkpt lat="50.06023" lon="2.11543">
        <ele>72</ele>
        <time>2024-03-27T15:07:09Z</time>
      </trkpt>
      <trkpt lat="50.06022" lon="2.11543">
        <ele>72</ele>
        <time>2024-03-27T15:07:10Z</time>
      </trkpt>
      <trkpt lat="50.06021" lon="2.11542">
        <ele>71.9</ele>
        <time>2024-03-27T15:07:11Z</time>
      </trkpt>
      <trkpt lat="50.0602" lon="2.11542">
        <ele>71.9</ele>
        <time>2024-03-27T15:07:12Z</time>
      </trkpt>
      <trkpt lat="50.06019" lon="2.11541">
        <ele>71.9</ele>
        <time>2024-03-27T15:07:13Z</time>
      </trkpt>
      <trkpt lat="50.06018" lon="2.11541">
        <ele>71.9</ele>
        <time>2024-03-27T15:07:14Z</time>
      </trkpt>
      <trkpt lat="50.06017" lon="2.1154">
        <ele>71.9</ele>
        <time>2024-03-27T15:07:15Z</time>
      </trkpt>
      <trkpt lat="50.06016" lon="2.1154">
        <ele>71.9</ele>
        <time>2024-03-27T15:07:16Z</time>
      </trkpt>
      <trkpt lat="50.06015" lon="2.11539">
        <ele>71.9</ele>
        <time>2024-03-27T15:07:17Z</time>
      </trkpt>
      <trkpt lat="50.06014" lon="2.11539">
        <ele>71.9</ele>
        <time>2024-03-27T15:07:18Z</time>
      </trkpt>
      <trkpt lat="50.06014" lon="2.11538">
        <ele>71.9</ele>
        <time>2024-03-27T15:07:19Z</time>
      </trkpt>
      <trkpt lat="50.06013" lon="2.11537">
        <ele>71.9</ele>
        <time>2024-03-27T15:07:20Z</time>
      </trkpt>
      <trkpt lat="50.06012" lon="2.11537">
        <ele>71.9</ele>
        <time>2024-03-27T15:07:21Z</time>
      </trkpt>
      <trkpt lat="50.06011" lon="2.11536">
        <ele>71.9</ele>
        <time>2024-03-27T15:07:22Z</time>
      </trkpt>
      <trkpt lat="50.0601" lon="2.11535">
        <ele>71.8</ele>
        <time>2024-03-27T15:07:23Z</time>
      </trkpt>
      <trkpt lat="50.0601" lon="2.11535">
        <ele>71.8</ele>
        <time>2024-03-27T15:07:24Z</time>
      </trkpt>
      <trkpt lat="50.06009" lon="2.11533">
        <ele>71.8</ele>
        <time>2024-03-27T15:07:25Z</time>
      </trkpt>
      <trkpt lat="50.06008" lon="2.11532">
        <ele>71.8</ele>
        <time>2024-03-27T15:07:26Z</time>
      </trkpt>
      <trkpt lat="50.06007" lon="2.11531">
        <ele>71.8</ele>
        <time>2024-03-27T15:07:27Z</time>
      </trkpt>
      <trkpt lat="50.06006" lon="2.11531">
        <ele>71.8</ele>
        <time>2024-03-27T15:07:28Z</time>
      </trkpt>
      <trkpt lat="50.06005" lon="2.1153">
        <ele>71.8</ele>
        <time>2024-03-27T15:07:29Z</time>
      </trkpt>
      <trkpt lat="50.06004" lon="2.1153">
        <ele>71.8</ele>
        <time>2024-03-27T15:07:30Z</time>
      </trkpt>
      <trkpt lat="50.06003" lon="2.1153">
        <ele>71.8</ele>
        <time>2024-03-27T15:07:31Z</time>
      </trkpt>
      <trkpt lat="50.06002" lon="2.11529">
        <ele>71.8</ele>
        <time>2024-03-27T15:07:32Z</time>
      </trkpt>
      <trkpt lat="50.06001" lon="2.11528">
        <ele>71.8</ele>
        <time>2024-03-27T15:07:33Z</time>
      </trkpt>
      <trkpt lat="50.06" lon="2.11528">
        <ele>71.8</ele>
        <time>2024-03-27T15:07:34Z</time>
      </trkpt>
      <trkpt lat="50.06" lon="2.11527">
        <ele>71.7</ele>
        <time>2024-03-27T15:07:35Z</time>
      </trkpt>
      <trkpt lat="50.05999" lon="2.11527">
        <ele>71.7</ele>
        <time>2024-03-27T15:07:36Z</time>
      </trkpt>
      <trkpt lat="50.05998" lon="2.11526">
        <ele>71.7</ele>
        <time>2024-03-27T15:07:37Z</time>
      </trkpt>
      <trkpt lat="50.05997" lon="2.11525">
        <ele>71.7</ele>
        <time>2024-03-27T15:07:38Z</time>
      </trkpt>
      <trkpt lat="50.05996" lon="2.11524">
        <ele>71.7</ele>
        <time>2024-03-27T15:07:39Z</time>
      </trkpt>
      <trkpt lat="50.05996" lon="2.11523">
        <ele>71.7</ele>
        <time>2024-03-27T15:07:40Z</time>
      </trkpt>
      <trkpt lat="50.05996" lon="2.11522">
        <ele>71.7</ele>
        <time>2024-03-27T15:07:41Z</time>
      </trkpt>
      <trkpt lat="50.05996" lon="2.11522">
        <ele>71.7</ele>
        <time>2024-03-27T15:07:42Z</time>
      </trkpt>
      <trkpt lat="50.05997" lon="2.11522">
        <ele>71.7</ele>
        <time>2024-03-27T15:07:43Z</time>
      </trkpt>
      <trkpt lat="50.05997" lon="2.11522">
        <ele>71.7</ele>
        <time>2024-03-27T15:07:44Z</time>
      </trkpt>
      <trkpt lat="50.05997" lon="2.11522">
        <ele>71.7</ele>
        <time>2024-03-27T15:07:45Z</time>
      </trkpt>
      <trkpt lat="50.05997" lon="2.11522">
        <ele>71.7</ele>
        <time>2024-03-27T15:07:46Z</time>
      </trkpt>
      <trkpt lat="50.05997" lon="2.11521">
        <ele>71.7</ele>
        <time>2024-03-27T15:07:47Z</time>
      </trkpt>
      <trkpt lat="50.05997" lon="2.11521">
        <ele>71.7</ele>
        <time>2024-03-27T15:07:48Z</time>
      </trkpt>
      <trkpt lat="50.05997" lon="2.11521">
        <ele>71.7</ele>
        <time>2024-03-27T15:07:49Z</time>
      </trkpt>
      <trkpt lat="50.05997" lon="2.11521">
        <ele>71.7</ele>
        <time>2024-03-27T15:07:50Z</time>
      </trkpt>
      <trkpt lat="50.05997" lon="2.11521">
        <ele>71.7</ele>
        <time>2024-03-27T15:07:51Z</time>
      </trkpt>
      <trkpt lat="50.05997" lon="2.11521">
        <ele>71.7</ele>
        <time>2024-03-27T15:07:52Z</time>
      </trkpt>
      <trkpt lat="50.05997" lon="2.11521">
        <ele>71.7</ele>
        <time>2024-03-27T15:07:53Z</time>
      </trkpt>
      <trkpt lat="50.05997" lon="2.11522">
        <ele>71.7</ele>
        <time>2024-03-27T15:07:54Z</time>
      </trkpt>
      <trkpt lat="50.05997" lon="2.11522">
        <ele>71.7</ele>
        <time>2024-03-27T15:07:55Z</time>
      </trkpt>
      <trkpt lat="50.05997" lon="2.11522">
        <ele>71.7</ele>
        <time>2024-03-27T15:07:56Z</time>
      </trkpt>
      <trkpt lat="50.05997" lon="2.11522">
        <ele>71.7</ele>
        <time>2024-03-27T15:07:57Z</time>
      </trkpt>
      <trkpt lat="50.05997" lon="2.11522">
        <ele>71.7</ele>
        <time>2024-03-27T15:07:58Z</time>
      </trkpt>
      <trkpt lat="50.05997" lon="2.11522">
        <ele>71.7</ele>
        <time>2024-03-27T15:07:59Z</time>
      </trkpt>
      <trkpt lat="50.05997" lon="2.11522">
        <ele>71.7</ele>
        <time>2024-03-27T15:08:00Z</time>
      </trkpt>
      <trkpt lat="50.05997" lon="2.11522">
        <ele>71.7</ele>
        <time>2024-03-27T15:08:01Z</time>
      </trkpt>
      <trkpt lat="50.05997" lon="2.11522">
        <ele>71.7</ele>
        <time>2024-03-27T15:08:02Z</time>
      </trkpt>
      <trkpt lat="50.05997" lon="2.11522">
        <ele>71.7</ele>
        <time>2024-03-27T15:08:03Z</time>
      </trkpt>
      <trkpt lat="50.05997" lon="2.11522">
        <ele>71.7</ele>
        <time>2024-03-27T15:08:04Z</time>
      </trkpt>
      <trkpt lat="50.05997" lon="2.11522">
        <ele>71.7</ele>
        <time>2024-03-27T15:08:05Z</time>
      </trkpt>
      <trkpt lat="50.05997" lon="2.11523">
        <ele>71.7</ele>
        <time>2024-03-27T15:08:06Z</time>
      </trkpt>
      <trkpt lat="50.05996" lon="2.11523">
        <ele>71.7</ele>
        <time>2024-03-27T15:08:07Z</time>
      </trkpt>
      <trkpt lat="50.05996" lon="2.11523">
        <ele>71.7</ele>
        <time>2024-03-27T15:08:08Z</time>
      </trkpt>
      <trkpt lat="50.05996" lon="2.11523">
        <ele>71.7</ele>
        <time>2024-03-27T15:08:09Z</time>
      </trkpt>
      <trkpt lat="50.05996" lon="2.11523">
        <ele>71.7</ele>
        <time>2024-03-27T15:08:10Z</time>
      </trkpt>
      <trkpt lat="50.05996" lon="2.11523">
        <ele>71.7</ele>
        <time>2024-03-27T15:08:11Z</time>
      </trkpt>
      <trkpt lat="50.05996" lon="2.11523">
        <ele>71.7</ele>
        <time>2024-03-27T15:08:12Z</time>
      </trkpt>
      <trkpt lat="50.05996" lon="2.11523">
        <ele>71.7</ele>
        <time>2024-03-27T15:08:13Z</time>
      </trkpt>
      <trkpt lat="50.05996" lon="2.11523">
        <ele>71.7</ele>
        <time>2024-03-27T15:08:14Z</time>
      </trkpt>
      <trkpt lat="50.05996" lon="2.11523">
        <ele>71.7</ele>
        <time>2024-03-27T15:08:15Z</time>
      </trkpt>
      <trkpt lat="50.05996" lon="2.11523">
        <ele>71.7</ele>
        <time>2024-03-27T15:08:16Z</time>
      </trkpt>
      <trkpt lat="50.05996" lon="2.11523">
        <ele>71.7</ele>
        <time>2024-03-27T15:08:17Z</time>
      </trkpt>
      <trkpt lat="50.05996" lon="2.11524">
        <ele>71.7</ele>
        <time>2024-03-27T15:08:18Z</time>
      </trkpt>
      <trkpt lat="50.05996" lon="2.11524">
        <ele>71.7</ele>
        <time>2024-03-27T15:08:19Z</time>
      </trkpt>
      <trkpt lat="50.05996" lon="2.11524">
        <ele>71.7</ele>
        <time>2024-03-27T15:08:20Z</time>
      </trkpt>
      <trkpt lat="50.05996" lon="2.11524">
        <ele>71.7</ele>
        <time>2024-03-27T15:08:21Z</time>
      </trkpt>
      <trkpt lat="50.05996" lon="2.11524">
        <ele>71.7</ele>
        <time>2024-03-27T15:08:22Z</time>
      </trkpt>
      <trkpt lat="50.05996" lon="2.11524">
        <ele>71.7</ele>
        <time>2024-03-27T15:08:23Z</time>
      </trkpt>
      <trkpt lat="50.05996" lon="2.11524">
        <ele>71.7</ele>
        <time>2024-03-27T15:08:24Z</time>
      </trkpt>
      <trkpt lat="50.05996" lon="2.11524">
        <ele>71.7</ele>
        <time>2024-03-27T15:08:25Z</time>
      </trkpt>
      <trkpt lat="50.05996" lon="2.11524">
        <ele>71.7</ele>
        <time>2024-03-27T15:08:26Z</time>
      </trkpt>
      <trkpt lat="50.05996" lon="2.11524">
        <ele>71.7</ele>
        <time>2024-03-27T15:08:27Z</time>
      </trkpt>
      <trkpt lat="50.05996" lon="2.11524">
        <ele>71.7</ele>
        <time>2024-03-27T15:08:28Z</time>
      </trkpt>
      <trkpt lat="50.05996" lon="2.11525">
        <ele>71.7</ele>
        <time>2024-03-27T15:08:29Z</time>
      </trkpt>
      <trkpt lat="50.05996" lon="2.11525">
        <ele>71.7</ele>
        <time>2024-03-27T15:08:30Z</time>
      </trkpt>
      <trkpt lat="50.05996" lon="2.11525">
        <ele>71.7</ele>
        <time>2024-03-27T15:08:31Z</time>
      </trkpt>
      <trkpt lat="50.05996" lon="2.11525">
        <ele>71.7</ele>
        <time>2024-03-27T15:08:32Z</time>
      </trkpt>
      <trkpt lat="50.05996" lon="2.11525">
        <ele>71.7</ele>
        <time>2024-03-27T15:08:33Z</time>
      </trkpt>
      <trkpt lat="50.05996" lon="2.11525">
        <ele>71.7</ele>
        <time>2024-03-27T15:08:34Z</time>
      </trkpt>
      <trkpt lat="50.05996" lon="2.11525">
        <ele>71.7</ele>
        <time>2024-03-27T15:08:35Z</time>
      </trkpt>
      <trkpt lat="50.05996" lon="2.11525">
        <ele>71.7</ele>
        <time>2024-03-27T15:08:36Z</time>
      </trkpt>
      <trkpt lat="50.05996" lon="2.11525">
        <ele>71.7</ele>
        <time>2024-03-27T15:08:37Z</time>
      </trkpt>
      <trkpt lat="50.05996" lon="2.11525">
        <ele>71.7</ele>
        <time>2024-03-27T15:08:38Z</time>
      </trkpt>
      <trkpt lat="50.05996" lon="2.11525">
        <ele>71.7</ele>
        <time>2024-03-27T15:08:39Z</time>
      </trkpt>
      <trkpt lat="50.05996" lon="2.11525">
        <ele>71.7</ele>
        <time>2024-03-27T15:08:40Z</time>
      </trkpt>
      <trkpt lat="50.05996" lon="2.11526">
        <ele>71.7</ele>
        <time>2024-03-27T15:08:41Z</time>
      </trkpt>
      <trkpt lat="50.05996" lon="2.11526">
        <ele>71.7</ele>
        <time>2024-03-27T15:08:42Z</time>
      </trkpt>
      <trkpt lat="50.05996" lon="2.11526">
        <ele>71.7</ele>
        <time>2024-03-27T15:08:43Z</time>
      </trkpt>
      <trkpt lat="50.05996" lon="2.11526">
        <ele>71.7</ele>
        <time>2024-03-27T15:08:44Z</time>
      </trkpt>
      <trkpt lat="50.05996" lon="2.11526">
        <ele>71.7</ele>
        <time>2024-03-27T15:08:45Z</time>
      </trkpt>
      <trkpt lat="50.05996" lon="2.11526">
        <ele>71.7</ele>
        <time>2024-03-27T15:08:46Z</time>
      </trkpt>
      <trkpt lat="50.05996" lon="2.11526">
        <ele>71.7</ele>
        <time>2024-03-27T15:08:47Z</time>
      </trkpt>
      <trkpt lat="50.05996" lon="2.11526">
        <ele>71.7</ele>
        <time>2024-03-27T15:08:48Z</time>
      </trkpt>
      <trkpt lat="50.05996" lon="2.11526">
        <ele>71.7</ele>
        <time>2024-03-27T15:08:49Z</time>
      </trkpt>
      <trkpt lat="50.05996" lon="2.11526">
        <ele>71.7</ele>
        <time>2024-03-27T15:08:50Z</time>
      </trkpt>
      <trkpt lat="50.05996" lon="2.11526">
        <ele>71.7</ele>
        <time>2024-03-27T15:08:51Z</time>
      </trkpt>
      <trkpt lat="50.05996" lon="2.11527">
        <ele>71.7</ele>
        <time>2024-03-27T15:08:52Z</time>
      </trkpt>
      <trkpt lat="50.05996" lon="2.11527">
        <ele>71.7</ele>
        <time>2024-03-27T15:08:53Z</time>
      </trkpt>
      <trkpt lat="50.05996" lon="2.11527">
        <ele>71.7</ele>
        <time>2024-03-27T15:08:54Z</time>
      </trkpt>
      <trkpt lat="50.05996" lon="2.11527">
        <ele>71.7</ele>
        <time>2024-03-27T15:08:55Z</time>
      </trkpt>
      <trkpt lat="50.05996" lon="2.11527">
        <ele>71.7</ele>
        <time>2024-03-27T15:08:56Z</time>
      </trkpt>
      <trkpt lat="50.05996" lon="2.11527">
        <ele>71.7</ele>
        <time>2024-03-27T15:08:57Z</time>
      </trkpt>
      <trkpt lat="50.05996" lon="2.11527">
        <ele>71.7</ele>
        <time>2024-03-27T15:08:58Z</time>
      </trkpt>
      <trkpt lat="50.05996" lon="2.11527">
        <ele>71.7</ele>
        <time>2024-03-27T15:08:59Z</time>
      </trkpt>
      <trkpt lat="50.05995" lon="2.11528">
        <ele>71.7</ele>
        <time>2024-03-27T15:09:00Z</time>
      </trkpt>
      <trkpt lat="50.05995" lon="2.11528">
        <ele>71.7</ele>
        <time>2024-03-27T15:09:01Z</time>
      </trkpt>
      <trkpt lat="50.05994" lon="2.11528">
        <ele>71.7</ele>
        <time>2024-03-27T15:09:02Z</time>
      </trkpt>
      <trkpt lat="50.05993" lon="2.11528">
        <ele>71.7</ele>
        <time>2024-03-27T15:09:03Z</time>
      </trkpt>
      <trkpt lat="50.05992" lon="2.11527">
        <ele>71.7</ele>
        <time>2024-03-27T15:09:04Z</time>
      </trkpt>
      <trkpt lat="50.05992" lon="2.11527">
        <ele>71.6</ele>
        <time>2024-03-27T15:09:05Z</time>
      </trkpt>
      <trkpt lat="50.05992" lon="2.11528">
        <ele>71.6</ele>
        <time>2024-03-27T15:09:06Z</time>
      </trkpt>
      <trkpt lat="50.05991" lon="2.11528">
        <ele>71.6</ele>
        <time>2024-03-27T15:09:07Z</time>
      </trkpt>
      <trkpt lat="50.0599" lon="2.11529">
        <ele>71.6</ele>
        <time>2024-03-27T15:09:08Z</time>
      </trkpt>
      <trkpt lat="50.0599" lon="2.1153">
        <ele>71.5</ele>
        <time>2024-03-27T15:09:09Z</time>
      </trkpt>
      <trkpt lat="50.05989" lon="2.1153">
        <ele>71.5</ele>
        <time>2024-03-27T15:09:10Z</time>
      </trkpt>
      <trkpt lat="50.05988" lon="2.11531">
        <ele>71.5</ele>
        <time>2024-03-27T15:09:11Z</time>
      </trkpt>
      <trkpt lat="50.05988" lon="2.11532">
        <ele>71.5</ele>
        <time>2024-03-27T15:09:12Z</time>
      </trkpt>
      <trkpt lat="50.05987" lon="2.11533">
        <ele>71.4</ele>
        <time>2024-03-27T15:09:13Z</time>
      </trkpt>
      <trkpt lat="50.05987" lon="2.11534">
        <ele>71.4</ele>
        <time>2024-03-27T15:09:14Z</time>
      </trkpt>
      <trkpt lat="50.05986" lon="2.11535">
        <ele>71.4</ele>
        <time>2024-03-27T15:09:15Z</time>
      </trkpt>
      <trkpt lat="50.05986" lon="2.11537">
        <ele>71.3</ele>
        <time>2024-03-27T15:09:16Z</time>
      </trkpt>
      <trkpt lat="50.05986" lon="2.11538">
        <ele>71.3</ele>
        <time>2024-03-27T15:09:17Z</time>
      </trkpt>
      <trkpt lat="50.05985" lon="2.11539">
        <ele>71.3</ele>
        <time>2024-03-27T15:09:18Z</time>
      </trkpt>
      <trkpt lat="50.05985" lon="2.11541">
        <ele>71.2</ele>
        <time>2024-03-27T15:09:19Z</time>
      </trkpt>
      <trkpt lat="50.05985" lon="2.11542">
        <ele>71.2</ele>
        <time>2024-03-27T15:09:20Z</time>
      </trkpt>
      <trkpt lat="50.05985" lon="2.11543">
        <ele>71.2</ele>
        <time>2024-03-27T15:09:21Z</time>
      </trkpt>
      <trkpt lat="50.05984" lon="2.11545">
        <ele>71.1</ele>
        <time>2024-03-27T15:09:22Z</time>
      </trkpt>
      <trkpt lat="50.05984" lon="2.11546">
        <ele>71.1</ele>
        <time>2024-03-27T15:09:23Z</time>
      </trkpt>
      <trkpt lat="50.05983" lon="2.11549">
        <ele>71</ele>
        <time>2024-03-27T15:09:24Z</time>
      </trkpt>
      <trkpt lat="50.05982" lon="2.1155">
        <ele>71</ele>
        <time>2024-03-27T15:09:25Z</time>
      </trkpt>
      <trkpt lat="50.05981" lon="2.11552">
        <ele>71</ele>
        <time>2024-03-27T15:09:26Z</time>
      </trkpt>
      <trkpt lat="50.0598" lon="2.11555">
        <ele>70.9</ele>
        <time>2024-03-27T15:09:27Z</time>
      </trkpt>
      <trkpt lat="50.0598" lon="2.11556">
        <ele>70.9</ele>
        <time>2024-03-27T15:09:28Z</time>
      </trkpt>
      <trkpt lat="50.0598" lon="2.11558">
        <ele>70.8</ele>
        <time>2024-03-27T15:09:29Z</time>
      </trkpt>
      <trkpt lat="50.05979" lon="2.11559">
        <ele>70.8</ele>
        <time>2024-03-27T15:09:30Z</time>
      </trkpt>
      <trkpt lat="50.05979" lon="2.11561">
        <ele>70.8</ele>
        <time>2024-03-27T15:09:31Z</time>
      </trkpt>
      <trkpt lat="50.05978" lon="2.11562">
        <ele>70.7</ele>
        <time>2024-03-27T15:09:32Z</time>
      </trkpt>
      <trkpt lat="50.05977" lon="2.11563">
        <ele>70.7</ele>
        <time>2024-03-27T15:09:33Z</time>
      </trkpt>
      <trkpt lat="50.05977" lon="2.11564">
        <ele>70.7</ele>
        <time>2024-03-27T15:09:34Z</time>
      </trkpt>
      <trkpt lat="50.05976" lon="2.11565">
        <ele>70.6</ele>
        <time>2024-03-27T15:09:35Z</time>
      </trkpt>
      <trkpt lat="50.05975" lon="2.11566">
        <ele>70.6</ele>
        <time>2024-03-27T15:09:36Z</time>
      </trkpt>
      <trkpt lat="50.05974" lon="2.11567">
        <ele>70.6</ele>
        <time>2024-03-27T15:09:37Z</time>
      </trkpt>
      <trkpt lat="50.05974" lon="2.11568">
        <ele>70.5</ele>
        <time>2024-03-27T15:09:38Z</time>
      </trkpt>
      <trkpt lat="50.05973" lon="2.1157">
        <ele>70.5</ele>
        <time>2024-03-27T15:09:39Z</time>
      </trkpt>
      <trkpt lat="50.05972" lon="2.11571">
        <ele>70.5</ele>
        <time>2024-03-27T15:09:40Z</time>
      </trkpt>
      <trkpt lat="50.05972" lon="2.11572">
        <ele>70.5</ele>
        <time>2024-03-27T15:09:41Z</time>
      </trkpt>
      <trkpt lat="50.05971" lon="2.11573">
        <ele>70.4</ele>
        <time>2024-03-27T15:09:42Z</time>
      </trkpt>
      <trkpt lat="50.0597" lon="2.11574">
        <ele>70.4</ele>
        <time>2024-03-27T15:09:43Z</time>
      </trkpt>
      <trkpt lat="50.05969" lon="2.11575">
        <ele>70.4</ele>
        <time>2024-03-27T15:09:44Z</time>
      </trkpt>
      <trkpt lat="50.05969" lon="2.11576">
        <ele>70.3</ele>
        <time>2024-03-27T15:09:45Z</time>
      </trkpt>
      <trkpt lat="50.05968" lon="2.11578">
        <ele>70.3</ele>
        <time>2024-03-27T15:09:46Z</time>
      </trkpt>
      <trkpt lat="50.05967" lon="2.11579">
        <ele>70.3</ele>
        <time>2024-03-27T15:09:47Z</time>
      </trkpt>
      <trkpt lat="50.05967" lon="2.1158">
        <ele>70.3</ele>
        <time>2024-03-27T15:09:48Z</time>
      </trkpt>
      <trkpt lat="50.05966" lon="2.11581">
        <ele>70.2</ele>
        <time>2024-03-27T15:09:49Z</time>
      </trkpt>
      <trkpt lat="50.05965" lon="2.11582">
        <ele>70.2</ele>
        <time>2024-03-27T15:09:50Z</time>
      </trkpt>
      <trkpt lat="50.05965" lon="2.11584">
        <ele>70.2</ele>
        <time>2024-03-27T15:09:51Z</time>
      </trkpt>
      <trkpt lat="50.05964" lon="2.11585">
        <ele>70.2</ele>
        <time>2024-03-27T15:09:52Z</time>
      </trkpt>
      <trkpt lat="50.05963" lon="2.11586">
        <ele>70.1</ele>
        <time>2024-03-27T15:09:53Z</time>
      </trkpt>
      <trkpt lat="50.05963" lon="2.11588">
        <ele>70.1</ele>
        <time>2024-03-27T15:09:54Z</time>
      </trkpt>
      <trkpt lat="50.05962" lon="2.11589">
        <ele>70.1</ele>
        <time>2024-03-27T15:09:55Z</time>
      </trkpt>
      <trkpt lat="50.05961" lon="2.1159">
        <ele>70.1</ele>
        <time>2024-03-27T15:09:56Z</time>
      </trkpt>
      <trkpt lat="50.05961" lon="2.11591">
        <ele>70</ele>
        <time>2024-03-27T15:09:57Z</time>
      </trkpt>
      <trkpt lat="50.0596" lon="2.11592">
        <ele>70</ele>
        <time>2024-03-27T15:09:58Z</time>
      </trkpt>
      <trkpt lat="50.05959" lon="2.11594">
        <ele>70</ele>
        <time>2024-03-27T15:09:59Z</time>
      </trkpt>
      <trkpt lat="50.05959" lon="2.11595">
        <ele>70</ele>
        <time>2024-03-27T15:10:00Z</time>
      </trkpt>
      <trkpt lat="50.05958" lon="2.11596">
        <ele>69.9</ele>
        <time>2024-03-27T15:10:01Z</time>
      </trkpt>
      <trkpt lat="50.05958" lon="2.11597">
        <ele>69.9</ele>
        <time>2024-03-27T15:10:02Z</time>
      </trkpt>
      <trkpt lat="50.05957" lon="2.11599">
        <ele>69.9</ele>
        <time>2024-03-27T15:10:03Z</time>
      </trkpt>
      <trkpt lat="50.05956" lon="2.116">
        <ele>69.9</ele>
        <time>2024-03-27T15:10:04Z</time>
      </trkpt>
      <trkpt lat="50.05955" lon="2.11601">
        <ele>69.8</ele>
        <time>2024-03-27T15:10:05Z</time>
      </trkpt>
      <trkpt lat="50.05954" lon="2.11602">
        <ele>69.8</ele>
        <time>2024-03-27T15:10:06Z</time>
      </trkpt>
      <trkpt lat="50.05954" lon="2.11604">
        <ele>69.8</ele>
        <time>2024-03-27T15:10:07Z</time>
      </trkpt>
      <trkpt lat="50.05953" lon="2.11605">
        <ele>69.8</ele>
        <time>2024-03-27T15:10:08Z</time>
      </trkpt>
      <trkpt lat="50.05952" lon="2.11606">
        <ele>69.7</ele>
        <time>2024-03-27T15:10:09Z</time>
      </trkpt>
      <trkpt lat="50.05951" lon="2.11607">
        <ele>69.7</ele>
        <time>2024-03-27T15:10:10Z</time>
      </trkpt>
      <trkpt lat="50.05951" lon="2.11608">
        <ele>69.7</ele>
        <time>2024-03-27T15:10:11Z</time>
      </trkpt>
      <trkpt lat="50.0595" lon="2.11609">
        <ele>69.7</ele>
        <time>2024-03-27T15:10:12Z</time>
      </trkpt>
      <trkpt lat="50.05949" lon="2.1161">
        <ele>69.7</ele>
        <time>2024-03-27T15:10:13Z</time>
      </trkpt>
      <trkpt lat="50.05949" lon="2.11612">
        <ele>69.6</ele>
        <time>2024-03-27T15:10:14Z</time>
      </trkpt>
      <trkpt lat="50.05948" lon="2.11613">
        <ele>69.6</ele>
        <time>2024-03-27T15:10:15Z</time>
      </trkpt>
      <trkpt lat="50.05948" lon="2.11614">
        <ele>69.6</ele>
        <time>2024-03-27T15:10:16Z</time>
      </trkpt>
      <trkpt lat="50.05947" lon="2.11616">
        <ele>69.6</ele>
        <time>2024-03-27T15:10:17Z</time>
      </trkpt>
      <trkpt lat="50.05947" lon="2.11617">
        <ele>69.6</ele>
        <time>2024-03-27T15:10:18Z</time>
      </trkpt>
      <trkpt lat="50.05946" lon="2.11618">
        <ele>69.6</ele>
        <time>2024-03-27T15:10:19Z</time>
      </trkpt>
      <trkpt lat="50.05945" lon="2.1162">
        <ele>69.6</ele>
        <time>2024-03-27T15:10:20Z</time>
      </trkpt>
      <trkpt lat="50.05945" lon="2.11621">
        <ele>69.5</ele>
        <time>2024-03-27T15:10:21Z</time>
      </trkpt>
      <trkpt lat="50.05944" lon="2.11623">
        <ele>69.5</ele>
        <time>2024-03-27T15:10:22Z</time>
      </trkpt>
      <trkpt lat="50.05943" lon="2.11624">
        <ele>69.5</ele>
        <time>2024-03-27T15:10:23Z</time>
      </trkpt>
      <trkpt lat="50.05943" lon="2.11625">
        <ele>69.5</ele>
        <time>2024-03-27T15:10:24Z</time>
      </trkpt>
      <trkpt lat="50.05942" lon="2.11627">
        <ele>69.5</ele>
        <time>2024-03-27T15:10:25Z</time>
      </trkpt>
      <trkpt lat="50.05941" lon="2.11628">
        <ele>69.5</ele>
        <time>2024-03-27T15:10:26Z</time>
      </trkpt>
      <trkpt lat="50.05941" lon="2.11629">
        <ele>69.5</ele>
        <time>2024-03-27T15:10:27Z</time>
      </trkpt>
      <trkpt lat="50.0594" lon="2.1163">
        <ele>69.5</ele>
        <time>2024-03-27T15:10:28Z</time>
      </trkpt>
      <trkpt lat="50.05939" lon="2.11631">
        <ele>69.5</ele>
        <time>2024-03-27T15:10:29Z</time>
      </trkpt>
      <trkpt lat="50.05938" lon="2.11634">
        <ele>69.5</ele>
        <time>2024-03-27T15:10:30Z</time>
      </trkpt>
      <trkpt lat="50.05937" lon="2.11634">
        <ele>69.5</ele>
        <time>2024-03-27T15:10:31Z</time>
      </trkpt>
      <trkpt lat="50.05937" lon="2.11635">
        <ele>69.5</ele>
        <time>2024-03-27T15:10:32Z</time>
      </trkpt>
      <trkpt lat="50.05936" lon="2.11636">
        <ele>69.5</ele>
        <time>2024-03-27T15:10:33Z</time>
      </trkpt>
      <trkpt lat="50.05935" lon="2.11638">
        <ele>69.5</ele>
        <time>2024-03-27T15:10:34Z</time>
      </trkpt>
      <trkpt lat="50.05934" lon="2.11638">
        <ele>69.4</ele>
        <time>2024-03-27T15:10:35Z</time>
      </trkpt>
      <trkpt lat="50.05933" lon="2.11639">
        <ele>69.4</ele>
        <time>2024-03-27T15:10:36Z</time>
      </trkpt>
      <trkpt lat="50.05932" lon="2.1164">
        <ele>69.4</ele>
        <time>2024-03-27T15:10:37Z</time>
      </trkpt>
      <trkpt lat="50.05931" lon="2.11641">
        <ele>69.4</ele>
        <time>2024-03-27T15:10:38Z</time>
      </trkpt>
      <trkpt lat="50.0593" lon="2.11642">
        <ele>69.4</ele>
        <time>2024-03-27T15:10:39Z</time>
      </trkpt>
      <trkpt lat="50.05929" lon="2.11643">
        <ele>69.4</ele>
        <time>2024-03-27T15:10:40Z</time>
      </trkpt>
      <trkpt lat="50.05929" lon="2.11644">
        <ele>69.4</ele>
        <time>2024-03-27T15:10:41Z</time>
      </trkpt>
      <trkpt lat="50.05928" lon="2.11646">
        <ele>69.4</ele>
        <time>2024-03-27T15:10:42Z</time>
      </trkpt>
      <trkpt lat="50.05927" lon="2.11647">
        <ele>69.4</ele>
        <time>2024-03-27T15:10:43Z</time>
      </trkpt>
      <trkpt lat="50.05927" lon="2.11648">
        <ele>69.4</ele>
        <time>2024-03-27T15:10:44Z</time>
      </trkpt>
      <trkpt lat="50.05926" lon="2.11649">
        <ele>69.4</ele>
        <time>2024-03-27T15:10:45Z</time>
      </trkpt>
      <trkpt lat="50.05925" lon="2.1165">
        <ele>69.4</ele>
        <time>2024-03-27T15:10:46Z</time>
      </trkpt>
      <trkpt lat="50.05924" lon="2.11651">
        <ele>69.4</ele>
        <time>2024-03-27T15:10:47Z</time>
      </trkpt>
      <trkpt lat="50.05923" lon="2.11652">
        <ele>69.4</ele>
        <time>2024-03-27T15:10:48Z</time>
      </trkpt>
      <trkpt lat="50.05923" lon="2.11654">
        <ele>69.4</ele>
        <time>2024-03-27T15:10:49Z</time>
      </trkpt>
      <trkpt lat="50.05922" lon="2.11655">
        <ele>69.4</ele>
        <time>2024-03-27T15:10:50Z</time>
      </trkpt>
      <trkpt lat="50.05922" lon="2.11656">
        <ele>69.4</ele>
        <time>2024-03-27T15:10:51Z</time>
      </trkpt>
      <trkpt lat="50.05921" lon="2.11657">
        <ele>69.4</ele>
        <time>2024-03-27T15:10:52Z</time>
      </trkpt>
      <trkpt lat="50.0592" lon="2.11659">
        <ele>69.3</ele>
        <time>2024-03-27T15:10:53Z</time>
      </trkpt>
      <trkpt lat="50.0592" lon="2.1166">
        <ele>69.3</ele>
        <time>2024-03-27T15:10:54Z</time>
      </trkpt>
      <trkpt lat="50.05919" lon="2.11661">
        <ele>69.3</ele>
        <time>2024-03-27T15:10:55Z</time>
      </trkpt>
      <trkpt lat="50.05919" lon="2.11663">
        <ele>69.3</ele>
        <time>2024-03-27T15:10:56Z</time>
      </trkpt>
      <trkpt lat="50.05918" lon="2.11663">
        <ele>69.3</ele>
        <time>2024-03-27T15:10:57Z</time>
      </trkpt>
      <trkpt lat="50.05917" lon="2.11664">
        <ele>69.3</ele>
        <time>2024-03-27T15:10:58Z</time>
      </trkpt>
      <trkpt lat="50.05917" lon="2.11665">
        <ele>69.3</ele>
        <time>2024-03-27T15:10:59Z</time>
      </trkpt>
      <trkpt lat="50.05917" lon="2.11667">
        <ele>69.3</ele>
        <time>2024-03-27T15:11:00Z</time>
      </trkpt>
      <trkpt lat="50.05916" lon="2.11668">
        <ele>69.3</ele>
        <time>2024-03-27T15:11:01Z</time>
      </trkpt>
      <trkpt lat="50.05916" lon="2.1167">
        <ele>69.3</ele>
        <time>2024-03-27T15:11:02Z</time>
      </trkpt>
      <trkpt lat="50.05915" lon="2.11671">
        <ele>69.3</ele>
        <time>2024-03-27T15:11:03Z</time>
      </trkpt>
      <trkpt lat="50.05915" lon="2.11673">
        <ele>69.3</ele>
        <time>2024-03-27T15:11:04Z</time>
      </trkpt>
      <trkpt lat="50.05914" lon="2.11674">
        <ele>69.3</ele>
        <time>2024-03-27T15:11:05Z</time>
      </trkpt>
      <trkpt lat="50.05913" lon="2.11676">
        <ele>69.3</ele>
        <time>2024-03-27T15:11:06Z</time>
      </trkpt>
      <trkpt lat="50.05913" lon="2.11677">
        <ele>69.3</ele>
        <time>2024-03-27T15:11:07Z</time>
      </trkpt>
      <trkpt lat="50.05912" lon="2.11678">
        <ele>69.3</ele>
        <time>2024-03-27T15:11:08Z</time>
      </trkpt>
      <trkpt lat="50.05911" lon="2.11679">
        <ele>69.3</ele>
        <time>2024-03-27T15:11:09Z</time>
      </trkpt>
      <trkpt lat="50.05911" lon="2.11681">
        <ele>69.3</ele>
        <time>2024-03-27T15:11:10Z</time>
      </trkpt>
      <trkpt lat="50.0591" lon="2.11682">
        <ele>69.3</ele>
        <time>2024-03-27T15:11:11Z</time>
      </trkpt>
      <trkpt lat="50.05909" lon="2.11684">
        <ele>69.3</ele>
        <time>2024-03-27T15:11:12Z</time>
      </trkpt>
      <trkpt lat="50.05909" lon="2.11685">
        <ele>69.3</ele>
        <time>2024-03-27T15:11:13Z</time>
      </trkpt>
      <trkpt lat="50.05908" lon="2.11687">
        <ele>69.3</ele>
        <time>2024-03-27T15:11:14Z</time>
      </trkpt>
      <trkpt lat="50.05908" lon="2.11688">
        <ele>69.3</ele>
        <time>2024-03-27T15:11:15Z</time>
      </trkpt>
      <trkpt lat="50.05908" lon="2.11689">
        <ele>69.3</ele>
        <time>2024-03-27T15:11:16Z</time>
      </trkpt>
      <trkpt lat="50.05907" lon="2.1169">
        <ele>69.3</ele>
        <time>2024-03-27T15:11:17Z</time>
      </trkpt>
      <trkpt lat="50.05907" lon="2.11692">
        <ele>69.3</ele>
        <time>2024-03-27T15:11:18Z</time>
      </trkpt>
      <trkpt lat="50.05906" lon="2.11693">
        <ele>69.3</ele>
        <time>2024-03-27T15:11:19Z</time>
      </trkpt>
      <trkpt lat="50.05905" lon="2.11694">
        <ele>69.3</ele>
        <time>2024-03-27T15:11:20Z</time>
      </trkpt>
      <trkpt lat="50.05904" lon="2.11696">
        <ele>69.3</ele>
        <time>2024-03-27T15:11:21Z</time>
      </trkpt>
      <trkpt lat="50.05904" lon="2.11697">
        <ele>69.3</ele>
        <time>2024-03-27T15:11:22Z</time>
      </trkpt>
      <trkpt lat="50.05903" lon="2.11697">
        <ele>69.3</ele>
        <time>2024-03-27T15:11:23Z</time>
      </trkpt>
      <trkpt lat="50.05902" lon="2.11698">
        <ele>69.4</ele>
        <time>2024-03-27T15:11:24Z</time>
      </trkpt>
      <trkpt lat="50.05901" lon="2.11699">
        <ele>69.4</ele>
        <time>2024-03-27T15:11:25Z</time>
      </trkpt>
      <trkpt lat="50.059" lon="2.11701">
        <ele>69.4</ele>
        <time>2024-03-27T15:11:26Z</time>
      </trkpt>
      <trkpt lat="50.059" lon="2.11702">
        <ele>69.4</ele>
        <time>2024-03-27T15:11:27Z</time>
      </trkpt>
      <trkpt lat="50.05899" lon="2.11703">
        <ele>69.4</ele>
        <time>2024-03-27T15:11:28Z</time>
      </trkpt>
      <trkpt lat="50.05898" lon="2.11705">
        <ele>69.4</ele>
        <time>2024-03-27T15:11:29Z</time>
      </trkpt>
      <trkpt lat="50.05897" lon="2.11706">
        <ele>69.4</ele>
        <time>2024-03-27T15:11:30Z</time>
      </trkpt>
      <trkpt lat="50.05897" lon="2.11707">
        <ele>69.4</ele>
        <time>2024-03-27T15:11:31Z</time>
      </trkpt>
      <trkpt lat="50.05896" lon="2.11709">
        <ele>69.4</ele>
        <time>2024-03-27T15:11:32Z</time>
      </trkpt>
      <trkpt lat="50.05895" lon="2.1171">
        <ele>69.4</ele>
        <time>2024-03-27T15:11:33Z</time>
      </trkpt>
      <trkpt lat="50.05895" lon="2.11711">
        <ele>69.4</ele>
        <time>2024-03-27T15:11:34Z</time>
      </trkpt>
      <trkpt lat="50.05894" lon="2.11712">
        <ele>69.5</ele>
        <time>2024-03-27T15:11:35Z</time>
      </trkpt>
      <trkpt lat="50.05893" lon="2.11714">
        <ele>69.5</ele>
        <time>2024-03-27T15:11:36Z</time>
      </trkpt>
      <trkpt lat="50.05892" lon="2.11715">
        <ele>69.5</ele>
        <time>2024-03-27T15:11:37Z</time>
      </trkpt>
      <trkpt lat="50.05891" lon="2.11716">
        <ele>69.5</ele>
        <time>2024-03-27T15:11:38Z</time>
      </trkpt>
      <trkpt lat="50.05891" lon="2.11717">
        <ele>69.5</ele>
        <time>2024-03-27T15:11:39Z</time>
      </trkpt>
      <trkpt lat="50.0589" lon="2.11719">
        <ele>69.5</ele>
        <time>2024-03-27T15:11:40Z</time>
      </trkpt>
      <trkpt lat="50.05889" lon="2.1172">
        <ele>69.5</ele>
        <time>2024-03-27T15:11:41Z</time>
      </trkpt>
      <trkpt lat="50.05889" lon="2.11721">
        <ele>69.5</ele>
        <time>2024-03-27T15:11:42Z</time>
      </trkpt>
      <trkpt lat="50.05888" lon="2.11722">
        <ele>69.6</ele>
        <time>2024-03-27T15:11:43Z</time>
      </trkpt>
      <trkpt lat="50.05887" lon="2.11723">
        <ele>69.6</ele>
        <time>2024-03-27T15:11:44Z</time>
      </trkpt>
      <trkpt lat="50.05886" lon="2.11725">
        <ele>69.6</ele>
        <time>2024-03-27T15:11:45Z</time>
      </trkpt>
      <trkpt lat="50.05885" lon="2.11726">
        <ele>69.6</ele>
        <time>2024-03-27T15:11:46Z</time>
      </trkpt>
      <trkpt lat="50.05885" lon="2.11727">
        <ele>69.6</ele>
        <time>2024-03-27T15:11:47Z</time>
      </trkpt>
      <trkpt lat="50.05884" lon="2.11728">
        <ele>69.6</ele>
        <time>2024-03-27T15:11:48Z</time>
      </trkpt>
      <trkpt lat="50.05883" lon="2.11729">
        <ele>69.6</ele>
        <time>2024-03-27T15:11:49Z</time>
      </trkpt>
      <trkpt lat="50.05883" lon="2.1173">
        <ele>69.6</ele>
        <time>2024-03-27T15:11:50Z</time>
      </trkpt>
      <trkpt lat="50.05882" lon="2.11732">
        <ele>69.7</ele>
        <time>2024-03-27T15:11:51Z</time>
      </trkpt>
      <trkpt lat="50.05881" lon="2.11733">
        <ele>69.7</ele>
        <time>2024-03-27T15:11:52Z</time>
      </trkpt>
      <trkpt lat="50.0588" lon="2.11735">
        <ele>69.7</ele>
        <time>2024-03-27T15:11:53Z</time>
      </trkpt>
      <trkpt lat="50.0588" lon="2.11736">
        <ele>69.7</ele>
        <time>2024-03-27T15:11:54Z</time>
      </trkpt>
      <trkpt lat="50.05879" lon="2.11738">
        <ele>69.7</ele>
        <time>2024-03-27T15:11:55Z</time>
      </trkpt>
      <trkpt lat="50.05878" lon="2.11739">
        <ele>69.7</ele>
        <time>2024-03-27T15:11:56Z</time>
      </trkpt>
      <trkpt lat="50.05878" lon="2.1174">
        <ele>69.8</ele>
        <time>2024-03-27T15:11:57Z</time>
      </trkpt>
      <trkpt lat="50.05877" lon="2.11741">
        <ele>69.8</ele>
        <time>2024-03-27T15:11:58Z</time>
      </trkpt>
      <trkpt lat="50.05876" lon="2.11742">
        <ele>69.8</ele>
        <time>2024-03-27T15:11:59Z</time>
      </trkpt>
      <trkpt lat="50.05875" lon="2.11743">
        <ele>69.8</ele>
        <time>2024-03-27T15:12:00Z</time>
      </trkpt>
      <trkpt lat="50.05875" lon="2.11744">
        <ele>69.8</ele>
        <time>2024-03-27T15:12:01Z</time>
      </trkpt>
      <trkpt lat="50.05874" lon="2.11745">
        <ele>69.8</ele>
        <time>2024-03-27T15:12:02Z</time>
      </trkpt>
      <trkpt lat="50.05873" lon="2.11747">
        <ele>69.8</ele>
        <time>2024-03-27T15:12:03Z</time>
      </trkpt>
      <trkpt lat="50.05873" lon="2.11748">
        <ele>69.8</ele>
        <time>2024-03-27T15:12:04Z</time>
      </trkpt>
      <trkpt lat="50.05872" lon="2.11749">
        <ele>69.9</ele>
        <time>2024-03-27T15:12:05Z</time>
      </trkpt>
      <trkpt lat="50.05871" lon="2.11751">
        <ele>69.9</ele>
        <time>2024-03-27T15:12:06Z</time>
      </trkpt>
      <trkpt lat="50.05871" lon="2.11752">
        <ele>69.9</ele>
        <time>2024-03-27T15:12:07Z</time>
      </trkpt>
      <trkpt lat="50.0587" lon="2.11753">
        <ele>69.9</ele>
        <time>2024-03-27T15:12:08Z</time>
      </trkpt>
      <trkpt lat="50.05869" lon="2.11753">
        <ele>69.9</ele>
        <time>2024-03-27T15:12:09Z</time>
      </trkpt>
      <trkpt lat="50.05868" lon="2.11754">
        <ele>69.9</ele>
        <time>2024-03-27T15:12:10Z</time>
      </trkpt>
      <trkpt lat="50.05867" lon="2.11755">
        <ele>69.9</ele>
        <time>2024-03-27T15:12:11Z</time>
      </trkpt>
      <trkpt lat="50.05866" lon="2.11756">
        <ele>69.9</ele>
        <time>2024-03-27T15:12:12Z</time>
      </trkpt>
      <trkpt lat="50.05865" lon="2.11757">
        <ele>69.9</ele>
        <time>2024-03-27T15:12:13Z</time>
      </trkpt>
      <trkpt lat="50.05864" lon="2.11758">
        <ele>69.9</ele>
        <time>2024-03-27T15:12:14Z</time>
      </trkpt>
      <trkpt lat="50.05864" lon="2.11759">
        <ele>69.9</ele>
        <time>2024-03-27T15:12:15Z</time>
      </trkpt>
      <trkpt lat="50.05863" lon="2.1176">
        <ele>70</ele>
        <time>2024-03-27T15:12:16Z</time>
      </trkpt>
      <trkpt lat="50.05862" lon="2.11761">
        <ele>70</ele>
        <time>2024-03-27T15:12:17Z</time>
      </trkpt>
      <trkpt lat="50.05861" lon="2.11761">
        <ele>70</ele>
        <time>2024-03-27T15:12:18Z</time>
      </trkpt>
      <trkpt lat="50.0586" lon="2.11762">
        <ele>70</ele>
        <time>2024-03-27T15:12:19Z</time>
      </trkpt>
      <trkpt lat="50.05859" lon="2.11763">
        <ele>70</ele>
        <time>2024-03-27T15:12:20Z</time>
      </trkpt>
      <trkpt lat="50.05859" lon="2.11763">
        <ele>70</ele>
        <time>2024-03-27T15:12:21Z</time>
      </trkpt>
      <trkpt lat="50.05858" lon="2.11764">
        <ele>70</ele>
        <time>2024-03-27T15:12:22Z</time>
      </trkpt>
      <trkpt lat="50.05857" lon="2.11765">
        <ele>70</ele>
        <time>2024-03-27T15:12:23Z</time>
      </trkpt>
      <trkpt lat="50.05856" lon="2.11766">
        <ele>70</ele>
        <time>2024-03-27T15:12:24Z</time>
      </trkpt>
      <trkpt lat="50.05856" lon="2.11768">
        <ele>70</ele>
        <time>2024-03-27T15:12:25Z</time>
      </trkpt>
      <trkpt lat="50.05855" lon="2.11768">
        <ele>70</ele>
        <time>2024-03-27T15:12:26Z</time>
      </trkpt>
      <trkpt lat="50.05854" lon="2.11769">
        <ele>70</ele>
        <time>2024-03-27T15:12:27Z</time>
      </trkpt>
      <trkpt lat="50.05853" lon="2.1177">
        <ele>70</ele>
        <time>2024-03-27T15:12:28Z</time>
      </trkpt>
      <trkpt lat="50.05852" lon="2.11771">
        <ele>69.9</ele>
        <time>2024-03-27T15:12:29Z</time>
      </trkpt>
      <trkpt lat="50.05852" lon="2.11772">
        <ele>69.9</ele>
        <time>2024-03-27T15:12:30Z</time>
      </trkpt>
      <trkpt lat="50.05851" lon="2.11773">
        <ele>69.9</ele>
        <time>2024-03-27T15:12:31Z</time>
      </trkpt>
      <trkpt lat="50.0585" lon="2.11773">
        <ele>69.9</ele>
        <time>2024-03-27T15:12:32Z</time>
      </trkpt>
      <trkpt lat="50.05849" lon="2.11774">
        <ele>69.9</ele>
        <time>2024-03-27T15:12:33Z</time>
      </trkpt>
      <trkpt lat="50.05848" lon="2.11775">
        <ele>69.9</ele>
        <time>2024-03-27T15:12:34Z</time>
      </trkpt>
      <trkpt lat="50.05848" lon="2.11776">
        <ele>69.9</ele>
        <time>2024-03-27T15:12:35Z</time>
      </trkpt>
      <trkpt lat="50.05847" lon="2.11777">
        <ele>69.8</ele>
        <time>2024-03-27T15:12:36Z</time>
      </trkpt>
      <trkpt lat="50.05846" lon="2.11778">
        <ele>69.8</ele>
        <time>2024-03-27T15:12:37Z</time>
      </trkpt>
      <trkpt lat="50.05845" lon="2.11779">
        <ele>69.8</ele>
        <time>2024-03-27T15:12:38Z</time>
      </trkpt>
      <trkpt lat="50.05845" lon="2.1178">
        <ele>69.8</ele>
        <time>2024-03-27T15:12:39Z</time>
      </trkpt>
      <trkpt lat="50.05844" lon="2.1178">
        <ele>69.8</ele>
        <time>2024-03-27T15:12:40Z</time>
      </trkpt>
      <trkpt lat="50.05843" lon="2.11781">
        <ele>69.7</ele>
        <time>2024-03-27T15:12:41Z</time>
      </trkpt>
      <trkpt lat="50.05842" lon="2.11782">
        <ele>69.7</ele>
        <time>2024-03-27T15:12:42Z</time>
      </trkpt>
      <trkpt lat="50.05841" lon="2.11784">
        <ele>69.7</ele>
        <time>2024-03-27T15:12:43Z</time>
      </trkpt>
      <trkpt lat="50.0584" lon="2.11785">
        <ele>69.6</ele>
        <time>2024-03-27T15:12:44Z</time>
      </trkpt>
      <trkpt lat="50.05839" lon="2.11786">
        <ele>69.6</ele>
        <time>2024-03-27T15:12:45Z</time>
      </trkpt>
      <trkpt lat="50.05838" lon="2.11788">
        <ele>69.6</ele>
        <time>2024-03-27T15:12:46Z</time>
      </trkpt>
      <trkpt lat="50.05837" lon="2.11788">
        <ele>69.5</ele>
        <time>2024-03-27T15:12:47Z</time>
      </trkpt>
      <trkpt lat="50.05836" lon="2.11789">
        <ele>69.5</ele>
        <time>2024-03-27T15:12:48Z</time>
      </trkpt>
      <trkpt lat="50.05835" lon="2.11791">
        <ele>69.4</ele>
        <time>2024-03-27T15:12:49Z</time>
      </trkpt>
      <trkpt lat="50.05834" lon="2.11792">
        <ele>69.4</ele>
        <time>2024-03-27T15:12:50Z</time>
      </trkpt>
      <trkpt lat="50.05833" lon="2.11792">
        <ele>69.4</ele>
        <time>2024-03-27T15:12:51Z</time>
      </trkpt>
      <trkpt lat="50.05832" lon="2.11794">
        <ele>69.3</ele>
        <time>2024-03-27T15:12:52Z</time>
      </trkpt>
      <trkpt lat="50.05831" lon="2.11795">
        <ele>69.3</ele>
        <time>2024-03-27T15:12:53Z</time>
      </trkpt>
      <trkpt lat="50.0583" lon="2.11796">
        <ele>69.2</ele>
        <time>2024-03-27T15:12:54Z</time>
      </trkpt>
      <trkpt lat="50.05829" lon="2.11797">
        <ele>69.2</ele>
        <time>2024-03-27T15:12:55Z</time>
      </trkpt>
      <trkpt lat="50.05829" lon="2.11798">
        <ele>69.2</ele>
        <time>2024-03-27T15:12:56Z</time>
      </trkpt>
      <trkpt lat="50.05828" lon="2.11798">
        <ele>69.1</ele>
        <time>2024-03-27T15:12:57Z</time>
      </trkpt>
      <trkpt lat="50.05827" lon="2.11799">
        <ele>69.1</ele>
        <time>2024-03-27T15:12:58Z</time>
      </trkpt>
      <trkpt lat="50.05826" lon="2.11801">
        <ele>69.1</ele>
        <time>2024-03-27T15:12:59Z</time>
      </trkpt>
      <trkpt lat="50.05826" lon="2.11802">
        <ele>69</ele>
        <time>2024-03-27T15:13:00Z</time>
      </trkpt>
      <trkpt lat="50.05825" lon="2.11803">
        <ele>69</ele>
        <time>2024-03-27T15:13:01Z</time>
      </trkpt>
      <trkpt lat="50.05824" lon="2.11804">
        <ele>69</ele>
        <time>2024-03-27T15:13:02Z</time>
      </trkpt>
      <trkpt lat="50.05824" lon="2.11805">
        <ele>68.9</ele>
        <time>2024-03-27T15:13:03Z</time>
      </trkpt>
      <trkpt lat="50.05823" lon="2.11807">
        <ele>68.9</ele>
        <time>2024-03-27T15:13:04Z</time>
      </trkpt>
      <trkpt lat="50.05822" lon="2.11808">
        <ele>68.9</ele>
        <time>2024-03-27T15:13:05Z</time>
      </trkpt>
      <trkpt lat="50.05821" lon="2.11809">
        <ele>68.8</ele>
        <time>2024-03-27T15:13:06Z</time>
      </trkpt>
      <trkpt lat="50.05821" lon="2.1181">
        <ele>68.8</ele>
        <time>2024-03-27T15:13:07Z</time>
      </trkpt>
      <trkpt lat="50.0582" lon="2.11811">
        <ele>68.8</ele>
        <time>2024-03-27T15:13:08Z</time>
      </trkpt>
      <trkpt lat="50.05819" lon="2.11812">
        <ele>68.7</ele>
        <time>2024-03-27T15:13:09Z</time>
      </trkpt>
      <trkpt lat="50.05818" lon="2.11813">
        <ele>68.7</ele>
        <time>2024-03-27T15:13:10Z</time>
      </trkpt>
      <trkpt lat="50.05817" lon="2.11814">
        <ele>68.6</ele>
        <time>2024-03-27T15:13:11Z</time>
      </trkpt>
      <trkpt lat="50.05816" lon="2.11815">
        <ele>68.6</ele>
        <time>2024-03-27T15:13:12Z</time>
      </trkpt>
      <trkpt lat="50.05815" lon="2.11816">
        <ele>68.6</ele>
        <time>2024-03-27T15:13:13Z</time>
      </trkpt>
      <trkpt lat="50.05814" lon="2.11817">
        <ele>68.6</ele>
        <time>2024-03-27T15:13:14Z</time>
      </trkpt>
      <trkpt lat="50.05814" lon="2.11818">
        <ele>68.5</ele>
        <time>2024-03-27T15:13:15Z</time>
      </trkpt>
      <trkpt lat="50.05813" lon="2.11818">
        <ele>68.5</ele>
        <time>2024-03-27T15:13:16Z</time>
      </trkpt>
      <trkpt lat="50.05812" lon="2.11819">
        <ele>68.5</ele>
        <time>2024-03-27T15:13:17Z</time>
      </trkpt>
      <trkpt lat="50.05811" lon="2.1182">
        <ele>68.4</ele>
        <time>2024-03-27T15:13:18Z</time>
      </trkpt>
      <trkpt lat="50.0581" lon="2.11821">
        <ele>68.4</ele>
        <time>2024-03-27T15:13:19Z</time>
      </trkpt>
      <trkpt lat="50.05809" lon="2.11822">
        <ele>68.4</ele>
        <time>2024-03-27T15:13:20Z</time>
      </trkpt>
      <trkpt lat="50.05809" lon="2.11824">
        <ele>68.3</ele>
        <time>2024-03-27T15:13:21Z</time>
      </trkpt>
      <trkpt lat="50.05808" lon="2.11825">
        <ele>68.3</ele>
        <time>2024-03-27T15:13:22Z</time>
      </trkpt>
      <trkpt lat="50.05807" lon="2.11826">
        <ele>68.3</ele>
        <time>2024-03-27T15:13:23Z</time>
      </trkpt>
      <trkpt lat="50.05806" lon="2.11827">
        <ele>68.3</ele>
        <time>2024-03-27T15:13:24Z</time>
      </trkpt>
      <trkpt lat="50.05805" lon="2.11828">
        <ele>68.2</ele>
        <time>2024-03-27T15:13:25Z</time>
      </trkpt>
      <trkpt lat="50.05804" lon="2.11829">
        <ele>68.2</ele>
        <time>2024-03-27T15:13:26Z</time>
      </trkpt>
      <trkpt lat="50.05804" lon="2.1183">
        <ele>68.2</ele>
        <time>2024-03-27T15:13:27Z</time>
      </trkpt>
      <trkpt lat="50.05802" lon="2.11832">
        <ele>68.1</ele>
        <time>2024-03-27T15:13:28Z</time>
      </trkpt>
      <trkpt lat="50.05801" lon="2.11833">
        <ele>68.1</ele>
        <time>2024-03-27T15:13:29Z</time>
      </trkpt>
      <trkpt lat="50.058" lon="2.11833">
        <ele>68.1</ele>
        <time>2024-03-27T15:13:30Z</time>
      </trkpt>
      <trkpt lat="50.05799" lon="2.11835">
        <ele>68</ele>
        <time>2024-03-27T15:13:31Z</time>
      </trkpt>
      <trkpt lat="50.05798" lon="2.11835">
        <ele>68</ele>
        <time>2024-03-27T15:13:32Z</time>
      </trkpt>
      <trkpt lat="50.05797" lon="2.11836">
        <ele>68</ele>
        <time>2024-03-27T15:13:33Z</time>
      </trkpt>
      <trkpt lat="50.05796" lon="2.11837">
        <ele>68</ele>
        <time>2024-03-27T15:13:34Z</time>
      </trkpt>
      <trkpt lat="50.05796" lon="2.11838">
        <ele>68</ele>
        <time>2024-03-27T15:13:35Z</time>
      </trkpt>
      <trkpt lat="50.05795" lon="2.11839">
        <ele>68</ele>
        <time>2024-03-27T15:13:36Z</time>
      </trkpt>
      <trkpt lat="50.05794" lon="2.1184">
        <ele>67.9</ele>
        <time>2024-03-27T15:13:37Z</time>
      </trkpt>
      <trkpt lat="50.05793" lon="2.11841">
        <ele>67.9</ele>
        <time>2024-03-27T15:13:38Z</time>
      </trkpt>
      <trkpt lat="50.05792" lon="2.11842">
        <ele>67.9</ele>
        <time>2024-03-27T15:13:39Z</time>
      </trkpt>
      <trkpt lat="50.05791" lon="2.11843">
        <ele>67.9</ele>
        <time>2024-03-27T15:13:40Z</time>
      </trkpt>
      <trkpt lat="50.0579" lon="2.11844">
        <ele>67.9</ele>
        <time>2024-03-27T15:13:41Z</time>
      </trkpt>
      <trkpt lat="50.05789" lon="2.11845">
        <ele>67.8</ele>
        <time>2024-03-27T15:13:42Z</time>
      </trkpt>
      <trkpt lat="50.05788" lon="2.11846">
        <ele>67.8</ele>
        <time>2024-03-27T15:13:43Z</time>
      </trkpt>
      <trkpt lat="50.05788" lon="2.11847">
        <ele>67.8</ele>
        <time>2024-03-27T15:13:44Z</time>
      </trkpt>
      <trkpt lat="50.05787" lon="2.11848">
        <ele>67.8</ele>
        <time>2024-03-27T15:13:45Z</time>
      </trkpt>
      <trkpt lat="50.05786" lon="2.11849">
        <ele>67.8</ele>
        <time>2024-03-27T15:13:46Z</time>
      </trkpt>
      <trkpt lat="50.05785" lon="2.1185">
        <ele>67.8</ele>
        <time>2024-03-27T15:13:47Z</time>
      </trkpt>
      <trkpt lat="50.05784" lon="2.11851">
        <ele>67.8</ele>
        <time>2024-03-27T15:13:48Z</time>
      </trkpt>
      <trkpt lat="50.05783" lon="2.11852">
        <ele>67.8</ele>
        <time>2024-03-27T15:13:49Z</time>
      </trkpt>
      <trkpt lat="50.05783" lon="2.11853">
        <ele>67.8</ele>
        <time>2024-03-27T15:13:50Z</time>
      </trkpt>
      <trkpt lat="50.05782" lon="2.11855">
        <ele>67.7</ele>
        <time>2024-03-27T15:13:51Z</time>
      </trkpt>
      <trkpt lat="50.05781" lon="2.11856">
        <ele>67.7</ele>
        <time>2024-03-27T15:13:52Z</time>
      </trkpt>
      <trkpt lat="50.05781" lon="2.11857">
        <ele>67.7</ele>
        <time>2024-03-27T15:13:53Z</time>
      </trkpt>
      <trkpt lat="50.0578" lon="2.11858">
        <ele>67.7</ele>
        <time>2024-03-27T15:13:54Z</time>
      </trkpt>
      <trkpt lat="50.05779" lon="2.11859">
        <ele>67.7</ele>
        <time>2024-03-27T15:13:55Z</time>
      </trkpt>
      <trkpt lat="50.05778" lon="2.1186">
        <ele>67.7</ele>
        <time>2024-03-27T15:13:56Z</time>
      </trkpt>
      <trkpt lat="50.05778" lon="2.11861">
        <ele>67.7</ele>
        <time>2024-03-27T15:13:57Z</time>
      </trkpt>
      <trkpt lat="50.05777" lon="2.11862">
        <ele>67.7</ele>
        <time>2024-03-27T15:13:58Z</time>
      </trkpt>
      <trkpt lat="50.05776" lon="2.11863">
        <ele>67.7</ele>
        <time>2024-03-27T15:13:59Z</time>
      </trkpt>
      <trkpt lat="50.05775" lon="2.11864">
        <ele>67.7</ele>
        <time>2024-03-27T15:14:00Z</time>
      </trkpt>
      <trkpt lat="50.05775" lon="2.11865">
        <ele>67.7</ele>
        <time>2024-03-27T15:14:01Z</time>
      </trkpt>
      <trkpt lat="50.05774" lon="2.11867">
        <ele>67.7</ele>
        <time>2024-03-27T15:14:02Z</time>
      </trkpt>
      <trkpt lat="50.05773" lon="2.11868">
        <ele>67.7</ele>
        <time>2024-03-27T15:14:03Z</time>
      </trkpt>
      <trkpt lat="50.05772" lon="2.11869">
        <ele>67.7</ele>
        <time>2024-03-27T15:14:04Z</time>
      </trkpt>
      <trkpt lat="50.05772" lon="2.11871">
        <ele>67.7</ele>
        <time>2024-03-27T15:14:05Z</time>
      </trkpt>
      <trkpt lat="50.05771" lon="2.11872">
        <ele>67.7</ele>
        <time>2024-03-27T15:14:06Z</time>
      </trkpt>
      <trkpt lat="50.05769" lon="2.11874">
        <ele>67.7</ele>
        <time>2024-03-27T15:14:07Z</time>
      </trkpt>
      <trkpt lat="50.05769" lon="2.11875">
        <ele>67.7</ele>
        <time>2024-03-27T15:14:08Z</time>
      </trkpt>
      <trkpt lat="50.05768" lon="2.11876">
        <ele>67.7</ele>
        <time>2024-03-27T15:14:09Z</time>
      </trkpt>
      <trkpt lat="50.05767" lon="2.11877">
        <ele>67.7</ele>
        <time>2024-03-27T15:14:10Z</time>
      </trkpt>
      <trkpt lat="50.05766" lon="2.11879">
        <ele>67.7</ele>
        <time>2024-03-27T15:14:11Z</time>
      </trkpt>
      <trkpt lat="50.05765" lon="2.1188">
        <ele>67.7</ele>
        <time>2024-03-27T15:14:12Z</time>
      </trkpt>
      <trkpt lat="50.05764" lon="2.11881">
        <ele>67.7</ele>
        <time>2024-03-27T15:14:13Z</time>
      </trkpt>
      <trkpt lat="50.05764" lon="2.11882">
        <ele>67.7</ele>
        <time>2024-03-27T15:14:14Z</time>
      </trkpt>
      <trkpt lat="50.05763" lon="2.11883">
        <ele>67.7</ele>
        <time>2024-03-27T15:14:15Z</time>
      </trkpt>
      <trkpt lat="50.05762" lon="2.11884">
        <ele>67.8</ele>
        <time>2024-03-27T15:14:16Z</time>
      </trkpt>
      <trkpt lat="50.05761" lon="2.11885">
        <ele>67.8</ele>
        <time>2024-03-27T15:14:17Z</time>
      </trkpt>
      <trkpt lat="50.0576" lon="2.11886">
        <ele>67.8</ele>
        <time>2024-03-27T15:14:18Z</time>
      </trkpt>
      <trkpt lat="50.05759" lon="2.11888">
        <ele>67.8</ele>
        <time>2024-03-27T15:14:19Z</time>
      </trkpt>
      <trkpt lat="50.05759" lon="2.11889">
        <ele>67.8</ele>
        <time>2024-03-27T15:14:20Z</time>
      </trkpt>
      <trkpt lat="50.05758" lon="2.1189">
        <ele>67.8</ele>
        <time>2024-03-27T15:14:21Z</time>
      </trkpt>
      <trkpt lat="50.05756" lon="2.11892">
        <ele>67.8</ele>
        <time>2024-03-27T15:14:22Z</time>
      </trkpt>
      <trkpt lat="50.05756" lon="2.11893">
        <ele>67.8</ele>
        <time>2024-03-27T15:14:23Z</time>
      </trkpt>
      <trkpt lat="50.05755" lon="2.11894">
        <ele>67.8</ele>
        <time>2024-03-27T15:14:24Z</time>
      </trkpt>
      <trkpt lat="50.05754" lon="2.11895">
        <ele>67.8</ele>
        <time>2024-03-27T15:14:25Z</time>
      </trkpt>
      <trkpt lat="50.05753" lon="2.11895">
        <ele>67.8</ele>
        <time>2024-03-27T15:14:26Z</time>
      </trkpt>
      <trkpt lat="50.05753" lon="2.11896">
        <ele>67.8</ele>
        <time>2024-03-27T15:14:27Z</time>
      </trkpt>
      <trkpt lat="50.05752" lon="2.11897">
        <ele>67.8</ele>
        <time>2024-03-27T15:14:28Z</time>
      </trkpt>
      <trkpt lat="50.05751" lon="2.11899">
        <ele>67.8</ele>
        <time>2024-03-27T15:14:29Z</time>
      </trkpt>
      <trkpt lat="50.0575" lon="2.119">
        <ele>67.9</ele>
        <time>2024-03-27T15:14:30Z</time>
      </trkpt>
      <trkpt lat="50.05748" lon="2.11902">
        <ele>67.9</ele>
        <time>2024-03-27T15:14:31Z</time>
      </trkpt>
      <trkpt lat="50.05748" lon="2.11903">
        <ele>67.9</ele>
        <time>2024-03-27T15:14:32Z</time>
      </trkpt>
      <trkpt lat="50.05747" lon="2.11904">
        <ele>67.9</ele>
        <time>2024-03-27T15:14:33Z</time>
      </trkpt>
      <trkpt lat="50.05746" lon="2.11905">
        <ele>67.9</ele>
        <time>2024-03-27T15:14:34Z</time>
      </trkpt>
      <trkpt lat="50.05745" lon="2.11906">
        <ele>67.9</ele>
        <time>2024-03-27T15:14:35Z</time>
      </trkpt>
      <trkpt lat="50.05745" lon="2.11907">
        <ele>67.9</ele>
        <time>2024-03-27T15:14:36Z</time>
      </trkpt>
      <trkpt lat="50.05744" lon="2.11908">
        <ele>67.9</ele>
        <time>2024-03-27T15:14:37Z</time>
      </trkpt>
      <trkpt lat="50.05743" lon="2.1191">
        <ele>67.9</ele>
        <time>2024-03-27T15:14:38Z</time>
      </trkpt>
      <trkpt lat="50.05742" lon="2.11911">
        <ele>67.9</ele>
        <time>2024-03-27T15:14:39Z</time>
      </trkpt>
      <trkpt lat="50.05741" lon="2.11912">
        <ele>68</ele>
        <time>2024-03-27T15:14:40Z</time>
      </trkpt>
      <trkpt lat="50.0574" lon="2.11913">
        <ele>68</ele>
        <time>2024-03-27T15:14:41Z</time>
      </trkpt>
      <trkpt lat="50.0574" lon="2.11915">
        <ele>68</ele>
        <time>2024-03-27T15:14:42Z</time>
      </trkpt>
      <trkpt lat="50.05739" lon="2.11915">
        <ele>68</ele>
        <time>2024-03-27T15:14:43Z</time>
      </trkpt>
      <trkpt lat="50.05738" lon="2.11917">
        <ele>68</ele>
        <time>2024-03-27T15:14:44Z</time>
      </trkpt>
      <trkpt lat="50.05738" lon="2.11918">
        <ele>68</ele>
        <time>2024-03-27T15:14:45Z</time>
      </trkpt>
      <trkpt lat="50.05737" lon="2.11919">
        <ele>68</ele>
        <time>2024-03-27T15:14:46Z</time>
      </trkpt>
      <trkpt lat="50.05737" lon="2.1192">
        <ele>68.1</ele>
        <time>2024-03-27T15:14:47Z</time>
      </trkpt>
      <trkpt lat="50.05736" lon="2.11922">
        <ele>68.1</ele>
        <time>2024-03-27T15:14:48Z</time>
      </trkpt>
      <trkpt lat="50.05736" lon="2.11923">
        <ele>68.1</ele>
        <time>2024-03-27T15:14:49Z</time>
      </trkpt>
      <trkpt lat="50.05735" lon="2.11925">
        <ele>68.1</ele>
        <time>2024-03-27T15:14:50Z</time>
      </trkpt>
      <trkpt lat="50.05734" lon="2.11925">
        <ele>68.1</ele>
        <time>2024-03-27T15:14:51Z</time>
      </trkpt>
      <trkpt lat="50.05734" lon="2.11927">
        <ele>68.1</ele>
        <time>2024-03-27T15:14:52Z</time>
      </trkpt>
      <trkpt lat="50.05733" lon="2.11928">
        <ele>68.2</ele>
        <time>2024-03-27T15:14:53Z</time>
      </trkpt>
      <trkpt lat="50.05733" lon="2.11929">
        <ele>68.2</ele>
        <time>2024-03-27T15:14:54Z</time>
      </trkpt>
      <trkpt lat="50.05732" lon="2.1193">
        <ele>68.2</ele>
        <time>2024-03-27T15:14:55Z</time>
      </trkpt>
      <trkpt lat="50.05731" lon="2.11932">
        <ele>68.2</ele>
        <time>2024-03-27T15:14:56Z</time>
      </trkpt>
      <trkpt lat="50.0573" lon="2.11933">
        <ele>68.2</ele>
        <time>2024-03-27T15:14:57Z</time>
      </trkpt>
      <trkpt lat="50.0573" lon="2.11934">
        <ele>68.2</ele>
        <time>2024-03-27T15:14:58Z</time>
      </trkpt>
      <trkpt lat="50.05729" lon="2.11936">
        <ele>68.3</ele>
        <time>2024-03-27T15:14:59Z</time>
      </trkpt>
      <trkpt lat="50.05729" lon="2.11937">
        <ele>68.3</ele>
        <time>2024-03-27T15:15:00Z</time>
      </trkpt>
      <trkpt lat="50.05728" lon="2.11938">
        <ele>68.3</ele>
        <time>2024-03-27T15:15:01Z</time>
      </trkpt>
      <trkpt lat="50.05727" lon="2.1194">
        <ele>68.3</ele>
        <time>2024-03-27T15:15:02Z</time>
      </trkpt>
      <trkpt lat="50.05727" lon="2.11941">
        <ele>68.3</ele>
        <time>2024-03-27T15:15:03Z</time>
      </trkpt>
      <trkpt lat="50.05726" lon="2.11942">
        <ele>68.3</ele>
        <time>2024-03-27T15:15:04Z</time>
      </trkpt>
      <trkpt lat="50.05726" lon="2.11944">
        <ele>68.4</ele>
        <time>2024-03-27T15:15:05Z</time>
      </trkpt>
      <trkpt lat="50.05726" lon="2.11945">
        <ele>68.4</ele>
        <time>2024-03-27T15:15:06Z</time>
      </trkpt>
      <trkpt lat="50.05725" lon="2.11947">
        <ele>68.4</ele>
        <time>2024-03-27T15:15:07Z</time>
      </trkpt>
      <trkpt lat="50.05725" lon="2.11948">
        <ele>68.4</ele>
        <time>2024-03-27T15:15:08Z</time>
      </trkpt>
      <trkpt lat="50.05724" lon="2.1195">
        <ele>68.4</ele>
        <time>2024-03-27T15:15:09Z</time>
      </trkpt>
      <trkpt lat="50.05724" lon="2.11951">
        <ele>68.4</ele>
        <time>2024-03-27T15:15:10Z</time>
      </trkpt>
      <trkpt lat="50.05724" lon="2.11953">
        <ele>68.4</ele>
        <time>2024-03-27T15:15:11Z</time>
      </trkpt>
      <trkpt lat="50.05723" lon="2.11954">
        <ele>68.5</ele>
        <time>2024-03-27T15:15:12Z</time>
      </trkpt>
      <trkpt lat="50.05723" lon="2.11955">
        <ele>68.5</ele>
        <time>2024-03-27T15:15:13Z</time>
      </trkpt>
      <trkpt lat="50.05722" lon="2.11957">
        <ele>68.5</ele>
        <time>2024-03-27T15:15:14Z</time>
      </trkpt>
      <trkpt lat="50.05722" lon="2.11958">
        <ele>68.5</ele>
        <time>2024-03-27T15:15:15Z</time>
      </trkpt>
      <trkpt lat="50.05722" lon="2.1196">
        <ele>68.5</ele>
        <time>2024-03-27T15:15:16Z</time>
      </trkpt>
      <trkpt lat="50.05721" lon="2.11961">
        <ele>68.5</ele>
        <time>2024-03-27T15:15:17Z</time>
      </trkpt>
      <trkpt lat="50.05721" lon="2.11962">
        <ele>68.5</ele>
        <time>2024-03-27T15:15:18Z</time>
      </trkpt>
      <trkpt lat="50.0572" lon="2.11964">
        <ele>68.6</ele>
        <time>2024-03-27T15:15:19Z</time>
      </trkpt>
      <trkpt lat="50.0572" lon="2.11965">
        <ele>68.6</ele>
        <time>2024-03-27T15:15:20Z</time>
      </trkpt>
      <trkpt lat="50.05719" lon="2.11967">
        <ele>68.6</ele>
        <time>2024-03-27T15:15:21Z</time>
      </trkpt>
      <trkpt lat="50.05718" lon="2.11968">
        <ele>68.6</ele>
        <time>2024-03-27T15:15:22Z</time>
      </trkpt>
      <trkpt lat="50.05718" lon="2.11969">
        <ele>68.6</ele>
        <time>2024-03-27T15:15:23Z</time>
      </trkpt>
      <trkpt lat="50.05717" lon="2.1197">
        <ele>68.6</ele>
        <time>2024-03-27T15:15:24Z</time>
      </trkpt>
      <trkpt lat="50.05717" lon="2.11971">
        <ele>68.6</ele>
        <time>2024-03-27T15:15:25Z</time>
      </trkpt>
      <trkpt lat="50.05716" lon="2.11973">
        <ele>68.6</ele>
        <time>2024-03-27T15:15:26Z</time>
      </trkpt>
      <trkpt lat="50.05716" lon="2.11974">
        <ele>68.7</ele>
        <time>2024-03-27T15:15:27Z</time>
      </trkpt>
      <trkpt lat="50.05715" lon="2.11975">
        <ele>68.7</ele>
        <time>2024-03-27T15:15:28Z</time>
      </trkpt>
      <trkpt lat="50.05715" lon="2.11976">
        <ele>68.7</ele>
        <time>2024-03-27T15:15:29Z</time>
      </trkpt>
      <trkpt lat="50.05715" lon="2.11977">
        <ele>68.7</ele>
        <time>2024-03-27T15:15:30Z</time>
      </trkpt>
      <trkpt lat="50.05714" lon="2.11978">
        <ele>68.7</ele>
        <time>2024-03-27T15:15:31Z</time>
      </trkpt>
      <trkpt lat="50.05714" lon="2.11979">
        <ele>68.7</ele>
        <time>2024-03-27T15:15:32Z</time>
      </trkpt>
      <trkpt lat="50.05714" lon="2.1198">
        <ele>68.7</ele>
        <time>2024-03-27T15:15:33Z</time>
      </trkpt>
      <trkpt lat="50.05713" lon="2.11981">
        <ele>68.7</ele>
        <time>2024-03-27T15:15:34Z</time>
      </trkpt>
      <trkpt lat="50.05713" lon="2.11982">
        <ele>68.8</ele>
        <time>2024-03-27T15:15:35Z</time>
      </trkpt>
      <trkpt lat="50.05712" lon="2.11982">
        <ele>68.8</ele>
        <time>2024-03-27T15:15:36Z</time>
      </trkpt>
      <trkpt lat="50.05712" lon="2.11982">
        <ele>68.8</ele>
        <time>2024-03-27T15:15:37Z</time>
      </trkpt>
      <trkpt lat="50.05711" lon="2.11981">
        <ele>68.8</ele>
        <time>2024-03-27T15:15:38Z</time>
      </trkpt>
      <trkpt lat="50.05711" lon="2.1198">
        <ele>68.8</ele>
        <time>2024-03-27T15:15:39Z</time>
      </trkpt>
      <trkpt lat="50.05711" lon="2.1198">
        <ele>68.8</ele>
        <time>2024-03-27T15:15:40Z</time>
      </trkpt>
      <trkpt lat="50.05711" lon="2.1198">
        <ele>68.8</ele>
        <time>2024-03-27T15:15:41Z</time>
      </trkpt>
      <trkpt lat="50.05711" lon="2.1198">
        <ele>68.8</ele>
        <time>2024-03-27T15:15:42Z</time>
      </trkpt>
      <trkpt lat="50.05711" lon="2.1198">
        <ele>68.8</ele>
        <time>2024-03-27T15:15:43Z</time>
      </trkpt>
      <trkpt lat="50.05711" lon="2.1198">
        <ele>68.8</ele>
        <time>2024-03-27T15:15:44Z</time>
      </trkpt>
      <trkpt lat="50.05711" lon="2.1198">
        <ele>68.8</ele>
        <time>2024-03-27T15:15:45Z</time>
      </trkpt>
      <trkpt lat="50.05711" lon="2.1198">
        <ele>68.8</ele>
        <time>2024-03-27T15:15:46Z</time>
      </trkpt>
      <trkpt lat="50.05711" lon="2.1198">
        <ele>68.8</ele>
        <time>2024-03-27T15:15:47Z</time>
      </trkpt>
      <trkpt lat="50.05711" lon="2.1198">
        <ele>68.8</ele>
        <time>2024-03-27T15:15:48Z</time>
      </trkpt>
      <trkpt lat="50.05711" lon="2.1198">
        <ele>68.8</ele>
        <time>2024-03-27T15:15:49Z</time>
      </trkpt>
      <trkpt lat="50.05711" lon="2.1198">
        <ele>68.8</ele>
        <time>2024-03-27T15:15:50Z</time>
      </trkpt>
      <trkpt lat="50.05711" lon="2.1198">
        <ele>68.8</ele>
        <time>2024-03-27T15:15:51Z</time>
      </trkpt>
      <trkpt lat="50.05711" lon="2.1198">
        <ele>68.8</ele>
        <time>2024-03-27T15:15:52Z</time>
      </trkpt>
      <trkpt lat="50.05711" lon="2.1198">
        <ele>68.8</ele>
        <time>2024-03-27T15:15:53Z</time>
      </trkpt>
      <trkpt lat="50.05711" lon="2.1198">
        <ele>68.8</ele>
        <time>2024-03-27T15:15:54Z</time>
      </trkpt>
      <trkpt lat="50.05711" lon="2.1198">
        <ele>68.8</ele>
        <time>2024-03-27T15:15:55Z</time>
      </trkpt>
      <trkpt lat="50.05711" lon="2.1198">
        <ele>68.8</ele>
        <time>2024-03-27T15:15:56Z</time>
      </trkpt>
      <trkpt lat="50.05711" lon="2.1198">
        <ele>68.8</ele>
        <time>2024-03-27T15:15:57Z</time>
      </trkpt>
      <trkpt lat="50.05711" lon="2.1198">
        <ele>68.8</ele>
        <time>2024-03-27T15:15:58Z</time>
      </trkpt>
      <trkpt lat="50.05711" lon="2.1198">
        <ele>68.8</ele>
        <time>2024-03-27T15:15:59Z</time>
      </trkpt>
      <trkpt lat="50.05711" lon="2.1198">
        <ele>68.8</ele>
        <time>2024-03-27T15:16:00Z</time>
      </trkpt>
      <trkpt lat="50.05711" lon="2.1198">
        <ele>68.8</ele>
        <time>2024-03-27T15:16:01Z</time>
      </trkpt>
      <trkpt lat="50.05711" lon="2.1198">
        <ele>68.8</ele>
        <time>2024-03-27T15:16:02Z</time>
      </trkpt>
      <trkpt lat="50.05711" lon="2.1198">
        <ele>68.8</ele>
        <time>2024-03-27T15:16:03Z</time>
      </trkpt>
      <trkpt lat="50.05711" lon="2.1198">
        <ele>68.8</ele>
        <time>2024-03-27T15:16:04Z</time>
      </trkpt>
      <trkpt lat="50.05711" lon="2.1198">
        <ele>68.8</ele>
        <time>2024-03-27T15:16:05Z</time>
      </trkpt>
      <trkpt lat="50.05711" lon="2.1198">
        <ele>68.8</ele>
        <time>2024-03-27T15:16:06Z</time>
      </trkpt>
      <trkpt lat="50.05711" lon="2.1198">
        <ele>68.8</ele>
        <time>2024-03-27T15:16:07Z</time>
      </trkpt>
      <trkpt lat="50.05711" lon="2.1198">
        <ele>68.8</ele>
        <time>2024-03-27T15:16:08Z</time>
      </trkpt>
      <trkpt lat="50.05711" lon="2.1198">
        <ele>68.8</ele>
        <time>2024-03-27T15:16:09Z</time>
      </trkpt>
      <trkpt lat="50.05711" lon="2.1198">
        <ele>68.8</ele>
        <time>2024-03-27T15:16:10Z</time>
      </trkpt>
      <trkpt lat="50.05711" lon="2.1198">
        <ele>68.8</ele>
        <time>2024-03-27T15:16:11Z</time>
      </trkpt>
      <trkpt lat="50.05711" lon="2.1198">
        <ele>68.8</ele>
        <time>2024-03-27T15:16:12Z</time>
      </trkpt>
      <trkpt lat="50.05711" lon="2.1198">
        <ele>68.8</ele>
        <time>2024-03-27T15:16:13Z</time>
      </trkpt>
      <trkpt lat="50.05711" lon="2.1198">
        <ele>68.8</ele>
        <time>2024-03-27T15:16:14Z</time>
      </trkpt>
      <trkpt lat="50.05711" lon="2.1198">
        <ele>68.8</ele>
        <time>2024-03-27T15:16:15Z</time>
      </trkpt>
      <trkpt lat="50.05711" lon="2.1198">
        <ele>68.8</ele>
        <time>2024-03-27T15:16:16Z</time>
      </trkpt>
      <trkpt lat="50.05711" lon="2.1198">
        <ele>68.8</ele>
        <time>2024-03-27T15:16:17Z</time>
      </trkpt>
      <trkpt lat="50.05711" lon="2.1198">
        <ele>68.8</ele>
        <time>2024-03-27T15:16:18Z</time>
      </trkpt>
      <trkpt lat="50.05711" lon="2.1198">
        <ele>68.8</ele>
        <time>2024-03-27T15:16:19Z</time>
      </trkpt>
      <trkpt lat="50.05711" lon="2.1198">
        <ele>68.8</ele>
        <time>2024-03-27T15:16:20Z</time>
      </trkpt>
      <trkpt lat="50.05711" lon="2.1198">
        <ele>68.8</ele>
        <time>2024-03-27T15:16:21Z</time>
      </trkpt>
      <trkpt lat="50.05711" lon="2.1198">
        <ele>68.8</ele>
        <time>2024-03-27T15:16:22Z</time>
      </trkpt>
      <trkpt lat="50.05711" lon="2.1198">
        <ele>68.8</ele>
        <time>2024-03-27T15:16:23Z</time>
      </trkpt>
      <trkpt lat="50.05711" lon="2.1198">
        <ele>68.8</ele>
        <time>2024-03-27T15:16:24Z</time>
      </trkpt>
      <trkpt lat="50.05711" lon="2.1198">
        <ele>68.8</ele>
        <time>2024-03-27T15:16:25Z</time>
      </trkpt>
      <trkpt lat="50.05711" lon="2.1198">
        <ele>68.8</ele>
        <time>2024-03-27T15:16:26Z</time>
      </trkpt>
      <trkpt lat="50.05711" lon="2.1198">
        <ele>68.8</ele>
        <time>2024-03-27T15:16:27Z</time>
      </trkpt>
      <trkpt lat="50.05711" lon="2.1198">
        <ele>68.8</ele>
        <time>2024-03-27T15:16:28Z</time>
      </trkpt>
      <trkpt lat="50.05711" lon="2.1198">
        <ele>68.8</ele>
        <time>2024-03-27T15:16:29Z</time>
      </trkpt>
      <trkpt lat="50.05711" lon="2.1198">
        <ele>68.8</ele>
        <time>2024-03-27T15:16:30Z</time>
      </trkpt>
      <trkpt lat="50.05711" lon="2.1198">
        <ele>68.8</ele>
        <time>2024-03-27T15:16:31Z</time>
      </trkpt>
      <trkpt lat="50.05711" lon="2.1198">
        <ele>68.8</ele>
        <time>2024-03-27T15:16:32Z</time>
      </trkpt>
      <trkpt lat="50.05711" lon="2.1198">
        <ele>68.8</ele>
        <time>2024-03-27T15:16:33Z</time>
      </trkpt>
      <trkpt lat="50.05711" lon="2.1198">
        <ele>68.8</ele>
        <time>2024-03-27T15:16:34Z</time>
      </trkpt>
      <trkpt lat="50.05711" lon="2.1198">
        <ele>68.8</ele>
        <time>2024-03-27T15:16:35Z</time>
      </trkpt>
      <trkpt lat="50.05711" lon="2.1198">
        <ele>68.8</ele>
        <time>2024-03-27T15:16:36Z</time>
      </trkpt>
      <trkpt lat="50.05711" lon="2.1198">
        <ele>68.8</ele>
        <time>2024-03-27T15:16:37Z</time>
      </trkpt>
      <trkpt lat="50.05711" lon="2.1198">
        <ele>68.8</ele>
        <time>2024-03-27T15:16:38Z</time>
      </trkpt>
      <trkpt lat="50.05711" lon="2.1198">
        <ele>68.8</ele>
        <time>2024-03-27T15:16:39Z</time>
      </trkpt>
      <trkpt lat="50.05711" lon="2.1198">
        <ele>68.8</ele>
        <time>2024-03-27T15:16:40Z</time>
      </trkpt>
      <trkpt lat="50.05711" lon="2.1198">
        <ele>68.8</ele>
        <time>2024-03-27T15:16:41Z</time>
      </trkpt>
      <trkpt lat="50.05711" lon="2.1198">
        <ele>68.8</ele>
        <time>2024-03-27T15:16:42Z</time>
      </trkpt>
      <trkpt lat="50.05711" lon="2.1198">
        <ele>68.8</ele>
        <time>2024-03-27T15:16:43Z</time>
      </trkpt>
      <trkpt lat="50.05711" lon="2.1198">
        <ele>68.8</ele>
        <time>2024-03-27T15:16:44Z</time>
      </trkpt>
      <trkpt lat="50.05711" lon="2.1198">
        <ele>68.8</ele>
        <time>2024-03-27T15:16:45Z</time>
      </trkpt>
      <trkpt lat="50.05711" lon="2.1198">
        <ele>68.8</ele>
        <time>2024-03-27T15:16:46Z</time>
      </trkpt>
      <trkpt lat="50.05711" lon="2.1198">
        <ele>68.8</ele>
        <time>2024-03-27T15:16:47Z</time>
      </trkpt>
      <trkpt lat="50.05711" lon="2.1198">
        <ele>68.8</ele>
        <time>2024-03-27T15:16:48Z</time>
      </trkpt>
      <trkpt lat="50.05711" lon="2.1198">
        <ele>68.8</ele>
        <time>2024-03-27T15:16:49Z</time>
      </trkpt>
      <trkpt lat="50.05711" lon="2.1198">
        <ele>68.8</ele>
        <time>2024-03-27T15:16:50Z</time>
      </trkpt>
      <trkpt lat="50.05711" lon="2.1198">
        <ele>68.8</ele>
        <time>2024-03-27T15:16:51Z</time>
      </trkpt>
      <trkpt lat="50.05711" lon="2.1198">
        <ele>68.8</ele>
        <time>2024-03-27T15:16:52Z</time>
      </trkpt>
      <trkpt lat="50.05711" lon="2.1198">
        <ele>68.8</ele>
        <time>2024-03-27T15:16:53Z</time>
      </trkpt>
      <trkpt lat="50.05711" lon="2.1198">
        <ele>68.8</ele>
        <time>2024-03-27T15:16:54Z</time>
      </trkpt>
      <trkpt lat="50.05711" lon="2.1198">
        <ele>68.8</ele>
        <time>2024-03-27T15:16:55Z</time>
      </trkpt>
      <trkpt lat="50.05711" lon="2.1198">
        <ele>68.8</ele>
        <time>2024-03-27T15:16:56Z</time>
      </trkpt>
      <trkpt lat="50.05711" lon="2.1198">
        <ele>68.8</ele>
        <time>2024-03-27T15:16:57Z</time>
      </trkpt>
      <trkpt lat="50.05711" lon="2.1198">
        <ele>68.8</ele>
        <time>2024-03-27T15:16:58Z</time>
      </trkpt>
      <trkpt lat="50.05711" lon="2.1198">
        <ele>68.8</ele>
        <time>2024-03-27T15:16:59Z</time>
      </trkpt>
      <trkpt lat="50.05711" lon="2.1198">
        <ele>68.8</ele>
        <time>2024-03-27T15:17:00Z</time>
      </trkpt>
      <trkpt lat="50.05711" lon="2.1198">
        <ele>68.8</ele>
        <time>2024-03-27T15:17:01Z</time>
      </trkpt>
      <trkpt lat="50.05711" lon="2.1198">
        <ele>68.8</ele>
        <time>2024-03-27T15:17:02Z</time>
      </trkpt>
      <trkpt lat="50.05711" lon="2.1198">
        <ele>68.8</ele>
        <time>2024-03-27T15:17:03Z</time>
      </trkpt>
      <trkpt lat="50.05711" lon="2.1198">
        <ele>68.8</ele>
        <time>2024-03-27T15:17:04Z</time>
      </trkpt>
      <trkpt lat="50.05711" lon="2.1198">
        <ele>68.8</ele>
        <time>2024-03-27T15:17:05Z</time>
      </trkpt>
      <trkpt lat="50.05711" lon="2.1198">
        <ele>68.8</ele>
        <time>2024-03-27T15:17:06Z</time>
      </trkpt>
      <trkpt lat="50.05711" lon="2.1198">
        <ele>68.8</ele>
        <time>2024-03-27T15:17:07Z</time>
      </trkpt>
      <trkpt lat="50.05711" lon="2.1198">
        <ele>68.8</ele>
        <time>2024-03-27T15:17:08Z</time>
      </trkpt>
      <trkpt lat="50.05711" lon="2.1198">
        <ele>68.8</ele>
        <time>2024-03-27T15:17:09Z</time>
      </trkpt>
      <trkpt lat="50.05711" lon="2.1198">
        <ele>68.8</ele>
        <time>2024-03-27T15:17:10Z</time>
      </trkpt>
      <trkpt lat="50.05711" lon="2.1198">
        <ele>68.8</ele>
        <time>2024-03-27T15:17:11Z</time>
      </trkpt>
      <trkpt lat="50.05711" lon="2.1198">
        <ele>68.8</ele>
        <time>2024-03-27T15:17:12Z</time>
      </trkpt>
      <trkpt lat="50.05711" lon="2.1198">
        <ele>68.8</ele>
        <time>2024-03-27T15:17:13Z</time>
      </trkpt>
      <trkpt lat="50.05711" lon="2.1198">
        <ele>68.8</ele>
        <time>2024-03-27T15:17:14Z</time>
      </trkpt>
      <trkpt lat="50.05711" lon="2.1198">
        <ele>68.8</ele>
        <time>2024-03-27T15:17:15Z</time>
      </trkpt>
      <trkpt lat="50.05715" lon="2.11979">
        <ele>68.9</ele>
        <time>2024-03-27T15:17:16Z</time>
      </trkpt>
      <trkpt lat="50.05715" lon="2.11979">
        <ele>68.9</ele>
        <time>2024-03-27T15:17:17Z</time>
      </trkpt>
      <trkpt lat="50.05714" lon="2.11979">
        <ele>68.9</ele>
        <time>2024-03-27T15:17:18Z</time>
      </trkpt>
      <trkpt lat="50.05714" lon="2.1198">
        <ele>68.9</ele>
        <time>2024-03-27T15:17:19Z</time>
      </trkpt>
      <trkpt lat="50.05713" lon="2.11981">
        <ele>68.9</ele>
        <time>2024-03-27T15:17:20Z</time>
      </trkpt>
      <trkpt lat="50.05712" lon="2.11982">
        <ele>68.9</ele>
        <time>2024-03-27T15:17:21Z</time>
      </trkpt>
      <trkpt lat="50.05712" lon="2.11983">
        <ele>68.9</ele>
        <time>2024-03-27T15:17:22Z</time>
      </trkpt>
      <trkpt lat="50.05711" lon="2.11984">
        <ele>68.9</ele>
        <time>2024-03-27T15:17:23Z</time>
      </trkpt>
      <trkpt lat="50.05711" lon="2.11986">
        <ele>69</ele>
        <time>2024-03-27T15:17:24Z</time>
      </trkpt>
      <trkpt lat="50.0571" lon="2.11987">
        <ele>69</ele>
        <time>2024-03-27T15:17:25Z</time>
      </trkpt>
      <trkpt lat="50.05709" lon="2.11989">
        <ele>69</ele>
        <time>2024-03-27T15:17:26Z</time>
      </trkpt>
      <trkpt lat="50.05708" lon="2.1199">
        <ele>69</ele>
        <time>2024-03-27T15:17:27Z</time>
      </trkpt>
      <trkpt lat="50.05707" lon="2.11992">
        <ele>69</ele>
        <time>2024-03-27T15:17:28Z</time>
      </trkpt>
      <trkpt lat="50.05705" lon="2.11994">
        <ele>69</ele>
        <time>2024-03-27T15:17:29Z</time>
      </trkpt>
      <trkpt lat="50.05705" lon="2.11995">
        <ele>69</ele>
        <time>2024-03-27T15:17:30Z</time>
      </trkpt>
      <trkpt lat="50.05704" lon="2.11996">
        <ele>69</ele>
        <time>2024-03-27T15:17:31Z</time>
      </trkpt>
      <trkpt lat="50.05703" lon="2.11998">
        <ele>69</ele>
        <time>2024-03-27T15:17:32Z</time>
      </trkpt>
      <trkpt lat="50.05703" lon="2.12">
        <ele>69</ele>
        <time>2024-03-27T15:17:33Z</time>
      </trkpt>
      <trkpt lat="50.05701" lon="2.12003">
        <ele>69.1</ele>
        <time>2024-03-27T15:17:34Z</time>
      </trkpt>
      <trkpt lat="50.05701" lon="2.12004">
        <ele>69.1</ele>
        <time>2024-03-27T15:17:35Z</time>
      </trkpt>
      <trkpt lat="50.05701" lon="2.12005">
        <ele>69.1</ele>
        <time>2024-03-27T15:17:36Z</time>
      </trkpt>
      <trkpt lat="50.057" lon="2.12008">
        <ele>69.1</ele>
        <time>2024-03-27T15:17:37Z</time>
      </trkpt>
      <trkpt lat="50.057" lon="2.12009">
        <ele>69.1</ele>
        <time>2024-03-27T15:17:38Z</time>
      </trkpt>
      <trkpt lat="50.05699" lon="2.1201">
        <ele>69.1</ele>
        <time>2024-03-27T15:17:39Z</time>
      </trkpt>
      <trkpt lat="50.05699" lon="2.12013">
        <ele>69</ele>
        <time>2024-03-27T15:17:40Z</time>
      </trkpt>
      <trkpt lat="50.05698" lon="2.12014">
        <ele>69</ele>
        <time>2024-03-27T15:17:41Z</time>
      </trkpt>
      <trkpt lat="50.05698" lon="2.12015">
        <ele>69</ele>
        <time>2024-03-27T15:17:42Z</time>
      </trkpt>
      <trkpt lat="50.05697" lon="2.12018">
        <ele>69</ele>
        <time>2024-03-27T15:17:43Z</time>
      </trkpt>
      <trkpt lat="50.05697" lon="2.12019">
        <ele>69</ele>
        <time>2024-03-27T15:17:44Z</time>
      </trkpt>
      <trkpt lat="50.05696" lon="2.12021">
        <ele>69</ele>
        <time>2024-03-27T15:17:45Z</time>
      </trkpt>
      <trkpt lat="50.05696" lon="2.12022">
        <ele>69</ele>
        <time>2024-03-27T15:17:46Z</time>
      </trkpt>
      <trkpt lat="50.05695" lon="2.12023">
        <ele>69</ele>
        <time>2024-03-27T15:17:47Z</time>
      </trkpt>
      <trkpt lat="50.05694" lon="2.12025">
        <ele>69</ele>
        <time>2024-03-27T15:17:48Z</time>
      </trkpt>
      <trkpt lat="50.05694" lon="2.12026">
        <ele>69</ele>
        <time>2024-03-27T15:17:49Z</time>
      </trkpt>
      <trkpt lat="50.05693" lon="2.12027">
        <ele>68.9</ele>
        <time>2024-03-27T15:17:50Z</time>
      </trkpt>
      <trkpt lat="50.05692" lon="2.12029">
        <ele>68.9</ele>
        <time>2024-03-27T15:17:51Z</time>
      </trkpt>
      <trkpt lat="50.05692" lon="2.1203">
        <ele>68.9</ele>
        <time>2024-03-27T15:17:52Z</time>
      </trkpt>
      <trkpt lat="50.05692" lon="2.12032">
        <ele>68.9</ele>
        <time>2024-03-27T15:17:53Z</time>
      </trkpt>
      <trkpt lat="50.05691" lon="2.12033">
        <ele>68.9</ele>
        <time>2024-03-27T15:17:54Z</time>
      </trkpt>
      <trkpt lat="50.05691" lon="2.12035">
        <ele>68.9</ele>
        <time>2024-03-27T15:17:55Z</time>
      </trkpt>
      <trkpt lat="50.0569" lon="2.12036">
        <ele>68.9</ele>
        <time>2024-03-27T15:17:56Z</time>
      </trkpt>
      <trkpt lat="50.0569" lon="2.12038">
        <ele>68.9</ele>
        <time>2024-03-27T15:17:57Z</time>
      </trkpt>
      <trkpt lat="50.05689" lon="2.12039">
        <ele>68.8</ele>
        <time>2024-03-27T15:17:58Z</time>
      </trkpt>
      <trkpt lat="50.05689" lon="2.12041">
        <ele>68.8</ele>
        <time>2024-03-27T15:17:59Z</time>
      </trkpt>
      <trkpt lat="50.05689" lon="2.12042">
        <ele>68.8</ele>
        <time>2024-03-27T15:18:00Z</time>
      </trkpt>
      <trkpt lat="50.05688" lon="2.12045">
        <ele>68.8</ele>
        <time>2024-03-27T15:18:01Z</time>
      </trkpt>
      <trkpt lat="50.05687" lon="2.12046">
        <ele>68.8</ele>
        <time>2024-03-27T15:18:02Z</time>
      </trkpt>
      <trkpt lat="50.05687" lon="2.12047">
        <ele>68.8</ele>
        <time>2024-03-27T15:18:03Z</time>
      </trkpt>
      <trkpt lat="50.05686" lon="2.12051">
        <ele>68.7</ele>
        <time>2024-03-27T15:18:04Z</time>
      </trkpt>
      <trkpt lat="50.05686" lon="2.12052">
        <ele>68.7</ele>
        <time>2024-03-27T15:18:05Z</time>
      </trkpt>
      <trkpt lat="50.05685" lon="2.12053">
        <ele>68.7</ele>
        <time>2024-03-27T15:18:06Z</time>
      </trkpt>
      <trkpt lat="50.05685" lon="2.12054">
        <ele>68.7</ele>
        <time>2024-03-27T15:18:07Z</time>
      </trkpt>
      <trkpt lat="50.05684" lon="2.12056">
        <ele>68.7</ele>
        <time>2024-03-27T15:18:08Z</time>
      </trkpt>
      <trkpt lat="50.05683" lon="2.12057">
        <ele>68.7</ele>
        <time>2024-03-27T15:18:09Z</time>
      </trkpt>
      <trkpt lat="50.05683" lon="2.12059">
        <ele>68.6</ele>
        <time>2024-03-27T15:18:10Z</time>
      </trkpt>
      <trkpt lat="50.05682" lon="2.1206">
        <ele>68.6</ele>
        <time>2024-03-27T15:18:11Z</time>
      </trkpt>
      <trkpt lat="50.05682" lon="2.12062">
        <ele>68.6</ele>
        <time>2024-03-27T15:18:12Z</time>
      </trkpt>
      <trkpt lat="50.05681" lon="2.12064">
        <ele>68.6</ele>
        <time>2024-03-27T15:18:13Z</time>
      </trkpt>
      <trkpt lat="50.0568" lon="2.12065">
        <ele>68.5</ele>
        <time>2024-03-27T15:18:14Z</time>
      </trkpt>
      <trkpt lat="50.05679" lon="2.12066">
        <ele>68.5</ele>
        <time>2024-03-27T15:18:15Z</time>
      </trkpt>
      <trkpt lat="50.05679" lon="2.12068">
        <ele>68.5</ele>
        <time>2024-03-27T15:18:16Z</time>
      </trkpt>
      <trkpt lat="50.05678" lon="2.12069">
        <ele>68.5</ele>
        <time>2024-03-27T15:18:17Z</time>
      </trkpt>
      <trkpt lat="50.05677" lon="2.1207">
        <ele>68.5</ele>
        <time>2024-03-27T15:18:18Z</time>
      </trkpt>
      <trkpt lat="50.05677" lon="2.12071">
        <ele>68.4</ele>
        <time>2024-03-27T15:18:19Z</time>
      </trkpt>
      <trkpt lat="50.05676" lon="2.12072">
        <ele>68.4</ele>
        <time>2024-03-27T15:18:20Z</time>
      </trkpt>
      <trkpt lat="50.05675" lon="2.12074">
        <ele>68.4</ele>
        <time>2024-03-27T15:18:21Z</time>
      </trkpt>
      <trkpt lat="50.05675" lon="2.12075">
        <ele>68.4</ele>
        <time>2024-03-27T15:18:22Z</time>
      </trkpt>
      <trkpt lat="50.05674" lon="2.12076">
        <ele>68.4</ele>
        <time>2024-03-27T15:18:23Z</time>
      </trkpt>
      <trkpt lat="50.05673" lon="2.12078">
        <ele>68.3</ele>
        <time>2024-03-27T15:18:24Z</time>
      </trkpt>
      <trkpt lat="50.05673" lon="2.12079">
        <ele>68.3</ele>
        <time>2024-03-27T15:18:25Z</time>
      </trkpt>
      <trkpt lat="50.05672" lon="2.1208">
        <ele>68.3</ele>
        <time>2024-03-27T15:18:26Z</time>
      </trkpt>
      <trkpt lat="50.05671" lon="2.12082">
        <ele>68.2</ele>
        <time>2024-03-27T15:18:27Z</time>
      </trkpt>
      <trkpt lat="50.05671" lon="2.12083">
        <ele>68.2</ele>
        <time>2024-03-27T15:18:28Z</time>
      </trkpt>
      <trkpt lat="50.0567" lon="2.12085">
        <ele>68.2</ele>
        <time>2024-03-27T15:18:29Z</time>
      </trkpt>
      <trkpt lat="50.05669" lon="2.12086">
        <ele>68.2</ele>
        <time>2024-03-27T15:18:30Z</time>
      </trkpt>
      <trkpt lat="50.05668" lon="2.12087">
        <ele>68.1</ele>
        <time>2024-03-27T15:18:31Z</time>
      </trkpt>
      <trkpt lat="50.05668" lon="2.12088">
        <ele>68.1</ele>
        <time>2024-03-27T15:18:32Z</time>
      </trkpt>
      <trkpt lat="50.05667" lon="2.1209">
        <ele>68.1</ele>
        <time>2024-03-27T15:18:33Z</time>
      </trkpt>
      <trkpt lat="50.05666" lon="2.12091">
        <ele>68.1</ele>
        <time>2024-03-27T15:18:34Z</time>
      </trkpt>
      <trkpt lat="50.05666" lon="2.12092">
        <ele>68</ele>
        <time>2024-03-27T15:18:35Z</time>
      </trkpt>
      <trkpt lat="50.05665" lon="2.12093">
        <ele>68</ele>
        <time>2024-03-27T15:18:36Z</time>
      </trkpt>
      <trkpt lat="50.05664" lon="2.12094">
        <ele>68</ele>
        <time>2024-03-27T15:18:37Z</time>
      </trkpt>
      <trkpt lat="50.05663" lon="2.12095">
        <ele>68</ele>
        <time>2024-03-27T15:18:38Z</time>
      </trkpt>
      <trkpt lat="50.05662" lon="2.12097">
        <ele>67.9</ele>
        <time>2024-03-27T15:18:39Z</time>
      </trkpt>
      <trkpt lat="50.05662" lon="2.12098">
        <ele>67.9</ele>
        <time>2024-03-27T15:18:40Z</time>
      </trkpt>
      <trkpt lat="50.05661" lon="2.121">
        <ele>67.9</ele>
        <time>2024-03-27T15:18:41Z</time>
      </trkpt>
      <trkpt lat="50.05661" lon="2.12101">
        <ele>67.9</ele>
        <time>2024-03-27T15:18:42Z</time>
      </trkpt>
      <trkpt lat="50.0566" lon="2.12103">
        <ele>67.9</ele>
        <time>2024-03-27T15:18:43Z</time>
      </trkpt>
      <trkpt lat="50.0566" lon="2.12104">
        <ele>67.8</ele>
        <time>2024-03-27T15:18:44Z</time>
      </trkpt>
      <trkpt lat="50.05659" lon="2.12106">
        <ele>67.8</ele>
        <time>2024-03-27T15:18:45Z</time>
      </trkpt>
      <trkpt lat="50.05659" lon="2.12107">
        <ele>67.8</ele>
        <time>2024-03-27T15:18:46Z</time>
      </trkpt>
      <trkpt lat="50.05658" lon="2.12109">
        <ele>67.7</ele>
        <time>2024-03-27T15:18:47Z</time>
      </trkpt>
      <trkpt lat="50.05658" lon="2.12111">
        <ele>67.7</ele>
        <time>2024-03-27T15:18:48Z</time>
      </trkpt>
      <trkpt lat="50.05657" lon="2.12112">
        <ele>67.7</ele>
        <time>2024-03-27T15:18:49Z</time>
      </trkpt>
      <trkpt lat="50.05657" lon="2.12114">
        <ele>67.7</ele>
        <time>2024-03-27T15:18:50Z</time>
      </trkpt>
      <trkpt lat="50.05656" lon="2.12115">
        <ele>67.6</ele>
        <time>2024-03-27T15:18:51Z</time>
      </trkpt>
      <trkpt lat="50.05656" lon="2.12117">
        <ele>67.6</ele>
        <time>2024-03-27T15:18:52Z</time>
      </trkpt>
      <trkpt lat="50.05655" lon="2.12118">
        <ele>67.6</ele>
        <time>2024-03-27T15:18:53Z</time>
      </trkpt>
      <trkpt lat="50.05654" lon="2.12119">
        <ele>67.6</ele>
        <time>2024-03-27T15:18:54Z</time>
      </trkpt>
      <trkpt lat="50.05653" lon="2.12122">
        <ele>67.5</ele>
        <time>2024-03-27T15:18:55Z</time>
      </trkpt>
      <trkpt lat="50.05653" lon="2.12123">
        <ele>67.5</ele>
        <time>2024-03-27T15:18:56Z</time>
      </trkpt>
      <trkpt lat="50.05652" lon="2.12124">
        <ele>67.5</ele>
        <time>2024-03-27T15:18:57Z</time>
      </trkpt>
      <trkpt lat="50.05651" lon="2.12126">
        <ele>67.4</ele>
        <time>2024-03-27T15:18:58Z</time>
      </trkpt>
      <trkpt lat="50.05651" lon="2.12127">
        <ele>67.4</ele>
        <time>2024-03-27T15:18:59Z</time>
      </trkpt>
      <trkpt lat="50.0565" lon="2.12128">
        <ele>67.4</ele>
        <time>2024-03-27T15:19:00Z</time>
      </trkpt>
      <trkpt lat="50.0565" lon="2.1213">
        <ele>67.4</ele>
        <time>2024-03-27T15:19:01Z</time>
      </trkpt>
      <trkpt lat="50.05649" lon="2.12131">
        <ele>67.4</ele>
        <time>2024-03-27T15:19:02Z</time>
      </trkpt>
      <trkpt lat="50.05648" lon="2.12133">
        <ele>67.3</ele>
        <time>2024-03-27T15:19:03Z</time>
      </trkpt>
      <trkpt lat="50.05648" lon="2.12134">
        <ele>67.3</ele>
        <time>2024-03-27T15:19:04Z</time>
      </trkpt>
      <trkpt lat="50.05647" lon="2.12136">
        <ele>67.3</ele>
        <time>2024-03-27T15:19:05Z</time>
      </trkpt>
      <trkpt lat="50.05646" lon="2.12137">
        <ele>67.3</ele>
        <time>2024-03-27T15:19:06Z</time>
      </trkpt>
      <trkpt lat="50.05646" lon="2.12139">
        <ele>67.2</ele>
        <time>2024-03-27T15:19:07Z</time>
      </trkpt>
      <trkpt lat="50.05645" lon="2.1214">
        <ele>67.2</ele>
        <time>2024-03-27T15:19:08Z</time>
      </trkpt>
      <trkpt lat="50.05645" lon="2.12141">
        <ele>67.2</ele>
        <time>2024-03-27T15:19:09Z</time>
      </trkpt>
      <trkpt lat="50.05644" lon="2.12143">
        <ele>67.2</ele>
        <time>2024-03-27T15:19:10Z</time>
      </trkpt>
      <trkpt lat="50.05643" lon="2.12144">
        <ele>67.1</ele>
        <time>2024-03-27T15:19:11Z</time>
      </trkpt>
      <trkpt lat="50.05643" lon="2.12146">
        <ele>67.1</ele>
        <time>2024-03-27T15:19:12Z</time>
      </trkpt>
      <trkpt lat="50.05642" lon="2.12147">
        <ele>67.1</ele>
        <time>2024-03-27T15:19:13Z</time>
      </trkpt>
      <trkpt lat="50.05642" lon="2.12149">
        <ele>67</ele>
        <time>2024-03-27T15:19:14Z</time>
      </trkpt>
      <trkpt lat="50.05641" lon="2.1215">
        <ele>67</ele>
        <time>2024-03-27T15:19:15Z</time>
      </trkpt>
      <trkpt lat="50.05641" lon="2.12151">
        <ele>67</ele>
        <time>2024-03-27T15:19:16Z</time>
      </trkpt>
      <trkpt lat="50.0564" lon="2.12153">
        <ele>67</ele>
        <time>2024-03-27T15:19:17Z</time>
      </trkpt>
      <trkpt lat="50.0564" lon="2.12154">
        <ele>66.9</ele>
        <time>2024-03-27T15:19:18Z</time>
      </trkpt>
      <trkpt lat="50.05639" lon="2.12156">
        <ele>66.9</ele>
        <time>2024-03-27T15:19:19Z</time>
      </trkpt>
      <trkpt lat="50.05638" lon="2.12157">
        <ele>66.9</ele>
        <time>2024-03-27T15:19:20Z</time>
      </trkpt>
      <trkpt lat="50.05637" lon="2.12159">
        <ele>66.8</ele>
        <time>2024-03-27T15:19:21Z</time>
      </trkpt>
      <trkpt lat="50.05637" lon="2.1216">
        <ele>66.8</ele>
        <time>2024-03-27T15:19:22Z</time>
      </trkpt>
      <trkpt lat="50.05636" lon="2.12162">
        <ele>66.8</ele>
        <time>2024-03-27T15:19:23Z</time>
      </trkpt>
      <trkpt lat="50.05635" lon="2.12163">
        <ele>66.7</ele>
        <time>2024-03-27T15:19:24Z</time>
      </trkpt>
      <trkpt lat="50.05635" lon="2.12165">
        <ele>66.7</ele>
        <time>2024-03-27T15:19:25Z</time>
      </trkpt>
      <trkpt lat="50.05634" lon="2.12166">
        <ele>66.7</ele>
        <time>2024-03-27T15:19:26Z</time>
      </trkpt>
      <trkpt lat="50.05634" lon="2.12168">
        <ele>66.6</ele>
        <time>2024-03-27T15:19:27Z</time>
      </trkpt>
      <trkpt lat="50.05633" lon="2.12169">
        <ele>66.6</ele>
        <time>2024-03-27T15:19:28Z</time>
      </trkpt>
      <trkpt lat="50.05633" lon="2.12171">
        <ele>66.6</ele>
        <time>2024-03-27T15:19:29Z</time>
      </trkpt>
      <trkpt lat="50.05632" lon="2.12172">
        <ele>66.5</ele>
        <time>2024-03-27T15:19:30Z</time>
      </trkpt>
      <trkpt lat="50.05631" lon="2.12174">
        <ele>66.5</ele>
        <time>2024-03-27T15:19:31Z</time>
      </trkpt>
      <trkpt lat="50.05631" lon="2.12175">
        <ele>66.5</ele>
        <time>2024-03-27T15:19:32Z</time>
      </trkpt>
      <trkpt lat="50.0563" lon="2.12177">
        <ele>66.4</ele>
        <time>2024-03-27T15:19:33Z</time>
      </trkpt>
      <trkpt lat="50.0563" lon="2.12178">
        <ele>66.4</ele>
        <time>2024-03-27T15:19:34Z</time>
      </trkpt>
      <trkpt lat="50.05629" lon="2.12179">
        <ele>66.4</ele>
        <time>2024-03-27T15:19:35Z</time>
      </trkpt>
      <trkpt lat="50.05628" lon="2.12181">
        <ele>66.3</ele>
        <time>2024-03-27T15:19:36Z</time>
      </trkpt>
      <trkpt lat="50.05628" lon="2.12182">
        <ele>66.3</ele>
        <time>2024-03-27T15:19:37Z</time>
      </trkpt>
      <trkpt lat="50.05627" lon="2.12184">
        <ele>66.3</ele>
        <time>2024-03-27T15:19:38Z</time>
      </trkpt>
      <trkpt lat="50.05626" lon="2.12185">
        <ele>66.2</ele>
        <time>2024-03-27T15:19:39Z</time>
      </trkpt>
      <trkpt lat="50.05625" lon="2.12188">
        <ele>66.2</ele>
        <time>2024-03-27T15:19:40Z</time>
      </trkpt>
      <trkpt lat="50.05625" lon="2.12189">
        <ele>66.2</ele>
        <time>2024-03-27T15:19:41Z</time>
      </trkpt>
      <trkpt lat="50.05624" lon="2.1219">
        <ele>66.1</ele>
        <time>2024-03-27T15:19:42Z</time>
      </trkpt>
      <trkpt lat="50.05623" lon="2.12193">
        <ele>66.1</ele>
        <time>2024-03-27T15:19:43Z</time>
      </trkpt>
      <trkpt lat="50.05622" lon="2.12193">
        <ele>66</ele>
        <time>2024-03-27T15:19:44Z</time>
      </trkpt>
      <trkpt lat="50.05622" lon="2.12194">
        <ele>66</ele>
        <time>2024-03-27T15:19:45Z</time>
      </trkpt>
      <trkpt lat="50.05621" lon="2.12196">
        <ele>66</ele>
        <time>2024-03-27T15:19:46Z</time>
      </trkpt>
      <trkpt lat="50.0562" lon="2.12197">
        <ele>66</ele>
        <time>2024-03-27T15:19:47Z</time>
      </trkpt>
      <trkpt lat="50.0562" lon="2.12199">
        <ele>65.9</ele>
        <time>2024-03-27T15:19:48Z</time>
      </trkpt>
      <trkpt lat="50.05619" lon="2.122">
        <ele>65.9</ele>
        <time>2024-03-27T15:19:49Z</time>
      </trkpt>
      <trkpt lat="50.05618" lon="2.12202">
        <ele>65.9</ele>
        <time>2024-03-27T15:19:50Z</time>
      </trkpt>
      <trkpt lat="50.05618" lon="2.12203">
        <ele>65.8</ele>
        <time>2024-03-27T15:19:51Z</time>
      </trkpt>
      <trkpt lat="50.05616" lon="2.12206">
        <ele>65.8</ele>
        <time>2024-03-27T15:19:52Z</time>
      </trkpt>
      <trkpt lat="50.05616" lon="2.12207">
        <ele>65.8</ele>
        <time>2024-03-27T15:19:53Z</time>
      </trkpt>
      <trkpt lat="50.05615" lon="2.12208">
        <ele>65.7</ele>
        <time>2024-03-27T15:19:54Z</time>
      </trkpt>
      <trkpt lat="50.05614" lon="2.1221">
        <ele>65.7</ele>
        <time>2024-03-27T15:19:55Z</time>
      </trkpt>
      <trkpt lat="50.05614" lon="2.12211">
        <ele>65.7</ele>
        <time>2024-03-27T15:19:56Z</time>
      </trkpt>
      <trkpt lat="50.05613" lon="2.12212">
        <ele>65.6</ele>
        <time>2024-03-27T15:19:57Z</time>
      </trkpt>
      <trkpt lat="50.05613" lon="2.12213">
        <ele>65.6</ele>
        <time>2024-03-27T15:19:58Z</time>
      </trkpt>
      <trkpt lat="50.05612" lon="2.12215">
        <ele>65.6</ele>
        <time>2024-03-27T15:19:59Z</time>
      </trkpt>
      <trkpt lat="50.05612" lon="2.12216">
        <ele>65.6</ele>
        <time>2024-03-27T15:20:00Z</time>
      </trkpt>
      <trkpt lat="50.05611" lon="2.12218">
        <ele>65.5</ele>
        <time>2024-03-27T15:20:01Z</time>
      </trkpt>
      <trkpt lat="50.05611" lon="2.12219">
        <ele>65.5</ele>
        <time>2024-03-27T15:20:02Z</time>
      </trkpt>
      <trkpt lat="50.0561" lon="2.12221">
        <ele>65.5</ele>
        <time>2024-03-27T15:20:03Z</time>
      </trkpt>
      <trkpt lat="50.05609" lon="2.12222">
        <ele>65.4</ele>
        <time>2024-03-27T15:20:04Z</time>
      </trkpt>
      <trkpt lat="50.05609" lon="2.12223">
        <ele>65.4</ele>
        <time>2024-03-27T15:20:05Z</time>
      </trkpt>
      <trkpt lat="50.05608" lon="2.12225">
        <ele>65.4</ele>
        <time>2024-03-27T15:20:06Z</time>
      </trkpt>
      <trkpt lat="50.05608" lon="2.12226">
        <ele>65.3</ele>
        <time>2024-03-27T15:20:07Z</time>
      </trkpt>
      <trkpt lat="50.05607" lon="2.12228">
        <ele>65.3</ele>
        <time>2024-03-27T15:20:08Z</time>
      </trkpt>
      <trkpt lat="50.05607" lon="2.12229">
        <ele>65.3</ele>
        <time>2024-03-27T15:20:09Z</time>
      </trkpt>
      <trkpt lat="50.05606" lon="2.12232">
        <ele>65.2</ele>
        <time>2024-03-27T15:20:10Z</time>
      </trkpt>
      <trkpt lat="50.05605" lon="2.12233">
        <ele>65.2</ele>
        <time>2024-03-27T15:20:11Z</time>
      </trkpt>
      <trkpt lat="50.05605" lon="2.12234">
        <ele>65.2</ele>
        <time>2024-03-27T15:20:12Z</time>
      </trkpt>
      <trkpt lat="50.05603" lon="2.12237">
        <ele>65.1</ele>
        <time>2024-03-27T15:20:13Z</time>
      </trkpt>
      <trkpt lat="50.05603" lon="2.12238">
        <ele>65.1</ele>
        <time>2024-03-27T15:20:14Z</time>
      </trkpt>
      <trkpt lat="50.05603" lon="2.12239">
        <ele>65.1</ele>
        <time>2024-03-27T15:20:15Z</time>
      </trkpt>
      <trkpt lat="50.05602" lon="2.1224">
        <ele>65</ele>
        <time>2024-03-27T15:20:16Z</time>
      </trkpt>
      <trkpt lat="50.05601" lon="2.12242">
        <ele>65</ele>
        <time>2024-03-27T15:20:17Z</time>
      </trkpt>
      <trkpt lat="50.05601" lon="2.12243">
        <ele>65</ele>
        <time>2024-03-27T15:20:18Z</time>
      </trkpt>
      <trkpt lat="50.056" lon="2.12245">
        <ele>64.9</ele>
        <time>2024-03-27T15:20:19Z</time>
      </trkpt>
      <trkpt lat="50.056" lon="2.12247">
        <ele>64.9</ele>
        <time>2024-03-27T15:20:20Z</time>
      </trkpt>
      <trkpt lat="50.05599" lon="2.12248">
        <ele>64.9</ele>
        <time>2024-03-27T15:20:21Z</time>
      </trkpt>
      <trkpt lat="50.05598" lon="2.12251">
        <ele>64.8</ele>
        <time>2024-03-27T15:20:22Z</time>
      </trkpt>
      <trkpt lat="50.05598" lon="2.12253">
        <ele>64.8</ele>
        <time>2024-03-27T15:20:23Z</time>
      </trkpt>
      <trkpt lat="50.05597" lon="2.12254">
        <ele>64.8</ele>
        <time>2024-03-27T15:20:24Z</time>
      </trkpt>
      <trkpt lat="50.05597" lon="2.12256">
        <ele>64.7</ele>
        <time>2024-03-27T15:20:25Z</time>
      </trkpt>
      <trkpt lat="50.05596" lon="2.12258">
        <ele>64.7</ele>
        <time>2024-03-27T15:20:26Z</time>
      </trkpt>
      <trkpt lat="50.05596" lon="2.1226">
        <ele>64.7</ele>
        <time>2024-03-27T15:20:27Z</time>
      </trkpt>
      <trkpt lat="50.05595" lon="2.12262">
        <ele>64.6</ele>
        <time>2024-03-27T15:20:28Z</time>
      </trkpt>
      <trkpt lat="50.05595" lon="2.12263">
        <ele>64.6</ele>
        <time>2024-03-27T15:20:29Z</time>
      </trkpt>
      <trkpt lat="50.05594" lon="2.12265">
        <ele>64.6</ele>
        <time>2024-03-27T15:20:30Z</time>
      </trkpt>
      <trkpt lat="50.05594" lon="2.12267">
        <ele>64.5</ele>
        <time>2024-03-27T15:20:31Z</time>
      </trkpt>
      <trkpt lat="50.05593" lon="2.12268">
        <ele>64.5</ele>
        <time>2024-03-27T15:20:32Z</time>
      </trkpt>
      <trkpt lat="50.05593" lon="2.1227">
        <ele>64.5</ele>
        <time>2024-03-27T15:20:33Z</time>
      </trkpt>
      <trkpt lat="50.05592" lon="2.12271">
        <ele>64.5</ele>
        <time>2024-03-27T15:20:34Z</time>
      </trkpt>
      <trkpt lat="50.05592" lon="2.12273">
        <ele>64.4</ele>
        <time>2024-03-27T15:20:35Z</time>
      </trkpt>
      <trkpt lat="50.05591" lon="2.12274">
        <ele>64.4</ele>
        <time>2024-03-27T15:20:36Z</time>
      </trkpt>
      <trkpt lat="50.05591" lon="2.12276">
        <ele>64.4</ele>
        <time>2024-03-27T15:20:37Z</time>
      </trkpt>
      <trkpt lat="50.0559" lon="2.12277">
        <ele>64.4</ele>
        <time>2024-03-27T15:20:38Z</time>
      </trkpt>
      <trkpt lat="50.0559" lon="2.12279">
        <ele>64.4</ele>
        <time>2024-03-27T15:20:39Z</time>
      </trkpt>
      <trkpt lat="50.05589" lon="2.1228">
        <ele>64.3</ele>
        <time>2024-03-27T15:20:40Z</time>
      </trkpt>
      <trkpt lat="50.05589" lon="2.12282">
        <ele>64.3</ele>
        <time>2024-03-27T15:20:41Z</time>
      </trkpt>
      <trkpt lat="50.05589" lon="2.12283">
        <ele>64.3</ele>
        <time>2024-03-27T15:20:42Z</time>
      </trkpt>
      <trkpt lat="50.05588" lon="2.12285">
        <ele>64.3</ele>
        <time>2024-03-27T15:20:43Z</time>
      </trkpt>
      <trkpt lat="50.05587" lon="2.12286">
        <ele>64.2</ele>
        <time>2024-03-27T15:20:44Z</time>
      </trkpt>
      <trkpt lat="50.05587" lon="2.12288">
        <ele>64.2</ele>
        <time>2024-03-27T15:20:45Z</time>
      </trkpt>
      <trkpt lat="50.05586" lon="2.12289">
        <ele>64.2</ele>
        <time>2024-03-27T15:20:46Z</time>
      </trkpt>
      <trkpt lat="50.05586" lon="2.12291">
        <ele>64.2</ele>
        <time>2024-03-27T15:20:47Z</time>
      </trkpt>
      <trkpt lat="50.05585" lon="2.12293">
        <ele>64.2</ele>
        <time>2024-03-27T15:20:48Z</time>
      </trkpt>
      <trkpt lat="50.05585" lon="2.12294">
        <ele>64.1</ele>
        <time>2024-03-27T15:20:49Z</time>
      </trkpt>
      <trkpt lat="50.05584" lon="2.12296">
        <ele>64.1</ele>
        <time>2024-03-27T15:20:50Z</time>
      </trkpt>
      <trkpt lat="50.05584" lon="2.12298">
        <ele>64.1</ele>
        <time>2024-03-27T15:20:51Z</time>
      </trkpt>
      <trkpt lat="50.05583" lon="2.12299">
        <ele>64.1</ele>
        <time>2024-03-27T15:20:52Z</time>
      </trkpt>
      <trkpt lat="50.05583" lon="2.12301">
        <ele>64.1</ele>
        <time>2024-03-27T15:20:53Z</time>
      </trkpt>
      <trkpt lat="50.05582" lon="2.12302">
        <ele>64</ele>
        <time>2024-03-27T15:20:54Z</time>
      </trkpt>
      <trkpt lat="50.05582" lon="2.12304">
        <ele>64</ele>
        <time>2024-03-27T15:20:55Z</time>
      </trkpt>
      <trkpt lat="50.05581" lon="2.12305">
        <ele>64</ele>
        <time>2024-03-27T15:20:56Z</time>
      </trkpt>
      <trkpt lat="50.0558" lon="2.12307">
        <ele>64</ele>
        <time>2024-03-27T15:20:57Z</time>
      </trkpt>
      <trkpt lat="50.0558" lon="2.12308">
        <ele>64</ele>
        <time>2024-03-27T15:20:58Z</time>
      </trkpt>
      <trkpt lat="50.05579" lon="2.1231">
        <ele>63.9</ele>
        <time>2024-03-27T15:20:59Z</time>
      </trkpt>
      <trkpt lat="50.05578" lon="2.12311">
        <ele>63.9</ele>
        <time>2024-03-27T15:21:00Z</time>
      </trkpt>
      <trkpt lat="50.05578" lon="2.12313">
        <ele>63.9</ele>
        <time>2024-03-27T15:21:01Z</time>
      </trkpt>
      <trkpt lat="50.05578" lon="2.12314">
        <ele>63.9</ele>
        <time>2024-03-27T15:21:02Z</time>
      </trkpt>
      <trkpt lat="50.05577" lon="2.12316">
        <ele>63.9</ele>
        <time>2024-03-27T15:21:03Z</time>
      </trkpt>
      <trkpt lat="50.05577" lon="2.12317">
        <ele>63.9</ele>
        <time>2024-03-27T15:21:04Z</time>
      </trkpt>
      <trkpt lat="50.05577" lon="2.12319">
        <ele>63.8</ele>
        <time>2024-03-27T15:21:05Z</time>
      </trkpt>
      <trkpt lat="50.05576" lon="2.1232">
        <ele>63.8</ele>
        <time>2024-03-27T15:21:06Z</time>
      </trkpt>
      <trkpt lat="50.05576" lon="2.12322">
        <ele>63.8</ele>
        <time>2024-03-27T15:21:07Z</time>
      </trkpt>
      <trkpt lat="50.05576" lon="2.12323">
        <ele>63.8</ele>
        <time>2024-03-27T15:21:08Z</time>
      </trkpt>
      <trkpt lat="50.05575" lon="2.12325">
        <ele>63.8</ele>
        <time>2024-03-27T15:21:09Z</time>
      </trkpt>
      <trkpt lat="50.05575" lon="2.12326">
        <ele>63.8</ele>
        <time>2024-03-27T15:21:10Z</time>
      </trkpt>
      <trkpt lat="50.05574" lon="2.12327">
        <ele>63.8</ele>
        <time>2024-03-27T15:21:11Z</time>
      </trkpt>
      <trkpt lat="50.05574" lon="2.12329">
        <ele>63.7</ele>
        <time>2024-03-27T15:21:12Z</time>
      </trkpt>
      <trkpt lat="50.05573" lon="2.1233">
        <ele>63.7</ele>
        <time>2024-03-27T15:21:13Z</time>
      </trkpt>
      <trkpt lat="50.05573" lon="2.12332">
        <ele>63.7</ele>
        <time>2024-03-27T15:21:14Z</time>
      </trkpt>
      <trkpt lat="50.05573" lon="2.12333">
        <ele>63.7</ele>
        <time>2024-03-27T15:21:15Z</time>
      </trkpt>
      <trkpt lat="50.05573" lon="2.12334">
        <ele>63.7</ele>
        <time>2024-03-27T15:21:16Z</time>
      </trkpt>
      <trkpt lat="50.05573" lon="2.12336">
        <ele>63.7</ele>
        <time>2024-03-27T15:21:17Z</time>
      </trkpt>
      <trkpt lat="50.05572" lon="2.12337">
        <ele>63.7</ele>
        <time>2024-03-27T15:21:18Z</time>
      </trkpt>
      <trkpt lat="50.05572" lon="2.12338">
        <ele>63.6</ele>
        <time>2024-03-27T15:21:19Z</time>
      </trkpt>
      <trkpt lat="50.05572" lon="2.1234">
        <ele>63.6</ele>
        <time>2024-03-27T15:21:20Z</time>
      </trkpt>
      <trkpt lat="50.05572" lon="2.12342">
        <ele>63.6</ele>
        <time>2024-03-27T15:21:21Z</time>
      </trkpt>
      <trkpt lat="50.05571" lon="2.12343">
        <ele>63.6</ele>
        <time>2024-03-27T15:21:22Z</time>
      </trkpt>
      <trkpt lat="50.05571" lon="2.12344">
        <ele>63.6</ele>
        <time>2024-03-27T15:21:23Z</time>
      </trkpt>
      <trkpt lat="50.05571" lon="2.12346">
        <ele>63.6</ele>
        <time>2024-03-27T15:21:24Z</time>
      </trkpt>
      <trkpt lat="50.0557" lon="2.12347">
        <ele>63.5</ele>
        <time>2024-03-27T15:21:25Z</time>
      </trkpt>
      <trkpt lat="50.0557" lon="2.12349">
        <ele>63.5</ele>
        <time>2024-03-27T15:21:26Z</time>
      </trkpt>
      <trkpt lat="50.05569" lon="2.12352">
        <ele>63.5</ele>
        <time>2024-03-27T15:21:27Z</time>
      </trkpt>
      <trkpt lat="50.05569" lon="2.12353">
        <ele>63.5</ele>
        <time>2024-03-27T15:21:28Z</time>
      </trkpt>
      <trkpt lat="50.05568" lon="2.12354">
        <ele>63.5</ele>
        <time>2024-03-27T15:21:29Z</time>
      </trkpt>
      <trkpt lat="50.05568" lon="2.12358">
        <ele>63.4</ele>
        <time>2024-03-27T15:21:30Z</time>
      </trkpt>
      <trkpt lat="50.05567" lon="2.12359">
        <ele>63.4</ele>
        <time>2024-03-27T15:21:31Z</time>
      </trkpt>
      <trkpt lat="50.05567" lon="2.1236">
        <ele>63.4</ele>
        <time>2024-03-27T15:21:32Z</time>
      </trkpt>
      <trkpt lat="50.05566" lon="2.12362">
        <ele>63.4</ele>
        <time>2024-03-27T15:21:33Z</time>
      </trkpt>
      <trkpt lat="50.05566" lon="2.12364">
        <ele>63.4</ele>
        <time>2024-03-27T15:21:34Z</time>
      </trkpt>
      <trkpt lat="50.05566" lon="2.12366">
        <ele>63.4</ele>
        <time>2024-03-27T15:21:35Z</time>
      </trkpt>
      <trkpt lat="50.05565" lon="2.12367">
        <ele>63.4</ele>
        <time>2024-03-27T15:21:36Z</time>
      </trkpt>
      <trkpt lat="50.05565" lon="2.12369">
        <ele>63.4</ele>
        <time>2024-03-27T15:21:37Z</time>
      </trkpt>
      <trkpt lat="50.05564" lon="2.12371">
        <ele>63.4</ele>
        <time>2024-03-27T15:21:38Z</time>
      </trkpt>
      <trkpt lat="50.05564" lon="2.12372">
        <ele>63.3</ele>
        <time>2024-03-27T15:21:39Z</time>
      </trkpt>
      <trkpt lat="50.05563" lon="2.12374">
        <ele>63.3</ele>
        <time>2024-03-27T15:21:40Z</time>
      </trkpt>
      <trkpt lat="50.05563" lon="2.12377">
        <ele>63.3</ele>
        <time>2024-03-27T15:21:41Z</time>
      </trkpt>
      <trkpt lat="50.05562" lon="2.12378">
        <ele>63.3</ele>
        <time>2024-03-27T15:21:42Z</time>
      </trkpt>
      <trkpt lat="50.05562" lon="2.1238">
        <ele>63.3</ele>
        <time>2024-03-27T15:21:43Z</time>
      </trkpt>
      <trkpt lat="50.05562" lon="2.12381">
        <ele>63.3</ele>
        <time>2024-03-27T15:21:44Z</time>
      </trkpt>
      <trkpt lat="50.05561" lon="2.12383">
        <ele>63.3</ele>
        <time>2024-03-27T15:21:45Z</time>
      </trkpt>
      <trkpt lat="50.05561" lon="2.12384">
        <ele>63.3</ele>
        <time>2024-03-27T15:21:46Z</time>
      </trkpt>
      <trkpt lat="50.0556" lon="2.12386">
        <ele>63.3</ele>
        <time>2024-03-27T15:21:47Z</time>
      </trkpt>
      <trkpt lat="50.0556" lon="2.12387">
        <ele>63.3</ele>
        <time>2024-03-27T15:21:48Z</time>
      </trkpt>
      <trkpt lat="50.05559" lon="2.12389">
        <ele>63.3</ele>
        <time>2024-03-27T15:21:49Z</time>
      </trkpt>
      <trkpt lat="50.05559" lon="2.1239">
        <ele>63.2</ele>
        <time>2024-03-27T15:21:50Z</time>
      </trkpt>
      <trkpt lat="50.05558" lon="2.12392">
        <ele>63.2</ele>
        <time>2024-03-27T15:21:51Z</time>
      </trkpt>
      <trkpt lat="50.05558" lon="2.12393">
        <ele>63.2</ele>
        <time>2024-03-27T15:21:52Z</time>
      </trkpt>
      <trkpt lat="50.05557" lon="2.12396">
        <ele>63.2</ele>
        <time>2024-03-27T15:21:53Z</time>
      </trkpt>
      <trkpt lat="50.05556" lon="2.12397">
        <ele>63.2</ele>
        <time>2024-03-27T15:21:54Z</time>
      </trkpt>
      <trkpt lat="50.05556" lon="2.12398">
        <ele>63.2</ele>
        <time>2024-03-27T15:21:55Z</time>
      </trkpt>
      <trkpt lat="50.05555" lon="2.124">
        <ele>63.2</ele>
        <time>2024-03-27T15:21:56Z</time>
      </trkpt>
      <trkpt lat="50.05555" lon="2.12401">
        <ele>63.2</ele>
        <time>2024-03-27T15:21:57Z</time>
      </trkpt>
      <trkpt lat="50.05554" lon="2.12403">
        <ele>63.2</ele>
        <time>2024-03-27T15:21:58Z</time>
      </trkpt>
      <trkpt lat="50.05554" lon="2.12404">
        <ele>63.2</ele>
        <time>2024-03-27T15:21:59Z</time>
      </trkpt>
      <trkpt lat="50.05553" lon="2.12406">
        <ele>63.2</ele>
        <time>2024-03-27T15:22:00Z</time>
      </trkpt>
      <trkpt lat="50.05553" lon="2.12407">
        <ele>63.2</ele>
        <time>2024-03-27T15:22:01Z</time>
      </trkpt>
      <trkpt lat="50.05552" lon="2.12408">
        <ele>63.2</ele>
        <time>2024-03-27T15:22:02Z</time>
      </trkpt>
      <trkpt lat="50.05552" lon="2.1241">
        <ele>63.2</ele>
        <time>2024-03-27T15:22:03Z</time>
      </trkpt>
      <trkpt lat="50.05551" lon="2.12412">
        <ele>63.2</ele>
        <time>2024-03-27T15:22:04Z</time>
      </trkpt>
      <trkpt lat="50.05551" lon="2.12413">
        <ele>63.2</ele>
        <time>2024-03-27T15:22:05Z</time>
      </trkpt>
      <trkpt lat="50.0555" lon="2.12415">
        <ele>63.1</ele>
        <time>2024-03-27T15:22:06Z</time>
      </trkpt>
      <trkpt lat="50.0555" lon="2.12417">
        <ele>63.1</ele>
        <time>2024-03-27T15:22:07Z</time>
      </trkpt>
      <trkpt lat="50.05549" lon="2.12418">
        <ele>63.1</ele>
        <time>2024-03-27T15:22:08Z</time>
      </trkpt>
      <trkpt lat="50.05549" lon="2.12419">
        <ele>63.1</ele>
        <time>2024-03-27T15:22:09Z</time>
      </trkpt>
      <trkpt lat="50.05549" lon="2.12421">
        <ele>63.1</ele>
        <time>2024-03-27T15:22:10Z</time>
      </trkpt>
      <trkpt lat="50.05549" lon="2.12422">
        <ele>63.1</ele>
        <time>2024-03-27T15:22:11Z</time>
      </trkpt>
      <trkpt lat="50.05548" lon="2.12424">
        <ele>63.1</ele>
        <time>2024-03-27T15:22:12Z</time>
      </trkpt>
      <trkpt lat="50.05548" lon="2.12425">
        <ele>63.1</ele>
        <time>2024-03-27T15:22:13Z</time>
      </trkpt>
      <trkpt lat="50.05547" lon="2.12427">
        <ele>63.1</ele>
        <time>2024-03-27T15:22:14Z</time>
      </trkpt>
      <trkpt lat="50.05547" lon="2.12428">
        <ele>63.1</ele>
        <time>2024-03-27T15:22:15Z</time>
      </trkpt>
      <trkpt lat="50.05546" lon="2.1243">
        <ele>63.1</ele>
        <time>2024-03-27T15:22:16Z</time>
      </trkpt>
      <trkpt lat="50.05546" lon="2.12431">
        <ele>63.1</ele>
        <time>2024-03-27T15:22:17Z</time>
      </trkpt>
      <trkpt lat="50.05545" lon="2.12433">
        <ele>63.1</ele>
        <time>2024-03-27T15:22:18Z</time>
      </trkpt>
      <trkpt lat="50.05545" lon="2.12434">
        <ele>63</ele>
        <time>2024-03-27T15:22:19Z</time>
      </trkpt>
      <trkpt lat="50.05545" lon="2.12436">
        <ele>63</ele>
        <time>2024-03-27T15:22:20Z</time>
      </trkpt>
      <trkpt lat="50.05544" lon="2.12437">
        <ele>63</ele>
        <time>2024-03-27T15:22:21Z</time>
      </trkpt>
      <trkpt lat="50.05544" lon="2.12439">
        <ele>63</ele>
        <time>2024-03-27T15:22:22Z</time>
      </trkpt>
      <trkpt lat="50.05543" lon="2.12441">
        <ele>63</ele>
        <time>2024-03-27T15:22:23Z</time>
      </trkpt>
      <trkpt lat="50.05543" lon="2.12442">
        <ele>63</ele>
        <time>2024-03-27T15:22:24Z</time>
      </trkpt>
      <trkpt lat="50.05542" lon="2.12444">
        <ele>63</ele>
        <time>2024-03-27T15:22:25Z</time>
      </trkpt>
      <trkpt lat="50.05542" lon="2.12445">
        <ele>63</ele>
        <time>2024-03-27T15:22:26Z</time>
      </trkpt>
      <trkpt lat="50.05541" lon="2.12447">
        <ele>63</ele>
        <time>2024-03-27T15:22:27Z</time>
      </trkpt>
      <trkpt lat="50.05541" lon="2.12448">
        <ele>63</ele>
        <time>2024-03-27T15:22:28Z</time>
      </trkpt>
      <trkpt lat="50.05541" lon="2.1245">
        <ele>62.9</ele>
        <time>2024-03-27T15:22:29Z</time>
      </trkpt>
      <trkpt lat="50.0554" lon="2.12451">
        <ele>62.9</ele>
        <time>2024-03-27T15:22:30Z</time>
      </trkpt>
      <trkpt lat="50.0554" lon="2.12453">
        <ele>62.9</ele>
        <time>2024-03-27T15:22:31Z</time>
      </trkpt>
      <trkpt lat="50.05539" lon="2.12456">
        <ele>62.9</ele>
        <time>2024-03-27T15:22:32Z</time>
      </trkpt>
      <trkpt lat="50.05539" lon="2.12457">
        <ele>62.9</ele>
        <time>2024-03-27T15:22:33Z</time>
      </trkpt>
      <trkpt lat="50.05539" lon="2.12458">
        <ele>62.9</ele>
        <time>2024-03-27T15:22:34Z</time>
      </trkpt>
      <trkpt lat="50.05538" lon="2.1246">
        <ele>62.9</ele>
        <time>2024-03-27T15:22:35Z</time>
      </trkpt>
      <trkpt lat="50.05538" lon="2.12462">
        <ele>62.9</ele>
        <time>2024-03-27T15:22:36Z</time>
      </trkpt>
      <trkpt lat="50.05537" lon="2.12464">
        <ele>62.9</ele>
        <time>2024-03-27T15:22:37Z</time>
      </trkpt>
      <trkpt lat="50.05537" lon="2.12465">
        <ele>62.8</ele>
        <time>2024-03-27T15:22:38Z</time>
      </trkpt>
      <trkpt lat="50.05536" lon="2.12466">
        <ele>62.8</ele>
        <time>2024-03-27T15:22:39Z</time>
      </trkpt>
      <trkpt lat="50.05536" lon="2.12468">
        <ele>62.8</ele>
        <time>2024-03-27T15:22:40Z</time>
      </trkpt>
      <trkpt lat="50.05536" lon="2.12469">
        <ele>62.8</ele>
        <time>2024-03-27T15:22:41Z</time>
      </trkpt>
      <trkpt lat="50.05535" lon="2.12471">
        <ele>62.8</ele>
        <time>2024-03-27T15:22:42Z</time>
      </trkpt>
      <trkpt lat="50.05535" lon="2.12473">
        <ele>62.8</ele>
        <time>2024-03-27T15:22:43Z</time>
      </trkpt>
      <trkpt lat="50.05534" lon="2.12475">
        <ele>62.8</ele>
        <time>2024-03-27T15:22:44Z</time>
      </trkpt>
      <trkpt lat="50.05534" lon="2.12477">
        <ele>62.7</ele>
        <time>2024-03-27T15:22:45Z</time>
      </trkpt>
      <trkpt lat="50.05533" lon="2.12478">
        <ele>62.7</ele>
        <time>2024-03-27T15:22:46Z</time>
      </trkpt>
      <trkpt lat="50.05533" lon="2.1248">
        <ele>62.7</ele>
        <time>2024-03-27T15:22:47Z</time>
      </trkpt>
      <trkpt lat="50.05533" lon="2.12481">
        <ele>62.7</ele>
        <time>2024-03-27T15:22:48Z</time>
      </trkpt>
      <trkpt lat="50.05533" lon="2.12483">
        <ele>62.7</ele>
        <time>2024-03-27T15:22:49Z</time>
      </trkpt>
      <trkpt lat="50.05532" lon="2.12485">
        <ele>62.7</ele>
        <time>2024-03-27T15:22:50Z</time>
      </trkpt>
      <trkpt lat="50.05532" lon="2.12486">
        <ele>62.7</ele>
        <time>2024-03-27T15:22:51Z</time>
      </trkpt>
      <trkpt lat="50.05532" lon="2.12488">
        <ele>62.7</ele>
        <time>2024-03-27T15:22:52Z</time>
      </trkpt>
      <trkpt lat="50.05532" lon="2.12491">
        <ele>62.6</ele>
        <time>2024-03-27T15:22:53Z</time>
      </trkpt>
      <trkpt lat="50.05531" lon="2.12493">
        <ele>62.6</ele>
        <time>2024-03-27T15:22:54Z</time>
      </trkpt>
      <trkpt lat="50.05531" lon="2.12494">
        <ele>62.6</ele>
        <time>2024-03-27T15:22:55Z</time>
      </trkpt>
      <trkpt lat="50.05531" lon="2.12496">
        <ele>62.6</ele>
        <time>2024-03-27T15:22:56Z</time>
      </trkpt>
      <trkpt lat="50.05531" lon="2.12497">
        <ele>62.6</ele>
        <time>2024-03-27T15:22:57Z</time>
      </trkpt>
      <trkpt lat="50.0553" lon="2.12499">
        <ele>62.6</ele>
        <time>2024-03-27T15:22:58Z</time>
      </trkpt>
      <trkpt lat="50.0553" lon="2.12501">
        <ele>62.6</ele>
        <time>2024-03-27T15:22:59Z</time>
      </trkpt>
      <trkpt lat="50.0553" lon="2.12502">
        <ele>62.6</ele>
        <time>2024-03-27T15:23:00Z</time>
      </trkpt>
      <trkpt lat="50.0553" lon="2.12504">
        <ele>62.6</ele>
        <time>2024-03-27T15:23:01Z</time>
      </trkpt>
      <trkpt lat="50.05529" lon="2.12506">
        <ele>62.5</ele>
        <time>2024-03-27T15:23:02Z</time>
      </trkpt>
      <trkpt lat="50.05529" lon="2.12508">
        <ele>62.5</ele>
        <time>2024-03-27T15:23:03Z</time>
      </trkpt>
      <trkpt lat="50.05529" lon="2.12509">
        <ele>62.5</ele>
        <time>2024-03-27T15:23:04Z</time>
      </trkpt>
      <trkpt lat="50.05529" lon="2.12511">
        <ele>62.5</ele>
        <time>2024-03-27T15:23:05Z</time>
      </trkpt>
      <trkpt lat="50.05528" lon="2.12513">
        <ele>62.5</ele>
        <time>2024-03-27T15:23:06Z</time>
      </trkpt>
      <trkpt lat="50.05528" lon="2.12515">
        <ele>62.5</ele>
        <time>2024-03-27T15:23:07Z</time>
      </trkpt>
      <trkpt lat="50.05528" lon="2.12516">
        <ele>62.5</ele>
        <time>2024-03-27T15:23:08Z</time>
      </trkpt>
      <trkpt lat="50.05527" lon="2.12518">
        <ele>62.5</ele>
        <time>2024-03-27T15:23:09Z</time>
      </trkpt>
      <trkpt lat="50.05527" lon="2.12519">
        <ele>62.5</ele>
        <time>2024-03-27T15:23:10Z</time>
      </trkpt>
      <trkpt lat="50.05527" lon="2.12521">
        <ele>62.4</ele>
        <time>2024-03-27T15:23:11Z</time>
      </trkpt>
      <trkpt lat="50.05526" lon="2.12523">
        <ele>62.4</ele>
        <time>2024-03-27T15:23:12Z</time>
      </trkpt>
      <trkpt lat="50.05526" lon="2.12524">
        <ele>62.4</ele>
        <time>2024-03-27T15:23:13Z</time>
      </trkpt>
      <trkpt lat="50.05525" lon="2.12527">
        <ele>62.4</ele>
        <time>2024-03-27T15:23:14Z</time>
      </trkpt>
      <trkpt lat="50.05525" lon="2.12529">
        <ele>62.4</ele>
        <time>2024-03-27T15:23:15Z</time>
      </trkpt>
      <trkpt lat="50.05525" lon="2.1253">
        <ele>62.4</ele>
        <time>2024-03-27T15:23:16Z</time>
      </trkpt>
      <trkpt lat="50.05524" lon="2.12532">
        <ele>62.4</ele>
        <time>2024-03-27T15:23:17Z</time>
      </trkpt>
      <trkpt lat="50.05524" lon="2.12533">
        <ele>62.4</ele>
        <time>2024-03-27T15:23:18Z</time>
      </trkpt>
      <trkpt lat="50.05524" lon="2.12535">
        <ele>62.4</ele>
        <time>2024-03-27T15:23:19Z</time>
      </trkpt>
      <trkpt lat="50.05523" lon="2.12537">
        <ele>62.4</ele>
        <time>2024-03-27T15:23:20Z</time>
      </trkpt>
      <trkpt lat="50.05523" lon="2.12538">
        <ele>62.4</ele>
        <time>2024-03-27T15:23:21Z</time>
      </trkpt>
      <trkpt lat="50.05523" lon="2.1254">
        <ele>62.4</ele>
        <time>2024-03-27T15:23:22Z</time>
      </trkpt>
      <trkpt lat="50.05522" lon="2.12543">
        <ele>62.4</ele>
        <time>2024-03-27T15:23:23Z</time>
      </trkpt>
      <trkpt lat="50.05522" lon="2.12544">
        <ele>62.4</ele>
        <time>2024-03-27T15:23:24Z</time>
      </trkpt>
      <trkpt lat="50.05522" lon="2.12545">
        <ele>62.4</ele>
        <time>2024-03-27T15:23:25Z</time>
      </trkpt>
      <trkpt lat="50.05521" lon="2.12547">
        <ele>62.4</ele>
        <time>2024-03-27T15:23:26Z</time>
      </trkpt>
      <trkpt lat="50.05521" lon="2.12549">
        <ele>62.4</ele>
        <time>2024-03-27T15:23:27Z</time>
      </trkpt>
      <trkpt lat="50.05521" lon="2.12551">
        <ele>62.4</ele>
        <time>2024-03-27T15:23:28Z</time>
      </trkpt>
      <trkpt lat="50.05521" lon="2.12553">
        <ele>62.4</ele>
        <time>2024-03-27T15:23:29Z</time>
      </trkpt>
      <trkpt lat="50.0552" lon="2.12554">
        <ele>62.4</ele>
        <time>2024-03-27T15:23:30Z</time>
      </trkpt>
      <trkpt lat="50.0552" lon="2.12556">
        <ele>62.4</ele>
        <time>2024-03-27T15:23:31Z</time>
      </trkpt>
      <trkpt lat="50.0552" lon="2.12558">
        <ele>62.4</ele>
        <time>2024-03-27T15:23:32Z</time>
      </trkpt>
      <trkpt lat="50.0552" lon="2.12559">
        <ele>62.4</ele>
        <time>2024-03-27T15:23:33Z</time>
      </trkpt>
      <trkpt lat="50.0552" lon="2.12561">
        <ele>62.4</ele>
        <time>2024-03-27T15:23:34Z</time>
      </trkpt>
      <trkpt lat="50.05519" lon="2.12563">
        <ele>62.4</ele>
        <time>2024-03-27T15:23:35Z</time>
      </trkpt>
      <trkpt lat="50.05519" lon="2.12564">
        <ele>62.4</ele>
        <time>2024-03-27T15:23:36Z</time>
      </trkpt>
      <trkpt lat="50.05519" lon="2.12566">
        <ele>62.4</ele>
        <time>2024-03-27T15:23:37Z</time>
      </trkpt>
      <trkpt lat="50.05519" lon="2.12567">
        <ele>62.4</ele>
        <time>2024-03-27T15:23:38Z</time>
      </trkpt>
      <trkpt lat="50.05519" lon="2.12569">
        <ele>62.4</ele>
        <time>2024-03-27T15:23:39Z</time>
      </trkpt>
      <trkpt lat="50.05519" lon="2.12571">
        <ele>62.4</ele>
        <time>2024-03-27T15:23:40Z</time>
      </trkpt>
      <trkpt lat="50.05519" lon="2.12574">
        <ele>62.4</ele>
        <time>2024-03-27T15:23:41Z</time>
      </trkpt>
      <trkpt lat="50.05519" lon="2.12575">
        <ele>62.4</ele>
        <time>2024-03-27T15:23:42Z</time>
      </trkpt>
      <trkpt lat="50.05519" lon="2.12576">
        <ele>62.4</ele>
        <time>2024-03-27T15:23:43Z</time>
      </trkpt>
      <trkpt lat="50.05518" lon="2.1258">
        <ele>62.4</ele>
        <time>2024-03-27T15:23:44Z</time>
      </trkpt>
      <trkpt lat="50.05518" lon="2.12581">
        <ele>62.4</ele>
        <time>2024-03-27T15:23:45Z</time>
      </trkpt>
      <trkpt lat="50.05518" lon="2.12582">
        <ele>62.4</ele>
        <time>2024-03-27T15:23:46Z</time>
      </trkpt>
      <trkpt lat="50.05518" lon="2.12584">
        <ele>62.4</ele>
        <time>2024-03-27T15:23:47Z</time>
      </trkpt>
      <trkpt lat="50.05517" lon="2.12585">
        <ele>62.4</ele>
        <time>2024-03-27T15:23:48Z</time>
      </trkpt>
      <trkpt lat="50.05517" lon="2.12587">
        <ele>62.4</ele>
        <time>2024-03-27T15:23:49Z</time>
      </trkpt>
      <trkpt lat="50.05517" lon="2.12589">
        <ele>62.4</ele>
        <time>2024-03-27T15:23:50Z</time>
      </trkpt>
      <trkpt lat="50.05517" lon="2.1259">
        <ele>62.4</ele>
        <time>2024-03-27T15:23:51Z</time>
      </trkpt>
      <trkpt lat="50.05516" lon="2.12592">
        <ele>62.4</ele>
        <time>2024-03-27T15:23:52Z</time>
      </trkpt>
      <trkpt lat="50.05516" lon="2.12594">
        <ele>62.4</ele>
        <time>2024-03-27T15:23:53Z</time>
      </trkpt>
      <trkpt lat="50.05516" lon="2.12596">
        <ele>62.4</ele>
        <time>2024-03-27T15:23:54Z</time>
      </trkpt>
      <trkpt lat="50.05516" lon="2.12597">
        <ele>62.4</ele>
        <time>2024-03-27T15:23:55Z</time>
      </trkpt>
      <trkpt lat="50.05516" lon="2.12599">
        <ele>62.4</ele>
        <time>2024-03-27T15:23:56Z</time>
      </trkpt>
      <trkpt lat="50.05516" lon="2.126">
        <ele>62.4</ele>
        <time>2024-03-27T15:23:57Z</time>
      </trkpt>
      <trkpt lat="50.05516" lon="2.12602">
        <ele>62.4</ele>
        <time>2024-03-27T15:23:58Z</time>
      </trkpt>
      <trkpt lat="50.05516" lon="2.12604">
        <ele>62.4</ele>
        <time>2024-03-27T15:23:59Z</time>
      </trkpt>
      <trkpt lat="50.05516" lon="2.12606">
        <ele>62.4</ele>
        <time>2024-03-27T15:24:00Z</time>
      </trkpt>
      <trkpt lat="50.05516" lon="2.12607">
        <ele>62.4</ele>
        <time>2024-03-27T15:24:01Z</time>
      </trkpt>
      <trkpt lat="50.05516" lon="2.12611">
        <ele>62.4</ele>
        <time>2024-03-27T15:24:02Z</time>
      </trkpt>
      <trkpt lat="50.05516" lon="2.12612">
        <ele>62.4</ele>
        <time>2024-03-27T15:24:03Z</time>
      </trkpt>
      <trkpt lat="50.05516" lon="2.12613">
        <ele>62.4</ele>
        <time>2024-03-27T15:24:04Z</time>
      </trkpt>
      <trkpt lat="50.05516" lon="2.12615">
        <ele>62.4</ele>
        <time>2024-03-27T15:24:05Z</time>
      </trkpt>
      <trkpt lat="50.05516" lon="2.12617">
        <ele>62.5</ele>
        <time>2024-03-27T15:24:06Z</time>
      </trkpt>
      <trkpt lat="50.05516" lon="2.12618">
        <ele>62.5</ele>
        <time>2024-03-27T15:24:07Z</time>
      </trkpt>
      <trkpt lat="50.05516" lon="2.1262">
        <ele>62.5</ele>
        <time>2024-03-27T15:24:08Z</time>
      </trkpt>
      <trkpt lat="50.05516" lon="2.12622">
        <ele>62.5</ele>
        <time>2024-03-27T15:24:09Z</time>
      </trkpt>
      <trkpt lat="50.05516" lon="2.12624">
        <ele>62.5</ele>
        <time>2024-03-27T15:24:10Z</time>
      </trkpt>
      <trkpt lat="50.05516" lon="2.12627">
        <ele>62.5</ele>
        <time>2024-03-27T15:24:11Z</time>
      </trkpt>
      <trkpt lat="50.05516" lon="2.12628">
        <ele>62.5</ele>
        <time>2024-03-27T15:24:12Z</time>
      </trkpt>
      <trkpt lat="50.05516" lon="2.1263">
        <ele>62.5</ele>
        <time>2024-03-27T15:24:13Z</time>
      </trkpt>
      <trkpt lat="50.05516" lon="2.12631">
        <ele>62.6</ele>
        <time>2024-03-27T15:24:14Z</time>
      </trkpt>
      <trkpt lat="50.05517" lon="2.12633">
        <ele>62.6</ele>
        <time>2024-03-27T15:24:15Z</time>
      </trkpt>
      <trkpt lat="50.05517" lon="2.12635">
        <ele>62.6</ele>
        <time>2024-03-27T15:24:16Z</time>
      </trkpt>
      <trkpt lat="50.05517" lon="2.12637">
        <ele>62.6</ele>
        <time>2024-03-27T15:24:17Z</time>
      </trkpt>
      <trkpt lat="50.05517" lon="2.12638">
        <ele>62.6</ele>
        <time>2024-03-27T15:24:18Z</time>
      </trkpt>
      <trkpt lat="50.05517" lon="2.1264">
        <ele>62.6</ele>
        <time>2024-03-27T15:24:19Z</time>
      </trkpt>
      <trkpt lat="50.05517" lon="2.12642">
        <ele>62.7</ele>
        <time>2024-03-27T15:24:20Z</time>
      </trkpt>
      <trkpt lat="50.05517" lon="2.12644">
        <ele>62.7</ele>
        <time>2024-03-27T15:24:21Z</time>
      </trkpt>
      <trkpt lat="50.05517" lon="2.12645">
        <ele>62.7</ele>
        <time>2024-03-27T15:24:22Z</time>
      </trkpt>
      <trkpt lat="50.05518" lon="2.12647">
        <ele>62.7</ele>
        <time>2024-03-27T15:24:23Z</time>
      </trkpt>
      <trkpt lat="50.05518" lon="2.12649">
        <ele>62.7</ele>
        <time>2024-03-27T15:24:24Z</time>
      </trkpt>
      <trkpt lat="50.05518" lon="2.12651">
        <ele>62.8</ele>
        <time>2024-03-27T15:24:25Z</time>
      </trkpt>
      <trkpt lat="50.05518" lon="2.12653">
        <ele>62.8</ele>
        <time>2024-03-27T15:24:26Z</time>
      </trkpt>
      <trkpt lat="50.05518" lon="2.12654">
        <ele>62.8</ele>
        <time>2024-03-27T15:24:27Z</time>
      </trkpt>
      <trkpt lat="50.05518" lon="2.12656">
        <ele>62.8</ele>
        <time>2024-03-27T15:24:28Z</time>
      </trkpt>
      <trkpt lat="50.05518" lon="2.12657">
        <ele>62.8</ele>
        <time>2024-03-27T15:24:29Z</time>
      </trkpt>
      <trkpt lat="50.05519" lon="2.12659">
        <ele>62.8</ele>
        <time>2024-03-27T15:24:30Z</time>
      </trkpt>
      <trkpt lat="50.05519" lon="2.12661">
        <ele>62.9</ele>
        <time>2024-03-27T15:24:31Z</time>
      </trkpt>
      <trkpt lat="50.05519" lon="2.12663">
        <ele>62.9</ele>
        <time>2024-03-27T15:24:32Z</time>
      </trkpt>
      <trkpt lat="50.05519" lon="2.12664">
        <ele>62.9</ele>
        <time>2024-03-27T15:24:33Z</time>
      </trkpt>
      <trkpt lat="50.05519" lon="2.12666">
        <ele>62.9</ele>
        <time>2024-03-27T15:24:34Z</time>
      </trkpt>
      <trkpt lat="50.05519" lon="2.12668">
        <ele>62.9</ele>
        <time>2024-03-27T15:24:35Z</time>
      </trkpt>
      <trkpt lat="50.05519" lon="2.1267">
        <ele>62.9</ele>
        <time>2024-03-27T15:24:36Z</time>
      </trkpt>
      <trkpt lat="50.05519" lon="2.12671">
        <ele>63</ele>
        <time>2024-03-27T15:24:37Z</time>
      </trkpt>
      <trkpt lat="50.05519" lon="2.12673">
        <ele>63</ele>
        <time>2024-03-27T15:24:38Z</time>
      </trkpt>
      <trkpt lat="50.05519" lon="2.12675">
        <ele>63</ele>
        <time>2024-03-27T15:24:39Z</time>
      </trkpt>
      <trkpt lat="50.0552" lon="2.12676">
        <ele>63</ele>
        <time>2024-03-27T15:24:40Z</time>
      </trkpt>
      <trkpt lat="50.0552" lon="2.12678">
        <ele>63</ele>
        <time>2024-03-27T15:24:41Z</time>
      </trkpt>
      <trkpt lat="50.0552" lon="2.1268">
        <ele>63</ele>
        <time>2024-03-27T15:24:42Z</time>
      </trkpt>
      <trkpt lat="50.0552" lon="2.12681">
        <ele>63</ele>
        <time>2024-03-27T15:24:43Z</time>
      </trkpt>
      <trkpt lat="50.0552" lon="2.12683">
        <ele>63</ele>
        <time>2024-03-27T15:24:44Z</time>
      </trkpt>
      <trkpt lat="50.05521" lon="2.12684">
        <ele>63.1</ele>
        <time>2024-03-27T15:24:45Z</time>
      </trkpt>
      <trkpt lat="50.05521" lon="2.12686">
        <ele>63.1</ele>
        <time>2024-03-27T15:24:46Z</time>
      </trkpt>
      <trkpt lat="50.05521" lon="2.12687">
        <ele>63.1</ele>
        <time>2024-03-27T15:24:47Z</time>
      </trkpt>
      <trkpt lat="50.05521" lon="2.12689">
        <ele>63.1</ele>
        <time>2024-03-27T15:24:48Z</time>
      </trkpt>
      <trkpt lat="50.05522" lon="2.1269">
        <ele>63.1</ele>
        <time>2024-03-27T15:24:49Z</time>
      </trkpt>
      <trkpt lat="50.05522" lon="2.12692">
        <ele>63.1</ele>
        <time>2024-03-27T15:24:50Z</time>
      </trkpt>
      <trkpt lat="50.05522" lon="2.12694">
        <ele>63.1</ele>
        <time>2024-03-27T15:24:51Z</time>
      </trkpt>
      <trkpt lat="50.05523" lon="2.12695">
        <ele>63.1</ele>
        <time>2024-03-27T15:24:52Z</time>
      </trkpt>
      <trkpt lat="50.05523" lon="2.12698">
        <ele>63.1</ele>
        <time>2024-03-27T15:24:53Z</time>
      </trkpt>
      <trkpt lat="50.05523" lon="2.12699">
        <ele>63.1</ele>
        <time>2024-03-27T15:24:54Z</time>
      </trkpt>
      <trkpt lat="50.05523" lon="2.12701">
        <ele>63.1</ele>
        <time>2024-03-27T15:24:55Z</time>
      </trkpt>
      <trkpt lat="50.05523" lon="2.12703">
        <ele>63.1</ele>
        <time>2024-03-27T15:24:56Z</time>
      </trkpt>
      <trkpt lat="50.05524" lon="2.12706">
        <ele>63.1</ele>
        <time>2024-03-27T15:24:57Z</time>
      </trkpt>
      <trkpt lat="50.05525" lon="2.12707">
        <ele>63.1</ele>
        <time>2024-03-27T15:24:58Z</time>
      </trkpt>
      <trkpt lat="50.05525" lon="2.12709">
        <ele>63.1</ele>
        <time>2024-03-27T15:24:59Z</time>
      </trkpt>
      <trkpt lat="50.05526" lon="2.1271">
        <ele>63.1</ele>
        <time>2024-03-27T15:25:00Z</time>
      </trkpt>
      <trkpt lat="50.05526" lon="2.12711">
        <ele>63.1</ele>
        <time>2024-03-27T15:25:01Z</time>
      </trkpt>
      <trkpt lat="50.05526" lon="2.12712">
        <ele>63.1</ele>
        <time>2024-03-27T15:25:02Z</time>
      </trkpt>
      <trkpt lat="50.05527" lon="2.12714">
        <ele>63.1</ele>
        <time>2024-03-27T15:25:03Z</time>
      </trkpt>
      <trkpt lat="50.05527" lon="2.12717">
        <ele>63.1</ele>
        <time>2024-03-27T15:25:04Z</time>
      </trkpt>
      <trkpt lat="50.05528" lon="2.12718">
        <ele>63.1</ele>
        <time>2024-03-27T15:25:05Z</time>
      </trkpt>
      <trkpt lat="50.05528" lon="2.1272">
        <ele>63.1</ele>
        <time>2024-03-27T15:25:06Z</time>
      </trkpt>
      <trkpt lat="50.05529" lon="2.12721">
        <ele>63.1</ele>
        <time>2024-03-27T15:25:07Z</time>
      </trkpt>
      <trkpt lat="50.05529" lon="2.12723">
        <ele>63.1</ele>
        <time>2024-03-27T15:25:08Z</time>
      </trkpt>
      <trkpt lat="50.05529" lon="2.12724">
        <ele>63.1</ele>
        <time>2024-03-27T15:25:09Z</time>
      </trkpt>
      <trkpt lat="50.0553" lon="2.12726">
        <ele>63.1</ele>
        <time>2024-03-27T15:25:10Z</time>
      </trkpt>
      <trkpt lat="50.0553" lon="2.12727">
        <ele>63.1</ele>
        <time>2024-03-27T15:25:11Z</time>
      </trkpt>
      <trkpt lat="50.0553" lon="2.12728">
        <ele>63.1</ele>
        <time>2024-03-27T15:25:12Z</time>
      </trkpt>
      <trkpt lat="50.05531" lon="2.1273">
        <ele>63.1</ele>
        <time>2024-03-27T15:25:13Z</time>
      </trkpt>
      <trkpt lat="50.05531" lon="2.12731">
        <ele>63.1</ele>
        <time>2024-03-27T15:25:14Z</time>
      </trkpt>
      <trkpt lat="50.05531" lon="2.12733">
        <ele>63.1</ele>
        <time>2024-03-27T15:25:15Z</time>
      </trkpt>
      <trkpt lat="50.05531" lon="2.12735">
        <ele>63.1</ele>
        <time>2024-03-27T15:25:16Z</time>
      </trkpt>
      <trkpt lat="50.05531" lon="2.12736">
        <ele>63.1</ele>
        <time>2024-03-27T15:25:17Z</time>
      </trkpt>
      <trkpt lat="50.05532" lon="2.12738">
        <ele>63.1</ele>
        <time>2024-03-27T15:25:18Z</time>
      </trkpt>
      <trkpt lat="50.05532" lon="2.1274">
        <ele>63.1</ele>
        <time>2024-03-27T15:25:19Z</time>
      </trkpt>
      <trkpt lat="50.05532" lon="2.12741">
        <ele>63.1</ele>
        <time>2024-03-27T15:25:20Z</time>
      </trkpt>
      <trkpt lat="50.05532" lon="2.12743">
        <ele>63</ele>
        <time>2024-03-27T15:25:21Z</time>
      </trkpt>
      <trkpt lat="50.05533" lon="2.12746">
        <ele>63</ele>
        <time>2024-03-27T15:25:22Z</time>
      </trkpt>
      <trkpt lat="50.05533" lon="2.12748">
        <ele>63</ele>
        <time>2024-03-27T15:25:23Z</time>
      </trkpt>
      <trkpt lat="50.05533" lon="2.12749">
        <ele>63</ele>
        <time>2024-03-27T15:25:24Z</time>
      </trkpt>
      <trkpt lat="50.05534" lon="2.12752">
        <ele>63</ele>
        <time>2024-03-27T15:25:25Z</time>
      </trkpt>
      <trkpt lat="50.05534" lon="2.12753">
        <ele>63</ele>
        <time>2024-03-27T15:25:26Z</time>
      </trkpt>
      <trkpt lat="50.05534" lon="2.12755">
        <ele>63</ele>
        <time>2024-03-27T15:25:27Z</time>
      </trkpt>
      <trkpt lat="50.05534" lon="2.12758">
        <ele>63</ele>
        <time>2024-03-27T15:25:28Z</time>
      </trkpt>
      <trkpt lat="50.05535" lon="2.1276">
        <ele>63</ele>
        <time>2024-03-27T15:25:29Z</time>
      </trkpt>
      <trkpt lat="50.05535" lon="2.12761">
        <ele>62.9</ele>
        <time>2024-03-27T15:25:30Z</time>
      </trkpt>
      <trkpt lat="50.05535" lon="2.12763">
        <ele>62.9</ele>
        <time>2024-03-27T15:25:31Z</time>
      </trkpt>
      <trkpt lat="50.05535" lon="2.12764">
        <ele>62.9</ele>
        <time>2024-03-27T15:25:32Z</time>
      </trkpt>
      <trkpt lat="50.05535" lon="2.12766">
        <ele>62.9</ele>
        <time>2024-03-27T15:25:33Z</time>
      </trkpt>
      <trkpt lat="50.05536" lon="2.12768">
        <ele>62.9</ele>
        <time>2024-03-27T15:25:34Z</time>
      </trkpt>
      <trkpt lat="50.05536" lon="2.1277">
        <ele>62.9</ele>
        <time>2024-03-27T15:25:35Z</time>
      </trkpt>
      <trkpt lat="50.05536" lon="2.12771">
        <ele>62.9</ele>
        <time>2024-03-27T15:25:36Z</time>
      </trkpt>
      <trkpt lat="50.05536" lon="2.12773">
        <ele>62.9</ele>
        <time>2024-03-27T15:25:37Z</time>
      </trkpt>
      <trkpt lat="50.05537" lon="2.12774">
        <ele>62.8</ele>
        <time>2024-03-27T15:25:38Z</time>
      </trkpt>
      <trkpt lat="50.05537" lon="2.12776">
        <ele>62.8</ele>
        <time>2024-03-27T15:25:39Z</time>
      </trkpt>
      <trkpt lat="50.05537" lon="2.12779">
        <ele>62.8</ele>
        <time>2024-03-27T15:25:40Z</time>
      </trkpt>
      <trkpt lat="50.05538" lon="2.1278">
        <ele>62.8</ele>
        <time>2024-03-27T15:25:41Z</time>
      </trkpt>
      <trkpt lat="50.05538" lon="2.12781">
        <ele>62.8</ele>
        <time>2024-03-27T15:25:42Z</time>
      </trkpt>
      <trkpt lat="50.05538" lon="2.12783">
        <ele>62.8</ele>
        <time>2024-03-27T15:25:43Z</time>
      </trkpt>
      <trkpt lat="50.05539" lon="2.12785">
        <ele>62.8</ele>
        <time>2024-03-27T15:25:44Z</time>
      </trkpt>
      <trkpt lat="50.05539" lon="2.12786">
        <ele>62.8</ele>
        <time>2024-03-27T15:25:45Z</time>
      </trkpt>
      <trkpt lat="50.05539" lon="2.12789">
        <ele>62.7</ele>
        <time>2024-03-27T15:25:46Z</time>
      </trkpt>
      <trkpt lat="50.0554" lon="2.12791">
        <ele>62.7</ele>
        <time>2024-03-27T15:25:47Z</time>
      </trkpt>
      <trkpt lat="50.0554" lon="2.12792">
        <ele>62.7</ele>
        <time>2024-03-27T15:25:48Z</time>
      </trkpt>
      <trkpt lat="50.0554" lon="2.12794">
        <ele>62.7</ele>
        <time>2024-03-27T15:25:49Z</time>
      </trkpt>
      <trkpt lat="50.05541" lon="2.12795">
        <ele>62.7</ele>
        <time>2024-03-27T15:25:50Z</time>
      </trkpt>
      <trkpt lat="50.05541" lon="2.12798">
        <ele>62.6</ele>
        <time>2024-03-27T15:25:51Z</time>
      </trkpt>
      <trkpt lat="50.05541" lon="2.12799">
        <ele>62.6</ele>
        <time>2024-03-27T15:25:52Z</time>
      </trkpt>
      <trkpt lat="50.05541" lon="2.128">
        <ele>62.6</ele>
        <time>2024-03-27T15:25:53Z</time>
      </trkpt>
      <trkpt lat="50.05541" lon="2.12802">
        <ele>62.6</ele>
        <time>2024-03-27T15:25:54Z</time>
      </trkpt>
      <trkpt lat="50.05541" lon="2.12804">
        <ele>62.6</ele>
        <time>2024-03-27T15:25:55Z</time>
      </trkpt>
      <trkpt lat="50.05542" lon="2.12805">
        <ele>62.6</ele>
        <time>2024-03-27T15:25:56Z</time>
      </trkpt>
      <trkpt lat="50.05542" lon="2.12808">
        <ele>62.5</ele>
        <time>2024-03-27T15:25:57Z</time>
      </trkpt>
      <trkpt lat="50.05542" lon="2.1281">
        <ele>62.5</ele>
        <time>2024-03-27T15:25:58Z</time>
      </trkpt>
      <trkpt lat="50.05542" lon="2.12811">
        <ele>62.5</ele>
        <time>2024-03-27T15:25:59Z</time>
      </trkpt>
      <trkpt lat="50.05543" lon="2.12813">
        <ele>62.5</ele>
        <time>2024-03-27T15:26:00Z</time>
      </trkpt>
      <trkpt lat="50.05543" lon="2.12816">
        <ele>62.4</ele>
        <time>2024-03-27T15:26:01Z</time>
      </trkpt>
      <trkpt lat="50.05543" lon="2.12818">
        <ele>62.4</ele>
        <time>2024-03-27T15:26:02Z</time>
      </trkpt>
      <trkpt lat="50.05544" lon="2.1282">
        <ele>62.4</ele>
        <time>2024-03-27T15:26:03Z</time>
      </trkpt>
      <trkpt lat="50.05544" lon="2.12823">
        <ele>62.4</ele>
        <time>2024-03-27T15:26:04Z</time>
      </trkpt>
      <trkpt lat="50.05544" lon="2.12825">
        <ele>62.3</ele>
        <time>2024-03-27T15:26:05Z</time>
      </trkpt>
      <trkpt lat="50.05544" lon="2.12827">
        <ele>62.3</ele>
        <time>2024-03-27T15:26:06Z</time>
      </trkpt>
      <trkpt lat="50.05544" lon="2.12828">
        <ele>62.3</ele>
        <time>2024-03-27T15:26:07Z</time>
      </trkpt>
      <trkpt lat="50.05545" lon="2.1283">
        <ele>62.3</ele>
        <time>2024-03-27T15:26:08Z</time>
      </trkpt>
      <trkpt lat="50.05545" lon="2.12831">
        <ele>62.3</ele>
        <time>2024-03-27T15:26:09Z</time>
      </trkpt>
      <trkpt lat="50.05545" lon="2.12833">
        <ele>62.2</ele>
        <time>2024-03-27T15:26:10Z</time>
      </trkpt>
      <trkpt lat="50.05546" lon="2.12834">
        <ele>62.2</ele>
        <time>2024-03-27T15:26:11Z</time>
      </trkpt>
      <trkpt lat="50.05546" lon="2.12836">
        <ele>62.2</ele>
        <time>2024-03-27T15:26:12Z</time>
      </trkpt>
      <trkpt lat="50.05546" lon="2.12838">
        <ele>62.1</ele>
        <time>2024-03-27T15:26:13Z</time>
      </trkpt>
      <trkpt lat="50.05547" lon="2.12839">
        <ele>62.1</ele>
        <time>2024-03-27T15:26:14Z</time>
      </trkpt>
      <trkpt lat="50.05547" lon="2.12841">
        <ele>62.1</ele>
        <time>2024-03-27T15:26:15Z</time>
      </trkpt>
      <trkpt lat="50.05547" lon="2.12843">
        <ele>62.1</ele>
        <time>2024-03-27T15:26:16Z</time>
      </trkpt>
      <trkpt lat="50.05547" lon="2.12845">
        <ele>62</ele>
        <time>2024-03-27T15:26:17Z</time>
      </trkpt>
      <trkpt lat="50.05547" lon="2.12848">
        <ele>62</ele>
        <time>2024-03-27T15:26:18Z</time>
      </trkpt>
      <trkpt lat="50.05548" lon="2.1285">
        <ele>61.9</ele>
        <time>2024-03-27T15:26:19Z</time>
      </trkpt>
      <trkpt lat="50.05548" lon="2.12853">
        <ele>61.9</ele>
        <time>2024-03-27T15:26:20Z</time>
      </trkpt>
      <trkpt lat="50.05549" lon="2.12855">
        <ele>61.9</ele>
        <time>2024-03-27T15:26:21Z</time>
      </trkpt>
      <trkpt lat="50.05549" lon="2.12857">
        <ele>61.8</ele>
        <time>2024-03-27T15:26:22Z</time>
      </trkpt>
      <trkpt lat="50.05549" lon="2.12859">
        <ele>61.8</ele>
        <time>2024-03-27T15:26:23Z</time>
      </trkpt>
      <trkpt lat="50.0555" lon="2.1286">
        <ele>61.8</ele>
        <time>2024-03-27T15:26:24Z</time>
      </trkpt>
      <trkpt lat="50.05551" lon="2.12861">
        <ele>61.8</ele>
        <time>2024-03-27T15:26:25Z</time>
      </trkpt>
      <trkpt lat="50.05551" lon="2.12863">
        <ele>61.7</ele>
        <time>2024-03-27T15:26:26Z</time>
      </trkpt>
      <trkpt lat="50.05551" lon="2.12864">
        <ele>61.7</ele>
        <time>2024-03-27T15:26:27Z</time>
      </trkpt>
      <trkpt lat="50.05552" lon="2.12865">
        <ele>61.7</ele>
        <time>2024-03-27T15:26:28Z</time>
      </trkpt>
      <trkpt lat="50.05552" lon="2.12867">
        <ele>61.7</ele>
        <time>2024-03-27T15:26:29Z</time>
      </trkpt>
      <trkpt lat="50.05553" lon="2.12868">
        <ele>61.6</ele>
        <time>2024-03-27T15:26:30Z</time>
      </trkpt>
      <trkpt lat="50.05553" lon="2.1287">
        <ele>61.6</ele>
        <time>2024-03-27T15:26:31Z</time>
      </trkpt>
      <trkpt lat="50.05553" lon="2.1287">
        <ele>61.6</ele>
        <time>2024-03-27T15:26:32Z</time>
      </trkpt>
      <trkpt lat="50.05553" lon="2.12872">
        <ele>61.6</ele>
        <time>2024-03-27T15:26:33Z</time>
      </trkpt>
      <trkpt lat="50.05553" lon="2.12873">
        <ele>61.6</ele>
        <time>2024-03-27T15:26:34Z</time>
      </trkpt>
      <trkpt lat="50.05554" lon="2.12875">
        <ele>61.5</ele>
        <time>2024-03-27T15:26:35Z</time>
      </trkpt>
      <trkpt lat="50.05554" lon="2.12878">
        <ele>61.5</ele>
        <time>2024-03-27T15:26:36Z</time>
      </trkpt>
      <trkpt lat="50.05554" lon="2.12879">
        <ele>61.5</ele>
        <time>2024-03-27T15:26:37Z</time>
      </trkpt>
      <trkpt lat="50.05555" lon="2.1288">
        <ele>61.5</ele>
        <time>2024-03-27T15:26:38Z</time>
      </trkpt>
      <trkpt lat="50.05555" lon="2.12882">
        <ele>61.4</ele>
        <time>2024-03-27T15:26:39Z</time>
      </trkpt>
      <trkpt lat="50.05556" lon="2.12884">
        <ele>61.4</ele>
        <time>2024-03-27T15:26:40Z</time>
      </trkpt>
      <trkpt lat="50.05556" lon="2.12886">
        <ele>61.4</ele>
        <time>2024-03-27T15:26:41Z</time>
      </trkpt>
      <trkpt lat="50.05556" lon="2.12888">
        <ele>61.4</ele>
        <time>2024-03-27T15:26:42Z</time>
      </trkpt>
      <trkpt lat="50.05556" lon="2.1289">
        <ele>61.3</ele>
        <time>2024-03-27T15:26:43Z</time>
      </trkpt>
      <trkpt lat="50.05557" lon="2.12892">
        <ele>61.3</ele>
        <time>2024-03-27T15:26:44Z</time>
      </trkpt>
      <trkpt lat="50.05557" lon="2.12894">
        <ele>61.3</ele>
        <time>2024-03-27T15:26:45Z</time>
      </trkpt>
      <trkpt lat="50.05558" lon="2.12897">
        <ele>61.2</ele>
        <time>2024-03-27T15:26:46Z</time>
      </trkpt>
      <trkpt lat="50.05558" lon="2.12898">
        <ele>61.2</ele>
        <time>2024-03-27T15:26:47Z</time>
      </trkpt>
      <trkpt lat="50.05558" lon="2.129">
        <ele>61.2</ele>
        <time>2024-03-27T15:26:48Z</time>
      </trkpt>
      <trkpt lat="50.05559" lon="2.12902">
        <ele>61.1</ele>
        <time>2024-03-27T15:26:49Z</time>
      </trkpt>
      <trkpt lat="50.05559" lon="2.12903">
        <ele>61.1</ele>
        <time>2024-03-27T15:26:50Z</time>
      </trkpt>
      <trkpt lat="50.0556" lon="2.12905">
        <ele>61.1</ele>
        <time>2024-03-27T15:26:51Z</time>
      </trkpt>
      <trkpt lat="50.0556" lon="2.12906">
        <ele>61.1</ele>
        <time>2024-03-27T15:26:52Z</time>
      </trkpt>
      <trkpt lat="50.0556" lon="2.12908">
        <ele>61</ele>
        <time>2024-03-27T15:26:53Z</time>
      </trkpt>
      <trkpt lat="50.05561" lon="2.12909">
        <ele>61</ele>
        <time>2024-03-27T15:26:54Z</time>
      </trkpt>
      <trkpt lat="50.05561" lon="2.12912">
        <ele>61</ele>
        <time>2024-03-27T15:26:55Z</time>
      </trkpt>
      <trkpt lat="50.05562" lon="2.12914">
        <ele>60.9</ele>
        <time>2024-03-27T15:26:56Z</time>
      </trkpt>
      <trkpt lat="50.05562" lon="2.12915">
        <ele>60.9</ele>
        <time>2024-03-27T15:26:57Z</time>
      </trkpt>
      <trkpt lat="50.05562" lon="2.12916">
        <ele>60.9</ele>
        <time>2024-03-27T15:26:58Z</time>
      </trkpt>
      <trkpt lat="50.05562" lon="2.12917">
        <ele>60.9</ele>
        <time>2024-03-27T15:26:59Z</time>
      </trkpt>
      <trkpt lat="50.05563" lon="2.12918">
        <ele>60.8</ele>
        <time>2024-03-27T15:27:00Z</time>
      </trkpt>
      <trkpt lat="50.05563" lon="2.1292">
        <ele>60.8</ele>
        <time>2024-03-27T15:27:01Z</time>
      </trkpt>
      <trkpt lat="50.05563" lon="2.12921">
        <ele>60.8</ele>
        <time>2024-03-27T15:27:02Z</time>
      </trkpt>
      <trkpt lat="50.05564" lon="2.12923">
        <ele>60.7</ele>
        <time>2024-03-27T15:27:03Z</time>
      </trkpt>
      <trkpt lat="50.05564" lon="2.12924">
        <ele>60.7</ele>
        <time>2024-03-27T15:27:04Z</time>
      </trkpt>
      <trkpt lat="50.05564" lon="2.12926">
        <ele>60.7</ele>
        <time>2024-03-27T15:27:05Z</time>
      </trkpt>
      <trkpt lat="50.05565" lon="2.12927">
        <ele>60.6</ele>
        <time>2024-03-27T15:27:06Z</time>
      </trkpt>
      <trkpt lat="50.05566" lon="2.12929">
        <ele>60.6</ele>
        <time>2024-03-27T15:27:07Z</time>
      </trkpt>
      <trkpt lat="50.05566" lon="2.1293">
        <ele>60.5</ele>
        <time>2024-03-27T15:27:08Z</time>
      </trkpt>
      <trkpt lat="50.05567" lon="2.12932">
        <ele>60.5</ele>
        <time>2024-03-27T15:27:09Z</time>
      </trkpt>
      <trkpt lat="50.05567" lon="2.12934">
        <ele>60.5</ele>
        <time>2024-03-27T15:27:10Z</time>
      </trkpt>
      <trkpt lat="50.05567" lon="2.12935">
        <ele>60.4</ele>
        <time>2024-03-27T15:27:11Z</time>
      </trkpt>
      <trkpt lat="50.05568" lon="2.12937">
        <ele>60.4</ele>
        <time>2024-03-27T15:27:12Z</time>
      </trkpt>
      <trkpt lat="50.05568" lon="2.12938">
        <ele>60.3</ele>
        <time>2024-03-27T15:27:13Z</time>
      </trkpt>
      <trkpt lat="50.05569" lon="2.1294">
        <ele>60.3</ele>
        <time>2024-03-27T15:27:14Z</time>
      </trkpt>
      <trkpt lat="50.05569" lon="2.12941">
        <ele>60.3</ele>
        <time>2024-03-27T15:27:15Z</time>
      </trkpt>
      <trkpt lat="50.0557" lon="2.12943">
        <ele>60.2</ele>
        <time>2024-03-27T15:27:16Z</time>
      </trkpt>
      <trkpt lat="50.0557" lon="2.12945">
        <ele>60.2</ele>
        <time>2024-03-27T15:27:17Z</time>
      </trkpt>
      <trkpt lat="50.05571" lon="2.12946">
        <ele>60.1</ele>
        <time>2024-03-27T15:27:18Z</time>
      </trkpt>
      <trkpt lat="50.05571" lon="2.12949">
        <ele>60.1</ele>
        <time>2024-03-27T15:27:19Z</time>
      </trkpt>
      <trkpt lat="50.05572" lon="2.1295">
        <ele>60</ele>
        <time>2024-03-27T15:27:20Z</time>
      </trkpt>
      <trkpt lat="50.05572" lon="2.12951">
        <ele>60</ele>
        <time>2024-03-27T15:27:21Z</time>
      </trkpt>
      <trkpt lat="50.05573" lon="2.12954">
        <ele>59.9</ele>
        <time>2024-03-27T15:27:22Z</time>
      </trkpt>
      <trkpt lat="50.05573" lon="2.12955">
        <ele>59.9</ele>
        <time>2024-03-27T15:27:23Z</time>
      </trkpt>
      <trkpt lat="50.05574" lon="2.12957">
        <ele>59.9</ele>
        <time>2024-03-27T15:27:24Z</time>
      </trkpt>
      <trkpt lat="50.05574" lon="2.12958">
        <ele>59.8</ele>
        <time>2024-03-27T15:27:25Z</time>
      </trkpt>
      <trkpt lat="50.05575" lon="2.12959">
        <ele>59.8</ele>
        <time>2024-03-27T15:27:26Z</time>
      </trkpt>
      <trkpt lat="50.05575" lon="2.1296">
        <ele>59.8</ele>
        <time>2024-03-27T15:27:27Z</time>
      </trkpt>
      <trkpt lat="50.05575" lon="2.12962">
        <ele>59.7</ele>
        <time>2024-03-27T15:27:28Z</time>
      </trkpt>
      <trkpt lat="50.05576" lon="2.12964">
        <ele>59.7</ele>
        <time>2024-03-27T15:27:29Z</time>
      </trkpt>
      <trkpt lat="50.05576" lon="2.12967">
        <ele>59.6</ele>
        <time>2024-03-27T15:27:30Z</time>
      </trkpt>
      <trkpt lat="50.05577" lon="2.12968">
        <ele>59.6</ele>
        <time>2024-03-27T15:27:31Z</time>
      </trkpt>
      <trkpt lat="50.05577" lon="2.12969">
        <ele>59.5</ele>
        <time>2024-03-27T15:27:32Z</time>
      </trkpt>
      <trkpt lat="50.05577" lon="2.12971">
        <ele>59.5</ele>
        <time>2024-03-27T15:27:33Z</time>
      </trkpt>
      <trkpt lat="50.05578" lon="2.12974">
        <ele>59.4</ele>
        <time>2024-03-27T15:27:34Z</time>
      </trkpt>
      <trkpt lat="50.05578" lon="2.12976">
        <ele>59.4</ele>
        <time>2024-03-27T15:27:35Z</time>
      </trkpt>
      <trkpt lat="50.05579" lon="2.12977">
        <ele>59.4</ele>
        <time>2024-03-27T15:27:36Z</time>
      </trkpt>
      <trkpt lat="50.05579" lon="2.12978">
        <ele>59.3</ele>
        <time>2024-03-27T15:27:37Z</time>
      </trkpt>
      <trkpt lat="50.0558" lon="2.12979">
        <ele>59.3</ele>
        <time>2024-03-27T15:27:38Z</time>
      </trkpt>
      <trkpt lat="50.0558" lon="2.1298">
        <ele>59.3</ele>
        <time>2024-03-27T15:27:39Z</time>
      </trkpt>
      <trkpt lat="50.0558" lon="2.12981">
        <ele>59.2</ele>
        <time>2024-03-27T15:27:40Z</time>
      </trkpt>
      <trkpt lat="50.0558" lon="2.12983">
        <ele>59.2</ele>
        <time>2024-03-27T15:27:41Z</time>
      </trkpt>
      <trkpt lat="50.05581" lon="2.12985">
        <ele>59.2</ele>
        <time>2024-03-27T15:27:42Z</time>
      </trkpt>
      <trkpt lat="50.05581" lon="2.12986">
        <ele>59.1</ele>
        <time>2024-03-27T15:27:43Z</time>
      </trkpt>
      <trkpt lat="50.05581" lon="2.12987">
        <ele>59.1</ele>
        <time>2024-03-27T15:27:44Z</time>
      </trkpt>
      <trkpt lat="50.05582" lon="2.12989">
        <ele>59.1</ele>
        <time>2024-03-27T15:27:45Z</time>
      </trkpt>
      <trkpt lat="50.05582" lon="2.1299">
        <ele>59</ele>
        <time>2024-03-27T15:27:46Z</time>
      </trkpt>
      <trkpt lat="50.05583" lon="2.12991">
        <ele>59</ele>
        <time>2024-03-27T15:27:47Z</time>
      </trkpt>
      <trkpt lat="50.05583" lon="2.12993">
        <ele>58.9</ele>
        <time>2024-03-27T15:27:48Z</time>
      </trkpt>
      <trkpt lat="50.05584" lon="2.12994">
        <ele>58.9</ele>
        <time>2024-03-27T15:27:49Z</time>
      </trkpt>
      <trkpt lat="50.05585" lon="2.12995">
        <ele>58.9</ele>
        <time>2024-03-27T15:27:50Z</time>
      </trkpt>
      <trkpt lat="50.05585" lon="2.12996">
        <ele>58.8</ele>
        <time>2024-03-27T15:27:51Z</time>
      </trkpt>
      <trkpt lat="50.05586" lon="2.12998">
        <ele>58.8</ele>
        <time>2024-03-27T15:27:52Z</time>
      </trkpt>
      <trkpt lat="50.05586" lon="2.13">
        <ele>58.8</ele>
        <time>2024-03-27T15:27:53Z</time>
      </trkpt>
      <trkpt lat="50.05587" lon="2.13001">
        <ele>58.7</ele>
        <time>2024-03-27T15:27:54Z</time>
      </trkpt>
      <trkpt lat="50.05587" lon="2.13003">
        <ele>58.7</ele>
        <time>2024-03-27T15:27:55Z</time>
      </trkpt>
      <trkpt lat="50.05588" lon="2.13004">
        <ele>58.6</ele>
        <time>2024-03-27T15:27:56Z</time>
      </trkpt>
      <trkpt lat="50.05588" lon="2.13005">
        <ele>58.6</ele>
        <time>2024-03-27T15:27:57Z</time>
      </trkpt>
      <trkpt lat="50.05589" lon="2.13006">
        <ele>58.6</ele>
        <time>2024-03-27T15:27:58Z</time>
      </trkpt>
      <trkpt lat="50.05589" lon="2.13008">
        <ele>58.5</ele>
        <time>2024-03-27T15:27:59Z</time>
      </trkpt>
      <trkpt lat="50.0559" lon="2.13011">
        <ele>58.5</ele>
        <time>2024-03-27T15:28:00Z</time>
      </trkpt>
      <trkpt lat="50.05591" lon="2.13012">
        <ele>58.4</ele>
        <time>2024-03-27T15:28:01Z</time>
      </trkpt>
      <trkpt lat="50.05591" lon="2.13013">
        <ele>58.4</ele>
        <time>2024-03-27T15:28:02Z</time>
      </trkpt>
      <trkpt lat="50.05592" lon="2.13016">
        <ele>58.4</ele>
        <time>2024-03-27T15:28:03Z</time>
      </trkpt>
      <trkpt lat="50.05592" lon="2.13017">
        <ele>58.3</ele>
        <time>2024-03-27T15:28:04Z</time>
      </trkpt>
      <trkpt lat="50.05592" lon="2.13019">
        <ele>58.3</ele>
        <time>2024-03-27T15:28:05Z</time>
      </trkpt>
      <trkpt lat="50.05593" lon="2.13021">
        <ele>58.2</ele>
        <time>2024-03-27T15:28:06Z</time>
      </trkpt>
      <trkpt lat="50.05593" lon="2.13022">
        <ele>58.2</ele>
        <time>2024-03-27T15:28:07Z</time>
      </trkpt>
      <trkpt lat="50.05593" lon="2.13023">
        <ele>58.2</ele>
        <time>2024-03-27T15:28:08Z</time>
      </trkpt>
      <trkpt lat="50.05594" lon="2.13024">
        <ele>58.2</ele>
        <time>2024-03-27T15:28:09Z</time>
      </trkpt>
      <trkpt lat="50.05594" lon="2.13026">
        <ele>58.1</ele>
        <time>2024-03-27T15:28:10Z</time>
      </trkpt>
      <trkpt lat="50.05594" lon="2.13027">
        <ele>58.1</ele>
        <time>2024-03-27T15:28:11Z</time>
      </trkpt>
      <trkpt lat="50.05595" lon="2.13029">
        <ele>58.1</ele>
        <time>2024-03-27T15:28:12Z</time>
      </trkpt>
      <trkpt lat="50.05595" lon="2.13031">
        <ele>58</ele>
        <time>2024-03-27T15:28:13Z</time>
      </trkpt>
      <trkpt lat="50.05595" lon="2.13032">
        <ele>58</ele>
        <time>2024-03-27T15:28:14Z</time>
      </trkpt>
      <trkpt lat="50.05596" lon="2.13034">
        <ele>58</ele>
        <time>2024-03-27T15:28:15Z</time>
      </trkpt>
      <trkpt lat="50.05596" lon="2.13036">
        <ele>57.9</ele>
        <time>2024-03-27T15:28:16Z</time>
      </trkpt>
      <trkpt lat="50.05597" lon="2.13037">
        <ele>57.9</ele>
        <time>2024-03-27T15:28:17Z</time>
      </trkpt>
      <trkpt lat="50.05597" lon="2.13038">
        <ele>57.9</ele>
        <time>2024-03-27T15:28:18Z</time>
      </trkpt>
      <trkpt lat="50.05597" lon="2.13039">
        <ele>57.9</ele>
        <time>2024-03-27T15:28:19Z</time>
      </trkpt>
      <trkpt lat="50.05598" lon="2.1304">
        <ele>57.8</ele>
        <time>2024-03-27T15:28:20Z</time>
      </trkpt>
      <trkpt lat="50.05598" lon="2.13042">
        <ele>57.8</ele>
        <time>2024-03-27T15:28:21Z</time>
      </trkpt>
      <trkpt lat="50.05599" lon="2.13044">
        <ele>57.8</ele>
        <time>2024-03-27T15:28:22Z</time>
      </trkpt>
      <trkpt lat="50.05599" lon="2.13045">
        <ele>57.7</ele>
        <time>2024-03-27T15:28:23Z</time>
      </trkpt>
      <trkpt lat="50.056" lon="2.13047">
        <ele>57.7</ele>
        <time>2024-03-27T15:28:24Z</time>
      </trkpt>
      <trkpt lat="50.056" lon="2.13048">
        <ele>57.6</ele>
        <time>2024-03-27T15:28:25Z</time>
      </trkpt>
      <trkpt lat="50.05601" lon="2.1305">
        <ele>57.6</ele>
        <time>2024-03-27T15:28:26Z</time>
      </trkpt>
      <trkpt lat="50.05601" lon="2.13052">
        <ele>57.6</ele>
        <time>2024-03-27T15:28:27Z</time>
      </trkpt>
      <trkpt lat="50.05602" lon="2.13053">
        <ele>57.5</ele>
        <time>2024-03-27T15:28:28Z</time>
      </trkpt>
      <trkpt lat="50.05602" lon="2.13055">
        <ele>57.5</ele>
        <time>2024-03-27T15:28:29Z</time>
      </trkpt>
      <trkpt lat="50.05603" lon="2.13056">
        <ele>57.5</ele>
        <time>2024-03-27T15:28:30Z</time>
      </trkpt>
      <trkpt lat="50.05603" lon="2.13057">
        <ele>57.4</ele>
        <time>2024-03-27T15:28:31Z</time>
      </trkpt>
      <trkpt lat="50.05603" lon="2.13059">
        <ele>57.4</ele>
        <time>2024-03-27T15:28:32Z</time>
      </trkpt>
      <trkpt lat="50.05604" lon="2.13061">
        <ele>57.4</ele>
        <time>2024-03-27T15:28:33Z</time>
      </trkpt>
      <trkpt lat="50.05604" lon="2.13062">
        <ele>57.3</ele>
        <time>2024-03-27T15:28:34Z</time>
      </trkpt>
      <trkpt lat="50.05605" lon="2.13064">
        <ele>57.3</ele>
        <time>2024-03-27T15:28:35Z</time>
      </trkpt>
      <trkpt lat="50.05605" lon="2.13066">
        <ele>57.3</ele>
        <time>2024-03-27T15:28:36Z</time>
      </trkpt>
      <trkpt lat="50.05605" lon="2.13067">
        <ele>57.2</ele>
        <time>2024-03-27T15:28:37Z</time>
      </trkpt>
      <trkpt lat="50.05606" lon="2.13069">
        <ele>57.2</ele>
        <time>2024-03-27T15:28:38Z</time>
      </trkpt>
      <trkpt lat="50.05606" lon="2.13071">
        <ele>57.2</ele>
        <time>2024-03-27T15:28:39Z</time>
      </trkpt>
      <trkpt lat="50.05606" lon="2.13072">
        <ele>57.1</ele>
        <time>2024-03-27T15:28:40Z</time>
      </trkpt>
      <trkpt lat="50.05607" lon="2.13074">
        <ele>57.1</ele>
        <time>2024-03-27T15:28:41Z</time>
      </trkpt>
      <trkpt lat="50.05607" lon="2.13075">
        <ele>57.1</ele>
        <time>2024-03-27T15:28:42Z</time>
      </trkpt>
      <trkpt lat="50.05608" lon="2.13078">
        <ele>57</ele>
        <time>2024-03-27T15:28:43Z</time>
      </trkpt>
      <trkpt lat="50.05608" lon="2.13079">
        <ele>57</ele>
        <time>2024-03-27T15:28:44Z</time>
      </trkpt>
      <trkpt lat="50.05609" lon="2.13081">
        <ele>56.9</ele>
        <time>2024-03-27T15:28:45Z</time>
      </trkpt>
      <trkpt lat="50.05609" lon="2.13084">
        <ele>56.9</ele>
        <time>2024-03-27T15:28:46Z</time>
      </trkpt>
      <trkpt lat="50.0561" lon="2.13085">
        <ele>56.9</ele>
        <time>2024-03-27T15:28:47Z</time>
      </trkpt>
      <trkpt lat="50.0561" lon="2.13086">
        <ele>56.8</ele>
        <time>2024-03-27T15:28:48Z</time>
      </trkpt>
      <trkpt lat="50.0561" lon="2.13088">
        <ele>56.8</ele>
        <time>2024-03-27T15:28:49Z</time>
      </trkpt>
      <trkpt lat="50.05611" lon="2.13089">
        <ele>56.8</ele>
        <time>2024-03-27T15:28:50Z</time>
      </trkpt>
      <trkpt lat="50.05611" lon="2.13091">
        <ele>56.7</ele>
        <time>2024-03-27T15:28:51Z</time>
      </trkpt>
      <trkpt lat="50.05612" lon="2.13092">
        <ele>56.7</ele>
        <time>2024-03-27T15:28:52Z</time>
      </trkpt>
      <trkpt lat="50.05612" lon="2.13093">
        <ele>56.7</ele>
        <time>2024-03-27T15:28:53Z</time>
      </trkpt>
      <trkpt lat="50.05613" lon="2.13095">
        <ele>56.6</ele>
        <time>2024-03-27T15:28:54Z</time>
      </trkpt>
      <trkpt lat="50.05613" lon="2.13096">
        <ele>56.6</ele>
        <time>2024-03-27T15:28:55Z</time>
      </trkpt>
      <trkpt lat="50.05614" lon="2.13098">
        <ele>56.6</ele>
        <time>2024-03-27T15:28:56Z</time>
      </trkpt>
      <trkpt lat="50.05614" lon="2.13099">
        <ele>56.5</ele>
        <time>2024-03-27T15:28:57Z</time>
      </trkpt>
      <trkpt lat="50.05615" lon="2.13101">
        <ele>56.5</ele>
        <time>2024-03-27T15:28:58Z</time>
      </trkpt>
      <trkpt lat="50.05615" lon="2.13102">
        <ele>56.4</ele>
        <time>2024-03-27T15:28:59Z</time>
      </trkpt>
      <trkpt lat="50.05616" lon="2.13104">
        <ele>56.4</ele>
        <time>2024-03-27T15:29:00Z</time>
      </trkpt>
      <trkpt lat="50.05616" lon="2.13105">
        <ele>56.4</ele>
        <time>2024-03-27T15:29:01Z</time>
      </trkpt>
      <trkpt lat="50.05616" lon="2.13107">
        <ele>56.3</ele>
        <time>2024-03-27T15:29:02Z</time>
      </trkpt>
      <trkpt lat="50.05617" lon="2.13109">
        <ele>56.3</ele>
        <time>2024-03-27T15:29:03Z</time>
      </trkpt>
      <trkpt lat="50.05617" lon="2.1311">
        <ele>56.3</ele>
        <time>2024-03-27T15:29:04Z</time>
      </trkpt>
      <trkpt lat="50.05618" lon="2.13112">
        <ele>56.2</ele>
        <time>2024-03-27T15:29:05Z</time>
      </trkpt>
      <trkpt lat="50.05618" lon="2.13114">
        <ele>56.2</ele>
        <time>2024-03-27T15:29:06Z</time>
      </trkpt>
      <trkpt lat="50.05618" lon="2.13117">
        <ele>56.1</ele>
        <time>2024-03-27T15:29:07Z</time>
      </trkpt>
      <trkpt lat="50.05618" lon="2.13118">
        <ele>56.1</ele>
        <time>2024-03-27T15:29:08Z</time>
      </trkpt>
      <trkpt lat="50.05619" lon="2.1312">
        <ele>56.1</ele>
        <time>2024-03-27T15:29:09Z</time>
      </trkpt>
      <trkpt lat="50.05619" lon="2.13121">
        <ele>56</ele>
        <time>2024-03-27T15:29:10Z</time>
      </trkpt>
      <trkpt lat="50.05619" lon="2.13123">
        <ele>56</ele>
        <time>2024-03-27T15:29:11Z</time>
      </trkpt>
      <trkpt lat="50.05619" lon="2.13125">
        <ele>56</ele>
        <time>2024-03-27T15:29:12Z</time>
      </trkpt>
      <trkpt lat="50.05619" lon="2.13126">
        <ele>55.9</ele>
        <time>2024-03-27T15:29:13Z</time>
      </trkpt>
      <trkpt lat="50.05619" lon="2.13128">
        <ele>55.9</ele>
        <time>2024-03-27T15:29:14Z</time>
      </trkpt>
      <trkpt lat="50.0562" lon="2.1313">
        <ele>55.9</ele>
        <time>2024-03-27T15:29:15Z</time>
      </trkpt>
      <trkpt lat="50.0562" lon="2.13132">
        <ele>55.8</ele>
        <time>2024-03-27T15:29:16Z</time>
      </trkpt>
      <trkpt lat="50.0562" lon="2.13134">
        <ele>55.8</ele>
        <time>2024-03-27T15:29:17Z</time>
      </trkpt>
      <trkpt lat="50.0562" lon="2.13135">
        <ele>55.7</ele>
        <time>2024-03-27T15:29:18Z</time>
      </trkpt>
      <trkpt lat="50.05621" lon="2.13139">
        <ele>55.7</ele>
        <time>2024-03-27T15:29:19Z</time>
      </trkpt>
      <trkpt lat="50.05621" lon="2.1314">
        <ele>55.7</ele>
        <time>2024-03-27T15:29:20Z</time>
      </trkpt>
      <trkpt lat="50.05621" lon="2.13141">
        <ele>55.6</ele>
        <time>2024-03-27T15:29:21Z</time>
      </trkpt>
      <trkpt lat="50.05621" lon="2.13143">
        <ele>55.6</ele>
        <time>2024-03-27T15:29:22Z</time>
      </trkpt>
      <trkpt lat="50.05621" lon="2.13144">
        <ele>55.6</ele>
        <time>2024-03-27T15:29:23Z</time>
      </trkpt>
      <trkpt lat="50.05621" lon="2.13146">
        <ele>55.5</ele>
        <time>2024-03-27T15:29:24Z</time>
      </trkpt>
      <trkpt lat="50.05622" lon="2.13148">
        <ele>55.5</ele>
        <time>2024-03-27T15:29:25Z</time>
      </trkpt>
      <trkpt lat="50.05622" lon="2.13149">
        <ele>55.5</ele>
        <time>2024-03-27T15:29:26Z</time>
      </trkpt>
      <trkpt lat="50.05622" lon="2.13151">
        <ele>55.4</ele>
        <time>2024-03-27T15:29:27Z</time>
      </trkpt>
      <trkpt lat="50.05622" lon="2.13153">
        <ele>55.4</ele>
        <time>2024-03-27T15:29:28Z</time>
      </trkpt>
      <trkpt lat="50.05622" lon="2.13154">
        <ele>55.4</ele>
        <time>2024-03-27T15:29:29Z</time>
      </trkpt>
      <trkpt lat="50.05623" lon="2.13156">
        <ele>55.3</ele>
        <time>2024-03-27T15:29:30Z</time>
      </trkpt>
      <trkpt lat="50.05623" lon="2.13158">
        <ele>55.3</ele>
        <time>2024-03-27T15:29:31Z</time>
      </trkpt>
      <trkpt lat="50.05623" lon="2.1316">
        <ele>55.3</ele>
        <time>2024-03-27T15:29:32Z</time>
      </trkpt>
      <trkpt lat="50.05623" lon="2.13161">
        <ele>55.2</ele>
        <time>2024-03-27T15:29:33Z</time>
      </trkpt>
      <trkpt lat="50.05623" lon="2.13163">
        <ele>55.2</ele>
        <time>2024-03-27T15:29:34Z</time>
      </trkpt>
      <trkpt lat="50.05623" lon="2.13165">
        <ele>55.2</ele>
        <time>2024-03-27T15:29:35Z</time>
      </trkpt>
      <trkpt lat="50.05623" lon="2.13166">
        <ele>55.2</ele>
        <time>2024-03-27T15:29:36Z</time>
      </trkpt>
      <trkpt lat="50.05623" lon="2.13168">
        <ele>55.1</ele>
        <time>2024-03-27T15:29:37Z</time>
      </trkpt>
      <trkpt lat="50.05623" lon="2.13169">
        <ele>55.1</ele>
        <time>2024-03-27T15:29:38Z</time>
      </trkpt>
      <trkpt lat="50.05623" lon="2.13171">
        <ele>55.1</ele>
        <time>2024-03-27T15:29:39Z</time>
      </trkpt>
      <trkpt lat="50.05623" lon="2.13173">
        <ele>55.1</ele>
        <time>2024-03-27T15:29:40Z</time>
      </trkpt>
      <trkpt lat="50.05624" lon="2.13174">
        <ele>55</ele>
        <time>2024-03-27T15:29:41Z</time>
      </trkpt>
      <trkpt lat="50.05624" lon="2.13176">
        <ele>55</ele>
        <time>2024-03-27T15:29:42Z</time>
      </trkpt>
      <trkpt lat="50.05624" lon="2.13179">
        <ele>55</ele>
        <time>2024-03-27T15:29:43Z</time>
      </trkpt>
      <trkpt lat="50.05624" lon="2.1318">
        <ele>54.9</ele>
        <time>2024-03-27T15:29:44Z</time>
      </trkpt>
      <trkpt lat="50.05625" lon="2.13181">
        <ele>54.9</ele>
        <time>2024-03-27T15:29:45Z</time>
      </trkpt>
      <trkpt lat="50.05625" lon="2.13183">
        <ele>54.9</ele>
        <time>2024-03-27T15:29:46Z</time>
      </trkpt>
      <trkpt lat="50.05625" lon="2.13185">
        <ele>54.9</ele>
        <time>2024-03-27T15:29:47Z</time>
      </trkpt>
      <trkpt lat="50.05625" lon="2.13187">
        <ele>54.9</ele>
        <time>2024-03-27T15:29:48Z</time>
      </trkpt>
      <trkpt lat="50.05626" lon="2.13188">
        <ele>54.8</ele>
        <time>2024-03-27T15:29:49Z</time>
      </trkpt>
      <trkpt lat="50.05626" lon="2.1319">
        <ele>54.8</ele>
        <time>2024-03-27T15:29:50Z</time>
      </trkpt>
      <trkpt lat="50.05626" lon="2.13191">
        <ele>54.8</ele>
        <time>2024-03-27T15:29:51Z</time>
      </trkpt>
      <trkpt lat="50.05626" lon="2.13193">
        <ele>54.8</ele>
        <time>2024-03-27T15:29:52Z</time>
      </trkpt>
      <trkpt lat="50.05626" lon="2.13194">
        <ele>54.8</ele>
        <time>2024-03-27T15:29:53Z</time>
      </trkpt>
      <trkpt lat="50.05627" lon="2.13196">
        <ele>54.7</ele>
        <time>2024-03-27T15:29:54Z</time>
      </trkpt>
      <trkpt lat="50.05627" lon="2.13198">
        <ele>54.7</ele>
        <time>2024-03-27T15:29:55Z</time>
      </trkpt>
      <trkpt lat="50.05627" lon="2.132">
        <ele>54.7</ele>
        <time>2024-03-27T15:29:56Z</time>
      </trkpt>
      <trkpt lat="50.05628" lon="2.13201">
        <ele>54.7</ele>
        <time>2024-03-27T15:29:57Z</time>
      </trkpt>
      <trkpt lat="50.05628" lon="2.13203">
        <ele>54.6</ele>
        <time>2024-03-27T15:29:58Z</time>
      </trkpt>
      <trkpt lat="50.05628" lon="2.13205">
        <ele>54.6</ele>
        <time>2024-03-27T15:29:59Z</time>
      </trkpt>
      <trkpt lat="50.05628" lon="2.13207">
        <ele>54.6</ele>
        <time>2024-03-27T15:30:00Z</time>
      </trkpt>
      <trkpt lat="50.05628" lon="2.13208">
        <ele>54.6</ele>
        <time>2024-03-27T15:30:01Z</time>
      </trkpt>
      <trkpt lat="50.05628" lon="2.1321">
        <ele>54.5</ele>
        <time>2024-03-27T15:30:02Z</time>
      </trkpt>
      <trkpt lat="50.05628" lon="2.13212">
        <ele>54.5</ele>
        <time>2024-03-27T15:30:03Z</time>
      </trkpt>
      <trkpt lat="50.05628" lon="2.13213">
        <ele>54.5</ele>
        <time>2024-03-27T15:30:04Z</time>
      </trkpt>
      <trkpt lat="50.05628" lon="2.13215">
        <ele>54.5</ele>
        <time>2024-03-27T15:30:05Z</time>
      </trkpt>
      <trkpt lat="50.05628" lon="2.13217">
        <ele>54.5</ele>
        <time>2024-03-27T15:30:06Z</time>
      </trkpt>
      <trkpt lat="50.05628" lon="2.13218">
        <ele>54.4</ele>
        <time>2024-03-27T15:30:07Z</time>
      </trkpt>
      <trkpt lat="50.05628" lon="2.1322">
        <ele>54.4</ele>
        <time>2024-03-27T15:30:08Z</time>
      </trkpt>
      <trkpt lat="50.05629" lon="2.13222">
        <ele>54.4</ele>
        <time>2024-03-27T15:30:09Z</time>
      </trkpt>
      <trkpt lat="50.05629" lon="2.13224">
        <ele>54.4</ele>
        <time>2024-03-27T15:30:10Z</time>
      </trkpt>
      <trkpt lat="50.05629" lon="2.13225">
        <ele>54.3</ele>
        <time>2024-03-27T15:30:11Z</time>
      </trkpt>
      <trkpt lat="50.05629" lon="2.13227">
        <ele>54.3</ele>
        <time>2024-03-27T15:30:12Z</time>
      </trkpt>
      <trkpt lat="50.05629" lon="2.13229">
        <ele>54.3</ele>
        <time>2024-03-27T15:30:13Z</time>
      </trkpt>
      <trkpt lat="50.05629" lon="2.1323">
        <ele>54.3</ele>
        <time>2024-03-27T15:30:14Z</time>
      </trkpt>
      <trkpt lat="50.05629" lon="2.13232">
        <ele>54.2</ele>
        <time>2024-03-27T15:30:15Z</time>
      </trkpt>
      <trkpt lat="50.05629" lon="2.13234">
        <ele>54.2</ele>
        <time>2024-03-27T15:30:16Z</time>
      </trkpt>
      <trkpt lat="50.05629" lon="2.13236">
        <ele>54.2</ele>
        <time>2024-03-27T15:30:17Z</time>
      </trkpt>
      <trkpt lat="50.05629" lon="2.13237">
        <ele>54.2</ele>
        <time>2024-03-27T15:30:18Z</time>
      </trkpt>
      <trkpt lat="50.0563" lon="2.1324">
        <ele>54.1</ele>
        <time>2024-03-27T15:30:19Z</time>
      </trkpt>
      <trkpt lat="50.0563" lon="2.13242">
        <ele>54.1</ele>
        <time>2024-03-27T15:30:20Z</time>
      </trkpt>
      <trkpt lat="50.0563" lon="2.13243">
        <ele>54.1</ele>
        <time>2024-03-27T15:30:21Z</time>
      </trkpt>
      <trkpt lat="50.0563" lon="2.13246">
        <ele>54</ele>
        <time>2024-03-27T15:30:22Z</time>
      </trkpt>
      <trkpt lat="50.0563" lon="2.13247">
        <ele>54</ele>
        <time>2024-03-27T15:30:23Z</time>
      </trkpt>
      <trkpt lat="50.05631" lon="2.13248">
        <ele>54</ele>
        <time>2024-03-27T15:30:24Z</time>
      </trkpt>
      <trkpt lat="50.05631" lon="2.1325">
        <ele>54</ele>
        <time>2024-03-27T15:30:25Z</time>
      </trkpt>
      <trkpt lat="50.05631" lon="2.13252">
        <ele>54</ele>
        <time>2024-03-27T15:30:26Z</time>
      </trkpt>
      <trkpt lat="50.05632" lon="2.13253">
        <ele>53.9</ele>
        <time>2024-03-27T15:30:27Z</time>
      </trkpt>
      <trkpt lat="50.05632" lon="2.13255">
        <ele>53.9</ele>
        <time>2024-03-27T15:30:28Z</time>
      </trkpt>
      <trkpt lat="50.05632" lon="2.13257">
        <ele>53.9</ele>
        <time>2024-03-27T15:30:29Z</time>
      </trkpt>
      <trkpt lat="50.05632" lon="2.13258">
        <ele>53.9</ele>
        <time>2024-03-27T15:30:30Z</time>
      </trkpt>
      <trkpt lat="50.05632" lon="2.1326">
        <ele>53.8</ele>
        <time>2024-03-27T15:30:31Z</time>
      </trkpt>
      <trkpt lat="50.05632" lon="2.13262">
        <ele>53.8</ele>
        <time>2024-03-27T15:30:32Z</time>
      </trkpt>
      <trkpt lat="50.05632" lon="2.13263">
        <ele>53.8</ele>
        <time>2024-03-27T15:30:33Z</time>
      </trkpt>
      <trkpt lat="50.05632" lon="2.13265">
        <ele>53.7</ele>
        <time>2024-03-27T15:30:34Z</time>
      </trkpt>
      <trkpt lat="50.05633" lon="2.13267">
        <ele>53.7</ele>
        <time>2024-03-27T15:30:35Z</time>
      </trkpt>
      <trkpt lat="50.05633" lon="2.13268">
        <ele>53.7</ele>
        <time>2024-03-27T15:30:36Z</time>
      </trkpt>
      <trkpt lat="50.05633" lon="2.1327">
        <ele>53.7</ele>
        <time>2024-03-27T15:30:37Z</time>
      </trkpt>
      <trkpt lat="50.05633" lon="2.13271">
        <ele>53.6</ele>
        <time>2024-03-27T15:30:38Z</time>
      </trkpt>
      <trkpt lat="50.05633" lon="2.13273">
        <ele>53.6</ele>
        <time>2024-03-27T15:30:39Z</time>
      </trkpt>
      <trkpt lat="50.05633" lon="2.13275">
        <ele>53.6</ele>
        <time>2024-03-27T15:30:40Z</time>
      </trkpt>
      <trkpt lat="50.05633" lon="2.13277">
        <ele>53.5</ele>
        <time>2024-03-27T15:30:41Z</time>
      </trkpt>
      <trkpt lat="50.05633" lon="2.13278">
        <ele>53.5</ele>
        <time>2024-03-27T15:30:42Z</time>
      </trkpt>
      <trkpt lat="50.05633" lon="2.1328">
        <ele>53.5</ele>
        <time>2024-03-27T15:30:43Z</time>
      </trkpt>
      <trkpt lat="50.05633" lon="2.13282">
        <ele>53.4</ele>
        <time>2024-03-27T15:30:44Z</time>
      </trkpt>
      <trkpt lat="50.05633" lon="2.13283">
        <ele>53.4</ele>
        <time>2024-03-27T15:30:45Z</time>
      </trkpt>
      <trkpt lat="50.05633" lon="2.13285">
        <ele>53.3</ele>
        <time>2024-03-27T15:30:46Z</time>
      </trkpt>
      <trkpt lat="50.05633" lon="2.13286">
        <ele>53.3</ele>
        <time>2024-03-27T15:30:47Z</time>
      </trkpt>
      <trkpt lat="50.05633" lon="2.13288">
        <ele>53.3</ele>
        <time>2024-03-27T15:30:48Z</time>
      </trkpt>
      <trkpt lat="50.05633" lon="2.1329">
        <ele>53.2</ele>
        <time>2024-03-27T15:30:49Z</time>
      </trkpt>
      <trkpt lat="50.05633" lon="2.13291">
        <ele>53.2</ele>
        <time>2024-03-27T15:30:50Z</time>
      </trkpt>
      <trkpt lat="50.05633" lon="2.13293">
        <ele>53.1</ele>
        <time>2024-03-27T15:30:51Z</time>
      </trkpt>
      <trkpt lat="50.05632" lon="2.13295">
        <ele>53.1</ele>
        <time>2024-03-27T15:30:52Z</time>
      </trkpt>
      <trkpt lat="50.05632" lon="2.13297">
        <ele>53</ele>
        <time>2024-03-27T15:30:53Z</time>
      </trkpt>
      <trkpt lat="50.05632" lon="2.13298">
        <ele>52.9</ele>
        <time>2024-03-27T15:30:54Z</time>
      </trkpt>
      <trkpt lat="50.05632" lon="2.133">
        <ele>52.9</ele>
        <time>2024-03-27T15:30:55Z</time>
      </trkpt>
      <trkpt lat="50.05632" lon="2.13301">
        <ele>52.8</ele>
        <time>2024-03-27T15:30:56Z</time>
      </trkpt>
      <trkpt lat="50.05632" lon="2.13303">
        <ele>52.8</ele>
        <time>2024-03-27T15:30:57Z</time>
      </trkpt>
      <trkpt lat="50.05632" lon="2.13304">
        <ele>52.7</ele>
        <time>2024-03-27T15:30:58Z</time>
      </trkpt>
      <trkpt lat="50.05631" lon="2.13306">
        <ele>52.7</ele>
        <time>2024-03-27T15:30:59Z</time>
      </trkpt>
      <trkpt lat="50.05631" lon="2.13307">
        <ele>52.6</ele>
        <time>2024-03-27T15:31:00Z</time>
      </trkpt>
      <trkpt lat="50.05631" lon="2.13308">
        <ele>52.6</ele>
        <time>2024-03-27T15:31:01Z</time>
      </trkpt>
      <trkpt lat="50.05631" lon="2.1331">
        <ele>52.5</ele>
        <time>2024-03-27T15:31:02Z</time>
      </trkpt>
      <trkpt lat="50.05631" lon="2.13311">
        <ele>52.4</ele>
        <time>2024-03-27T15:31:03Z</time>
      </trkpt>
      <trkpt lat="50.05631" lon="2.13313">
        <ele>52.4</ele>
        <time>2024-03-27T15:31:04Z</time>
      </trkpt>
      <trkpt lat="50.0563" lon="2.13314">
        <ele>52.3</ele>
        <time>2024-03-27T15:31:05Z</time>
      </trkpt>
      <trkpt lat="50.0563" lon="2.13315">
        <ele>52.2</ele>
        <time>2024-03-27T15:31:06Z</time>
      </trkpt>
      <trkpt lat="50.05631" lon="2.13317">
        <ele>52.2</ele>
        <time>2024-03-27T15:31:07Z</time>
      </trkpt>
      <trkpt lat="50.05631" lon="2.13319">
        <ele>52.1</ele>
        <time>2024-03-27T15:31:08Z</time>
      </trkpt>
      <trkpt lat="50.0563" lon="2.1332">
        <ele>52</ele>
        <time>2024-03-27T15:31:09Z</time>
      </trkpt>
      <trkpt lat="50.0563" lon="2.13321">
        <ele>52</ele>
        <time>2024-03-27T15:31:10Z</time>
      </trkpt>
      <trkpt lat="50.0563" lon="2.13323">
        <ele>51.9</ele>
        <time>2024-03-27T15:31:11Z</time>
      </trkpt>
      <trkpt lat="50.0563" lon="2.13324">
        <ele>51.8</ele>
        <time>2024-03-27T15:31:12Z</time>
      </trkpt>
      <trkpt lat="50.0563" lon="2.13326">
        <ele>51.8</ele>
        <time>2024-03-27T15:31:13Z</time>
      </trkpt>
      <trkpt lat="50.0563" lon="2.13328">
        <ele>51.7</ele>
        <time>2024-03-27T15:31:14Z</time>
      </trkpt>
      <trkpt lat="50.0563" lon="2.13329">
        <ele>51.6</ele>
        <time>2024-03-27T15:31:15Z</time>
      </trkpt>
      <trkpt lat="50.0563" lon="2.13331">
        <ele>51.5</ele>
        <time>2024-03-27T15:31:16Z</time>
      </trkpt>
      <trkpt lat="50.0563" lon="2.13333">
        <ele>51.4</ele>
        <time>2024-03-27T15:31:17Z</time>
      </trkpt>
      <trkpt lat="50.05629" lon="2.13334">
        <ele>51.4</ele>
        <time>2024-03-27T15:31:18Z</time>
      </trkpt>
      <trkpt lat="50.05629" lon="2.13336">
        <ele>51.3</ele>
        <time>2024-03-27T15:31:19Z</time>
      </trkpt>
      <trkpt lat="50.05628" lon="2.13338">
        <ele>51.1</ele>
        <time>2024-03-27T15:31:20Z</time>
      </trkpt>
      <trkpt lat="50.05627" lon="2.13339">
        <ele>51.1</ele>
        <time>2024-03-27T15:31:21Z</time>
      </trkpt>
      <trkpt lat="50.05627" lon="2.13341">
        <ele>51</ele>
        <time>2024-03-27T15:31:22Z</time>
      </trkpt>
      <trkpt lat="50.05626" lon="2.13344">
        <ele>50.8</ele>
        <time>2024-03-27T15:31:23Z</time>
      </trkpt>
      <trkpt lat="50.05626" lon="2.13345">
        <ele>50.8</ele>
        <time>2024-03-27T15:31:24Z</time>
      </trkpt>
      <trkpt lat="50.05626" lon="2.13346">
        <ele>50.7</ele>
        <time>2024-03-27T15:31:25Z</time>
      </trkpt>
      <trkpt lat="50.05625" lon="2.13348">
        <ele>50.6</ele>
        <time>2024-03-27T15:31:26Z</time>
      </trkpt>
      <trkpt lat="50.05625" lon="2.1335">
        <ele>50.5</ele>
        <time>2024-03-27T15:31:27Z</time>
      </trkpt>
      <trkpt lat="50.05625" lon="2.13351">
        <ele>50.4</ele>
        <time>2024-03-27T15:31:28Z</time>
      </trkpt>
      <trkpt lat="50.05624" lon="2.13354">
        <ele>50.3</ele>
        <time>2024-03-27T15:31:29Z</time>
      </trkpt>
      <trkpt lat="50.05624" lon="2.13355">
        <ele>50.2</ele>
        <time>2024-03-27T15:31:30Z</time>
      </trkpt>
      <trkpt lat="50.05624" lon="2.13356">
        <ele>50.1</ele>
        <time>2024-03-27T15:31:31Z</time>
      </trkpt>
      <trkpt lat="50.05623" lon="2.13359">
        <ele>50</ele>
        <time>2024-03-27T15:31:32Z</time>
      </trkpt>
      <trkpt lat="50.05622" lon="2.13361">
        <ele>49.9</ele>
        <time>2024-03-27T15:31:33Z</time>
      </trkpt>
      <trkpt lat="50.05622" lon="2.13362">
        <ele>49.8</ele>
        <time>2024-03-27T15:31:34Z</time>
      </trkpt>
      <trkpt lat="50.05622" lon="2.13363">
        <ele>49.8</ele>
        <time>2024-03-27T15:31:35Z</time>
      </trkpt>
      <trkpt lat="50.05622" lon="2.13364">
        <ele>49.7</ele>
        <time>2024-03-27T15:31:36Z</time>
      </trkpt>
      <trkpt lat="50.05621" lon="2.13366">
        <ele>49.6</ele>
        <time>2024-03-27T15:31:37Z</time>
      </trkpt>
      <trkpt lat="50.05621" lon="2.13368">
        <ele>49.5</ele>
        <time>2024-03-27T15:31:38Z</time>
      </trkpt>
      <trkpt lat="50.05621" lon="2.1337">
        <ele>49.4</ele>
        <time>2024-03-27T15:31:39Z</time>
      </trkpt>
      <trkpt lat="50.0562" lon="2.13371">
        <ele>49.3</ele>
        <time>2024-03-27T15:31:40Z</time>
      </trkpt>
      <trkpt lat="50.05619" lon="2.13374">
        <ele>49.2</ele>
        <time>2024-03-27T15:31:41Z</time>
      </trkpt>
      <trkpt lat="50.05619" lon="2.13376">
        <ele>49.1</ele>
        <time>2024-03-27T15:31:42Z</time>
      </trkpt>
      <trkpt lat="50.05619" lon="2.13377">
        <ele>49</ele>
        <time>2024-03-27T15:31:43Z</time>
      </trkpt>
      <trkpt lat="50.05618" lon="2.1338">
        <ele>48.9</ele>
        <time>2024-03-27T15:31:44Z</time>
      </trkpt>
      <trkpt lat="50.05618" lon="2.13381">
        <ele>48.8</ele>
        <time>2024-03-27T15:31:45Z</time>
      </trkpt>
      <trkpt lat="50.05619" lon="2.13382">
        <ele>48.8</ele>
        <time>2024-03-27T15:31:46Z</time>
      </trkpt>
      <trkpt lat="50.05618" lon="2.13383">
        <ele>48.7</ele>
        <time>2024-03-27T15:31:47Z</time>
      </trkpt>
      <trkpt lat="50.05618" lon="2.13384">
        <ele>48.6</ele>
        <time>2024-03-27T15:31:48Z</time>
      </trkpt>
      <trkpt lat="50.05617" lon="2.13386">
        <ele>48.6</ele>
        <time>2024-03-27T15:31:49Z</time>
      </trkpt>
      <trkpt lat="50.05617" lon="2.13387">
        <ele>48.5</ele>
        <time>2024-03-27T15:31:50Z</time>
      </trkpt>
      <trkpt lat="50.05616" lon="2.13389">
        <ele>48.4</ele>
        <time>2024-03-27T15:31:51Z</time>
      </trkpt>
      <trkpt lat="50.05616" lon="2.1339">
        <ele>48.3</ele>
        <time>2024-03-27T15:31:52Z</time>
      </trkpt>
      <trkpt lat="50.05615" lon="2.13392">
        <ele>48.3</ele>
        <time>2024-03-27T15:31:53Z</time>
      </trkpt>
      <trkpt lat="50.05615" lon="2.13393">
        <ele>48.2</ele>
        <time>2024-03-27T15:31:54Z</time>
      </trkpt>
      <trkpt lat="50.05615" lon="2.13395">
        <ele>48.1</ele>
        <time>2024-03-27T15:31:55Z</time>
      </trkpt>
      <trkpt lat="50.05615" lon="2.13396">
        <ele>48.1</ele>
        <time>2024-03-27T15:31:56Z</time>
      </trkpt>
      <trkpt lat="50.05615" lon="2.13397">
        <ele>48</ele>
        <time>2024-03-27T15:31:57Z</time>
      </trkpt>
      <trkpt lat="50.05615" lon="2.13398">
        <ele>48</ele>
        <time>2024-03-27T15:31:58Z</time>
      </trkpt>
      <trkpt lat="50.05615" lon="2.13399">
        <ele>47.9</ele>
        <time>2024-03-27T15:31:59Z</time>
      </trkpt>
      <trkpt lat="50.05614" lon="2.13401">
        <ele>47.8</ele>
        <time>2024-03-27T15:32:00Z</time>
      </trkpt>
      <trkpt lat="50.05614" lon="2.13403">
        <ele>47.8</ele>
        <time>2024-03-27T15:32:01Z</time>
      </trkpt>
      <trkpt lat="50.05613" lon="2.13405">
        <ele>47.7</ele>
        <time>2024-03-27T15:32:02Z</time>
      </trkpt>
      <trkpt lat="50.05613" lon="2.13406">
        <ele>47.6</ele>
        <time>2024-03-27T15:32:03Z</time>
      </trkpt>
      <trkpt lat="50.05613" lon="2.13408">
        <ele>47.5</ele>
        <time>2024-03-27T15:32:04Z</time>
      </trkpt>
      <trkpt lat="50.05613" lon="2.1341">
        <ele>47.5</ele>
        <time>2024-03-27T15:32:05Z</time>
      </trkpt>
      <trkpt lat="50.05613" lon="2.13411">
        <ele>47.4</ele>
        <time>2024-03-27T15:32:06Z</time>
      </trkpt>
      <trkpt lat="50.05613" lon="2.13413">
        <ele>47.3</ele>
        <time>2024-03-27T15:32:07Z</time>
      </trkpt>
      <trkpt lat="50.05613" lon="2.13414">
        <ele>47.3</ele>
        <time>2024-03-27T15:32:08Z</time>
      </trkpt>
      <trkpt lat="50.05613" lon="2.13416">
        <ele>47.2</ele>
        <time>2024-03-27T15:32:09Z</time>
      </trkpt>
      <trkpt lat="50.05613" lon="2.13418">
        <ele>47.1</ele>
        <time>2024-03-27T15:32:10Z</time>
      </trkpt>
      <trkpt lat="50.05613" lon="2.1342">
        <ele>47.1</ele>
        <time>2024-03-27T15:32:11Z</time>
      </trkpt>
      <trkpt lat="50.05612" lon="2.13421">
        <ele>47</ele>
        <time>2024-03-27T15:32:12Z</time>
      </trkpt>
      <trkpt lat="50.05611" lon="2.1342">
        <ele>47</ele>
        <time>2024-03-27T15:32:13Z</time>
      </trkpt>
      <trkpt lat="50.0561" lon="2.13421">
        <ele>46.9</ele>
        <time>2024-03-27T15:32:14Z</time>
      </trkpt>
      <trkpt lat="50.0561" lon="2.13422">
        <ele>46.9</ele>
        <time>2024-03-27T15:32:15Z</time>
      </trkpt>
      <trkpt lat="50.0561" lon="2.13423">
        <ele>46.8</ele>
        <time>2024-03-27T15:32:16Z</time>
      </trkpt>
      <trkpt lat="50.0561" lon="2.13425">
        <ele>46.8</ele>
        <time>2024-03-27T15:32:17Z</time>
      </trkpt>
      <trkpt lat="50.05609" lon="2.13426">
        <ele>46.7</ele>
        <time>2024-03-27T15:32:18Z</time>
      </trkpt>
      <trkpt lat="50.05609" lon="2.13427">
        <ele>46.7</ele>
        <time>2024-03-27T15:32:19Z</time>
      </trkpt>
      <trkpt lat="50.05609" lon="2.13429">
        <ele>46.6</ele>
        <time>2024-03-27T15:32:20Z</time>
      </trkpt>
      <trkpt lat="50.05608" lon="2.13429">
        <ele>46.6</ele>
        <time>2024-03-27T15:32:21Z</time>
      </trkpt>
      <trkpt lat="50.05608" lon="2.13431">
        <ele>46.6</ele>
        <time>2024-03-27T15:32:22Z</time>
      </trkpt>
      <trkpt lat="50.05608" lon="2.13432">
        <ele>46.5</ele>
        <time>2024-03-27T15:32:23Z</time>
      </trkpt>
      <trkpt lat="50.05608" lon="2.13433">
        <ele>46.5</ele>
        <time>2024-03-27T15:32:24Z</time>
      </trkpt>
      <trkpt lat="50.05608" lon="2.13434">
        <ele>46.4</ele>
        <time>2024-03-27T15:32:25Z</time>
      </trkpt>
      <trkpt lat="50.05608" lon="2.13436">
        <ele>46.4</ele>
        <time>2024-03-27T15:32:26Z</time>
      </trkpt>
      <trkpt lat="50.05608" lon="2.13437">
        <ele>46.3</ele>
        <time>2024-03-27T15:32:27Z</time>
      </trkpt>
      <trkpt lat="50.05608" lon="2.13439">
        <ele>46.3</ele>
        <time>2024-03-27T15:32:28Z</time>
      </trkpt>
      <trkpt lat="50.05608" lon="2.1344">
        <ele>46.3</ele>
        <time>2024-03-27T15:32:29Z</time>
      </trkpt>
      <trkpt lat="50.05608" lon="2.13441">
        <ele>46.2</ele>
        <time>2024-03-27T15:32:30Z</time>
      </trkpt>
      <trkpt lat="50.05607" lon="2.13443">
        <ele>46.2</ele>
        <time>2024-03-27T15:32:31Z</time>
      </trkpt>
      <trkpt lat="50.05607" lon="2.13445">
        <ele>46.1</ele>
        <time>2024-03-27T15:32:32Z</time>
      </trkpt>
      <trkpt lat="50.05607" lon="2.13447">
        <ele>46</ele>
        <time>2024-03-27T15:32:33Z</time>
      </trkpt>
      <trkpt lat="50.05606" lon="2.13448">
        <ele>46</ele>
        <time>2024-03-27T15:32:34Z</time>
      </trkpt>
      <trkpt lat="50.05606" lon="2.1345">
        <ele>45.9</ele>
        <time>2024-03-27T15:32:35Z</time>
      </trkpt>
      <trkpt lat="50.05605" lon="2.13452">
        <ele>45.9</ele>
        <time>2024-03-27T15:32:36Z</time>
      </trkpt>
      <trkpt lat="50.05605" lon="2.13455">
        <ele>45.8</ele>
        <time>2024-03-27T15:32:37Z</time>
      </trkpt>
      <trkpt lat="50.05604" lon="2.13456">
        <ele>45.7</ele>
        <time>2024-03-27T15:32:38Z</time>
      </trkpt>
      <trkpt lat="50.05604" lon="2.13457">
        <ele>45.7</ele>
        <time>2024-03-27T15:32:39Z</time>
      </trkpt>
      <trkpt lat="50.05604" lon="2.13459">
        <ele>45.6</ele>
        <time>2024-03-27T15:32:40Z</time>
      </trkpt>
      <trkpt lat="50.05604" lon="2.13461">
        <ele>45.6</ele>
        <time>2024-03-27T15:32:41Z</time>
      </trkpt>
      <trkpt lat="50.05604" lon="2.13463">
        <ele>45.5</ele>
        <time>2024-03-27T15:32:42Z</time>
      </trkpt>
      <trkpt lat="50.05603" lon="2.13465">
        <ele>45.4</ele>
        <time>2024-03-27T15:32:43Z</time>
      </trkpt>
      <trkpt lat="50.05603" lon="2.13466">
        <ele>45.4</ele>
        <time>2024-03-27T15:32:44Z</time>
      </trkpt>
      <trkpt lat="50.05604" lon="2.13468">
        <ele>45.3</ele>
        <time>2024-03-27T15:32:45Z</time>
      </trkpt>
      <trkpt lat="50.05604" lon="2.1347">
        <ele>45.2</ele>
        <time>2024-03-27T15:32:46Z</time>
      </trkpt>
      <trkpt lat="50.05603" lon="2.13472">
        <ele>45.2</ele>
        <time>2024-03-27T15:32:47Z</time>
      </trkpt>
      <trkpt lat="50.05603" lon="2.13473">
        <ele>45.1</ele>
        <time>2024-03-27T15:32:48Z</time>
      </trkpt>
      <trkpt lat="50.05603" lon="2.13475">
        <ele>45</ele>
        <time>2024-03-27T15:32:49Z</time>
      </trkpt>
      <trkpt lat="50.05603" lon="2.13477">
        <ele>45</ele>
        <time>2024-03-27T15:32:50Z</time>
      </trkpt>
      <trkpt lat="50.05602" lon="2.13479">
        <ele>44.9</ele>
        <time>2024-03-27T15:32:51Z</time>
      </trkpt>
      <trkpt lat="50.05602" lon="2.1348">
        <ele>44.8</ele>
        <time>2024-03-27T15:32:52Z</time>
      </trkpt>
      <trkpt lat="50.05602" lon="2.13481">
        <ele>44.8</ele>
        <time>2024-03-27T15:32:53Z</time>
      </trkpt>
      <trkpt lat="50.05602" lon="2.13482">
        <ele>44.7</ele>
        <time>2024-03-27T15:32:54Z</time>
      </trkpt>
      <trkpt lat="50.05602" lon="2.13484">
        <ele>44.7</ele>
        <time>2024-03-27T15:32:55Z</time>
      </trkpt>
      <trkpt lat="50.05602" lon="2.13485">
        <ele>44.6</ele>
        <time>2024-03-27T15:32:56Z</time>
      </trkpt>
      <trkpt lat="50.05603" lon="2.13486">
        <ele>44.6</ele>
        <time>2024-03-27T15:32:57Z</time>
      </trkpt>
      <trkpt lat="50.05603" lon="2.13486">
        <ele>44.6</ele>
        <time>2024-03-27T15:32:58Z</time>
      </trkpt>
      <trkpt lat="50.05603" lon="2.13487">
        <ele>44.5</ele>
        <time>2024-03-27T15:32:59Z</time>
      </trkpt>
      <trkpt lat="50.05603" lon="2.13489">
        <ele>44.4</ele>
        <time>2024-03-27T15:33:00Z</time>
      </trkpt>
      <trkpt lat="50.05603" lon="2.1349">
        <ele>44.4</ele>
        <time>2024-03-27T15:33:01Z</time>
      </trkpt>
      <trkpt lat="50.05603" lon="2.13492">
        <ele>44.3</ele>
        <time>2024-03-27T15:33:02Z</time>
      </trkpt>
      <trkpt lat="50.05603" lon="2.13493">
        <ele>44.2</ele>
        <time>2024-03-27T15:33:03Z</time>
      </trkpt>
      <trkpt lat="50.05603" lon="2.13494">
        <ele>44.2</ele>
        <time>2024-03-27T15:33:04Z</time>
      </trkpt>
      <trkpt lat="50.05603" lon="2.13496">
        <ele>44.1</ele>
        <time>2024-03-27T15:33:05Z</time>
      </trkpt>
      <trkpt lat="50.05603" lon="2.13497">
        <ele>44</ele>
        <time>2024-03-27T15:33:06Z</time>
      </trkpt>
      <trkpt lat="50.05604" lon="2.13499">
        <ele>44</ele>
        <time>2024-03-27T15:33:07Z</time>
      </trkpt>
      <trkpt lat="50.05604" lon="2.13501">
        <ele>43.9</ele>
        <time>2024-03-27T15:33:08Z</time>
      </trkpt>
      <trkpt lat="50.05604" lon="2.13502">
        <ele>43.8</ele>
        <time>2024-03-27T15:33:09Z</time>
      </trkpt>
      <trkpt lat="50.05605" lon="2.13506">
        <ele>43.6</ele>
        <time>2024-03-27T15:33:10Z</time>
      </trkpt>
      <trkpt lat="50.05605" lon="2.13507">
        <ele>43.6</ele>
        <time>2024-03-27T15:33:11Z</time>
      </trkpt>
      <trkpt lat="50.05605" lon="2.13508">
        <ele>43.5</ele>
        <time>2024-03-27T15:33:12Z</time>
      </trkpt>
      <trkpt lat="50.05605" lon="2.13511">
        <ele>43.4</ele>
        <time>2024-03-27T15:33:13Z</time>
      </trkpt>
      <trkpt lat="50.05605" lon="2.13513">
        <ele>43.3</ele>
        <time>2024-03-27T15:33:14Z</time>
      </trkpt>
      <trkpt lat="50.05604" lon="2.13516">
        <ele>43.1</ele>
        <time>2024-03-27T15:33:15Z</time>
      </trkpt>
      <trkpt lat="50.05604" lon="2.13518">
        <ele>43</ele>
        <time>2024-03-27T15:33:16Z</time>
      </trkpt>
      <trkpt lat="50.05604" lon="2.13522">
        <ele>42.8</ele>
        <time>2024-03-27T15:33:17Z</time>
      </trkpt>
      <trkpt lat="50.05604" lon="2.13523">
        <ele>42.8</ele>
        <time>2024-03-27T15:33:18Z</time>
      </trkpt>
      <trkpt lat="50.05603" lon="2.13524">
        <ele>42.7</ele>
        <time>2024-03-27T15:33:19Z</time>
      </trkpt>
      <trkpt lat="50.05603" lon="2.13526">
        <ele>42.6</ele>
        <time>2024-03-27T15:33:20Z</time>
      </trkpt>
      <trkpt lat="50.05603" lon="2.13528">
        <ele>42.5</ele>
        <time>2024-03-27T15:33:21Z</time>
      </trkpt>
      <trkpt lat="50.05603" lon="2.1353">
        <ele>42.4</ele>
        <time>2024-03-27T15:33:22Z</time>
      </trkpt>
      <trkpt lat="50.05603" lon="2.13533">
        <ele>42.3</ele>
        <time>2024-03-27T15:33:23Z</time>
      </trkpt>
      <trkpt lat="50.05603" lon="2.13534">
        <ele>42.2</ele>
        <time>2024-03-27T15:33:24Z</time>
      </trkpt>
      <trkpt lat="50.05603" lon="2.13536">
        <ele>42.2</ele>
        <time>2024-03-27T15:33:25Z</time>
      </trkpt>
      <trkpt lat="50.05603" lon="2.13537">
        <ele>42.1</ele>
        <time>2024-03-27T15:33:26Z</time>
      </trkpt>
      <trkpt lat="50.05603" lon="2.13539">
        <ele>42</ele>
        <time>2024-03-27T15:33:27Z</time>
      </trkpt>
      <trkpt lat="50.05603" lon="2.1354">
        <ele>41.9</ele>
        <time>2024-03-27T15:33:28Z</time>
      </trkpt>
      <trkpt lat="50.05603" lon="2.13542">
        <ele>41.8</ele>
        <time>2024-03-27T15:33:29Z</time>
      </trkpt>
      <trkpt lat="50.05603" lon="2.13544">
        <ele>41.7</ele>
        <time>2024-03-27T15:33:30Z</time>
      </trkpt>
      <trkpt lat="50.05603" lon="2.13546">
        <ele>41.6</ele>
        <time>2024-03-27T15:33:31Z</time>
      </trkpt>
      <trkpt lat="50.05604" lon="2.13549">
        <ele>41.5</ele>
        <time>2024-03-27T15:33:32Z</time>
      </trkpt>
      <trkpt lat="50.05604" lon="2.1355">
        <ele>41.4</ele>
        <time>2024-03-27T15:33:33Z</time>
      </trkpt>
      <trkpt lat="50.05604" lon="2.13551">
        <ele>41.4</ele>
        <time>2024-03-27T15:33:34Z</time>
      </trkpt>
      <trkpt lat="50.05604" lon="2.13553">
        <ele>41.3</ele>
        <time>2024-03-27T15:33:35Z</time>
      </trkpt>
      <trkpt lat="50.05605" lon="2.13555">
        <ele>41.2</ele>
        <time>2024-03-27T15:33:36Z</time>
      </trkpt>
      <trkpt lat="50.05605" lon="2.13556">
        <ele>41.1</ele>
        <time>2024-03-27T15:33:37Z</time>
      </trkpt>
      <trkpt lat="50.05605" lon="2.13558">
        <ele>41</ele>
        <time>2024-03-27T15:33:38Z</time>
      </trkpt>
      <trkpt lat="50.05605" lon="2.13559">
        <ele>40.9</ele>
        <time>2024-03-27T15:33:39Z</time>
      </trkpt>
      <trkpt lat="50.05605" lon="2.13561">
        <ele>40.9</ele>
        <time>2024-03-27T15:33:40Z</time>
      </trkpt>
      <trkpt lat="50.05606" lon="2.13564">
        <ele>40.7</ele>
        <time>2024-03-27T15:33:41Z</time>
      </trkpt>
      <trkpt lat="50.05607" lon="2.13565">
        <ele>40.7</ele>
        <time>2024-03-27T15:33:42Z</time>
      </trkpt>
      <trkpt lat="50.05607" lon="2.13566">
        <ele>40.6</ele>
        <time>2024-03-27T15:33:43Z</time>
      </trkpt>
      <trkpt lat="50.05608" lon="2.13567">
        <ele>40.5</ele>
        <time>2024-03-27T15:33:44Z</time>
      </trkpt>
      <trkpt lat="50.05609" lon="2.13569">
        <ele>40.4</ele>
        <time>2024-03-27T15:33:45Z</time>
      </trkpt>
      <trkpt lat="50.0561" lon="2.13572">
        <ele>40.2</ele>
        <time>2024-03-27T15:33:46Z</time>
      </trkpt>
      <trkpt lat="50.0561" lon="2.13573">
        <ele>40.1</ele>
        <time>2024-03-27T15:33:47Z</time>
      </trkpt>
      <trkpt lat="50.05611" lon="2.13574">
        <ele>40.1</ele>
        <time>2024-03-27T15:33:48Z</time>
      </trkpt>
      <trkpt lat="50.05612" lon="2.13577">
        <ele>39.9</ele>
        <time>2024-03-27T15:33:49Z</time>
      </trkpt>
      <trkpt lat="50.05612" lon="2.13578">
        <ele>39.8</ele>
        <time>2024-03-27T15:33:50Z</time>
      </trkpt>
      <trkpt lat="50.05613" lon="2.13579">
        <ele>39.8</ele>
        <time>2024-03-27T15:33:51Z</time>
      </trkpt>
      <trkpt lat="50.05613" lon="2.13582">
        <ele>39.6</ele>
        <time>2024-03-27T15:33:52Z</time>
      </trkpt>
      <trkpt lat="50.05614" lon="2.13583">
        <ele>39.6</ele>
        <time>2024-03-27T15:33:53Z</time>
      </trkpt>
      <trkpt lat="50.05614" lon="2.13585">
        <ele>39.5</ele>
        <time>2024-03-27T15:33:54Z</time>
      </trkpt>
      <trkpt lat="50.05614" lon="2.13586">
        <ele>39.4</ele>
        <time>2024-03-27T15:33:55Z</time>
      </trkpt>
      <trkpt lat="50.05615" lon="2.13588">
        <ele>39.3</ele>
        <time>2024-03-27T15:33:56Z</time>
      </trkpt>
      <trkpt lat="50.05615" lon="2.13589">
        <ele>39.2</ele>
        <time>2024-03-27T15:33:57Z</time>
      </trkpt>
      <trkpt lat="50.05616" lon="2.13591">
        <ele>39.1</ele>
        <time>2024-03-27T15:33:58Z</time>
      </trkpt>
      <trkpt lat="50.05616" lon="2.13593">
        <ele>39</ele>
        <time>2024-03-27T15:33:59Z</time>
      </trkpt>
      <trkpt lat="50.05617" lon="2.13594">
        <ele>39</ele>
        <time>2024-03-27T15:34:00Z</time>
      </trkpt>
      <trkpt lat="50.05618" lon="2.13597">
        <ele>38.8</ele>
        <time>2024-03-27T15:34:01Z</time>
      </trkpt>
      <trkpt lat="50.05618" lon="2.13598">
        <ele>38.7</ele>
        <time>2024-03-27T15:34:02Z</time>
      </trkpt>
      <trkpt lat="50.05618" lon="2.13599">
        <ele>38.7</ele>
        <time>2024-03-27T15:34:03Z</time>
      </trkpt>
      <trkpt lat="50.05619" lon="2.13601">
        <ele>38.6</ele>
        <time>2024-03-27T15:34:04Z</time>
      </trkpt>
      <trkpt lat="50.05619" lon="2.13603">
        <ele>38.5</ele>
        <time>2024-03-27T15:34:05Z</time>
      </trkpt>
      <trkpt lat="50.0562" lon="2.13604">
        <ele>38.4</ele>
        <time>2024-03-27T15:34:06Z</time>
      </trkpt>
      <trkpt lat="50.0562" lon="2.13605">
        <ele>38.4</ele>
        <time>2024-03-27T15:34:07Z</time>
      </trkpt>
      <trkpt lat="50.05621" lon="2.13607">
        <ele>38.3</ele>
        <time>2024-03-27T15:34:08Z</time>
      </trkpt>
      <trkpt lat="50.05621" lon="2.13609">
        <ele>38.2</ele>
        <time>2024-03-27T15:34:09Z</time>
      </trkpt>
      <trkpt lat="50.05621" lon="2.1361">
        <ele>38.1</ele>
        <time>2024-03-27T15:34:10Z</time>
      </trkpt>
      <trkpt lat="50.05621" lon="2.13612">
        <ele>38.1</ele>
        <time>2024-03-27T15:34:11Z</time>
      </trkpt>
      <trkpt lat="50.05622" lon="2.13614">
        <ele>38</ele>
        <time>2024-03-27T15:34:12Z</time>
      </trkpt>
      <trkpt lat="50.05622" lon="2.13615">
        <ele>37.9</ele>
        <time>2024-03-27T15:34:13Z</time>
      </trkpt>
      <trkpt lat="50.05622" lon="2.13617">
        <ele>37.8</ele>
        <time>2024-03-27T15:34:14Z</time>
      </trkpt>
      <trkpt lat="50.05622" lon="2.13618">
        <ele>37.8</ele>
        <time>2024-03-27T15:34:15Z</time>
      </trkpt>
      <trkpt lat="50.05622" lon="2.1362">
        <ele>37.7</ele>
        <time>2024-03-27T15:34:16Z</time>
      </trkpt>
      <trkpt lat="50.05622" lon="2.13621">
        <ele>37.7</ele>
        <time>2024-03-27T15:34:17Z</time>
      </trkpt>
      <trkpt lat="50.05622" lon="2.13623">
        <ele>37.6</ele>
        <time>2024-03-27T15:34:18Z</time>
      </trkpt>
      <trkpt lat="50.05623" lon="2.13624">
        <ele>37.5</ele>
        <time>2024-03-27T15:34:19Z</time>
      </trkpt>
      <trkpt lat="50.05623" lon="2.13625">
        <ele>37.5</ele>
        <time>2024-03-27T15:34:20Z</time>
      </trkpt>
      <trkpt lat="50.05623" lon="2.13627">
        <ele>37.4</ele>
        <time>2024-03-27T15:34:21Z</time>
      </trkpt>
      <trkpt lat="50.05624" lon="2.13629">
        <ele>37.3</ele>
        <time>2024-03-27T15:34:22Z</time>
      </trkpt>
      <trkpt lat="50.05624" lon="2.1363">
        <ele>37.3</ele>
        <time>2024-03-27T15:34:23Z</time>
      </trkpt>
      <trkpt lat="50.05624" lon="2.13631">
        <ele>37.3</ele>
        <time>2024-03-27T15:34:24Z</time>
      </trkpt>
      <trkpt lat="50.05624" lon="2.13632">
        <ele>37.2</ele>
        <time>2024-03-27T15:34:25Z</time>
      </trkpt>
      <trkpt lat="50.05624" lon="2.13634">
        <ele>37.2</ele>
        <time>2024-03-27T15:34:26Z</time>
      </trkpt>
      <trkpt lat="50.05624" lon="2.13636">
        <ele>37.1</ele>
        <time>2024-03-27T15:34:27Z</time>
      </trkpt>
      <trkpt lat="50.05624" lon="2.13637">
        <ele>37.1</ele>
        <time>2024-03-27T15:34:28Z</time>
      </trkpt>
      <trkpt lat="50.05625" lon="2.13639">
        <ele>37</ele>
        <time>2024-03-27T15:34:29Z</time>
      </trkpt>
      <trkpt lat="50.05625" lon="2.1364">
        <ele>37</ele>
        <time>2024-03-27T15:34:30Z</time>
      </trkpt>
      <trkpt lat="50.05625" lon="2.13642">
        <ele>36.9</ele>
        <time>2024-03-27T15:34:31Z</time>
      </trkpt>
      <trkpt lat="50.05625" lon="2.13643">
        <ele>36.9</ele>
        <time>2024-03-27T15:34:32Z</time>
      </trkpt>
      <trkpt lat="50.05626" lon="2.13644">
        <ele>36.8</ele>
        <time>2024-03-27T15:34:33Z</time>
      </trkpt>
      <trkpt lat="50.05626" lon="2.13645">
        <ele>36.8</ele>
        <time>2024-03-27T15:34:34Z</time>
      </trkpt>
      <trkpt lat="50.05626" lon="2.13647">
        <ele>36.8</ele>
        <time>2024-03-27T15:34:35Z</time>
      </trkpt>
      <trkpt lat="50.05627" lon="2.13649">
        <ele>36.7</ele>
        <time>2024-03-27T15:34:36Z</time>
      </trkpt>
      <trkpt lat="50.05627" lon="2.1365">
        <ele>36.7</ele>
        <time>2024-03-27T15:34:37Z</time>
      </trkpt>
      <trkpt lat="50.05628" lon="2.13651">
        <ele>36.6</ele>
        <time>2024-03-27T15:34:38Z</time>
      </trkpt>
      <trkpt lat="50.05628" lon="2.13652">
        <ele>36.6</ele>
        <time>2024-03-27T15:34:39Z</time>
      </trkpt>
      <trkpt lat="50.05628" lon="2.13653">
        <ele>36.6</ele>
        <time>2024-03-27T15:34:40Z</time>
      </trkpt>
      <trkpt lat="50.05628" lon="2.13655">
        <ele>36.5</ele>
        <time>2024-03-27T15:34:41Z</time>
      </trkpt>
      <trkpt lat="50.05629" lon="2.13656">
        <ele>36.5</ele>
        <time>2024-03-27T15:34:42Z</time>
      </trkpt>
      <trkpt lat="50.05629" lon="2.13657">
        <ele>36.5</ele>
        <time>2024-03-27T15:34:43Z</time>
      </trkpt>
      <trkpt lat="50.0563" lon="2.13658">
        <ele>36.4</ele>
        <time>2024-03-27T15:34:44Z</time>
      </trkpt>
      <trkpt lat="50.0563" lon="2.1366">
        <ele>36.4</ele>
        <time>2024-03-27T15:34:45Z</time>
      </trkpt>
      <trkpt lat="50.0563" lon="2.13661">
        <ele>36.4</ele>
        <time>2024-03-27T15:34:46Z</time>
      </trkpt>
      <trkpt lat="50.05631" lon="2.13662">
        <ele>36.3</ele>
        <time>2024-03-27T15:34:47Z</time>
      </trkpt>
      <trkpt lat="50.05631" lon="2.13664">
        <ele>36.3</ele>
        <time>2024-03-27T15:34:48Z</time>
      </trkpt>
      <trkpt lat="50.05631" lon="2.13664">
        <ele>36.3</ele>
        <time>2024-03-27T15:34:49Z</time>
      </trkpt>
      <trkpt lat="50.05632" lon="2.13665">
        <ele>36.3</ele>
        <time>2024-03-27T15:34:50Z</time>
      </trkpt>
      <trkpt lat="50.05633" lon="2.13666">
        <ele>36.2</ele>
        <time>2024-03-27T15:34:51Z</time>
      </trkpt>
      <trkpt lat="50.05633" lon="2.13667">
        <ele>36.2</ele>
        <time>2024-03-27T15:34:52Z</time>
      </trkpt>
      <trkpt lat="50.05634" lon="2.13669">
        <ele>36.2</ele>
        <time>2024-03-27T15:34:53Z</time>
      </trkpt>
      <trkpt lat="50.05634" lon="2.1367">
        <ele>36.1</ele>
        <time>2024-03-27T15:34:54Z</time>
      </trkpt>
      <trkpt lat="50.05634" lon="2.13671">
        <ele>36.1</ele>
        <time>2024-03-27T15:34:55Z</time>
      </trkpt>
      <trkpt lat="50.05635" lon="2.13673">
        <ele>36</ele>
        <time>2024-03-27T15:34:56Z</time>
      </trkpt>
      <trkpt lat="50.05635" lon="2.13675">
        <ele>36</ele>
        <time>2024-03-27T15:34:57Z</time>
      </trkpt>
      <trkpt lat="50.05636" lon="2.13678">
        <ele>35.9</ele>
        <time>2024-03-27T15:34:58Z</time>
      </trkpt>
      <trkpt lat="50.05637" lon="2.13679">
        <ele>35.9</ele>
        <time>2024-03-27T15:34:59Z</time>
      </trkpt>
      <trkpt lat="50.05637" lon="2.1368">
        <ele>35.9</ele>
        <time>2024-03-27T15:35:00Z</time>
      </trkpt>
      <trkpt lat="50.05637" lon="2.13683">
        <ele>35.8</ele>
        <time>2024-03-27T15:35:01Z</time>
      </trkpt>
      <trkpt lat="50.05637" lon="2.13684">
        <ele>35.8</ele>
        <time>2024-03-27T15:35:02Z</time>
      </trkpt>
      <trkpt lat="50.05638" lon="2.13686">
        <ele>35.8</ele>
        <time>2024-03-27T15:35:03Z</time>
      </trkpt>
      <trkpt lat="50.05638" lon="2.13687">
        <ele>35.7</ele>
        <time>2024-03-27T15:35:04Z</time>
      </trkpt>
      <trkpt lat="50.05638" lon="2.13689">
        <ele>35.7</ele>
        <time>2024-03-27T15:35:05Z</time>
      </trkpt>
      <trkpt lat="50.05638" lon="2.13691">
        <ele>35.6</ele>
        <time>2024-03-27T15:35:06Z</time>
      </trkpt>
      <trkpt lat="50.05638" lon="2.13692">
        <ele>35.6</ele>
        <time>2024-03-27T15:35:07Z</time>
      </trkpt>
      <trkpt lat="50.05638" lon="2.13694">
        <ele>35.6</ele>
        <time>2024-03-27T15:35:08Z</time>
      </trkpt>
      <trkpt lat="50.05638" lon="2.13695">
        <ele>35.5</ele>
        <time>2024-03-27T15:35:09Z</time>
      </trkpt>
      <trkpt lat="50.05637" lon="2.13696">
        <ele>35.5</ele>
        <time>2024-03-27T15:35:10Z</time>
      </trkpt>
      <trkpt lat="50.05637" lon="2.13696">
        <ele>35.5</ele>
        <time>2024-03-27T15:35:11Z</time>
      </trkpt>
      <trkpt lat="50.05636" lon="2.13696">
        <ele>35.5</ele>
        <time>2024-03-27T15:35:12Z</time>
      </trkpt>
      <trkpt lat="50.05635" lon="2.13696">
        <ele>35.5</ele>
        <time>2024-03-27T15:35:13Z</time>
      </trkpt>
      <trkpt lat="50.05635" lon="2.13695">
        <ele>35.4</ele>
        <time>2024-03-27T15:35:14Z</time>
      </trkpt>
      <trkpt lat="50.05635" lon="2.13695">
        <ele>35.4</ele>
        <time>2024-03-27T15:35:15Z</time>
      </trkpt>
      <trkpt lat="50.05635" lon="2.13695">
        <ele>35.4</ele>
        <time>2024-03-27T15:35:16Z</time>
      </trkpt>
      <trkpt lat="50.05635" lon="2.13695">
        <ele>35.4</ele>
        <time>2024-03-27T15:35:17Z</time>
      </trkpt>
      <trkpt lat="50.05635" lon="2.13694">
        <ele>35.4</ele>
        <time>2024-03-27T15:35:18Z</time>
      </trkpt>
      <trkpt lat="50.05634" lon="2.13694">
        <ele>35.4</ele>
        <time>2024-03-27T15:35:19Z</time>
      </trkpt>
      <trkpt lat="50.05634" lon="2.13694">
        <ele>35.4</ele>
        <time>2024-03-27T15:35:20Z</time>
      </trkpt>
      <trkpt lat="50.05634" lon="2.13694">
        <ele>35.4</ele>
        <time>2024-03-27T15:35:21Z</time>
      </trkpt>
      <trkpt lat="50.05634" lon="2.13694">
        <ele>35.4</ele>
        <time>2024-03-27T15:35:22Z</time>
      </trkpt>
      <trkpt lat="50.05634" lon="2.13694">
        <ele>35.4</ele>
        <time>2024-03-27T15:35:23Z</time>
      </trkpt>
      <trkpt lat="50.05634" lon="2.13694">
        <ele>35.4</ele>
        <time>2024-03-27T15:35:24Z</time>
      </trkpt>
      <trkpt lat="50.05634" lon="2.13693">
        <ele>35.4</ele>
        <time>2024-03-27T15:35:25Z</time>
      </trkpt>
      <trkpt lat="50.05634" lon="2.13693">
        <ele>35.4</ele>
        <time>2024-03-27T15:35:26Z</time>
      </trkpt>
      <trkpt lat="50.05634" lon="2.13693">
        <ele>35.4</ele>
        <time>2024-03-27T15:35:27Z</time>
      </trkpt>
      <trkpt lat="50.05634" lon="2.13693">
        <ele>35.4</ele>
        <time>2024-03-27T15:35:28Z</time>
      </trkpt>
      <trkpt lat="50.05634" lon="2.13693">
        <ele>35.4</ele>
        <time>2024-03-27T15:35:29Z</time>
      </trkpt>
      <trkpt lat="50.05634" lon="2.13693">
        <ele>35.4</ele>
        <time>2024-03-27T15:35:30Z</time>
      </trkpt>
      <trkpt lat="50.05634" lon="2.13693">
        <ele>35.4</ele>
        <time>2024-03-27T15:35:31Z</time>
      </trkpt>
      <trkpt lat="50.05634" lon="2.13693">
        <ele>35.4</ele>
        <time>2024-03-27T15:35:32Z</time>
      </trkpt>
      <trkpt lat="50.05634" lon="2.13693">
        <ele>35.4</ele>
        <time>2024-03-27T15:35:33Z</time>
      </trkpt>
      <trkpt lat="50.05634" lon="2.13693">
        <ele>35.4</ele>
        <time>2024-03-27T15:35:34Z</time>
      </trkpt>
      <trkpt lat="50.05634" lon="2.13693">
        <ele>35.4</ele>
        <time>2024-03-27T15:35:35Z</time>
      </trkpt>
      <trkpt lat="50.05634" lon="2.13693">
        <ele>35.4</ele>
        <time>2024-03-27T15:35:36Z</time>
      </trkpt>
      <trkpt lat="50.05634" lon="2.13693">
        <ele>35.4</ele>
        <time>2024-03-27T15:35:37Z</time>
      </trkpt>
      <trkpt lat="50.05634" lon="2.13693">
        <ele>35.4</ele>
        <time>2024-03-27T15:35:38Z</time>
      </trkpt>
      <trkpt lat="50.05634" lon="2.13693">
        <ele>35.4</ele>
        <time>2024-03-27T15:35:39Z</time>
      </trkpt>
      <trkpt lat="50.05634" lon="2.13693">
        <ele>35.4</ele>
        <time>2024-03-27T15:35:40Z</time>
      </trkpt>
      <trkpt lat="50.05634" lon="2.13693">
        <ele>35.4</ele>
        <time>2024-03-27T15:35:41Z</time>
      </trkpt>
      <trkpt lat="50.05634" lon="2.13693">
        <ele>35.4</ele>
        <time>2024-03-27T15:35:42Z</time>
      </trkpt>
      <trkpt lat="50.05634" lon="2.13693">
        <ele>35.4</ele>
        <time>2024-03-27T15:35:43Z</time>
      </trkpt>
      <trkpt lat="50.05634" lon="2.13693">
        <ele>35.4</ele>
        <time>2024-03-27T15:35:44Z</time>
      </trkpt>
      <trkpt lat="50.05634" lon="2.13693">
        <ele>35.4</ele>
        <time>2024-03-27T15:35:45Z</time>
      </trkpt>
      <trkpt lat="50.05634" lon="2.13693">
        <ele>35.4</ele>
        <time>2024-03-27T15:35:46Z</time>
      </trkpt>
      <trkpt lat="50.05634" lon="2.13693">
        <ele>35.4</ele>
        <time>2024-03-27T15:35:47Z</time>
      </trkpt>
      <trkpt lat="50.05634" lon="2.13693">
        <ele>35.4</ele>
        <time>2024-03-27T15:35:48Z</time>
      </trkpt>
      <trkpt lat="50.05634" lon="2.13693">
        <ele>35.4</ele>
        <time>2024-03-27T15:35:49Z</time>
      </trkpt>
      <trkpt lat="50.05634" lon="2.13693">
        <ele>35.4</ele>
        <time>2024-03-27T15:35:50Z</time>
      </trkpt>
      <trkpt lat="50.05634" lon="2.13693">
        <ele>35.4</ele>
        <time>2024-03-27T15:35:51Z</time>
      </trkpt>
      <trkpt lat="50.05634" lon="2.13693">
        <ele>35.4</ele>
        <time>2024-03-27T15:35:52Z</time>
      </trkpt>
      <trkpt lat="50.05634" lon="2.13693">
        <ele>35.4</ele>
        <time>2024-03-27T15:35:53Z</time>
      </trkpt>
      <trkpt lat="50.05634" lon="2.13693">
        <ele>35.4</ele>
        <time>2024-03-27T15:35:54Z</time>
      </trkpt>
      <trkpt lat="50.05634" lon="2.13693">
        <ele>35.4</ele>
        <time>2024-03-27T15:35:55Z</time>
      </trkpt>
      <trkpt lat="50.05634" lon="2.13693">
        <ele>35.4</ele>
        <time>2024-03-27T15:35:56Z</time>
      </trkpt>
      <trkpt lat="50.05636" lon="2.13692">
        <ele>35.3</ele>
        <time>2024-03-27T15:35:57Z</time>
      </trkpt>
      <trkpt lat="50.05637" lon="2.13691">
        <ele>35.2</ele>
        <time>2024-03-27T15:35:58Z</time>
      </trkpt>
      <trkpt lat="50.05638" lon="2.13691">
        <ele>35.2</ele>
        <time>2024-03-27T15:35:59Z</time>
      </trkpt>
      <trkpt lat="50.05638" lon="2.13691">
        <ele>35.2</ele>
        <time>2024-03-27T15:36:00Z</time>
      </trkpt>
      <trkpt lat="50.05638" lon="2.13692">
        <ele>35.2</ele>
        <time>2024-03-27T15:36:01Z</time>
      </trkpt>
      <trkpt lat="50.05638" lon="2.13692">
        <ele>35.2</ele>
        <time>2024-03-27T15:36:02Z</time>
      </trkpt>
      <trkpt lat="50.05638" lon="2.13692">
        <ele>35.2</ele>
        <time>2024-03-27T15:36:03Z</time>
      </trkpt>
      <trkpt lat="50.05638" lon="2.13692">
        <ele>35.2</ele>
        <time>2024-03-27T15:36:04Z</time>
      </trkpt>
      <trkpt lat="50.05638" lon="2.13693">
        <ele>35.2</ele>
        <time>2024-03-27T15:36:05Z</time>
      </trkpt>
      <trkpt lat="50.05638" lon="2.13694">
        <ele>35.2</ele>
        <time>2024-03-27T15:36:06Z</time>
      </trkpt>
      <trkpt lat="50.05637" lon="2.13695">
        <ele>35.2</ele>
        <time>2024-03-27T15:36:07Z</time>
      </trkpt>
      <trkpt lat="50.05637" lon="2.13695">
        <ele>35.2</ele>
        <time>2024-03-27T15:36:08Z</time>
      </trkpt>
      <trkpt lat="50.05637" lon="2.13696">
        <ele>35.2</ele>
        <time>2024-03-27T15:36:09Z</time>
      </trkpt>
      <trkpt lat="50.05637" lon="2.13697">
        <ele>35.2</ele>
        <time>2024-03-27T15:36:10Z</time>
      </trkpt>
      <trkpt lat="50.05636" lon="2.13698">
        <ele>35.2</ele>
        <time>2024-03-27T15:36:11Z</time>
      </trkpt>
      <trkpt lat="50.05636" lon="2.13699">
        <ele>35.1</ele>
        <time>2024-03-27T15:36:12Z</time>
      </trkpt>
      <trkpt lat="50.05635" lon="2.13699">
        <ele>35.1</ele>
        <time>2024-03-27T15:36:13Z</time>
      </trkpt>
      <trkpt lat="50.05634" lon="2.13699">
        <ele>35.1</ele>
        <time>2024-03-27T15:36:14Z</time>
      </trkpt>
      <trkpt lat="50.05633" lon="2.13699">
        <ele>35.1</ele>
        <time>2024-03-27T15:36:15Z</time>
      </trkpt>
      <trkpt lat="50.05633" lon="2.13698">
        <ele>35.1</ele>
        <time>2024-03-27T15:36:16Z</time>
      </trkpt>
      <trkpt lat="50.05632" lon="2.13697">
        <ele>35.1</ele>
        <time>2024-03-27T15:36:17Z</time>
      </trkpt>
      <trkpt lat="50.05632" lon="2.13697">
        <ele>35.1</ele>
        <time>2024-03-27T15:36:18Z</time>
      </trkpt>
      <trkpt lat="50.05632" lon="2.13697">
        <ele>35.1</ele>
        <time>2024-03-27T15:36:19Z</time>
      </trkpt>
      <trkpt lat="50.05632" lon="2.13697">
        <ele>35.1</ele>
        <time>2024-03-27T15:36:20Z</time>
      </trkpt>
      <trkpt lat="50.05631" lon="2.13697">
        <ele>35</ele>
        <time>2024-03-27T15:36:21Z</time>
      </trkpt>
      <trkpt lat="50.0563" lon="2.13697">
        <ele>35</ele>
        <time>2024-03-27T15:36:22Z</time>
      </trkpt>
      <trkpt lat="50.05629" lon="2.13698">
        <ele>35</ele>
        <time>2024-03-27T15:36:23Z</time>
      </trkpt>
      <trkpt lat="50.05629" lon="2.13699">
        <ele>35</ele>
        <time>2024-03-27T15:36:24Z</time>
      </trkpt>
      <trkpt lat="50.05628" lon="2.13699">
        <ele>35</ele>
        <time>2024-03-27T15:36:25Z</time>
      </trkpt>
      <trkpt lat="50.05627" lon="2.137">
        <ele>35</ele>
        <time>2024-03-27T15:36:26Z</time>
      </trkpt>
      <trkpt lat="50.05626" lon="2.137">
        <ele>35</ele>
        <time>2024-03-27T15:36:27Z</time>
      </trkpt>
      <trkpt lat="50.05626" lon="2.13701">
        <ele>35</ele>
        <time>2024-03-27T15:36:28Z</time>
      </trkpt>
      <trkpt lat="50.05625" lon="2.13701">
        <ele>34.9</ele>
        <time>2024-03-27T15:36:29Z</time>
      </trkpt>
      <trkpt lat="50.05624" lon="2.13702">
        <ele>34.9</ele>
        <time>2024-03-27T15:36:30Z</time>
      </trkpt>
      <trkpt lat="50.05623" lon="2.13703">
        <ele>34.9</ele>
        <time>2024-03-27T15:36:31Z</time>
      </trkpt>
      <trkpt lat="50.05622" lon="2.13704">
        <ele>34.9</ele>
        <time>2024-03-27T15:36:32Z</time>
      </trkpt>
      <trkpt lat="50.05621" lon="2.13705">
        <ele>34.9</ele>
        <time>2024-03-27T15:36:33Z</time>
      </trkpt>
      <trkpt lat="50.05619" lon="2.13706">
        <ele>34.8</ele>
        <time>2024-03-27T15:36:34Z</time>
      </trkpt>
      <trkpt lat="50.05618" lon="2.13707">
        <ele>34.8</ele>
        <time>2024-03-27T15:36:35Z</time>
      </trkpt>
      <trkpt lat="50.05617" lon="2.13708">
        <ele>34.8</ele>
        <time>2024-03-27T15:36:36Z</time>
      </trkpt>
      <trkpt lat="50.05614" lon="2.1371">
        <ele>34.8</ele>
        <time>2024-03-27T15:36:37Z</time>
      </trkpt>
      <trkpt lat="50.05614" lon="2.13711">
        <ele>34.7</ele>
        <time>2024-03-27T15:36:38Z</time>
      </trkpt>
      <trkpt lat="50.05612" lon="2.13713">
        <ele>34.7</ele>
        <time>2024-03-27T15:36:39Z</time>
      </trkpt>
      <trkpt lat="50.05611" lon="2.13714">
        <ele>34.7</ele>
        <time>2024-03-27T15:36:40Z</time>
      </trkpt>
      <trkpt lat="50.0561" lon="2.13716">
        <ele>34.6</ele>
        <time>2024-03-27T15:36:41Z</time>
      </trkpt>
      <trkpt lat="50.05608" lon="2.13717">
        <ele>34.6</ele>
        <time>2024-03-27T15:36:42Z</time>
      </trkpt>
      <trkpt lat="50.05607" lon="2.13718">
        <ele>34.6</ele>
        <time>2024-03-27T15:36:43Z</time>
      </trkpt>
      <trkpt lat="50.05606" lon="2.13719">
        <ele>34.6</ele>
        <time>2024-03-27T15:36:44Z</time>
      </trkpt>
      <trkpt lat="50.05605" lon="2.1372">
        <ele>34.5</ele>
        <time>2024-03-27T15:36:45Z</time>
      </trkpt>
      <trkpt lat="50.05603" lon="2.13721">
        <ele>34.5</ele>
        <time>2024-03-27T15:36:46Z</time>
      </trkpt>
      <trkpt lat="50.05602" lon="2.13722">
        <ele>34.5</ele>
        <time>2024-03-27T15:36:47Z</time>
      </trkpt>
      <trkpt lat="50.05601" lon="2.13723">
        <ele>34.4</ele>
        <time>2024-03-27T15:36:48Z</time>
      </trkpt>
      <trkpt lat="50.056" lon="2.13724">
        <ele>34.4</ele>
        <time>2024-03-27T15:36:49Z</time>
      </trkpt>
      <trkpt lat="50.05599" lon="2.13724">
        <ele>34.4</ele>
        <time>2024-03-27T15:36:50Z</time>
      </trkpt>
      <trkpt lat="50.05598" lon="2.13725">
        <ele>34.4</ele>
        <time>2024-03-27T15:36:51Z</time>
      </trkpt>
      <trkpt lat="50.05597" lon="2.13726">
        <ele>34.3</ele>
        <time>2024-03-27T15:36:52Z</time>
      </trkpt>
      <trkpt lat="50.05596" lon="2.13726">
        <ele>34.3</ele>
        <time>2024-03-27T15:36:53Z</time>
      </trkpt>
      <trkpt lat="50.05595" lon="2.13727">
        <ele>34.3</ele>
        <time>2024-03-27T15:36:54Z</time>
      </trkpt>
      <trkpt lat="50.05594" lon="2.13727">
        <ele>34.3</ele>
        <time>2024-03-27T15:36:55Z</time>
      </trkpt>
      <trkpt lat="50.05593" lon="2.13728">
        <ele>34.2</ele>
        <time>2024-03-27T15:36:56Z</time>
      </trkpt>
      <trkpt lat="50.05592" lon="2.13729">
        <ele>34.2</ele>
        <time>2024-03-27T15:36:57Z</time>
      </trkpt>
      <trkpt lat="50.05591" lon="2.1373">
        <ele>34.2</ele>
        <time>2024-03-27T15:36:58Z</time>
      </trkpt>
      <trkpt lat="50.05589" lon="2.13732">
        <ele>34.1</ele>
        <time>2024-03-27T15:36:59Z</time>
      </trkpt>
      <trkpt lat="50.05588" lon="2.13732">
        <ele>34.1</ele>
        <time>2024-03-27T15:37:00Z</time>
      </trkpt>
      <trkpt lat="50.05587" lon="2.13733">
        <ele>34.1</ele>
        <time>2024-03-27T15:37:01Z</time>
      </trkpt>
      <trkpt lat="50.05586" lon="2.13734">
        <ele>34.1</ele>
        <time>2024-03-27T15:37:02Z</time>
      </trkpt>
      <trkpt lat="50.05585" lon="2.13735">
        <ele>34.1</ele>
        <time>2024-03-27T15:37:03Z</time>
      </trkpt>
      <trkpt lat="50.05584" lon="2.13735">
        <ele>34</ele>
        <time>2024-03-27T15:37:04Z</time>
      </trkpt>
      <trkpt lat="50.05583" lon="2.13736">
        <ele>34</ele>
        <time>2024-03-27T15:37:05Z</time>
      </trkpt>
      <trkpt lat="50.05582" lon="2.13737">
        <ele>34</ele>
        <time>2024-03-27T15:37:06Z</time>
      </trkpt>
      <trkpt lat="50.05581" lon="2.13738">
        <ele>33.9</ele>
        <time>2024-03-27T15:37:07Z</time>
      </trkpt>
      <trkpt lat="50.0558" lon="2.13739">
        <ele>33.9</ele>
        <time>2024-03-27T15:37:08Z</time>
      </trkpt>
      <trkpt lat="50.05579" lon="2.1374">
        <ele>33.9</ele>
        <time>2024-03-27T15:37:09Z</time>
      </trkpt>
      <trkpt lat="50.05578" lon="2.13741">
        <ele>33.9</ele>
        <time>2024-03-27T15:37:10Z</time>
      </trkpt>
      <trkpt lat="50.05576" lon="2.13742">
        <ele>33.8</ele>
        <time>2024-03-27T15:37:11Z</time>
      </trkpt>
      <trkpt lat="50.05575" lon="2.13744">
        <ele>33.8</ele>
        <time>2024-03-27T15:37:12Z</time>
      </trkpt>
      <trkpt lat="50.05574" lon="2.13745">
        <ele>33.8</ele>
        <time>2024-03-27T15:37:13Z</time>
      </trkpt>
      <trkpt lat="50.05572" lon="2.13747">
        <ele>33.7</ele>
        <time>2024-03-27T15:37:14Z</time>
      </trkpt>
      <trkpt lat="50.05571" lon="2.13747">
        <ele>33.7</ele>
        <time>2024-03-27T15:37:15Z</time>
      </trkpt>
      <trkpt lat="50.05571" lon="2.13748">
        <ele>33.7</ele>
        <time>2024-03-27T15:37:16Z</time>
      </trkpt>
      <trkpt lat="50.05569" lon="2.1375">
        <ele>33.6</ele>
        <time>2024-03-27T15:37:17Z</time>
      </trkpt>
      <trkpt lat="50.05568" lon="2.13751">
        <ele>33.6</ele>
        <time>2024-03-27T15:37:18Z</time>
      </trkpt>
      <trkpt lat="50.05567" lon="2.13751">
        <ele>33.6</ele>
        <time>2024-03-27T15:37:19Z</time>
      </trkpt>
      <trkpt lat="50.05566" lon="2.13752">
        <ele>33.6</ele>
        <time>2024-03-27T15:37:20Z</time>
      </trkpt>
      <trkpt lat="50.05564" lon="2.13753">
        <ele>33.5</ele>
        <time>2024-03-27T15:37:21Z</time>
      </trkpt>
      <trkpt lat="50.05563" lon="2.13755">
        <ele>33.5</ele>
        <time>2024-03-27T15:37:22Z</time>
      </trkpt>
      <trkpt lat="50.05561" lon="2.13756">
        <ele>33.5</ele>
        <time>2024-03-27T15:37:23Z</time>
      </trkpt>
      <trkpt lat="50.0556" lon="2.13756">
        <ele>33.5</ele>
        <time>2024-03-27T15:37:24Z</time>
      </trkpt>
      <trkpt lat="50.05559" lon="2.13757">
        <ele>33.4</ele>
        <time>2024-03-27T15:37:25Z</time>
      </trkpt>
      <trkpt lat="50.05558" lon="2.13758">
        <ele>33.4</ele>
        <time>2024-03-27T15:37:26Z</time>
      </trkpt>
      <trkpt lat="50.05557" lon="2.13759">
        <ele>33.4</ele>
        <time>2024-03-27T15:37:27Z</time>
      </trkpt>
      <trkpt lat="50.05556" lon="2.1376">
        <ele>33.3</ele>
        <time>2024-03-27T15:37:28Z</time>
      </trkpt>
      <trkpt lat="50.05555" lon="2.13761">
        <ele>33.3</ele>
        <time>2024-03-27T15:37:29Z</time>
      </trkpt>
      <trkpt lat="50.05553" lon="2.13762">
        <ele>33.3</ele>
        <time>2024-03-27T15:37:30Z</time>
      </trkpt>
      <trkpt lat="50.05552" lon="2.13763">
        <ele>33.3</ele>
        <time>2024-03-27T15:37:31Z</time>
      </trkpt>
      <trkpt lat="50.05552" lon="2.13763">
        <ele>33.3</ele>
        <time>2024-03-27T15:37:32Z</time>
      </trkpt>
      <trkpt lat="50.05551" lon="2.13764">
        <ele>33.2</ele>
        <time>2024-03-27T15:37:33Z</time>
      </trkpt>
      <trkpt lat="50.0555" lon="2.13765">
        <ele>33.2</ele>
        <time>2024-03-27T15:37:34Z</time>
      </trkpt>
      <trkpt lat="50.05549" lon="2.13766">
        <ele>33.2</ele>
        <time>2024-03-27T15:37:35Z</time>
      </trkpt>
      <trkpt lat="50.05548" lon="2.13767">
        <ele>33.2</ele>
        <time>2024-03-27T15:37:36Z</time>
      </trkpt>
      <trkpt lat="50.05547" lon="2.13767">
        <ele>33.1</ele>
        <time>2024-03-27T15:37:37Z</time>
      </trkpt>
      <trkpt lat="50.05546" lon="2.13768">
        <ele>33.1</ele>
        <time>2024-03-27T15:37:38Z</time>
      </trkpt>
      <trkpt lat="50.05545" lon="2.13769">
        <ele>33.1</ele>
        <time>2024-03-27T15:37:39Z</time>
      </trkpt>
      <trkpt lat="50.05544" lon="2.13769">
        <ele>33.1</ele>
        <time>2024-03-27T15:37:40Z</time>
      </trkpt>
      <trkpt lat="50.05544" lon="2.1377">
        <ele>33</ele>
        <time>2024-03-27T15:37:41Z</time>
      </trkpt>
      <trkpt lat="50.05543" lon="2.13771">
        <ele>33</ele>
        <time>2024-03-27T15:37:42Z</time>
      </trkpt>
      <trkpt lat="50.05542" lon="2.13772">
        <ele>33</ele>
        <time>2024-03-27T15:37:43Z</time>
      </trkpt>
      <trkpt lat="50.05541" lon="2.13772">
        <ele>33</ele>
        <time>2024-03-27T15:37:44Z</time>
      </trkpt>
      <trkpt lat="50.05541" lon="2.13773">
        <ele>33</ele>
        <time>2024-03-27T15:37:45Z</time>
      </trkpt>
      <trkpt lat="50.0554" lon="2.13774">
        <ele>32.9</ele>
        <time>2024-03-27T15:37:46Z</time>
      </trkpt>
      <trkpt lat="50.0554" lon="2.13775">
        <ele>32.9</ele>
        <time>2024-03-27T15:37:47Z</time>
      </trkpt>
      <trkpt lat="50.05539" lon="2.13776">
        <ele>32.9</ele>
        <time>2024-03-27T15:37:48Z</time>
      </trkpt>
      <trkpt lat="50.05538" lon="2.13777">
        <ele>32.9</ele>
        <time>2024-03-27T15:37:49Z</time>
      </trkpt>
      <trkpt lat="50.05537" lon="2.13778">
        <ele>32.9</ele>
        <time>2024-03-27T15:37:50Z</time>
      </trkpt>
      <trkpt lat="50.05536" lon="2.13779">
        <ele>32.8</ele>
        <time>2024-03-27T15:37:51Z</time>
      </trkpt>
      <trkpt lat="50.05535" lon="2.13779">
        <ele>32.8</ele>
        <time>2024-03-27T15:37:52Z</time>
      </trkpt>
      <trkpt lat="50.05535" lon="2.1378">
        <ele>32.8</ele>
        <time>2024-03-27T15:37:53Z</time>
      </trkpt>
      <trkpt lat="50.05534" lon="2.1378">
        <ele>32.8</ele>
        <time>2024-03-27T15:37:54Z</time>
      </trkpt>
      <trkpt lat="50.05532" lon="2.1378">
        <ele>32.7</ele>
        <time>2024-03-27T15:37:55Z</time>
      </trkpt>
      <trkpt lat="50.05532" lon="2.13781">
        <ele>32.7</ele>
        <time>2024-03-27T15:37:56Z</time>
      </trkpt>
      <trkpt lat="50.05531" lon="2.13781">
        <ele>32.7</ele>
        <time>2024-03-27T15:37:57Z</time>
      </trkpt>
      <trkpt lat="50.0553" lon="2.13781">
        <ele>32.7</ele>
        <time>2024-03-27T15:37:58Z</time>
      </trkpt>
      <trkpt lat="50.05529" lon="2.13782">
        <ele>32.7</ele>
        <time>2024-03-27T15:37:59Z</time>
      </trkpt>
      <trkpt lat="50.05529" lon="2.13783">
        <ele>32.7</ele>
        <time>2024-03-27T15:38:00Z</time>
      </trkpt>
      <trkpt lat="50.05528" lon="2.13783">
        <ele>32.6</ele>
        <time>2024-03-27T15:38:01Z</time>
      </trkpt>
      <trkpt lat="50.05527" lon="2.13784">
        <ele>32.6</ele>
        <time>2024-03-27T15:38:02Z</time>
      </trkpt>
      <trkpt lat="50.05526" lon="2.13785">
        <ele>32.6</ele>
        <time>2024-03-27T15:38:03Z</time>
      </trkpt>
      <trkpt lat="50.05526" lon="2.13786">
        <ele>32.6</ele>
        <time>2024-03-27T15:38:04Z</time>
      </trkpt>
      <trkpt lat="50.05525" lon="2.13787">
        <ele>32.5</ele>
        <time>2024-03-27T15:38:05Z</time>
      </trkpt>
      <trkpt lat="50.05524" lon="2.13788">
        <ele>32.5</ele>
        <time>2024-03-27T15:38:06Z</time>
      </trkpt>
      <trkpt lat="50.05523" lon="2.13789">
        <ele>32.5</ele>
        <time>2024-03-27T15:38:07Z</time>
      </trkpt>
      <trkpt lat="50.05522" lon="2.1379">
        <ele>32.5</ele>
        <time>2024-03-27T15:38:08Z</time>
      </trkpt>
      <trkpt lat="50.05522" lon="2.13791">
        <ele>32.5</ele>
        <time>2024-03-27T15:38:09Z</time>
      </trkpt>
      <trkpt lat="50.05521" lon="2.13792">
        <ele>32.4</ele>
        <time>2024-03-27T15:38:10Z</time>
      </trkpt>
      <trkpt lat="50.0552" lon="2.13793">
        <ele>32.4</ele>
        <time>2024-03-27T15:38:11Z</time>
      </trkpt>
      <trkpt lat="50.0552" lon="2.13795">
        <ele>32.4</ele>
        <time>2024-03-27T15:38:12Z</time>
      </trkpt>
      <trkpt lat="50.05519" lon="2.13796">
        <ele>32.4</ele>
        <time>2024-03-27T15:38:13Z</time>
      </trkpt>
      <trkpt lat="50.05518" lon="2.13797">
        <ele>32.3</ele>
        <time>2024-03-27T15:38:14Z</time>
      </trkpt>
      <trkpt lat="50.05517" lon="2.13798">
        <ele>32.3</ele>
        <time>2024-03-27T15:38:15Z</time>
      </trkpt>
      <trkpt lat="50.05517" lon="2.138">
        <ele>32.3</ele>
        <time>2024-03-27T15:38:16Z</time>
      </trkpt>
      <trkpt lat="50.05516" lon="2.13801">
        <ele>32.3</ele>
        <time>2024-03-27T15:38:17Z</time>
      </trkpt>
      <trkpt lat="50.05515" lon="2.13802">
        <ele>32.2</ele>
        <time>2024-03-27T15:38:18Z</time>
      </trkpt>
      <trkpt lat="50.05513" lon="2.13804">
        <ele>32.2</ele>
        <time>2024-03-27T15:38:19Z</time>
      </trkpt>
      <trkpt lat="50.05512" lon="2.13805">
        <ele>32.2</ele>
        <time>2024-03-27T15:38:20Z</time>
      </trkpt>
      <trkpt lat="50.05512" lon="2.13806">
        <ele>32.1</ele>
        <time>2024-03-27T15:38:21Z</time>
      </trkpt>
      <trkpt lat="50.05511" lon="2.13807">
        <ele>32.1</ele>
        <time>2024-03-27T15:38:22Z</time>
      </trkpt>
      <trkpt lat="50.0551" lon="2.13808">
        <ele>32.1</ele>
        <time>2024-03-27T15:38:23Z</time>
      </trkpt>
      <trkpt lat="50.05509" lon="2.13809">
        <ele>32.1</ele>
        <time>2024-03-27T15:38:24Z</time>
      </trkpt>
      <trkpt lat="50.05508" lon="2.1381">
        <ele>32.1</ele>
        <time>2024-03-27T15:38:25Z</time>
      </trkpt>
      <trkpt lat="50.05508" lon="2.13811">
        <ele>32</ele>
        <time>2024-03-27T15:38:26Z</time>
      </trkpt>
      <trkpt lat="50.05507" lon="2.13812">
        <ele>32</ele>
        <time>2024-03-27T15:38:27Z</time>
      </trkpt>
      <trkpt lat="50.05506" lon="2.13813">
        <ele>32</ele>
        <time>2024-03-27T15:38:28Z</time>
      </trkpt>
      <trkpt lat="50.05505" lon="2.13814">
        <ele>32</ele>
        <time>2024-03-27T15:38:29Z</time>
      </trkpt>
      <trkpt lat="50.05504" lon="2.13815">
        <ele>32</ele>
        <time>2024-03-27T15:38:30Z</time>
      </trkpt>
      <trkpt lat="50.05503" lon="2.13816">
        <ele>31.9</ele>
        <time>2024-03-27T15:38:31Z</time>
      </trkpt>
      <trkpt lat="50.05502" lon="2.13817">
        <ele>31.9</ele>
        <time>2024-03-27T15:38:32Z</time>
      </trkpt>
      <trkpt lat="50.05501" lon="2.13818">
        <ele>31.9</ele>
        <time>2024-03-27T15:38:33Z</time>
      </trkpt>
      <trkpt lat="50.055" lon="2.1382">
        <ele>31.9</ele>
        <time>2024-03-27T15:38:34Z</time>
      </trkpt>
      <trkpt lat="50.055" lon="2.13821">
        <ele>31.9</ele>
        <time>2024-03-27T15:38:35Z</time>
      </trkpt>
      <trkpt lat="50.05499" lon="2.13821">
        <ele>31.9</ele>
        <time>2024-03-27T15:38:36Z</time>
      </trkpt>
      <trkpt lat="50.05499" lon="2.13822">
        <ele>31.9</ele>
        <time>2024-03-27T15:38:37Z</time>
      </trkpt>
      <trkpt lat="50.05498" lon="2.13824">
        <ele>31.8</ele>
        <time>2024-03-27T15:38:38Z</time>
      </trkpt>
      <trkpt lat="50.05497" lon="2.13825">
        <ele>31.8</ele>
        <time>2024-03-27T15:38:39Z</time>
      </trkpt>
      <trkpt lat="50.05497" lon="2.13827">
        <ele>31.8</ele>
        <time>2024-03-27T15:38:40Z</time>
      </trkpt>
      <trkpt lat="50.05496" lon="2.13828">
        <ele>31.8</ele>
        <time>2024-03-27T15:38:41Z</time>
      </trkpt>
      <trkpt lat="50.05495" lon="2.1383">
        <ele>31.7</ele>
        <time>2024-03-27T15:38:42Z</time>
      </trkpt>
      <trkpt lat="50.05495" lon="2.13831">
        <ele>31.7</ele>
        <time>2024-03-27T15:38:43Z</time>
      </trkpt>
      <trkpt lat="50.05494" lon="2.13833">
        <ele>31.7</ele>
        <time>2024-03-27T15:38:44Z</time>
      </trkpt>
      <trkpt lat="50.05494" lon="2.13834">
        <ele>31.7</ele>
        <time>2024-03-27T15:38:45Z</time>
      </trkpt>
      <trkpt lat="50.05494" lon="2.13836">
        <ele>31.7</ele>
        <time>2024-03-27T15:38:46Z</time>
      </trkpt>
      <trkpt lat="50.05493" lon="2.13839">
        <ele>31.6</ele>
        <time>2024-03-27T15:38:47Z</time>
      </trkpt>
      <trkpt lat="50.05492" lon="2.1384">
        <ele>31.6</ele>
        <time>2024-03-27T15:38:48Z</time>
      </trkpt>
      <trkpt lat="50.05492" lon="2.13841">
        <ele>31.6</ele>
        <time>2024-03-27T15:38:49Z</time>
      </trkpt>
      <trkpt lat="50.0549" lon="2.13844">
        <ele>31.6</ele>
        <time>2024-03-27T15:38:50Z</time>
      </trkpt>
      <trkpt lat="50.0549" lon="2.13845">
        <ele>31.6</ele>
        <time>2024-03-27T15:38:51Z</time>
      </trkpt>
      <trkpt lat="50.05489" lon="2.13846">
        <ele>31.6</ele>
        <time>2024-03-27T15:38:52Z</time>
      </trkpt>
      <trkpt lat="50.05488" lon="2.13847">
        <ele>31.5</ele>
        <time>2024-03-27T15:38:53Z</time>
      </trkpt>
      <trkpt lat="50.05488" lon="2.13848">
        <ele>31.5</ele>
        <time>2024-03-27T15:38:54Z</time>
      </trkpt>
      <trkpt lat="50.05487" lon="2.1385">
        <ele>31.5</ele>
        <time>2024-03-27T15:38:55Z</time>
      </trkpt>
      <trkpt lat="50.05486" lon="2.13851">
        <ele>31.5</ele>
        <time>2024-03-27T15:38:56Z</time>
      </trkpt>
      <trkpt lat="50.05486" lon="2.13852">
        <ele>31.5</ele>
        <time>2024-03-27T15:38:57Z</time>
      </trkpt>
      <trkpt lat="50.05485" lon="2.13853">
        <ele>31.5</ele>
        <time>2024-03-27T15:38:58Z</time>
      </trkpt>
      <trkpt lat="50.05485" lon="2.13854">
        <ele>31.5</ele>
        <time>2024-03-27T15:38:59Z</time>
      </trkpt>
      <trkpt lat="50.05485" lon="2.13855">
        <ele>31.4</ele>
        <time>2024-03-27T15:39:00Z</time>
      </trkpt>
      <trkpt lat="50.05484" lon="2.13857">
        <ele>31.4</ele>
        <time>2024-03-27T15:39:01Z</time>
      </trkpt>
      <trkpt lat="50.05484" lon="2.13858">
        <ele>31.4</ele>
        <time>2024-03-27T15:39:02Z</time>
      </trkpt>
      <trkpt lat="50.05483" lon="2.13859">
        <ele>31.4</ele>
        <time>2024-03-27T15:39:03Z</time>
      </trkpt>
      <trkpt lat="50.05482" lon="2.1386">
        <ele>31.4</ele>
        <time>2024-03-27T15:39:04Z</time>
      </trkpt>
      <trkpt lat="50.05482" lon="2.13861">
        <ele>31.4</ele>
        <time>2024-03-27T15:39:05Z</time>
      </trkpt>
      <trkpt lat="50.05481" lon="2.13862">
        <ele>31.3</ele>
        <time>2024-03-27T15:39:06Z</time>
      </trkpt>
      <trkpt lat="50.0548" lon="2.13863">
        <ele>31.3</ele>
        <time>2024-03-27T15:39:07Z</time>
      </trkpt>
      <trkpt lat="50.0548" lon="2.13865">
        <ele>31.3</ele>
        <time>2024-03-27T15:39:08Z</time>
      </trkpt>
      <trkpt lat="50.05479" lon="2.13866">
        <ele>31.3</ele>
        <time>2024-03-27T15:39:09Z</time>
      </trkpt>
      <trkpt lat="50.05478" lon="2.13867">
        <ele>31.3</ele>
        <time>2024-03-27T15:39:10Z</time>
      </trkpt>
      <trkpt lat="50.05477" lon="2.13868">
        <ele>31.3</ele>
        <time>2024-03-27T15:39:11Z</time>
      </trkpt>
      <trkpt lat="50.05475" lon="2.13871">
        <ele>31.2</ele>
        <time>2024-03-27T15:39:12Z</time>
      </trkpt>
      <trkpt lat="50.05475" lon="2.13872">
        <ele>31.2</ele>
        <time>2024-03-27T15:39:13Z</time>
      </trkpt>
      <trkpt lat="50.05474" lon="2.13873">
        <ele>31.2</ele>
        <time>2024-03-27T15:39:14Z</time>
      </trkpt>
      <trkpt lat="50.05473" lon="2.13874">
        <ele>31.2</ele>
        <time>2024-03-27T15:39:15Z</time>
      </trkpt>
      <trkpt lat="50.05472" lon="2.13875">
        <ele>31.2</ele>
        <time>2024-03-27T15:39:16Z</time>
      </trkpt>
      <trkpt lat="50.05471" lon="2.13877">
        <ele>31.1</ele>
        <time>2024-03-27T15:39:17Z</time>
      </trkpt>
      <trkpt lat="50.05469" lon="2.13878">
        <ele>31.1</ele>
        <time>2024-03-27T15:39:18Z</time>
      </trkpt>
      <trkpt lat="50.05468" lon="2.13879">
        <ele>31.1</ele>
        <time>2024-03-27T15:39:19Z</time>
      </trkpt>
      <trkpt lat="50.05467" lon="2.1388">
        <ele>31.1</ele>
        <time>2024-03-27T15:39:20Z</time>
      </trkpt>
      <trkpt lat="50.05466" lon="2.13882">
        <ele>31.1</ele>
        <time>2024-03-27T15:39:21Z</time>
      </trkpt>
      <trkpt lat="50.05465" lon="2.13883">
        <ele>31</ele>
        <time>2024-03-27T15:39:22Z</time>
      </trkpt>
      <trkpt lat="50.05464" lon="2.13884">
        <ele>31</ele>
        <time>2024-03-27T15:39:23Z</time>
      </trkpt>
      <trkpt lat="50.05463" lon="2.13885">
        <ele>31</ele>
        <time>2024-03-27T15:39:24Z</time>
      </trkpt>
      <trkpt lat="50.05461" lon="2.13886">
        <ele>31</ele>
        <time>2024-03-27T15:39:25Z</time>
      </trkpt>
      <trkpt lat="50.0546" lon="2.13886">
        <ele>31</ele>
        <time>2024-03-27T15:39:26Z</time>
      </trkpt>
      <trkpt lat="50.05459" lon="2.13887">
        <ele>30.9</ele>
        <time>2024-03-27T15:39:27Z</time>
      </trkpt>
      <trkpt lat="50.05458" lon="2.13888">
        <ele>30.9</ele>
        <time>2024-03-27T15:39:28Z</time>
      </trkpt>
      <trkpt lat="50.05457" lon="2.13889">
        <ele>30.9</ele>
        <time>2024-03-27T15:39:29Z</time>
      </trkpt>
      <trkpt lat="50.05456" lon="2.1389">
        <ele>30.9</ele>
        <time>2024-03-27T15:39:30Z</time>
      </trkpt>
      <trkpt lat="50.05455" lon="2.13892">
        <ele>30.9</ele>
        <time>2024-03-27T15:39:31Z</time>
      </trkpt>
      <trkpt lat="50.05455" lon="2.13893">
        <ele>30.9</ele>
        <time>2024-03-27T15:39:32Z</time>
      </trkpt>
      <trkpt lat="50.05454" lon="2.13894">
        <ele>30.8</ele>
        <time>2024-03-27T15:39:33Z</time>
      </trkpt>
      <trkpt lat="50.05453" lon="2.13895">
        <ele>30.8</ele>
        <time>2024-03-27T15:39:34Z</time>
      </trkpt>
      <trkpt lat="50.05452" lon="2.13897">
        <ele>30.8</ele>
        <time>2024-03-27T15:39:35Z</time>
      </trkpt>
      <trkpt lat="50.05452" lon="2.13898">
        <ele>30.8</ele>
        <time>2024-03-27T15:39:36Z</time>
      </trkpt>
      <trkpt lat="50.05451" lon="2.13899">
        <ele>30.8</ele>
        <time>2024-03-27T15:39:37Z</time>
      </trkpt>
      <trkpt lat="50.0545" lon="2.139">
        <ele>30.8</ele>
        <time>2024-03-27T15:39:38Z</time>
      </trkpt>
      <trkpt lat="50.05449" lon="2.13901">
        <ele>30.8</ele>
        <time>2024-03-27T15:39:39Z</time>
      </trkpt>
      <trkpt lat="50.05448" lon="2.13902">
        <ele>30.7</ele>
        <time>2024-03-27T15:39:40Z</time>
      </trkpt>
      <trkpt lat="50.05447" lon="2.13903">
        <ele>30.7</ele>
        <time>2024-03-27T15:39:41Z</time>
      </trkpt>
      <trkpt lat="50.05446" lon="2.13905">
        <ele>30.7</ele>
        <time>2024-03-27T15:39:42Z</time>
      </trkpt>
      <trkpt lat="50.05446" lon="2.13906">
        <ele>30.7</ele>
        <time>2024-03-27T15:39:43Z</time>
      </trkpt>
      <trkpt lat="50.05445" lon="2.13907">
        <ele>30.7</ele>
        <time>2024-03-27T15:39:44Z</time>
      </trkpt>
      <trkpt lat="50.05444" lon="2.13909">
        <ele>30.7</ele>
        <time>2024-03-27T15:39:45Z</time>
      </trkpt>
      <trkpt lat="50.05444" lon="2.1391">
        <ele>30.7</ele>
        <time>2024-03-27T15:39:46Z</time>
      </trkpt>
      <trkpt lat="50.05443" lon="2.13911">
        <ele>30.6</ele>
        <time>2024-03-27T15:39:47Z</time>
      </trkpt>
      <trkpt lat="50.05442" lon="2.13912">
        <ele>30.6</ele>
        <time>2024-03-27T15:39:48Z</time>
      </trkpt>
      <trkpt lat="50.05441" lon="2.13913">
        <ele>30.6</ele>
        <time>2024-03-27T15:39:49Z</time>
      </trkpt>
      <trkpt lat="50.05441" lon="2.13914">
        <ele>30.6</ele>
        <time>2024-03-27T15:39:50Z</time>
      </trkpt>
      <trkpt lat="50.0544" lon="2.13916">
        <ele>30.6</ele>
        <time>2024-03-27T15:39:51Z</time>
      </trkpt>
      <trkpt lat="50.05439" lon="2.13916">
        <ele>30.6</ele>
        <time>2024-03-27T15:39:52Z</time>
      </trkpt>
      <trkpt lat="50.05439" lon="2.13917">
        <ele>30.6</ele>
        <time>2024-03-27T15:39:53Z</time>
      </trkpt>
      <trkpt lat="50.05438" lon="2.13918">
        <ele>30.6</ele>
        <time>2024-03-27T15:39:54Z</time>
      </trkpt>
      <trkpt lat="50.05437" lon="2.1392">
        <ele>30.6</ele>
        <time>2024-03-27T15:39:55Z</time>
      </trkpt>
      <trkpt lat="50.05436" lon="2.1392">
        <ele>30.6</ele>
        <time>2024-03-27T15:39:56Z</time>
      </trkpt>
      <trkpt lat="50.05435" lon="2.13921">
        <ele>30.5</ele>
        <time>2024-03-27T15:39:57Z</time>
      </trkpt>
      <trkpt lat="50.05434" lon="2.13922">
        <ele>30.5</ele>
        <time>2024-03-27T15:39:58Z</time>
      </trkpt>
      <trkpt lat="50.05433" lon="2.13923">
        <ele>30.5</ele>
        <time>2024-03-27T15:39:59Z</time>
      </trkpt>
      <trkpt lat="50.05432" lon="2.13924">
        <ele>30.5</ele>
        <time>2024-03-27T15:40:00Z</time>
      </trkpt>
      <trkpt lat="50.05432" lon="2.13925">
        <ele>30.5</ele>
        <time>2024-03-27T15:40:01Z</time>
      </trkpt>
      <trkpt lat="50.05431" lon="2.13926">
        <ele>30.5</ele>
        <time>2024-03-27T15:40:02Z</time>
      </trkpt>
      <trkpt lat="50.0543" lon="2.13927">
        <ele>30.4</ele>
        <time>2024-03-27T15:40:03Z</time>
      </trkpt>
      <trkpt lat="50.05429" lon="2.13928">
        <ele>30.4</ele>
        <time>2024-03-27T15:40:04Z</time>
      </trkpt>
      <trkpt lat="50.05428" lon="2.13929">
        <ele>30.4</ele>
        <time>2024-03-27T15:40:05Z</time>
      </trkpt>
      <trkpt lat="50.05427" lon="2.1393">
        <ele>30.4</ele>
        <time>2024-03-27T15:40:06Z</time>
      </trkpt>
      <trkpt lat="50.05426" lon="2.1393">
        <ele>30.4</ele>
        <time>2024-03-27T15:40:07Z</time>
      </trkpt>
      <trkpt lat="50.05425" lon="2.13931">
        <ele>30.4</ele>
        <time>2024-03-27T15:40:08Z</time>
      </trkpt>
      <trkpt lat="50.05424" lon="2.13931">
        <ele>30.3</ele>
        <time>2024-03-27T15:40:09Z</time>
      </trkpt>
      <trkpt lat="50.05422" lon="2.13932">
        <ele>30.3</ele>
        <time>2024-03-27T15:40:10Z</time>
      </trkpt>
      <trkpt lat="50.05421" lon="2.13932">
        <ele>30.3</ele>
        <time>2024-03-27T15:40:11Z</time>
      </trkpt>
      <trkpt lat="50.0542" lon="2.13932">
        <ele>30.3</ele>
        <time>2024-03-27T15:40:12Z</time>
      </trkpt>
      <trkpt lat="50.05419" lon="2.13932">
        <ele>30.3</ele>
        <time>2024-03-27T15:40:13Z</time>
      </trkpt>
      <trkpt lat="50.05418" lon="2.13932">
        <ele>30.3</ele>
        <time>2024-03-27T15:40:14Z</time>
      </trkpt>
      <trkpt lat="50.05417" lon="2.13932">
        <ele>30.3</ele>
        <time>2024-03-27T15:40:15Z</time>
      </trkpt>
      <trkpt lat="50.05416" lon="2.13933">
        <ele>30.3</ele>
        <time>2024-03-27T15:40:16Z</time>
      </trkpt>
      <trkpt lat="50.05415" lon="2.13933">
        <ele>30.2</ele>
        <time>2024-03-27T15:40:17Z</time>
      </trkpt>
      <trkpt lat="50.05414" lon="2.13933">
        <ele>30.2</ele>
        <time>2024-03-27T15:40:18Z</time>
      </trkpt>
      <trkpt lat="50.05413" lon="2.13933">
        <ele>30.2</ele>
        <time>2024-03-27T15:40:19Z</time>
      </trkpt>
      <trkpt lat="50.05412" lon="2.13932">
        <ele>30.2</ele>
        <time>2024-03-27T15:40:20Z</time>
      </trkpt>
      <trkpt lat="50.05411" lon="2.13932">
        <ele>30.2</ele>
        <time>2024-03-27T15:40:21Z</time>
      </trkpt>
      <trkpt lat="50.0541" lon="2.13931">
        <ele>30.2</ele>
        <time>2024-03-27T15:40:22Z</time>
      </trkpt>
      <trkpt lat="50.05409" lon="2.13931">
        <ele>30.2</ele>
        <time>2024-03-27T15:40:23Z</time>
      </trkpt>
      <trkpt lat="50.05408" lon="2.13931">
        <ele>30.2</ele>
        <time>2024-03-27T15:40:24Z</time>
      </trkpt>
      <trkpt lat="50.05407" lon="2.13932">
        <ele>30.1</ele>
        <time>2024-03-27T15:40:25Z</time>
      </trkpt>
      <trkpt lat="50.05406" lon="2.13932">
        <ele>30.1</ele>
        <time>2024-03-27T15:40:26Z</time>
      </trkpt>
      <trkpt lat="50.05405" lon="2.13932">
        <ele>30.1</ele>
        <time>2024-03-27T15:40:27Z</time>
      </trkpt>
      <trkpt lat="50.05404" lon="2.13932">
        <ele>30.1</ele>
        <time>2024-03-27T15:40:28Z</time>
      </trkpt>
      <trkpt lat="50.05403" lon="2.13932">
        <ele>30.1</ele>
        <time>2024-03-27T15:40:29Z</time>
      </trkpt>
      <trkpt lat="50.05402" lon="2.13932">
        <ele>30.1</ele>
        <time>2024-03-27T15:40:30Z</time>
      </trkpt>
      <trkpt lat="50.05401" lon="2.13932">
        <ele>30.1</ele>
        <time>2024-03-27T15:40:31Z</time>
      </trkpt>
      <trkpt lat="50.054" lon="2.13932">
        <ele>30.1</ele>
        <time>2024-03-27T15:40:32Z</time>
      </trkpt>
      <trkpt lat="50.05399" lon="2.13931">
        <ele>30.1</ele>
        <time>2024-03-27T15:40:33Z</time>
      </trkpt>
      <trkpt lat="50.05398" lon="2.13931">
        <ele>30.1</ele>
        <time>2024-03-27T15:40:34Z</time>
      </trkpt>
      <trkpt lat="50.05397" lon="2.13931">
        <ele>30.1</ele>
        <time>2024-03-27T15:40:35Z</time>
      </trkpt>
      <trkpt lat="50.05396" lon="2.13932">
        <ele>30</ele>
        <time>2024-03-27T15:40:36Z</time>
      </trkpt>
      <trkpt lat="50.05395" lon="2.13932">
        <ele>30</ele>
        <time>2024-03-27T15:40:37Z</time>
      </trkpt>
      <trkpt lat="50.05395" lon="2.13932">
        <ele>30</ele>
        <time>2024-03-27T15:40:38Z</time>
      </trkpt>
      <trkpt lat="50.05394" lon="2.13932">
        <ele>30</ele>
        <time>2024-03-27T15:40:39Z</time>
      </trkpt>
      <trkpt lat="50.05393" lon="2.13932">
        <ele>30</ele>
        <time>2024-03-27T15:40:40Z</time>
      </trkpt>
      <trkpt lat="50.05392" lon="2.13933">
        <ele>30</ele>
        <time>2024-03-27T15:40:41Z</time>
      </trkpt>
      <trkpt lat="50.05391" lon="2.13933">
        <ele>30</ele>
        <time>2024-03-27T15:40:42Z</time>
      </trkpt>
      <trkpt lat="50.0539" lon="2.13933">
        <ele>30</ele>
        <time>2024-03-27T15:40:43Z</time>
      </trkpt>
      <trkpt lat="50.05389" lon="2.13933">
        <ele>30</ele>
        <time>2024-03-27T15:40:44Z</time>
      </trkpt>
      <trkpt lat="50.05388" lon="2.13934">
        <ele>30</ele>
        <time>2024-03-27T15:40:45Z</time>
      </trkpt>
      <trkpt lat="50.05388" lon="2.13935">
        <ele>30</ele>
        <time>2024-03-27T15:40:46Z</time>
      </trkpt>
      <trkpt lat="50.05387" lon="2.13936">
        <ele>30</ele>
        <time>2024-03-27T15:40:47Z</time>
      </trkpt>
      <trkpt lat="50.05386" lon="2.13937">
        <ele>30</ele>
        <time>2024-03-27T15:40:48Z</time>
      </trkpt>
      <trkpt lat="50.05385" lon="2.13937">
        <ele>30</ele>
        <time>2024-03-27T15:40:49Z</time>
      </trkpt>
      <trkpt lat="50.05384" lon="2.13938">
        <ele>30</ele>
        <time>2024-03-27T15:40:50Z</time>
      </trkpt>
      <trkpt lat="50.05383" lon="2.13938">
        <ele>30</ele>
        <time>2024-03-27T15:40:51Z</time>
      </trkpt>
      <trkpt lat="50.05381" lon="2.13939">
        <ele>29.9</ele>
        <time>2024-03-27T15:40:52Z</time>
      </trkpt>
      <trkpt lat="50.0538" lon="2.13939">
        <ele>29.9</ele>
        <time>2024-03-27T15:40:53Z</time>
      </trkpt>
      <trkpt lat="50.05379" lon="2.1394">
        <ele>29.9</ele>
        <time>2024-03-27T15:40:54Z</time>
      </trkpt>
      <trkpt lat="50.05378" lon="2.13941">
        <ele>29.9</ele>
        <time>2024-03-27T15:40:55Z</time>
      </trkpt>
      <trkpt lat="50.05377" lon="2.13942">
        <ele>29.9</ele>
        <time>2024-03-27T15:40:56Z</time>
      </trkpt>
      <trkpt lat="50.05376" lon="2.13943">
        <ele>29.9</ele>
        <time>2024-03-27T15:40:57Z</time>
      </trkpt>
      <trkpt lat="50.05375" lon="2.13943">
        <ele>29.9</ele>
        <time>2024-03-27T15:40:58Z</time>
      </trkpt>
      <trkpt lat="50.05374" lon="2.13944">
        <ele>29.9</ele>
        <time>2024-03-27T15:40:59Z</time>
      </trkpt>
      <trkpt lat="50.05373" lon="2.13945">
        <ele>29.9</ele>
        <time>2024-03-27T15:41:00Z</time>
      </trkpt>
      <trkpt lat="50.05372" lon="2.13945">
        <ele>29.9</ele>
        <time>2024-03-27T15:41:01Z</time>
      </trkpt>
      <trkpt lat="50.05371" lon="2.13946">
        <ele>29.9</ele>
        <time>2024-03-27T15:41:02Z</time>
      </trkpt>
      <trkpt lat="50.0537" lon="2.13946">
        <ele>29.9</ele>
        <time>2024-03-27T15:41:03Z</time>
      </trkpt>
      <trkpt lat="50.05369" lon="2.13946">
        <ele>29.9</ele>
        <time>2024-03-27T15:41:04Z</time>
      </trkpt>
      <trkpt lat="50.05367" lon="2.13947">
        <ele>29.9</ele>
        <time>2024-03-27T15:41:05Z</time>
      </trkpt>
      <trkpt lat="50.05366" lon="2.13947">
        <ele>29.9</ele>
        <time>2024-03-27T15:41:06Z</time>
      </trkpt>
      <trkpt lat="50.05365" lon="2.13947">
        <ele>29.8</ele>
        <time>2024-03-27T15:41:07Z</time>
      </trkpt>
      <trkpt lat="50.05363" lon="2.13948">
        <ele>29.8</ele>
        <time>2024-03-27T15:41:08Z</time>
      </trkpt>
      <trkpt lat="50.05363" lon="2.13948">
        <ele>29.8</ele>
        <time>2024-03-27T15:41:09Z</time>
      </trkpt>
      <trkpt lat="50.05362" lon="2.13948">
        <ele>29.8</ele>
        <time>2024-03-27T15:41:10Z</time>
      </trkpt>
      <trkpt lat="50.0536" lon="2.13948">
        <ele>29.8</ele>
        <time>2024-03-27T15:41:11Z</time>
      </trkpt>
      <trkpt lat="50.05359" lon="2.13949">
        <ele>29.8</ele>
        <time>2024-03-27T15:41:12Z</time>
      </trkpt>
      <trkpt lat="50.05358" lon="2.13949">
        <ele>29.8</ele>
        <time>2024-03-27T15:41:13Z</time>
      </trkpt>
      <trkpt lat="50.05357" lon="2.13949">
        <ele>29.8</ele>
        <time>2024-03-27T15:41:14Z</time>
      </trkpt>
      <trkpt lat="50.05356" lon="2.13949">
        <ele>29.8</ele>
        <time>2024-03-27T15:41:15Z</time>
      </trkpt>
      <trkpt lat="50.05355" lon="2.13949">
        <ele>29.8</ele>
        <time>2024-03-27T15:41:16Z</time>
      </trkpt>
      <trkpt lat="50.05354" lon="2.13949">
        <ele>29.8</ele>
        <time>2024-03-27T15:41:17Z</time>
      </trkpt>
      <trkpt lat="50.05353" lon="2.13949">
        <ele>29.8</ele>
        <time>2024-03-27T15:41:18Z</time>
      </trkpt>
      <trkpt lat="50.05352" lon="2.13949">
        <ele>29.8</ele>
        <time>2024-03-27T15:41:19Z</time>
      </trkpt>
      <trkpt lat="50.05351" lon="2.13949">
        <ele>29.8</ele>
        <time>2024-03-27T15:41:20Z</time>
      </trkpt>
      <trkpt lat="50.0535" lon="2.1395">
        <ele>29.8</ele>
        <time>2024-03-27T15:41:21Z</time>
      </trkpt>
      <trkpt lat="50.05349" lon="2.1395">
        <ele>29.8</ele>
        <time>2024-03-27T15:41:22Z</time>
      </trkpt>
      <trkpt lat="50.05349" lon="2.1395">
        <ele>29.8</ele>
        <time>2024-03-27T15:41:23Z</time>
      </trkpt>
      <trkpt lat="50.05348" lon="2.1395">
        <ele>29.8</ele>
        <time>2024-03-27T15:41:24Z</time>
      </trkpt>
      <trkpt lat="50.05347" lon="2.13951">
        <ele>29.8</ele>
        <time>2024-03-27T15:41:25Z</time>
      </trkpt>
      <trkpt lat="50.05346" lon="2.13951">
        <ele>29.8</ele>
        <time>2024-03-27T15:41:26Z</time>
      </trkpt>
      <trkpt lat="50.05344" lon="2.13952">
        <ele>29.7</ele>
        <time>2024-03-27T15:41:27Z</time>
      </trkpt>
      <trkpt lat="50.05343" lon="2.13952">
        <ele>29.7</ele>
        <time>2024-03-27T15:41:28Z</time>
      </trkpt>
      <trkpt lat="50.05342" lon="2.13952">
        <ele>29.7</ele>
        <time>2024-03-27T15:41:29Z</time>
      </trkpt>
      <trkpt lat="50.05341" lon="2.13952">
        <ele>29.7</ele>
        <time>2024-03-27T15:41:30Z</time>
      </trkpt>
      <trkpt lat="50.0534" lon="2.13953">
        <ele>29.7</ele>
        <time>2024-03-27T15:41:31Z</time>
      </trkpt>
      <trkpt lat="50.05339" lon="2.13953">
        <ele>29.7</ele>
        <time>2024-03-27T15:41:32Z</time>
      </trkpt>
      <trkpt lat="50.05338" lon="2.13953">
        <ele>29.7</ele>
        <time>2024-03-27T15:41:33Z</time>
      </trkpt>
      <trkpt lat="50.05337" lon="2.13954">
        <ele>29.7</ele>
        <time>2024-03-27T15:41:34Z</time>
      </trkpt>
      <trkpt lat="50.05336" lon="2.13954">
        <ele>29.7</ele>
        <time>2024-03-27T15:41:35Z</time>
      </trkpt>
      <trkpt lat="50.05335" lon="2.13955">
        <ele>29.7</ele>
        <time>2024-03-27T15:41:36Z</time>
      </trkpt>
      <trkpt lat="50.05334" lon="2.13955">
        <ele>29.7</ele>
        <time>2024-03-27T15:41:37Z</time>
      </trkpt>
      <trkpt lat="50.05333" lon="2.13955">
        <ele>29.7</ele>
        <time>2024-03-27T15:41:38Z</time>
      </trkpt>
      <trkpt lat="50.05332" lon="2.13955">
        <ele>29.7</ele>
        <time>2024-03-27T15:41:39Z</time>
      </trkpt>
      <trkpt lat="50.05331" lon="2.13955">
        <ele>29.7</ele>
        <time>2024-03-27T15:41:40Z</time>
      </trkpt>
      <trkpt lat="50.0533" lon="2.13956">
        <ele>29.7</ele>
        <time>2024-03-27T15:41:41Z</time>
      </trkpt>
      <trkpt lat="50.05329" lon="2.13956">
        <ele>29.7</ele>
        <time>2024-03-27T15:41:42Z</time>
      </trkpt>
      <trkpt lat="50.05327" lon="2.13956">
        <ele>29.7</ele>
        <time>2024-03-27T15:41:43Z</time>
      </trkpt>
      <trkpt lat="50.05327" lon="2.13956">
        <ele>29.7</ele>
        <time>2024-03-27T15:41:44Z</time>
      </trkpt>
      <trkpt lat="50.05325" lon="2.13956">
        <ele>29.7</ele>
        <time>2024-03-27T15:41:45Z</time>
      </trkpt>
      <trkpt lat="50.05324" lon="2.13956">
        <ele>29.7</ele>
        <time>2024-03-27T15:41:46Z</time>
      </trkpt>
      <trkpt lat="50.05324" lon="2.13956">
        <ele>29.7</ele>
        <time>2024-03-27T15:41:47Z</time>
      </trkpt>
      <trkpt lat="50.05323" lon="2.13956">
        <ele>29.7</ele>
        <time>2024-03-27T15:41:48Z</time>
      </trkpt>
      <trkpt lat="50.05323" lon="2.13956">
        <ele>29.7</ele>
        <time>2024-03-27T15:41:49Z</time>
      </trkpt>
      <trkpt lat="50.05323" lon="2.13957">
        <ele>29.6</ele>
        <time>2024-03-27T15:41:50Z</time>
      </trkpt>
      <trkpt lat="50.05323" lon="2.13957">
        <ele>29.6</ele>
        <time>2024-03-27T15:41:51Z</time>
      </trkpt>
      <trkpt lat="50.05323" lon="2.13957">
        <ele>29.6</ele>
        <time>2024-03-27T15:41:52Z</time>
      </trkpt>
      <trkpt lat="50.05323" lon="2.13957">
        <ele>29.6</ele>
        <time>2024-03-27T15:41:53Z</time>
      </trkpt>
      <trkpt lat="50.05323" lon="2.13958">
        <ele>29.6</ele>
        <time>2024-03-27T15:41:54Z</time>
      </trkpt>
      <trkpt lat="50.05323" lon="2.13958">
        <ele>29.6</ele>
        <time>2024-03-27T15:41:55Z</time>
      </trkpt>
      <trkpt lat="50.05323" lon="2.13958">
        <ele>29.6</ele>
        <time>2024-03-27T15:41:56Z</time>
      </trkpt>
      <trkpt lat="50.05323" lon="2.13959">
        <ele>29.6</ele>
        <time>2024-03-27T15:41:57Z</time>
      </trkpt>
      <trkpt lat="50.05323" lon="2.13959">
        <ele>29.6</ele>
        <time>2024-03-27T15:41:58Z</time>
      </trkpt>
      <trkpt lat="50.05323" lon="2.13959">
        <ele>29.6</ele>
        <time>2024-03-27T15:41:59Z</time>
      </trkpt>
      <trkpt lat="50.05323" lon="2.13959">
        <ele>29.6</ele>
        <time>2024-03-27T15:42:00Z</time>
      </trkpt>
      <trkpt lat="50.05323" lon="2.13959">
        <ele>29.6</ele>
        <time>2024-03-27T15:42:01Z</time>
      </trkpt>
      <trkpt lat="50.05323" lon="2.13959">
        <ele>29.6</ele>
        <time>2024-03-27T15:42:02Z</time>
      </trkpt>
      <trkpt lat="50.05323" lon="2.13959">
        <ele>29.6</ele>
        <time>2024-03-27T15:42:03Z</time>
      </trkpt>
      <trkpt lat="50.05323" lon="2.13959">
        <ele>29.6</ele>
        <time>2024-03-27T15:42:04Z</time>
      </trkpt>
      <trkpt lat="50.05323" lon="2.13959">
        <ele>29.6</ele>
        <time>2024-03-27T15:42:05Z</time>
      </trkpt>
      <trkpt lat="50.05323" lon="2.13961">
        <ele>29.6</ele>
        <time>2024-03-27T15:42:06Z</time>
      </trkpt>
      <trkpt lat="50.05323" lon="2.13961">
        <ele>29.6</ele>
        <time>2024-03-27T15:42:07Z</time>
      </trkpt>
      <trkpt lat="50.05322" lon="2.13961">
        <ele>29.6</ele>
        <time>2024-03-27T15:42:08Z</time>
      </trkpt>
      <trkpt lat="50.05322" lon="2.13961">
        <ele>29.6</ele>
        <time>2024-03-27T15:42:09Z</time>
      </trkpt>
      <trkpt lat="50.05322" lon="2.13961">
        <ele>29.6</ele>
        <time>2024-03-27T15:42:10Z</time>
      </trkpt>
      <trkpt lat="50.05321" lon="2.13961">
        <ele>29.6</ele>
        <time>2024-03-27T15:42:11Z</time>
      </trkpt>
      <trkpt lat="50.05321" lon="2.13961">
        <ele>29.6</ele>
        <time>2024-03-27T15:42:12Z</time>
      </trkpt>
      <trkpt lat="50.0532" lon="2.13962">
        <ele>29.6</ele>
        <time>2024-03-27T15:42:13Z</time>
      </trkpt>
      <trkpt lat="50.0532" lon="2.13963">
        <ele>29.6</ele>
        <time>2024-03-27T15:42:14Z</time>
      </trkpt>
      <trkpt lat="50.05319" lon="2.13964">
        <ele>29.6</ele>
        <time>2024-03-27T15:42:15Z</time>
      </trkpt>
      <trkpt lat="50.05319" lon="2.13965">
        <ele>29.6</ele>
        <time>2024-03-27T15:42:16Z</time>
      </trkpt>
      <trkpt lat="50.05319" lon="2.13967">
        <ele>29.6</ele>
        <time>2024-03-27T15:42:17Z</time>
      </trkpt>
      <trkpt lat="50.05319" lon="2.13968">
        <ele>29.6</ele>
        <time>2024-03-27T15:42:18Z</time>
      </trkpt>
      <trkpt lat="50.05319" lon="2.13969">
        <ele>29.6</ele>
        <time>2024-03-27T15:42:19Z</time>
      </trkpt>
      <trkpt lat="50.05318" lon="2.13971">
        <ele>29.6</ele>
        <time>2024-03-27T15:42:20Z</time>
      </trkpt>
      <trkpt lat="50.05318" lon="2.13973">
        <ele>29.6</ele>
        <time>2024-03-27T15:42:21Z</time>
      </trkpt>
      <trkpt lat="50.05318" lon="2.13974">
        <ele>29.6</ele>
        <time>2024-03-27T15:42:22Z</time>
      </trkpt>
      <trkpt lat="50.05318" lon="2.13975">
        <ele>29.6</ele>
        <time>2024-03-27T15:42:23Z</time>
      </trkpt>
      <trkpt lat="50.05318" lon="2.13976">
        <ele>29.6</ele>
        <time>2024-03-27T15:42:24Z</time>
      </trkpt>
      <trkpt lat="50.05317" lon="2.13978">
        <ele>29.6</ele>
        <time>2024-03-27T15:42:25Z</time>
      </trkpt>
      <trkpt lat="50.05316" lon="2.13978">
        <ele>29.6</ele>
        <time>2024-03-27T15:42:26Z</time>
      </trkpt>
      <trkpt lat="50.05315" lon="2.13978">
        <ele>29.6</ele>
        <time>2024-03-27T15:42:27Z</time>
      </trkpt>
      <trkpt lat="50.05314" lon="2.13977">
        <ele>29.6</ele>
        <time>2024-03-27T15:42:28Z</time>
      </trkpt>
      <trkpt lat="50.05313" lon="2.13977">
        <ele>29.6</ele>
        <time>2024-03-27T15:42:29Z</time>
      </trkpt>
      <trkpt lat="50.05313" lon="2.13977">
        <ele>29.6</ele>
        <time>2024-03-27T15:42:30Z</time>
      </trkpt>
      <trkpt lat="50.05312" lon="2.13977">
        <ele>29.6</ele>
        <time>2024-03-27T15:42:31Z</time>
      </trkpt>
      <trkpt lat="50.05311" lon="2.13976">
        <ele>29.6</ele>
        <time>2024-03-27T15:42:32Z</time>
      </trkpt>
      <trkpt lat="50.0531" lon="2.13976">
        <ele>29.6</ele>
        <time>2024-03-27T15:42:33Z</time>
      </trkpt>
      <trkpt lat="50.05309" lon="2.13976">
        <ele>29.6</ele>
        <time>2024-03-27T15:42:34Z</time>
      </trkpt>
      <trkpt lat="50.05308" lon="2.13976">
        <ele>29.6</ele>
        <time>2024-03-27T15:42:35Z</time>
      </trkpt>
      <trkpt lat="50.05307" lon="2.13975">
        <ele>29.6</ele>
        <time>2024-03-27T15:42:36Z</time>
      </trkpt>
      <trkpt lat="50.05306" lon="2.13975">
        <ele>29.5</ele>
        <time>2024-03-27T15:42:37Z</time>
      </trkpt>
      <trkpt lat="50.05305" lon="2.13975">
        <ele>29.5</ele>
        <time>2024-03-27T15:42:38Z</time>
      </trkpt>
      <trkpt lat="50.05304" lon="2.13975">
        <ele>29.5</ele>
        <time>2024-03-27T15:42:39Z</time>
      </trkpt>
      <trkpt lat="50.05303" lon="2.13975">
        <ele>29.5</ele>
        <time>2024-03-27T15:42:40Z</time>
      </trkpt>
      <trkpt lat="50.05302" lon="2.13975">
        <ele>29.5</ele>
        <time>2024-03-27T15:42:41Z</time>
      </trkpt>
      <trkpt lat="50.05301" lon="2.13974">
        <ele>29.5</ele>
        <time>2024-03-27T15:42:42Z</time>
      </trkpt>
      <trkpt lat="50.053" lon="2.13974">
        <ele>29.5</ele>
        <time>2024-03-27T15:42:43Z</time>
      </trkpt>
      <trkpt lat="50.05299" lon="2.13974">
        <ele>29.5</ele>
        <time>2024-03-27T15:42:44Z</time>
      </trkpt>
      <trkpt lat="50.05298" lon="2.13974">
        <ele>29.5</ele>
        <time>2024-03-27T15:42:45Z</time>
      </trkpt>
      <trkpt lat="50.05297" lon="2.13975">
        <ele>29.5</ele>
        <time>2024-03-27T15:42:46Z</time>
      </trkpt>
      <trkpt lat="50.05296" lon="2.13975">
        <ele>29.5</ele>
        <time>2024-03-27T15:42:47Z</time>
      </trkpt>
      <trkpt lat="50.05295" lon="2.13975">
        <ele>29.5</ele>
        <time>2024-03-27T15:42:48Z</time>
      </trkpt>
      <trkpt lat="50.05294" lon="2.13975">
        <ele>29.5</ele>
        <time>2024-03-27T15:42:49Z</time>
      </trkpt>
      <trkpt lat="50.05293" lon="2.13975">
        <ele>29.5</ele>
        <time>2024-03-27T15:42:50Z</time>
      </trkpt>
      <trkpt lat="50.05292" lon="2.13976">
        <ele>29.5</ele>
        <time>2024-03-27T15:42:51Z</time>
      </trkpt>
      <trkpt lat="50.0529" lon="2.13976">
        <ele>29.5</ele>
        <time>2024-03-27T15:42:52Z</time>
      </trkpt>
      <trkpt lat="50.05289" lon="2.13976">
        <ele>29.5</ele>
        <time>2024-03-27T15:42:53Z</time>
      </trkpt>
      <trkpt lat="50.05288" lon="2.13977">
        <ele>29.5</ele>
        <time>2024-03-27T15:42:54Z</time>
      </trkpt>
      <trkpt lat="50.05286" lon="2.13978">
        <ele>29.5</ele>
        <time>2024-03-27T15:42:55Z</time>
      </trkpt>
      <trkpt lat="50.05285" lon="2.13978">
        <ele>29.5</ele>
        <time>2024-03-27T15:42:56Z</time>
      </trkpt>
      <trkpt lat="50.05285" lon="2.13978">
        <ele>29.5</ele>
        <time>2024-03-27T15:42:57Z</time>
      </trkpt>
      <trkpt lat="50.05283" lon="2.13979">
        <ele>29.5</ele>
        <time>2024-03-27T15:42:58Z</time>
      </trkpt>
      <trkpt lat="50.05282" lon="2.13979">
        <ele>29.5</ele>
        <time>2024-03-27T15:42:59Z</time>
      </trkpt>
      <trkpt lat="50.05281" lon="2.13979">
        <ele>29.5</ele>
        <time>2024-03-27T15:43:00Z</time>
      </trkpt>
      <trkpt lat="50.05279" lon="2.13979">
        <ele>29.5</ele>
        <time>2024-03-27T15:43:01Z</time>
      </trkpt>
      <trkpt lat="50.05278" lon="2.13979">
        <ele>29.5</ele>
        <time>2024-03-27T15:43:02Z</time>
      </trkpt>
      <trkpt lat="50.05278" lon="2.13978">
        <ele>29.5</ele>
        <time>2024-03-27T15:43:03Z</time>
      </trkpt>
      <trkpt lat="50.05277" lon="2.13979">
        <ele>29.5</ele>
        <time>2024-03-27T15:43:04Z</time>
      </trkpt>
      <trkpt lat="50.05276" lon="2.13979">
        <ele>29.5</ele>
        <time>2024-03-27T15:43:05Z</time>
      </trkpt>
      <trkpt lat="50.05275" lon="2.13979">
        <ele>29.5</ele>
        <time>2024-03-27T15:43:06Z</time>
      </trkpt>
      <trkpt lat="50.05274" lon="2.13981">
        <ele>29.5</ele>
        <time>2024-03-27T15:43:07Z</time>
      </trkpt>
      <trkpt lat="50.05274" lon="2.13982">
        <ele>29.5</ele>
        <time>2024-03-27T15:43:08Z</time>
      </trkpt>
      <trkpt lat="50.05274" lon="2.13984">
        <ele>29.5</ele>
        <time>2024-03-27T15:43:09Z</time>
      </trkpt>
      <trkpt lat="50.05274" lon="2.13985">
        <ele>29.5</ele>
        <time>2024-03-27T15:43:10Z</time>
      </trkpt>
      <trkpt lat="50.05273" lon="2.13987">
        <ele>29.5</ele>
        <time>2024-03-27T15:43:11Z</time>
      </trkpt>
      <trkpt lat="50.05272" lon="2.13988">
        <ele>29.5</ele>
        <time>2024-03-27T15:43:12Z</time>
      </trkpt>
      <trkpt lat="50.05271" lon="2.13988">
        <ele>29.4</ele>
        <time>2024-03-27T15:43:13Z</time>
      </trkpt>
      <trkpt lat="50.0527" lon="2.13988">
        <ele>29.4</ele>
        <time>2024-03-27T15:43:14Z</time>
      </trkpt>
      <trkpt lat="50.05269" lon="2.13988">
        <ele>29.4</ele>
        <time>2024-03-27T15:43:15Z</time>
      </trkpt>
      <trkpt lat="50.05268" lon="2.13989">
        <ele>29.4</ele>
        <time>2024-03-27T15:43:16Z</time>
      </trkpt>
      <trkpt lat="50.05268" lon="2.1399">
        <ele>29.4</ele>
        <time>2024-03-27T15:43:17Z</time>
      </trkpt>
      <trkpt lat="50.05267" lon="2.13991">
        <ele>29.4</ele>
        <time>2024-03-27T15:43:18Z</time>
      </trkpt>
      <trkpt lat="50.05266" lon="2.13991">
        <ele>29.4</ele>
        <time>2024-03-27T15:43:19Z</time>
      </trkpt>
      <trkpt lat="50.05266" lon="2.13992">
        <ele>29.4</ele>
        <time>2024-03-27T15:43:20Z</time>
      </trkpt>
      <trkpt lat="50.05265" lon="2.13993">
        <ele>29.4</ele>
        <time>2024-03-27T15:43:21Z</time>
      </trkpt>
      <trkpt lat="50.05265" lon="2.13994">
        <ele>29.4</ele>
        <time>2024-03-27T15:43:22Z</time>
      </trkpt>
      <trkpt lat="50.05264" lon="2.13995">
        <ele>29.4</ele>
        <time>2024-03-27T15:43:23Z</time>
      </trkpt>
      <trkpt lat="50.05263" lon="2.13996">
        <ele>29.4</ele>
        <time>2024-03-27T15:43:24Z</time>
      </trkpt>
      <trkpt lat="50.05263" lon="2.13997">
        <ele>29.4</ele>
        <time>2024-03-27T15:43:25Z</time>
      </trkpt>
      <trkpt lat="50.05263" lon="2.13998">
        <ele>29.4</ele>
        <time>2024-03-27T15:43:26Z</time>
      </trkpt>
      <trkpt lat="50.05263" lon="2.13998">
        <ele>29.4</ele>
        <time>2024-03-27T15:43:27Z</time>
      </trkpt>
      <trkpt lat="50.05263" lon="2.13998">
        <ele>29.4</ele>
        <time>2024-03-27T15:43:28Z</time>
      </trkpt>
      <trkpt lat="50.05263" lon="2.13998">
        <ele>29.4</ele>
        <time>2024-03-27T15:43:29Z</time>
      </trkpt>
      <trkpt lat="50.05263" lon="2.13998">
        <ele>29.4</ele>
        <time>2024-03-27T15:43:30Z</time>
      </trkpt>
      <trkpt lat="50.05264" lon="2.13998">
        <ele>29.4</ele>
        <time>2024-03-27T15:43:31Z</time>
      </trkpt>
      <trkpt lat="50.05264" lon="2.13998">
        <ele>29.4</ele>
        <time>2024-03-27T15:43:32Z</time>
      </trkpt>
      <trkpt lat="50.05264" lon="2.13998">
        <ele>29.4</ele>
        <time>2024-03-27T15:43:33Z</time>
      </trkpt>
      <trkpt lat="50.05264" lon="2.13998">
        <ele>29.4</ele>
        <time>2024-03-27T15:43:34Z</time>
      </trkpt>
      <trkpt lat="50.05264" lon="2.13998">
        <ele>29.4</ele>
        <time>2024-03-27T15:43:35Z</time>
      </trkpt>
      <trkpt lat="50.05264" lon="2.13998">
        <ele>29.4</ele>
        <time>2024-03-27T15:43:36Z</time>
      </trkpt>
      <trkpt lat="50.05264" lon="2.13998">
        <ele>29.4</ele>
        <time>2024-03-27T15:43:37Z</time>
      </trkpt>
      <trkpt lat="50.05264" lon="2.13998">
        <ele>29.4</ele>
        <time>2024-03-27T15:43:38Z</time>
      </trkpt>
      <trkpt lat="50.05264" lon="2.13998">
        <ele>29.4</ele>
        <time>2024-03-27T15:43:39Z</time>
      </trkpt>
      <trkpt lat="50.05264" lon="2.13998">
        <ele>29.4</ele>
        <time>2024-03-27T15:43:40Z</time>
      </trkpt>
      <trkpt lat="50.05264" lon="2.13998">
        <ele>29.4</ele>
        <time>2024-03-27T15:43:41Z</time>
      </trkpt>
      <trkpt lat="50.05265" lon="2.13998">
        <ele>29.4</ele>
        <time>2024-03-27T15:43:42Z</time>
      </trkpt>
      <trkpt lat="50.05265" lon="2.13998">
        <ele>29.4</ele>
        <time>2024-03-27T15:43:43Z</time>
      </trkpt>
      <trkpt lat="50.05265" lon="2.13998">
        <ele>29.4</ele>
        <time>2024-03-27T15:43:44Z</time>
      </trkpt>
      <trkpt lat="50.05265" lon="2.13998">
        <ele>29.4</ele>
        <time>2024-03-27T15:43:45Z</time>
      </trkpt>
      <trkpt lat="50.05265" lon="2.13998">
        <ele>29.4</ele>
        <time>2024-03-27T15:43:46Z</time>
      </trkpt>
      <trkpt lat="50.05265" lon="2.13998">
        <ele>29.4</ele>
        <time>2024-03-27T15:43:47Z</time>
      </trkpt>
      <trkpt lat="50.05265" lon="2.13998">
        <ele>29.4</ele>
        <time>2024-03-27T15:43:48Z</time>
      </trkpt>
      <trkpt lat="50.05265" lon="2.13998">
        <ele>29.4</ele>
        <time>2024-03-27T15:43:49Z</time>
      </trkpt>
      <trkpt lat="50.05265" lon="2.13998">
        <ele>29.4</ele>
        <time>2024-03-27T15:43:50Z</time>
      </trkpt>
      <trkpt lat="50.05265" lon="2.13998">
        <ele>29.4</ele>
        <time>2024-03-27T15:43:51Z</time>
      </trkpt>
      <trkpt lat="50.05265" lon="2.13998">
        <ele>29.4</ele>
        <time>2024-03-27T15:43:52Z</time>
      </trkpt>
      <trkpt lat="50.05266" lon="2.13998">
        <ele>29.4</ele>
        <time>2024-03-27T15:43:53Z</time>
      </trkpt>
      <trkpt lat="50.05266" lon="2.13998">
        <ele>29.4</ele>
        <time>2024-03-27T15:43:54Z</time>
      </trkpt>
      <trkpt lat="50.05266" lon="2.13999">
        <ele>29.4</ele>
        <time>2024-03-27T15:43:55Z</time>
      </trkpt>
      <trkpt lat="50.05266" lon="2.13999">
        <ele>29.4</ele>
        <time>2024-03-27T15:43:56Z</time>
      </trkpt>
      <trkpt lat="50.05266" lon="2.13999">
        <ele>29.4</ele>
        <time>2024-03-27T15:43:57Z</time>
      </trkpt>
      <trkpt lat="50.05266" lon="2.13999">
        <ele>29.4</ele>
        <time>2024-03-27T15:43:58Z</time>
      </trkpt>
      <trkpt lat="50.05266" lon="2.13999">
        <ele>29.4</ele>
        <time>2024-03-27T15:43:59Z</time>
      </trkpt>
      <trkpt lat="50.05266" lon="2.13999">
        <ele>29.4</ele>
        <time>2024-03-27T15:44:00Z</time>
      </trkpt>
      <trkpt lat="50.05266" lon="2.13999">
        <ele>29.4</ele>
        <time>2024-03-27T15:44:01Z</time>
      </trkpt>
      <trkpt lat="50.05266" lon="2.13999">
        <ele>29.4</ele>
        <time>2024-03-27T15:44:02Z</time>
      </trkpt>
      <trkpt lat="50.05267" lon="2.13999">
        <ele>29.4</ele>
        <time>2024-03-27T15:44:03Z</time>
      </trkpt>
      <trkpt lat="50.05267" lon="2.13999">
        <ele>29.4</ele>
        <time>2024-03-27T15:44:04Z</time>
      </trkpt>
      <trkpt lat="50.05267" lon="2.13999">
        <ele>29.4</ele>
        <time>2024-03-27T15:44:05Z</time>
      </trkpt>
      <trkpt lat="50.05267" lon="2.13999">
        <ele>29.4</ele>
        <time>2024-03-27T15:44:06Z</time>
      </trkpt>
      <trkpt lat="50.05267" lon="2.13999">
        <ele>29.4</ele>
        <time>2024-03-27T15:44:07Z</time>
      </trkpt>
      <trkpt lat="50.05267" lon="2.13999">
        <ele>29.4</ele>
        <time>2024-03-27T15:44:08Z</time>
      </trkpt>
      <trkpt lat="50.05267" lon="2.13999">
        <ele>29.4</ele>
        <time>2024-03-27T15:44:09Z</time>
      </trkpt>
      <trkpt lat="50.05267" lon="2.13999">
        <ele>29.4</ele>
        <time>2024-03-27T15:44:10Z</time>
      </trkpt>
      <trkpt lat="50.05267" lon="2.13999">
        <ele>29.4</ele>
        <time>2024-03-27T15:44:11Z</time>
      </trkpt>
      <trkpt lat="50.05267" lon="2.13999">
        <ele>29.4</ele>
        <time>2024-03-27T15:44:12Z</time>
      </trkpt>
      <trkpt lat="50.05267" lon="2.13999">
        <ele>29.4</ele>
        <time>2024-03-27T15:44:13Z</time>
      </trkpt>
      <trkpt lat="50.05268" lon="2.13999">
        <ele>29.4</ele>
        <time>2024-03-27T15:44:14Z</time>
      </trkpt>
      <trkpt lat="50.05268" lon="2.13999">
        <ele>29.4</ele>
        <time>2024-03-27T15:44:15Z</time>
      </trkpt>
      <trkpt lat="50.05268" lon="2.13999">
        <ele>29.4</ele>
        <time>2024-03-27T15:44:16Z</time>
      </trkpt>
      <trkpt lat="50.05268" lon="2.13999">
        <ele>29.4</ele>
        <time>2024-03-27T15:44:17Z</time>
      </trkpt>
      <trkpt lat="50.0527" lon="2.13999">
        <ele>29.4</ele>
        <time>2024-03-27T15:44:18Z</time>
      </trkpt>
      <trkpt lat="50.0527" lon="2.13999">
        <ele>29.4</ele>
        <time>2024-03-27T15:44:19Z</time>
      </trkpt>
      <trkpt lat="50.05271" lon="2.13999">
        <ele>29.4</ele>
        <time>2024-03-27T15:44:20Z</time>
      </trkpt>
      <trkpt lat="50.05271" lon="2.14">
        <ele>29.4</ele>
        <time>2024-03-27T15:44:21Z</time>
      </trkpt>
      <trkpt lat="50.05271" lon="2.14">
        <ele>29.4</ele>
        <time>2024-03-27T15:44:22Z</time>
      </trkpt>
      <trkpt lat="50.05271" lon="2.14">
        <ele>29.4</ele>
        <time>2024-03-27T15:44:23Z</time>
      </trkpt>
      <trkpt lat="50.05271" lon="2.14">
        <ele>29.4</ele>
        <time>2024-03-27T15:44:24Z</time>
      </trkpt>
      <trkpt lat="50.0527" lon="2.14">
        <ele>29.4</ele>
        <time>2024-03-27T15:44:25Z</time>
      </trkpt>
      <trkpt lat="50.0527" lon="2.14">
        <ele>29.4</ele>
        <time>2024-03-27T15:44:26Z</time>
      </trkpt>
      <trkpt lat="50.0527" lon="2.14">
        <ele>29.4</ele>
        <time>2024-03-27T15:44:28Z</time>
      </trkpt>
      <trkpt lat="50.0527" lon="2.14">
        <ele>29.4</ele>
        <time>2024-03-27T15:44:29Z</time>
      </trkpt>
      <trkpt lat="50.0527" lon="2.14">
        <ele>29.4</ele>
        <time>2024-03-27T15:44:30Z</time>
      </trkpt>
      <trkpt lat="50.0527" lon="2.14">
        <ele>29.4</ele>
        <time>2024-03-27T15:44:31Z</time>
      </trkpt>
      <trkpt lat="50.0527" lon="2.14">
        <ele>29.4</ele>
        <time>2024-03-27T15:44:32Z</time>
      </trkpt>
      <trkpt lat="50.0527" lon="2.14">
        <ele>29.4</ele>
        <time>2024-03-27T15:44:33Z</time>
      </trkpt>
      <trkpt lat="50.0527" lon="2.14">
        <ele>29.4</ele>
        <time>2024-03-27T15:44:34Z</time>
      </trkpt>
      <trkpt lat="50.05269" lon="2.14">
        <ele>29.4</ele>
        <time>2024-03-27T15:44:35Z</time>
      </trkpt>
      <trkpt lat="50.05269" lon="2.14">
        <ele>29.4</ele>
        <time>2024-03-27T15:44:36Z</time>
      </trkpt>
      <trkpt lat="50.05269" lon="2.14">
        <ele>29.4</ele>
        <time>2024-03-27T15:44:37Z</time>
      </trkpt>
      <trkpt lat="50.05269" lon="2.14">
        <ele>29.4</ele>
        <time>2024-03-27T15:44:38Z</time>
      </trkpt>
      <trkpt lat="50.05269" lon="2.14">
        <ele>29.4</ele>
        <time>2024-03-27T15:44:40Z</time>
      </trkpt>
      <trkpt lat="50.05269" lon="2.14">
        <ele>29.4</ele>
        <time>2024-03-27T15:44:41Z</time>
      </trkpt>
      <trkpt lat="50.05269" lon="2.14">
        <ele>29.4</ele>
        <time>2024-03-27T15:44:42Z</time>
      </trkpt>
      <trkpt lat="50.05269" lon="2.14">
        <ele>29.4</ele>
        <time>2024-03-27T15:44:43Z</time>
      </trkpt>
      <trkpt lat="50.05269" lon="2.14">
        <ele>29.4</ele>
        <time>2024-03-27T15:44:44Z</time>
      </trkpt>
      <trkpt lat="50.05269" lon="2.14">
        <ele>29.4</ele>
        <time>2024-03-27T15:44:45Z</time>
      </trkpt>
      <trkpt lat="50.05268" lon="2.14">
        <ele>29.4</ele>
        <time>2024-03-27T15:44:46Z</time>
      </trkpt>
      <trkpt lat="50.05268" lon="2.14">
        <ele>29.4</ele>
        <time>2024-03-27T15:44:47Z</time>
      </trkpt>
      <trkpt lat="50.05268" lon="2.14">
        <ele>29.4</ele>
        <time>2024-03-27T15:44:48Z</time>
      </trkpt>
      <trkpt lat="50.05268" lon="2.14">
        <ele>29.4</ele>
        <time>2024-03-27T15:44:49Z</time>
      </trkpt>
      <trkpt lat="50.05268" lon="2.14">
        <ele>29.4</ele>
        <time>2024-03-27T15:44:50Z</time>
      </trkpt>
      <trkpt lat="50.05268" lon="2.14">
        <ele>29.4</ele>
        <time>2024-03-27T15:44:51Z</time>
      </trkpt>
      <trkpt lat="50.05268" lon="2.14">
        <ele>29.4</ele>
        <time>2024-03-27T15:44:52Z</time>
      </trkpt>
      <trkpt lat="50.05268" lon="2.14">
        <ele>29.4</ele>
        <time>2024-03-27T15:44:53Z</time>
      </trkpt>
      <trkpt lat="50.05268" lon="2.14">
        <ele>29.4</ele>
        <time>2024-03-27T15:44:54Z</time>
      </trkpt>
      <trkpt lat="50.05267" lon="2.14">
        <ele>29.4</ele>
        <time>2024-03-27T15:44:55Z</time>
      </trkpt>
      <trkpt lat="50.05267" lon="2.14">
        <ele>29.4</ele>
        <time>2024-03-27T15:44:56Z</time>
      </trkpt>
      <trkpt lat="50.05267" lon="2.14">
        <ele>29.4</ele>
        <time>2024-03-27T15:44:57Z</time>
      </trkpt>
      <trkpt lat="50.05267" lon="2.14">
        <ele>29.4</ele>
        <time>2024-03-27T15:44:58Z</time>
      </trkpt>
      <trkpt lat="50.05266" lon="2.14">
        <ele>29.4</ele>
        <time>2024-03-27T15:44:59Z</time>
      </trkpt>
      <trkpt lat="50.05265" lon="2.14">
        <ele>29.4</ele>
        <time>2024-03-27T15:45:00Z</time>
      </trkpt>
      <trkpt lat="50.05264" lon="2.14001">
        <ele>29.4</ele>
        <time>2024-03-27T15:45:01Z</time>
      </trkpt>
      <trkpt lat="50.05263" lon="2.14002">
        <ele>29.4</ele>
        <time>2024-03-27T15:45:02Z</time>
      </trkpt>
      <trkpt lat="50.05262" lon="2.14002">
        <ele>29.4</ele>
        <time>2024-03-27T15:45:03Z</time>
      </trkpt>
      <trkpt lat="50.05261" lon="2.14003">
        <ele>29.4</ele>
        <time>2024-03-27T15:45:04Z</time>
      </trkpt>
      <trkpt lat="50.0526" lon="2.14004">
        <ele>29.4</ele>
        <time>2024-03-27T15:45:05Z</time>
      </trkpt>
      <trkpt lat="50.05259" lon="2.14006">
        <ele>29.4</ele>
        <time>2024-03-27T15:45:06Z</time>
      </trkpt>
      <trkpt lat="50.05258" lon="2.14006">
        <ele>29.4</ele>
        <time>2024-03-27T15:45:07Z</time>
      </trkpt>
      <trkpt lat="50.05256" lon="2.14007">
        <ele>29.4</ele>
        <time>2024-03-27T15:45:08Z</time>
      </trkpt>
      <trkpt lat="50.05256" lon="2.14007">
        <ele>29.4</ele>
        <time>2024-03-27T15:45:09Z</time>
      </trkpt>
      <trkpt lat="50.05255" lon="2.14007">
        <ele>29.4</ele>
        <time>2024-03-27T15:45:10Z</time>
      </trkpt>
      <trkpt lat="50.05253" lon="2.14008">
        <ele>29.4</ele>
        <time>2024-03-27T15:45:11Z</time>
      </trkpt>
      <trkpt lat="50.05252" lon="2.14009">
        <ele>29.4</ele>
        <time>2024-03-27T15:45:12Z</time>
      </trkpt>
      <trkpt lat="50.05251" lon="2.14009">
        <ele>29.4</ele>
        <time>2024-03-27T15:45:13Z</time>
      </trkpt>
      <trkpt lat="50.0525" lon="2.14009">
        <ele>29.4</ele>
        <time>2024-03-27T15:45:14Z</time>
      </trkpt>
      <trkpt lat="50.05249" lon="2.14009">
        <ele>29.4</ele>
        <time>2024-03-27T15:45:15Z</time>
      </trkpt>
      <trkpt lat="50.05248" lon="2.14009">
        <ele>29.4</ele>
        <time>2024-03-27T15:45:16Z</time>
      </trkpt>
      <trkpt lat="50.05246" lon="2.1401">
        <ele>29.4</ele>
        <time>2024-03-27T15:45:17Z</time>
      </trkpt>
      <trkpt lat="50.05246" lon="2.1401">
        <ele>29.4</ele>
        <time>2024-03-27T15:45:18Z</time>
      </trkpt>
      <trkpt lat="50.05245" lon="2.14011">
        <ele>29.4</ele>
        <time>2024-03-27T15:45:19Z</time>
      </trkpt>
      <trkpt lat="50.05244" lon="2.14011">
        <ele>29.4</ele>
        <time>2024-03-27T15:45:20Z</time>
      </trkpt>
      <trkpt lat="50.05241" lon="2.14013">
        <ele>29.4</ele>
        <time>2024-03-27T15:45:21Z</time>
      </trkpt>
      <trkpt lat="50.0524" lon="2.14013">
        <ele>29.4</ele>
        <time>2024-03-27T15:45:22Z</time>
      </trkpt>
      <trkpt lat="50.05237" lon="2.14014">
        <ele>29.4</ele>
        <time>2024-03-27T15:45:23Z</time>
      </trkpt>
      <trkpt lat="50.05236" lon="2.14015">
        <ele>29.4</ele>
        <time>2024-03-27T15:45:24Z</time>
      </trkpt>
      <trkpt lat="50.05234" lon="2.14018">
        <ele>29.4</ele>
        <time>2024-03-27T15:45:25Z</time>
      </trkpt>
      <trkpt lat="50.05233" lon="2.14019">
        <ele>29.4</ele>
        <time>2024-03-27T15:45:26Z</time>
      </trkpt>
      <trkpt lat="50.05231" lon="2.14019">
        <ele>29.4</ele>
        <time>2024-03-27T15:45:27Z</time>
      </trkpt>
      <trkpt lat="50.0523" lon="2.14019">
        <ele>29.3</ele>
        <time>2024-03-27T15:45:28Z</time>
      </trkpt>
      <trkpt lat="50.05228" lon="2.14019">
        <ele>29.3</ele>
        <time>2024-03-27T15:45:29Z</time>
      </trkpt>
      <trkpt lat="50.05227" lon="2.14018">
        <ele>29.3</ele>
        <time>2024-03-27T15:45:30Z</time>
      </trkpt>
      <trkpt lat="50.05225" lon="2.14018">
        <ele>29.3</ele>
        <time>2024-03-27T15:45:31Z</time>
      </trkpt>
      <trkpt lat="50.05224" lon="2.14019">
        <ele>29.3</ele>
        <time>2024-03-27T15:45:32Z</time>
      </trkpt>
      <trkpt lat="50.05223" lon="2.14019">
        <ele>29.3</ele>
        <time>2024-03-27T15:45:33Z</time>
      </trkpt>
      <trkpt lat="50.05221" lon="2.14019">
        <ele>29.3</ele>
        <time>2024-03-27T15:45:34Z</time>
      </trkpt>
      <trkpt lat="50.0522" lon="2.14019">
        <ele>29.3</ele>
        <time>2024-03-27T15:45:35Z</time>
      </trkpt>
      <trkpt lat="50.05219" lon="2.14018">
        <ele>29.3</ele>
        <time>2024-03-27T15:45:36Z</time>
      </trkpt>
      <trkpt lat="50.05218" lon="2.14018">
        <ele>29.3</ele>
        <time>2024-03-27T15:45:37Z</time>
      </trkpt>
      <trkpt lat="50.05217" lon="2.14017">
        <ele>29.3</ele>
        <time>2024-03-27T15:45:38Z</time>
      </trkpt>
      <trkpt lat="50.05216" lon="2.14017">
        <ele>29.3</ele>
        <time>2024-03-27T15:45:39Z</time>
      </trkpt>
      <trkpt lat="50.05215" lon="2.14017">
        <ele>29.3</ele>
        <time>2024-03-27T15:45:40Z</time>
      </trkpt>
      <trkpt lat="50.05214" lon="2.14018">
        <ele>29.3</ele>
        <time>2024-03-27T15:45:41Z</time>
      </trkpt>
      <trkpt lat="50.05213" lon="2.14018">
        <ele>29.3</ele>
        <time>2024-03-27T15:45:42Z</time>
      </trkpt>
      <trkpt lat="50.05212" lon="2.14019">
        <ele>29.3</ele>
        <time>2024-03-27T15:45:43Z</time>
      </trkpt>
      <trkpt lat="50.05211" lon="2.14019">
        <ele>29.3</ele>
        <time>2024-03-27T15:45:44Z</time>
      </trkpt>
      <trkpt lat="50.0521" lon="2.14019">
        <ele>29.3</ele>
        <time>2024-03-27T15:45:45Z</time>
      </trkpt>
      <trkpt lat="50.05209" lon="2.14019">
        <ele>29.3</ele>
        <time>2024-03-27T15:45:46Z</time>
      </trkpt>
      <trkpt lat="50.05208" lon="2.14019">
        <ele>29.3</ele>
        <time>2024-03-27T15:45:47Z</time>
      </trkpt>
      <trkpt lat="50.05207" lon="2.14019">
        <ele>29.3</ele>
        <time>2024-03-27T15:45:48Z</time>
      </trkpt>
      <trkpt lat="50.05206" lon="2.14019">
        <ele>29.3</ele>
        <time>2024-03-27T15:45:49Z</time>
      </trkpt>
      <trkpt lat="50.05205" lon="2.14019">
        <ele>29.3</ele>
        <time>2024-03-27T15:45:50Z</time>
      </trkpt>
      <trkpt lat="50.05204" lon="2.14019">
        <ele>29.3</ele>
        <time>2024-03-27T15:45:51Z</time>
      </trkpt>
      <trkpt lat="50.05203" lon="2.14019">
        <ele>29.2</ele>
        <time>2024-03-27T15:45:52Z</time>
      </trkpt>
      <trkpt lat="50.05202" lon="2.14019">
        <ele>29.2</ele>
        <time>2024-03-27T15:45:53Z</time>
      </trkpt>
      <trkpt lat="50.05202" lon="2.14019">
        <ele>29.2</ele>
        <time>2024-03-27T15:45:54Z</time>
      </trkpt>
      <trkpt lat="50.05201" lon="2.1402">
        <ele>29.2</ele>
        <time>2024-03-27T15:45:55Z</time>
      </trkpt>
      <trkpt lat="50.052" lon="2.1402">
        <ele>29.2</ele>
        <time>2024-03-27T15:45:56Z</time>
      </trkpt>
      <trkpt lat="50.05199" lon="2.1402">
        <ele>29.2</ele>
        <time>2024-03-27T15:45:57Z</time>
      </trkpt>
      <trkpt lat="50.05198" lon="2.14021">
        <ele>29.2</ele>
        <time>2024-03-27T15:45:58Z</time>
      </trkpt>
      <trkpt lat="50.05197" lon="2.14021">
        <ele>29.2</ele>
        <time>2024-03-27T15:45:59Z</time>
      </trkpt>
      <trkpt lat="50.05196" lon="2.14021">
        <ele>29.2</ele>
        <time>2024-03-27T15:46:00Z</time>
      </trkpt>
      <trkpt lat="50.05195" lon="2.14021">
        <ele>29.2</ele>
        <time>2024-03-27T15:46:01Z</time>
      </trkpt>
      <trkpt lat="50.05194" lon="2.14021">
        <ele>29.2</ele>
        <time>2024-03-27T15:46:02Z</time>
      </trkpt>
      <trkpt lat="50.05193" lon="2.14021">
        <ele>29.2</ele>
        <time>2024-03-27T15:46:03Z</time>
      </trkpt>
      <trkpt lat="50.05192" lon="2.14021">
        <ele>29.2</ele>
        <time>2024-03-27T15:46:04Z</time>
      </trkpt>
      <trkpt lat="50.05191" lon="2.14021">
        <ele>29.1</ele>
        <time>2024-03-27T15:46:05Z</time>
      </trkpt>
      <trkpt lat="50.05191" lon="2.14022">
        <ele>29.1</ele>
        <time>2024-03-27T15:46:06Z</time>
      </trkpt>
      <trkpt lat="50.05189" lon="2.14022">
        <ele>29.1</ele>
        <time>2024-03-27T15:46:07Z</time>
      </trkpt>
      <trkpt lat="50.05188" lon="2.14022">
        <ele>29.1</ele>
        <time>2024-03-27T15:46:08Z</time>
      </trkpt>
      <trkpt lat="50.05187" lon="2.14022">
        <ele>29.1</ele>
        <time>2024-03-27T15:46:09Z</time>
      </trkpt>
      <trkpt lat="50.05186" lon="2.14022">
        <ele>29.1</ele>
        <time>2024-03-27T15:46:10Z</time>
      </trkpt>
      <trkpt lat="50.05186" lon="2.14022">
        <ele>29.1</ele>
        <time>2024-03-27T15:46:11Z</time>
      </trkpt>
      <trkpt lat="50.05185" lon="2.14021">
        <ele>29.1</ele>
        <time>2024-03-27T15:46:12Z</time>
      </trkpt>
      <trkpt lat="50.05184" lon="2.14021">
        <ele>29.1</ele>
        <time>2024-03-27T15:46:13Z</time>
      </trkpt>
      <trkpt lat="50.05183" lon="2.14021">
        <ele>29.1</ele>
        <time>2024-03-27T15:46:14Z</time>
      </trkpt>
      <trkpt lat="50.05182" lon="2.14021">
        <ele>29.1</ele>
        <time>2024-03-27T15:46:15Z</time>
      </trkpt>
      <trkpt lat="50.05182" lon="2.14021">
        <ele>29.1</ele>
        <time>2024-03-27T15:46:16Z</time>
      </trkpt>
      <trkpt lat="50.05181" lon="2.14021">
        <ele>29.1</ele>
        <time>2024-03-27T15:46:17Z</time>
      </trkpt>
      <trkpt lat="50.0518" lon="2.14021">
        <ele>29</ele>
        <time>2024-03-27T15:46:18Z</time>
      </trkpt>
      <trkpt lat="50.05179" lon="2.14022">
        <ele>29</ele>
        <time>2024-03-27T15:46:19Z</time>
      </trkpt>
      <trkpt lat="50.05178" lon="2.14021">
        <ele>29</ele>
        <time>2024-03-27T15:46:20Z</time>
      </trkpt>
      <trkpt lat="50.05178" lon="2.14021">
        <ele>29</ele>
        <time>2024-03-27T15:46:21Z</time>
      </trkpt>
      <trkpt lat="50.05177" lon="2.14021">
        <ele>29</ele>
        <time>2024-03-27T15:46:22Z</time>
      </trkpt>
      <trkpt lat="50.05176" lon="2.14021">
        <ele>29</ele>
        <time>2024-03-27T15:46:23Z</time>
      </trkpt>
      <trkpt lat="50.05175" lon="2.14021">
        <ele>29</ele>
        <time>2024-03-27T15:46:24Z</time>
      </trkpt>
      <trkpt lat="50.05174" lon="2.14021">
        <ele>29</ele>
        <time>2024-03-27T15:46:25Z</time>
      </trkpt>
      <trkpt lat="50.05174" lon="2.14021">
        <ele>29</ele>
        <time>2024-03-27T15:46:26Z</time>
      </trkpt>
      <trkpt lat="50.05173" lon="2.1402">
        <ele>29</ele>
        <time>2024-03-27T15:46:27Z</time>
      </trkpt>
      <trkpt lat="50.05172" lon="2.1402">
        <ele>29</ele>
        <time>2024-03-27T15:46:28Z</time>
      </trkpt>
      <trkpt lat="50.05171" lon="2.1402">
        <ele>29</ele>
        <time>2024-03-27T15:46:29Z</time>
      </trkpt>
      <trkpt lat="50.0517" lon="2.14019">
        <ele>29</ele>
        <time>2024-03-27T15:46:30Z</time>
      </trkpt>
      <trkpt lat="50.05169" lon="2.14019">
        <ele>29</ele>
        <time>2024-03-27T15:46:31Z</time>
      </trkpt>
      <trkpt lat="50.05168" lon="2.14019">
        <ele>29</ele>
        <time>2024-03-27T15:46:32Z</time>
      </trkpt>
      <trkpt lat="50.05167" lon="2.14019">
        <ele>29</ele>
        <time>2024-03-27T15:46:33Z</time>
      </trkpt>
      <trkpt lat="50.05166" lon="2.14019">
        <ele>29</ele>
        <time>2024-03-27T15:46:34Z</time>
      </trkpt>
      <trkpt lat="50.05165" lon="2.1402">
        <ele>29</ele>
        <time>2024-03-27T15:46:35Z</time>
      </trkpt>
      <trkpt lat="50.05163" lon="2.1402">
        <ele>28.9</ele>
        <time>2024-03-27T15:46:36Z</time>
      </trkpt>
      <trkpt lat="50.05161" lon="2.14021">
        <ele>28.9</ele>
        <time>2024-03-27T15:46:37Z</time>
      </trkpt>
      <trkpt lat="50.05161" lon="2.14021">
        <ele>28.9</ele>
        <time>2024-03-27T15:46:38Z</time>
      </trkpt>
      <trkpt lat="50.0516" lon="2.14022">
        <ele>28.9</ele>
        <time>2024-03-27T15:46:39Z</time>
      </trkpt>
      <trkpt lat="50.05158" lon="2.14022">
        <ele>28.9</ele>
        <time>2024-03-27T15:46:40Z</time>
      </trkpt>
      <trkpt lat="50.05157" lon="2.14023">
        <ele>28.9</ele>
        <time>2024-03-27T15:46:41Z</time>
      </trkpt>
      <trkpt lat="50.05156" lon="2.14023">
        <ele>28.9</ele>
        <time>2024-03-27T15:46:42Z</time>
      </trkpt>
      <trkpt lat="50.05155" lon="2.14023">
        <ele>28.9</ele>
        <time>2024-03-27T15:46:43Z</time>
      </trkpt>
      <trkpt lat="50.05154" lon="2.14024">
        <ele>28.9</ele>
        <time>2024-03-27T15:46:44Z</time>
      </trkpt>
      <trkpt lat="50.05153" lon="2.14024">
        <ele>28.9</ele>
        <time>2024-03-27T15:46:45Z</time>
      </trkpt>
      <trkpt lat="50.05151" lon="2.14025">
        <ele>28.9</ele>
        <time>2024-03-27T15:46:46Z</time>
      </trkpt>
      <trkpt lat="50.0515" lon="2.14026">
        <ele>28.9</ele>
        <time>2024-03-27T15:46:47Z</time>
      </trkpt>
      <trkpt lat="50.05149" lon="2.14026">
        <ele>28.9</ele>
        <time>2024-03-27T15:46:48Z</time>
      </trkpt>
      <trkpt lat="50.05148" lon="2.14026">
        <ele>28.8</ele>
        <time>2024-03-27T15:46:49Z</time>
      </trkpt>
      <trkpt lat="50.05147" lon="2.14026">
        <ele>28.8</ele>
        <time>2024-03-27T15:46:50Z</time>
      </trkpt>
      <trkpt lat="50.05146" lon="2.14027">
        <ele>28.8</ele>
        <time>2024-03-27T15:46:51Z</time>
      </trkpt>
      <trkpt lat="50.05145" lon="2.14027">
        <ele>28.8</ele>
        <time>2024-03-27T15:46:52Z</time>
      </trkpt>
      <trkpt lat="50.05144" lon="2.14027">
        <ele>28.8</ele>
        <time>2024-03-27T15:46:53Z</time>
      </trkpt>
      <trkpt lat="50.05143" lon="2.14027">
        <ele>28.8</ele>
        <time>2024-03-27T15:46:54Z</time>
      </trkpt>
      <trkpt lat="50.05142" lon="2.14027">
        <ele>28.8</ele>
        <time>2024-03-27T15:46:55Z</time>
      </trkpt>
      <trkpt lat="50.05141" lon="2.14027">
        <ele>28.8</ele>
        <time>2024-03-27T15:46:56Z</time>
      </trkpt>
      <trkpt lat="50.05139" lon="2.14028">
        <ele>28.8</ele>
        <time>2024-03-27T15:46:57Z</time>
      </trkpt>
      <trkpt lat="50.05139" lon="2.14028">
        <ele>28.8</ele>
        <time>2024-03-27T15:46:58Z</time>
      </trkpt>
      <trkpt lat="50.05137" lon="2.14028">
        <ele>28.8</ele>
        <time>2024-03-27T15:46:59Z</time>
      </trkpt>
      <trkpt lat="50.05137" lon="2.14028">
        <ele>28.8</ele>
        <time>2024-03-27T15:47:00Z</time>
      </trkpt>
      <trkpt lat="50.05136" lon="2.14028">
        <ele>28.8</ele>
        <time>2024-03-27T15:47:01Z</time>
      </trkpt>
      <trkpt lat="50.05135" lon="2.14028">
        <ele>28.8</ele>
        <time>2024-03-27T15:47:02Z</time>
      </trkpt>
      <trkpt lat="50.05134" lon="2.14027">
        <ele>28.8</ele>
        <time>2024-03-27T15:47:03Z</time>
      </trkpt>
      <trkpt lat="50.05133" lon="2.14027">
        <ele>28.8</ele>
        <time>2024-03-27T15:47:04Z</time>
      </trkpt>
      <trkpt lat="50.05132" lon="2.14027">
        <ele>28.8</ele>
        <time>2024-03-27T15:47:05Z</time>
      </trkpt>
      <trkpt lat="50.05131" lon="2.14027">
        <ele>28.8</ele>
        <time>2024-03-27T15:47:06Z</time>
      </trkpt>
      <trkpt lat="50.05129" lon="2.14027">
        <ele>28.7</ele>
        <time>2024-03-27T15:47:07Z</time>
      </trkpt>
      <trkpt lat="50.05128" lon="2.14027">
        <ele>28.7</ele>
        <time>2024-03-27T15:47:08Z</time>
      </trkpt>
      <trkpt lat="50.05128" lon="2.14027">
        <ele>28.7</ele>
        <time>2024-03-27T15:47:09Z</time>
      </trkpt>
      <trkpt lat="50.05127" lon="2.14027">
        <ele>28.7</ele>
        <time>2024-03-27T15:47:10Z</time>
      </trkpt>
      <trkpt lat="50.05126" lon="2.14027">
        <ele>28.7</ele>
        <time>2024-03-27T15:47:11Z</time>
      </trkpt>
      <trkpt lat="50.05125" lon="2.14028">
        <ele>28.7</ele>
        <time>2024-03-27T15:47:12Z</time>
      </trkpt>
      <trkpt lat="50.05124" lon="2.14028">
        <ele>28.7</ele>
        <time>2024-03-27T15:47:13Z</time>
      </trkpt>
      <trkpt lat="50.05123" lon="2.14028">
        <ele>28.7</ele>
        <time>2024-03-27T15:47:14Z</time>
      </trkpt>
      <trkpt lat="50.05122" lon="2.14028">
        <ele>28.7</ele>
        <time>2024-03-27T15:47:15Z</time>
      </trkpt>
      <trkpt lat="50.05121" lon="2.14028">
        <ele>28.7</ele>
        <time>2024-03-27T15:47:16Z</time>
      </trkpt>
      <trkpt lat="50.0512" lon="2.14028">
        <ele>28.7</ele>
        <time>2024-03-27T15:47:17Z</time>
      </trkpt>
      <trkpt lat="50.05119" lon="2.14029">
        <ele>28.7</ele>
        <time>2024-03-27T15:47:18Z</time>
      </trkpt>
      <trkpt lat="50.05118" lon="2.14029">
        <ele>28.7</ele>
        <time>2024-03-27T15:47:19Z</time>
      </trkpt>
      <trkpt lat="50.05117" lon="2.14029">
        <ele>28.7</ele>
        <time>2024-03-27T15:47:20Z</time>
      </trkpt>
      <trkpt lat="50.05116" lon="2.1403">
        <ele>28.7</ele>
        <time>2024-03-27T15:47:21Z</time>
      </trkpt>
      <trkpt lat="50.05115" lon="2.1403">
        <ele>28.7</ele>
        <time>2024-03-27T15:47:22Z</time>
      </trkpt>
      <trkpt lat="50.05114" lon="2.1403">
        <ele>28.7</ele>
        <time>2024-03-27T15:47:23Z</time>
      </trkpt>
      <trkpt lat="50.05113" lon="2.1403">
        <ele>28.7</ele>
        <time>2024-03-27T15:47:24Z</time>
      </trkpt>
      <trkpt lat="50.05112" lon="2.1403">
        <ele>28.7</ele>
        <time>2024-03-27T15:47:25Z</time>
      </trkpt>
      <trkpt lat="50.05111" lon="2.1403">
        <ele>28.7</ele>
        <time>2024-03-27T15:47:26Z</time>
      </trkpt>
      <trkpt lat="50.0511" lon="2.14031">
        <ele>28.7</ele>
        <time>2024-03-27T15:47:27Z</time>
      </trkpt>
      <trkpt lat="50.05109" lon="2.14031">
        <ele>28.6</ele>
        <time>2024-03-27T15:47:28Z</time>
      </trkpt>
      <trkpt lat="50.05108" lon="2.14031">
        <ele>28.6</ele>
        <time>2024-03-27T15:47:29Z</time>
      </trkpt>
      <trkpt lat="50.05107" lon="2.14031">
        <ele>28.6</ele>
        <time>2024-03-27T15:47:30Z</time>
      </trkpt>
      <trkpt lat="50.05106" lon="2.14031">
        <ele>28.6</ele>
        <time>2024-03-27T15:47:31Z</time>
      </trkpt>
      <trkpt lat="50.05105" lon="2.14031">
        <ele>28.6</ele>
        <time>2024-03-27T15:47:32Z</time>
      </trkpt>
      <trkpt lat="50.05104" lon="2.14031">
        <ele>28.6</ele>
        <time>2024-03-27T15:47:33Z</time>
      </trkpt>
      <trkpt lat="50.05103" lon="2.14032">
        <ele>28.6</ele>
        <time>2024-03-27T15:47:34Z</time>
      </trkpt>
      <trkpt lat="50.05102" lon="2.14032">
        <ele>28.6</ele>
        <time>2024-03-27T15:47:35Z</time>
      </trkpt>
      <trkpt lat="50.051" lon="2.14032">
        <ele>28.6</ele>
        <time>2024-03-27T15:47:36Z</time>
      </trkpt>
      <trkpt lat="50.051" lon="2.14032">
        <ele>28.6</ele>
        <time>2024-03-27T15:47:37Z</time>
      </trkpt>
      <trkpt lat="50.05099" lon="2.14032">
        <ele>28.6</ele>
        <time>2024-03-27T15:47:38Z</time>
      </trkpt>
      <trkpt lat="50.05098" lon="2.14033">
        <ele>28.6</ele>
        <time>2024-03-27T15:47:39Z</time>
      </trkpt>
      <trkpt lat="50.05097" lon="2.14033">
        <ele>28.6</ele>
        <time>2024-03-27T15:47:40Z</time>
      </trkpt>
      <trkpt lat="50.05096" lon="2.14034">
        <ele>28.6</ele>
        <time>2024-03-27T15:47:41Z</time>
      </trkpt>
      <trkpt lat="50.05095" lon="2.14034">
        <ele>28.5</ele>
        <time>2024-03-27T15:47:42Z</time>
      </trkpt>
      <trkpt lat="50.05094" lon="2.14034">
        <ele>28.5</ele>
        <time>2024-03-27T15:47:43Z</time>
      </trkpt>
      <trkpt lat="50.05093" lon="2.14035">
        <ele>28.5</ele>
        <time>2024-03-27T15:47:44Z</time>
      </trkpt>
      <trkpt lat="50.05092" lon="2.14036">
        <ele>28.5</ele>
        <time>2024-03-27T15:47:45Z</time>
      </trkpt>
      <trkpt lat="50.05091" lon="2.14036">
        <ele>28.5</ele>
        <time>2024-03-27T15:47:46Z</time>
      </trkpt>
      <trkpt lat="50.0509" lon="2.14036">
        <ele>28.5</ele>
        <time>2024-03-27T15:47:47Z</time>
      </trkpt>
      <trkpt lat="50.05089" lon="2.14037">
        <ele>28.5</ele>
        <time>2024-03-27T15:47:48Z</time>
      </trkpt>
      <trkpt lat="50.05088" lon="2.14037">
        <ele>28.5</ele>
        <time>2024-03-27T15:47:49Z</time>
      </trkpt>
      <trkpt lat="50.05087" lon="2.14038">
        <ele>28.5</ele>
        <time>2024-03-27T15:47:50Z</time>
      </trkpt>
      <trkpt lat="50.05086" lon="2.14038">
        <ele>28.5</ele>
        <time>2024-03-27T15:47:51Z</time>
      </trkpt>
      <trkpt lat="50.05085" lon="2.14038">
        <ele>28.5</ele>
        <time>2024-03-27T15:47:52Z</time>
      </trkpt>
      <trkpt lat="50.05084" lon="2.14038">
        <ele>28.5</ele>
        <time>2024-03-27T15:47:53Z</time>
      </trkpt>
      <trkpt lat="50.05083" lon="2.14038">
        <ele>28.5</ele>
        <time>2024-03-27T15:47:54Z</time>
      </trkpt>
      <trkpt lat="50.05082" lon="2.14039">
        <ele>28.5</ele>
        <time>2024-03-27T15:47:55Z</time>
      </trkpt>
      <trkpt lat="50.05081" lon="2.14039">
        <ele>28.4</ele>
        <time>2024-03-27T15:47:56Z</time>
      </trkpt>
      <trkpt lat="50.0508" lon="2.14039">
        <ele>28.4</ele>
        <time>2024-03-27T15:47:57Z</time>
      </trkpt>
      <trkpt lat="50.05079" lon="2.14039">
        <ele>28.4</ele>
        <time>2024-03-27T15:47:58Z</time>
      </trkpt>
      <trkpt lat="50.05078" lon="2.1404">
        <ele>28.4</ele>
        <time>2024-03-27T15:47:59Z</time>
      </trkpt>
      <trkpt lat="50.05077" lon="2.1404">
        <ele>28.4</ele>
        <time>2024-03-27T15:48:00Z</time>
      </trkpt>
      <trkpt lat="50.05076" lon="2.1404">
        <ele>28.4</ele>
        <time>2024-03-27T15:48:01Z</time>
      </trkpt>
      <trkpt lat="50.05074" lon="2.14041">
        <ele>28.4</ele>
        <time>2024-03-27T15:48:02Z</time>
      </trkpt>
      <trkpt lat="50.05073" lon="2.14041">
        <ele>28.4</ele>
        <time>2024-03-27T15:48:03Z</time>
      </trkpt>
      <trkpt lat="50.05072" lon="2.14041">
        <ele>28.4</ele>
        <time>2024-03-27T15:48:04Z</time>
      </trkpt>
      <trkpt lat="50.05071" lon="2.14041">
        <ele>28.4</ele>
        <time>2024-03-27T15:48:05Z</time>
      </trkpt>
      <trkpt lat="50.0507" lon="2.14042">
        <ele>28.4</ele>
        <time>2024-03-27T15:48:06Z</time>
      </trkpt>
      <trkpt lat="50.05069" lon="2.14043">
        <ele>28.4</ele>
        <time>2024-03-27T15:48:07Z</time>
      </trkpt>
      <trkpt lat="50.05068" lon="2.14043">
        <ele>28.3</ele>
        <time>2024-03-27T15:48:08Z</time>
      </trkpt>
      <trkpt lat="50.05067" lon="2.14044">
        <ele>28.3</ele>
        <time>2024-03-27T15:48:09Z</time>
      </trkpt>
      <trkpt lat="50.05066" lon="2.14044">
        <ele>28.3</ele>
        <time>2024-03-27T15:48:10Z</time>
      </trkpt>
      <trkpt lat="50.05064" lon="2.14045">
        <ele>28.3</ele>
        <time>2024-03-27T15:48:11Z</time>
      </trkpt>
      <trkpt lat="50.05063" lon="2.14046">
        <ele>28.3</ele>
        <time>2024-03-27T15:48:12Z</time>
      </trkpt>
      <trkpt lat="50.05062" lon="2.14047">
        <ele>28.3</ele>
        <time>2024-03-27T15:48:13Z</time>
      </trkpt>
      <trkpt lat="50.05061" lon="2.14047">
        <ele>28.3</ele>
        <time>2024-03-27T15:48:14Z</time>
      </trkpt>
      <trkpt lat="50.0506" lon="2.14047">
        <ele>28.3</ele>
        <time>2024-03-27T15:48:15Z</time>
      </trkpt>
      <trkpt lat="50.05059" lon="2.14048">
        <ele>28.3</ele>
        <time>2024-03-27T15:48:16Z</time>
      </trkpt>
      <trkpt lat="50.05057" lon="2.14048">
        <ele>28.3</ele>
        <time>2024-03-27T15:48:17Z</time>
      </trkpt>
      <trkpt lat="50.05056" lon="2.14048">
        <ele>28.3</ele>
        <time>2024-03-27T15:48:18Z</time>
      </trkpt>
      <trkpt lat="50.05055" lon="2.14048">
        <ele>28.3</ele>
        <time>2024-03-27T15:48:19Z</time>
      </trkpt>
      <trkpt lat="50.05053" lon="2.14048">
        <ele>28.3</ele>
        <time>2024-03-27T15:48:20Z</time>
      </trkpt>
      <trkpt lat="50.05052" lon="2.14048">
        <ele>28.3</ele>
        <time>2024-03-27T15:48:21Z</time>
      </trkpt>
      <trkpt lat="50.05051" lon="2.14048">
        <ele>28.3</ele>
        <time>2024-03-27T15:48:22Z</time>
      </trkpt>
      <trkpt lat="50.0505" lon="2.14049">
        <ele>28.3</ele>
        <time>2024-03-27T15:48:23Z</time>
      </trkpt>
      <trkpt lat="50.05049" lon="2.14049">
        <ele>28.3</ele>
        <time>2024-03-27T15:48:24Z</time>
      </trkpt>
      <trkpt lat="50.05048" lon="2.14049">
        <ele>28.3</ele>
        <time>2024-03-27T15:48:25Z</time>
      </trkpt>
      <trkpt lat="50.05047" lon="2.14049">
        <ele>28.3</ele>
        <time>2024-03-27T15:48:26Z</time>
      </trkpt>
      <trkpt lat="50.05046" lon="2.14049">
        <ele>28.3</ele>
        <time>2024-03-27T15:48:27Z</time>
      </trkpt>
      <trkpt lat="50.05045" lon="2.1405">
        <ele>28.3</ele>
        <time>2024-03-27T15:48:28Z</time>
      </trkpt>
      <trkpt lat="50.05044" lon="2.1405">
        <ele>28.3</ele>
        <time>2024-03-27T15:48:29Z</time>
      </trkpt>
      <trkpt lat="50.05043" lon="2.1405">
        <ele>28.2</ele>
        <time>2024-03-27T15:48:30Z</time>
      </trkpt>
      <trkpt lat="50.05042" lon="2.1405">
        <ele>28.2</ele>
        <time>2024-03-27T15:48:31Z</time>
      </trkpt>
      <trkpt lat="50.05041" lon="2.14051">
        <ele>28.2</ele>
        <time>2024-03-27T15:48:32Z</time>
      </trkpt>
      <trkpt lat="50.0504" lon="2.14051">
        <ele>28.2</ele>
        <time>2024-03-27T15:48:33Z</time>
      </trkpt>
      <trkpt lat="50.05039" lon="2.14051">
        <ele>28.2</ele>
        <time>2024-03-27T15:48:34Z</time>
      </trkpt>
      <trkpt lat="50.05038" lon="2.14051">
        <ele>28.2</ele>
        <time>2024-03-27T15:48:35Z</time>
      </trkpt>
      <trkpt lat="50.05037" lon="2.1405">
        <ele>28.2</ele>
        <time>2024-03-27T15:48:36Z</time>
      </trkpt>
      <trkpt lat="50.05036" lon="2.1405">
        <ele>28.2</ele>
        <time>2024-03-27T15:48:37Z</time>
      </trkpt>
      <trkpt lat="50.05034" lon="2.14049">
        <ele>28.2</ele>
        <time>2024-03-27T15:48:38Z</time>
      </trkpt>
      <trkpt lat="50.05033" lon="2.14048">
        <ele>28.2</ele>
        <time>2024-03-27T15:48:39Z</time>
      </trkpt>
      <trkpt lat="50.05032" lon="2.14048">
        <ele>28.2</ele>
        <time>2024-03-27T15:48:40Z</time>
      </trkpt>
      <trkpt lat="50.05031" lon="2.14047">
        <ele>28.2</ele>
        <time>2024-03-27T15:48:41Z</time>
      </trkpt>
      <trkpt lat="50.0503" lon="2.14047">
        <ele>28.2</ele>
        <time>2024-03-27T15:48:42Z</time>
      </trkpt>
      <trkpt lat="50.05029" lon="2.14047">
        <ele>28.2</ele>
        <time>2024-03-27T15:48:43Z</time>
      </trkpt>
      <trkpt lat="50.05028" lon="2.14048">
        <ele>28.2</ele>
        <time>2024-03-27T15:48:44Z</time>
      </trkpt>
      <trkpt lat="50.05027" lon="2.14048">
        <ele>28.2</ele>
        <time>2024-03-27T15:48:45Z</time>
      </trkpt>
      <trkpt lat="50.05026" lon="2.14048">
        <ele>28.2</ele>
        <time>2024-03-27T15:48:46Z</time>
      </trkpt>
      <trkpt lat="50.05025" lon="2.14049">
        <ele>28.2</ele>
        <time>2024-03-27T15:48:47Z</time>
      </trkpt>
      <trkpt lat="50.05024" lon="2.14049">
        <ele>28.2</ele>
        <time>2024-03-27T15:48:48Z</time>
      </trkpt>
      <trkpt lat="50.05023" lon="2.1405">
        <ele>28.2</ele>
        <time>2024-03-27T15:48:49Z</time>
      </trkpt>
      <trkpt lat="50.05022" lon="2.1405">
        <ele>28.2</ele>
        <time>2024-03-27T15:48:50Z</time>
      </trkpt>
      <trkpt lat="50.05021" lon="2.14051">
        <ele>28.2</ele>
        <time>2024-03-27T15:48:51Z</time>
      </trkpt>
      <trkpt lat="50.05021" lon="2.14051">
        <ele>28.2</ele>
        <time>2024-03-27T15:48:52Z</time>
      </trkpt>
      <trkpt lat="50.0502" lon="2.14051">
        <ele>28.2</ele>
        <time>2024-03-27T15:48:53Z</time>
      </trkpt>
      <trkpt lat="50.05019" lon="2.14051">
        <ele>28.2</ele>
        <time>2024-03-27T15:48:54Z</time>
      </trkpt>
      <trkpt lat="50.05018" lon="2.14052">
        <ele>28.3</ele>
        <time>2024-03-27T15:48:55Z</time>
      </trkpt>
      <trkpt lat="50.05017" lon="2.14052">
        <ele>28.3</ele>
        <time>2024-03-27T15:48:56Z</time>
      </trkpt>
      <trkpt lat="50.05016" lon="2.14052">
        <ele>28.3</ele>
        <time>2024-03-27T15:48:57Z</time>
      </trkpt>
      <trkpt lat="50.05016" lon="2.14053">
        <ele>28.3</ele>
        <time>2024-03-27T15:48:58Z</time>
      </trkpt>
      <trkpt lat="50.05015" lon="2.14053">
        <ele>28.3</ele>
        <time>2024-03-27T15:48:59Z</time>
      </trkpt>
      <trkpt lat="50.05014" lon="2.14053">
        <ele>28.3</ele>
        <time>2024-03-27T15:49:00Z</time>
      </trkpt>
      <trkpt lat="50.05013" lon="2.14053">
        <ele>28.3</ele>
        <time>2024-03-27T15:49:01Z</time>
      </trkpt>
      <trkpt lat="50.05012" lon="2.14054">
        <ele>28.3</ele>
        <time>2024-03-27T15:49:02Z</time>
      </trkpt>
      <trkpt lat="50.05012" lon="2.14055">
        <ele>28.3</ele>
        <time>2024-03-27T15:49:03Z</time>
      </trkpt>
      <trkpt lat="50.05011" lon="2.14055">
        <ele>28.3</ele>
        <time>2024-03-27T15:49:04Z</time>
      </trkpt>
      <trkpt lat="50.0501" lon="2.14056">
        <ele>28.3</ele>
        <time>2024-03-27T15:49:05Z</time>
      </trkpt>
      <trkpt lat="50.0501" lon="2.14056">
        <ele>28.3</ele>
        <time>2024-03-27T15:49:06Z</time>
      </trkpt>
      <trkpt lat="50.05009" lon="2.14057">
        <ele>28.3</ele>
        <time>2024-03-27T15:49:07Z</time>
      </trkpt>
      <trkpt lat="50.05008" lon="2.14057">
        <ele>28.4</ele>
        <time>2024-03-27T15:49:08Z</time>
      </trkpt>
      <trkpt lat="50.05007" lon="2.14058">
        <ele>28.4</ele>
        <time>2024-03-27T15:49:09Z</time>
      </trkpt>
      <trkpt lat="50.05006" lon="2.14058">
        <ele>28.4</ele>
        <time>2024-03-27T15:49:10Z</time>
      </trkpt>
      <trkpt lat="50.05005" lon="2.14059">
        <ele>28.4</ele>
        <time>2024-03-27T15:49:11Z</time>
      </trkpt>
      <trkpt lat="50.05004" lon="2.14059">
        <ele>28.4</ele>
        <time>2024-03-27T15:49:12Z</time>
      </trkpt>
      <trkpt lat="50.05003" lon="2.14059">
        <ele>28.4</ele>
        <time>2024-03-27T15:49:13Z</time>
      </trkpt>
      <trkpt lat="50.05002" lon="2.14059">
        <ele>28.4</ele>
        <time>2024-03-27T15:49:14Z</time>
      </trkpt>
      <trkpt lat="50.05001" lon="2.1406">
        <ele>28.5</ele>
        <time>2024-03-27T15:49:15Z</time>
      </trkpt>
      <trkpt lat="50.05" lon="2.1406">
        <ele>28.5</ele>
        <time>2024-03-27T15:49:16Z</time>
      </trkpt>
      <trkpt lat="50.04999" lon="2.14061">
        <ele>28.5</ele>
        <time>2024-03-27T15:49:17Z</time>
      </trkpt>
      <trkpt lat="50.04998" lon="2.14061">
        <ele>28.5</ele>
        <time>2024-03-27T15:49:18Z</time>
      </trkpt>
      <trkpt lat="50.04997" lon="2.14061">
        <ele>28.5</ele>
        <time>2024-03-27T15:49:19Z</time>
      </trkpt>
      <trkpt lat="50.04995" lon="2.14062">
        <ele>28.6</ele>
        <time>2024-03-27T15:49:20Z</time>
      </trkpt>
      <trkpt lat="50.04994" lon="2.14062">
        <ele>28.6</ele>
        <time>2024-03-27T15:49:21Z</time>
      </trkpt>
      <trkpt lat="50.04993" lon="2.14062">
        <ele>28.6</ele>
        <time>2024-03-27T15:49:22Z</time>
      </trkpt>
      <trkpt lat="50.04992" lon="2.14063">
        <ele>28.6</ele>
        <time>2024-03-27T15:49:23Z</time>
      </trkpt>
      <trkpt lat="50.04991" lon="2.14063">
        <ele>28.7</ele>
        <time>2024-03-27T15:49:24Z</time>
      </trkpt>
      <trkpt lat="50.0499" lon="2.14064">
        <ele>28.7</ele>
        <time>2024-03-27T15:49:25Z</time>
      </trkpt>
      <trkpt lat="50.04989" lon="2.14064">
        <ele>28.7</ele>
        <time>2024-03-27T15:49:26Z</time>
      </trkpt>
      <trkpt lat="50.04988" lon="2.14065">
        <ele>28.7</ele>
        <time>2024-03-27T15:49:27Z</time>
      </trkpt>
      <trkpt lat="50.04987" lon="2.14066">
        <ele>28.7</ele>
        <time>2024-03-27T15:49:28Z</time>
      </trkpt>
      <trkpt lat="50.04986" lon="2.14067">
        <ele>28.8</ele>
        <time>2024-03-27T15:49:29Z</time>
      </trkpt>
      <trkpt lat="50.04986" lon="2.14068">
        <ele>28.8</ele>
        <time>2024-03-27T15:49:30Z</time>
      </trkpt>
      <trkpt lat="50.04985" lon="2.14069">
        <ele>28.8</ele>
        <time>2024-03-27T15:49:31Z</time>
      </trkpt>
      <trkpt lat="50.04984" lon="2.1407">
        <ele>28.8</ele>
        <time>2024-03-27T15:49:32Z</time>
      </trkpt>
      <trkpt lat="50.04984" lon="2.14072">
        <ele>28.8</ele>
        <time>2024-03-27T15:49:33Z</time>
      </trkpt>
      <trkpt lat="50.04983" lon="2.14073">
        <ele>28.9</ele>
        <time>2024-03-27T15:49:34Z</time>
      </trkpt>
      <trkpt lat="50.04983" lon="2.14074">
        <ele>28.9</ele>
        <time>2024-03-27T15:49:35Z</time>
      </trkpt>
      <trkpt lat="50.04983" lon="2.14075">
        <ele>28.9</ele>
        <time>2024-03-27T15:49:36Z</time>
      </trkpt>
      <trkpt lat="50.04983" lon="2.14077">
        <ele>28.9</ele>
        <time>2024-03-27T15:49:37Z</time>
      </trkpt>
      <trkpt lat="50.04984" lon="2.14078">
        <ele>28.9</ele>
        <time>2024-03-27T15:49:38Z</time>
      </trkpt>
      <trkpt lat="50.04984" lon="2.14079">
        <ele>28.9</ele>
        <time>2024-03-27T15:49:39Z</time>
      </trkpt>
      <trkpt lat="50.04984" lon="2.1408">
        <ele>28.9</ele>
        <time>2024-03-27T15:49:40Z</time>
      </trkpt>
      <trkpt lat="50.04984" lon="2.14081">
        <ele>29</ele>
        <time>2024-03-27T15:49:41Z</time>
      </trkpt>
      <trkpt lat="50.04985" lon="2.14084">
        <ele>29</ele>
        <time>2024-03-27T15:49:42Z</time>
      </trkpt>
      <trkpt lat="50.04985" lon="2.14085">
        <ele>29</ele>
        <time>2024-03-27T15:49:43Z</time>
      </trkpt>
      <trkpt lat="50.04985" lon="2.14086">
        <ele>29</ele>
        <time>2024-03-27T15:49:44Z</time>
      </trkpt>
      <trkpt lat="50.04985" lon="2.14087">
        <ele>29</ele>
        <time>2024-03-27T15:49:45Z</time>
      </trkpt>
      <trkpt lat="50.04985" lon="2.14089">
        <ele>29</ele>
        <time>2024-03-27T15:49:46Z</time>
      </trkpt>
      <trkpt lat="50.04986" lon="2.1409">
        <ele>29</ele>
        <time>2024-03-27T15:49:48Z</time>
      </trkpt>
      <trkpt lat="50.04986" lon="2.14091">
        <ele>29.1</ele>
        <time>2024-03-27T15:49:49Z</time>
      </trkpt>
      <trkpt lat="50.04987" lon="2.14091">
        <ele>29.1</ele>
        <time>2024-03-27T15:49:50Z</time>
      </trkpt>
      <trkpt lat="50.04987" lon="2.14091">
        <ele>29.1</ele>
        <time>2024-03-27T15:49:51Z</time>
      </trkpt>
      <trkpt lat="50.04987" lon="2.14091">
        <ele>29.1</ele>
        <time>2024-03-27T15:49:52Z</time>
      </trkpt>
      <trkpt lat="50.04987" lon="2.14091">
        <ele>29.1</ele>
        <time>2024-03-27T15:49:53Z</time>
      </trkpt>
      <trkpt lat="50.04987" lon="2.14092">
        <ele>29.1</ele>
        <time>2024-03-27T15:49:54Z</time>
      </trkpt>
      <trkpt lat="50.04988" lon="2.14093">
        <ele>29.1</ele>
        <time>2024-03-27T15:49:55Z</time>
      </trkpt>
      <trkpt lat="50.04988" lon="2.14092">
        <ele>29.1</ele>
        <time>2024-03-27T15:49:56Z</time>
      </trkpt>
      <trkpt lat="50.04989" lon="2.1409">
        <ele>29.1</ele>
        <time>2024-03-27T15:49:57Z</time>
      </trkpt>
      <trkpt lat="50.04989" lon="2.14088">
        <ele>29.1</ele>
        <time>2024-03-27T15:49:58Z</time>
      </trkpt>
      <trkpt lat="50.04988" lon="2.14087">
        <ele>29.2</ele>
        <time>2024-03-27T15:49:59Z</time>
      </trkpt>
      <trkpt lat="50.04988" lon="2.14087">
        <ele>29.2</ele>
        <time>2024-03-27T15:50:00Z</time>
      </trkpt>
      <trkpt lat="50.04987" lon="2.14086">
        <ele>29.2</ele>
        <time>2024-03-27T15:50:01Z</time>
      </trkpt>
      <trkpt lat="50.04987" lon="2.14086">
        <ele>29.2</ele>
        <time>2024-03-27T15:50:02Z</time>
      </trkpt>
      <trkpt lat="50.04987" lon="2.14086">
        <ele>29.2</ele>
        <time>2024-03-27T15:50:03Z</time>
      </trkpt>
      <trkpt lat="50.04987" lon="2.14086">
        <ele>29.2</ele>
        <time>2024-03-27T15:50:04Z</time>
      </trkpt>
      <trkpt lat="50.04987" lon="2.14087">
        <ele>29.2</ele>
        <time>2024-03-27T15:50:05Z</time>
      </trkpt>
      <trkpt lat="50.04987" lon="2.14087">
        <ele>29.2</ele>
        <time>2024-03-27T15:50:06Z</time>
      </trkpt>
      <trkpt lat="50.04987" lon="2.14088">
        <ele>29.2</ele>
        <time>2024-03-27T15:50:07Z</time>
      </trkpt>
      <trkpt lat="50.04987" lon="2.14088">
        <ele>29.2</ele>
        <time>2024-03-27T15:50:08Z</time>
      </trkpt>
      <trkpt lat="50.04987" lon="2.14089">
        <ele>29.2</ele>
        <time>2024-03-27T15:50:09Z</time>
      </trkpt>
      <trkpt lat="50.04987" lon="2.14089">
        <ele>29.2</ele>
        <time>2024-03-27T15:50:10Z</time>
      </trkpt>
      <trkpt lat="50.04987" lon="2.14089">
        <ele>29.2</ele>
        <time>2024-03-27T15:50:11Z</time>
      </trkpt>
      <trkpt lat="50.04987" lon="2.14089">
        <ele>29.2</ele>
        <time>2024-03-27T15:50:12Z</time>
      </trkpt>
      <trkpt lat="50.04987" lon="2.14089">
        <ele>29.2</ele>
        <time>2024-03-27T15:50:13Z</time>
      </trkpt>
      <trkpt lat="50.04987" lon="2.14089">
        <ele>29.2</ele>
        <time>2024-03-27T15:50:14Z</time>
      </trkpt>
      <trkpt lat="50.04986" lon="2.14088">
        <ele>29.2</ele>
        <time>2024-03-27T15:50:15Z</time>
      </trkpt>
      <trkpt lat="50.04986" lon="2.14088">
        <ele>29.2</ele>
        <time>2024-03-27T15:50:17Z</time>
      </trkpt>
      <trkpt lat="50.04986" lon="2.14088">
        <ele>29.2</ele>
        <time>2024-03-27T15:50:18Z</time>
      </trkpt>
      <trkpt lat="50.04983" lon="2.14085">
        <ele>29.2</ele>
        <time>2024-03-27T15:50:20Z</time>
      </trkpt>
      <trkpt lat="50.04983" lon="2.14084">
        <ele>29.2</ele>
        <time>2024-03-27T15:50:21Z</time>
      </trkpt>
      <trkpt lat="50.04983" lon="2.14084">
        <ele>29.2</ele>
        <time>2024-03-27T15:50:22Z</time>
      </trkpt>
      <trkpt lat="50.04983" lon="2.14083">
        <ele>29.2</ele>
        <time>2024-03-27T15:50:23Z</time>
      </trkpt>
      <trkpt lat="50.04983" lon="2.14083">
        <ele>29.2</ele>
        <time>2024-03-27T15:50:24Z</time>
      </trkpt>
      <trkpt lat="50.04983" lon="2.14083">
        <ele>29.2</ele>
        <time>2024-03-27T15:50:25Z</time>
      </trkpt>
      <trkpt lat="50.04983" lon="2.14082">
        <ele>29.2</ele>
        <time>2024-03-27T15:50:26Z</time>
      </trkpt>
      <trkpt lat="50.04983" lon="2.14082">
        <ele>29.2</ele>
        <time>2024-03-27T15:50:27Z</time>
      </trkpt>
      <trkpt lat="50.04983" lon="2.14082">
        <ele>29.2</ele>
        <time>2024-03-27T15:50:28Z</time>
      </trkpt>
      <trkpt lat="50.04983" lon="2.14082">
        <ele>29.2</ele>
        <time>2024-03-27T15:50:29Z</time>
      </trkpt>
      <trkpt lat="50.04983" lon="2.14082">
        <ele>29.2</ele>
        <time>2024-03-27T15:50:30Z</time>
      </trkpt>
      <trkpt lat="50.04983" lon="2.14082">
        <ele>29.2</ele>
        <time>2024-03-27T15:50:31Z</time>
      </trkpt>
      <trkpt lat="50.04983" lon="2.14082">
        <ele>29.2</ele>
        <time>2024-03-27T15:50:32Z</time>
      </trkpt>
      <trkpt lat="50.04983" lon="2.14082">
        <ele>29.2</ele>
        <time>2024-03-27T15:50:33Z</time>
      </trkpt>
      <trkpt lat="50.04983" lon="2.14082">
        <ele>29.2</ele>
        <time>2024-03-27T15:50:34Z</time>
      </trkpt>
      <trkpt lat="50.04983" lon="2.14082">
        <ele>29.2</ele>
        <time>2024-03-27T15:50:35Z</time>
      </trkpt>
      <trkpt lat="50.04983" lon="2.14082">
        <ele>29.2</ele>
        <time>2024-03-27T15:50:36Z</time>
      </trkpt>
      <trkpt lat="50.04983" lon="2.14082">
        <ele>29.2</ele>
        <time>2024-03-27T15:50:37Z</time>
      </trkpt>
      <trkpt lat="50.04983" lon="2.14082">
        <ele>29.2</ele>
        <time>2024-03-27T15:50:38Z</time>
      </trkpt>
      <trkpt lat="50.04983" lon="2.14082">
        <ele>29.2</ele>
        <time>2024-03-27T15:50:39Z</time>
      </trkpt>
      <trkpt lat="50.04983" lon="2.14082">
        <ele>29.2</ele>
        <time>2024-03-27T15:50:40Z</time>
      </trkpt>
      <trkpt lat="50.04983" lon="2.14082">
        <ele>29.2</ele>
        <time>2024-03-27T15:50:41Z</time>
      </trkpt>
      <trkpt lat="50.04983" lon="2.14082">
        <ele>29.2</ele>
        <time>2024-03-27T15:50:42Z</time>
      </trkpt>
      <trkpt lat="50.04983" lon="2.14082">
        <ele>29.2</ele>
        <time>2024-03-27T15:50:43Z</time>
      </trkpt>
      <trkpt lat="50.04983" lon="2.14082">
        <ele>29.2</ele>
        <time>2024-03-27T15:50:44Z</time>
      </trkpt>
      <trkpt lat="50.04983" lon="2.14082">
        <ele>29.2</ele>
        <time>2024-03-27T15:50:45Z</time>
      </trkpt>
      <trkpt lat="50.04983" lon="2.14081">
        <ele>29.2</ele>
        <time>2024-03-27T15:50:46Z</time>
      </trkpt>
      <trkpt lat="50.04982" lon="2.14081">
        <ele>29.2</ele>
        <time>2024-03-27T15:50:47Z</time>
      </trkpt>
      <trkpt lat="50.04982" lon="2.14081">
        <ele>29.2</ele>
        <time>2024-03-27T15:50:48Z</time>
      </trkpt>
      <trkpt lat="50.04982" lon="2.14081">
        <ele>29.2</ele>
        <time>2024-03-27T15:50:49Z</time>
      </trkpt>
      <trkpt lat="50.04982" lon="2.14081">
        <ele>29.2</ele>
        <time>2024-03-27T15:50:50Z</time>
      </trkpt>
      <trkpt lat="50.04982" lon="2.14081">
        <ele>29.2</ele>
        <time>2024-03-27T15:50:51Z</time>
      </trkpt>
      <trkpt lat="50.04981" lon="2.14081">
        <ele>29.2</ele>
        <time>2024-03-27T15:50:52Z</time>
      </trkpt>
      <trkpt lat="50.04981" lon="2.1408">
        <ele>29.2</ele>
        <time>2024-03-27T15:50:53Z</time>
      </trkpt>
      <trkpt lat="50.0498" lon="2.14079">
        <ele>29.2</ele>
        <time>2024-03-27T15:50:54Z</time>
      </trkpt>
      <trkpt lat="50.0498" lon="2.14078">
        <ele>29.2</ele>
        <time>2024-03-27T15:50:55Z</time>
      </trkpt>
      <trkpt lat="50.04979" lon="2.14077">
        <ele>29.2</ele>
        <time>2024-03-27T15:50:56Z</time>
      </trkpt>
      <trkpt lat="50.04978" lon="2.14075">
        <ele>29.2</ele>
        <time>2024-03-27T15:50:57Z</time>
      </trkpt>
      <trkpt lat="50.04978" lon="2.14074">
        <ele>29.2</ele>
        <time>2024-03-27T15:50:58Z</time>
      </trkpt>
      <trkpt lat="50.04977" lon="2.14073">
        <ele>29.2</ele>
        <time>2024-03-27T15:50:59Z</time>
      </trkpt>
      <trkpt lat="50.04977" lon="2.14073">
        <ele>29.2</ele>
        <time>2024-03-27T15:51:00Z</time>
      </trkpt>
      <trkpt lat="50.04977" lon="2.14073">
        <ele>29.2</ele>
        <time>2024-03-27T15:51:01Z</time>
      </trkpt>
      <trkpt lat="50.04977" lon="2.14073">
        <ele>29.2</ele>
        <time>2024-03-27T15:51:02Z</time>
      </trkpt>
      <trkpt lat="50.04977" lon="2.14073">
        <ele>29.2</ele>
        <time>2024-03-27T15:51:03Z</time>
      </trkpt>
      <trkpt lat="50.04977" lon="2.14073">
        <ele>29.2</ele>
        <time>2024-03-27T15:51:04Z</time>
      </trkpt>
      <trkpt lat="50.04977" lon="2.14072">
        <ele>29.2</ele>
        <time>2024-03-27T15:51:05Z</time>
      </trkpt>
      <trkpt lat="50.04976" lon="2.14072">
        <ele>29.2</ele>
        <time>2024-03-27T15:51:06Z</time>
      </trkpt>
      <trkpt lat="50.04976" lon="2.14073">
        <ele>29.2</ele>
        <time>2024-03-27T15:51:07Z</time>
      </trkpt>
      <trkpt lat="50.04976" lon="2.14074">
        <ele>29.2</ele>
        <time>2024-03-27T15:51:08Z</time>
      </trkpt>
      <trkpt lat="50.04975" lon="2.14074">
        <ele>29.2</ele>
        <time>2024-03-27T15:51:09Z</time>
      </trkpt>
      <trkpt lat="50.04975" lon="2.14075">
        <ele>29.2</ele>
        <time>2024-03-27T15:51:10Z</time>
      </trkpt>
      <trkpt lat="50.04975" lon="2.14075">
        <ele>29.2</ele>
        <time>2024-03-27T15:51:11Z</time>
      </trkpt>
      <trkpt lat="50.04974" lon="2.14076">
        <ele>29.2</ele>
        <time>2024-03-27T15:51:12Z</time>
      </trkpt>
      <trkpt lat="50.04974" lon="2.14077">
        <ele>29.2</ele>
        <time>2024-03-27T15:51:13Z</time>
      </trkpt>
      <trkpt lat="50.04974" lon="2.14077">
        <ele>29.2</ele>
        <time>2024-03-27T15:51:14Z</time>
      </trkpt>
      <trkpt lat="50.04974" lon="2.14077">
        <ele>29.2</ele>
        <time>2024-03-27T15:51:15Z</time>
      </trkpt>
      <trkpt lat="50.04974" lon="2.14077">
        <ele>29.2</ele>
        <time>2024-03-27T15:51:16Z</time>
      </trkpt>
      <trkpt lat="50.04975" lon="2.14077">
        <ele>29.2</ele>
        <time>2024-03-27T15:51:17Z</time>
      </trkpt>
      <trkpt lat="50.04975" lon="2.14077">
        <ele>29.2</ele>
        <time>2024-03-27T15:51:18Z</time>
      </trkpt>
      <trkpt lat="50.04976" lon="2.14078">
        <ele>29.2</ele>
        <time>2024-03-27T15:51:19Z</time>
      </trkpt>
      <trkpt lat="50.04976" lon="2.14078">
        <ele>29.2</ele>
        <time>2024-03-27T15:51:20Z</time>
      </trkpt>
      <trkpt lat="50.04976" lon="2.14078">
        <ele>29.2</ele>
        <time>2024-03-27T15:51:21Z</time>
      </trkpt>
      <trkpt lat="50.04976" lon="2.14079">
        <ele>29.2</ele>
        <time>2024-03-27T15:51:22Z</time>
      </trkpt>
      <trkpt lat="50.04975" lon="2.1408">
        <ele>29.2</ele>
        <time>2024-03-27T15:51:23Z</time>
      </trkpt>
      <trkpt lat="50.04974" lon="2.14081">
        <ele>29.2</ele>
        <time>2024-03-27T15:51:24Z</time>
      </trkpt>
      <trkpt lat="50.04973" lon="2.14082">
        <ele>29.2</ele>
        <time>2024-03-27T15:51:25Z</time>
      </trkpt>
      <trkpt lat="50.04973" lon="2.14084">
        <ele>29.2</ele>
        <time>2024-03-27T15:51:26Z</time>
      </trkpt>
      <trkpt lat="50.04973" lon="2.14085">
        <ele>29.2</ele>
        <time>2024-03-27T15:51:27Z</time>
      </trkpt>
      <trkpt lat="50.04972" lon="2.14086">
        <ele>29.2</ele>
        <time>2024-03-27T15:51:28Z</time>
      </trkpt>
      <trkpt lat="50.04972" lon="2.14087">
        <ele>29.2</ele>
        <time>2024-03-27T15:51:29Z</time>
      </trkpt>
      <trkpt lat="50.04971" lon="2.14088">
        <ele>29.2</ele>
        <time>2024-03-27T15:51:30Z</time>
      </trkpt>
      <trkpt lat="50.04971" lon="2.1409">
        <ele>29.2</ele>
        <time>2024-03-27T15:51:31Z</time>
      </trkpt>
      <trkpt lat="50.04971" lon="2.14092">
        <ele>29.2</ele>
        <time>2024-03-27T15:51:32Z</time>
      </trkpt>
      <trkpt lat="50.04971" lon="2.14095">
        <ele>29.2</ele>
        <time>2024-03-27T15:51:33Z</time>
      </trkpt>
      <trkpt lat="50.04971" lon="2.14097">
        <ele>29.2</ele>
        <time>2024-03-27T15:51:34Z</time>
      </trkpt>
      <trkpt lat="50.04971" lon="2.141">
        <ele>29.2</ele>
        <time>2024-03-27T15:51:35Z</time>
      </trkpt>
      <trkpt lat="50.04972" lon="2.14101">
        <ele>29.2</ele>
        <time>2024-03-27T15:51:36Z</time>
      </trkpt>
      <trkpt lat="50.04973" lon="2.14103">
        <ele>29.2</ele>
        <time>2024-03-27T15:51:37Z</time>
      </trkpt>
      <trkpt lat="50.04977" lon="2.14107">
        <ele>29.2</ele>
        <time>2024-03-27T15:51:38Z</time>
      </trkpt>
      <trkpt lat="50.04977" lon="2.14108">
        <ele>29.2</ele>
        <time>2024-03-27T15:51:39Z</time>
      </trkpt>
      <trkpt lat="50.04978" lon="2.14109">
        <ele>29.2</ele>
        <time>2024-03-27T15:51:40Z</time>
      </trkpt>
      <trkpt lat="50.04978" lon="2.1411">
        <ele>29.2</ele>
        <time>2024-03-27T15:51:41Z</time>
      </trkpt>
      <trkpt lat="50.04978" lon="2.14112">
        <ele>29.2</ele>
        <time>2024-03-27T15:51:42Z</time>
      </trkpt>
      <trkpt lat="50.04978" lon="2.14114">
        <ele>29.2</ele>
        <time>2024-03-27T15:51:43Z</time>
      </trkpt>
      <trkpt lat="50.04978" lon="2.14116">
        <ele>29.2</ele>
        <time>2024-03-27T15:51:44Z</time>
      </trkpt>
      <trkpt lat="50.04978" lon="2.14117">
        <ele>29.2</ele>
        <time>2024-03-27T15:51:45Z</time>
      </trkpt>
      <trkpt lat="50.04978" lon="2.14117">
        <ele>29.2</ele>
        <time>2024-03-27T15:51:46Z</time>
      </trkpt>
      <trkpt lat="50.04979" lon="2.14119">
        <ele>29.2</ele>
        <time>2024-03-27T15:51:47Z</time>
      </trkpt>
      <trkpt lat="50.04979" lon="2.14121">
        <ele>29.2</ele>
        <time>2024-03-27T15:51:48Z</time>
      </trkpt>
      <trkpt lat="50.04979" lon="2.14122">
        <ele>29.2</ele>
        <time>2024-03-27T15:51:49Z</time>
      </trkpt>
      <trkpt lat="50.04978" lon="2.14125">
        <ele>29.2</ele>
        <time>2024-03-27T15:51:50Z</time>
      </trkpt>
      <trkpt lat="50.04978" lon="2.14127">
        <ele>29.2</ele>
        <time>2024-03-27T15:51:51Z</time>
      </trkpt>
      <trkpt lat="50.04978" lon="2.14129">
        <ele>29.2</ele>
        <time>2024-03-27T15:51:52Z</time>
      </trkpt>
      <trkpt lat="50.04978" lon="2.14131">
        <ele>29.2</ele>
        <time>2024-03-27T15:51:53Z</time>
      </trkpt>
      <trkpt lat="50.04978" lon="2.14133">
        <ele>29.2</ele>
        <time>2024-03-27T15:51:54Z</time>
      </trkpt>
      <trkpt lat="50.04978" lon="2.14135">
        <ele>29.2</ele>
        <time>2024-03-27T15:51:55Z</time>
      </trkpt>
      <trkpt lat="50.04979" lon="2.14136">
        <ele>29.2</ele>
        <time>2024-03-27T15:51:56Z</time>
      </trkpt>
      <trkpt lat="50.04979" lon="2.14137">
        <ele>29.3</ele>
        <time>2024-03-27T15:51:57Z</time>
      </trkpt>
      <trkpt lat="50.0498" lon="2.14137">
        <ele>29.3</ele>
        <time>2024-03-27T15:51:58Z</time>
      </trkpt>
      <trkpt lat="50.04981" lon="2.14137">
        <ele>29.3</ele>
        <time>2024-03-27T15:51:59Z</time>
      </trkpt>
      <trkpt lat="50.04981" lon="2.14137">
        <ele>29.3</ele>
        <time>2024-03-27T15:52:00Z</time>
      </trkpt>
      <trkpt lat="50.04982" lon="2.14138">
        <ele>29.3</ele>
        <time>2024-03-27T15:52:01Z</time>
      </trkpt>
      <trkpt lat="50.04983" lon="2.14138">
        <ele>29.3</ele>
        <time>2024-03-27T15:52:02Z</time>
      </trkpt>
      <trkpt lat="50.04984" lon="2.14139">
        <ele>29.3</ele>
        <time>2024-03-27T15:52:03Z</time>
      </trkpt>
      <trkpt lat="50.04985" lon="2.1414">
        <ele>29.3</ele>
        <time>2024-03-27T15:52:04Z</time>
      </trkpt>
      <trkpt lat="50.04986" lon="2.14141">
        <ele>29.3</ele>
        <time>2024-03-27T15:52:05Z</time>
      </trkpt>
      <trkpt lat="50.04986" lon="2.14141">
        <ele>29.3</ele>
        <time>2024-03-27T15:52:06Z</time>
      </trkpt>
      <trkpt lat="50.04987" lon="2.14141">
        <ele>29.3</ele>
        <time>2024-03-27T15:52:07Z</time>
      </trkpt>
      <trkpt lat="50.04988" lon="2.14142">
        <ele>29.3</ele>
        <time>2024-03-27T15:52:08Z</time>
      </trkpt>
      <trkpt lat="50.04989" lon="2.14143">
        <ele>29.3</ele>
        <time>2024-03-27T15:52:09Z</time>
      </trkpt>
      <trkpt lat="50.0499" lon="2.14143">
        <ele>29.3</ele>
        <time>2024-03-27T15:52:10Z</time>
      </trkpt>
      <trkpt lat="50.0499" lon="2.14144">
        <ele>29.3</ele>
        <time>2024-03-27T15:52:11Z</time>
      </trkpt>
      <trkpt lat="50.04991" lon="2.14146">
        <ele>29.3</ele>
        <time>2024-03-27T15:52:12Z</time>
      </trkpt>
      <trkpt lat="50.04991" lon="2.14147">
        <ele>29.3</ele>
        <time>2024-03-27T15:52:13Z</time>
      </trkpt>
      <trkpt lat="50.04992" lon="2.14148">
        <ele>29.3</ele>
        <time>2024-03-27T15:52:14Z</time>
      </trkpt>
      <trkpt lat="50.04992" lon="2.1415">
        <ele>29.3</ele>
        <time>2024-03-27T15:52:15Z</time>
      </trkpt>
      <trkpt lat="50.04992" lon="2.14151">
        <ele>29.3</ele>
        <time>2024-03-27T15:52:16Z</time>
      </trkpt>
      <trkpt lat="50.04993" lon="2.14153">
        <ele>29.3</ele>
        <time>2024-03-27T15:52:17Z</time>
      </trkpt>
      <trkpt lat="50.04993" lon="2.14154">
        <ele>29.3</ele>
        <time>2024-03-27T15:52:18Z</time>
      </trkpt>
      <trkpt lat="50.04993" lon="2.14155">
        <ele>29.3</ele>
        <time>2024-03-27T15:52:19Z</time>
      </trkpt>
      <trkpt lat="50.04994" lon="2.14157">
        <ele>29.3</ele>
        <time>2024-03-27T15:52:20Z</time>
      </trkpt>
      <trkpt lat="50.04994" lon="2.14158">
        <ele>29.3</ele>
        <time>2024-03-27T15:52:21Z</time>
      </trkpt>
      <trkpt lat="50.04994" lon="2.1416">
        <ele>29.3</ele>
        <time>2024-03-27T15:52:22Z</time>
      </trkpt>
      <trkpt lat="50.04994" lon="2.14161">
        <ele>29.3</ele>
        <time>2024-03-27T15:52:23Z</time>
      </trkpt>
      <trkpt lat="50.04994" lon="2.14163">
        <ele>29.3</ele>
        <time>2024-03-27T15:52:24Z</time>
      </trkpt>
      <trkpt lat="50.04995" lon="2.14164">
        <ele>29.3</ele>
        <time>2024-03-27T15:52:25Z</time>
      </trkpt>
      <trkpt lat="50.04995" lon="2.14166">
        <ele>29.3</ele>
        <time>2024-03-27T15:52:26Z</time>
      </trkpt>
      <trkpt lat="50.04996" lon="2.14167">
        <ele>29.3</ele>
        <time>2024-03-27T15:52:27Z</time>
      </trkpt>
      <trkpt lat="50.04996" lon="2.14168">
        <ele>29.3</ele>
        <time>2024-03-27T15:52:28Z</time>
      </trkpt>
      <trkpt lat="50.04997" lon="2.14169">
        <ele>29.3</ele>
        <time>2024-03-27T15:52:29Z</time>
      </trkpt>
      <trkpt lat="50.04998" lon="2.14169">
        <ele>29.3</ele>
        <time>2024-03-27T15:52:30Z</time>
      </trkpt>
      <trkpt lat="50.04999" lon="2.14168">
        <ele>29.4</ele>
        <time>2024-03-27T15:52:31Z</time>
      </trkpt>
      <trkpt lat="50.04999" lon="2.14168">
        <ele>29.4</ele>
        <time>2024-03-27T15:52:32Z</time>
      </trkpt>
      <trkpt lat="50.05" lon="2.14167">
        <ele>29.4</ele>
        <time>2024-03-27T15:52:33Z</time>
      </trkpt>
      <trkpt lat="50.05001" lon="2.14167">
        <ele>29.4</ele>
        <time>2024-03-27T15:52:34Z</time>
      </trkpt>
      <trkpt lat="50.05001" lon="2.14166">
        <ele>29.4</ele>
        <time>2024-03-27T15:52:35Z</time>
      </trkpt>
      <trkpt lat="50.05002" lon="2.14166">
        <ele>29.4</ele>
        <time>2024-03-27T15:52:36Z</time>
      </trkpt>
      <trkpt lat="50.05002" lon="2.14166">
        <ele>29.4</ele>
        <time>2024-03-27T15:52:37Z</time>
      </trkpt>
      <trkpt lat="50.05002" lon="2.14167">
        <ele>29.4</ele>
        <time>2024-03-27T15:52:38Z</time>
      </trkpt>
      <trkpt lat="50.05002" lon="2.14167">
        <ele>29.4</ele>
        <time>2024-03-27T15:52:39Z</time>
      </trkpt>
      <trkpt lat="50.05001" lon="2.14167">
        <ele>29.4</ele>
        <time>2024-03-27T15:52:40Z</time>
      </trkpt>
      <trkpt lat="50.05001" lon="2.14167">
        <ele>29.4</ele>
        <time>2024-03-27T15:52:41Z</time>
      </trkpt>
      <trkpt lat="50.05001" lon="2.14167">
        <ele>29.4</ele>
        <time>2024-03-27T15:52:42Z</time>
      </trkpt>
      <trkpt lat="50.05001" lon="2.14167">
        <ele>29.4</ele>
        <time>2024-03-27T15:52:43Z</time>
      </trkpt>
      <trkpt lat="50.05" lon="2.14168">
        <ele>29.4</ele>
        <time>2024-03-27T15:52:44Z</time>
      </trkpt>
      <trkpt lat="50.05" lon="2.14168">
        <ele>29.4</ele>
        <time>2024-03-27T15:52:45Z</time>
      </trkpt>
      <trkpt lat="50.05" lon="2.14168">
        <ele>29.4</ele>
        <time>2024-03-27T15:52:46Z</time>
      </trkpt>
      <trkpt lat="50.04999" lon="2.14168">
        <ele>29.4</ele>
        <time>2024-03-27T15:52:47Z</time>
      </trkpt>
      <trkpt lat="50.04999" lon="2.14168">
        <ele>29.4</ele>
        <time>2024-03-27T15:52:48Z</time>
      </trkpt>
      <trkpt lat="50.04999" lon="2.14168">
        <ele>29.4</ele>
        <time>2024-03-27T15:52:49Z</time>
      </trkpt>
      <trkpt lat="50.04999" lon="2.14168">
        <ele>29.4</ele>
        <time>2024-03-27T15:52:50Z</time>
      </trkpt>
      <trkpt lat="50.04998" lon="2.14169">
        <ele>29.4</ele>
        <time>2024-03-27T15:52:51Z</time>
      </trkpt>
      <trkpt lat="50.04997" lon="2.1417">
        <ele>29.4</ele>
        <time>2024-03-27T15:52:52Z</time>
      </trkpt>
      <trkpt lat="50.04996" lon="2.14171">
        <ele>29.4</ele>
        <time>2024-03-27T15:52:53Z</time>
      </trkpt>
      <trkpt lat="50.04996" lon="2.14172">
        <ele>29.4</ele>
        <time>2024-03-27T15:52:54Z</time>
      </trkpt>
      <trkpt lat="50.04996" lon="2.14174">
        <ele>29.4</ele>
        <time>2024-03-27T15:52:55Z</time>
      </trkpt>
      <trkpt lat="50.04996" lon="2.14175">
        <ele>29.4</ele>
        <time>2024-03-27T15:52:56Z</time>
      </trkpt>
      <trkpt lat="50.04995" lon="2.14176">
        <ele>29.4</ele>
        <time>2024-03-27T15:52:57Z</time>
      </trkpt>
      <trkpt lat="50.04995" lon="2.14177">
        <ele>29.4</ele>
        <time>2024-03-27T15:52:58Z</time>
      </trkpt>
      <trkpt lat="50.04995" lon="2.14177">
        <ele>29.4</ele>
        <time>2024-03-27T15:52:59Z</time>
      </trkpt>
      <trkpt lat="50.04995" lon="2.14178">
        <ele>29.4</ele>
        <time>2024-03-27T15:53:00Z</time>
      </trkpt>
      <trkpt lat="50.04995" lon="2.14179">
        <ele>29.4</ele>
        <time>2024-03-27T15:53:01Z</time>
      </trkpt>
      <trkpt lat="50.04995" lon="2.1418">
        <ele>29.4</ele>
        <time>2024-03-27T15:53:02Z</time>
      </trkpt>
      <trkpt lat="50.04994" lon="2.14181">
        <ele>29.4</ele>
        <time>2024-03-27T15:53:03Z</time>
      </trkpt>
      <trkpt lat="50.04994" lon="2.14181">
        <ele>29.4</ele>
        <time>2024-03-27T15:53:04Z</time>
      </trkpt>
      <trkpt lat="50.04994" lon="2.14182">
        <ele>29.4</ele>
        <time>2024-03-27T15:53:05Z</time>
      </trkpt>
      <trkpt lat="50.04994" lon="2.14182">
        <ele>29.4</ele>
        <time>2024-03-27T15:53:06Z</time>
      </trkpt>
      <trkpt lat="50.04993" lon="2.14183">
        <ele>29.4</ele>
        <time>2024-03-27T15:53:07Z</time>
      </trkpt>
      <trkpt lat="50.04993" lon="2.14183">
        <ele>29.4</ele>
        <time>2024-03-27T15:53:08Z</time>
      </trkpt>
      <trkpt lat="50.04993" lon="2.14184">
        <ele>29.4</ele>
        <time>2024-03-27T15:53:09Z</time>
      </trkpt>
      <trkpt lat="50.04993" lon="2.14185">
        <ele>29.4</ele>
        <time>2024-03-27T15:53:10Z</time>
      </trkpt>
      <trkpt lat="50.04994" lon="2.14185">
        <ele>29.4</ele>
        <time>2024-03-27T15:53:11Z</time>
      </trkpt>
      <trkpt lat="50.04994" lon="2.14186">
        <ele>29.4</ele>
        <time>2024-03-27T15:53:12Z</time>
      </trkpt>
      <trkpt lat="50.04994" lon="2.14187">
        <ele>29.4</ele>
        <time>2024-03-27T15:53:13Z</time>
      </trkpt>
      <trkpt lat="50.04995" lon="2.14188">
        <ele>29.4</ele>
        <time>2024-03-27T15:53:14Z</time>
      </trkpt>
      <trkpt lat="50.04995" lon="2.14189">
        <ele>29.4</ele>
        <time>2024-03-27T15:53:15Z</time>
      </trkpt>
      <trkpt lat="50.04996" lon="2.1419">
        <ele>29.4</ele>
        <time>2024-03-27T15:53:16Z</time>
      </trkpt>
      <trkpt lat="50.04997" lon="2.1419">
        <ele>29.4</ele>
        <time>2024-03-27T15:53:17Z</time>
      </trkpt>
      <trkpt lat="50.04998" lon="2.14191">
        <ele>29.4</ele>
        <time>2024-03-27T15:53:18Z</time>
      </trkpt>
      <trkpt lat="50.04998" lon="2.14192">
        <ele>29.4</ele>
        <time>2024-03-27T15:53:19Z</time>
      </trkpt>
      <trkpt lat="50.04999" lon="2.14192">
        <ele>29.4</ele>
        <time>2024-03-27T15:53:20Z</time>
      </trkpt>
      <trkpt lat="50.04999" lon="2.14193">
        <ele>29.4</ele>
        <time>2024-03-27T15:53:21Z</time>
      </trkpt>
      <trkpt lat="50.04999" lon="2.14193">
        <ele>29.4</ele>
        <time>2024-03-27T15:53:22Z</time>
      </trkpt>
      <trkpt lat="50.04998" lon="2.14193">
        <ele>29.4</ele>
        <time>2024-03-27T15:53:23Z</time>
      </trkpt>
      <trkpt lat="50.04997" lon="2.14193">
        <ele>29.4</ele>
        <time>2024-03-27T15:53:24Z</time>
      </trkpt>
      <trkpt lat="50.04997" lon="2.14193">
        <ele>29.4</ele>
        <time>2024-03-27T15:53:25Z</time>
      </trkpt>
      <trkpt lat="50.04997" lon="2.14193">
        <ele>29.4</ele>
        <time>2024-03-27T15:53:26Z</time>
      </trkpt>
      <trkpt lat="50.04996" lon="2.14192">
        <ele>29.4</ele>
        <time>2024-03-27T15:53:27Z</time>
      </trkpt>
      <trkpt lat="50.04996" lon="2.14192">
        <ele>29.5</ele>
        <time>2024-03-27T15:53:28Z</time>
      </trkpt>
      <trkpt lat="50.04995" lon="2.14192">
        <ele>29.5</ele>
        <time>2024-03-27T15:53:29Z</time>
      </trkpt>
      <trkpt lat="50.04995" lon="2.14192">
        <ele>29.5</ele>
        <time>2024-03-27T15:53:30Z</time>
      </trkpt>
      <trkpt lat="50.04995" lon="2.14192">
        <ele>29.5</ele>
        <time>2024-03-27T15:53:31Z</time>
      </trkpt>
      <trkpt lat="50.04994" lon="2.14192">
        <ele>29.5</ele>
        <time>2024-03-27T15:53:32Z</time>
      </trkpt>
      <trkpt lat="50.04994" lon="2.14191">
        <ele>29.5</ele>
        <time>2024-03-27T15:53:33Z</time>
      </trkpt>
      <trkpt lat="50.04994" lon="2.14191">
        <ele>29.5</ele>
        <time>2024-03-27T15:53:34Z</time>
      </trkpt>
      <trkpt lat="50.04993" lon="2.14191">
        <ele>29.5</ele>
        <time>2024-03-27T15:53:35Z</time>
      </trkpt>
      <trkpt lat="50.04993" lon="2.14191">
        <ele>29.5</ele>
        <time>2024-03-27T15:53:36Z</time>
      </trkpt>
      <trkpt lat="50.04993" lon="2.14191">
        <ele>29.5</ele>
        <time>2024-03-27T15:53:37Z</time>
      </trkpt>
      <trkpt lat="50.04993" lon="2.14191">
        <ele>29.5</ele>
        <time>2024-03-27T15:53:38Z</time>
      </trkpt>
      <trkpt lat="50.04993" lon="2.1419">
        <ele>29.5</ele>
        <time>2024-03-27T15:53:39Z</time>
      </trkpt>
      <trkpt lat="50.04993" lon="2.1419">
        <ele>29.5</ele>
        <time>2024-03-27T15:53:40Z</time>
      </trkpt>
      <trkpt lat="50.04992" lon="2.14189">
        <ele>29.5</ele>
        <time>2024-03-27T15:53:41Z</time>
      </trkpt>
      <trkpt lat="50.04992" lon="2.14189">
        <ele>29.5</ele>
        <time>2024-03-27T15:53:42Z</time>
      </trkpt>
      <trkpt lat="50.04992" lon="2.14189">
        <ele>29.5</ele>
        <time>2024-03-27T15:53:43Z</time>
      </trkpt>
      <trkpt lat="50.04992" lon="2.14189">
        <ele>29.5</ele>
        <time>2024-03-27T15:53:44Z</time>
      </trkpt>
      <trkpt lat="50.04992" lon="2.14189">
        <ele>29.5</ele>
        <time>2024-03-27T15:53:45Z</time>
      </trkpt>
      <trkpt lat="50.04992" lon="2.14189">
        <ele>29.5</ele>
        <time>2024-03-27T15:53:46Z</time>
      </trkpt>
      <trkpt lat="50.04992" lon="2.14187">
        <ele>29.5</ele>
        <time>2024-03-27T15:53:47Z</time>
      </trkpt>
      <trkpt lat="50.04992" lon="2.14186">
        <ele>29.5</ele>
        <time>2024-03-27T15:53:48Z</time>
      </trkpt>
      <trkpt lat="50.04992" lon="2.14186">
        <ele>29.5</ele>
        <time>2024-03-27T15:53:49Z</time>
      </trkpt>
      <trkpt lat="50.04991" lon="2.14186">
        <ele>29.5</ele>
        <time>2024-03-27T15:53:50Z</time>
      </trkpt>
      <trkpt lat="50.04991" lon="2.14186">
        <ele>29.5</ele>
        <time>2024-03-27T15:53:51Z</time>
      </trkpt>
      <trkpt lat="50.04991" lon="2.14185">
        <ele>29.5</ele>
        <time>2024-03-27T15:53:52Z</time>
      </trkpt>
      <trkpt lat="50.04991" lon="2.14185">
        <ele>29.5</ele>
        <time>2024-03-27T15:53:53Z</time>
      </trkpt>
      <trkpt lat="50.04991" lon="2.14185">
        <ele>29.5</ele>
        <time>2024-03-27T15:53:54Z</time>
      </trkpt>
      <trkpt lat="50.04991" lon="2.14185">
        <ele>29.5</ele>
        <time>2024-03-27T15:53:55Z</time>
      </trkpt>
      <trkpt lat="50.04991" lon="2.14185">
        <ele>29.5</ele>
        <time>2024-03-27T15:53:56Z</time>
      </trkpt>
      <trkpt lat="50.04991" lon="2.14185">
        <ele>29.5</ele>
        <time>2024-03-27T15:53:57Z</time>
      </trkpt>
      <trkpt lat="50.04991" lon="2.14185">
        <ele>29.5</ele>
        <time>2024-03-27T15:53:58Z</time>
      </trkpt>
      <trkpt lat="50.04991" lon="2.14185">
        <ele>29.5</ele>
        <time>2024-03-27T15:53:59Z</time>
      </trkpt>
      <trkpt lat="50.04991" lon="2.14185">
        <ele>29.5</ele>
        <time>2024-03-27T15:54:00Z</time>
      </trkpt>
      <trkpt lat="50.04991" lon="2.14185">
        <ele>29.5</ele>
        <time>2024-03-27T15:54:01Z</time>
      </trkpt>
      <trkpt lat="50.04991" lon="2.14185">
        <ele>29.5</ele>
        <time>2024-03-27T15:54:02Z</time>
      </trkpt>
      <trkpt lat="50.04991" lon="2.14185">
        <ele>29.5</ele>
        <time>2024-03-27T15:54:03Z</time>
      </trkpt>
      <trkpt lat="50.04991" lon="2.14185">
        <ele>29.5</ele>
        <time>2024-03-27T15:54:04Z</time>
      </trkpt>
      <trkpt lat="50.04991" lon="2.14185">
        <ele>29.5</ele>
        <time>2024-03-27T15:54:05Z</time>
      </trkpt>
      <trkpt lat="50.04991" lon="2.14185">
        <ele>29.5</ele>
        <time>2024-03-27T15:54:06Z</time>
      </trkpt>
      <trkpt lat="50.04991" lon="2.14185">
        <ele>29.5</ele>
        <time>2024-03-27T15:54:07Z</time>
      </trkpt>
      <trkpt lat="50.04991" lon="2.14185">
        <ele>29.5</ele>
        <time>2024-03-27T15:54:08Z</time>
      </trkpt>
      <trkpt lat="50.04991" lon="2.14185">
        <ele>29.5</ele>
        <time>2024-03-27T15:54:09Z</time>
      </trkpt>
      <trkpt lat="50.04991" lon="2.14185">
        <ele>29.5</ele>
        <time>2024-03-27T15:54:10Z</time>
      </trkpt>
      <trkpt lat="50.04991" lon="2.14185">
        <ele>29.5</ele>
        <time>2024-03-27T15:54:11Z</time>
      </trkpt>
      <trkpt lat="50.04991" lon="2.14185">
        <ele>29.5</ele>
        <time>2024-03-27T15:54:12Z</time>
      </trkpt>
      <trkpt lat="50.04991" lon="2.14185">
        <ele>29.5</ele>
        <time>2024-03-27T15:54:13Z</time>
      </trkpt>
      <trkpt lat="50.04991" lon="2.14185">
        <ele>29.5</ele>
        <time>2024-03-27T15:54:14Z</time>
      </trkpt>
      <trkpt lat="50.04991" lon="2.14185">
        <ele>29.5</ele>
        <time>2024-03-27T15:54:15Z</time>
      </trkpt>
      <trkpt lat="50.04991" lon="2.14185">
        <ele>29.5</ele>
        <time>2024-03-27T15:54:16Z</time>
      </trkpt>
      <trkpt lat="50.04991" lon="2.14185">
        <ele>29.5</ele>
        <time>2024-03-27T15:54:17Z</time>
      </trkpt>
      <trkpt lat="50.04991" lon="2.14185">
        <ele>29.5</ele>
        <time>2024-03-27T15:54:18Z</time>
      </trkpt>
      <trkpt lat="50.04991" lon="2.14185">
        <ele>29.5</ele>
        <time>2024-03-27T15:54:19Z</time>
      </trkpt>
      <trkpt lat="50.04991" lon="2.14185">
        <ele>29.5</ele>
        <time>2024-03-27T15:54:20Z</time>
      </trkpt>
      <trkpt lat="50.04991" lon="2.14185">
        <ele>29.5</ele>
        <time>2024-03-27T15:54:21Z</time>
      </trkpt>
      <trkpt lat="50.04991" lon="2.14185">
        <ele>29.5</ele>
        <time>2024-03-27T15:54:22Z</time>
      </trkpt>
      <trkpt lat="50.04991" lon="2.14185">
        <ele>29.5</ele>
        <time>2024-03-27T15:54:23Z</time>
      </trkpt>
      <trkpt lat="50.04991" lon="2.14185">
        <ele>29.5</ele>
        <time>2024-03-27T15:54:24Z</time>
      </trkpt>
      <trkpt lat="50.04991" lon="2.14185">
        <ele>29.5</ele>
        <time>2024-03-27T15:54:25Z</time>
      </trkpt>
      <trkpt lat="50.04991" lon="2.14185">
        <ele>29.5</ele>
        <time>2024-03-27T15:54:26Z</time>
      </trkpt>
      <trkpt lat="50.04991" lon="2.14185">
        <ele>29.5</ele>
        <time>2024-03-27T15:54:27Z</time>
      </trkpt>
      <trkpt lat="50.04991" lon="2.14185">
        <ele>29.5</ele>
        <time>2024-03-27T15:54:28Z</time>
      </trkpt>
      <trkpt lat="50.04991" lon="2.14185">
        <ele>29.5</ele>
        <time>2024-03-27T15:54:29Z</time>
      </trkpt>
      <trkpt lat="50.04991" lon="2.14185">
        <ele>29.5</ele>
        <time>2024-03-27T15:54:30Z</time>
      </trkpt>
      <trkpt lat="50.04991" lon="2.14185">
        <ele>29.5</ele>
        <time>2024-03-27T15:54:31Z</time>
      </trkpt>
      <trkpt lat="50.04991" lon="2.14185">
        <ele>29.5</ele>
        <time>2024-03-27T15:54:32Z</time>
      </trkpt>
      <trkpt lat="50.04991" lon="2.14185">
        <ele>29.5</ele>
        <time>2024-03-27T15:54:33Z</time>
      </trkpt>
      <trkpt lat="50.04991" lon="2.14185">
        <ele>29.5</ele>
        <time>2024-03-27T15:54:34Z</time>
      </trkpt>
      <trkpt lat="50.04991" lon="2.14185">
        <ele>29.5</ele>
        <time>2024-03-27T15:54:35Z</time>
      </trkpt>
      <trkpt lat="50.04991" lon="2.14185">
        <ele>29.5</ele>
        <time>2024-03-27T15:54:36Z</time>
      </trkpt>
      <trkpt lat="50.04991" lon="2.14185">
        <ele>29.5</ele>
        <time>2024-03-27T15:54:37Z</time>
      </trkpt>
      <trkpt lat="50.04991" lon="2.14185">
        <ele>29.5</ele>
        <time>2024-03-27T15:54:38Z</time>
      </trkpt>
      <trkpt lat="50.04991" lon="2.14185">
        <ele>29.5</ele>
        <time>2024-03-27T15:54:39Z</time>
      </trkpt>
      <trkpt lat="50.04992" lon="2.14181">
        <ele>29.5</ele>
        <time>2024-03-27T15:54:40Z</time>
      </trkpt>
      <trkpt lat="50.04993" lon="2.1418">
        <ele>29.5</ele>
        <time>2024-03-27T15:54:41Z</time>
      </trkpt>
      <trkpt lat="50.04993" lon="2.1418">
        <ele>29.5</ele>
        <time>2024-03-27T15:54:42Z</time>
      </trkpt>
      <trkpt lat="50.04993" lon="2.1418">
        <ele>29.5</ele>
        <time>2024-03-27T15:54:43Z</time>
      </trkpt>
      <trkpt lat="50.04993" lon="2.1418">
        <ele>29.5</ele>
        <time>2024-03-27T15:54:44Z</time>
      </trkpt>
      <trkpt lat="50.04993" lon="2.1418">
        <ele>29.5</ele>
        <time>2024-03-27T15:54:45Z</time>
      </trkpt>
      <trkpt lat="50.04993" lon="2.1418">
        <ele>29.5</ele>
        <time>2024-03-27T15:54:46Z</time>
      </trkpt>
      <trkpt lat="50.04993" lon="2.1418">
        <ele>29.5</ele>
        <time>2024-03-27T15:54:47Z</time>
      </trkpt>
      <trkpt lat="50.04993" lon="2.1418">
        <ele>29.5</ele>
        <time>2024-03-27T15:54:48Z</time>
      </trkpt>
      <trkpt lat="50.04993" lon="2.1418">
        <ele>29.5</ele>
        <time>2024-03-27T15:54:49Z</time>
      </trkpt>
      <trkpt lat="50.04993" lon="2.1418">
        <ele>29.5</ele>
        <time>2024-03-27T15:54:50Z</time>
      </trkpt>
      <trkpt lat="50.04993" lon="2.1418">
        <ele>29.5</ele>
        <time>2024-03-27T15:54:51Z</time>
      </trkpt>
      <trkpt lat="50.04993" lon="2.1418">
        <ele>29.5</ele>
        <time>2024-03-27T15:54:52Z</time>
      </trkpt>
      <trkpt lat="50.04993" lon="2.1418">
        <ele>29.5</ele>
        <time>2024-03-27T15:54:53Z</time>
      </trkpt>
      <trkpt lat="50.04993" lon="2.1418">
        <ele>29.5</ele>
        <time>2024-03-27T15:54:54Z</time>
      </trkpt>
      <trkpt lat="50.04993" lon="2.1418">
        <ele>29.5</ele>
        <time>2024-03-27T15:54:55Z</time>
      </trkpt>
      <trkpt lat="50.04993" lon="2.1418">
        <ele>29.5</ele>
        <time>2024-03-27T15:54:56Z</time>
      </trkpt>
      <trkpt lat="50.04993" lon="2.1418">
        <ele>29.5</ele>
        <time>2024-03-27T15:54:57Z</time>
      </trkpt>
      <trkpt lat="50.04993" lon="2.1418">
        <ele>29.5</ele>
        <time>2024-03-27T15:54:58Z</time>
      </trkpt>
      <trkpt lat="50.04993" lon="2.1418">
        <ele>29.5</ele>
        <time>2024-03-27T15:54:59Z</time>
      </trkpt>
      <trkpt lat="50.04993" lon="2.1418">
        <ele>29.5</ele>
        <time>2024-03-27T15:55:00Z</time>
      </trkpt>
      <trkpt lat="50.04993" lon="2.1418">
        <ele>29.5</ele>
        <time>2024-03-27T15:55:01Z</time>
      </trkpt>
      <trkpt lat="50.04993" lon="2.1418">
        <ele>29.5</ele>
        <time>2024-03-27T15:55:02Z</time>
      </trkpt>
      <trkpt lat="50.04993" lon="2.1418">
        <ele>29.5</ele>
        <time>2024-03-27T15:55:03Z</time>
      </trkpt>
      <trkpt lat="50.04993" lon="2.1418">
        <ele>29.5</ele>
        <time>2024-03-27T15:55:04Z</time>
      </trkpt>
      <trkpt lat="50.04993" lon="2.1418">
        <ele>29.5</ele>
        <time>2024-03-27T15:55:05Z</time>
      </trkpt>
      <trkpt lat="50.04993" lon="2.1418">
        <ele>29.5</ele>
        <time>2024-03-27T15:55:06Z</time>
      </trkpt>
      <trkpt lat="50.04993" lon="2.1418">
        <ele>29.5</ele>
        <time>2024-03-27T15:55:07Z</time>
      </trkpt>
      <trkpt lat="50.04993" lon="2.1418">
        <ele>29.5</ele>
        <time>2024-03-27T15:55:08Z</time>
      </trkpt>
      <trkpt lat="50.04993" lon="2.1418">
        <ele>29.5</ele>
        <time>2024-03-27T15:55:09Z</time>
      </trkpt>
      <trkpt lat="50.04993" lon="2.1418">
        <ele>29.5</ele>
        <time>2024-03-27T15:55:10Z</time>
      </trkpt>
      <trkpt lat="50.04993" lon="2.1418">
        <ele>29.5</ele>
        <time>2024-03-27T15:55:11Z</time>
      </trkpt>
      <trkpt lat="50.04993" lon="2.1418">
        <ele>29.5</ele>
        <time>2024-03-27T15:55:12Z</time>
      </trkpt>
      <trkpt lat="50.04993" lon="2.1418">
        <ele>29.5</ele>
        <time>2024-03-27T15:55:13Z</time>
      </trkpt>
      <trkpt lat="50.04993" lon="2.1418">
        <ele>29.5</ele>
        <time>2024-03-27T15:55:14Z</time>
      </trkpt>
      <trkpt lat="50.04993" lon="2.1418">
        <ele>29.5</ele>
        <time>2024-03-27T15:55:15Z</time>
      </trkpt>
      <trkpt lat="50.04993" lon="2.1418">
        <ele>29.5</ele>
        <time>2024-03-27T15:55:16Z</time>
      </trkpt>
      <trkpt lat="50.04993" lon="2.1418">
        <ele>29.5</ele>
        <time>2024-03-27T15:55:17Z</time>
      </trkpt>
      <trkpt lat="50.04993" lon="2.1418">
        <ele>29.5</ele>
        <time>2024-03-27T15:55:18Z</time>
      </trkpt>
      <trkpt lat="50.04993" lon="2.1418">
        <ele>29.5</ele>
        <time>2024-03-27T15:55:19Z</time>
      </trkpt>
      <trkpt lat="50.04993" lon="2.1418">
        <ele>29.5</ele>
        <time>2024-03-27T15:55:20Z</time>
      </trkpt>
      <trkpt lat="50.04993" lon="2.1418">
        <ele>29.5</ele>
        <time>2024-03-27T15:55:21Z</time>
      </trkpt>
      <trkpt lat="50.04993" lon="2.1418">
        <ele>29.5</ele>
        <time>2024-03-27T15:55:22Z</time>
      </trkpt>
      <trkpt lat="50.04993" lon="2.1418">
        <ele>29.5</ele>
        <time>2024-03-27T15:55:23Z</time>
      </trkpt>
      <trkpt lat="50.04993" lon="2.1418">
        <ele>29.5</ele>
        <time>2024-03-27T15:55:24Z</time>
      </trkpt>
      <trkpt lat="50.04993" lon="2.1418">
        <ele>29.5</ele>
        <time>2024-03-27T15:55:25Z</time>
      </trkpt>
      <trkpt lat="50.04993" lon="2.1418">
        <ele>29.5</ele>
        <time>2024-03-27T15:55:26Z</time>
      </trkpt>
      <trkpt lat="50.04993" lon="2.1418">
        <ele>29.5</ele>
        <time>2024-03-27T15:55:27Z</time>
      </trkpt>
      <trkpt lat="50.04993" lon="2.1418">
        <ele>29.5</ele>
        <time>2024-03-27T15:55:28Z</time>
      </trkpt>
      <trkpt lat="50.04993" lon="2.1418">
        <ele>29.5</ele>
        <time>2024-03-27T15:55:29Z</time>
      </trkpt>
      <trkpt lat="50.04993" lon="2.1418">
        <ele>29.5</ele>
        <time>2024-03-27T15:55:30Z</time>
      </trkpt>
      <trkpt lat="50.04993" lon="2.1418">
        <ele>29.5</ele>
        <time>2024-03-27T15:55:31Z</time>
      </trkpt>
      <trkpt lat="50.04993" lon="2.1418">
        <ele>29.5</ele>
        <time>2024-03-27T15:55:32Z</time>
      </trkpt>
      <trkpt lat="50.04993" lon="2.1418">
        <ele>29.5</ele>
        <time>2024-03-27T15:55:33Z</time>
      </trkpt>
      <trkpt lat="50.04993" lon="2.1418">
        <ele>29.5</ele>
        <time>2024-03-27T15:55:34Z</time>
      </trkpt>
      <trkpt lat="50.04993" lon="2.1418">
        <ele>29.5</ele>
        <time>2024-03-27T15:55:35Z</time>
      </trkpt>
      <trkpt lat="50.04993" lon="2.1418">
        <ele>29.5</ele>
        <time>2024-03-27T15:55:36Z</time>
      </trkpt>
      <trkpt lat="50.04993" lon="2.1418">
        <ele>29.5</ele>
        <time>2024-03-27T15:55:37Z</time>
      </trkpt>
      <trkpt lat="50.04993" lon="2.1418">
        <ele>29.5</ele>
        <time>2024-03-27T15:55:38Z</time>
      </trkpt>
      <trkpt lat="50.04993" lon="2.1418">
        <ele>29.5</ele>
        <time>2024-03-27T15:55:39Z</time>
      </trkpt>
      <trkpt lat="50.04993" lon="2.1418">
        <ele>29.5</ele>
        <time>2024-03-27T15:55:40Z</time>
      </trkpt>
      <trkpt lat="50.04993" lon="2.1418">
        <ele>29.5</ele>
        <time>2024-03-27T15:55:41Z</time>
      </trkpt>
      <trkpt lat="50.04993" lon="2.1418">
        <ele>29.5</ele>
        <time>2024-03-27T15:55:42Z</time>
      </trkpt>
      <trkpt lat="50.04993" lon="2.1418">
        <ele>29.5</ele>
        <time>2024-03-27T15:55:43Z</time>
      </trkpt>
      <trkpt lat="50.04993" lon="2.1418">
        <ele>29.5</ele>
        <time>2024-03-27T15:55:44Z</time>
      </trkpt>
      <trkpt lat="50.04993" lon="2.1418">
        <ele>29.5</ele>
        <time>2024-03-27T15:55:45Z</time>
      </trkpt>
      <trkpt lat="50.04993" lon="2.1418">
        <ele>29.5</ele>
        <time>2024-03-27T15:55:46Z</time>
      </trkpt>
      <trkpt lat="50.04993" lon="2.1418">
        <ele>29.5</ele>
        <time>2024-03-27T15:55:47Z</time>
      </trkpt>
      <trkpt lat="50.04993" lon="2.1418">
        <ele>29.5</ele>
        <time>2024-03-27T15:55:48Z</time>
      </trkpt>
      <trkpt lat="50.04993" lon="2.1418">
        <ele>29.5</ele>
        <time>2024-03-27T15:55:49Z</time>
      </trkpt>
      <trkpt lat="50.04993" lon="2.1418">
        <ele>29.5</ele>
        <time>2024-03-27T15:55:50Z</time>
      </trkpt>
      <trkpt lat="50.04993" lon="2.1418">
        <ele>29.5</ele>
        <time>2024-03-27T15:55:51Z</time>
      </trkpt>
      <trkpt lat="50.04993" lon="2.1418">
        <ele>29.5</ele>
        <time>2024-03-27T15:55:52Z</time>
      </trkpt>
      <trkpt lat="50.04993" lon="2.1418">
        <ele>29.5</ele>
        <time>2024-03-27T15:55:53Z</time>
      </trkpt>
      <trkpt lat="50.04993" lon="2.1418">
        <ele>29.5</ele>
        <time>2024-03-27T15:55:54Z</time>
      </trkpt>
      <trkpt lat="50.04993" lon="2.1418">
        <ele>29.5</ele>
        <time>2024-03-27T15:55:55Z</time>
      </trkpt>
      <trkpt lat="50.04993" lon="2.1418">
        <ele>29.5</ele>
        <time>2024-03-27T15:55:56Z</time>
      </trkpt>
      <trkpt lat="50.04993" lon="2.1418">
        <ele>29.5</ele>
        <time>2024-03-27T15:55:57Z</time>
      </trkpt>
      <trkpt lat="50.04993" lon="2.1418">
        <ele>29.5</ele>
        <time>2024-03-27T15:55:58Z</time>
      </trkpt>
      <trkpt lat="50.04993" lon="2.1418">
        <ele>29.5</ele>
        <time>2024-03-27T15:55:59Z</time>
      </trkpt>
      <trkpt lat="50.04993" lon="2.1418">
        <ele>29.5</ele>
        <time>2024-03-27T15:56:00Z</time>
      </trkpt>
      <trkpt lat="50.04993" lon="2.1418">
        <ele>29.5</ele>
        <time>2024-03-27T15:56:01Z</time>
      </trkpt>
      <trkpt lat="50.04993" lon="2.1418">
        <ele>29.5</ele>
        <time>2024-03-27T15:56:02Z</time>
      </trkpt>
      <trkpt lat="50.04993" lon="2.1418">
        <ele>29.5</ele>
        <time>2024-03-27T15:56:03Z</time>
      </trkpt>
      <trkpt lat="50.04993" lon="2.1418">
        <ele>29.5</ele>
        <time>2024-03-27T15:56:04Z</time>
      </trkpt>
      <trkpt lat="50.04993" lon="2.1418">
        <ele>29.5</ele>
        <time>2024-03-27T15:56:05Z</time>
      </trkpt>
      <trkpt lat="50.04993" lon="2.1418">
        <ele>29.5</ele>
        <time>2024-03-27T15:56:06Z</time>
      </trkpt>
      <trkpt lat="50.04993" lon="2.1418">
        <ele>29.5</ele>
        <time>2024-03-27T15:56:07Z</time>
      </trkpt>
      <trkpt lat="50.04993" lon="2.1418">
        <ele>29.5</ele>
        <time>2024-03-27T15:56:08Z</time>
      </trkpt>
      <trkpt lat="50.04993" lon="2.1418">
        <ele>29.5</ele>
        <time>2024-03-27T15:56:09Z</time>
      </trkpt>
      <trkpt lat="50.04993" lon="2.1418">
        <ele>29.5</ele>
        <time>2024-03-27T15:56:10Z</time>
      </trkpt>
      <trkpt lat="50.04993" lon="2.1418">
        <ele>29.5</ele>
        <time>2024-03-27T15:56:11Z</time>
      </trkpt>
      <trkpt lat="50.04993" lon="2.1418">
        <ele>29.5</ele>
        <time>2024-03-27T15:56:12Z</time>
      </trkpt>
      <trkpt lat="50.04993" lon="2.1418">
        <ele>29.5</ele>
        <time>2024-03-27T15:56:13Z</time>
      </trkpt>
      <trkpt lat="50.04993" lon="2.1418">
        <ele>29.5</ele>
        <time>2024-03-27T15:56:14Z</time>
      </trkpt>
      <trkpt lat="50.04993" lon="2.1418">
        <ele>29.5</ele>
        <time>2024-03-27T15:56:15Z</time>
      </trkpt>
      <trkpt lat="50.04993" lon="2.1418">
        <ele>29.5</ele>
        <time>2024-03-27T15:56:16Z</time>
      </trkpt>
      <trkpt lat="50.04993" lon="2.1418">
        <ele>29.5</ele>
        <time>2024-03-27T15:56:17Z</time>
      </trkpt>
      <trkpt lat="50.04993" lon="2.1418">
        <ele>29.5</ele>
        <time>2024-03-27T15:56:18Z</time>
      </trkpt>
      <trkpt lat="50.04993" lon="2.1418">
        <ele>29.5</ele>
        <time>2024-03-27T15:56:19Z</time>
      </trkpt>
      <trkpt lat="50.04993" lon="2.1418">
        <ele>29.5</ele>
        <time>2024-03-27T15:56:20Z</time>
      </trkpt>
      <trkpt lat="50.04993" lon="2.1418">
        <ele>29.5</ele>
        <time>2024-03-27T15:56:21Z</time>
      </trkpt>
      <trkpt lat="50.04993" lon="2.1418">
        <ele>29.5</ele>
        <time>2024-03-27T15:56:22Z</time>
      </trkpt>
      <trkpt lat="50.04993" lon="2.1418">
        <ele>29.5</ele>
        <time>2024-03-27T15:56:23Z</time>
      </trkpt>
      <trkpt lat="50.04993" lon="2.1418">
        <ele>29.5</ele>
        <time>2024-03-27T15:56:24Z</time>
      </trkpt>
      <trkpt lat="50.04993" lon="2.1418">
        <ele>29.5</ele>
        <time>2024-03-27T15:56:25Z</time>
      </trkpt>
      <trkpt lat="50.04993" lon="2.1418">
        <ele>29.5</ele>
        <time>2024-03-27T15:56:26Z</time>
      </trkpt>
      <trkpt lat="50.04993" lon="2.1418">
        <ele>29.5</ele>
        <time>2024-03-27T15:56:27Z</time>
      </trkpt>
      <trkpt lat="50.04993" lon="2.1418">
        <ele>29.5</ele>
        <time>2024-03-27T15:56:28Z</time>
      </trkpt>
      <trkpt lat="50.04993" lon="2.1418">
        <ele>29.5</ele>
        <time>2024-03-27T15:56:29Z</time>
      </trkpt>
      <trkpt lat="50.04993" lon="2.1418">
        <ele>29.5</ele>
        <time>2024-03-27T15:56:30Z</time>
      </trkpt>
      <trkpt lat="50.04993" lon="2.1418">
        <ele>29.5</ele>
        <time>2024-03-27T15:56:31Z</time>
      </trkpt>
      <trkpt lat="50.04993" lon="2.1418">
        <ele>29.5</ele>
        <time>2024-03-27T15:56:32Z</time>
      </trkpt>
      <trkpt lat="50.04993" lon="2.1418">
        <ele>29.5</ele>
        <time>2024-03-27T15:56:33Z</time>
      </trkpt>
      <trkpt lat="50.04993" lon="2.1418">
        <ele>29.5</ele>
        <time>2024-03-27T15:56:34Z</time>
      </trkpt>
      <trkpt lat="50.04993" lon="2.1418">
        <ele>29.5</ele>
        <time>2024-03-27T15:56:35Z</time>
      </trkpt>
      <trkpt lat="50.04993" lon="2.1418">
        <ele>29.5</ele>
        <time>2024-03-27T15:56:36Z</time>
      </trkpt>
      <trkpt lat="50.04993" lon="2.1418">
        <ele>29.5</ele>
        <time>2024-03-27T15:56:37Z</time>
      </trkpt>
      <trkpt lat="50.04993" lon="2.1418">
        <ele>29.5</ele>
        <time>2024-03-27T15:56:38Z</time>
      </trkpt>
      <trkpt lat="50.04992" lon="2.1418">
        <ele>29.5</ele>
        <time>2024-03-27T15:56:39Z</time>
      </trkpt>
      <trkpt lat="50.04993" lon="2.1418">
        <ele>29.5</ele>
        <time>2024-03-27T15:56:40Z</time>
      </trkpt>
      <trkpt lat="50.04993" lon="2.1418">
        <ele>29.5</ele>
        <time>2024-03-27T15:56:41Z</time>
      </trkpt>
      <trkpt lat="50.04993" lon="2.1418">
        <ele>29.5</ele>
        <time>2024-03-27T15:56:42Z</time>
      </trkpt>
      <trkpt lat="50.04993" lon="2.1418">
        <ele>29.5</ele>
        <time>2024-03-27T15:56:43Z</time>
      </trkpt>
      <trkpt lat="50.04993" lon="2.1418">
        <ele>29.5</ele>
        <time>2024-03-27T15:56:44Z</time>
      </trkpt>
      <trkpt lat="50.04992" lon="2.1418">
        <ele>29.5</ele>
        <time>2024-03-27T15:56:45Z</time>
      </trkpt>
      <trkpt lat="50.04993" lon="2.1418">
        <ele>29.5</ele>
        <time>2024-03-27T15:56:46Z</time>
      </trkpt>
      <trkpt lat="50.04993" lon="2.1418">
        <ele>29.5</ele>
        <time>2024-03-27T15:56:47Z</time>
      </trkpt>
      <trkpt lat="50.04993" lon="2.1418">
        <ele>29.5</ele>
        <time>2024-03-27T15:56:48Z</time>
      </trkpt>
      <trkpt lat="50.04993" lon="2.1418">
        <ele>29.5</ele>
        <time>2024-03-27T15:56:49Z</time>
      </trkpt>
      <trkpt lat="50.04993" lon="2.1418">
        <ele>29.5</ele>
        <time>2024-03-27T15:56:50Z</time>
      </trkpt>
      <trkpt lat="50.04993" lon="2.1418">
        <ele>29.5</ele>
        <time>2024-03-27T15:56:51Z</time>
      </trkpt>
      <trkpt lat="50.04993" lon="2.1418">
        <ele>29.5</ele>
        <time>2024-03-27T15:56:52Z</time>
      </trkpt>
      <trkpt lat="50.04993" lon="2.1418">
        <ele>29.5</ele>
        <time>2024-03-27T15:56:53Z</time>
      </trkpt>
      <trkpt lat="50.04992" lon="2.1418">
        <ele>29.5</ele>
        <time>2024-03-27T15:56:54Z</time>
      </trkpt>
      <trkpt lat="50.04992" lon="2.1418">
        <ele>29.5</ele>
        <time>2024-03-27T15:56:55Z</time>
      </trkpt>
      <trkpt lat="50.04992" lon="2.1418">
        <ele>29.5</ele>
        <time>2024-03-27T15:56:56Z</time>
      </trkpt>
      <trkpt lat="50.04992" lon="2.1418">
        <ele>29.5</ele>
        <time>2024-03-27T15:56:57Z</time>
      </trkpt>
      <trkpt lat="50.04992" lon="2.1418">
        <ele>29.5</ele>
        <time>2024-03-27T15:56:58Z</time>
      </trkpt>
      <trkpt lat="50.04992" lon="2.1418">
        <ele>29.5</ele>
        <time>2024-03-27T15:56:59Z</time>
      </trkpt>
      <trkpt lat="50.04992" lon="2.1418">
        <ele>29.5</ele>
        <time>2024-03-27T15:57:00Z</time>
      </trkpt>
      <trkpt lat="50.04992" lon="2.1418">
        <ele>29.5</ele>
        <time>2024-03-27T15:57:01Z</time>
      </trkpt>
      <trkpt lat="50.04992" lon="2.14179">
        <ele>29.5</ele>
        <time>2024-03-27T15:57:02Z</time>
      </trkpt>
      <trkpt lat="50.04992" lon="2.14179">
        <ele>29.5</ele>
        <time>2024-03-27T15:57:03Z</time>
      </trkpt>
      <trkpt lat="50.04992" lon="2.14179">
        <ele>29.5</ele>
        <time>2024-03-27T15:57:04Z</time>
      </trkpt>
      <trkpt lat="50.04992" lon="2.14179">
        <ele>29.5</ele>
        <time>2024-03-27T15:57:05Z</time>
      </trkpt>
      <trkpt lat="50.04992" lon="2.14179">
        <ele>29.5</ele>
        <time>2024-03-27T15:57:06Z</time>
      </trkpt>
      <trkpt lat="50.04992" lon="2.14179">
        <ele>29.5</ele>
        <time>2024-03-27T15:57:07Z</time>
      </trkpt>
      <trkpt lat="50.04992" lon="2.1418">
        <ele>29.5</ele>
        <time>2024-03-27T15:57:08Z</time>
      </trkpt>
      <trkpt lat="50.04992" lon="2.1418">
        <ele>29.5</ele>
        <time>2024-03-27T15:57:09Z</time>
      </trkpt>
      <trkpt lat="50.04992" lon="2.1418">
        <ele>29.5</ele>
        <time>2024-03-27T15:57:10Z</time>
      </trkpt>
      <trkpt lat="50.04992" lon="2.1418">
        <ele>29.5</ele>
        <time>2024-03-27T15:57:11Z</time>
      </trkpt>
      <trkpt lat="50.04991" lon="2.14181">
        <ele>29.5</ele>
        <time>2024-03-27T15:57:12Z</time>
      </trkpt>
      <trkpt lat="50.04992" lon="2.14181">
        <ele>29.5</ele>
        <time>2024-03-27T15:57:13Z</time>
      </trkpt>
      <trkpt lat="50.04992" lon="2.14181">
        <ele>29.5</ele>
        <time>2024-03-27T15:57:14Z</time>
      </trkpt>
      <trkpt lat="50.04992" lon="2.14181">
        <ele>29.5</ele>
        <time>2024-03-27T15:57:15Z</time>
      </trkpt>
      <trkpt lat="50.04992" lon="2.14181">
        <ele>29.5</ele>
        <time>2024-03-27T15:57:16Z</time>
      </trkpt>
      <trkpt lat="50.04993" lon="2.1418">
        <ele>29.5</ele>
        <time>2024-03-27T15:57:17Z</time>
      </trkpt>
      <trkpt lat="50.04992" lon="2.1418">
        <ele>29.5</ele>
        <time>2024-03-27T15:57:18Z</time>
      </trkpt>
      <trkpt lat="50.04992" lon="2.1418">
        <ele>29.5</ele>
        <time>2024-03-27T15:57:19Z</time>
      </trkpt>
      <trkpt lat="50.04993" lon="2.14181">
        <ele>29.5</ele>
        <time>2024-03-27T15:57:20Z</time>
      </trkpt>
      <trkpt lat="50.04993" lon="2.14181">
        <ele>29.5</ele>
        <time>2024-03-27T15:57:21Z</time>
      </trkpt>
      <trkpt lat="50.04993" lon="2.1418">
        <ele>29.5</ele>
        <time>2024-03-27T15:57:22Z</time>
      </trkpt>
      <trkpt lat="50.04993" lon="2.1418">
        <ele>29.5</ele>
        <time>2024-03-27T15:57:23Z</time>
      </trkpt>
      <trkpt lat="50.04993" lon="2.1418">
        <ele>29.5</ele>
        <time>2024-03-27T15:57:24Z</time>
      </trkpt>
      <trkpt lat="50.04993" lon="2.1418">
        <ele>29.5</ele>
        <time>2024-03-27T15:57:25Z</time>
      </trkpt>
      <trkpt lat="50.04993" lon="2.1418">
        <ele>29.5</ele>
        <time>2024-03-27T15:57:26Z</time>
      </trkpt>
      <trkpt lat="50.04993" lon="2.1418">
        <ele>29.5</ele>
        <time>2024-03-27T15:57:27Z</time>
      </trkpt>
      <trkpt lat="50.04993" lon="2.1418">
        <ele>29.5</ele>
        <time>2024-03-27T15:57:28Z</time>
      </trkpt>
      <trkpt lat="50.04993" lon="2.1418">
        <ele>29.5</ele>
        <time>2024-03-27T15:57:29Z</time>
      </trkpt>
      <trkpt lat="50.04993" lon="2.1418">
        <ele>29.5</ele>
        <time>2024-03-27T15:57:30Z</time>
      </trkpt>
      <trkpt lat="50.04993" lon="2.1418">
        <ele>29.5</ele>
        <time>2024-03-27T15:57:31Z</time>
      </trkpt>
      <trkpt lat="50.04992" lon="2.1418">
        <ele>29.5</ele>
        <time>2024-03-27T15:57:32Z</time>
      </trkpt>
      <trkpt lat="50.04992" lon="2.1418">
        <ele>29.5</ele>
        <time>2024-03-27T15:57:33Z</time>
      </trkpt>
      <trkpt lat="50.04992" lon="2.1418">
        <ele>29.5</ele>
        <time>2024-03-27T15:57:34Z</time>
      </trkpt>
      <trkpt lat="50.04992" lon="2.1418">
        <ele>29.5</ele>
        <time>2024-03-27T15:57:35Z</time>
      </trkpt>
      <trkpt lat="50.04992" lon="2.1418">
        <ele>29.5</ele>
        <time>2024-03-27T15:57:36Z</time>
      </trkpt>
      <trkpt lat="50.04992" lon="2.1418">
        <ele>29.5</ele>
        <time>2024-03-27T15:57:37Z</time>
      </trkpt>
      <trkpt lat="50.04992" lon="2.1418">
        <ele>29.5</ele>
        <time>2024-03-27T15:57:38Z</time>
      </trkpt>
      <trkpt lat="50.04992" lon="2.1418">
        <ele>29.5</ele>
        <time>2024-03-27T15:57:39Z</time>
      </trkpt>
      <trkpt lat="50.04992" lon="2.1418">
        <ele>29.5</ele>
        <time>2024-03-27T15:57:40Z</time>
      </trkpt>
      <trkpt lat="50.04992" lon="2.1418">
        <ele>29.5</ele>
        <time>2024-03-27T15:57:41Z</time>
      </trkpt>
      <trkpt lat="50.04992" lon="2.1418">
        <ele>29.5</ele>
        <time>2024-03-27T15:57:42Z</time>
      </trkpt>
      <trkpt lat="50.04992" lon="2.1418">
        <ele>29.5</ele>
        <time>2024-03-27T15:57:43Z</time>
      </trkpt>
      <trkpt lat="50.04992" lon="2.1418">
        <ele>29.5</ele>
        <time>2024-03-27T15:57:44Z</time>
      </trkpt>
      <trkpt lat="50.04992" lon="2.1418">
        <ele>29.5</ele>
        <time>2024-03-27T15:57:45Z</time>
      </trkpt>
      <trkpt lat="50.04992" lon="2.1418">
        <ele>29.5</ele>
        <time>2024-03-27T15:57:46Z</time>
      </trkpt>
      <trkpt lat="50.04992" lon="2.1418">
        <ele>29.5</ele>
        <time>2024-03-27T15:57:47Z</time>
      </trkpt>
      <trkpt lat="50.04992" lon="2.1418">
        <ele>29.5</ele>
        <time>2024-03-27T15:57:48Z</time>
      </trkpt>
      <trkpt lat="50.04992" lon="2.1418">
        <ele>29.5</ele>
        <time>2024-03-27T15:57:49Z</time>
      </trkpt>
      <trkpt lat="50.04992" lon="2.1418">
        <ele>29.5</ele>
        <time>2024-03-27T15:57:50Z</time>
      </trkpt>
      <trkpt lat="50.04992" lon="2.1418">
        <ele>29.5</ele>
        <time>2024-03-27T15:57:51Z</time>
      </trkpt>
      <trkpt lat="50.04992" lon="2.1418">
        <ele>29.5</ele>
        <time>2024-03-27T15:57:52Z</time>
      </trkpt>
      <trkpt lat="50.04992" lon="2.1418">
        <ele>29.5</ele>
        <time>2024-03-27T15:57:53Z</time>
      </trkpt>
      <trkpt lat="50.04992" lon="2.1418">
        <ele>29.5</ele>
        <time>2024-03-27T15:57:54Z</time>
      </trkpt>
      <trkpt lat="50.04992" lon="2.1418">
        <ele>29.5</ele>
        <time>2024-03-27T15:57:55Z</time>
      </trkpt>
      <trkpt lat="50.04992" lon="2.1418">
        <ele>29.5</ele>
        <time>2024-03-27T15:57:56Z</time>
      </trkpt>
      <trkpt lat="50.04992" lon="2.1418">
        <ele>29.5</ele>
        <time>2024-03-27T15:57:57Z</time>
      </trkpt>
      <trkpt lat="50.04992" lon="2.1418">
        <ele>29.5</ele>
        <time>2024-03-27T15:57:58Z</time>
      </trkpt>
      <trkpt lat="50.04992" lon="2.1418">
        <ele>29.5</ele>
        <time>2024-03-27T15:57:59Z</time>
      </trkpt>
      <trkpt lat="50.04992" lon="2.1418">
        <ele>29.5</ele>
        <time>2024-03-27T15:58:00Z</time>
      </trkpt>
      <trkpt lat="50.04992" lon="2.1418">
        <ele>29.5</ele>
        <time>2024-03-27T15:58:01Z</time>
      </trkpt>
      <trkpt lat="50.04992" lon="2.1418">
        <ele>29.5</ele>
        <time>2024-03-27T15:58:02Z</time>
      </trkpt>
      <trkpt lat="50.04992" lon="2.1418">
        <ele>29.5</ele>
        <time>2024-03-27T15:58:03Z</time>
      </trkpt>
      <trkpt lat="50.04992" lon="2.1418">
        <ele>29.5</ele>
        <time>2024-03-27T15:58:04Z</time>
      </trkpt>
      <trkpt lat="50.04992" lon="2.1418">
        <ele>29.5</ele>
        <time>2024-03-27T15:58:05Z</time>
      </trkpt>
      <trkpt lat="50.04992" lon="2.1418">
        <ele>29.5</ele>
        <time>2024-03-27T15:58:06Z</time>
      </trkpt>
      <trkpt lat="50.04992" lon="2.1418">
        <ele>29.5</ele>
        <time>2024-03-27T15:58:07Z</time>
      </trkpt>
      <trkpt lat="50.04992" lon="2.1418">
        <ele>29.5</ele>
        <time>2024-03-27T15:58:08Z</time>
      </trkpt>
      <trkpt lat="50.04992" lon="2.1418">
        <ele>29.5</ele>
        <time>2024-03-27T15:58:09Z</time>
      </trkpt>
      <trkpt lat="50.04992" lon="2.1418">
        <ele>29.5</ele>
        <time>2024-03-27T15:58:10Z</time>
      </trkpt>
      <trkpt lat="50.04992" lon="2.1418">
        <ele>29.5</ele>
        <time>2024-03-27T15:58:11Z</time>
      </trkpt>
      <trkpt lat="50.04992" lon="2.1418">
        <ele>29.5</ele>
        <time>2024-03-27T15:58:12Z</time>
      </trkpt>
      <trkpt lat="50.04992" lon="2.1418">
        <ele>29.5</ele>
        <time>2024-03-27T15:58:13Z</time>
      </trkpt>
      <trkpt lat="50.04992" lon="2.1418">
        <ele>29.5</ele>
        <time>2024-03-27T15:58:14Z</time>
      </trkpt>
      <trkpt lat="50.04992" lon="2.1418">
        <ele>29.5</ele>
        <time>2024-03-27T15:58:15Z</time>
      </trkpt>
      <trkpt lat="50.04992" lon="2.1418">
        <ele>29.5</ele>
        <time>2024-03-27T15:58:16Z</time>
      </trkpt>
      <trkpt lat="50.04992" lon="2.1418">
        <ele>29.5</ele>
        <time>2024-03-27T15:58:17Z</time>
      </trkpt>
      <trkpt lat="50.04992" lon="2.1418">
        <ele>29.5</ele>
        <time>2024-03-27T15:58:18Z</time>
      </trkpt>
      <trkpt lat="50.04992" lon="2.1418">
        <ele>29.5</ele>
        <time>2024-03-27T15:58:19Z</time>
      </trkpt>
      <trkpt lat="50.04992" lon="2.1418">
        <ele>29.5</ele>
        <time>2024-03-27T15:58:20Z</time>
      </trkpt>
      <trkpt lat="50.04992" lon="2.1418">
        <ele>29.5</ele>
        <time>2024-03-27T15:58:21Z</time>
      </trkpt>
      <trkpt lat="50.04992" lon="2.1418">
        <ele>29.5</ele>
        <time>2024-03-27T15:58:22Z</time>
      </trkpt>
      <trkpt lat="50.04992" lon="2.1418">
        <ele>29.5</ele>
        <time>2024-03-27T15:58:23Z</time>
      </trkpt>
      <trkpt lat="50.04992" lon="2.1418">
        <ele>29.5</ele>
        <time>2024-03-27T15:58:24Z</time>
      </trkpt>
      <trkpt lat="50.04992" lon="2.1418">
        <ele>29.5</ele>
        <time>2024-03-27T15:58:25Z</time>
      </trkpt>
      <trkpt lat="50.04992" lon="2.1418">
        <ele>29.5</ele>
        <time>2024-03-27T15:58:26Z</time>
      </trkpt>
      <trkpt lat="50.04992" lon="2.1418">
        <ele>29.5</ele>
        <time>2024-03-27T15:58:27Z</time>
      </trkpt>
      <trkpt lat="50.04992" lon="2.1418">
        <ele>29.5</ele>
        <time>2024-03-27T15:58:28Z</time>
      </trkpt>
      <trkpt lat="50.04992" lon="2.1418">
        <ele>29.5</ele>
        <time>2024-03-27T15:58:29Z</time>
      </trkpt>
      <trkpt lat="50.04992" lon="2.1418">
        <ele>29.5</ele>
        <time>2024-03-27T15:58:30Z</time>
      </trkpt>
      <trkpt lat="50.04992" lon="2.1418">
        <ele>29.5</ele>
        <time>2024-03-27T15:58:31Z</time>
      </trkpt>
      <trkpt lat="50.04992" lon="2.1418">
        <ele>29.5</ele>
        <time>2024-03-27T15:58:32Z</time>
      </trkpt>
      <trkpt lat="50.04992" lon="2.1418">
        <ele>29.5</ele>
        <time>2024-03-27T15:58:33Z</time>
      </trkpt>
      <trkpt lat="50.04992" lon="2.1418">
        <ele>29.5</ele>
        <time>2024-03-27T15:58:34Z</time>
      </trkpt>
      <trkpt lat="50.04992" lon="2.1418">
        <ele>29.5</ele>
        <time>2024-03-27T15:58:35Z</time>
      </trkpt>
      <trkpt lat="50.04992" lon="2.1418">
        <ele>29.5</ele>
        <time>2024-03-27T15:58:36Z</time>
      </trkpt>
      <trkpt lat="50.04992" lon="2.1418">
        <ele>29.5</ele>
        <time>2024-03-27T15:58:37Z</time>
      </trkpt>
      <trkpt lat="50.04992" lon="2.1418">
        <ele>29.5</ele>
        <time>2024-03-27T15:58:38Z</time>
      </trkpt>
      <trkpt lat="50.04992" lon="2.1418">
        <ele>29.5</ele>
        <time>2024-03-27T15:58:39Z</time>
      </trkpt>
      <trkpt lat="50.04992" lon="2.1418">
        <ele>29.5</ele>
        <time>2024-03-27T15:58:40Z</time>
      </trkpt>
      <trkpt lat="50.04992" lon="2.1418">
        <ele>29.5</ele>
        <time>2024-03-27T15:58:41Z</time>
      </trkpt>
      <trkpt lat="50.04992" lon="2.1418">
        <ele>29.5</ele>
        <time>2024-03-27T15:58:42Z</time>
      </trkpt>
      <trkpt lat="50.04992" lon="2.1418">
        <ele>29.5</ele>
        <time>2024-03-27T15:58:43Z</time>
      </trkpt>
      <trkpt lat="50.04992" lon="2.1418">
        <ele>29.5</ele>
        <time>2024-03-27T15:58:44Z</time>
      </trkpt>
      <trkpt lat="50.04992" lon="2.1418">
        <ele>29.5</ele>
        <time>2024-03-27T15:58:45Z</time>
      </trkpt>
      <trkpt lat="50.04992" lon="2.1418">
        <ele>29.5</ele>
        <time>2024-03-27T15:58:46Z</time>
      </trkpt>
      <trkpt lat="50.04992" lon="2.1418">
        <ele>29.5</ele>
        <time>2024-03-27T15:58:47Z</time>
      </trkpt>
      <trkpt lat="50.04992" lon="2.1418">
        <ele>29.5</ele>
        <time>2024-03-27T15:58:48Z</time>
      </trkpt>
      <trkpt lat="50.04992" lon="2.1418">
        <ele>29.5</ele>
        <time>2024-03-27T15:58:49Z</time>
      </trkpt>
      <trkpt lat="50.04992" lon="2.1418">
        <ele>29.5</ele>
        <time>2024-03-27T15:58:50Z</time>
      </trkpt>
      <trkpt lat="50.04992" lon="2.1418">
        <ele>29.5</ele>
        <time>2024-03-27T15:58:51Z</time>
      </trkpt>
      <trkpt lat="50.04992" lon="2.1418">
        <ele>29.5</ele>
        <time>2024-03-27T15:58:52Z</time>
      </trkpt>
      <trkpt lat="50.04992" lon="2.1418">
        <ele>29.5</ele>
        <time>2024-03-27T15:58:53Z</time>
      </trkpt>
      <trkpt lat="50.04992" lon="2.1418">
        <ele>29.5</ele>
        <time>2024-03-27T15:58:54Z</time>
      </trkpt>
      <trkpt lat="50.04992" lon="2.1418">
        <ele>29.5</ele>
        <time>2024-03-27T15:58:55Z</time>
      </trkpt>
      <trkpt lat="50.04992" lon="2.1418">
        <ele>29.5</ele>
        <time>2024-03-27T15:58:56Z</time>
      </trkpt>
      <trkpt lat="50.04992" lon="2.1418">
        <ele>29.5</ele>
        <time>2024-03-27T15:58:57Z</time>
      </trkpt>
      <trkpt lat="50.04992" lon="2.1418">
        <ele>29.5</ele>
        <time>2024-03-27T15:58:58Z</time>
      </trkpt>
      <trkpt lat="50.04992" lon="2.1418">
        <ele>29.5</ele>
        <time>2024-03-27T15:58:59Z</time>
      </trkpt>
      <trkpt lat="50.04992" lon="2.1418">
        <ele>29.5</ele>
        <time>2024-03-27T15:59:00Z</time>
      </trkpt>
      <trkpt lat="50.04992" lon="2.1418">
        <ele>29.5</ele>
        <time>2024-03-27T15:59:01Z</time>
      </trkpt>
      <trkpt lat="50.04992" lon="2.1418">
        <ele>29.5</ele>
        <time>2024-03-27T15:59:02Z</time>
      </trkpt>
      <trkpt lat="50.04992" lon="2.1418">
        <ele>29.5</ele>
        <time>2024-03-27T15:59:03Z</time>
      </trkpt>
      <trkpt lat="50.04992" lon="2.1418">
        <ele>29.5</ele>
        <time>2024-03-27T15:59:04Z</time>
      </trkpt>
      <trkpt lat="50.04992" lon="2.1418">
        <ele>29.5</ele>
        <time>2024-03-27T15:59:05Z</time>
      </trkpt>
      <trkpt lat="50.04992" lon="2.1418">
        <ele>29.5</ele>
        <time>2024-03-27T15:59:06Z</time>
      </trkpt>
      <trkpt lat="50.04992" lon="2.1418">
        <ele>29.5</ele>
        <time>2024-03-27T15:59:07Z</time>
      </trkpt>
      <trkpt lat="50.04992" lon="2.1418">
        <ele>29.5</ele>
        <time>2024-03-27T15:59:08Z</time>
      </trkpt>
      <trkpt lat="50.04992" lon="2.1418">
        <ele>29.5</ele>
        <time>2024-03-27T15:59:09Z</time>
      </trkpt>
      <trkpt lat="50.04992" lon="2.1418">
        <ele>29.5</ele>
        <time>2024-03-27T15:59:10Z</time>
      </trkpt>
      <trkpt lat="50.04992" lon="2.1418">
        <ele>29.5</ele>
        <time>2024-03-27T15:59:11Z</time>
      </trkpt>
      <trkpt lat="50.04992" lon="2.1418">
        <ele>29.5</ele>
        <time>2024-03-27T15:59:12Z</time>
      </trkpt>
      <trkpt lat="50.04992" lon="2.1418">
        <ele>29.5</ele>
        <time>2024-03-27T15:59:13Z</time>
      </trkpt>
      <trkpt lat="50.04992" lon="2.1418">
        <ele>29.5</ele>
        <time>2024-03-27T15:59:14Z</time>
      </trkpt>
      <trkpt lat="50.04992" lon="2.1418">
        <ele>29.5</ele>
        <time>2024-03-27T15:59:15Z</time>
      </trkpt>
      <trkpt lat="50.04992" lon="2.1418">
        <ele>29.5</ele>
        <time>2024-03-27T15:59:16Z</time>
      </trkpt>
      <trkpt lat="50.04992" lon="2.1418">
        <ele>29.5</ele>
        <time>2024-03-27T15:59:17Z</time>
      </trkpt>
      <trkpt lat="50.04992" lon="2.1418">
        <ele>29.5</ele>
        <time>2024-03-27T15:59:18Z</time>
      </trkpt>
      <trkpt lat="50.04992" lon="2.1418">
        <ele>29.5</ele>
        <time>2024-03-27T15:59:19Z</time>
      </trkpt>
      <trkpt lat="50.04993" lon="2.1418">
        <ele>29.5</ele>
        <time>2024-03-27T15:59:20Z</time>
      </trkpt>
      <trkpt lat="50.04993" lon="2.1418">
        <ele>29.5</ele>
        <time>2024-03-27T15:59:21Z</time>
      </trkpt>
      <trkpt lat="50.04992" lon="2.1418">
        <ele>29.5</ele>
        <time>2024-03-27T15:59:22Z</time>
      </trkpt>
      <trkpt lat="50.04992" lon="2.1418">
        <ele>29.5</ele>
        <time>2024-03-27T15:59:23Z</time>
      </trkpt>
      <trkpt lat="50.04992" lon="2.1418">
        <ele>29.5</ele>
        <time>2024-03-27T15:59:24Z</time>
      </trkpt>
      <trkpt lat="50.04992" lon="2.1418">
        <ele>29.5</ele>
        <time>2024-03-27T15:59:25Z</time>
      </trkpt>
      <trkpt lat="50.04992" lon="2.1418">
        <ele>29.5</ele>
        <time>2024-03-27T15:59:26Z</time>
      </trkpt>
      <trkpt lat="50.04992" lon="2.1418">
        <ele>29.5</ele>
        <time>2024-03-27T15:59:27Z</time>
      </trkpt>
      <trkpt lat="50.04992" lon="2.1418">
        <ele>29.5</ele>
        <time>2024-03-27T15:59:28Z</time>
      </trkpt>
      <trkpt lat="50.04992" lon="2.1418">
        <ele>29.5</ele>
        <time>2024-03-27T15:59:29Z</time>
      </trkpt>
      <trkpt lat="50.04992" lon="2.1418">
        <ele>29.5</ele>
        <time>2024-03-27T15:59:30Z</time>
      </trkpt>
      <trkpt lat="50.04992" lon="2.1418">
        <ele>29.5</ele>
        <time>2024-03-27T15:59:31Z</time>
      </trkpt>
      <trkpt lat="50.04992" lon="2.1418">
        <ele>29.5</ele>
        <time>2024-03-27T15:59:32Z</time>
      </trkpt>
      <trkpt lat="50.04992" lon="2.1418">
        <ele>29.5</ele>
        <time>2024-03-27T15:59:33Z</time>
      </trkpt>
      <trkpt lat="50.04992" lon="2.1418">
        <ele>29.5</ele>
        <time>2024-03-27T15:59:34Z</time>
      </trkpt>
      <trkpt lat="50.04992" lon="2.1418">
        <ele>29.5</ele>
        <time>2024-03-27T15:59:35Z</time>
      </trkpt>
      <trkpt lat="50.04992" lon="2.1418">
        <ele>29.5</ele>
        <time>2024-03-27T15:59:36Z</time>
      </trkpt>
      <trkpt lat="50.04992" lon="2.1418">
        <ele>29.5</ele>
        <time>2024-03-27T15:59:37Z</time>
      </trkpt>
      <trkpt lat="50.04992" lon="2.1418">
        <ele>29.5</ele>
        <time>2024-03-27T15:59:38Z</time>
      </trkpt>
      <trkpt lat="50.04992" lon="2.1418">
        <ele>29.5</ele>
        <time>2024-03-27T15:59:39Z</time>
      </trkpt>
      <trkpt lat="50.04992" lon="2.1418">
        <ele>29.5</ele>
        <time>2024-03-27T15:59:40Z</time>
      </trkpt>
      <trkpt lat="50.04992" lon="2.1418">
        <ele>29.5</ele>
        <time>2024-03-27T15:59:41Z</time>
      </trkpt>
      <trkpt lat="50.04992" lon="2.1418">
        <ele>29.5</ele>
        <time>2024-03-27T15:59:42Z</time>
      </trkpt>
      <trkpt lat="50.04992" lon="2.1418">
        <ele>29.5</ele>
        <time>2024-03-27T15:59:43Z</time>
      </trkpt>
      <trkpt lat="50.04992" lon="2.1418">
        <ele>29.5</ele>
        <time>2024-03-27T15:59:44Z</time>
      </trkpt>
      <trkpt lat="50.04992" lon="2.1418">
        <ele>29.5</ele>
        <time>2024-03-27T15:59:45Z</time>
      </trkpt>
      <trkpt lat="50.04992" lon="2.1418">
        <ele>29.5</ele>
        <time>2024-03-27T15:59:46Z</time>
      </trkpt>
      <trkpt lat="50.04992" lon="2.1418">
        <ele>29.5</ele>
        <time>2024-03-27T15:59:47Z</time>
      </trkpt>
      <trkpt lat="50.04992" lon="2.1418">
        <ele>29.5</ele>
        <time>2024-03-27T15:59:48Z</time>
      </trkpt>
      <trkpt lat="50.04992" lon="2.1418">
        <ele>29.5</ele>
        <time>2024-03-27T15:59:49Z</time>
      </trkpt>
      <trkpt lat="50.04992" lon="2.1418">
        <ele>29.5</ele>
        <time>2024-03-27T15:59:50Z</time>
      </trkpt>
      <trkpt lat="50.04992" lon="2.1418">
        <ele>29.5</ele>
        <time>2024-03-27T15:59:51Z</time>
      </trkpt>
      <trkpt lat="50.04992" lon="2.1418">
        <ele>29.5</ele>
        <time>2024-03-27T15:59:52Z</time>
      </trkpt>
      <trkpt lat="50.04992" lon="2.1418">
        <ele>29.5</ele>
        <time>2024-03-27T15:59:53Z</time>
      </trkpt>
      <trkpt lat="50.04992" lon="2.1418">
        <ele>29.5</ele>
        <time>2024-03-27T15:59:54Z</time>
      </trkpt>
      <trkpt lat="50.04992" lon="2.1418">
        <ele>29.5</ele>
        <time>2024-03-27T15:59:55Z</time>
      </trkpt>
      <trkpt lat="50.04992" lon="2.1418">
        <ele>29.5</ele>
        <time>2024-03-27T15:59:56Z</time>
      </trkpt>
      <trkpt lat="50.04992" lon="2.1418">
        <ele>29.5</ele>
        <time>2024-03-27T15:59:57Z</time>
      </trkpt>
      <trkpt lat="50.04992" lon="2.1418">
        <ele>29.5</ele>
        <time>2024-03-27T15:59:58Z</time>
      </trkpt>
      <trkpt lat="50.04992" lon="2.1418">
        <ele>29.5</ele>
        <time>2024-03-27T15:59:59Z</time>
      </trkpt>
      <trkpt lat="50.04992" lon="2.1418">
        <ele>29.5</ele>
        <time>2024-03-27T16:00:00Z</time>
      </trkpt>
      <trkpt lat="50.04992" lon="2.1418">
        <ele>29.5</ele>
        <time>2024-03-27T16:00:01Z</time>
      </trkpt>
      <trkpt lat="50.04992" lon="2.1418">
        <ele>29.5</ele>
        <time>2024-03-27T16:00:02Z</time>
      </trkpt>
      <trkpt lat="50.04992" lon="2.1418">
        <ele>29.5</ele>
        <time>2024-03-27T16:00:03Z</time>
      </trkpt>
      <trkpt lat="50.04992" lon="2.1418">
        <ele>29.5</ele>
        <time>2024-03-27T16:00:04Z</time>
      </trkpt>
      <trkpt lat="50.04992" lon="2.1418">
        <ele>29.5</ele>
        <time>2024-03-27T16:00:05Z</time>
      </trkpt>
      <trkpt lat="50.04992" lon="2.1418">
        <ele>29.5</ele>
        <time>2024-03-27T16:00:06Z</time>
      </trkpt>
      <trkpt lat="50.04992" lon="2.1418">
        <ele>29.5</ele>
        <time>2024-03-27T16:00:07Z</time>
      </trkpt>
      <trkpt lat="50.04992" lon="2.1418">
        <ele>29.5</ele>
        <time>2024-03-27T16:00:08Z</time>
      </trkpt>
      <trkpt lat="50.04992" lon="2.1418">
        <ele>29.5</ele>
        <time>2024-03-27T16:00:09Z</time>
      </trkpt>
      <trkpt lat="50.04992" lon="2.1418">
        <ele>29.5</ele>
        <time>2024-03-27T16:00:10Z</time>
      </trkpt>
      <trkpt lat="50.04992" lon="2.1418">
        <ele>29.5</ele>
        <time>2024-03-27T16:00:11Z</time>
      </trkpt>
      <trkpt lat="50.04992" lon="2.1418">
        <ele>29.5</ele>
        <time>2024-03-27T16:00:12Z</time>
      </trkpt>
      <trkpt lat="50.04992" lon="2.1418">
        <ele>29.5</ele>
        <time>2024-03-27T16:00:13Z</time>
      </trkpt>
      <trkpt lat="50.04992" lon="2.1418">
        <ele>29.5</ele>
        <time>2024-03-27T16:00:14Z</time>
      </trkpt>
      <trkpt lat="50.04992" lon="2.1418">
        <ele>29.5</ele>
        <time>2024-03-27T16:00:15Z</time>
      </trkpt>
      <trkpt lat="50.04992" lon="2.1418">
        <ele>29.5</ele>
        <time>2024-03-27T16:00:16Z</time>
      </trkpt>
      <trkpt lat="50.04992" lon="2.1418">
        <ele>29.5</ele>
        <time>2024-03-27T16:00:17Z</time>
      </trkpt>
      <trkpt lat="50.04992" lon="2.1418">
        <ele>29.5</ele>
        <time>2024-03-27T16:00:18Z</time>
      </trkpt>
      <trkpt lat="50.04992" lon="2.1418">
        <ele>29.5</ele>
        <time>2024-03-27T16:00:19Z</time>
      </trkpt>
      <trkpt lat="50.04992" lon="2.1418">
        <ele>29.5</ele>
        <time>2024-03-27T16:00:20Z</time>
      </trkpt>
      <trkpt lat="50.04992" lon="2.1418">
        <ele>29.5</ele>
        <time>2024-03-27T16:00:21Z</time>
      </trkpt>
      <trkpt lat="50.04992" lon="2.1418">
        <ele>29.5</ele>
        <time>2024-03-27T16:00:22Z</time>
      </trkpt>
      <trkpt lat="50.04992" lon="2.1418">
        <ele>29.5</ele>
        <time>2024-03-27T16:00:23Z</time>
      </trkpt>
      <trkpt lat="50.04992" lon="2.1418">
        <ele>29.5</ele>
        <time>2024-03-27T16:00:24Z</time>
      </trkpt>
      <trkpt lat="50.04994" lon="2.14181">
        <ele>29.5</ele>
        <time>2024-03-27T16:00:25Z</time>
      </trkpt>
      <trkpt lat="50.04993" lon="2.1418">
        <ele>29.5</ele>
        <time>2024-03-27T16:00:26Z</time>
      </trkpt>
      <trkpt lat="50.04995" lon="2.14181">
        <ele>29.5</ele>
        <time>2024-03-27T16:00:27Z</time>
      </trkpt>
      <trkpt lat="50.04995" lon="2.14181">
        <ele>29.5</ele>
        <time>2024-03-27T16:00:28Z</time>
      </trkpt>
      <trkpt lat="50.04995" lon="2.14181">
        <ele>29.5</ele>
        <time>2024-03-27T16:00:29Z</time>
      </trkpt>
      <trkpt lat="50.04995" lon="2.14181">
        <ele>29.5</ele>
        <time>2024-03-27T16:00:30Z</time>
      </trkpt>
      <trkpt lat="50.04995" lon="2.14181">
        <ele>29.5</ele>
        <time>2024-03-27T16:00:31Z</time>
      </trkpt>
      <trkpt lat="50.04995" lon="2.14181">
        <ele>29.5</ele>
        <time>2024-03-27T16:00:32Z</time>
      </trkpt>
      <trkpt lat="50.04995" lon="2.14181">
        <ele>29.5</ele>
        <time>2024-03-27T16:00:33Z</time>
      </trkpt>
      <trkpt lat="50.04995" lon="2.14181">
        <ele>29.5</ele>
        <time>2024-03-27T16:00:34Z</time>
      </trkpt>
      <trkpt lat="50.04995" lon="2.14181">
        <ele>29.5</ele>
        <time>2024-03-27T16:00:35Z</time>
      </trkpt>
      <trkpt lat="50.04995" lon="2.14181">
        <ele>29.5</ele>
        <time>2024-03-27T16:00:36Z</time>
      </trkpt>
      <trkpt lat="50.04995" lon="2.14181">
        <ele>29.5</ele>
        <time>2024-03-27T16:00:37Z</time>
      </trkpt>
      <trkpt lat="50.04995" lon="2.14181">
        <ele>29.5</ele>
        <time>2024-03-27T16:00:38Z</time>
      </trkpt>
      <trkpt lat="50.04995" lon="2.14181">
        <ele>29.5</ele>
        <time>2024-03-27T16:00:39Z</time>
      </trkpt>
      <trkpt lat="50.04995" lon="2.14181">
        <ele>29.5</ele>
        <time>2024-03-27T16:00:40Z</time>
      </trkpt>
      <trkpt lat="50.04995" lon="2.14181">
        <ele>29.5</ele>
        <time>2024-03-27T16:00:41Z</time>
      </trkpt>
      <trkpt lat="50.04995" lon="2.14181">
        <ele>29.5</ele>
        <time>2024-03-27T16:00:42Z</time>
      </trkpt>
      <trkpt lat="50.04995" lon="2.14181">
        <ele>29.5</ele>
        <time>2024-03-27T16:00:43Z</time>
      </trkpt>
      <trkpt lat="50.04995" lon="2.14181">
        <ele>29.5</ele>
        <time>2024-03-27T16:00:44Z</time>
      </trkpt>
      <trkpt lat="50.04995" lon="2.14181">
        <ele>29.5</ele>
        <time>2024-03-27T16:00:45Z</time>
      </trkpt>
      <trkpt lat="50.04995" lon="2.14181">
        <ele>29.5</ele>
        <time>2024-03-27T16:00:46Z</time>
      </trkpt>
      <trkpt lat="50.04995" lon="2.14181">
        <ele>29.5</ele>
        <time>2024-03-27T16:00:47Z</time>
      </trkpt>
      <trkpt lat="50.04995" lon="2.14181">
        <ele>29.5</ele>
        <time>2024-03-27T16:00:48Z</time>
      </trkpt>
      <trkpt lat="50.04995" lon="2.14181">
        <ele>29.5</ele>
        <time>2024-03-27T16:00:49Z</time>
      </trkpt>
      <trkpt lat="50.04995" lon="2.14181">
        <ele>29.5</ele>
        <time>2024-03-27T16:00:50Z</time>
      </trkpt>
      <trkpt lat="50.04995" lon="2.14181">
        <ele>29.5</ele>
        <time>2024-03-27T16:00:51Z</time>
      </trkpt>
      <trkpt lat="50.04995" lon="2.14181">
        <ele>29.5</ele>
        <time>2024-03-27T16:00:52Z</time>
      </trkpt>
      <trkpt lat="50.04995" lon="2.14181">
        <ele>29.5</ele>
        <time>2024-03-27T16:00:53Z</time>
      </trkpt>
      <trkpt lat="50.04995" lon="2.14181">
        <ele>29.5</ele>
        <time>2024-03-27T16:00:54Z</time>
      </trkpt>
      <trkpt lat="50.04995" lon="2.14181">
        <ele>29.5</ele>
        <time>2024-03-27T16:00:55Z</time>
      </trkpt>
      <trkpt lat="50.04995" lon="2.14181">
        <ele>29.5</ele>
        <time>2024-03-27T16:00:56Z</time>
      </trkpt>
      <trkpt lat="50.04995" lon="2.14181">
        <ele>29.5</ele>
        <time>2024-03-27T16:00:57Z</time>
      </trkpt>
      <trkpt lat="50.04995" lon="2.14181">
        <ele>29.5</ele>
        <time>2024-03-27T16:00:58Z</time>
      </trkpt>
      <trkpt lat="50.04995" lon="2.14181">
        <ele>29.5</ele>
        <time>2024-03-27T16:00:59Z</time>
      </trkpt>
      <trkpt lat="50.04995" lon="2.14181">
        <ele>29.5</ele>
        <time>2024-03-27T16:01:00Z</time>
      </trkpt>
      <trkpt lat="50.04995" lon="2.14181">
        <ele>29.5</ele>
        <time>2024-03-27T16:01:01Z</time>
      </trkpt>
      <trkpt lat="50.04995" lon="2.14181">
        <ele>29.5</ele>
        <time>2024-03-27T16:01:02Z</time>
      </trkpt>
      <trkpt lat="50.04995" lon="2.14181">
        <ele>29.5</ele>
        <time>2024-03-27T16:01:03Z</time>
      </trkpt>
      <trkpt lat="50.04995" lon="2.14181">
        <ele>29.5</ele>
        <time>2024-03-27T16:01:04Z</time>
      </trkpt>
      <trkpt lat="50.04995" lon="2.14181">
        <ele>29.5</ele>
        <time>2024-03-27T16:01:05Z</time>
      </trkpt>
      <trkpt lat="50.04995" lon="2.14181">
        <ele>29.5</ele>
        <time>2024-03-27T16:01:06Z</time>
      </trkpt>
      <trkpt lat="50.04995" lon="2.14181">
        <ele>29.5</ele>
        <time>2024-03-27T16:01:07Z</time>
      </trkpt>
      <trkpt lat="50.04995" lon="2.14181">
        <ele>29.5</ele>
        <time>2024-03-27T16:01:08Z</time>
      </trkpt>
      <trkpt lat="50.04995" lon="2.14181">
        <ele>29.5</ele>
        <time>2024-03-27T16:01:09Z</time>
      </trkpt>
      <trkpt lat="50.04995" lon="2.14181">
        <ele>29.5</ele>
        <time>2024-03-27T16:01:10Z</time>
      </trkpt>
      <trkpt lat="50.04995" lon="2.14181">
        <ele>29.5</ele>
        <time>2024-03-27T16:01:11Z</time>
      </trkpt>
      <trkpt lat="50.04995" lon="2.14181">
        <ele>29.5</ele>
        <time>2024-03-27T16:01:12Z</time>
      </trkpt>
      <trkpt lat="50.04995" lon="2.14181">
        <ele>29.5</ele>
        <time>2024-03-27T16:01:13Z</time>
      </trkpt>
      <trkpt lat="50.04995" lon="2.14181">
        <ele>29.5</ele>
        <time>2024-03-27T16:01:14Z</time>
      </trkpt>
      <trkpt lat="50.04995" lon="2.14181">
        <ele>29.5</ele>
        <time>2024-03-27T16:01:15Z</time>
      </trkpt>
      <trkpt lat="50.04995" lon="2.14181">
        <ele>29.5</ele>
        <time>2024-03-27T16:01:16Z</time>
      </trkpt>
      <trkpt lat="50.04995" lon="2.14181">
        <ele>29.5</ele>
        <time>2024-03-27T16:01:17Z</time>
      </trkpt>
      <trkpt lat="50.04995" lon="2.14181">
        <ele>29.5</ele>
        <time>2024-03-27T16:01:18Z</time>
      </trkpt>
      <trkpt lat="50.04995" lon="2.14181">
        <ele>29.5</ele>
        <time>2024-03-27T16:01:19Z</time>
      </trkpt>
      <trkpt lat="50.04995" lon="2.14181">
        <ele>29.5</ele>
        <time>2024-03-27T16:01:20Z</time>
      </trkpt>
      <trkpt lat="50.04995" lon="2.14181">
        <ele>29.5</ele>
        <time>2024-03-27T16:01:21Z</time>
      </trkpt>
      <trkpt lat="50.04995" lon="2.14181">
        <ele>29.5</ele>
        <time>2024-03-27T16:01:22Z</time>
      </trkpt>
      <trkpt lat="50.04995" lon="2.14181">
        <ele>29.5</ele>
        <time>2024-03-27T16:01:23Z</time>
      </trkpt>
      <trkpt lat="50.04995" lon="2.14181">
        <ele>29.5</ele>
        <time>2024-03-27T16:01:24Z</time>
      </trkpt>
      <trkpt lat="50.04995" lon="2.14181">
        <ele>29.5</ele>
        <time>2024-03-27T16:01:25Z</time>
      </trkpt>
      <trkpt lat="50.04995" lon="2.14181">
        <ele>29.5</ele>
        <time>2024-03-27T16:01:26Z</time>
      </trkpt>
      <trkpt lat="50.04995" lon="2.14181">
        <ele>29.5</ele>
        <time>2024-03-27T16:01:27Z</time>
      </trkpt>
      <trkpt lat="50.04995" lon="2.14181">
        <ele>29.5</ele>
        <time>2024-03-27T16:01:28Z</time>
      </trkpt>
      <trkpt lat="50.04995" lon="2.14181">
        <ele>29.5</ele>
        <time>2024-03-27T16:01:29Z</time>
      </trkpt>
      <trkpt lat="50.04995" lon="2.14181">
        <ele>29.5</ele>
        <time>2024-03-27T16:01:30Z</time>
      </trkpt>
      <trkpt lat="50.04995" lon="2.14181">
        <ele>29.5</ele>
        <time>2024-03-27T16:01:31Z</time>
      </trkpt>
      <trkpt lat="50.04995" lon="2.14181">
        <ele>29.5</ele>
        <time>2024-03-27T16:01:32Z</time>
      </trkpt>
      <trkpt lat="50.04995" lon="2.14181">
        <ele>29.5</ele>
        <time>2024-03-27T16:01:33Z</time>
      </trkpt>
      <trkpt lat="50.04995" lon="2.14181">
        <ele>29.5</ele>
        <time>2024-03-27T16:01:34Z</time>
      </trkpt>
      <trkpt lat="50.04995" lon="2.14181">
        <ele>29.5</ele>
        <time>2024-03-27T16:01:35Z</time>
      </trkpt>
      <trkpt lat="50.04995" lon="2.14181">
        <ele>29.5</ele>
        <time>2024-03-27T16:01:36Z</time>
      </trkpt>
      <trkpt lat="50.04995" lon="2.14181">
        <ele>29.5</ele>
        <time>2024-03-27T16:01:37Z</time>
      </trkpt>
      <trkpt lat="50.04995" lon="2.14181">
        <ele>29.5</ele>
        <time>2024-03-27T16:01:38Z</time>
      </trkpt>
      <trkpt lat="50.04995" lon="2.14181">
        <ele>29.5</ele>
        <time>2024-03-27T16:01:39Z</time>
      </trkpt>
      <trkpt lat="50.04995" lon="2.14181">
        <ele>29.5</ele>
        <time>2024-03-27T16:01:40Z</time>
      </trkpt>
      <trkpt lat="50.04995" lon="2.14181">
        <ele>29.5</ele>
        <time>2024-03-27T16:01:41Z</time>
      </trkpt>
      <trkpt lat="50.04995" lon="2.14181">
        <ele>29.5</ele>
        <time>2024-03-27T16:01:42Z</time>
      </trkpt>
      <trkpt lat="50.04995" lon="2.14181">
        <ele>29.5</ele>
        <time>2024-03-27T16:01:43Z</time>
      </trkpt>
      <trkpt lat="50.04995" lon="2.14181">
        <ele>29.5</ele>
        <time>2024-03-27T16:01:44Z</time>
      </trkpt>
      <trkpt lat="50.04995" lon="2.14181">
        <ele>29.5</ele>
        <time>2024-03-27T16:01:45Z</time>
      </trkpt>
      <trkpt lat="50.04995" lon="2.14181">
        <ele>29.5</ele>
        <time>2024-03-27T16:01:46Z</time>
      </trkpt>
      <trkpt lat="50.04995" lon="2.14181">
        <ele>29.5</ele>
        <time>2024-03-27T16:01:47Z</time>
      </trkpt>
      <trkpt lat="50.04995" lon="2.14181">
        <ele>29.5</ele>
        <time>2024-03-27T16:01:48Z</time>
      </trkpt>
      <trkpt lat="50.04995" lon="2.14181">
        <ele>29.5</ele>
        <time>2024-03-27T16:01:49Z</time>
      </trkpt>
      <trkpt lat="50.04995" lon="2.14181">
        <ele>29.5</ele>
        <time>2024-03-27T16:01:50Z</time>
      </trkpt>
      <trkpt lat="50.04995" lon="2.14181">
        <ele>29.5</ele>
        <time>2024-03-27T16:01:51Z</time>
      </trkpt>
      <trkpt lat="50.04995" lon="2.14181">
        <ele>29.5</ele>
        <time>2024-03-27T16:01:52Z</time>
      </trkpt>
      <trkpt lat="50.04995" lon="2.14181">
        <ele>29.5</ele>
        <time>2024-03-27T16:01:53Z</time>
      </trkpt>
      <trkpt lat="50.04995" lon="2.14181">
        <ele>29.5</ele>
        <time>2024-03-27T16:01:54Z</time>
      </trkpt>
      <trkpt lat="50.04995" lon="2.14181">
        <ele>29.5</ele>
        <time>2024-03-27T16:01:55Z</time>
      </trkpt>
      <trkpt lat="50.04995" lon="2.14181">
        <ele>29.5</ele>
        <time>2024-03-27T16:01:56Z</time>
      </trkpt>
      <trkpt lat="50.04995" lon="2.14181">
        <ele>29.5</ele>
        <time>2024-03-27T16:01:57Z</time>
      </trkpt>
      <trkpt lat="50.04995" lon="2.14181">
        <ele>29.5</ele>
        <time>2024-03-27T16:01:58Z</time>
      </trkpt>
      <trkpt lat="50.04996" lon="2.14181">
        <ele>29.5</ele>
        <time>2024-03-27T16:01:59Z</time>
      </trkpt>
      <trkpt lat="50.04996" lon="2.14181">
        <ele>29.5</ele>
        <time>2024-03-27T16:02:00Z</time>
      </trkpt>
      <trkpt lat="50.04997" lon="2.14182">
        <ele>29.5</ele>
        <time>2024-03-27T16:02:01Z</time>
      </trkpt>
      <trkpt lat="50.04997" lon="2.14182">
        <ele>29.5</ele>
        <time>2024-03-27T16:02:02Z</time>
      </trkpt>
      <trkpt lat="50.04997" lon="2.14182">
        <ele>29.5</ele>
        <time>2024-03-27T16:02:03Z</time>
      </trkpt>
      <trkpt lat="50.04997" lon="2.14182">
        <ele>29.5</ele>
        <time>2024-03-27T16:02:04Z</time>
      </trkpt>
      <trkpt lat="50.04997" lon="2.14182">
        <ele>29.5</ele>
        <time>2024-03-27T16:02:05Z</time>
      </trkpt>
      <trkpt lat="50.04997" lon="2.14182">
        <ele>29.5</ele>
        <time>2024-03-27T16:02:06Z</time>
      </trkpt>
      <trkpt lat="50.04997" lon="2.14182">
        <ele>29.5</ele>
        <time>2024-03-27T16:02:07Z</time>
      </trkpt>
      <trkpt lat="50.04997" lon="2.14182">
        <ele>29.5</ele>
        <time>2024-03-27T16:02:08Z</time>
      </trkpt>
      <trkpt lat="50.04997" lon="2.14182">
        <ele>29.5</ele>
        <time>2024-03-27T16:02:09Z</time>
      </trkpt>
      <trkpt lat="50.04997" lon="2.14182">
        <ele>29.5</ele>
        <time>2024-03-27T16:02:10Z</time>
      </trkpt>
      <trkpt lat="50.04997" lon="2.14182">
        <ele>29.5</ele>
        <time>2024-03-27T16:02:11Z</time>
      </trkpt>
      <trkpt lat="50.04997" lon="2.14182">
        <ele>29.5</ele>
        <time>2024-03-27T16:02:12Z</time>
      </trkpt>
      <trkpt lat="50.04997" lon="2.14182">
        <ele>29.5</ele>
        <time>2024-03-27T16:02:13Z</time>
      </trkpt>
      <trkpt lat="50.04997" lon="2.14182">
        <ele>29.5</ele>
        <time>2024-03-27T16:02:14Z</time>
      </trkpt>
      <trkpt lat="50.04997" lon="2.14182">
        <ele>29.5</ele>
        <time>2024-03-27T16:02:15Z</time>
      </trkpt>
      <trkpt lat="50.04997" lon="2.14182">
        <ele>29.5</ele>
        <time>2024-03-27T16:02:16Z</time>
      </trkpt>
      <trkpt lat="50.04997" lon="2.14182">
        <ele>29.5</ele>
        <time>2024-03-27T16:02:18Z</time>
      </trkpt>
      <trkpt lat="50.04997" lon="2.14182">
        <ele>29.5</ele>
        <time>2024-03-27T16:02:19Z</time>
      </trkpt>
      <trkpt lat="50.04997" lon="2.14182">
        <ele>29.5</ele>
        <time>2024-03-27T16:02:20Z</time>
      </trkpt>
      <trkpt lat="50.04997" lon="2.14182">
        <ele>29.5</ele>
        <time>2024-03-27T16:02:21Z</time>
      </trkpt>
    </trkseg>
  </trk>
</gpx>